<?xml version="1.0" encoding="utf-8"?>
<gpx xmlns:xsi="http://www.w3.org/2001/XMLSchema-instance" xmlns:xsd="http://www.w3.org/2001/XMLSchema" version="1.1" creator="Shapelink.com" xmlns="http://www.topografix.com/GPX/1/1" xmlns:gpxtpx="http://www.garmin.com/xmlschemas/TrackPointExtension/v1">
  <metadata>
    <name>Gåing 9.21 km, 2013-03-08</name>
    <desc></desc>
    <author><name>Mikael Blom</name></author> 
    <time>2013-03-08T17:41:46Z</time>
  </metadata>
  <trk>
    <name>Gåing 9.21 km, 2013-03-08</name>
    <trkseg>
      <trkpt lat="59.9789846" lon="17.7398413">
        <ele>38.5901</ele>
        <time>2013-03-08T17:41:46Z</time>
      </trkpt>
      <trkpt lat="59.9789848" lon="17.7398195">
        <ele>39.5513</ele>
        <time>2013-03-08T17:41:47Z</time>
      </trkpt>
      <trkpt lat="59.9789861" lon="17.7397983">
        <ele>40.0321</ele>
        <time>2013-03-08T17:41:48Z</time>
      </trkpt>
      <trkpt lat="59.9789868" lon="17.7397734">
        <ele>40.0321</ele>
        <time>2013-03-08T17:41:49Z</time>
      </trkpt>
      <trkpt lat="59.9789856" lon="17.7397486">
        <ele>40.0321</ele>
        <time>2013-03-08T17:41:50Z</time>
      </trkpt>
      <trkpt lat="59.9789868" lon="17.73972">
        <ele>40.0321</ele>
        <time>2013-03-08T17:41:51Z</time>
      </trkpt>
      <trkpt lat="59.9789898" lon="17.7396931">
        <ele>40.0321</ele>
        <time>2013-03-08T17:41:52Z</time>
      </trkpt>
      <trkpt lat="59.9789931" lon="17.7396687">
        <ele>40.0321</ele>
        <time>2013-03-08T17:41:53Z</time>
      </trkpt>
      <trkpt lat="59.9789986" lon="17.7396424">
        <ele>39.5513</ele>
        <time>2013-03-08T17:41:54Z</time>
      </trkpt>
      <trkpt lat="59.9790017" lon="17.7396174">
        <ele>39.5513</ele>
        <time>2013-03-08T17:41:55Z</time>
      </trkpt>
      <trkpt lat="59.9790023" lon="17.7395966">
        <ele>39.0707</ele>
        <time>2013-03-08T17:41:56Z</time>
      </trkpt>
      <trkpt lat="59.9790038" lon="17.7395787">
        <ele>38.5901</ele>
        <time>2013-03-08T17:41:57Z</time>
      </trkpt>
      <trkpt lat="59.9790019" lon="17.7395642">
        <ele>38.5901</ele>
        <time>2013-03-08T17:41:58Z</time>
      </trkpt>
      <trkpt lat="59.9789998" lon="17.739548">
        <ele>38.1094</ele>
        <time>2013-03-08T17:41:59Z</time>
      </trkpt>
      <trkpt lat="59.978992" lon="17.7395313">
        <ele>37.6287</ele>
        <time>2013-03-08T17:42:00Z</time>
      </trkpt>
      <trkpt lat="59.978983" lon="17.7395154">
        <ele>37.6287</ele>
        <time>2013-03-08T17:42:01Z</time>
      </trkpt>
      <trkpt lat="59.9789737" lon="17.739502">
        <ele>37.1481</ele>
        <time>2013-03-08T17:42:02Z</time>
      </trkpt>
      <trkpt lat="59.9789609" lon="17.7394888">
        <ele>37.1481</ele>
        <time>2013-03-08T17:42:03Z</time>
      </trkpt>
      <trkpt lat="59.9789541" lon="17.7394715">
        <ele>37.1481</ele>
        <time>2013-03-08T17:42:04Z</time>
      </trkpt>
      <trkpt lat="59.9789478" lon="17.7394542">
        <ele>36.6675</ele>
        <time>2013-03-08T17:42:05Z</time>
      </trkpt>
      <trkpt lat="59.9789408" lon="17.7394367">
        <ele>36.6675</ele>
        <time>2013-03-08T17:42:06Z</time>
      </trkpt>
      <trkpt lat="59.9789324" lon="17.7394201">
        <ele>36.6675</ele>
        <time>2013-03-08T17:42:07Z</time>
      </trkpt>
      <trkpt lat="59.9789257" lon="17.7394015">
        <ele>36.6675</ele>
        <time>2013-03-08T17:42:08Z</time>
      </trkpt>
      <trkpt lat="59.9789195" lon="17.7393837">
        <ele>36.6675</ele>
        <time>2013-03-08T17:42:09Z</time>
      </trkpt>
      <trkpt lat="59.9789103" lon="17.7393688">
        <ele>36.6675</ele>
        <time>2013-03-08T17:42:10Z</time>
      </trkpt>
      <trkpt lat="59.9788999" lon="17.7393584">
        <ele>36.6675</ele>
        <time>2013-03-08T17:42:11Z</time>
      </trkpt>
      <trkpt lat="59.9788906" lon="17.7393402">
        <ele>37.1481</ele>
        <time>2013-03-08T17:42:12Z</time>
      </trkpt>
      <trkpt lat="59.9788832" lon="17.7393206">
        <ele>37.6287</ele>
        <time>2013-03-08T17:42:13Z</time>
      </trkpt>
      <trkpt lat="59.9788651" lon="17.7393109">
        <ele>37.6287</ele>
        <time>2013-03-08T17:42:14Z</time>
      </trkpt>
      <trkpt lat="59.9788396" lon="17.7393112">
        <ele>37.6287</ele>
        <time>2013-03-08T17:42:15Z</time>
      </trkpt>
      <trkpt lat="59.9788019" lon="17.7393148">
        <ele>38.1094</ele>
        <time>2013-03-08T17:42:16Z</time>
      </trkpt>
      <trkpt lat="59.978766" lon="17.7393145">
        <ele>39.0707</ele>
        <time>2013-03-08T17:42:17Z</time>
      </trkpt>
      <trkpt lat="59.9787054" lon="17.7393211">
        <ele>39.0707</ele>
        <time>2013-03-08T17:42:18Z</time>
      </trkpt>
      <trkpt lat="59.9786387" lon="17.7393294">
        <ele>39.0707</ele>
        <time>2013-03-08T17:42:19Z</time>
      </trkpt>
      <trkpt lat="59.9786548" lon="17.739231">
        <ele>45.7999</ele>
        <time>2013-03-08T17:42:20Z</time>
      </trkpt>
      <trkpt lat="59.9786329" lon="17.7392106">
        <ele>47.7225</ele>
        <time>2013-03-08T17:42:21Z</time>
      </trkpt>
      <trkpt lat="59.9786152" lon="17.7391987">
        <ele>49.1646</ele>
        <time>2013-03-08T17:42:22Z</time>
      </trkpt>
      <trkpt lat="59.9785905" lon="17.739183">
        <ele>50.6066</ele>
        <time>2013-03-08T17:42:23Z</time>
      </trkpt>
      <trkpt lat="59.9785753" lon="17.7391843">
        <ele>51.5679</ele>
        <time>2013-03-08T17:42:24Z</time>
      </trkpt>
      <trkpt lat="59.9785605" lon="17.7391781">
        <ele>52.5292</ele>
        <time>2013-03-08T17:42:25Z</time>
      </trkpt>
      <trkpt lat="59.9785442" lon="17.7391725">
        <ele>53.4905</ele>
        <time>2013-03-08T17:42:26Z</time>
      </trkpt>
      <trkpt lat="59.9785304" lon="17.7391699">
        <ele>54.4518</ele>
        <time>2013-03-08T17:42:27Z</time>
      </trkpt>
      <trkpt lat="59.9785165" lon="17.739163">
        <ele>54.4518</ele>
        <time>2013-03-08T17:42:28Z</time>
      </trkpt>
      <trkpt lat="59.9784946" lon="17.739143">
        <ele>55.4131</ele>
        <time>2013-03-08T17:42:29Z</time>
      </trkpt>
      <trkpt lat="59.9784731" lon="17.7391255">
        <ele>56.3745</ele>
        <time>2013-03-08T17:42:30Z</time>
      </trkpt>
      <trkpt lat="59.9784651" lon="17.739126">
        <ele>55.8938</ele>
        <time>2013-03-08T17:42:31Z</time>
      </trkpt>
      <trkpt lat="59.9784691" lon="17.7391658">
        <ele>53.9712</ele>
        <time>2013-03-08T17:42:32Z</time>
      </trkpt>
      <trkpt lat="59.9784667" lon="17.7391849">
        <ele>53.0098</ele>
        <time>2013-03-08T17:42:33Z</time>
      </trkpt>
      <trkpt lat="59.978466" lon="17.7391992">
        <ele>51.5679</ele>
        <time>2013-03-08T17:42:34Z</time>
      </trkpt>
      <trkpt lat="59.9784631" lon="17.7392071">
        <ele>50.6066</ele>
        <time>2013-03-08T17:42:35Z</time>
      </trkpt>
      <trkpt lat="59.9784581" lon="17.7392128">
        <ele>50.126</ele>
        <time>2013-03-08T17:42:36Z</time>
      </trkpt>
      <trkpt lat="59.9784538" lon="17.7392238">
        <ele>49.1646</ele>
        <time>2013-03-08T17:42:37Z</time>
      </trkpt>
      <trkpt lat="59.9784451" lon="17.7392296">
        <ele>48.2034</ele>
        <time>2013-03-08T17:42:38Z</time>
      </trkpt>
      <trkpt lat="59.9784375" lon="17.7392363">
        <ele>47.7225</ele>
        <time>2013-03-08T17:42:39Z</time>
      </trkpt>
      <trkpt lat="59.9784303" lon="17.7392429">
        <ele>47.2418</ele>
        <time>2013-03-08T17:42:40Z</time>
      </trkpt>
      <trkpt lat="59.9784218" lon="17.7392476">
        <ele>46.2806</ele>
        <time>2013-03-08T17:42:41Z</time>
      </trkpt>
      <trkpt lat="59.9784118" lon="17.7392484">
        <ele>45.7999</ele>
        <time>2013-03-08T17:42:42Z</time>
      </trkpt>
      <trkpt lat="59.9784004" lon="17.7392482">
        <ele>45.3192</ele>
        <time>2013-03-08T17:42:43Z</time>
      </trkpt>
      <trkpt lat="59.9783891" lon="17.7392466">
        <ele>44.8386</ele>
        <time>2013-03-08T17:42:44Z</time>
      </trkpt>
      <trkpt lat="59.9783787" lon="17.739245">
        <ele>44.358</ele>
        <time>2013-03-08T17:42:45Z</time>
      </trkpt>
      <trkpt lat="59.9783678" lon="17.7392423">
        <ele>43.8773</ele>
        <time>2013-03-08T17:42:46Z</time>
      </trkpt>
      <trkpt lat="59.9783572" lon="17.7392409">
        <ele>43.3966</ele>
        <time>2013-03-08T17:42:47Z</time>
      </trkpt>
      <trkpt lat="59.9783476" lon="17.7392378">
        <ele>42.4354</ele>
        <time>2013-03-08T17:42:48Z</time>
      </trkpt>
      <trkpt lat="59.9783347" lon="17.7392305">
        <ele>41.9547</ele>
        <time>2013-03-08T17:42:49Z</time>
      </trkpt>
      <trkpt lat="59.9783223" lon="17.7392259">
        <ele>41.474</ele>
        <time>2013-03-08T17:42:50Z</time>
      </trkpt>
      <trkpt lat="59.9783097" lon="17.7392189">
        <ele>41.474</ele>
        <time>2013-03-08T17:42:51Z</time>
      </trkpt>
      <trkpt lat="59.9783013" lon="17.7392206">
        <ele>40.9934</ele>
        <time>2013-03-08T17:42:52Z</time>
      </trkpt>
      <trkpt lat="59.9782921" lon="17.7392212">
        <ele>40.5128</ele>
        <time>2013-03-08T17:42:53Z</time>
      </trkpt>
      <trkpt lat="59.9782813" lon="17.7392238">
        <ele>40.5128</ele>
        <time>2013-03-08T17:42:54Z</time>
      </trkpt>
      <trkpt lat="59.9782692" lon="17.7392282">
        <ele>40.5128</ele>
        <time>2013-03-08T17:42:55Z</time>
      </trkpt>
      <trkpt lat="59.9782564" lon="17.7392304">
        <ele>40.5128</ele>
        <time>2013-03-08T17:42:56Z</time>
      </trkpt>
      <trkpt lat="59.9782435" lon="17.73923">
        <ele>40.5128</ele>
        <time>2013-03-08T17:42:57Z</time>
      </trkpt>
      <trkpt lat="59.9782306" lon="17.7392273">
        <ele>40.5128</ele>
        <time>2013-03-08T17:42:58Z</time>
      </trkpt>
      <trkpt lat="59.9782181" lon="17.7392244">
        <ele>40.5128</ele>
        <time>2013-03-08T17:42:59Z</time>
      </trkpt>
      <trkpt lat="59.9782062" lon="17.739223">
        <ele>40.0321</ele>
        <time>2013-03-08T17:43:00Z</time>
      </trkpt>
      <trkpt lat="59.9781937" lon="17.7392207">
        <ele>40.5128</ele>
        <time>2013-03-08T17:43:01Z</time>
      </trkpt>
      <trkpt lat="59.9781808" lon="17.7392176">
        <ele>40.5128</ele>
        <time>2013-03-08T17:43:02Z</time>
      </trkpt>
      <trkpt lat="59.9781677" lon="17.7392143">
        <ele>40.5128</ele>
        <time>2013-03-08T17:43:03Z</time>
      </trkpt>
      <trkpt lat="59.9781549" lon="17.7392104">
        <ele>40.9934</ele>
        <time>2013-03-08T17:43:04Z</time>
      </trkpt>
      <trkpt lat="59.9781429" lon="17.7392062">
        <ele>40.5128</ele>
        <time>2013-03-08T17:43:05Z</time>
      </trkpt>
      <trkpt lat="59.9781301" lon="17.7392035">
        <ele>40.9934</ele>
        <time>2013-03-08T17:43:06Z</time>
      </trkpt>
      <trkpt lat="59.9781174" lon="17.7392016">
        <ele>41.474</ele>
        <time>2013-03-08T17:43:07Z</time>
      </trkpt>
      <trkpt lat="59.9781036" lon="17.7392">
        <ele>41.9547</ele>
        <time>2013-03-08T17:43:08Z</time>
      </trkpt>
      <trkpt lat="59.978091" lon="17.7391957">
        <ele>41.9547</ele>
        <time>2013-03-08T17:43:09Z</time>
      </trkpt>
      <trkpt lat="59.9780781" lon="17.7391915">
        <ele>41.9547</ele>
        <time>2013-03-08T17:43:10Z</time>
      </trkpt>
      <trkpt lat="59.9780653" lon="17.7391879">
        <ele>41.9547</ele>
        <time>2013-03-08T17:43:11Z</time>
      </trkpt>
      <trkpt lat="59.9780528" lon="17.7391843">
        <ele>41.474</ele>
        <time>2013-03-08T17:43:12Z</time>
      </trkpt>
      <trkpt lat="59.9780404" lon="17.7391786">
        <ele>41.474</ele>
        <time>2013-03-08T17:43:13Z</time>
      </trkpt>
      <trkpt lat="59.978028" lon="17.7391754">
        <ele>41.474</ele>
        <time>2013-03-08T17:43:14Z</time>
      </trkpt>
      <trkpt lat="59.9780152" lon="17.7391694">
        <ele>40.9934</ele>
        <time>2013-03-08T17:43:15Z</time>
      </trkpt>
      <trkpt lat="59.9780017" lon="17.7391591">
        <ele>40.9934</ele>
        <time>2013-03-08T17:43:16Z</time>
      </trkpt>
      <trkpt lat="59.9779891" lon="17.7391476">
        <ele>40.5128</ele>
        <time>2013-03-08T17:43:17Z</time>
      </trkpt>
      <trkpt lat="59.9779768" lon="17.7391367">
        <ele>40.5128</ele>
        <time>2013-03-08T17:43:18Z</time>
      </trkpt>
      <trkpt lat="59.9779641" lon="17.7391269">
        <ele>40.5128</ele>
        <time>2013-03-08T17:43:19Z</time>
      </trkpt>
      <trkpt lat="59.9779517" lon="17.7391172">
        <ele>40.0321</ele>
        <time>2013-03-08T17:43:20Z</time>
      </trkpt>
      <trkpt lat="59.9779384" lon="17.7391093">
        <ele>40.5128</ele>
        <time>2013-03-08T17:43:21Z</time>
      </trkpt>
      <trkpt lat="59.9779247" lon="17.7391026">
        <ele>40.5128</ele>
        <time>2013-03-08T17:43:22Z</time>
      </trkpt>
      <trkpt lat="59.9779107" lon="17.7390948">
        <ele>40.9934</ele>
        <time>2013-03-08T17:43:23Z</time>
      </trkpt>
      <trkpt lat="59.9778947" lon="17.7390873">
        <ele>40.9934</ele>
        <time>2013-03-08T17:43:24Z</time>
      </trkpt>
      <trkpt lat="59.977881" lon="17.7390806">
        <ele>40.9934</ele>
        <time>2013-03-08T17:43:25Z</time>
      </trkpt>
      <trkpt lat="59.9778669" lon="17.7390771">
        <ele>40.9934</ele>
        <time>2013-03-08T17:43:26Z</time>
      </trkpt>
      <trkpt lat="59.9778524" lon="17.7390746">
        <ele>41.474</ele>
        <time>2013-03-08T17:43:27Z</time>
      </trkpt>
      <trkpt lat="59.9778388" lon="17.7390694">
        <ele>40.9934</ele>
        <time>2013-03-08T17:43:28Z</time>
      </trkpt>
      <trkpt lat="59.9778263" lon="17.7390626">
        <ele>40.9934</ele>
        <time>2013-03-08T17:43:29Z</time>
      </trkpt>
      <trkpt lat="59.9778135" lon="17.7390552">
        <ele>40.9934</ele>
        <time>2013-03-08T17:43:30Z</time>
      </trkpt>
      <trkpt lat="59.9778002" lon="17.7390482">
        <ele>40.9934</ele>
        <time>2013-03-08T17:43:31Z</time>
      </trkpt>
      <trkpt lat="59.9777878" lon="17.7390417">
        <ele>40.9934</ele>
        <time>2013-03-08T17:43:32Z</time>
      </trkpt>
      <trkpt lat="59.9777752" lon="17.7390357">
        <ele>40.9934</ele>
        <time>2013-03-08T17:43:33Z</time>
      </trkpt>
      <trkpt lat="59.9777621" lon="17.7390307">
        <ele>40.9934</ele>
        <time>2013-03-08T17:43:34Z</time>
      </trkpt>
      <trkpt lat="59.9777487" lon="17.7390254">
        <ele>40.9934</ele>
        <time>2013-03-08T17:43:35Z</time>
      </trkpt>
      <trkpt lat="59.9777343" lon="17.7390188">
        <ele>41.474</ele>
        <time>2013-03-08T17:43:36Z</time>
      </trkpt>
      <trkpt lat="59.9777203" lon="17.739014">
        <ele>41.474</ele>
        <time>2013-03-08T17:43:37Z</time>
      </trkpt>
      <trkpt lat="59.9777063" lon="17.7390117">
        <ele>40.9934</ele>
        <time>2013-03-08T17:43:38Z</time>
      </trkpt>
      <trkpt lat="59.9776923" lon="17.7390091">
        <ele>40.9934</ele>
        <time>2013-03-08T17:43:39Z</time>
      </trkpt>
      <trkpt lat="59.9776787" lon="17.7390082">
        <ele>40.9934</ele>
        <time>2013-03-08T17:43:40Z</time>
      </trkpt>
      <trkpt lat="59.9776645" lon="17.7390067">
        <ele>41.474</ele>
        <time>2013-03-08T17:43:41Z</time>
      </trkpt>
      <trkpt lat="59.9776509" lon="17.7390061">
        <ele>41.474</ele>
        <time>2013-03-08T17:43:42Z</time>
      </trkpt>
      <trkpt lat="59.9776369" lon="17.7390047">
        <ele>41.474</ele>
        <time>2013-03-08T17:43:43Z</time>
      </trkpt>
      <trkpt lat="59.9776237" lon="17.7390014">
        <ele>41.474</ele>
        <time>2013-03-08T17:43:44Z</time>
      </trkpt>
      <trkpt lat="59.9776109" lon="17.7389987">
        <ele>41.474</ele>
        <time>2013-03-08T17:43:45Z</time>
      </trkpt>
      <trkpt lat="59.9775978" lon="17.7389988">
        <ele>40.9934</ele>
        <time>2013-03-08T17:43:46Z</time>
      </trkpt>
      <trkpt lat="59.9775841" lon="17.7390015">
        <ele>41.474</ele>
        <time>2013-03-08T17:43:47Z</time>
      </trkpt>
      <trkpt lat="59.9775701" lon="17.7390051">
        <ele>41.474</ele>
        <time>2013-03-08T17:43:48Z</time>
      </trkpt>
      <trkpt lat="59.9775552" lon="17.7390077">
        <ele>41.9547</ele>
        <time>2013-03-08T17:43:49Z</time>
      </trkpt>
      <trkpt lat="59.977541" lon="17.7390058">
        <ele>42.4354</ele>
        <time>2013-03-08T17:43:50Z</time>
      </trkpt>
      <trkpt lat="59.9775274" lon="17.7390061">
        <ele>41.9547</ele>
        <time>2013-03-08T17:43:51Z</time>
      </trkpt>
      <trkpt lat="59.9775141" lon="17.7390086">
        <ele>41.474</ele>
        <time>2013-03-08T17:43:52Z</time>
      </trkpt>
      <trkpt lat="59.9774999" lon="17.739011">
        <ele>41.9547</ele>
        <time>2013-03-08T17:43:53Z</time>
      </trkpt>
      <trkpt lat="59.9774856" lon="17.7390115">
        <ele>41.474</ele>
        <time>2013-03-08T17:43:54Z</time>
      </trkpt>
      <trkpt lat="59.9774711" lon="17.7390125">
        <ele>41.474</ele>
        <time>2013-03-08T17:43:55Z</time>
      </trkpt>
      <trkpt lat="59.9774564" lon="17.7390166">
        <ele>41.474</ele>
        <time>2013-03-08T17:43:56Z</time>
      </trkpt>
      <trkpt lat="59.9774417" lon="17.7390223">
        <ele>41.474</ele>
        <time>2013-03-08T17:43:57Z</time>
      </trkpt>
      <trkpt lat="59.9774291" lon="17.7390316">
        <ele>40.9934</ele>
        <time>2013-03-08T17:43:58Z</time>
      </trkpt>
      <trkpt lat="59.9774156" lon="17.7390367">
        <ele>40.5128</ele>
        <time>2013-03-08T17:43:59Z</time>
      </trkpt>
      <trkpt lat="59.9774023" lon="17.7390408">
        <ele>40.0321</ele>
        <time>2013-03-08T17:44:00Z</time>
      </trkpt>
      <trkpt lat="59.9773891" lon="17.739045">
        <ele>40.0321</ele>
        <time>2013-03-08T17:44:01Z</time>
      </trkpt>
      <trkpt lat="59.9773753" lon="17.7390482">
        <ele>39.5513</ele>
        <time>2013-03-08T17:44:02Z</time>
      </trkpt>
      <trkpt lat="59.9773628" lon="17.7390497">
        <ele>39.0707</ele>
        <time>2013-03-08T17:44:03Z</time>
      </trkpt>
      <trkpt lat="59.977349" lon="17.7390531">
        <ele>39.0707</ele>
        <time>2013-03-08T17:44:04Z</time>
      </trkpt>
      <trkpt lat="59.9773365" lon="17.7390581">
        <ele>38.5901</ele>
        <time>2013-03-08T17:44:05Z</time>
      </trkpt>
      <trkpt lat="59.9773213" lon="17.7390656">
        <ele>39.0707</ele>
        <time>2013-03-08T17:44:06Z</time>
      </trkpt>
      <trkpt lat="59.9773072" lon="17.7390771">
        <ele>40.0321</ele>
        <time>2013-03-08T17:44:07Z</time>
      </trkpt>
      <trkpt lat="59.9772938" lon="17.7390832">
        <ele>40.0321</ele>
        <time>2013-03-08T17:44:08Z</time>
      </trkpt>
      <trkpt lat="59.9772804" lon="17.7390897">
        <ele>40.0321</ele>
        <time>2013-03-08T17:44:09Z</time>
      </trkpt>
      <trkpt lat="59.9772666" lon="17.7390967">
        <ele>40.0321</ele>
        <time>2013-03-08T17:44:10Z</time>
      </trkpt>
      <trkpt lat="59.9772532" lon="17.7391045">
        <ele>40.0321</ele>
        <time>2013-03-08T17:44:11Z</time>
      </trkpt>
      <trkpt lat="59.9772399" lon="17.7391119">
        <ele>40.0321</ele>
        <time>2013-03-08T17:44:12Z</time>
      </trkpt>
      <trkpt lat="59.9772266" lon="17.7391177">
        <ele>40.0321</ele>
        <time>2013-03-08T17:44:13Z</time>
      </trkpt>
      <trkpt lat="59.9772136" lon="17.7391238">
        <ele>40.0321</ele>
        <time>2013-03-08T17:44:14Z</time>
      </trkpt>
      <trkpt lat="59.9772007" lon="17.739132">
        <ele>40.0321</ele>
        <time>2013-03-08T17:44:15Z</time>
      </trkpt>
      <trkpt lat="59.9771876" lon="17.7391396">
        <ele>40.0321</ele>
        <time>2013-03-08T17:44:16Z</time>
      </trkpt>
      <trkpt lat="59.9771741" lon="17.7391487">
        <ele>40.9934</ele>
        <time>2013-03-08T17:44:17Z</time>
      </trkpt>
      <trkpt lat="59.977161" lon="17.739156">
        <ele>40.9934</ele>
        <time>2013-03-08T17:44:18Z</time>
      </trkpt>
      <trkpt lat="59.977149" lon="17.7391611">
        <ele>40.0321</ele>
        <time>2013-03-08T17:44:19Z</time>
      </trkpt>
      <trkpt lat="59.9771365" lon="17.739172">
        <ele>40.5128</ele>
        <time>2013-03-08T17:44:20Z</time>
      </trkpt>
      <trkpt lat="59.9771245" lon="17.7391821">
        <ele>40.0321</ele>
        <time>2013-03-08T17:44:21Z</time>
      </trkpt>
      <trkpt lat="59.977112" lon="17.7391927">
        <ele>40.5128</ele>
        <time>2013-03-08T17:44:22Z</time>
      </trkpt>
      <trkpt lat="59.9771003" lon="17.7392001">
        <ele>40.0321</ele>
        <time>2013-03-08T17:44:23Z</time>
      </trkpt>
      <trkpt lat="59.9770883" lon="17.7392072">
        <ele>39.5513</ele>
        <time>2013-03-08T17:44:24Z</time>
      </trkpt>
      <trkpt lat="59.9770758" lon="17.7392155">
        <ele>39.5513</ele>
        <time>2013-03-08T17:44:25Z</time>
      </trkpt>
      <trkpt lat="59.9770624" lon="17.7392242">
        <ele>39.0707</ele>
        <time>2013-03-08T17:44:26Z</time>
      </trkpt>
      <trkpt lat="59.9770483" lon="17.73923">
        <ele>39.0707</ele>
        <time>2013-03-08T17:44:27Z</time>
      </trkpt>
      <trkpt lat="59.9770351" lon="17.7392382">
        <ele>38.5901</ele>
        <time>2013-03-08T17:44:28Z</time>
      </trkpt>
      <trkpt lat="59.9770231" lon="17.7392466">
        <ele>38.1094</ele>
        <time>2013-03-08T17:44:29Z</time>
      </trkpt>
      <trkpt lat="59.9770106" lon="17.7392552">
        <ele>38.1094</ele>
        <time>2013-03-08T17:44:30Z</time>
      </trkpt>
      <trkpt lat="59.9769991" lon="17.7392636">
        <ele>37.6287</ele>
        <time>2013-03-08T17:44:31Z</time>
      </trkpt>
      <trkpt lat="59.9769876" lon="17.7392683">
        <ele>36.6675</ele>
        <time>2013-03-08T17:44:32Z</time>
      </trkpt>
      <trkpt lat="59.9769737" lon="17.7392743">
        <ele>36.6675</ele>
        <time>2013-03-08T17:44:33Z</time>
      </trkpt>
      <trkpt lat="59.9769599" lon="17.7392828">
        <ele>37.1481</ele>
        <time>2013-03-08T17:44:34Z</time>
      </trkpt>
      <trkpt lat="59.9769473" lon="17.7392897">
        <ele>37.1481</ele>
        <time>2013-03-08T17:44:35Z</time>
      </trkpt>
      <trkpt lat="59.9769336" lon="17.7392943">
        <ele>36.6675</ele>
        <time>2013-03-08T17:44:36Z</time>
      </trkpt>
      <trkpt lat="59.9769206" lon="17.7393007">
        <ele>36.6675</ele>
        <time>2013-03-08T17:44:37Z</time>
      </trkpt>
      <trkpt lat="59.9769084" lon="17.7393083">
        <ele>36.1868</ele>
        <time>2013-03-08T17:44:38Z</time>
      </trkpt>
      <trkpt lat="59.9768962" lon="17.7393173">
        <ele>35.7061</ele>
        <time>2013-03-08T17:44:39Z</time>
      </trkpt>
      <trkpt lat="59.9768815" lon="17.7393223">
        <ele>36.1868</ele>
        <time>2013-03-08T17:44:40Z</time>
      </trkpt>
      <trkpt lat="59.9768662" lon="17.7393257">
        <ele>36.1868</ele>
        <time>2013-03-08T17:44:41Z</time>
      </trkpt>
      <trkpt lat="59.976853" lon="17.7393315">
        <ele>36.1868</ele>
        <time>2013-03-08T17:44:42Z</time>
      </trkpt>
      <trkpt lat="59.9768392" lon="17.7393351">
        <ele>36.1868</ele>
        <time>2013-03-08T17:44:43Z</time>
      </trkpt>
      <trkpt lat="59.9768256" lon="17.7393393">
        <ele>36.6675</ele>
        <time>2013-03-08T17:44:44Z</time>
      </trkpt>
      <trkpt lat="59.9768122" lon="17.7393434">
        <ele>37.1481</ele>
        <time>2013-03-08T17:44:45Z</time>
      </trkpt>
      <trkpt lat="59.9767988" lon="17.739345">
        <ele>36.6675</ele>
        <time>2013-03-08T17:44:46Z</time>
      </trkpt>
      <trkpt lat="59.9767852" lon="17.7393469">
        <ele>36.6675</ele>
        <time>2013-03-08T17:44:47Z</time>
      </trkpt>
      <trkpt lat="59.9767708" lon="17.7393496">
        <ele>36.6675</ele>
        <time>2013-03-08T17:44:48Z</time>
      </trkpt>
      <trkpt lat="59.9767571" lon="17.7393533">
        <ele>36.6675</ele>
        <time>2013-03-08T17:44:49Z</time>
      </trkpt>
      <trkpt lat="59.9767439" lon="17.7393565">
        <ele>36.6675</ele>
        <time>2013-03-08T17:44:50Z</time>
      </trkpt>
      <trkpt lat="59.9767304" lon="17.7393589">
        <ele>36.6675</ele>
        <time>2013-03-08T17:44:51Z</time>
      </trkpt>
      <trkpt lat="59.9767174" lon="17.7393626">
        <ele>36.6675</ele>
        <time>2013-03-08T17:44:52Z</time>
      </trkpt>
      <trkpt lat="59.9767048" lon="17.7393678">
        <ele>36.1868</ele>
        <time>2013-03-08T17:44:53Z</time>
      </trkpt>
      <trkpt lat="59.9766918" lon="17.7393751">
        <ele>36.1868</ele>
        <time>2013-03-08T17:44:54Z</time>
      </trkpt>
      <trkpt lat="59.9766789" lon="17.7393833">
        <ele>36.1868</ele>
        <time>2013-03-08T17:44:55Z</time>
      </trkpt>
      <trkpt lat="59.9766654" lon="17.7393921">
        <ele>36.1868</ele>
        <time>2013-03-08T17:44:56Z</time>
      </trkpt>
      <trkpt lat="59.9766516" lon="17.7394008">
        <ele>36.1868</ele>
        <time>2013-03-08T17:44:57Z</time>
      </trkpt>
      <trkpt lat="59.9766377" lon="17.7394083">
        <ele>36.1868</ele>
        <time>2013-03-08T17:44:58Z</time>
      </trkpt>
      <trkpt lat="59.9766237" lon="17.7394183">
        <ele>36.1868</ele>
        <time>2013-03-08T17:44:59Z</time>
      </trkpt>
      <trkpt lat="59.9766106" lon="17.7394273">
        <ele>36.1868</ele>
        <time>2013-03-08T17:45:00Z</time>
      </trkpt>
      <trkpt lat="59.9765973" lon="17.7394346">
        <ele>35.7061</ele>
        <time>2013-03-08T17:45:01Z</time>
      </trkpt>
      <trkpt lat="59.9765846" lon="17.7394422">
        <ele>35.7061</ele>
        <time>2013-03-08T17:45:02Z</time>
      </trkpt>
      <trkpt lat="59.9765723" lon="17.7394518">
        <ele>35.2255</ele>
        <time>2013-03-08T17:45:03Z</time>
      </trkpt>
      <trkpt lat="59.9765605" lon="17.7394648">
        <ele>34.7449</ele>
        <time>2013-03-08T17:45:04Z</time>
      </trkpt>
      <trkpt lat="59.9765486" lon="17.7394777">
        <ele>34.2642</ele>
        <time>2013-03-08T17:45:05Z</time>
      </trkpt>
      <trkpt lat="59.9765351" lon="17.7394853">
        <ele>33.7834</ele>
        <time>2013-03-08T17:45:06Z</time>
      </trkpt>
      <trkpt lat="59.9765235" lon="17.7394998">
        <ele>33.3029</ele>
        <time>2013-03-08T17:45:07Z</time>
      </trkpt>
      <trkpt lat="59.9765122" lon="17.7395166">
        <ele>33.3029</ele>
        <time>2013-03-08T17:45:08Z</time>
      </trkpt>
      <trkpt lat="59.9764995" lon="17.739533">
        <ele>33.3029</ele>
        <time>2013-03-08T17:45:09Z</time>
      </trkpt>
      <trkpt lat="59.9764875" lon="17.7395475">
        <ele>33.3029</ele>
        <time>2013-03-08T17:45:10Z</time>
      </trkpt>
      <trkpt lat="59.9764765" lon="17.7395615">
        <ele>32.8223</ele>
        <time>2013-03-08T17:45:11Z</time>
      </trkpt>
      <trkpt lat="59.9764655" lon="17.7395734">
        <ele>32.3416</ele>
        <time>2013-03-08T17:45:12Z</time>
      </trkpt>
      <trkpt lat="59.9764543" lon="17.7395867">
        <ele>32.3416</ele>
        <time>2013-03-08T17:45:13Z</time>
      </trkpt>
      <trkpt lat="59.9764432" lon="17.7396019">
        <ele>32.3416</ele>
        <time>2013-03-08T17:45:14Z</time>
      </trkpt>
      <trkpt lat="59.9764334" lon="17.7396173">
        <ele>31.8607</ele>
        <time>2013-03-08T17:45:15Z</time>
      </trkpt>
      <trkpt lat="59.9764232" lon="17.7396354">
        <ele>31.8607</ele>
        <time>2013-03-08T17:45:16Z</time>
      </trkpt>
      <trkpt lat="59.9764124" lon="17.7396542">
        <ele>32.3416</ele>
        <time>2013-03-08T17:45:17Z</time>
      </trkpt>
      <trkpt lat="59.976402" lon="17.7396734">
        <ele>32.3416</ele>
        <time>2013-03-08T17:45:18Z</time>
      </trkpt>
      <trkpt lat="59.976391" lon="17.7396945">
        <ele>32.3416</ele>
        <time>2013-03-08T17:45:19Z</time>
      </trkpt>
      <trkpt lat="59.9763801" lon="17.7397169">
        <ele>32.8223</ele>
        <time>2013-03-08T17:45:20Z</time>
      </trkpt>
      <trkpt lat="59.9763707" lon="17.7397377">
        <ele>32.3416</ele>
        <time>2013-03-08T17:45:21Z</time>
      </trkpt>
      <trkpt lat="59.9763609" lon="17.7397568">
        <ele>32.3416</ele>
        <time>2013-03-08T17:45:22Z</time>
      </trkpt>
      <trkpt lat="59.976349" lon="17.7397748">
        <ele>32.3416</ele>
        <time>2013-03-08T17:45:23Z</time>
      </trkpt>
      <trkpt lat="59.9763367" lon="17.7397882">
        <ele>32.3416</ele>
        <time>2013-03-08T17:45:24Z</time>
      </trkpt>
      <trkpt lat="59.9763237" lon="17.7397994">
        <ele>32.3416</ele>
        <time>2013-03-08T17:45:25Z</time>
      </trkpt>
      <trkpt lat="59.9763103" lon="17.7398086">
        <ele>32.3416</ele>
        <time>2013-03-08T17:45:26Z</time>
      </trkpt>
      <trkpt lat="59.9762964" lon="17.7398144">
        <ele>32.8223</ele>
        <time>2013-03-08T17:45:27Z</time>
      </trkpt>
      <trkpt lat="59.9762828" lon="17.7398167">
        <ele>32.3416</ele>
        <time>2013-03-08T17:45:28Z</time>
      </trkpt>
      <trkpt lat="59.9762694" lon="17.7398164">
        <ele>32.8223</ele>
        <time>2013-03-08T17:45:29Z</time>
      </trkpt>
      <trkpt lat="59.9762557" lon="17.7398122">
        <ele>32.3416</ele>
        <time>2013-03-08T17:45:30Z</time>
      </trkpt>
      <trkpt lat="59.9762418" lon="17.7398033">
        <ele>31.3801</ele>
        <time>2013-03-08T17:45:31Z</time>
      </trkpt>
      <trkpt lat="59.9762282" lon="17.7397965">
        <ele>31.8607</ele>
        <time>2013-03-08T17:45:32Z</time>
      </trkpt>
      <trkpt lat="59.9762144" lon="17.7397878">
        <ele>31.8607</ele>
        <time>2013-03-08T17:45:33Z</time>
      </trkpt>
      <trkpt lat="59.9762013" lon="17.7397794">
        <ele>31.8607</ele>
        <time>2013-03-08T17:45:34Z</time>
      </trkpt>
      <trkpt lat="59.9761884" lon="17.7397676">
        <ele>31.8607</ele>
        <time>2013-03-08T17:45:35Z</time>
      </trkpt>
      <trkpt lat="59.9761764" lon="17.7397527">
        <ele>31.8607</ele>
        <time>2013-03-08T17:45:36Z</time>
      </trkpt>
      <trkpt lat="59.9761647" lon="17.7397361">
        <ele>31.8607</ele>
        <time>2013-03-08T17:45:37Z</time>
      </trkpt>
      <trkpt lat="59.9761538" lon="17.7397183">
        <ele>31.8607</ele>
        <time>2013-03-08T17:45:38Z</time>
      </trkpt>
      <trkpt lat="59.9761435" lon="17.7396989">
        <ele>31.3801</ele>
        <time>2013-03-08T17:45:39Z</time>
      </trkpt>
      <trkpt lat="59.9761336" lon="17.7396796">
        <ele>31.3801</ele>
        <time>2013-03-08T17:45:40Z</time>
      </trkpt>
      <trkpt lat="59.9761239" lon="17.7396609">
        <ele>31.3801</ele>
        <time>2013-03-08T17:45:41Z</time>
      </trkpt>
      <trkpt lat="59.9761133" lon="17.7396423">
        <ele>31.3801</ele>
        <time>2013-03-08T17:45:42Z</time>
      </trkpt>
      <trkpt lat="59.9761039" lon="17.7396247">
        <ele>30.8995</ele>
        <time>2013-03-08T17:45:43Z</time>
      </trkpt>
      <trkpt lat="59.9760953" lon="17.7396076">
        <ele>30.4188</ele>
        <time>2013-03-08T17:45:44Z</time>
      </trkpt>
      <trkpt lat="59.9760856" lon="17.7395904">
        <ele>29.9381</ele>
        <time>2013-03-08T17:45:45Z</time>
      </trkpt>
      <trkpt lat="59.9760754" lon="17.7395723">
        <ele>29.9381</ele>
        <time>2013-03-08T17:45:46Z</time>
      </trkpt>
      <trkpt lat="59.9760653" lon="17.7395543">
        <ele>29.9381</ele>
        <time>2013-03-08T17:45:47Z</time>
      </trkpt>
      <trkpt lat="59.9760554" lon="17.7395359">
        <ele>29.4575</ele>
        <time>2013-03-08T17:45:48Z</time>
      </trkpt>
      <trkpt lat="59.9760461" lon="17.7395173">
        <ele>29.4575</ele>
        <time>2013-03-08T17:45:49Z</time>
      </trkpt>
      <trkpt lat="59.9760368" lon="17.7394983">
        <ele>29.4575</ele>
        <time>2013-03-08T17:45:50Z</time>
      </trkpt>
      <trkpt lat="59.9760272" lon="17.73948">
        <ele>29.4575</ele>
        <time>2013-03-08T17:45:51Z</time>
      </trkpt>
      <trkpt lat="59.9760172" lon="17.7394627">
        <ele>28.9769</ele>
        <time>2013-03-08T17:45:52Z</time>
      </trkpt>
      <trkpt lat="59.976007" lon="17.739445">
        <ele>28.9769</ele>
        <time>2013-03-08T17:45:53Z</time>
      </trkpt>
      <trkpt lat="59.9759974" lon="17.7394269">
        <ele>28.9769</ele>
        <time>2013-03-08T17:45:54Z</time>
      </trkpt>
      <trkpt lat="59.9759889" lon="17.7394097">
        <ele>28.4962</ele>
        <time>2013-03-08T17:45:55Z</time>
      </trkpt>
      <trkpt lat="59.9759798" lon="17.7393915">
        <ele>28.4962</ele>
        <time>2013-03-08T17:45:56Z</time>
      </trkpt>
      <trkpt lat="59.9759699" lon="17.7393719">
        <ele>28.0155</ele>
        <time>2013-03-08T17:45:57Z</time>
      </trkpt>
      <trkpt lat="59.9759604" lon="17.7393528">
        <ele>28.0155</ele>
        <time>2013-03-08T17:45:58Z</time>
      </trkpt>
      <trkpt lat="59.9759504" lon="17.7393335">
        <ele>28.0155</ele>
        <time>2013-03-08T17:45:59Z</time>
      </trkpt>
      <trkpt lat="59.9759402" lon="17.7393145">
        <ele>28.0155</ele>
        <time>2013-03-08T17:46:00Z</time>
      </trkpt>
      <trkpt lat="59.9759301" lon="17.7392968">
        <ele>27.5349</ele>
        <time>2013-03-08T17:46:01Z</time>
      </trkpt>
      <trkpt lat="59.97592" lon="17.7392796">
        <ele>27.5349</ele>
        <time>2013-03-08T17:46:02Z</time>
      </trkpt>
      <trkpt lat="59.97591" lon="17.7392614">
        <ele>27.5349</ele>
        <time>2013-03-08T17:46:03Z</time>
      </trkpt>
      <trkpt lat="59.9759" lon="17.7392438">
        <ele>27.5349</ele>
        <time>2013-03-08T17:46:04Z</time>
      </trkpt>
      <trkpt lat="59.9758887" lon="17.7392283">
        <ele>27.5349</ele>
        <time>2013-03-08T17:46:05Z</time>
      </trkpt>
      <trkpt lat="59.9758767" lon="17.7392129">
        <ele>27.5349</ele>
        <time>2013-03-08T17:46:06Z</time>
      </trkpt>
      <trkpt lat="59.9758648" lon="17.7391957">
        <ele>27.5349</ele>
        <time>2013-03-08T17:46:07Z</time>
      </trkpt>
      <trkpt lat="59.9758532" lon="17.7391792">
        <ele>27.5349</ele>
        <time>2013-03-08T17:46:08Z</time>
      </trkpt>
      <trkpt lat="59.9758428" lon="17.739163">
        <ele>27.5349</ele>
        <time>2013-03-08T17:46:09Z</time>
      </trkpt>
      <trkpt lat="59.9758323" lon="17.7391462">
        <ele>27.5349</ele>
        <time>2013-03-08T17:46:10Z</time>
      </trkpt>
      <trkpt lat="59.9758214" lon="17.7391286">
        <ele>27.5349</ele>
        <time>2013-03-08T17:46:11Z</time>
      </trkpt>
      <trkpt lat="59.9758102" lon="17.7391094">
        <ele>27.5349</ele>
        <time>2013-03-08T17:46:12Z</time>
      </trkpt>
      <trkpt lat="59.9757984" lon="17.7390907">
        <ele>27.5349</ele>
        <time>2013-03-08T17:46:13Z</time>
      </trkpt>
      <trkpt lat="59.975788" lon="17.7390725">
        <ele>27.0543</ele>
        <time>2013-03-08T17:46:14Z</time>
      </trkpt>
      <trkpt lat="59.9757772" lon="17.7390524">
        <ele>27.0543</ele>
        <time>2013-03-08T17:46:15Z</time>
      </trkpt>
      <trkpt lat="59.9757663" lon="17.7390343">
        <ele>27.0543</ele>
        <time>2013-03-08T17:46:16Z</time>
      </trkpt>
      <trkpt lat="59.9757563" lon="17.7390179">
        <ele>27.0543</ele>
        <time>2013-03-08T17:46:17Z</time>
      </trkpt>
      <trkpt lat="59.975746" lon="17.7389988">
        <ele>27.0543</ele>
        <time>2013-03-08T17:46:18Z</time>
      </trkpt>
      <trkpt lat="59.9757353" lon="17.7389811">
        <ele>27.0543</ele>
        <time>2013-03-08T17:46:19Z</time>
      </trkpt>
      <trkpt lat="59.9757256" lon="17.738964">
        <ele>27.0543</ele>
        <time>2013-03-08T17:46:20Z</time>
      </trkpt>
      <trkpt lat="59.975716" lon="17.7389457">
        <ele>27.0543</ele>
        <time>2013-03-08T17:46:21Z</time>
      </trkpt>
      <trkpt lat="59.9757054" lon="17.7389274">
        <ele>27.0543</ele>
        <time>2013-03-08T17:46:22Z</time>
      </trkpt>
      <trkpt lat="59.9756953" lon="17.7389087">
        <ele>27.0543</ele>
        <time>2013-03-08T17:46:23Z</time>
      </trkpt>
      <trkpt lat="59.9756846" lon="17.7388879">
        <ele>26.5736</ele>
        <time>2013-03-08T17:46:24Z</time>
      </trkpt>
      <trkpt lat="59.9756741" lon="17.7388684">
        <ele>26.5736</ele>
        <time>2013-03-08T17:46:25Z</time>
      </trkpt>
      <trkpt lat="59.9756626" lon="17.7388511">
        <ele>26.5736</ele>
        <time>2013-03-08T17:46:26Z</time>
      </trkpt>
      <trkpt lat="59.9756504" lon="17.738833">
        <ele>26.5736</ele>
        <time>2013-03-08T17:46:27Z</time>
      </trkpt>
      <trkpt lat="59.9756404" lon="17.7388154">
        <ele>26.5736</ele>
        <time>2013-03-08T17:46:28Z</time>
      </trkpt>
      <trkpt lat="59.9756305" lon="17.7387974">
        <ele>26.5736</ele>
        <time>2013-03-08T17:46:29Z</time>
      </trkpt>
      <trkpt lat="59.9756209" lon="17.7387798">
        <ele>26.0929</ele>
        <time>2013-03-08T17:46:30Z</time>
      </trkpt>
      <trkpt lat="59.9756104" lon="17.7387623">
        <ele>26.0929</ele>
        <time>2013-03-08T17:46:31Z</time>
      </trkpt>
      <trkpt lat="59.9756005" lon="17.7387457">
        <ele>26.0929</ele>
        <time>2013-03-08T17:46:32Z</time>
      </trkpt>
      <trkpt lat="59.9755897" lon="17.7387286">
        <ele>26.5736</ele>
        <time>2013-03-08T17:46:33Z</time>
      </trkpt>
      <trkpt lat="59.9755789" lon="17.7387125">
        <ele>26.0929</ele>
        <time>2013-03-08T17:46:34Z</time>
      </trkpt>
      <trkpt lat="59.9755685" lon="17.7386942">
        <ele>26.5736</ele>
        <time>2013-03-08T17:46:35Z</time>
      </trkpt>
      <trkpt lat="59.9755585" lon="17.7386789">
        <ele>26.5736</ele>
        <time>2013-03-08T17:46:36Z</time>
      </trkpt>
      <trkpt lat="59.9755493" lon="17.7386627">
        <ele>26.5736</ele>
        <time>2013-03-08T17:46:37Z</time>
      </trkpt>
      <trkpt lat="59.9755403" lon="17.7386427">
        <ele>25.6123</ele>
        <time>2013-03-08T17:46:38Z</time>
      </trkpt>
      <trkpt lat="59.9755301" lon="17.7386202">
        <ele>26.0929</ele>
        <time>2013-03-08T17:46:39Z</time>
      </trkpt>
      <trkpt lat="59.9755202" lon="17.7386014">
        <ele>25.6123</ele>
        <time>2013-03-08T17:46:40Z</time>
      </trkpt>
      <trkpt lat="59.9755104" lon="17.7385794">
        <ele>25.6123</ele>
        <time>2013-03-08T17:46:41Z</time>
      </trkpt>
      <trkpt lat="59.9755022" lon="17.7385596">
        <ele>25.1317</ele>
        <time>2013-03-08T17:46:42Z</time>
      </trkpt>
      <trkpt lat="59.9754949" lon="17.7385393">
        <ele>25.1317</ele>
        <time>2013-03-08T17:46:43Z</time>
      </trkpt>
      <trkpt lat="59.9754876" lon="17.7385224">
        <ele>25.1317</ele>
        <time>2013-03-08T17:46:44Z</time>
      </trkpt>
      <trkpt lat="59.9754793" lon="17.7385054">
        <ele>25.6123</ele>
        <time>2013-03-08T17:46:45Z</time>
      </trkpt>
      <trkpt lat="59.9754704" lon="17.7384867">
        <ele>25.1317</ele>
        <time>2013-03-08T17:46:46Z</time>
      </trkpt>
      <trkpt lat="59.9754613" lon="17.7384673">
        <ele>25.1317</ele>
        <time>2013-03-08T17:46:47Z</time>
      </trkpt>
      <trkpt lat="59.9754519" lon="17.7384508">
        <ele>25.1317</ele>
        <time>2013-03-08T17:46:48Z</time>
      </trkpt>
      <trkpt lat="59.975441" lon="17.7384352">
        <ele>25.6123</ele>
        <time>2013-03-08T17:46:49Z</time>
      </trkpt>
      <trkpt lat="59.975431" lon="17.7384223">
        <ele>25.6123</ele>
        <time>2013-03-08T17:46:50Z</time>
      </trkpt>
      <trkpt lat="59.9754209" lon="17.7384052">
        <ele>25.6123</ele>
        <time>2013-03-08T17:46:51Z</time>
      </trkpt>
      <trkpt lat="59.9754103" lon="17.7383904">
        <ele>25.6123</ele>
        <time>2013-03-08T17:46:52Z</time>
      </trkpt>
      <trkpt lat="59.9753989" lon="17.7383767">
        <ele>26.0929</ele>
        <time>2013-03-08T17:46:53Z</time>
      </trkpt>
      <trkpt lat="59.9753872" lon="17.7383629">
        <ele>26.0929</ele>
        <time>2013-03-08T17:46:54Z</time>
      </trkpt>
      <trkpt lat="59.9753758" lon="17.7383482">
        <ele>26.0929</ele>
        <time>2013-03-08T17:46:55Z</time>
      </trkpt>
      <trkpt lat="59.9753649" lon="17.7383317">
        <ele>26.0929</ele>
        <time>2013-03-08T17:46:56Z</time>
      </trkpt>
      <trkpt lat="59.975354" lon="17.7383145">
        <ele>26.0929</ele>
        <time>2013-03-08T17:46:57Z</time>
      </trkpt>
      <trkpt lat="59.9753427" lon="17.7382974">
        <ele>26.0929</ele>
        <time>2013-03-08T17:46:58Z</time>
      </trkpt>
      <trkpt lat="59.9753314" lon="17.7382813">
        <ele>26.5736</ele>
        <time>2013-03-08T17:46:59Z</time>
      </trkpt>
      <trkpt lat="59.9753209" lon="17.7382638">
        <ele>26.5736</ele>
        <time>2013-03-08T17:47:00Z</time>
      </trkpt>
      <trkpt lat="59.9753105" lon="17.7382432">
        <ele>26.5736</ele>
        <time>2013-03-08T17:47:01Z</time>
      </trkpt>
      <trkpt lat="59.9753001" lon="17.7382235">
        <ele>26.0929</ele>
        <time>2013-03-08T17:47:02Z</time>
      </trkpt>
      <trkpt lat="59.9752896" lon="17.7382024">
        <ele>26.0929</ele>
        <time>2013-03-08T17:47:03Z</time>
      </trkpt>
      <trkpt lat="59.9752787" lon="17.7381834">
        <ele>26.0929</ele>
        <time>2013-03-08T17:47:04Z</time>
      </trkpt>
      <trkpt lat="59.9752678" lon="17.7381649">
        <ele>25.6123</ele>
        <time>2013-03-08T17:47:05Z</time>
      </trkpt>
      <trkpt lat="59.9752566" lon="17.7381437">
        <ele>25.6123</ele>
        <time>2013-03-08T17:47:06Z</time>
      </trkpt>
      <trkpt lat="59.9752453" lon="17.7381247">
        <ele>25.1317</ele>
        <time>2013-03-08T17:47:07Z</time>
      </trkpt>
      <trkpt lat="59.975235" lon="17.7381058">
        <ele>25.1317</ele>
        <time>2013-03-08T17:47:08Z</time>
      </trkpt>
      <trkpt lat="59.9752244" lon="17.738084">
        <ele>24.651</ele>
        <time>2013-03-08T17:47:09Z</time>
      </trkpt>
      <trkpt lat="59.975214" lon="17.7380649">
        <ele>25.1317</ele>
        <time>2013-03-08T17:47:10Z</time>
      </trkpt>
      <trkpt lat="59.9752036" lon="17.738049">
        <ele>25.1317</ele>
        <time>2013-03-08T17:47:11Z</time>
      </trkpt>
      <trkpt lat="59.975192" lon="17.7380297">
        <ele>25.1317</ele>
        <time>2013-03-08T17:47:12Z</time>
      </trkpt>
      <trkpt lat="59.9751811" lon="17.738012">
        <ele>24.651</ele>
        <time>2013-03-08T17:47:13Z</time>
      </trkpt>
      <trkpt lat="59.9751692" lon="17.7379925">
        <ele>24.651</ele>
        <time>2013-03-08T17:47:14Z</time>
      </trkpt>
      <trkpt lat="59.975157" lon="17.7379738">
        <ele>24.651</ele>
        <time>2013-03-08T17:47:15Z</time>
      </trkpt>
      <trkpt lat="59.9751448" lon="17.7379567">
        <ele>24.651</ele>
        <time>2013-03-08T17:47:16Z</time>
      </trkpt>
      <trkpt lat="59.9751334" lon="17.7379386">
        <ele>24.651</ele>
        <time>2013-03-08T17:47:17Z</time>
      </trkpt>
      <trkpt lat="59.9751223" lon="17.737918">
        <ele>24.1703</ele>
        <time>2013-03-08T17:47:18Z</time>
      </trkpt>
      <trkpt lat="59.9751105" lon="17.7378978">
        <ele>24.651</ele>
        <time>2013-03-08T17:47:19Z</time>
      </trkpt>
      <trkpt lat="59.9750996" lon="17.7378796">
        <ele>24.651</ele>
        <time>2013-03-08T17:47:20Z</time>
      </trkpt>
      <trkpt lat="59.9750886" lon="17.7378609">
        <ele>25.1317</ele>
        <time>2013-03-08T17:47:21Z</time>
      </trkpt>
      <trkpt lat="59.9750779" lon="17.7378448">
        <ele>25.1317</ele>
        <time>2013-03-08T17:47:22Z</time>
      </trkpt>
      <trkpt lat="59.9750676" lon="17.7378266">
        <ele>24.651</ele>
        <time>2013-03-08T17:47:23Z</time>
      </trkpt>
      <trkpt lat="59.9750572" lon="17.737808">
        <ele>25.1317</ele>
        <time>2013-03-08T17:47:24Z</time>
      </trkpt>
      <trkpt lat="59.975047" lon="17.7377893">
        <ele>25.1317</ele>
        <time>2013-03-08T17:47:25Z</time>
      </trkpt>
      <trkpt lat="59.9750375" lon="17.7377695">
        <ele>25.1317</ele>
        <time>2013-03-08T17:47:26Z</time>
      </trkpt>
      <trkpt lat="59.975028" lon="17.7377505">
        <ele>25.1317</ele>
        <time>2013-03-08T17:47:27Z</time>
      </trkpt>
      <trkpt lat="59.9750187" lon="17.7377324">
        <ele>25.1317</ele>
        <time>2013-03-08T17:47:28Z</time>
      </trkpt>
      <trkpt lat="59.9750084" lon="17.7377125">
        <ele>25.1317</ele>
        <time>2013-03-08T17:47:29Z</time>
      </trkpt>
      <trkpt lat="59.9749972" lon="17.7376934">
        <ele>25.1317</ele>
        <time>2013-03-08T17:47:30Z</time>
      </trkpt>
      <trkpt lat="59.9749861" lon="17.7376738">
        <ele>25.1317</ele>
        <time>2013-03-08T17:47:31Z</time>
      </trkpt>
      <trkpt lat="59.9749749" lon="17.7376535">
        <ele>25.1317</ele>
        <time>2013-03-08T17:47:32Z</time>
      </trkpt>
      <trkpt lat="59.9749635" lon="17.7376339">
        <ele>25.1317</ele>
        <time>2013-03-08T17:47:33Z</time>
      </trkpt>
      <trkpt lat="59.9749526" lon="17.7376138">
        <ele>25.1317</ele>
        <time>2013-03-08T17:47:34Z</time>
      </trkpt>
      <trkpt lat="59.9749413" lon="17.7375925">
        <ele>25.6123</ele>
        <time>2013-03-08T17:47:35Z</time>
      </trkpt>
      <trkpt lat="59.9749301" lon="17.7375708">
        <ele>25.1317</ele>
        <time>2013-03-08T17:47:36Z</time>
      </trkpt>
      <trkpt lat="59.9749189" lon="17.7375484">
        <ele>25.1317</ele>
        <time>2013-03-08T17:47:37Z</time>
      </trkpt>
      <trkpt lat="59.9749087" lon="17.7375269">
        <ele>25.1317</ele>
        <time>2013-03-08T17:47:38Z</time>
      </trkpt>
      <trkpt lat="59.9748982" lon="17.7375075">
        <ele>25.1317</ele>
        <time>2013-03-08T17:47:39Z</time>
      </trkpt>
      <trkpt lat="59.9748882" lon="17.7374895">
        <ele>25.6123</ele>
        <time>2013-03-08T17:47:40Z</time>
      </trkpt>
      <trkpt lat="59.9748784" lon="17.7374693">
        <ele>25.6123</ele>
        <time>2013-03-08T17:47:41Z</time>
      </trkpt>
      <trkpt lat="59.9748677" lon="17.7374485">
        <ele>25.6123</ele>
        <time>2013-03-08T17:47:42Z</time>
      </trkpt>
      <trkpt lat="59.9748569" lon="17.7374289">
        <ele>26.0929</ele>
        <time>2013-03-08T17:47:43Z</time>
      </trkpt>
      <trkpt lat="59.9748464" lon="17.73741">
        <ele>26.0929</ele>
        <time>2013-03-08T17:47:44Z</time>
      </trkpt>
      <trkpt lat="59.9748367" lon="17.7373895">
        <ele>26.0929</ele>
        <time>2013-03-08T17:47:45Z</time>
      </trkpt>
      <trkpt lat="59.9748268" lon="17.7373698">
        <ele>26.5736</ele>
        <time>2013-03-08T17:47:46Z</time>
      </trkpt>
      <trkpt lat="59.974817" lon="17.73735">
        <ele>26.5736</ele>
        <time>2013-03-08T17:47:47Z</time>
      </trkpt>
      <trkpt lat="59.9748081" lon="17.737331">
        <ele>26.5736</ele>
        <time>2013-03-08T17:47:48Z</time>
      </trkpt>
      <trkpt lat="59.9747991" lon="17.7373108">
        <ele>26.5736</ele>
        <time>2013-03-08T17:47:49Z</time>
      </trkpt>
      <trkpt lat="59.9747895" lon="17.7372889">
        <ele>26.5736</ele>
        <time>2013-03-08T17:47:50Z</time>
      </trkpt>
      <trkpt lat="59.9747805" lon="17.7372678">
        <ele>26.5736</ele>
        <time>2013-03-08T17:47:51Z</time>
      </trkpt>
      <trkpt lat="59.9747712" lon="17.737246">
        <ele>26.0929</ele>
        <time>2013-03-08T17:47:52Z</time>
      </trkpt>
      <trkpt lat="59.9747623" lon="17.7372238">
        <ele>26.0929</ele>
        <time>2013-03-08T17:47:53Z</time>
      </trkpt>
      <trkpt lat="59.9747542" lon="17.7372014">
        <ele>26.0929</ele>
        <time>2013-03-08T17:47:54Z</time>
      </trkpt>
      <trkpt lat="59.9747469" lon="17.7371771">
        <ele>26.0929</ele>
        <time>2013-03-08T17:47:55Z</time>
      </trkpt>
      <trkpt lat="59.9747392" lon="17.7371515">
        <ele>25.6123</ele>
        <time>2013-03-08T17:47:56Z</time>
      </trkpt>
      <trkpt lat="59.9747309" lon="17.7371259">
        <ele>25.6123</ele>
        <time>2013-03-08T17:47:57Z</time>
      </trkpt>
      <trkpt lat="59.9747219" lon="17.7371016">
        <ele>25.1317</ele>
        <time>2013-03-08T17:47:58Z</time>
      </trkpt>
      <trkpt lat="59.9747132" lon="17.7370798">
        <ele>25.1317</ele>
        <time>2013-03-08T17:47:59Z</time>
      </trkpt>
      <trkpt lat="59.9747046" lon="17.7370588">
        <ele>25.1317</ele>
        <time>2013-03-08T17:48:00Z</time>
      </trkpt>
      <trkpt lat="59.9746962" lon="17.7370389">
        <ele>25.1317</ele>
        <time>2013-03-08T17:48:01Z</time>
      </trkpt>
      <trkpt lat="59.9746883" lon="17.737019">
        <ele>25.1317</ele>
        <time>2013-03-08T17:48:02Z</time>
      </trkpt>
      <trkpt lat="59.9746801" lon="17.7369977">
        <ele>24.651</ele>
        <time>2013-03-08T17:48:03Z</time>
      </trkpt>
      <trkpt lat="59.9746718" lon="17.736975">
        <ele>24.651</ele>
        <time>2013-03-08T17:48:04Z</time>
      </trkpt>
      <trkpt lat="59.9746638" lon="17.7369532">
        <ele>24.651</ele>
        <time>2013-03-08T17:48:05Z</time>
      </trkpt>
      <trkpt lat="59.9746563" lon="17.7369319">
        <ele>24.651</ele>
        <time>2013-03-08T17:48:06Z</time>
      </trkpt>
      <trkpt lat="59.974649" lon="17.7369103">
        <ele>24.651</ele>
        <time>2013-03-08T17:48:07Z</time>
      </trkpt>
      <trkpt lat="59.9746418" lon="17.7368886">
        <ele>24.651</ele>
        <time>2013-03-08T17:48:08Z</time>
      </trkpt>
      <trkpt lat="59.9746346" lon="17.7368673">
        <ele>24.651</ele>
        <time>2013-03-08T17:48:09Z</time>
      </trkpt>
      <trkpt lat="59.9746277" lon="17.7368456">
        <ele>24.651</ele>
        <time>2013-03-08T17:48:10Z</time>
      </trkpt>
      <trkpt lat="59.9746204" lon="17.7368222">
        <ele>24.1703</ele>
        <time>2013-03-08T17:48:11Z</time>
      </trkpt>
      <trkpt lat="59.974612" lon="17.7367959">
        <ele>24.1703</ele>
        <time>2013-03-08T17:48:12Z</time>
      </trkpt>
      <trkpt lat="59.9746034" lon="17.7367694">
        <ele>23.6896</ele>
        <time>2013-03-08T17:48:13Z</time>
      </trkpt>
      <trkpt lat="59.974595" lon="17.7367429">
        <ele>23.6896</ele>
        <time>2013-03-08T17:48:14Z</time>
      </trkpt>
      <trkpt lat="59.9745875" lon="17.7367191">
        <ele>23.6896</ele>
        <time>2013-03-08T17:48:15Z</time>
      </trkpt>
      <trkpt lat="59.9745807" lon="17.7366978">
        <ele>23.6896</ele>
        <time>2013-03-08T17:48:16Z</time>
      </trkpt>
      <trkpt lat="59.9745716" lon="17.7366694">
        <ele>23.209</ele>
        <time>2013-03-08T17:48:17Z</time>
      </trkpt>
      <trkpt lat="59.9745637" lon="17.7366416">
        <ele>23.209</ele>
        <time>2013-03-08T17:48:18Z</time>
      </trkpt>
      <trkpt lat="59.9745573" lon="17.7366203">
        <ele>23.209</ele>
        <time>2013-03-08T17:48:19Z</time>
      </trkpt>
      <trkpt lat="59.9745506" lon="17.7365978">
        <ele>23.209</ele>
        <time>2013-03-08T17:48:20Z</time>
      </trkpt>
      <trkpt lat="59.9745428" lon="17.7365714">
        <ele>22.7283</ele>
        <time>2013-03-08T17:48:21Z</time>
      </trkpt>
      <trkpt lat="59.9745349" lon="17.7365441">
        <ele>22.7283</ele>
        <time>2013-03-08T17:48:22Z</time>
      </trkpt>
      <trkpt lat="59.9745284" lon="17.7365213">
        <ele>22.7283</ele>
        <time>2013-03-08T17:48:23Z</time>
      </trkpt>
      <trkpt lat="59.9745222" lon="17.7364974">
        <ele>22.7283</ele>
        <time>2013-03-08T17:48:24Z</time>
      </trkpt>
      <trkpt lat="59.9745163" lon="17.7364738">
        <ele>22.7283</ele>
        <time>2013-03-08T17:48:25Z</time>
      </trkpt>
      <trkpt lat="59.97451" lon="17.736452">
        <ele>22.7283</ele>
        <time>2013-03-08T17:48:26Z</time>
      </trkpt>
      <trkpt lat="59.9745018" lon="17.7364261">
        <ele>22.7283</ele>
        <time>2013-03-08T17:48:27Z</time>
      </trkpt>
      <trkpt lat="59.9744939" lon="17.7364001">
        <ele>22.7283</ele>
        <time>2013-03-08T17:48:28Z</time>
      </trkpt>
      <trkpt lat="59.9744877" lon="17.7363789">
        <ele>22.7283</ele>
        <time>2013-03-08T17:48:29Z</time>
      </trkpt>
      <trkpt lat="59.974482" lon="17.7363562">
        <ele>22.7283</ele>
        <time>2013-03-08T17:48:30Z</time>
      </trkpt>
      <trkpt lat="59.974476" lon="17.7363308">
        <ele>22.2476</ele>
        <time>2013-03-08T17:48:31Z</time>
      </trkpt>
      <trkpt lat="59.9744696" lon="17.7363048">
        <ele>22.2476</ele>
        <time>2013-03-08T17:48:32Z</time>
      </trkpt>
      <trkpt lat="59.9744644" lon="17.736281">
        <ele>22.2476</ele>
        <time>2013-03-08T17:48:33Z</time>
      </trkpt>
      <trkpt lat="59.9744599" lon="17.7362582">
        <ele>22.2476</ele>
        <time>2013-03-08T17:48:34Z</time>
      </trkpt>
      <trkpt lat="59.9744548" lon="17.7362347">
        <ele>22.2476</ele>
        <time>2013-03-08T17:48:35Z</time>
      </trkpt>
      <trkpt lat="59.9744483" lon="17.7362091">
        <ele>22.2476</ele>
        <time>2013-03-08T17:48:36Z</time>
      </trkpt>
      <trkpt lat="59.9744413" lon="17.7361816">
        <ele>22.2476</ele>
        <time>2013-03-08T17:48:37Z</time>
      </trkpt>
      <trkpt lat="59.9744356" lon="17.7361561">
        <ele>22.2476</ele>
        <time>2013-03-08T17:48:38Z</time>
      </trkpt>
      <trkpt lat="59.9744314" lon="17.7361342">
        <ele>22.2476</ele>
        <time>2013-03-08T17:48:39Z</time>
      </trkpt>
      <trkpt lat="59.9744269" lon="17.736112">
        <ele>22.2476</ele>
        <time>2013-03-08T17:48:40Z</time>
      </trkpt>
      <trkpt lat="59.9744219" lon="17.7360878">
        <ele>22.7283</ele>
        <time>2013-03-08T17:48:41Z</time>
      </trkpt>
      <trkpt lat="59.9744167" lon="17.736064">
        <ele>22.7283</ele>
        <time>2013-03-08T17:48:42Z</time>
      </trkpt>
      <trkpt lat="59.9744108" lon="17.736038">
        <ele>22.7283</ele>
        <time>2013-03-08T17:48:43Z</time>
      </trkpt>
      <trkpt lat="59.9744051" lon="17.7360117">
        <ele>22.2476</ele>
        <time>2013-03-08T17:48:44Z</time>
      </trkpt>
      <trkpt lat="59.9743991" lon="17.735987">
        <ele>22.2476</ele>
        <time>2013-03-08T17:48:45Z</time>
      </trkpt>
      <trkpt lat="59.974392" lon="17.7359604">
        <ele>22.2476</ele>
        <time>2013-03-08T17:48:46Z</time>
      </trkpt>
      <trkpt lat="59.9743851" lon="17.7359323">
        <ele>22.2476</ele>
        <time>2013-03-08T17:48:47Z</time>
      </trkpt>
      <trkpt lat="59.9743794" lon="17.7359064">
        <ele>22.2476</ele>
        <time>2013-03-08T17:48:48Z</time>
      </trkpt>
      <trkpt lat="59.9743746" lon="17.7358819">
        <ele>22.2476</ele>
        <time>2013-03-08T17:48:49Z</time>
      </trkpt>
      <trkpt lat="59.9743692" lon="17.7358552">
        <ele>22.2476</ele>
        <time>2013-03-08T17:48:50Z</time>
      </trkpt>
      <trkpt lat="59.9743632" lon="17.7358278">
        <ele>22.2476</ele>
        <time>2013-03-08T17:48:51Z</time>
      </trkpt>
      <trkpt lat="59.9743583" lon="17.7358012">
        <ele>22.2476</ele>
        <time>2013-03-08T17:48:52Z</time>
      </trkpt>
      <trkpt lat="59.9743538" lon="17.7357747">
        <ele>22.2476</ele>
        <time>2013-03-08T17:48:53Z</time>
      </trkpt>
      <trkpt lat="59.9743487" lon="17.7357456">
        <ele>21.767</ele>
        <time>2013-03-08T17:48:54Z</time>
      </trkpt>
      <trkpt lat="59.9743425" lon="17.735714">
        <ele>21.767</ele>
        <time>2013-03-08T17:48:55Z</time>
      </trkpt>
      <trkpt lat="59.9743372" lon="17.7356831">
        <ele>21.767</ele>
        <time>2013-03-08T17:48:56Z</time>
      </trkpt>
      <trkpt lat="59.9743339" lon="17.7356565">
        <ele>21.767</ele>
        <time>2013-03-08T17:48:57Z</time>
      </trkpt>
      <trkpt lat="59.9743309" lon="17.7356314">
        <ele>21.767</ele>
        <time>2013-03-08T17:48:58Z</time>
      </trkpt>
      <trkpt lat="59.9743269" lon="17.7356049">
        <ele>21.2864</ele>
        <time>2013-03-08T17:48:59Z</time>
      </trkpt>
      <trkpt lat="59.9743233" lon="17.735579">
        <ele>21.2864</ele>
        <time>2013-03-08T17:49:00Z</time>
      </trkpt>
      <trkpt lat="59.9743201" lon="17.7355538">
        <ele>21.767</ele>
        <time>2013-03-08T17:49:01Z</time>
      </trkpt>
      <trkpt lat="59.9743178" lon="17.73553">
        <ele>21.767</ele>
        <time>2013-03-08T17:49:02Z</time>
      </trkpt>
      <trkpt lat="59.9743148" lon="17.735505">
        <ele>21.767</ele>
        <time>2013-03-08T17:49:03Z</time>
      </trkpt>
      <trkpt lat="59.9743102" lon="17.735477">
        <ele>21.2864</ele>
        <time>2013-03-08T17:49:04Z</time>
      </trkpt>
      <trkpt lat="59.9743055" lon="17.7354481">
        <ele>21.2864</ele>
        <time>2013-03-08T17:49:05Z</time>
      </trkpt>
      <trkpt lat="59.974301" lon="17.7354205">
        <ele>21.2864</ele>
        <time>2013-03-08T17:49:06Z</time>
      </trkpt>
      <trkpt lat="59.9742967" lon="17.7353926">
        <ele>21.2864</ele>
        <time>2013-03-08T17:49:07Z</time>
      </trkpt>
      <trkpt lat="59.974293" lon="17.7353661">
        <ele>21.2864</ele>
        <time>2013-03-08T17:49:08Z</time>
      </trkpt>
      <trkpt lat="59.9742904" lon="17.7353408">
        <ele>21.2864</ele>
        <time>2013-03-08T17:49:09Z</time>
      </trkpt>
      <trkpt lat="59.9742878" lon="17.7353154">
        <ele>21.2864</ele>
        <time>2013-03-08T17:49:10Z</time>
      </trkpt>
      <trkpt lat="59.9742844" lon="17.7352895">
        <ele>21.2864</ele>
        <time>2013-03-08T17:49:11Z</time>
      </trkpt>
      <trkpt lat="59.9742811" lon="17.735262">
        <ele>21.2864</ele>
        <time>2013-03-08T17:49:12Z</time>
      </trkpt>
      <trkpt lat="59.974278" lon="17.735232">
        <ele>21.2864</ele>
        <time>2013-03-08T17:49:13Z</time>
      </trkpt>
      <trkpt lat="59.9742761" lon="17.7352031">
        <ele>21.2864</ele>
        <time>2013-03-08T17:49:14Z</time>
      </trkpt>
      <trkpt lat="59.9742751" lon="17.7351774">
        <ele>21.2864</ele>
        <time>2013-03-08T17:49:15Z</time>
      </trkpt>
      <trkpt lat="59.9742744" lon="17.7351518">
        <ele>21.2864</ele>
        <time>2013-03-08T17:49:16Z</time>
      </trkpt>
      <trkpt lat="59.974273" lon="17.7351263">
        <ele>21.2864</ele>
        <time>2013-03-08T17:49:17Z</time>
      </trkpt>
      <trkpt lat="59.9742719" lon="17.7351007">
        <ele>21.2864</ele>
        <time>2013-03-08T17:49:18Z</time>
      </trkpt>
      <trkpt lat="59.9742709" lon="17.7350756">
        <ele>21.2864</ele>
        <time>2013-03-08T17:49:19Z</time>
      </trkpt>
      <trkpt lat="59.9742698" lon="17.7350502">
        <ele>21.2864</ele>
        <time>2013-03-08T17:49:20Z</time>
      </trkpt>
      <trkpt lat="59.9742686" lon="17.7350252">
        <ele>21.2864</ele>
        <time>2013-03-08T17:49:21Z</time>
      </trkpt>
      <trkpt lat="59.974267" lon="17.7349993">
        <ele>21.2864</ele>
        <time>2013-03-08T17:49:22Z</time>
      </trkpt>
      <trkpt lat="59.9742657" lon="17.734972">
        <ele>21.2864</ele>
        <time>2013-03-08T17:49:23Z</time>
      </trkpt>
      <trkpt lat="59.9742645" lon="17.7349445">
        <ele>21.2864</ele>
        <time>2013-03-08T17:49:24Z</time>
      </trkpt>
      <trkpt lat="59.974263" lon="17.7349176">
        <ele>21.2864</ele>
        <time>2013-03-08T17:49:25Z</time>
      </trkpt>
      <trkpt lat="59.9742622" lon="17.7348901">
        <ele>21.2864</ele>
        <time>2013-03-08T17:49:26Z</time>
      </trkpt>
      <trkpt lat="59.9742619" lon="17.7348612">
        <ele>21.767</ele>
        <time>2013-03-08T17:49:27Z</time>
      </trkpt>
      <trkpt lat="59.9742606" lon="17.7348316">
        <ele>21.767</ele>
        <time>2013-03-08T17:49:28Z</time>
      </trkpt>
      <trkpt lat="59.974259" lon="17.734802">
        <ele>21.767</ele>
        <time>2013-03-08T17:49:29Z</time>
      </trkpt>
      <trkpt lat="59.9742579" lon="17.7347719">
        <ele>21.767</ele>
        <time>2013-03-08T17:49:30Z</time>
      </trkpt>
      <trkpt lat="59.974256" lon="17.7347409">
        <ele>21.767</ele>
        <time>2013-03-08T17:49:31Z</time>
      </trkpt>
      <trkpt lat="59.9742539" lon="17.7347118">
        <ele>22.2476</ele>
        <time>2013-03-08T17:49:32Z</time>
      </trkpt>
      <trkpt lat="59.9742522" lon="17.7346832">
        <ele>22.2476</ele>
        <time>2013-03-08T17:49:33Z</time>
      </trkpt>
      <trkpt lat="59.9742505" lon="17.734654">
        <ele>22.2476</ele>
        <time>2013-03-08T17:49:34Z</time>
      </trkpt>
      <trkpt lat="59.9742491" lon="17.7346252">
        <ele>22.2476</ele>
        <time>2013-03-08T17:49:35Z</time>
      </trkpt>
      <trkpt lat="59.9742482" lon="17.7345965">
        <ele>22.2476</ele>
        <time>2013-03-08T17:49:36Z</time>
      </trkpt>
      <trkpt lat="59.9742499" lon="17.7345663">
        <ele>22.2476</ele>
        <time>2013-03-08T17:49:37Z</time>
      </trkpt>
      <trkpt lat="59.9742505" lon="17.7345389">
        <ele>22.2476</ele>
        <time>2013-03-08T17:49:38Z</time>
      </trkpt>
      <trkpt lat="59.9742497" lon="17.734514">
        <ele>22.2476</ele>
        <time>2013-03-08T17:49:39Z</time>
      </trkpt>
      <trkpt lat="59.9742486" lon="17.734485">
        <ele>22.2476</ele>
        <time>2013-03-08T17:49:40Z</time>
      </trkpt>
      <trkpt lat="59.9742482" lon="17.7344539">
        <ele>22.2476</ele>
        <time>2013-03-08T17:49:41Z</time>
      </trkpt>
      <trkpt lat="59.9742485" lon="17.7344233">
        <ele>22.2476</ele>
        <time>2013-03-08T17:49:42Z</time>
      </trkpt>
      <trkpt lat="59.9742491" lon="17.7343943">
        <ele>22.2476</ele>
        <time>2013-03-08T17:49:43Z</time>
      </trkpt>
      <trkpt lat="59.9742508" lon="17.7343655">
        <ele>22.2476</ele>
        <time>2013-03-08T17:49:44Z</time>
      </trkpt>
      <trkpt lat="59.9742527" lon="17.7343379">
        <ele>22.2476</ele>
        <time>2013-03-08T17:49:45Z</time>
      </trkpt>
      <trkpt lat="59.9742539" lon="17.734311">
        <ele>22.2476</ele>
        <time>2013-03-08T17:49:46Z</time>
      </trkpt>
      <trkpt lat="59.9742542" lon="17.7342814">
        <ele>22.2476</ele>
        <time>2013-03-08T17:49:47Z</time>
      </trkpt>
      <trkpt lat="59.9742538" lon="17.7342515">
        <ele>22.2476</ele>
        <time>2013-03-08T17:49:48Z</time>
      </trkpt>
      <trkpt lat="59.9742544" lon="17.7342223">
        <ele>22.2476</ele>
        <time>2013-03-08T17:49:49Z</time>
      </trkpt>
      <trkpt lat="59.9742568" lon="17.7341938">
        <ele>22.2476</ele>
        <time>2013-03-08T17:49:50Z</time>
      </trkpt>
      <trkpt lat="59.9742603" lon="17.7341664">
        <ele>22.2476</ele>
        <time>2013-03-08T17:49:51Z</time>
      </trkpt>
      <trkpt lat="59.9742631" lon="17.7341398">
        <ele>22.2476</ele>
        <time>2013-03-08T17:49:52Z</time>
      </trkpt>
      <trkpt lat="59.9742655" lon="17.7341121">
        <ele>22.2476</ele>
        <time>2013-03-08T17:49:53Z</time>
      </trkpt>
      <trkpt lat="59.9742671" lon="17.7340841">
        <ele>22.2476</ele>
        <time>2013-03-08T17:49:54Z</time>
      </trkpt>
      <trkpt lat="59.9742681" lon="17.734056">
        <ele>22.2476</ele>
        <time>2013-03-08T17:49:55Z</time>
      </trkpt>
      <trkpt lat="59.9742698" lon="17.7340275">
        <ele>22.2476</ele>
        <time>2013-03-08T17:49:56Z</time>
      </trkpt>
      <trkpt lat="59.9742719" lon="17.7339996">
        <ele>22.2476</ele>
        <time>2013-03-08T17:49:57Z</time>
      </trkpt>
      <trkpt lat="59.974274" lon="17.7339722">
        <ele>22.2476</ele>
        <time>2013-03-08T17:49:58Z</time>
      </trkpt>
      <trkpt lat="59.9742743" lon="17.7339426">
        <ele>22.2476</ele>
        <time>2013-03-08T17:49:59Z</time>
      </trkpt>
      <trkpt lat="59.974274" lon="17.7339129">
        <ele>22.2476</ele>
        <time>2013-03-08T17:50:00Z</time>
      </trkpt>
      <trkpt lat="59.974275" lon="17.7338834">
        <ele>22.2476</ele>
        <time>2013-03-08T17:50:01Z</time>
      </trkpt>
      <trkpt lat="59.9742765" lon="17.7338546">
        <ele>22.2476</ele>
        <time>2013-03-08T17:50:02Z</time>
      </trkpt>
      <trkpt lat="59.9742776" lon="17.733826">
        <ele>22.2476</ele>
        <time>2013-03-08T17:50:03Z</time>
      </trkpt>
      <trkpt lat="59.9742787" lon="17.7337976">
        <ele>22.2476</ele>
        <time>2013-03-08T17:50:04Z</time>
      </trkpt>
      <trkpt lat="59.9742802" lon="17.7337687">
        <ele>22.7283</ele>
        <time>2013-03-08T17:50:05Z</time>
      </trkpt>
      <trkpt lat="59.9742823" lon="17.7337407">
        <ele>22.7283</ele>
        <time>2013-03-08T17:50:06Z</time>
      </trkpt>
      <trkpt lat="59.9742838" lon="17.733712">
        <ele>22.7283</ele>
        <time>2013-03-08T17:50:07Z</time>
      </trkpt>
      <trkpt lat="59.9742858" lon="17.7336826">
        <ele>22.7283</ele>
        <time>2013-03-08T17:50:08Z</time>
      </trkpt>
      <trkpt lat="59.9742881" lon="17.7336551">
        <ele>22.7283</ele>
        <time>2013-03-08T17:50:09Z</time>
      </trkpt>
      <trkpt lat="59.9742906" lon="17.7336278">
        <ele>22.7283</ele>
        <time>2013-03-08T17:50:10Z</time>
      </trkpt>
      <trkpt lat="59.9742926" lon="17.7336">
        <ele>22.7283</ele>
        <time>2013-03-08T17:50:11Z</time>
      </trkpt>
      <trkpt lat="59.9742945" lon="17.7335714">
        <ele>22.7283</ele>
        <time>2013-03-08T17:50:12Z</time>
      </trkpt>
      <trkpt lat="59.9742963" lon="17.7335424">
        <ele>22.7283</ele>
        <time>2013-03-08T17:50:13Z</time>
      </trkpt>
      <trkpt lat="59.9742978" lon="17.7335121">
        <ele>22.7283</ele>
        <time>2013-03-08T17:50:14Z</time>
      </trkpt>
      <trkpt lat="59.9742989" lon="17.7334819">
        <ele>23.209</ele>
        <time>2013-03-08T17:50:15Z</time>
      </trkpt>
      <trkpt lat="59.9742999" lon="17.7334516">
        <ele>23.209</ele>
        <time>2013-03-08T17:50:16Z</time>
      </trkpt>
      <trkpt lat="59.9743017" lon="17.7334224">
        <ele>22.7283</ele>
        <time>2013-03-08T17:50:17Z</time>
      </trkpt>
      <trkpt lat="59.9743046" lon="17.7333926">
        <ele>22.7283</ele>
        <time>2013-03-08T17:50:18Z</time>
      </trkpt>
      <trkpt lat="59.9743075" lon="17.7333638">
        <ele>22.7283</ele>
        <time>2013-03-08T17:50:19Z</time>
      </trkpt>
      <trkpt lat="59.9743097" lon="17.7333338">
        <ele>22.7283</ele>
        <time>2013-03-08T17:50:20Z</time>
      </trkpt>
      <trkpt lat="59.97431" lon="17.7333037">
        <ele>22.7283</ele>
        <time>2013-03-08T17:50:21Z</time>
      </trkpt>
      <trkpt lat="59.9743103" lon="17.7332748">
        <ele>22.7283</ele>
        <time>2013-03-08T17:50:22Z</time>
      </trkpt>
      <trkpt lat="59.9743127" lon="17.7332447">
        <ele>22.7283</ele>
        <time>2013-03-08T17:50:23Z</time>
      </trkpt>
      <trkpt lat="59.9743161" lon="17.7332164">
        <ele>22.7283</ele>
        <time>2013-03-08T17:50:24Z</time>
      </trkpt>
      <trkpt lat="59.9743189" lon="17.733187">
        <ele>22.7283</ele>
        <time>2013-03-08T17:50:25Z</time>
      </trkpt>
      <trkpt lat="59.9743207" lon="17.733157">
        <ele>22.7283</ele>
        <time>2013-03-08T17:50:26Z</time>
      </trkpt>
      <trkpt lat="59.9743226" lon="17.7331245">
        <ele>22.7283</ele>
        <time>2013-03-08T17:50:27Z</time>
      </trkpt>
      <trkpt lat="59.974324" lon="17.7330924">
        <ele>23.209</ele>
        <time>2013-03-08T17:50:28Z</time>
      </trkpt>
      <trkpt lat="59.9743256" lon="17.7330582">
        <ele>23.209</ele>
        <time>2013-03-08T17:50:29Z</time>
      </trkpt>
      <trkpt lat="59.9743258" lon="17.7330253">
        <ele>23.209</ele>
        <time>2013-03-08T17:50:30Z</time>
      </trkpt>
      <trkpt lat="59.9743242" lon="17.732994">
        <ele>23.209</ele>
        <time>2013-03-08T17:50:31Z</time>
      </trkpt>
      <trkpt lat="59.9743245" lon="17.7329647">
        <ele>23.209</ele>
        <time>2013-03-08T17:50:32Z</time>
      </trkpt>
      <trkpt lat="59.9743249" lon="17.7329341">
        <ele>23.209</ele>
        <time>2013-03-08T17:50:33Z</time>
      </trkpt>
      <trkpt lat="59.9743254" lon="17.7329018">
        <ele>23.209</ele>
        <time>2013-03-08T17:50:34Z</time>
      </trkpt>
      <trkpt lat="59.9743264" lon="17.7328704">
        <ele>23.209</ele>
        <time>2013-03-08T17:50:35Z</time>
      </trkpt>
      <trkpt lat="59.9743267" lon="17.7328398">
        <ele>23.209</ele>
        <time>2013-03-08T17:50:36Z</time>
      </trkpt>
      <trkpt lat="59.9743263" lon="17.7328082">
        <ele>23.209</ele>
        <time>2013-03-08T17:50:37Z</time>
      </trkpt>
      <trkpt lat="59.9743264" lon="17.7327752">
        <ele>23.6896</ele>
        <time>2013-03-08T17:50:38Z</time>
      </trkpt>
      <trkpt lat="59.9743278" lon="17.7327424">
        <ele>23.6896</ele>
        <time>2013-03-08T17:50:39Z</time>
      </trkpt>
      <trkpt lat="59.9743284" lon="17.7327099">
        <ele>23.6896</ele>
        <time>2013-03-08T17:50:40Z</time>
      </trkpt>
      <trkpt lat="59.9743289" lon="17.7326782">
        <ele>23.6896</ele>
        <time>2013-03-08T17:50:41Z</time>
      </trkpt>
      <trkpt lat="59.974329" lon="17.7326471">
        <ele>23.6896</ele>
        <time>2013-03-08T17:50:42Z</time>
      </trkpt>
      <trkpt lat="59.9743293" lon="17.7326136">
        <ele>23.6896</ele>
        <time>2013-03-08T17:50:43Z</time>
      </trkpt>
      <trkpt lat="59.9743294" lon="17.7325798">
        <ele>23.6896</ele>
        <time>2013-03-08T17:50:44Z</time>
      </trkpt>
      <trkpt lat="59.9743295" lon="17.7325472">
        <ele>23.209</ele>
        <time>2013-03-08T17:50:45Z</time>
      </trkpt>
      <trkpt lat="59.9743304" lon="17.732515">
        <ele>23.209</ele>
        <time>2013-03-08T17:50:46Z</time>
      </trkpt>
      <trkpt lat="59.9743318" lon="17.7324844">
        <ele>23.209</ele>
        <time>2013-03-08T17:50:47Z</time>
      </trkpt>
      <trkpt lat="59.9743315" lon="17.7324543">
        <ele>23.209</ele>
        <time>2013-03-08T17:50:48Z</time>
      </trkpt>
      <trkpt lat="59.9743302" lon="17.7324249">
        <ele>23.209</ele>
        <time>2013-03-08T17:50:49Z</time>
      </trkpt>
      <trkpt lat="59.9743294" lon="17.7323959">
        <ele>22.7283</ele>
        <time>2013-03-08T17:50:50Z</time>
      </trkpt>
      <trkpt lat="59.9743288" lon="17.7323664">
        <ele>22.7283</ele>
        <time>2013-03-08T17:50:51Z</time>
      </trkpt>
      <trkpt lat="59.9743285" lon="17.7323377">
        <ele>22.7283</ele>
        <time>2013-03-08T17:50:52Z</time>
      </trkpt>
      <trkpt lat="59.9743293" lon="17.7323099">
        <ele>22.7283</ele>
        <time>2013-03-08T17:50:53Z</time>
      </trkpt>
      <trkpt lat="59.9743295" lon="17.7322815">
        <ele>22.7283</ele>
        <time>2013-03-08T17:50:54Z</time>
      </trkpt>
      <trkpt lat="59.9743289" lon="17.7322522">
        <ele>22.7283</ele>
        <time>2013-03-08T17:50:55Z</time>
      </trkpt>
      <trkpt lat="59.9743289" lon="17.7322234">
        <ele>22.7283</ele>
        <time>2013-03-08T17:50:56Z</time>
      </trkpt>
      <trkpt lat="59.9743278" lon="17.7321926">
        <ele>22.7283</ele>
        <time>2013-03-08T17:50:57Z</time>
      </trkpt>
      <trkpt lat="59.9743254" lon="17.7321636">
        <ele>22.7283</ele>
        <time>2013-03-08T17:50:58Z</time>
      </trkpt>
      <trkpt lat="59.9743237" lon="17.7321333">
        <ele>22.7283</ele>
        <time>2013-03-08T17:50:59Z</time>
      </trkpt>
      <trkpt lat="59.9743206" lon="17.7321028">
        <ele>23.209</ele>
        <time>2013-03-08T17:51:00Z</time>
      </trkpt>
      <trkpt lat="59.974317" lon="17.732073">
        <ele>23.209</ele>
        <time>2013-03-08T17:51:01Z</time>
      </trkpt>
      <trkpt lat="59.9743142" lon="17.7320452">
        <ele>23.209</ele>
        <time>2013-03-08T17:51:02Z</time>
      </trkpt>
      <trkpt lat="59.9743118" lon="17.7320149">
        <ele>23.209</ele>
        <time>2013-03-08T17:51:03Z</time>
      </trkpt>
      <trkpt lat="59.974309" lon="17.731986">
        <ele>23.209</ele>
        <time>2013-03-08T17:51:04Z</time>
      </trkpt>
      <trkpt lat="59.9743096" lon="17.731959">
        <ele>23.209</ele>
        <time>2013-03-08T17:51:05Z</time>
      </trkpt>
      <trkpt lat="59.9743106" lon="17.73193">
        <ele>23.209</ele>
        <time>2013-03-08T17:51:06Z</time>
      </trkpt>
      <trkpt lat="59.9743104" lon="17.731902">
        <ele>23.209</ele>
        <time>2013-03-08T17:51:07Z</time>
      </trkpt>
      <trkpt lat="59.9743103" lon="17.7318737">
        <ele>23.209</ele>
        <time>2013-03-08T17:51:08Z</time>
      </trkpt>
      <trkpt lat="59.9743095" lon="17.7318447">
        <ele>23.209</ele>
        <time>2013-03-08T17:51:09Z</time>
      </trkpt>
      <trkpt lat="59.9743082" lon="17.7318161">
        <ele>23.209</ele>
        <time>2013-03-08T17:51:10Z</time>
      </trkpt>
      <trkpt lat="59.9743078" lon="17.7317863">
        <ele>23.6896</ele>
        <time>2013-03-08T17:51:11Z</time>
      </trkpt>
      <trkpt lat="59.9743077" lon="17.7317562">
        <ele>23.6896</ele>
        <time>2013-03-08T17:51:12Z</time>
      </trkpt>
      <trkpt lat="59.9743075" lon="17.7317269">
        <ele>23.6896</ele>
        <time>2013-03-08T17:51:13Z</time>
      </trkpt>
      <trkpt lat="59.9743074" lon="17.7316971">
        <ele>23.6896</ele>
        <time>2013-03-08T17:51:14Z</time>
      </trkpt>
      <trkpt lat="59.9743062" lon="17.7316666">
        <ele>23.6896</ele>
        <time>2013-03-08T17:51:15Z</time>
      </trkpt>
      <trkpt lat="59.9743051" lon="17.731637">
        <ele>23.6896</ele>
        <time>2013-03-08T17:51:16Z</time>
      </trkpt>
      <trkpt lat="59.9743047" lon="17.7316073">
        <ele>24.1703</ele>
        <time>2013-03-08T17:51:17Z</time>
      </trkpt>
      <trkpt lat="59.9743044" lon="17.7315783">
        <ele>24.1703</ele>
        <time>2013-03-08T17:51:18Z</time>
      </trkpt>
      <trkpt lat="59.9743043" lon="17.7315494">
        <ele>24.1703</ele>
        <time>2013-03-08T17:51:19Z</time>
      </trkpt>
      <trkpt lat="59.974304" lon="17.7315208">
        <ele>24.1703</ele>
        <time>2013-03-08T17:51:20Z</time>
      </trkpt>
      <trkpt lat="59.974304" lon="17.7314923">
        <ele>24.651</ele>
        <time>2013-03-08T17:51:21Z</time>
      </trkpt>
      <trkpt lat="59.9743046" lon="17.7314635">
        <ele>24.651</ele>
        <time>2013-03-08T17:51:22Z</time>
      </trkpt>
      <trkpt lat="59.9743051" lon="17.731435">
        <ele>24.651</ele>
        <time>2013-03-08T17:51:23Z</time>
      </trkpt>
      <trkpt lat="59.9743056" lon="17.731406">
        <ele>24.651</ele>
        <time>2013-03-08T17:51:24Z</time>
      </trkpt>
      <trkpt lat="59.9743062" lon="17.7313769">
        <ele>24.651</ele>
        <time>2013-03-08T17:51:25Z</time>
      </trkpt>
      <trkpt lat="59.974307" lon="17.7313481">
        <ele>24.651</ele>
        <time>2013-03-08T17:51:26Z</time>
      </trkpt>
      <trkpt lat="59.9743077" lon="17.7313196">
        <ele>24.651</ele>
        <time>2013-03-08T17:51:27Z</time>
      </trkpt>
      <trkpt lat="59.9743087" lon="17.7312906">
        <ele>24.651</ele>
        <time>2013-03-08T17:51:28Z</time>
      </trkpt>
      <trkpt lat="59.9743096" lon="17.7312614">
        <ele>24.651</ele>
        <time>2013-03-08T17:51:29Z</time>
      </trkpt>
      <trkpt lat="59.9743103" lon="17.7312318">
        <ele>24.651</ele>
        <time>2013-03-08T17:51:30Z</time>
      </trkpt>
      <trkpt lat="59.9743116" lon="17.7312014">
        <ele>25.1317</ele>
        <time>2013-03-08T17:51:31Z</time>
      </trkpt>
      <trkpt lat="59.9743135" lon="17.7311711">
        <ele>25.1317</ele>
        <time>2013-03-08T17:51:32Z</time>
      </trkpt>
      <trkpt lat="59.9743147" lon="17.7311403">
        <ele>25.1317</ele>
        <time>2013-03-08T17:51:33Z</time>
      </trkpt>
      <trkpt lat="59.974316" lon="17.7311107">
        <ele>25.1317</ele>
        <time>2013-03-08T17:51:34Z</time>
      </trkpt>
      <trkpt lat="59.9743191" lon="17.7310832">
        <ele>25.1317</ele>
        <time>2013-03-08T17:51:35Z</time>
      </trkpt>
      <trkpt lat="59.9743215" lon="17.7310551">
        <ele>25.6123</ele>
        <time>2013-03-08T17:51:36Z</time>
      </trkpt>
      <trkpt lat="59.9743227" lon="17.7310263">
        <ele>25.6123</ele>
        <time>2013-03-08T17:51:37Z</time>
      </trkpt>
      <trkpt lat="59.9743237" lon="17.7309968">
        <ele>25.6123</ele>
        <time>2013-03-08T17:51:38Z</time>
      </trkpt>
      <trkpt lat="59.974324" lon="17.7309682">
        <ele>25.6123</ele>
        <time>2013-03-08T17:51:39Z</time>
      </trkpt>
      <trkpt lat="59.9743247" lon="17.7309399">
        <ele>25.6123</ele>
        <time>2013-03-08T17:51:40Z</time>
      </trkpt>
      <trkpt lat="59.9743257" lon="17.7309119">
        <ele>25.6123</ele>
        <time>2013-03-08T17:51:41Z</time>
      </trkpt>
      <trkpt lat="59.9743267" lon="17.7308838">
        <ele>25.6123</ele>
        <time>2013-03-08T17:51:42Z</time>
      </trkpt>
      <trkpt lat="59.9743274" lon="17.7308554">
        <ele>25.6123</ele>
        <time>2013-03-08T17:51:43Z</time>
      </trkpt>
      <trkpt lat="59.9743285" lon="17.7308272">
        <ele>25.6123</ele>
        <time>2013-03-08T17:51:44Z</time>
      </trkpt>
      <trkpt lat="59.9743295" lon="17.7307979">
        <ele>26.0929</ele>
        <time>2013-03-08T17:51:45Z</time>
      </trkpt>
      <trkpt lat="59.9743318" lon="17.7307693">
        <ele>26.0929</ele>
        <time>2013-03-08T17:51:46Z</time>
      </trkpt>
      <trkpt lat="59.9743341" lon="17.7307419">
        <ele>26.0929</ele>
        <time>2013-03-08T17:51:47Z</time>
      </trkpt>
      <trkpt lat="59.9743362" lon="17.7307139">
        <ele>26.0929</ele>
        <time>2013-03-08T17:51:48Z</time>
      </trkpt>
      <trkpt lat="59.9743376" lon="17.7306865">
        <ele>26.0929</ele>
        <time>2013-03-08T17:51:49Z</time>
      </trkpt>
      <trkpt lat="59.9743399" lon="17.7306584">
        <ele>26.0929</ele>
        <time>2013-03-08T17:51:50Z</time>
      </trkpt>
      <trkpt lat="59.9743425" lon="17.73063">
        <ele>26.0929</ele>
        <time>2013-03-08T17:51:51Z</time>
      </trkpt>
      <trkpt lat="59.9743448" lon="17.7306028">
        <ele>26.0929</ele>
        <time>2013-03-08T17:51:52Z</time>
      </trkpt>
      <trkpt lat="59.9743471" lon="17.7305762">
        <ele>26.0929</ele>
        <time>2013-03-08T17:51:53Z</time>
      </trkpt>
      <trkpt lat="59.9743496" lon="17.7305495">
        <ele>26.0929</ele>
        <time>2013-03-08T17:51:54Z</time>
      </trkpt>
      <trkpt lat="59.9743525" lon="17.7305227">
        <ele>26.0929</ele>
        <time>2013-03-08T17:51:55Z</time>
      </trkpt>
      <trkpt lat="59.9743549" lon="17.7304958">
        <ele>26.0929</ele>
        <time>2013-03-08T17:51:56Z</time>
      </trkpt>
      <trkpt lat="59.9743573" lon="17.7304687">
        <ele>26.0929</ele>
        <time>2013-03-08T17:51:57Z</time>
      </trkpt>
      <trkpt lat="59.9743595" lon="17.7304417">
        <ele>26.0929</ele>
        <time>2013-03-08T17:51:58Z</time>
      </trkpt>
      <trkpt lat="59.974362" lon="17.730415">
        <ele>26.0929</ele>
        <time>2013-03-08T17:51:59Z</time>
      </trkpt>
      <trkpt lat="59.9743646" lon="17.7303877">
        <ele>26.0929</ele>
        <time>2013-03-08T17:52:00Z</time>
      </trkpt>
      <trkpt lat="59.9743668" lon="17.7303602">
        <ele>26.0929</ele>
        <time>2013-03-08T17:52:01Z</time>
      </trkpt>
      <trkpt lat="59.9743694" lon="17.7303326">
        <ele>26.0929</ele>
        <time>2013-03-08T17:52:02Z</time>
      </trkpt>
      <trkpt lat="59.9743714" lon="17.7303061">
        <ele>25.6123</ele>
        <time>2013-03-08T17:52:03Z</time>
      </trkpt>
      <trkpt lat="59.974374" lon="17.7302794">
        <ele>25.6123</ele>
        <time>2013-03-08T17:52:04Z</time>
      </trkpt>
      <trkpt lat="59.974377" lon="17.7302532">
        <ele>25.6123</ele>
        <time>2013-03-08T17:52:05Z</time>
      </trkpt>
      <trkpt lat="59.9743792" lon="17.7302265">
        <ele>25.6123</ele>
        <time>2013-03-08T17:52:06Z</time>
      </trkpt>
      <trkpt lat="59.9743816" lon="17.7301991">
        <ele>25.6123</ele>
        <time>2013-03-08T17:52:07Z</time>
      </trkpt>
      <trkpt lat="59.9743839" lon="17.7301716">
        <ele>25.6123</ele>
        <time>2013-03-08T17:52:08Z</time>
      </trkpt>
      <trkpt lat="59.9743868" lon="17.7301439">
        <ele>25.6123</ele>
        <time>2013-03-08T17:52:09Z</time>
      </trkpt>
      <trkpt lat="59.9743895" lon="17.7301161">
        <ele>25.6123</ele>
        <time>2013-03-08T17:52:10Z</time>
      </trkpt>
      <trkpt lat="59.9743921" lon="17.730088">
        <ele>25.6123</ele>
        <time>2013-03-08T17:52:11Z</time>
      </trkpt>
      <trkpt lat="59.9743947" lon="17.7300597">
        <ele>25.6123</ele>
        <time>2013-03-08T17:52:12Z</time>
      </trkpt>
      <trkpt lat="59.9743972" lon="17.7300316">
        <ele>25.6123</ele>
        <time>2013-03-08T17:52:13Z</time>
      </trkpt>
      <trkpt lat="59.9743997" lon="17.7300037">
        <ele>25.6123</ele>
        <time>2013-03-08T17:52:14Z</time>
      </trkpt>
      <trkpt lat="59.9744028" lon="17.7299752">
        <ele>25.6123</ele>
        <time>2013-03-08T17:52:15Z</time>
      </trkpt>
      <trkpt lat="59.974406" lon="17.7299466">
        <ele>25.6123</ele>
        <time>2013-03-08T17:52:16Z</time>
      </trkpt>
      <trkpt lat="59.9744086" lon="17.7299181">
        <ele>25.6123</ele>
        <time>2013-03-08T17:52:17Z</time>
      </trkpt>
      <trkpt lat="59.9744107" lon="17.7298892">
        <ele>25.6123</ele>
        <time>2013-03-08T17:52:18Z</time>
      </trkpt>
      <trkpt lat="59.9744124" lon="17.7298598">
        <ele>25.6123</ele>
        <time>2013-03-08T17:52:19Z</time>
      </trkpt>
      <trkpt lat="59.9744148" lon="17.7298305">
        <ele>25.6123</ele>
        <time>2013-03-08T17:52:20Z</time>
      </trkpt>
      <trkpt lat="59.9744173" lon="17.7298013">
        <ele>25.6123</ele>
        <time>2013-03-08T17:52:21Z</time>
      </trkpt>
      <trkpt lat="59.9744193" lon="17.7297722">
        <ele>25.6123</ele>
        <time>2013-03-08T17:52:22Z</time>
      </trkpt>
      <trkpt lat="59.974421" lon="17.7297426">
        <ele>25.6123</ele>
        <time>2013-03-08T17:52:23Z</time>
      </trkpt>
      <trkpt lat="59.9744227" lon="17.7297131">
        <ele>25.6123</ele>
        <time>2013-03-08T17:52:24Z</time>
      </trkpt>
      <trkpt lat="59.9744247" lon="17.7296831">
        <ele>25.6123</ele>
        <time>2013-03-08T17:52:25Z</time>
      </trkpt>
      <trkpt lat="59.9744273" lon="17.7296525">
        <ele>25.6123</ele>
        <time>2013-03-08T17:52:26Z</time>
      </trkpt>
      <trkpt lat="59.9744295" lon="17.7296226">
        <ele>25.6123</ele>
        <time>2013-03-08T17:52:27Z</time>
      </trkpt>
      <trkpt lat="59.9744318" lon="17.7295929">
        <ele>25.6123</ele>
        <time>2013-03-08T17:52:28Z</time>
      </trkpt>
      <trkpt lat="59.9744335" lon="17.7295634">
        <ele>25.6123</ele>
        <time>2013-03-08T17:52:29Z</time>
      </trkpt>
      <trkpt lat="59.9744351" lon="17.7295345">
        <ele>25.6123</ele>
        <time>2013-03-08T17:52:30Z</time>
      </trkpt>
      <trkpt lat="59.9744371" lon="17.7295064">
        <ele>25.6123</ele>
        <time>2013-03-08T17:52:31Z</time>
      </trkpt>
      <trkpt lat="59.9744393" lon="17.7294788">
        <ele>26.0929</ele>
        <time>2013-03-08T17:52:32Z</time>
      </trkpt>
      <trkpt lat="59.9744398" lon="17.7294503">
        <ele>26.0929</ele>
        <time>2013-03-08T17:52:33Z</time>
      </trkpt>
      <trkpt lat="59.9744392" lon="17.7294203">
        <ele>26.0929</ele>
        <time>2013-03-08T17:52:34Z</time>
      </trkpt>
      <trkpt lat="59.974438" lon="17.7293902">
        <ele>26.0929</ele>
        <time>2013-03-08T17:52:35Z</time>
      </trkpt>
      <trkpt lat="59.974437" lon="17.7293615">
        <ele>26.0929</ele>
        <time>2013-03-08T17:52:36Z</time>
      </trkpt>
      <trkpt lat="59.9744356" lon="17.7293329">
        <ele>25.6123</ele>
        <time>2013-03-08T17:52:37Z</time>
      </trkpt>
      <trkpt lat="59.9744346" lon="17.7293029">
        <ele>25.6123</ele>
        <time>2013-03-08T17:52:38Z</time>
      </trkpt>
      <trkpt lat="59.9744334" lon="17.7292738">
        <ele>25.6123</ele>
        <time>2013-03-08T17:52:39Z</time>
      </trkpt>
      <trkpt lat="59.9744325" lon="17.7292455">
        <ele>25.6123</ele>
        <time>2013-03-08T17:52:40Z</time>
      </trkpt>
      <trkpt lat="59.9744334" lon="17.7292182">
        <ele>25.6123</ele>
        <time>2013-03-08T17:52:41Z</time>
      </trkpt>
      <trkpt lat="59.9744333" lon="17.7291867">
        <ele>25.6123</ele>
        <time>2013-03-08T17:52:42Z</time>
      </trkpt>
      <trkpt lat="59.9744331" lon="17.7291573">
        <ele>25.6123</ele>
        <time>2013-03-08T17:52:43Z</time>
      </trkpt>
      <trkpt lat="59.9744345" lon="17.7291324">
        <ele>25.6123</ele>
        <time>2013-03-08T17:52:44Z</time>
      </trkpt>
      <trkpt lat="59.974435" lon="17.7291068">
        <ele>25.6123</ele>
        <time>2013-03-08T17:52:45Z</time>
      </trkpt>
      <trkpt lat="59.9744352" lon="17.729081">
        <ele>25.6123</ele>
        <time>2013-03-08T17:52:46Z</time>
      </trkpt>
      <trkpt lat="59.9744341" lon="17.7290545">
        <ele>25.6123</ele>
        <time>2013-03-08T17:52:47Z</time>
      </trkpt>
      <trkpt lat="59.974433" lon="17.7290303">
        <ele>25.6123</ele>
        <time>2013-03-08T17:52:48Z</time>
      </trkpt>
      <trkpt lat="59.9744331" lon="17.729004">
        <ele>26.0929</ele>
        <time>2013-03-08T17:52:49Z</time>
      </trkpt>
      <trkpt lat="59.9744313" lon="17.7289781">
        <ele>26.0929</ele>
        <time>2013-03-08T17:52:50Z</time>
      </trkpt>
      <trkpt lat="59.9744284" lon="17.7289537">
        <ele>26.5736</ele>
        <time>2013-03-08T17:52:51Z</time>
      </trkpt>
      <trkpt lat="59.9744252" lon="17.7289299">
        <ele>26.5736</ele>
        <time>2013-03-08T17:52:52Z</time>
      </trkpt>
      <trkpt lat="59.9744207" lon="17.7289029">
        <ele>27.0543</ele>
        <time>2013-03-08T17:52:53Z</time>
      </trkpt>
      <trkpt lat="59.974418" lon="17.7288746">
        <ele>27.0543</ele>
        <time>2013-03-08T17:52:54Z</time>
      </trkpt>
      <trkpt lat="59.974417" lon="17.7288486">
        <ele>27.0543</ele>
        <time>2013-03-08T17:52:55Z</time>
      </trkpt>
      <trkpt lat="59.9744162" lon="17.7288246">
        <ele>27.0543</ele>
        <time>2013-03-08T17:52:56Z</time>
      </trkpt>
      <trkpt lat="59.9744159" lon="17.7288005">
        <ele>27.0543</ele>
        <time>2013-03-08T17:52:57Z</time>
      </trkpt>
      <trkpt lat="59.9744164" lon="17.7287761">
        <ele>27.0543</ele>
        <time>2013-03-08T17:52:58Z</time>
      </trkpt>
      <trkpt lat="59.974418" lon="17.7287535">
        <ele>27.5349</ele>
        <time>2013-03-08T17:52:59Z</time>
      </trkpt>
      <trkpt lat="59.974419" lon="17.7287328">
        <ele>27.5349</ele>
        <time>2013-03-08T17:53:00Z</time>
      </trkpt>
      <trkpt lat="59.9744196" lon="17.7287103">
        <ele>27.5349</ele>
        <time>2013-03-08T17:53:01Z</time>
      </trkpt>
      <trkpt lat="59.9744193" lon="17.7286858">
        <ele>27.5349</ele>
        <time>2013-03-08T17:53:02Z</time>
      </trkpt>
      <trkpt lat="59.9744175" lon="17.7286595">
        <ele>27.5349</ele>
        <time>2013-03-08T17:53:03Z</time>
      </trkpt>
      <trkpt lat="59.9744155" lon="17.7286315">
        <ele>27.5349</ele>
        <time>2013-03-08T17:53:04Z</time>
      </trkpt>
      <trkpt lat="59.9744136" lon="17.7286011">
        <ele>27.5349</ele>
        <time>2013-03-08T17:53:05Z</time>
      </trkpt>
      <trkpt lat="59.9744122" lon="17.7285669">
        <ele>28.0155</ele>
        <time>2013-03-08T17:53:06Z</time>
      </trkpt>
      <trkpt lat="59.9744116" lon="17.7285346">
        <ele>28.0155</ele>
        <time>2013-03-08T17:53:07Z</time>
      </trkpt>
      <trkpt lat="59.9744102" lon="17.7285037">
        <ele>28.0155</ele>
        <time>2013-03-08T17:53:08Z</time>
      </trkpt>
      <trkpt lat="59.9744085" lon="17.7284733">
        <ele>28.0155</ele>
        <time>2013-03-08T17:53:09Z</time>
      </trkpt>
      <trkpt lat="59.9744049" lon="17.7284456">
        <ele>27.5349</ele>
        <time>2013-03-08T17:53:10Z</time>
      </trkpt>
      <trkpt lat="59.9744014" lon="17.7284176">
        <ele>27.5349</ele>
        <time>2013-03-08T17:53:11Z</time>
      </trkpt>
      <trkpt lat="59.9743999" lon="17.7283868">
        <ele>27.5349</ele>
        <time>2013-03-08T17:53:12Z</time>
      </trkpt>
      <trkpt lat="59.9743988" lon="17.728355">
        <ele>27.5349</ele>
        <time>2013-03-08T17:53:13Z</time>
      </trkpt>
      <trkpt lat="59.9743978" lon="17.7283234">
        <ele>27.5349</ele>
        <time>2013-03-08T17:53:14Z</time>
      </trkpt>
      <trkpt lat="59.9743966" lon="17.7282925">
        <ele>27.5349</ele>
        <time>2013-03-08T17:53:15Z</time>
      </trkpt>
      <trkpt lat="59.9743947" lon="17.728262">
        <ele>28.0155</ele>
        <time>2013-03-08T17:53:16Z</time>
      </trkpt>
      <trkpt lat="59.9743929" lon="17.72823">
        <ele>28.0155</ele>
        <time>2013-03-08T17:53:17Z</time>
      </trkpt>
      <trkpt lat="59.9743916" lon="17.7281993">
        <ele>27.5349</ele>
        <time>2013-03-08T17:53:18Z</time>
      </trkpt>
      <trkpt lat="59.9743905" lon="17.7281701">
        <ele>27.5349</ele>
        <time>2013-03-08T17:53:19Z</time>
      </trkpt>
      <trkpt lat="59.9743894" lon="17.72814">
        <ele>27.5349</ele>
        <time>2013-03-08T17:53:20Z</time>
      </trkpt>
      <trkpt lat="59.9743886" lon="17.7281104">
        <ele>27.5349</ele>
        <time>2013-03-08T17:53:21Z</time>
      </trkpt>
      <trkpt lat="59.9743868" lon="17.7280791">
        <ele>28.0155</ele>
        <time>2013-03-08T17:53:22Z</time>
      </trkpt>
      <trkpt lat="59.9743851" lon="17.7280481">
        <ele>28.0155</ele>
        <time>2013-03-08T17:53:23Z</time>
      </trkpt>
      <trkpt lat="59.9743854" lon="17.7280223">
        <ele>28.4962</ele>
        <time>2013-03-08T17:53:24Z</time>
      </trkpt>
      <trkpt lat="59.9743884" lon="17.7279964">
        <ele>28.4962</ele>
        <time>2013-03-08T17:53:25Z</time>
      </trkpt>
      <trkpt lat="59.9743916" lon="17.7279683">
        <ele>28.4962</ele>
        <time>2013-03-08T17:53:26Z</time>
      </trkpt>
      <trkpt lat="59.974394" lon="17.7279389">
        <ele>28.9769</ele>
        <time>2013-03-08T17:53:27Z</time>
      </trkpt>
      <trkpt lat="59.9743941" lon="17.7279104">
        <ele>28.9769</ele>
        <time>2013-03-08T17:53:28Z</time>
      </trkpt>
      <trkpt lat="59.9743926" lon="17.7278841">
        <ele>28.9769</ele>
        <time>2013-03-08T17:53:29Z</time>
      </trkpt>
      <trkpt lat="59.974391" lon="17.7278548">
        <ele>28.9769</ele>
        <time>2013-03-08T17:53:30Z</time>
      </trkpt>
      <trkpt lat="59.9743893" lon="17.7278253">
        <ele>28.9769</ele>
        <time>2013-03-08T17:53:31Z</time>
      </trkpt>
      <trkpt lat="59.9743886" lon="17.7277974">
        <ele>28.9769</ele>
        <time>2013-03-08T17:53:32Z</time>
      </trkpt>
      <trkpt lat="59.9743895" lon="17.7277701">
        <ele>28.4962</ele>
        <time>2013-03-08T17:53:33Z</time>
      </trkpt>
      <trkpt lat="59.9743908" lon="17.7277404">
        <ele>28.4962</ele>
        <time>2013-03-08T17:53:34Z</time>
      </trkpt>
      <trkpt lat="59.9743915" lon="17.7277104">
        <ele>28.4962</ele>
        <time>2013-03-08T17:53:35Z</time>
      </trkpt>
      <trkpt lat="59.9743916" lon="17.7276799">
        <ele>28.4962</ele>
        <time>2013-03-08T17:53:36Z</time>
      </trkpt>
      <trkpt lat="59.9743916" lon="17.7276499">
        <ele>28.4962</ele>
        <time>2013-03-08T17:53:37Z</time>
      </trkpt>
      <trkpt lat="59.9743916" lon="17.7276198">
        <ele>28.4962</ele>
        <time>2013-03-08T17:53:38Z</time>
      </trkpt>
      <trkpt lat="59.9743914" lon="17.7275898">
        <ele>28.0155</ele>
        <time>2013-03-08T17:53:39Z</time>
      </trkpt>
      <trkpt lat="59.9743909" lon="17.7275601">
        <ele>28.0155</ele>
        <time>2013-03-08T17:53:40Z</time>
      </trkpt>
      <trkpt lat="59.9743908" lon="17.727531">
        <ele>28.0155</ele>
        <time>2013-03-08T17:53:41Z</time>
      </trkpt>
      <trkpt lat="59.974391" lon="17.7275022">
        <ele>28.0155</ele>
        <time>2013-03-08T17:53:42Z</time>
      </trkpt>
      <trkpt lat="59.974391" lon="17.7274738">
        <ele>28.0155</ele>
        <time>2013-03-08T17:53:43Z</time>
      </trkpt>
      <trkpt lat="59.9743908" lon="17.7274453">
        <ele>28.0155</ele>
        <time>2013-03-08T17:53:44Z</time>
      </trkpt>
      <trkpt lat="59.97439" lon="17.7274156">
        <ele>27.5349</ele>
        <time>2013-03-08T17:53:45Z</time>
      </trkpt>
      <trkpt lat="59.9743891" lon="17.7273844">
        <ele>27.5349</ele>
        <time>2013-03-08T17:53:46Z</time>
      </trkpt>
      <trkpt lat="59.974388" lon="17.7273526">
        <ele>27.5349</ele>
        <time>2013-03-08T17:53:47Z</time>
      </trkpt>
      <trkpt lat="59.9743873" lon="17.7273209">
        <ele>27.5349</ele>
        <time>2013-03-08T17:53:48Z</time>
      </trkpt>
      <trkpt lat="59.9743862" lon="17.7272883">
        <ele>27.5349</ele>
        <time>2013-03-08T17:53:49Z</time>
      </trkpt>
      <trkpt lat="59.9743839" lon="17.7272557">
        <ele>28.0155</ele>
        <time>2013-03-08T17:53:50Z</time>
      </trkpt>
      <trkpt lat="59.9743818" lon="17.7272241">
        <ele>28.0155</ele>
        <time>2013-03-08T17:53:51Z</time>
      </trkpt>
      <trkpt lat="59.9743808" lon="17.7271952">
        <ele>28.0155</ele>
        <time>2013-03-08T17:53:52Z</time>
      </trkpt>
      <trkpt lat="59.9743795" lon="17.7271667">
        <ele>28.0155</ele>
        <time>2013-03-08T17:53:53Z</time>
      </trkpt>
      <trkpt lat="59.9743787" lon="17.7271391">
        <ele>28.4962</ele>
        <time>2013-03-08T17:53:54Z</time>
      </trkpt>
      <trkpt lat="59.9743781" lon="17.7271127">
        <ele>28.4962</ele>
        <time>2013-03-08T17:53:55Z</time>
      </trkpt>
      <trkpt lat="59.9743774" lon="17.7270859">
        <ele>28.4962</ele>
        <time>2013-03-08T17:53:56Z</time>
      </trkpt>
      <trkpt lat="59.974376" lon="17.7270567">
        <ele>28.4962</ele>
        <time>2013-03-08T17:53:57Z</time>
      </trkpt>
      <trkpt lat="59.9743753" lon="17.7270294">
        <ele>28.4962</ele>
        <time>2013-03-08T17:53:58Z</time>
      </trkpt>
      <trkpt lat="59.9743745" lon="17.7270018">
        <ele>28.0155</ele>
        <time>2013-03-08T17:53:59Z</time>
      </trkpt>
      <trkpt lat="59.9743743" lon="17.7269714">
        <ele>28.0155</ele>
        <time>2013-03-08T17:54:00Z</time>
      </trkpt>
      <trkpt lat="59.9743735" lon="17.7269417">
        <ele>28.0155</ele>
        <time>2013-03-08T17:54:01Z</time>
      </trkpt>
      <trkpt lat="59.9743729" lon="17.7269144">
        <ele>28.0155</ele>
        <time>2013-03-08T17:54:02Z</time>
      </trkpt>
      <trkpt lat="59.9743706" lon="17.7268862">
        <ele>28.0155</ele>
        <time>2013-03-08T17:54:03Z</time>
      </trkpt>
      <trkpt lat="59.9743679" lon="17.7268568">
        <ele>28.0155</ele>
        <time>2013-03-08T17:54:04Z</time>
      </trkpt>
      <trkpt lat="59.9743666" lon="17.7268289">
        <ele>28.0155</ele>
        <time>2013-03-08T17:54:05Z</time>
      </trkpt>
      <trkpt lat="59.9743649" lon="17.7267998">
        <ele>28.0155</ele>
        <time>2013-03-08T17:54:06Z</time>
      </trkpt>
      <trkpt lat="59.9743637" lon="17.7267719">
        <ele>28.0155</ele>
        <time>2013-03-08T17:54:07Z</time>
      </trkpt>
      <trkpt lat="59.9743618" lon="17.7267443">
        <ele>28.0155</ele>
        <time>2013-03-08T17:54:08Z</time>
      </trkpt>
      <trkpt lat="59.9743593" lon="17.7267154">
        <ele>28.0155</ele>
        <time>2013-03-08T17:54:09Z</time>
      </trkpt>
      <trkpt lat="59.9743572" lon="17.726686">
        <ele>28.0155</ele>
        <time>2013-03-08T17:54:10Z</time>
      </trkpt>
      <trkpt lat="59.9743556" lon="17.7266569">
        <ele>28.0155</ele>
        <time>2013-03-08T17:54:11Z</time>
      </trkpt>
      <trkpt lat="59.9743542" lon="17.7266271">
        <ele>28.0155</ele>
        <time>2013-03-08T17:54:12Z</time>
      </trkpt>
      <trkpt lat="59.9743526" lon="17.7265981">
        <ele>28.0155</ele>
        <time>2013-03-08T17:54:13Z</time>
      </trkpt>
      <trkpt lat="59.9743517" lon="17.7265703">
        <ele>28.0155</ele>
        <time>2013-03-08T17:54:14Z</time>
      </trkpt>
      <trkpt lat="59.9743512" lon="17.7265432">
        <ele>28.0155</ele>
        <time>2013-03-08T17:54:15Z</time>
      </trkpt>
      <trkpt lat="59.9743516" lon="17.726516">
        <ele>28.0155</ele>
        <time>2013-03-08T17:54:16Z</time>
      </trkpt>
      <trkpt lat="59.9743516" lon="17.7264883">
        <ele>28.0155</ele>
        <time>2013-03-08T17:54:17Z</time>
      </trkpt>
      <trkpt lat="59.9743517" lon="17.7264616">
        <ele>28.0155</ele>
        <time>2013-03-08T17:54:18Z</time>
      </trkpt>
      <trkpt lat="59.9743527" lon="17.7264373">
        <ele>28.0155</ele>
        <time>2013-03-08T17:54:19Z</time>
      </trkpt>
      <trkpt lat="59.9743522" lon="17.7264102">
        <ele>28.0155</ele>
        <time>2013-03-08T17:54:20Z</time>
      </trkpt>
      <trkpt lat="59.9743516" lon="17.7263863">
        <ele>28.0155</ele>
        <time>2013-03-08T17:54:21Z</time>
      </trkpt>
      <trkpt lat="59.9743512" lon="17.7263629">
        <ele>28.4962</ele>
        <time>2013-03-08T17:54:22Z</time>
      </trkpt>
      <trkpt lat="59.9743501" lon="17.7263387">
        <ele>28.4962</ele>
        <time>2013-03-08T17:54:23Z</time>
      </trkpt>
      <trkpt lat="59.9743494" lon="17.7263145">
        <ele>28.4962</ele>
        <time>2013-03-08T17:54:24Z</time>
      </trkpt>
      <trkpt lat="59.9743486" lon="17.7262866">
        <ele>28.9769</ele>
        <time>2013-03-08T17:54:25Z</time>
      </trkpt>
      <trkpt lat="59.9743475" lon="17.7262586">
        <ele>28.9769</ele>
        <time>2013-03-08T17:54:26Z</time>
      </trkpt>
      <trkpt lat="59.9743461" lon="17.7262301">
        <ele>28.9769</ele>
        <time>2013-03-08T17:54:27Z</time>
      </trkpt>
      <trkpt lat="59.9743448" lon="17.7261989">
        <ele>28.9769</ele>
        <time>2013-03-08T17:54:28Z</time>
      </trkpt>
      <trkpt lat="59.9743435" lon="17.7261699">
        <ele>28.9769</ele>
        <time>2013-03-08T17:54:29Z</time>
      </trkpt>
      <trkpt lat="59.9743425" lon="17.7261409">
        <ele>28.9769</ele>
        <time>2013-03-08T17:54:30Z</time>
      </trkpt>
      <trkpt lat="59.9743414" lon="17.7261119">
        <ele>28.9769</ele>
        <time>2013-03-08T17:54:31Z</time>
      </trkpt>
      <trkpt lat="59.9743399" lon="17.726084">
        <ele>28.9769</ele>
        <time>2013-03-08T17:54:32Z</time>
      </trkpt>
      <trkpt lat="59.974338" lon="17.7260538">
        <ele>28.9769</ele>
        <time>2013-03-08T17:54:33Z</time>
      </trkpt>
      <trkpt lat="59.9743356" lon="17.7260239">
        <ele>28.9769</ele>
        <time>2013-03-08T17:54:34Z</time>
      </trkpt>
      <trkpt lat="59.9743333" lon="17.7259943">
        <ele>28.9769</ele>
        <time>2013-03-08T17:54:35Z</time>
      </trkpt>
      <trkpt lat="59.9743319" lon="17.7259652">
        <ele>28.9769</ele>
        <time>2013-03-08T17:54:36Z</time>
      </trkpt>
      <trkpt lat="59.9743304" lon="17.7259361">
        <ele>28.9769</ele>
        <time>2013-03-08T17:54:37Z</time>
      </trkpt>
      <trkpt lat="59.9743293" lon="17.7259077">
        <ele>28.9769</ele>
        <time>2013-03-08T17:54:38Z</time>
      </trkpt>
      <trkpt lat="59.9743272" lon="17.7258786">
        <ele>28.4962</ele>
        <time>2013-03-08T17:54:39Z</time>
      </trkpt>
      <trkpt lat="59.9743242" lon="17.7258487">
        <ele>28.4962</ele>
        <time>2013-03-08T17:54:40Z</time>
      </trkpt>
      <trkpt lat="59.974322" lon="17.7258188">
        <ele>28.4962</ele>
        <time>2013-03-08T17:54:41Z</time>
      </trkpt>
      <trkpt lat="59.9743214" lon="17.7257908">
        <ele>28.4962</ele>
        <time>2013-03-08T17:54:42Z</time>
      </trkpt>
      <trkpt lat="59.9743214" lon="17.7257632">
        <ele>28.4962</ele>
        <time>2013-03-08T17:54:43Z</time>
      </trkpt>
      <trkpt lat="59.9743206" lon="17.7257354">
        <ele>28.4962</ele>
        <time>2013-03-08T17:54:44Z</time>
      </trkpt>
      <trkpt lat="59.9743186" lon="17.7257069">
        <ele>28.0155</ele>
        <time>2013-03-08T17:54:45Z</time>
      </trkpt>
      <trkpt lat="59.9743173" lon="17.7256789">
        <ele>28.0155</ele>
        <time>2013-03-08T17:54:46Z</time>
      </trkpt>
      <trkpt lat="59.9743157" lon="17.7256525">
        <ele>28.0155</ele>
        <time>2013-03-08T17:54:47Z</time>
      </trkpt>
      <trkpt lat="59.9743142" lon="17.7256271">
        <ele>28.0155</ele>
        <time>2013-03-08T17:54:48Z</time>
      </trkpt>
      <trkpt lat="59.9743113" lon="17.7256006">
        <ele>28.0155</ele>
        <time>2013-03-08T17:54:49Z</time>
      </trkpt>
      <trkpt lat="59.9743082" lon="17.7255731">
        <ele>28.0155</ele>
        <time>2013-03-08T17:54:50Z</time>
      </trkpt>
      <trkpt lat="59.974305" lon="17.7255442">
        <ele>28.0155</ele>
        <time>2013-03-08T17:54:51Z</time>
      </trkpt>
      <trkpt lat="59.9743014" lon="17.7255146">
        <ele>27.5349</ele>
        <time>2013-03-08T17:54:52Z</time>
      </trkpt>
      <trkpt lat="59.9742994" lon="17.7254878">
        <ele>27.5349</ele>
        <time>2013-03-08T17:54:53Z</time>
      </trkpt>
      <trkpt lat="59.9742978" lon="17.725464">
        <ele>27.5349</ele>
        <time>2013-03-08T17:54:54Z</time>
      </trkpt>
      <trkpt lat="59.9742964" lon="17.7254426">
        <ele>27.5349</ele>
        <time>2013-03-08T17:54:55Z</time>
      </trkpt>
      <trkpt lat="59.9742947" lon="17.7254204">
        <ele>27.5349</ele>
        <time>2013-03-08T17:54:56Z</time>
      </trkpt>
      <trkpt lat="59.9742922" lon="17.7253986">
        <ele>28.0155</ele>
        <time>2013-03-08T17:54:57Z</time>
      </trkpt>
      <trkpt lat="59.9742893" lon="17.7253754">
        <ele>28.0155</ele>
        <time>2013-03-08T17:54:58Z</time>
      </trkpt>
      <trkpt lat="59.9742855" lon="17.7253488">
        <ele>28.0155</ele>
        <time>2013-03-08T17:54:59Z</time>
      </trkpt>
      <trkpt lat="59.9742812" lon="17.7253191">
        <ele>28.0155</ele>
        <time>2013-03-08T17:55:00Z</time>
      </trkpt>
      <trkpt lat="59.9742772" lon="17.7252897">
        <ele>27.5349</ele>
        <time>2013-03-08T17:55:01Z</time>
      </trkpt>
      <trkpt lat="59.9742736" lon="17.7252619">
        <ele>27.5349</ele>
        <time>2013-03-08T17:55:02Z</time>
      </trkpt>
      <trkpt lat="59.9742707" lon="17.7252344">
        <ele>27.5349</ele>
        <time>2013-03-08T17:55:03Z</time>
      </trkpt>
      <trkpt lat="59.9742677" lon="17.7252073">
        <ele>27.5349</ele>
        <time>2013-03-08T17:55:04Z</time>
      </trkpt>
      <trkpt lat="59.9742636" lon="17.7251784">
        <ele>27.5349</ele>
        <time>2013-03-08T17:55:05Z</time>
      </trkpt>
      <trkpt lat="59.974259" lon="17.7251474">
        <ele>27.5349</ele>
        <time>2013-03-08T17:55:06Z</time>
      </trkpt>
      <trkpt lat="59.9742543" lon="17.7251163">
        <ele>27.5349</ele>
        <time>2013-03-08T17:55:07Z</time>
      </trkpt>
      <trkpt lat="59.9742501" lon="17.7250869">
        <ele>27.5349</ele>
        <time>2013-03-08T17:55:08Z</time>
      </trkpt>
      <trkpt lat="59.9742466" lon="17.7250586">
        <ele>27.5349</ele>
        <time>2013-03-08T17:55:09Z</time>
      </trkpt>
      <trkpt lat="59.9742448" lon="17.7250301">
        <ele>27.5349</ele>
        <time>2013-03-08T17:55:10Z</time>
      </trkpt>
      <trkpt lat="59.9742433" lon="17.7250028">
        <ele>27.5349</ele>
        <time>2013-03-08T17:55:11Z</time>
      </trkpt>
      <trkpt lat="59.9742413" lon="17.724976">
        <ele>27.5349</ele>
        <time>2013-03-08T17:55:12Z</time>
      </trkpt>
      <trkpt lat="59.9742385" lon="17.7249512">
        <ele>27.5349</ele>
        <time>2013-03-08T17:55:13Z</time>
      </trkpt>
      <trkpt lat="59.9742347" lon="17.7249291">
        <ele>27.5349</ele>
        <time>2013-03-08T17:55:14Z</time>
      </trkpt>
      <trkpt lat="59.9742309" lon="17.7249079">
        <ele>27.5349</ele>
        <time>2013-03-08T17:55:15Z</time>
      </trkpt>
      <trkpt lat="59.9742258" lon="17.7248833">
        <ele>27.5349</ele>
        <time>2013-03-08T17:55:16Z</time>
      </trkpt>
      <trkpt lat="59.9742215" lon="17.7248567">
        <ele>27.5349</ele>
        <time>2013-03-08T17:55:17Z</time>
      </trkpt>
      <trkpt lat="59.9742176" lon="17.7248302">
        <ele>27.5349</ele>
        <time>2013-03-08T17:55:18Z</time>
      </trkpt>
      <trkpt lat="59.9742134" lon="17.724803">
        <ele>27.5349</ele>
        <time>2013-03-08T17:55:19Z</time>
      </trkpt>
      <trkpt lat="59.9742092" lon="17.724777">
        <ele>27.5349</ele>
        <time>2013-03-08T17:55:20Z</time>
      </trkpt>
      <trkpt lat="59.9742051" lon="17.7247509">
        <ele>27.5349</ele>
        <time>2013-03-08T17:55:21Z</time>
      </trkpt>
      <trkpt lat="59.974202" lon="17.7247267">
        <ele>27.5349</ele>
        <time>2013-03-08T17:55:22Z</time>
      </trkpt>
      <trkpt lat="59.9741992" lon="17.7247037">
        <ele>27.5349</ele>
        <time>2013-03-08T17:55:23Z</time>
      </trkpt>
      <trkpt lat="59.9741963" lon="17.7246795">
        <ele>27.5349</ele>
        <time>2013-03-08T17:55:24Z</time>
      </trkpt>
      <trkpt lat="59.9741931" lon="17.7246548">
        <ele>27.5349</ele>
        <time>2013-03-08T17:55:25Z</time>
      </trkpt>
      <trkpt lat="59.974189" lon="17.7246278">
        <ele>27.5349</ele>
        <time>2013-03-08T17:55:26Z</time>
      </trkpt>
      <trkpt lat="59.9741852" lon="17.7246012">
        <ele>27.5349</ele>
        <time>2013-03-08T17:55:27Z</time>
      </trkpt>
      <trkpt lat="59.9741812" lon="17.7245744">
        <ele>27.5349</ele>
        <time>2013-03-08T17:55:28Z</time>
      </trkpt>
      <trkpt lat="59.9741769" lon="17.7245465">
        <ele>27.5349</ele>
        <time>2013-03-08T17:55:29Z</time>
      </trkpt>
      <trkpt lat="59.9741725" lon="17.7245175">
        <ele>27.5349</ele>
        <time>2013-03-08T17:55:30Z</time>
      </trkpt>
      <trkpt lat="59.9741682" lon="17.724489">
        <ele>27.5349</ele>
        <time>2013-03-08T17:55:31Z</time>
      </trkpt>
      <trkpt lat="59.9741641" lon="17.7244625">
        <ele>27.5349</ele>
        <time>2013-03-08T17:55:32Z</time>
      </trkpt>
      <trkpt lat="59.9741589" lon="17.724434">
        <ele>27.5349</ele>
        <time>2013-03-08T17:55:33Z</time>
      </trkpt>
      <trkpt lat="59.9741539" lon="17.7244059">
        <ele>27.5349</ele>
        <time>2013-03-08T17:55:34Z</time>
      </trkpt>
      <trkpt lat="59.9741492" lon="17.7243788">
        <ele>27.0543</ele>
        <time>2013-03-08T17:55:35Z</time>
      </trkpt>
      <trkpt lat="59.9741444" lon="17.724352">
        <ele>27.0543</ele>
        <time>2013-03-08T17:55:36Z</time>
      </trkpt>
      <trkpt lat="59.9741398" lon="17.7243252">
        <ele>27.0543</ele>
        <time>2013-03-08T17:55:37Z</time>
      </trkpt>
      <trkpt lat="59.9741357" lon="17.7242978">
        <ele>27.0543</ele>
        <time>2013-03-08T17:55:38Z</time>
      </trkpt>
      <trkpt lat="59.97413" lon="17.7242689">
        <ele>27.0543</ele>
        <time>2013-03-08T17:55:39Z</time>
      </trkpt>
      <trkpt lat="59.9741243" lon="17.7242399">
        <ele>27.0543</ele>
        <time>2013-03-08T17:55:40Z</time>
      </trkpt>
      <trkpt lat="59.9741196" lon="17.7242107">
        <ele>27.0543</ele>
        <time>2013-03-08T17:55:41Z</time>
      </trkpt>
      <trkpt lat="59.9741108" lon="17.7241759">
        <ele>27.5349</ele>
        <time>2013-03-08T17:55:42Z</time>
      </trkpt>
      <trkpt lat="59.9741026" lon="17.724144">
        <ele>28.0155</ele>
        <time>2013-03-08T17:55:43Z</time>
      </trkpt>
      <trkpt lat="59.9740989" lon="17.7241175">
        <ele>28.0155</ele>
        <time>2013-03-08T17:55:44Z</time>
      </trkpt>
      <trkpt lat="59.9740932" lon="17.7240863">
        <ele>28.0155</ele>
        <time>2013-03-08T17:55:45Z</time>
      </trkpt>
      <trkpt lat="59.9740885" lon="17.7240568">
        <ele>28.0155</ele>
        <time>2013-03-08T17:55:46Z</time>
      </trkpt>
      <trkpt lat="59.9740844" lon="17.7240278">
        <ele>28.0155</ele>
        <time>2013-03-08T17:55:47Z</time>
      </trkpt>
      <trkpt lat="59.9740798" lon="17.7239984">
        <ele>28.4962</ele>
        <time>2013-03-08T17:55:48Z</time>
      </trkpt>
      <trkpt lat="59.9740752" lon="17.7239699">
        <ele>28.0155</ele>
        <time>2013-03-08T17:55:49Z</time>
      </trkpt>
      <trkpt lat="59.9740699" lon="17.7239407">
        <ele>28.0155</ele>
        <time>2013-03-08T17:55:50Z</time>
      </trkpt>
      <trkpt lat="59.9740658" lon="17.7239148">
        <ele>28.4962</ele>
        <time>2013-03-08T17:55:51Z</time>
      </trkpt>
      <trkpt lat="59.9740622" lon="17.72389">
        <ele>28.4962</ele>
        <time>2013-03-08T17:55:52Z</time>
      </trkpt>
      <trkpt lat="59.9740589" lon="17.7238654">
        <ele>28.4962</ele>
        <time>2013-03-08T17:55:53Z</time>
      </trkpt>
      <trkpt lat="59.9740538" lon="17.7238369">
        <ele>28.4962</ele>
        <time>2013-03-08T17:55:54Z</time>
      </trkpt>
      <trkpt lat="59.9740503" lon="17.7238098">
        <ele>28.4962</ele>
        <time>2013-03-08T17:55:55Z</time>
      </trkpt>
      <trkpt lat="59.974049" lon="17.7237867">
        <ele>28.4962</ele>
        <time>2013-03-08T17:55:56Z</time>
      </trkpt>
      <trkpt lat="59.9740461" lon="17.7237636">
        <ele>28.9769</ele>
        <time>2013-03-08T17:55:57Z</time>
      </trkpt>
      <trkpt lat="59.9740407" lon="17.7237382">
        <ele>28.9769</ele>
        <time>2013-03-08T17:55:58Z</time>
      </trkpt>
      <trkpt lat="59.9740342" lon="17.7237113">
        <ele>29.4575</ele>
        <time>2013-03-08T17:55:59Z</time>
      </trkpt>
      <trkpt lat="59.97403" lon="17.7236866">
        <ele>29.4575</ele>
        <time>2013-03-08T17:56:00Z</time>
      </trkpt>
      <trkpt lat="59.9740257" lon="17.7236598">
        <ele>29.4575</ele>
        <time>2013-03-08T17:56:01Z</time>
      </trkpt>
      <trkpt lat="59.9740202" lon="17.72363">
        <ele>29.4575</ele>
        <time>2013-03-08T17:56:02Z</time>
      </trkpt>
      <trkpt lat="59.974016" lon="17.7236027">
        <ele>29.4575</ele>
        <time>2013-03-08T17:56:03Z</time>
      </trkpt>
      <trkpt lat="59.9740111" lon="17.7235763">
        <ele>29.4575</ele>
        <time>2013-03-08T17:56:04Z</time>
      </trkpt>
      <trkpt lat="59.9740082" lon="17.7235513">
        <ele>29.4575</ele>
        <time>2013-03-08T17:56:05Z</time>
      </trkpt>
      <trkpt lat="59.9740054" lon="17.723528">
        <ele>29.4575</ele>
        <time>2013-03-08T17:56:06Z</time>
      </trkpt>
      <trkpt lat="59.974001" lon="17.7235038">
        <ele>29.4575</ele>
        <time>2013-03-08T17:56:07Z</time>
      </trkpt>
      <trkpt lat="59.9739954" lon="17.7234776">
        <ele>29.4575</ele>
        <time>2013-03-08T17:56:08Z</time>
      </trkpt>
      <trkpt lat="59.973987" lon="17.7234478">
        <ele>29.4575</ele>
        <time>2013-03-08T17:56:09Z</time>
      </trkpt>
      <trkpt lat="59.9739803" lon="17.7234201">
        <ele>29.9381</ele>
        <time>2013-03-08T17:56:10Z</time>
      </trkpt>
      <trkpt lat="59.9739756" lon="17.7233942">
        <ele>29.4575</ele>
        <time>2013-03-08T17:56:11Z</time>
      </trkpt>
      <trkpt lat="59.9739711" lon="17.7233676">
        <ele>29.4575</ele>
        <time>2013-03-08T17:56:12Z</time>
      </trkpt>
      <trkpt lat="59.9739668" lon="17.7233419">
        <ele>29.4575</ele>
        <time>2013-03-08T17:56:13Z</time>
      </trkpt>
      <trkpt lat="59.9739623" lon="17.7233152">
        <ele>29.4575</ele>
        <time>2013-03-08T17:56:14Z</time>
      </trkpt>
      <trkpt lat="59.973958" lon="17.7232877">
        <ele>28.9769</ele>
        <time>2013-03-08T17:56:15Z</time>
      </trkpt>
      <trkpt lat="59.9739532" lon="17.7232608">
        <ele>28.9769</ele>
        <time>2013-03-08T17:56:16Z</time>
      </trkpt>
      <trkpt lat="59.9739485" lon="17.7232338">
        <ele>28.9769</ele>
        <time>2013-03-08T17:56:17Z</time>
      </trkpt>
      <trkpt lat="59.9739438" lon="17.723206">
        <ele>28.4962</ele>
        <time>2013-03-08T17:56:18Z</time>
      </trkpt>
      <trkpt lat="59.9739384" lon="17.7231785">
        <ele>28.4962</ele>
        <time>2013-03-08T17:56:19Z</time>
      </trkpt>
      <trkpt lat="59.9739326" lon="17.7231509">
        <ele>28.4962</ele>
        <time>2013-03-08T17:56:20Z</time>
      </trkpt>
      <trkpt lat="59.9739255" lon="17.7231228">
        <ele>28.4962</ele>
        <time>2013-03-08T17:56:21Z</time>
      </trkpt>
      <trkpt lat="59.9739191" lon="17.7230956">
        <ele>28.4962</ele>
        <time>2013-03-08T17:56:22Z</time>
      </trkpt>
      <trkpt lat="59.9739123" lon="17.7230707">
        <ele>28.4962</ele>
        <time>2013-03-08T17:56:23Z</time>
      </trkpt>
      <trkpt lat="59.9739046" lon="17.7230448">
        <ele>28.4962</ele>
        <time>2013-03-08T17:56:24Z</time>
      </trkpt>
      <trkpt lat="59.9738973" lon="17.7230164">
        <ele>28.4962</ele>
        <time>2013-03-08T17:56:25Z</time>
      </trkpt>
      <trkpt lat="59.9738897" lon="17.7229893">
        <ele>28.9769</ele>
        <time>2013-03-08T17:56:26Z</time>
      </trkpt>
      <trkpt lat="59.9738829" lon="17.7229636">
        <ele>28.9769</ele>
        <time>2013-03-08T17:56:27Z</time>
      </trkpt>
      <trkpt lat="59.9738772" lon="17.722939">
        <ele>28.9769</ele>
        <time>2013-03-08T17:56:28Z</time>
      </trkpt>
      <trkpt lat="59.9738711" lon="17.7229142">
        <ele>29.4575</ele>
        <time>2013-03-08T17:56:29Z</time>
      </trkpt>
      <trkpt lat="59.9738649" lon="17.7228895">
        <ele>29.4575</ele>
        <time>2013-03-08T17:56:30Z</time>
      </trkpt>
      <trkpt lat="59.9738601" lon="17.7228659">
        <ele>29.4575</ele>
        <time>2013-03-08T17:56:31Z</time>
      </trkpt>
      <trkpt lat="59.9738552" lon="17.7228403">
        <ele>29.4575</ele>
        <time>2013-03-08T17:56:32Z</time>
      </trkpt>
      <trkpt lat="59.9738518" lon="17.7228131">
        <ele>29.4575</ele>
        <time>2013-03-08T17:56:33Z</time>
      </trkpt>
      <trkpt lat="59.9738502" lon="17.7227843">
        <ele>29.4575</ele>
        <time>2013-03-08T17:56:34Z</time>
      </trkpt>
      <trkpt lat="59.9738477" lon="17.7227578">
        <ele>29.4575</ele>
        <time>2013-03-08T17:56:35Z</time>
      </trkpt>
      <trkpt lat="59.9738439" lon="17.7227341">
        <ele>29.4575</ele>
        <time>2013-03-08T17:56:36Z</time>
      </trkpt>
      <trkpt lat="59.9738379" lon="17.7227125">
        <ele>29.9381</ele>
        <time>2013-03-08T17:56:37Z</time>
      </trkpt>
      <trkpt lat="59.9738305" lon="17.7226924">
        <ele>29.9381</ele>
        <time>2013-03-08T17:56:38Z</time>
      </trkpt>
      <trkpt lat="59.9738224" lon="17.7226697">
        <ele>30.4188</ele>
        <time>2013-03-08T17:56:39Z</time>
      </trkpt>
      <trkpt lat="59.9738151" lon="17.7226459">
        <ele>30.4188</ele>
        <time>2013-03-08T17:56:40Z</time>
      </trkpt>
      <trkpt lat="59.9738089" lon="17.7226234">
        <ele>30.4188</ele>
        <time>2013-03-08T17:56:41Z</time>
      </trkpt>
      <trkpt lat="59.9738022" lon="17.7226008">
        <ele>30.4188</ele>
        <time>2013-03-08T17:56:42Z</time>
      </trkpt>
      <trkpt lat="59.9737947" lon="17.7225759">
        <ele>30.4188</ele>
        <time>2013-03-08T17:56:43Z</time>
      </trkpt>
      <trkpt lat="59.9737881" lon="17.7225501">
        <ele>30.4188</ele>
        <time>2013-03-08T17:56:44Z</time>
      </trkpt>
      <trkpt lat="59.9737811" lon="17.7225219">
        <ele>30.4188</ele>
        <time>2013-03-08T17:56:45Z</time>
      </trkpt>
      <trkpt lat="59.9737739" lon="17.7224955">
        <ele>30.8995</ele>
        <time>2013-03-08T17:56:46Z</time>
      </trkpt>
      <trkpt lat="59.9737672" lon="17.7224723">
        <ele>30.8995</ele>
        <time>2013-03-08T17:56:47Z</time>
      </trkpt>
      <trkpt lat="59.9737601" lon="17.7224471">
        <ele>30.8995</ele>
        <time>2013-03-08T17:56:48Z</time>
      </trkpt>
      <trkpt lat="59.9737517" lon="17.7224211">
        <ele>30.8995</ele>
        <time>2013-03-08T17:56:49Z</time>
      </trkpt>
      <trkpt lat="59.973743" lon="17.7223979">
        <ele>30.8995</ele>
        <time>2013-03-08T17:56:50Z</time>
      </trkpt>
      <trkpt lat="59.9737348" lon="17.7223734">
        <ele>30.8995</ele>
        <time>2013-03-08T17:56:51Z</time>
      </trkpt>
      <trkpt lat="59.973726" lon="17.7223499">
        <ele>30.8995</ele>
        <time>2013-03-08T17:56:52Z</time>
      </trkpt>
      <trkpt lat="59.9737171" lon="17.7223268">
        <ele>30.8995</ele>
        <time>2013-03-08T17:56:53Z</time>
      </trkpt>
      <trkpt lat="59.9737086" lon="17.7223045">
        <ele>31.3801</ele>
        <time>2013-03-08T17:56:54Z</time>
      </trkpt>
      <trkpt lat="59.9737003" lon="17.7222817">
        <ele>30.8995</ele>
        <time>2013-03-08T17:56:55Z</time>
      </trkpt>
      <trkpt lat="59.9736924" lon="17.7222589">
        <ele>31.3801</ele>
        <time>2013-03-08T17:56:56Z</time>
      </trkpt>
      <trkpt lat="59.9736845" lon="17.7222401">
        <ele>31.3801</ele>
        <time>2013-03-08T17:56:57Z</time>
      </trkpt>
      <trkpt lat="59.9736766" lon="17.7222179">
        <ele>31.3801</ele>
        <time>2013-03-08T17:56:58Z</time>
      </trkpt>
      <trkpt lat="59.973669" lon="17.7221921">
        <ele>31.3801</ele>
        <time>2013-03-08T17:56:59Z</time>
      </trkpt>
      <trkpt lat="59.9736617" lon="17.7221681">
        <ele>31.3801</ele>
        <time>2013-03-08T17:57:00Z</time>
      </trkpt>
      <trkpt lat="59.9736534" lon="17.7221459">
        <ele>31.3801</ele>
        <time>2013-03-08T17:57:01Z</time>
      </trkpt>
      <trkpt lat="59.9736451" lon="17.722123">
        <ele>31.8607</ele>
        <time>2013-03-08T17:57:02Z</time>
      </trkpt>
      <trkpt lat="59.9736385" lon="17.7220999">
        <ele>31.8607</ele>
        <time>2013-03-08T17:57:03Z</time>
      </trkpt>
      <trkpt lat="59.9736323" lon="17.722078">
        <ele>31.3801</ele>
        <time>2013-03-08T17:57:04Z</time>
      </trkpt>
      <trkpt lat="59.9736237" lon="17.722058">
        <ele>31.3801</ele>
        <time>2013-03-08T17:57:05Z</time>
      </trkpt>
      <trkpt lat="59.9736149" lon="17.7220367">
        <ele>31.3801</ele>
        <time>2013-03-08T17:57:06Z</time>
      </trkpt>
      <trkpt lat="59.9736067" lon="17.7220158">
        <ele>31.3801</ele>
        <time>2013-03-08T17:57:07Z</time>
      </trkpt>
      <trkpt lat="59.973599" lon="17.7219963">
        <ele>30.8995</ele>
        <time>2013-03-08T17:57:08Z</time>
      </trkpt>
      <trkpt lat="59.9735919" lon="17.7219771">
        <ele>30.8995</ele>
        <time>2013-03-08T17:57:09Z</time>
      </trkpt>
      <trkpt lat="59.9735848" lon="17.7219581">
        <ele>30.8995</ele>
        <time>2013-03-08T17:57:10Z</time>
      </trkpt>
      <trkpt lat="59.9735779" lon="17.7219383">
        <ele>30.8995</ele>
        <time>2013-03-08T17:57:11Z</time>
      </trkpt>
      <trkpt lat="59.9735712" lon="17.721918">
        <ele>30.4188</ele>
        <time>2013-03-08T17:57:12Z</time>
      </trkpt>
      <trkpt lat="59.9735643" lon="17.7218978">
        <ele>30.4188</ele>
        <time>2013-03-08T17:57:13Z</time>
      </trkpt>
      <trkpt lat="59.9735565" lon="17.7218786">
        <ele>30.4188</ele>
        <time>2013-03-08T17:57:14Z</time>
      </trkpt>
      <trkpt lat="59.9735486" lon="17.7218596">
        <ele>30.4188</ele>
        <time>2013-03-08T17:57:15Z</time>
      </trkpt>
      <trkpt lat="59.9735408" lon="17.7218407">
        <ele>29.9381</ele>
        <time>2013-03-08T17:57:16Z</time>
      </trkpt>
      <trkpt lat="59.9735328" lon="17.7218221">
        <ele>29.9381</ele>
        <time>2013-03-08T17:57:17Z</time>
      </trkpt>
      <trkpt lat="59.9735253" lon="17.7218016">
        <ele>29.9381</ele>
        <time>2013-03-08T17:57:18Z</time>
      </trkpt>
      <trkpt lat="59.9735181" lon="17.7217798">
        <ele>29.9381</ele>
        <time>2013-03-08T17:57:19Z</time>
      </trkpt>
      <trkpt lat="59.9735099" lon="17.7217587">
        <ele>29.4575</ele>
        <time>2013-03-08T17:57:20Z</time>
      </trkpt>
      <trkpt lat="59.973501" lon="17.7217399">
        <ele>29.4575</ele>
        <time>2013-03-08T17:57:21Z</time>
      </trkpt>
      <trkpt lat="59.9734922" lon="17.7217207">
        <ele>29.4575</ele>
        <time>2013-03-08T17:57:22Z</time>
      </trkpt>
      <trkpt lat="59.9734834" lon="17.7217025">
        <ele>28.9769</ele>
        <time>2013-03-08T17:57:23Z</time>
      </trkpt>
      <trkpt lat="59.9734743" lon="17.7216855">
        <ele>28.9769</ele>
        <time>2013-03-08T17:57:24Z</time>
      </trkpt>
      <trkpt lat="59.9734653" lon="17.7216654">
        <ele>28.9769</ele>
        <time>2013-03-08T17:57:25Z</time>
      </trkpt>
      <trkpt lat="59.9734561" lon="17.7216436">
        <ele>28.9769</ele>
        <time>2013-03-08T17:57:26Z</time>
      </trkpt>
      <trkpt lat="59.9734468" lon="17.7216223">
        <ele>28.4962</ele>
        <time>2013-03-08T17:57:27Z</time>
      </trkpt>
      <trkpt lat="59.9734373" lon="17.7216026">
        <ele>28.4962</ele>
        <time>2013-03-08T17:57:28Z</time>
      </trkpt>
      <trkpt lat="59.9734276" lon="17.7215823">
        <ele>28.4962</ele>
        <time>2013-03-08T17:57:29Z</time>
      </trkpt>
      <trkpt lat="59.9734181" lon="17.7215607">
        <ele>28.4962</ele>
        <time>2013-03-08T17:57:30Z</time>
      </trkpt>
      <trkpt lat="59.9734087" lon="17.7215397">
        <ele>28.4962</ele>
        <time>2013-03-08T17:57:31Z</time>
      </trkpt>
      <trkpt lat="59.9733996" lon="17.721519">
        <ele>28.4962</ele>
        <time>2013-03-08T17:57:32Z</time>
      </trkpt>
      <trkpt lat="59.9733908" lon="17.721498">
        <ele>28.4962</ele>
        <time>2013-03-08T17:57:33Z</time>
      </trkpt>
      <trkpt lat="59.9733813" lon="17.7214774">
        <ele>28.4962</ele>
        <time>2013-03-08T17:57:34Z</time>
      </trkpt>
      <trkpt lat="59.973371" lon="17.7214571">
        <ele>28.4962</ele>
        <time>2013-03-08T17:57:35Z</time>
      </trkpt>
      <trkpt lat="59.9733603" lon="17.7214379">
        <ele>28.4962</ele>
        <time>2013-03-08T17:57:36Z</time>
      </trkpt>
      <trkpt lat="59.9733493" lon="17.7214199">
        <ele>28.4962</ele>
        <time>2013-03-08T17:57:37Z</time>
      </trkpt>
      <trkpt lat="59.9733382" lon="17.7214016">
        <ele>28.9769</ele>
        <time>2013-03-08T17:57:38Z</time>
      </trkpt>
      <trkpt lat="59.9733274" lon="17.7213835">
        <ele>28.9769</ele>
        <time>2013-03-08T17:57:39Z</time>
      </trkpt>
      <trkpt lat="59.9733168" lon="17.7213642">
        <ele>28.9769</ele>
        <time>2013-03-08T17:57:40Z</time>
      </trkpt>
      <trkpt lat="59.9733065" lon="17.7213446">
        <ele>28.9769</ele>
        <time>2013-03-08T17:57:41Z</time>
      </trkpt>
      <trkpt lat="59.9732961" lon="17.7213249">
        <ele>28.9769</ele>
        <time>2013-03-08T17:57:42Z</time>
      </trkpt>
      <trkpt lat="59.9732861" lon="17.7213048">
        <ele>28.9769</ele>
        <time>2013-03-08T17:57:43Z</time>
      </trkpt>
      <trkpt lat="59.9732763" lon="17.7212835">
        <ele>28.9769</ele>
        <time>2013-03-08T17:57:44Z</time>
      </trkpt>
      <trkpt lat="59.9732674" lon="17.7212619">
        <ele>29.4575</ele>
        <time>2013-03-08T17:57:45Z</time>
      </trkpt>
      <trkpt lat="59.9732583" lon="17.7212411">
        <ele>29.4575</ele>
        <time>2013-03-08T17:57:46Z</time>
      </trkpt>
      <trkpt lat="59.9732488" lon="17.7212206">
        <ele>29.4575</ele>
        <time>2013-03-08T17:57:47Z</time>
      </trkpt>
      <trkpt lat="59.973239" lon="17.7212017">
        <ele>29.4575</ele>
        <time>2013-03-08T17:57:48Z</time>
      </trkpt>
      <trkpt lat="59.9732286" lon="17.7211836">
        <ele>29.4575</ele>
        <time>2013-03-08T17:57:49Z</time>
      </trkpt>
      <trkpt lat="59.9732186" lon="17.7211657">
        <ele>29.4575</ele>
        <time>2013-03-08T17:57:50Z</time>
      </trkpt>
      <trkpt lat="59.9732091" lon="17.7211469">
        <ele>29.4575</ele>
        <time>2013-03-08T17:57:51Z</time>
      </trkpt>
      <trkpt lat="59.9731995" lon="17.7211284">
        <ele>29.4575</ele>
        <time>2013-03-08T17:57:52Z</time>
      </trkpt>
      <trkpt lat="59.9731892" lon="17.7211099">
        <ele>29.4575</ele>
        <time>2013-03-08T17:57:53Z</time>
      </trkpt>
      <trkpt lat="59.9731782" lon="17.7210908">
        <ele>29.4575</ele>
        <time>2013-03-08T17:57:54Z</time>
      </trkpt>
      <trkpt lat="59.9731669" lon="17.721072">
        <ele>29.4575</ele>
        <time>2013-03-08T17:57:55Z</time>
      </trkpt>
      <trkpt lat="59.9731555" lon="17.7210534">
        <ele>29.4575</ele>
        <time>2013-03-08T17:57:56Z</time>
      </trkpt>
      <trkpt lat="59.9731445" lon="17.7210344">
        <ele>29.9381</ele>
        <time>2013-03-08T17:57:57Z</time>
      </trkpt>
      <trkpt lat="59.9731336" lon="17.7210152">
        <ele>29.9381</ele>
        <time>2013-03-08T17:57:58Z</time>
      </trkpt>
      <trkpt lat="59.9731219" lon="17.7209971">
        <ele>29.9381</ele>
        <time>2013-03-08T17:57:59Z</time>
      </trkpt>
      <trkpt lat="59.9731103" lon="17.7209793">
        <ele>29.9381</ele>
        <time>2013-03-08T17:58:00Z</time>
      </trkpt>
      <trkpt lat="59.9730985" lon="17.7209611">
        <ele>29.9381</ele>
        <time>2013-03-08T17:58:01Z</time>
      </trkpt>
      <trkpt lat="59.9730867" lon="17.7209436">
        <ele>29.9381</ele>
        <time>2013-03-08T17:58:02Z</time>
      </trkpt>
      <trkpt lat="59.9730749" lon="17.7209261">
        <ele>29.9381</ele>
        <time>2013-03-08T17:58:03Z</time>
      </trkpt>
      <trkpt lat="59.9730634" lon="17.7209085">
        <ele>29.9381</ele>
        <time>2013-03-08T17:58:04Z</time>
      </trkpt>
      <trkpt lat="59.973052" lon="17.7208914">
        <ele>29.9381</ele>
        <time>2013-03-08T17:58:05Z</time>
      </trkpt>
      <trkpt lat="59.9730404" lon="17.7208743">
        <ele>29.9381</ele>
        <time>2013-03-08T17:58:06Z</time>
      </trkpt>
      <trkpt lat="59.9730285" lon="17.7208577">
        <ele>29.9381</ele>
        <time>2013-03-08T17:58:07Z</time>
      </trkpt>
      <trkpt lat="59.9730167" lon="17.720842">
        <ele>29.9381</ele>
        <time>2013-03-08T17:58:08Z</time>
      </trkpt>
      <trkpt lat="59.973005" lon="17.7208251">
        <ele>29.9381</ele>
        <time>2013-03-08T17:58:09Z</time>
      </trkpt>
      <trkpt lat="59.9729936" lon="17.7208075">
        <ele>30.4188</ele>
        <time>2013-03-08T17:58:10Z</time>
      </trkpt>
      <trkpt lat="59.972982" lon="17.7207914">
        <ele>30.4188</ele>
        <time>2013-03-08T17:58:11Z</time>
      </trkpt>
      <trkpt lat="59.9729702" lon="17.7207765">
        <ele>30.4188</ele>
        <time>2013-03-08T17:58:12Z</time>
      </trkpt>
      <trkpt lat="59.9729581" lon="17.7207638">
        <ele>30.4188</ele>
        <time>2013-03-08T17:58:13Z</time>
      </trkpt>
      <trkpt lat="59.9729454" lon="17.7207514">
        <ele>30.4188</ele>
        <time>2013-03-08T17:58:14Z</time>
      </trkpt>
      <trkpt lat="59.9729329" lon="17.7207375">
        <ele>30.4188</ele>
        <time>2013-03-08T17:58:15Z</time>
      </trkpt>
      <trkpt lat="59.9729204" lon="17.720723">
        <ele>30.4188</ele>
        <time>2013-03-08T17:58:16Z</time>
      </trkpt>
      <trkpt lat="59.972908" lon="17.7207095">
        <ele>30.4188</ele>
        <time>2013-03-08T17:58:17Z</time>
      </trkpt>
      <trkpt lat="59.9728957" lon="17.7206952">
        <ele>30.4188</ele>
        <time>2013-03-08T17:58:18Z</time>
      </trkpt>
      <trkpt lat="59.9728836" lon="17.7206805">
        <ele>30.4188</ele>
        <time>2013-03-08T17:58:19Z</time>
      </trkpt>
      <trkpt lat="59.9728716" lon="17.7206656">
        <ele>30.4188</ele>
        <time>2013-03-08T17:58:20Z</time>
      </trkpt>
      <trkpt lat="59.9728591" lon="17.7206506">
        <ele>30.8995</ele>
        <time>2013-03-08T17:58:21Z</time>
      </trkpt>
      <trkpt lat="59.9728463" lon="17.7206369">
        <ele>30.8995</ele>
        <time>2013-03-08T17:58:22Z</time>
      </trkpt>
      <trkpt lat="59.9728338" lon="17.7206235">
        <ele>30.8995</ele>
        <time>2013-03-08T17:58:23Z</time>
      </trkpt>
      <trkpt lat="59.972821" lon="17.7206104">
        <ele>30.8995</ele>
        <time>2013-03-08T17:58:24Z</time>
      </trkpt>
      <trkpt lat="59.972808" lon="17.7205975">
        <ele>30.8995</ele>
        <time>2013-03-08T17:58:25Z</time>
      </trkpt>
      <trkpt lat="59.9727954" lon="17.7205842">
        <ele>30.8995</ele>
        <time>2013-03-08T17:58:26Z</time>
      </trkpt>
      <trkpt lat="59.9727831" lon="17.7205703">
        <ele>30.8995</ele>
        <time>2013-03-08T17:58:27Z</time>
      </trkpt>
      <trkpt lat="59.9727712" lon="17.7205562">
        <ele>30.8995</ele>
        <time>2013-03-08T17:58:28Z</time>
      </trkpt>
      <trkpt lat="59.9727589" lon="17.7205433">
        <ele>30.8995</ele>
        <time>2013-03-08T17:58:29Z</time>
      </trkpt>
      <trkpt lat="59.9727462" lon="17.7205309">
        <ele>30.8995</ele>
        <time>2013-03-08T17:58:30Z</time>
      </trkpt>
      <trkpt lat="59.9727334" lon="17.7205179">
        <ele>30.8995</ele>
        <time>2013-03-08T17:58:31Z</time>
      </trkpt>
      <trkpt lat="59.972721" lon="17.720505">
        <ele>30.8995</ele>
        <time>2013-03-08T17:58:32Z</time>
      </trkpt>
      <trkpt lat="59.9727089" lon="17.720492">
        <ele>30.8995</ele>
        <time>2013-03-08T17:58:33Z</time>
      </trkpt>
      <trkpt lat="59.972697" lon="17.7204779">
        <ele>30.8995</ele>
        <time>2013-03-08T17:58:34Z</time>
      </trkpt>
      <trkpt lat="59.9726858" lon="17.720462">
        <ele>30.8995</ele>
        <time>2013-03-08T17:58:35Z</time>
      </trkpt>
      <trkpt lat="59.9726748" lon="17.720447">
        <ele>30.8995</ele>
        <time>2013-03-08T17:58:36Z</time>
      </trkpt>
      <trkpt lat="59.972663" lon="17.720434">
        <ele>30.8995</ele>
        <time>2013-03-08T17:58:37Z</time>
      </trkpt>
      <trkpt lat="59.9726508" lon="17.7204214">
        <ele>30.8995</ele>
        <time>2013-03-08T17:58:38Z</time>
      </trkpt>
      <trkpt lat="59.9726384" lon="17.7204081">
        <ele>30.8995</ele>
        <time>2013-03-08T17:58:39Z</time>
      </trkpt>
      <trkpt lat="59.9726258" lon="17.7203958">
        <ele>30.8995</ele>
        <time>2013-03-08T17:58:40Z</time>
      </trkpt>
      <trkpt lat="59.9726143" lon="17.7203841">
        <ele>30.8995</ele>
        <time>2013-03-08T17:58:41Z</time>
      </trkpt>
      <trkpt lat="59.9726022" lon="17.7203732">
        <ele>31.3801</ele>
        <time>2013-03-08T17:58:42Z</time>
      </trkpt>
      <trkpt lat="59.9725889" lon="17.7203621">
        <ele>31.3801</ele>
        <time>2013-03-08T17:58:43Z</time>
      </trkpt>
      <trkpt lat="59.9725764" lon="17.720349">
        <ele>30.8995</ele>
        <time>2013-03-08T17:58:44Z</time>
      </trkpt>
      <trkpt lat="59.9725644" lon="17.720336">
        <ele>30.8995</ele>
        <time>2013-03-08T17:58:45Z</time>
      </trkpt>
      <trkpt lat="59.9725524" lon="17.7203236">
        <ele>30.8995</ele>
        <time>2013-03-08T17:58:46Z</time>
      </trkpt>
      <trkpt lat="59.9725405" lon="17.7203103">
        <ele>30.8995</ele>
        <time>2013-03-08T17:58:47Z</time>
      </trkpt>
      <trkpt lat="59.9725283" lon="17.7202971">
        <ele>30.8995</ele>
        <time>2013-03-08T17:58:48Z</time>
      </trkpt>
      <trkpt lat="59.9725158" lon="17.7202838">
        <ele>30.8995</ele>
        <time>2013-03-08T17:58:49Z</time>
      </trkpt>
      <trkpt lat="59.9725034" lon="17.7202708">
        <ele>30.8995</ele>
        <time>2013-03-08T17:58:50Z</time>
      </trkpt>
      <trkpt lat="59.972491" lon="17.7202577">
        <ele>30.8995</ele>
        <time>2013-03-08T17:58:51Z</time>
      </trkpt>
      <trkpt lat="59.9724786" lon="17.7202454">
        <ele>30.8995</ele>
        <time>2013-03-08T17:58:52Z</time>
      </trkpt>
      <trkpt lat="59.9724538" lon="17.7202212">
        <ele>30.8995</ele>
        <time>2013-03-08T17:58:54Z</time>
      </trkpt>
      <trkpt lat="59.9724414" lon="17.7202092">
        <ele>30.8995</ele>
        <time>2013-03-08T17:58:55Z</time>
      </trkpt>
      <trkpt lat="59.9724292" lon="17.7201981">
        <ele>30.8995</ele>
        <time>2013-03-08T17:58:56Z</time>
      </trkpt>
      <trkpt lat="59.9724164" lon="17.7201868">
        <ele>30.8995</ele>
        <time>2013-03-08T17:58:57Z</time>
      </trkpt>
      <trkpt lat="59.9724039" lon="17.7201748">
        <ele>30.8995</ele>
        <time>2013-03-08T17:58:58Z</time>
      </trkpt>
      <trkpt lat="59.9723918" lon="17.7201634">
        <ele>30.8995</ele>
        <time>2013-03-08T17:58:59Z</time>
      </trkpt>
      <trkpt lat="59.9723792" lon="17.7201516">
        <ele>30.8995</ele>
        <time>2013-03-08T17:59:00Z</time>
      </trkpt>
      <trkpt lat="59.9723667" lon="17.7201393">
        <ele>30.8995</ele>
        <time>2013-03-08T17:59:01Z</time>
      </trkpt>
      <trkpt lat="59.9723538" lon="17.7201278">
        <ele>30.8995</ele>
        <time>2013-03-08T17:59:02Z</time>
      </trkpt>
      <trkpt lat="59.9723408" lon="17.7201159">
        <ele>30.8995</ele>
        <time>2013-03-08T17:59:03Z</time>
      </trkpt>
      <trkpt lat="59.9723277" lon="17.7201041">
        <ele>30.8995</ele>
        <time>2013-03-08T17:59:04Z</time>
      </trkpt>
      <trkpt lat="59.972315" lon="17.7200932">
        <ele>30.8995</ele>
        <time>2013-03-08T17:59:05Z</time>
      </trkpt>
      <trkpt lat="59.9723024" lon="17.7200819">
        <ele>30.8995</ele>
        <time>2013-03-08T17:59:06Z</time>
      </trkpt>
      <trkpt lat="59.9722901" lon="17.7200693">
        <ele>30.8995</ele>
        <time>2013-03-08T17:59:07Z</time>
      </trkpt>
      <trkpt lat="59.9722777" lon="17.7200562">
        <ele>30.8995</ele>
        <time>2013-03-08T17:59:08Z</time>
      </trkpt>
      <trkpt lat="59.9722655" lon="17.7200428">
        <ele>30.8995</ele>
        <time>2013-03-08T17:59:09Z</time>
      </trkpt>
      <trkpt lat="59.9722532" lon="17.7200311">
        <ele>30.8995</ele>
        <time>2013-03-08T17:59:10Z</time>
      </trkpt>
      <trkpt lat="59.9722407" lon="17.7200204">
        <ele>30.8995</ele>
        <time>2013-03-08T17:59:11Z</time>
      </trkpt>
      <trkpt lat="59.9722278" lon="17.7200083">
        <ele>30.8995</ele>
        <time>2013-03-08T17:59:12Z</time>
      </trkpt>
      <trkpt lat="59.9722154" lon="17.7199951">
        <ele>30.8995</ele>
        <time>2013-03-08T17:59:13Z</time>
      </trkpt>
      <trkpt lat="59.9722025" lon="17.7199807">
        <ele>30.8995</ele>
        <time>2013-03-08T17:59:14Z</time>
      </trkpt>
      <trkpt lat="59.9721904" lon="17.7199679">
        <ele>30.8995</ele>
        <time>2013-03-08T17:59:15Z</time>
      </trkpt>
      <trkpt lat="59.9721784" lon="17.7199567">
        <ele>30.4188</ele>
        <time>2013-03-08T17:59:16Z</time>
      </trkpt>
      <trkpt lat="59.9721652" lon="17.719945">
        <ele>30.4188</ele>
        <time>2013-03-08T17:59:17Z</time>
      </trkpt>
      <trkpt lat="59.9721521" lon="17.7199332">
        <ele>30.4188</ele>
        <time>2013-03-08T17:59:18Z</time>
      </trkpt>
      <trkpt lat="59.9721393" lon="17.7199202">
        <ele>30.4188</ele>
        <time>2013-03-08T17:59:19Z</time>
      </trkpt>
      <trkpt lat="59.9721267" lon="17.7199072">
        <ele>30.4188</ele>
        <time>2013-03-08T17:59:20Z</time>
      </trkpt>
      <trkpt lat="59.9721135" lon="17.7198958">
        <ele>30.4188</ele>
        <time>2013-03-08T17:59:21Z</time>
      </trkpt>
      <trkpt lat="59.9721002" lon="17.7198854">
        <ele>30.8995</ele>
        <time>2013-03-08T17:59:22Z</time>
      </trkpt>
      <trkpt lat="59.9720868" lon="17.7198738">
        <ele>30.8995</ele>
        <time>2013-03-08T17:59:23Z</time>
      </trkpt>
      <trkpt lat="59.9720735" lon="17.7198611">
        <ele>30.8995</ele>
        <time>2013-03-08T17:59:24Z</time>
      </trkpt>
      <trkpt lat="59.9720608" lon="17.7198485">
        <ele>30.4188</ele>
        <time>2013-03-08T17:59:25Z</time>
      </trkpt>
      <trkpt lat="59.972048" lon="17.7198372">
        <ele>30.4188</ele>
        <time>2013-03-08T17:59:26Z</time>
      </trkpt>
      <trkpt lat="59.9720349" lon="17.7198258">
        <ele>30.4188</ele>
        <time>2013-03-08T17:59:27Z</time>
      </trkpt>
      <trkpt lat="59.972022" lon="17.7198133">
        <ele>30.4188</ele>
        <time>2013-03-08T17:59:28Z</time>
      </trkpt>
      <trkpt lat="59.9720092" lon="17.719801">
        <ele>30.4188</ele>
        <time>2013-03-08T17:59:29Z</time>
      </trkpt>
      <trkpt lat="59.9719963" lon="17.7197886">
        <ele>30.4188</ele>
        <time>2013-03-08T17:59:30Z</time>
      </trkpt>
      <trkpt lat="59.9719828" lon="17.7197766">
        <ele>30.4188</ele>
        <time>2013-03-08T17:59:31Z</time>
      </trkpt>
      <trkpt lat="59.9719699" lon="17.7197651">
        <ele>30.4188</ele>
        <time>2013-03-08T17:59:32Z</time>
      </trkpt>
      <trkpt lat="59.9719565" lon="17.7197537">
        <ele>30.4188</ele>
        <time>2013-03-08T17:59:33Z</time>
      </trkpt>
      <trkpt lat="59.9719436" lon="17.7197419">
        <ele>30.4188</ele>
        <time>2013-03-08T17:59:34Z</time>
      </trkpt>
      <trkpt lat="59.9719309" lon="17.7197298">
        <ele>30.4188</ele>
        <time>2013-03-08T17:59:35Z</time>
      </trkpt>
      <trkpt lat="59.9719181" lon="17.7197179">
        <ele>30.4188</ele>
        <time>2013-03-08T17:59:36Z</time>
      </trkpt>
      <trkpt lat="59.971905" lon="17.7197065">
        <ele>30.4188</ele>
        <time>2013-03-08T17:59:37Z</time>
      </trkpt>
      <trkpt lat="59.9718917" lon="17.7196948">
        <ele>30.4188</ele>
        <time>2013-03-08T17:59:38Z</time>
      </trkpt>
      <trkpt lat="59.9718786" lon="17.7196824">
        <ele>30.4188</ele>
        <time>2013-03-08T17:59:39Z</time>
      </trkpt>
      <trkpt lat="59.9718656" lon="17.7196711">
        <ele>30.4188</ele>
        <time>2013-03-08T17:59:40Z</time>
      </trkpt>
      <trkpt lat="59.9718528" lon="17.7196596">
        <ele>30.4188</ele>
        <time>2013-03-08T17:59:41Z</time>
      </trkpt>
      <trkpt lat="59.9718418" lon="17.7196476">
        <ele>30.4188</ele>
        <time>2013-03-08T17:59:42Z</time>
      </trkpt>
      <trkpt lat="59.9718306" lon="17.7196357">
        <ele>30.4188</ele>
        <time>2013-03-08T17:59:43Z</time>
      </trkpt>
      <trkpt lat="59.9718176" lon="17.7196243">
        <ele>30.4188</ele>
        <time>2013-03-08T17:59:44Z</time>
      </trkpt>
      <trkpt lat="59.9718045" lon="17.7196133">
        <ele>30.4188</ele>
        <time>2013-03-08T17:59:45Z</time>
      </trkpt>
      <trkpt lat="59.9717921" lon="17.7196011">
        <ele>30.4188</ele>
        <time>2013-03-08T17:59:46Z</time>
      </trkpt>
      <trkpt lat="59.9717797" lon="17.719589">
        <ele>30.4188</ele>
        <time>2013-03-08T17:59:47Z</time>
      </trkpt>
      <trkpt lat="59.9717668" lon="17.7195772">
        <ele>30.4188</ele>
        <time>2013-03-08T17:59:48Z</time>
      </trkpt>
      <trkpt lat="59.971755" lon="17.7195642">
        <ele>30.4188</ele>
        <time>2013-03-08T17:59:49Z</time>
      </trkpt>
      <trkpt lat="59.9717425" lon="17.7195525">
        <ele>30.4188</ele>
        <time>2013-03-08T17:59:50Z</time>
      </trkpt>
      <trkpt lat="59.9717306" lon="17.7195413">
        <ele>30.4188</ele>
        <time>2013-03-08T17:59:51Z</time>
      </trkpt>
      <trkpt lat="59.971718" lon="17.7195301">
        <ele>30.4188</ele>
        <time>2013-03-08T17:59:52Z</time>
      </trkpt>
      <trkpt lat="59.9717055" lon="17.7195186">
        <ele>30.4188</ele>
        <time>2013-03-08T17:59:53Z</time>
      </trkpt>
      <trkpt lat="59.9716933" lon="17.7195074">
        <ele>30.4188</ele>
        <time>2013-03-08T17:59:54Z</time>
      </trkpt>
      <trkpt lat="59.9716799" lon="17.719497">
        <ele>30.4188</ele>
        <time>2013-03-08T17:59:55Z</time>
      </trkpt>
      <trkpt lat="59.9716656" lon="17.7194872">
        <ele>30.4188</ele>
        <time>2013-03-08T17:59:56Z</time>
      </trkpt>
      <trkpt lat="59.9716514" lon="17.7194765">
        <ele>30.4188</ele>
        <time>2013-03-08T17:59:57Z</time>
      </trkpt>
      <trkpt lat="59.9716387" lon="17.7194637">
        <ele>30.4188</ele>
        <time>2013-03-08T17:59:58Z</time>
      </trkpt>
      <trkpt lat="59.9716262" lon="17.7194507">
        <ele>30.4188</ele>
        <time>2013-03-08T17:59:59Z</time>
      </trkpt>
      <trkpt lat="59.971614" lon="17.7194373">
        <ele>30.4188</ele>
        <time>2013-03-08T18:00:00Z</time>
      </trkpt>
      <trkpt lat="59.9716016" lon="17.7194254">
        <ele>30.4188</ele>
        <time>2013-03-08T18:00:01Z</time>
      </trkpt>
      <trkpt lat="59.9715881" lon="17.7194156">
        <ele>30.8995</ele>
        <time>2013-03-08T18:00:02Z</time>
      </trkpt>
      <trkpt lat="59.9715744" lon="17.7194063">
        <ele>30.8995</ele>
        <time>2013-03-08T18:00:03Z</time>
      </trkpt>
      <trkpt lat="59.9715606" lon="17.7193971">
        <ele>30.8995</ele>
        <time>2013-03-08T18:00:04Z</time>
      </trkpt>
      <trkpt lat="59.9715467" lon="17.7193887">
        <ele>30.8995</ele>
        <time>2013-03-08T18:00:05Z</time>
      </trkpt>
      <trkpt lat="59.9715332" lon="17.71938">
        <ele>30.8995</ele>
        <time>2013-03-08T18:00:06Z</time>
      </trkpt>
      <trkpt lat="59.97152" lon="17.719369">
        <ele>30.8995</ele>
        <time>2013-03-08T18:00:07Z</time>
      </trkpt>
      <trkpt lat="59.9715068" lon="17.7193584">
        <ele>30.8995</ele>
        <time>2013-03-08T18:00:08Z</time>
      </trkpt>
      <trkpt lat="59.9714928" lon="17.7193506">
        <ele>30.8995</ele>
        <time>2013-03-08T18:00:09Z</time>
      </trkpt>
      <trkpt lat="59.9714789" lon="17.7193414">
        <ele>30.8995</ele>
        <time>2013-03-08T18:00:10Z</time>
      </trkpt>
      <trkpt lat="59.9714677" lon="17.7193297">
        <ele>31.3801</ele>
        <time>2013-03-08T18:00:11Z</time>
      </trkpt>
      <trkpt lat="59.9714574" lon="17.7193185">
        <ele>31.3801</ele>
        <time>2013-03-08T18:00:12Z</time>
      </trkpt>
      <trkpt lat="59.9714456" lon="17.7193077">
        <ele>31.3801</ele>
        <time>2013-03-08T18:00:13Z</time>
      </trkpt>
      <trkpt lat="59.9714338" lon="17.7192964">
        <ele>31.3801</ele>
        <time>2013-03-08T18:00:14Z</time>
      </trkpt>
      <trkpt lat="59.9714223" lon="17.719284">
        <ele>31.3801</ele>
        <time>2013-03-08T18:00:15Z</time>
      </trkpt>
      <trkpt lat="59.9714113" lon="17.7192685">
        <ele>31.3801</ele>
        <time>2013-03-08T18:00:16Z</time>
      </trkpt>
      <trkpt lat="59.9714009" lon="17.7192514">
        <ele>31.3801</ele>
        <time>2013-03-08T18:00:17Z</time>
      </trkpt>
      <trkpt lat="59.9713897" lon="17.719236">
        <ele>31.3801</ele>
        <time>2013-03-08T18:00:18Z</time>
      </trkpt>
      <trkpt lat="59.9713778" lon="17.7192234">
        <ele>31.3801</ele>
        <time>2013-03-08T18:00:19Z</time>
      </trkpt>
      <trkpt lat="59.9713658" lon="17.7192115">
        <ele>31.3801</ele>
        <time>2013-03-08T18:00:20Z</time>
      </trkpt>
      <trkpt lat="59.9713544" lon="17.7192006">
        <ele>31.8607</ele>
        <time>2013-03-08T18:00:21Z</time>
      </trkpt>
      <trkpt lat="59.9713431" lon="17.7191898">
        <ele>31.8607</ele>
        <time>2013-03-08T18:00:22Z</time>
      </trkpt>
      <trkpt lat="59.9713305" lon="17.7191794">
        <ele>31.8607</ele>
        <time>2013-03-08T18:00:23Z</time>
      </trkpt>
      <trkpt lat="59.9713177" lon="17.719169">
        <ele>31.8607</ele>
        <time>2013-03-08T18:00:24Z</time>
      </trkpt>
      <trkpt lat="59.9713048" lon="17.7191579">
        <ele>31.8607</ele>
        <time>2013-03-08T18:00:25Z</time>
      </trkpt>
      <trkpt lat="59.9712919" lon="17.7191467">
        <ele>31.8607</ele>
        <time>2013-03-08T18:00:26Z</time>
      </trkpt>
      <trkpt lat="59.971279" lon="17.7191353">
        <ele>31.8607</ele>
        <time>2013-03-08T18:00:27Z</time>
      </trkpt>
      <trkpt lat="59.9712659" lon="17.7191234">
        <ele>31.8607</ele>
        <time>2013-03-08T18:00:28Z</time>
      </trkpt>
      <trkpt lat="59.9712524" lon="17.7191111">
        <ele>31.8607</ele>
        <time>2013-03-08T18:00:29Z</time>
      </trkpt>
      <trkpt lat="59.971239" lon="17.7190991">
        <ele>31.8607</ele>
        <time>2013-03-08T18:00:30Z</time>
      </trkpt>
      <trkpt lat="59.9712259" lon="17.7190867">
        <ele>31.8607</ele>
        <time>2013-03-08T18:00:31Z</time>
      </trkpt>
      <trkpt lat="59.9712132" lon="17.7190742">
        <ele>31.8607</ele>
        <time>2013-03-08T18:00:32Z</time>
      </trkpt>
      <trkpt lat="59.9712009" lon="17.7190624">
        <ele>31.8607</ele>
        <time>2013-03-08T18:00:33Z</time>
      </trkpt>
      <trkpt lat="59.9711875" lon="17.7190514">
        <ele>31.8607</ele>
        <time>2013-03-08T18:00:34Z</time>
      </trkpt>
      <trkpt lat="59.9711741" lon="17.7190401">
        <ele>31.8607</ele>
        <time>2013-03-08T18:00:35Z</time>
      </trkpt>
      <trkpt lat="59.9711606" lon="17.7190282">
        <ele>31.8607</ele>
        <time>2013-03-08T18:00:36Z</time>
      </trkpt>
      <trkpt lat="59.9711474" lon="17.7190165">
        <ele>31.8607</ele>
        <time>2013-03-08T18:00:37Z</time>
      </trkpt>
      <trkpt lat="59.9711359" lon="17.7190048">
        <ele>32.3416</ele>
        <time>2013-03-08T18:00:38Z</time>
      </trkpt>
      <trkpt lat="59.971124" lon="17.7189924">
        <ele>32.3416</ele>
        <time>2013-03-08T18:00:39Z</time>
      </trkpt>
      <trkpt lat="59.9711115" lon="17.7189805">
        <ele>32.3416</ele>
        <time>2013-03-08T18:00:40Z</time>
      </trkpt>
      <trkpt lat="59.9710986" lon="17.7189689">
        <ele>32.3416</ele>
        <time>2013-03-08T18:00:41Z</time>
      </trkpt>
      <trkpt lat="59.9710849" lon="17.7189577">
        <ele>32.3416</ele>
        <time>2013-03-08T18:00:42Z</time>
      </trkpt>
      <trkpt lat="59.9710716" lon="17.7189467">
        <ele>32.3416</ele>
        <time>2013-03-08T18:00:43Z</time>
      </trkpt>
      <trkpt lat="59.9710588" lon="17.718936">
        <ele>32.3416</ele>
        <time>2013-03-08T18:00:44Z</time>
      </trkpt>
      <trkpt lat="59.9710455" lon="17.7189251">
        <ele>32.3416</ele>
        <time>2013-03-08T18:00:45Z</time>
      </trkpt>
      <trkpt lat="59.9710317" lon="17.7189129">
        <ele>32.3416</ele>
        <time>2013-03-08T18:00:46Z</time>
      </trkpt>
      <trkpt lat="59.9710186" lon="17.7189005">
        <ele>32.3416</ele>
        <time>2013-03-08T18:00:47Z</time>
      </trkpt>
      <trkpt lat="59.9710048" lon="17.7188891">
        <ele>32.3416</ele>
        <time>2013-03-08T18:00:48Z</time>
      </trkpt>
      <trkpt lat="59.9709914" lon="17.7188772">
        <ele>32.3416</ele>
        <time>2013-03-08T18:00:49Z</time>
      </trkpt>
      <trkpt lat="59.9709789" lon="17.7188642">
        <ele>32.3416</ele>
        <time>2013-03-08T18:00:50Z</time>
      </trkpt>
      <trkpt lat="59.970967" lon="17.7188508">
        <ele>32.3416</ele>
        <time>2013-03-08T18:00:51Z</time>
      </trkpt>
      <trkpt lat="59.9709549" lon="17.7188384">
        <ele>32.3416</ele>
        <time>2013-03-08T18:00:52Z</time>
      </trkpt>
      <trkpt lat="59.9709428" lon="17.7188271">
        <ele>32.3416</ele>
        <time>2013-03-08T18:00:53Z</time>
      </trkpt>
      <trkpt lat="59.9709307" lon="17.7188155">
        <ele>32.3416</ele>
        <time>2013-03-08T18:00:54Z</time>
      </trkpt>
      <trkpt lat="59.9709189" lon="17.7188048">
        <ele>32.3416</ele>
        <time>2013-03-08T18:00:55Z</time>
      </trkpt>
      <trkpt lat="59.9709063" lon="17.7187934">
        <ele>32.3416</ele>
        <time>2013-03-08T18:00:56Z</time>
      </trkpt>
      <trkpt lat="59.970894" lon="17.7187819">
        <ele>32.3416</ele>
        <time>2013-03-08T18:00:57Z</time>
      </trkpt>
      <trkpt lat="59.9708816" lon="17.7187708">
        <ele>32.3416</ele>
        <time>2013-03-08T18:00:58Z</time>
      </trkpt>
      <trkpt lat="59.970866" lon="17.7187601">
        <ele>32.3416</ele>
        <time>2013-03-08T18:00:59Z</time>
      </trkpt>
      <trkpt lat="59.9708514" lon="17.7187494">
        <ele>32.3416</ele>
        <time>2013-03-08T18:01:00Z</time>
      </trkpt>
      <trkpt lat="59.9708385" lon="17.7187384">
        <ele>32.3416</ele>
        <time>2013-03-08T18:01:01Z</time>
      </trkpt>
      <trkpt lat="59.970826" lon="17.7187266">
        <ele>32.3416</ele>
        <time>2013-03-08T18:01:02Z</time>
      </trkpt>
      <trkpt lat="59.9708132" lon="17.7187153">
        <ele>32.3416</ele>
        <time>2013-03-08T18:01:03Z</time>
      </trkpt>
      <trkpt lat="59.9708002" lon="17.7187034">
        <ele>32.3416</ele>
        <time>2013-03-08T18:01:04Z</time>
      </trkpt>
      <trkpt lat="59.970787" lon="17.7186914">
        <ele>32.3416</ele>
        <time>2013-03-08T18:01:05Z</time>
      </trkpt>
      <trkpt lat="59.9707734" lon="17.7186795">
        <ele>32.3416</ele>
        <time>2013-03-08T18:01:06Z</time>
      </trkpt>
      <trkpt lat="59.9707604" lon="17.7186676">
        <ele>32.3416</ele>
        <time>2013-03-08T18:01:07Z</time>
      </trkpt>
      <trkpt lat="59.9707479" lon="17.718656">
        <ele>32.8223</ele>
        <time>2013-03-08T18:01:08Z</time>
      </trkpt>
      <trkpt lat="59.970736" lon="17.7186439">
        <ele>32.8223</ele>
        <time>2013-03-08T18:01:09Z</time>
      </trkpt>
      <trkpt lat="59.9707236" lon="17.7186318">
        <ele>32.8223</ele>
        <time>2013-03-08T18:01:10Z</time>
      </trkpt>
      <trkpt lat="59.9707111" lon="17.718621">
        <ele>32.8223</ele>
        <time>2013-03-08T18:01:11Z</time>
      </trkpt>
      <trkpt lat="59.9706982" lon="17.7186104">
        <ele>32.8223</ele>
        <time>2013-03-08T18:01:12Z</time>
      </trkpt>
      <trkpt lat="59.9706856" lon="17.718599">
        <ele>32.8223</ele>
        <time>2013-03-08T18:01:13Z</time>
      </trkpt>
      <trkpt lat="59.9706728" lon="17.7185862">
        <ele>32.8223</ele>
        <time>2013-03-08T18:01:14Z</time>
      </trkpt>
      <trkpt lat="59.9706599" lon="17.7185738">
        <ele>32.8223</ele>
        <time>2013-03-08T18:01:15Z</time>
      </trkpt>
      <trkpt lat="59.970647" lon="17.7185645">
        <ele>32.8223</ele>
        <time>2013-03-08T18:01:16Z</time>
      </trkpt>
      <trkpt lat="59.970634" lon="17.7185545">
        <ele>32.8223</ele>
        <time>2013-03-08T18:01:17Z</time>
      </trkpt>
      <trkpt lat="59.9706213" lon="17.7185418">
        <ele>32.8223</ele>
        <time>2013-03-08T18:01:18Z</time>
      </trkpt>
      <trkpt lat="59.9706084" lon="17.7185312">
        <ele>32.8223</ele>
        <time>2013-03-08T18:01:19Z</time>
      </trkpt>
      <trkpt lat="59.9705952" lon="17.7185218">
        <ele>32.8223</ele>
        <time>2013-03-08T18:01:20Z</time>
      </trkpt>
      <trkpt lat="59.9705826" lon="17.7185123">
        <ele>32.8223</ele>
        <time>2013-03-08T18:01:21Z</time>
      </trkpt>
      <trkpt lat="59.9705695" lon="17.7185033">
        <ele>32.8223</ele>
        <time>2013-03-08T18:01:22Z</time>
      </trkpt>
      <trkpt lat="59.9705557" lon="17.7184951">
        <ele>32.8223</ele>
        <time>2013-03-08T18:01:23Z</time>
      </trkpt>
      <trkpt lat="59.970542" lon="17.7184873">
        <ele>32.8223</ele>
        <time>2013-03-08T18:01:24Z</time>
      </trkpt>
      <trkpt lat="59.9705283" lon="17.7184781">
        <ele>32.8223</ele>
        <time>2013-03-08T18:01:25Z</time>
      </trkpt>
      <trkpt lat="59.9705152" lon="17.7184664">
        <ele>32.8223</ele>
        <time>2013-03-08T18:01:26Z</time>
      </trkpt>
      <trkpt lat="59.9705019" lon="17.7184541">
        <ele>32.8223</ele>
        <time>2013-03-08T18:01:27Z</time>
      </trkpt>
      <trkpt lat="59.9704884" lon="17.7184423">
        <ele>32.8223</ele>
        <time>2013-03-08T18:01:28Z</time>
      </trkpt>
      <trkpt lat="59.9704754" lon="17.7184287">
        <ele>32.8223</ele>
        <time>2013-03-08T18:01:29Z</time>
      </trkpt>
      <trkpt lat="59.9704631" lon="17.7184132">
        <ele>32.8223</ele>
        <time>2013-03-08T18:01:30Z</time>
      </trkpt>
      <trkpt lat="59.9704514" lon="17.7183966">
        <ele>32.8223</ele>
        <time>2013-03-08T18:01:31Z</time>
      </trkpt>
      <trkpt lat="59.9704396" lon="17.7183806">
        <ele>32.8223</ele>
        <time>2013-03-08T18:01:32Z</time>
      </trkpt>
      <trkpt lat="59.9704272" lon="17.7183666">
        <ele>32.8223</ele>
        <time>2013-03-08T18:01:33Z</time>
      </trkpt>
      <trkpt lat="59.9704144" lon="17.7183537">
        <ele>32.8223</ele>
        <time>2013-03-08T18:01:34Z</time>
      </trkpt>
      <trkpt lat="59.9704015" lon="17.7183408">
        <ele>32.8223</ele>
        <time>2013-03-08T18:01:35Z</time>
      </trkpt>
      <trkpt lat="59.9703888" lon="17.7183273">
        <ele>32.3416</ele>
        <time>2013-03-08T18:01:36Z</time>
      </trkpt>
      <trkpt lat="59.970376" lon="17.7183137">
        <ele>32.3416</ele>
        <time>2013-03-08T18:01:37Z</time>
      </trkpt>
      <trkpt lat="59.970363" lon="17.7183012">
        <ele>32.3416</ele>
        <time>2013-03-08T18:01:38Z</time>
      </trkpt>
      <trkpt lat="59.9703499" lon="17.7182901">
        <ele>32.3416</ele>
        <time>2013-03-08T18:01:39Z</time>
      </trkpt>
      <trkpt lat="59.9703369" lon="17.7182806">
        <ele>32.3416</ele>
        <time>2013-03-08T18:01:40Z</time>
      </trkpt>
      <trkpt lat="59.9703236" lon="17.7182704">
        <ele>32.3416</ele>
        <time>2013-03-08T18:01:41Z</time>
      </trkpt>
      <trkpt lat="59.9703102" lon="17.7182589">
        <ele>32.3416</ele>
        <time>2013-03-08T18:01:42Z</time>
      </trkpt>
      <trkpt lat="59.970297" lon="17.7182476">
        <ele>32.3416</ele>
        <time>2013-03-08T18:01:43Z</time>
      </trkpt>
      <trkpt lat="59.9702838" lon="17.7182361">
        <ele>32.3416</ele>
        <time>2013-03-08T18:01:44Z</time>
      </trkpt>
      <trkpt lat="59.9702711" lon="17.7182236">
        <ele>32.3416</ele>
        <time>2013-03-08T18:01:45Z</time>
      </trkpt>
      <trkpt lat="59.9702584" lon="17.7182112">
        <ele>32.3416</ele>
        <time>2013-03-08T18:01:46Z</time>
      </trkpt>
      <trkpt lat="59.9702455" lon="17.7181998">
        <ele>32.3416</ele>
        <time>2013-03-08T18:01:47Z</time>
      </trkpt>
      <trkpt lat="59.9702323" lon="17.7181891">
        <ele>32.3416</ele>
        <time>2013-03-08T18:01:48Z</time>
      </trkpt>
      <trkpt lat="59.970219" lon="17.7181777">
        <ele>31.8607</ele>
        <time>2013-03-08T18:01:49Z</time>
      </trkpt>
      <trkpt lat="59.970206" lon="17.718166">
        <ele>32.3416</ele>
        <time>2013-03-08T18:01:50Z</time>
      </trkpt>
      <trkpt lat="59.9701927" lon="17.718154">
        <ele>31.8607</ele>
        <time>2013-03-08T18:01:51Z</time>
      </trkpt>
      <trkpt lat="59.9701796" lon="17.7181418">
        <ele>31.8607</ele>
        <time>2013-03-08T18:01:52Z</time>
      </trkpt>
      <trkpt lat="59.9701665" lon="17.7181307">
        <ele>32.3416</ele>
        <time>2013-03-08T18:01:53Z</time>
      </trkpt>
      <trkpt lat="59.9701531" lon="17.718119">
        <ele>32.3416</ele>
        <time>2013-03-08T18:01:54Z</time>
      </trkpt>
      <trkpt lat="59.9701398" lon="17.7181071">
        <ele>32.3416</ele>
        <time>2013-03-08T18:01:55Z</time>
      </trkpt>
      <trkpt lat="59.9701267" lon="17.7180965">
        <ele>32.3416</ele>
        <time>2013-03-08T18:01:56Z</time>
      </trkpt>
      <trkpt lat="59.9701136" lon="17.7180847">
        <ele>32.3416</ele>
        <time>2013-03-08T18:01:57Z</time>
      </trkpt>
      <trkpt lat="59.9701004" lon="17.7180714">
        <ele>32.3416</ele>
        <time>2013-03-08T18:01:58Z</time>
      </trkpt>
      <trkpt lat="59.970087" lon="17.7180583">
        <ele>32.3416</ele>
        <time>2013-03-08T18:01:59Z</time>
      </trkpt>
      <trkpt lat="59.9700739" lon="17.7180456">
        <ele>32.3416</ele>
        <time>2013-03-08T18:02:00Z</time>
      </trkpt>
      <trkpt lat="59.9700614" lon="17.7180334">
        <ele>32.3416</ele>
        <time>2013-03-08T18:02:01Z</time>
      </trkpt>
      <trkpt lat="59.9700485" lon="17.7180211">
        <ele>32.3416</ele>
        <time>2013-03-08T18:02:02Z</time>
      </trkpt>
      <trkpt lat="59.9700356" lon="17.7180087">
        <ele>32.3416</ele>
        <time>2013-03-08T18:02:03Z</time>
      </trkpt>
      <trkpt lat="59.9700227" lon="17.7179966">
        <ele>32.3416</ele>
        <time>2013-03-08T18:02:04Z</time>
      </trkpt>
      <trkpt lat="59.9700101" lon="17.7179842">
        <ele>32.3416</ele>
        <time>2013-03-08T18:02:05Z</time>
      </trkpt>
      <trkpt lat="59.9699972" lon="17.717972">
        <ele>32.3416</ele>
        <time>2013-03-08T18:02:06Z</time>
      </trkpt>
      <trkpt lat="59.9699857" lon="17.7179605">
        <ele>32.3416</ele>
        <time>2013-03-08T18:02:07Z</time>
      </trkpt>
      <trkpt lat="59.9699725" lon="17.7179504">
        <ele>32.3416</ele>
        <time>2013-03-08T18:02:08Z</time>
      </trkpt>
      <trkpt lat="59.9699583" lon="17.7179416">
        <ele>32.3416</ele>
        <time>2013-03-08T18:02:09Z</time>
      </trkpt>
      <trkpt lat="59.9699454" lon="17.7179315">
        <ele>32.3416</ele>
        <time>2013-03-08T18:02:10Z</time>
      </trkpt>
      <trkpt lat="59.9699329" lon="17.7179211">
        <ele>32.3416</ele>
        <time>2013-03-08T18:02:11Z</time>
      </trkpt>
      <trkpt lat="59.9699205" lon="17.7179108">
        <ele>32.3416</ele>
        <time>2013-03-08T18:02:12Z</time>
      </trkpt>
      <trkpt lat="59.9699078" lon="17.7179004">
        <ele>32.3416</ele>
        <time>2013-03-08T18:02:13Z</time>
      </trkpt>
      <trkpt lat="59.9698957" lon="17.7178906">
        <ele>32.3416</ele>
        <time>2013-03-08T18:02:14Z</time>
      </trkpt>
      <trkpt lat="59.9698838" lon="17.717881">
        <ele>32.3416</ele>
        <time>2013-03-08T18:02:15Z</time>
      </trkpt>
      <trkpt lat="59.9698715" lon="17.7178708">
        <ele>32.3416</ele>
        <time>2013-03-08T18:02:16Z</time>
      </trkpt>
      <trkpt lat="59.9698589" lon="17.7178593">
        <ele>32.3416</ele>
        <time>2013-03-08T18:02:17Z</time>
      </trkpt>
      <trkpt lat="59.9698466" lon="17.7178463">
        <ele>31.8607</ele>
        <time>2013-03-08T18:02:18Z</time>
      </trkpt>
      <trkpt lat="59.9698352" lon="17.7178341">
        <ele>31.8607</ele>
        <time>2013-03-08T18:02:19Z</time>
      </trkpt>
      <trkpt lat="59.9698232" lon="17.7178237">
        <ele>31.8607</ele>
        <time>2013-03-08T18:02:20Z</time>
      </trkpt>
      <trkpt lat="59.9698102" lon="17.7178139">
        <ele>31.8607</ele>
        <time>2013-03-08T18:02:21Z</time>
      </trkpt>
      <trkpt lat="59.9697968" lon="17.7178039">
        <ele>31.8607</ele>
        <time>2013-03-08T18:02:22Z</time>
      </trkpt>
      <trkpt lat="59.9697837" lon="17.7177927">
        <ele>31.8607</ele>
        <time>2013-03-08T18:02:23Z</time>
      </trkpt>
      <trkpt lat="59.9697709" lon="17.7177817">
        <ele>31.8607</ele>
        <time>2013-03-08T18:02:24Z</time>
      </trkpt>
      <trkpt lat="59.9697573" lon="17.7177713">
        <ele>31.8607</ele>
        <time>2013-03-08T18:02:25Z</time>
      </trkpt>
      <trkpt lat="59.9697435" lon="17.7177631">
        <ele>31.8607</ele>
        <time>2013-03-08T18:02:26Z</time>
      </trkpt>
      <trkpt lat="59.96973" lon="17.7177555">
        <ele>31.8607</ele>
        <time>2013-03-08T18:02:27Z</time>
      </trkpt>
      <trkpt lat="59.9697165" lon="17.7177456">
        <ele>31.8607</ele>
        <time>2013-03-08T18:02:28Z</time>
      </trkpt>
      <trkpt lat="59.9697036" lon="17.7177356">
        <ele>31.8607</ele>
        <time>2013-03-08T18:02:29Z</time>
      </trkpt>
      <trkpt lat="59.9696909" lon="17.717726">
        <ele>31.8607</ele>
        <time>2013-03-08T18:02:30Z</time>
      </trkpt>
      <trkpt lat="59.9696777" lon="17.7177166">
        <ele>31.8607</ele>
        <time>2013-03-08T18:02:31Z</time>
      </trkpt>
      <trkpt lat="59.9696647" lon="17.7177072">
        <ele>31.8607</ele>
        <time>2013-03-08T18:02:32Z</time>
      </trkpt>
      <trkpt lat="59.9696518" lon="17.7176974">
        <ele>31.8607</ele>
        <time>2013-03-08T18:02:33Z</time>
      </trkpt>
      <trkpt lat="59.9696388" lon="17.7176871">
        <ele>31.8607</ele>
        <time>2013-03-08T18:02:34Z</time>
      </trkpt>
      <trkpt lat="59.9696259" lon="17.7176767">
        <ele>31.8607</ele>
        <time>2013-03-08T18:02:35Z</time>
      </trkpt>
      <trkpt lat="59.9696134" lon="17.7176673">
        <ele>31.8607</ele>
        <time>2013-03-08T18:02:36Z</time>
      </trkpt>
      <trkpt lat="59.9696008" lon="17.717659">
        <ele>31.8607</ele>
        <time>2013-03-08T18:02:37Z</time>
      </trkpt>
      <trkpt lat="59.969588" lon="17.7176512">
        <ele>31.8607</ele>
        <time>2013-03-08T18:02:38Z</time>
      </trkpt>
      <trkpt lat="59.9695749" lon="17.7176414">
        <ele>31.8607</ele>
        <time>2013-03-08T18:02:39Z</time>
      </trkpt>
      <trkpt lat="59.9695616" lon="17.7176321">
        <ele>31.8607</ele>
        <time>2013-03-08T18:02:40Z</time>
      </trkpt>
      <trkpt lat="59.9695481" lon="17.7176246">
        <ele>31.8607</ele>
        <time>2013-03-08T18:02:41Z</time>
      </trkpt>
      <trkpt lat="59.9695346" lon="17.7176158">
        <ele>31.8607</ele>
        <time>2013-03-08T18:02:42Z</time>
      </trkpt>
      <trkpt lat="59.9695214" lon="17.7176057">
        <ele>31.8607</ele>
        <time>2013-03-08T18:02:43Z</time>
      </trkpt>
      <trkpt lat="59.9695086" lon="17.7175958">
        <ele>31.8607</ele>
        <time>2013-03-08T18:02:44Z</time>
      </trkpt>
      <trkpt lat="59.9694954" lon="17.7175859">
        <ele>31.8607</ele>
        <time>2013-03-08T18:02:45Z</time>
      </trkpt>
      <trkpt lat="59.9694825" lon="17.7175767">
        <ele>32.3416</ele>
        <time>2013-03-08T18:02:46Z</time>
      </trkpt>
      <trkpt lat="59.9694689" lon="17.7175692">
        <ele>32.3416</ele>
        <time>2013-03-08T18:02:47Z</time>
      </trkpt>
      <trkpt lat="59.9694553" lon="17.7175622">
        <ele>32.3416</ele>
        <time>2013-03-08T18:02:48Z</time>
      </trkpt>
      <trkpt lat="59.969442" lon="17.7175543">
        <ele>32.3416</ele>
        <time>2013-03-08T18:02:49Z</time>
      </trkpt>
      <trkpt lat="59.969429" lon="17.7175456">
        <ele>32.3416</ele>
        <time>2013-03-08T18:02:50Z</time>
      </trkpt>
      <trkpt lat="59.9694164" lon="17.7175372">
        <ele>32.3416</ele>
        <time>2013-03-08T18:02:51Z</time>
      </trkpt>
      <trkpt lat="59.9694035" lon="17.7175295">
        <ele>32.3416</ele>
        <time>2013-03-08T18:02:52Z</time>
      </trkpt>
      <trkpt lat="59.9693907" lon="17.7175217">
        <ele>32.3416</ele>
        <time>2013-03-08T18:02:53Z</time>
      </trkpt>
      <trkpt lat="59.9693778" lon="17.7175139">
        <ele>32.3416</ele>
        <time>2013-03-08T18:02:54Z</time>
      </trkpt>
      <trkpt lat="59.9693644" lon="17.7175072">
        <ele>32.3416</ele>
        <time>2013-03-08T18:02:55Z</time>
      </trkpt>
      <trkpt lat="59.9693513" lon="17.7175008">
        <ele>32.3416</ele>
        <time>2013-03-08T18:02:56Z</time>
      </trkpt>
      <trkpt lat="59.9693382" lon="17.7174949">
        <ele>32.3416</ele>
        <time>2013-03-08T18:02:57Z</time>
      </trkpt>
      <trkpt lat="59.9693254" lon="17.7174894">
        <ele>32.3416</ele>
        <time>2013-03-08T18:02:58Z</time>
      </trkpt>
      <trkpt lat="59.9693125" lon="17.7174829">
        <ele>32.3416</ele>
        <time>2013-03-08T18:02:59Z</time>
      </trkpt>
      <trkpt lat="59.9693001" lon="17.7174755">
        <ele>32.3416</ele>
        <time>2013-03-08T18:03:00Z</time>
      </trkpt>
      <trkpt lat="59.9692876" lon="17.7174684">
        <ele>32.3416</ele>
        <time>2013-03-08T18:03:01Z</time>
      </trkpt>
      <trkpt lat="59.9692746" lon="17.717462">
        <ele>32.3416</ele>
        <time>2013-03-08T18:03:02Z</time>
      </trkpt>
      <trkpt lat="59.969262" lon="17.7174559">
        <ele>32.3416</ele>
        <time>2013-03-08T18:03:03Z</time>
      </trkpt>
      <trkpt lat="59.9692496" lon="17.7174497">
        <ele>32.3416</ele>
        <time>2013-03-08T18:03:04Z</time>
      </trkpt>
      <trkpt lat="59.969237" lon="17.7174431">
        <ele>32.3416</ele>
        <time>2013-03-08T18:03:05Z</time>
      </trkpt>
      <trkpt lat="59.9692245" lon="17.7174371">
        <ele>32.3416</ele>
        <time>2013-03-08T18:03:06Z</time>
      </trkpt>
      <trkpt lat="59.9692116" lon="17.7174311">
        <ele>32.3416</ele>
        <time>2013-03-08T18:03:07Z</time>
      </trkpt>
      <trkpt lat="59.9691985" lon="17.7174259">
        <ele>32.3416</ele>
        <time>2013-03-08T18:03:08Z</time>
      </trkpt>
      <trkpt lat="59.9691855" lon="17.7174197">
        <ele>32.3416</ele>
        <time>2013-03-08T18:03:09Z</time>
      </trkpt>
      <trkpt lat="59.9691724" lon="17.7174125">
        <ele>32.3416</ele>
        <time>2013-03-08T18:03:10Z</time>
      </trkpt>
      <trkpt lat="59.9691596" lon="17.7174046">
        <ele>32.3416</ele>
        <time>2013-03-08T18:03:11Z</time>
      </trkpt>
      <trkpt lat="59.9691468" lon="17.7173972">
        <ele>32.3416</ele>
        <time>2013-03-08T18:03:12Z</time>
      </trkpt>
      <trkpt lat="59.9691339" lon="17.7173911">
        <ele>32.3416</ele>
        <time>2013-03-08T18:03:13Z</time>
      </trkpt>
      <trkpt lat="59.9691204" lon="17.7173865">
        <ele>32.3416</ele>
        <time>2013-03-08T18:03:14Z</time>
      </trkpt>
      <trkpt lat="59.9691066" lon="17.7173822">
        <ele>32.3416</ele>
        <time>2013-03-08T18:03:15Z</time>
      </trkpt>
      <trkpt lat="59.9690927" lon="17.7173768">
        <ele>32.3416</ele>
        <time>2013-03-08T18:03:16Z</time>
      </trkpt>
      <trkpt lat="59.9690789" lon="17.7173714">
        <ele>32.3416</ele>
        <time>2013-03-08T18:03:17Z</time>
      </trkpt>
      <trkpt lat="59.9690653" lon="17.7173665">
        <ele>32.3416</ele>
        <time>2013-03-08T18:03:18Z</time>
      </trkpt>
      <trkpt lat="59.9690514" lon="17.7173616">
        <ele>31.8607</ele>
        <time>2013-03-08T18:03:19Z</time>
      </trkpt>
      <trkpt lat="59.9690375" lon="17.7173561">
        <ele>31.8607</ele>
        <time>2013-03-08T18:03:20Z</time>
      </trkpt>
      <trkpt lat="59.9690237" lon="17.7173513">
        <ele>31.8607</ele>
        <time>2013-03-08T18:03:21Z</time>
      </trkpt>
      <trkpt lat="59.9690101" lon="17.7173454">
        <ele>31.8607</ele>
        <time>2013-03-08T18:03:22Z</time>
      </trkpt>
      <trkpt lat="59.9689968" lon="17.7173404">
        <ele>31.8607</ele>
        <time>2013-03-08T18:03:23Z</time>
      </trkpt>
      <trkpt lat="59.9689835" lon="17.7173376">
        <ele>31.8607</ele>
        <time>2013-03-08T18:03:24Z</time>
      </trkpt>
      <trkpt lat="59.9689704" lon="17.7173385">
        <ele>31.8607</ele>
        <time>2013-03-08T18:03:25Z</time>
      </trkpt>
      <trkpt lat="59.9689575" lon="17.7173426">
        <ele>31.8607</ele>
        <time>2013-03-08T18:03:26Z</time>
      </trkpt>
      <trkpt lat="59.9689448" lon="17.7173477">
        <ele>31.8607</ele>
        <time>2013-03-08T18:03:27Z</time>
      </trkpt>
      <trkpt lat="59.9689328" lon="17.7173529">
        <ele>31.8607</ele>
        <time>2013-03-08T18:03:28Z</time>
      </trkpt>
      <trkpt lat="59.9689229" lon="17.7173584">
        <ele>31.8607</ele>
        <time>2013-03-08T18:03:29Z</time>
      </trkpt>
      <trkpt lat="59.9689105" lon="17.7173652">
        <ele>31.8607</ele>
        <time>2013-03-08T18:03:30Z</time>
      </trkpt>
      <trkpt lat="59.9688969" lon="17.7173746">
        <ele>31.8607</ele>
        <time>2013-03-08T18:03:31Z</time>
      </trkpt>
      <trkpt lat="59.9688837" lon="17.7173837">
        <ele>31.8607</ele>
        <time>2013-03-08T18:03:32Z</time>
      </trkpt>
      <trkpt lat="59.9688711" lon="17.7173948">
        <ele>31.8607</ele>
        <time>2013-03-08T18:03:33Z</time>
      </trkpt>
      <trkpt lat="59.9688593" lon="17.7174057">
        <ele>31.3801</ele>
        <time>2013-03-08T18:03:34Z</time>
      </trkpt>
      <trkpt lat="59.9688474" lon="17.7174112">
        <ele>31.3801</ele>
        <time>2013-03-08T18:03:35Z</time>
      </trkpt>
      <trkpt lat="59.9688334" lon="17.7174131">
        <ele>31.3801</ele>
        <time>2013-03-08T18:03:36Z</time>
      </trkpt>
      <trkpt lat="59.9688188" lon="17.7174115">
        <ele>31.3801</ele>
        <time>2013-03-08T18:03:37Z</time>
      </trkpt>
      <trkpt lat="59.9688053" lon="17.7174068">
        <ele>31.3801</ele>
        <time>2013-03-08T18:03:38Z</time>
      </trkpt>
      <trkpt lat="59.9687929" lon="17.7174005">
        <ele>30.8995</ele>
        <time>2013-03-08T18:03:39Z</time>
      </trkpt>
      <trkpt lat="59.9687815" lon="17.7173959">
        <ele>30.8995</ele>
        <time>2013-03-08T18:03:40Z</time>
      </trkpt>
      <trkpt lat="59.9687696" lon="17.7173917">
        <ele>30.8995</ele>
        <time>2013-03-08T18:03:41Z</time>
      </trkpt>
      <trkpt lat="59.9687565" lon="17.7173871">
        <ele>30.8995</ele>
        <time>2013-03-08T18:03:42Z</time>
      </trkpt>
      <trkpt lat="59.9687432" lon="17.7173809">
        <ele>30.8995</ele>
        <time>2013-03-08T18:03:43Z</time>
      </trkpt>
      <trkpt lat="59.9687302" lon="17.7173755">
        <ele>30.8995</ele>
        <time>2013-03-08T18:03:44Z</time>
      </trkpt>
      <trkpt lat="59.9687157" lon="17.7173732">
        <ele>30.8995</ele>
        <time>2013-03-08T18:03:45Z</time>
      </trkpt>
      <trkpt lat="59.9687012" lon="17.7173726">
        <ele>30.8995</ele>
        <time>2013-03-08T18:03:46Z</time>
      </trkpt>
      <trkpt lat="59.9686889" lon="17.717367">
        <ele>30.8995</ele>
        <time>2013-03-08T18:03:47Z</time>
      </trkpt>
      <trkpt lat="59.9686769" lon="17.717361">
        <ele>30.8995</ele>
        <time>2013-03-08T18:03:48Z</time>
      </trkpt>
      <trkpt lat="59.9686642" lon="17.7173545">
        <ele>30.4188</ele>
        <time>2013-03-08T18:03:49Z</time>
      </trkpt>
      <trkpt lat="59.9686516" lon="17.7173486">
        <ele>30.4188</ele>
        <time>2013-03-08T18:03:50Z</time>
      </trkpt>
      <trkpt lat="59.9686387" lon="17.7173456">
        <ele>30.4188</ele>
        <time>2013-03-08T18:03:51Z</time>
      </trkpt>
      <trkpt lat="59.9686256" lon="17.7173446">
        <ele>30.4188</ele>
        <time>2013-03-08T18:03:52Z</time>
      </trkpt>
      <trkpt lat="59.9686128" lon="17.7173424">
        <ele>30.4188</ele>
        <time>2013-03-08T18:03:53Z</time>
      </trkpt>
      <trkpt lat="59.9686003" lon="17.7173384">
        <ele>30.4188</ele>
        <time>2013-03-08T18:03:54Z</time>
      </trkpt>
      <trkpt lat="59.9685883" lon="17.7173322">
        <ele>30.4188</ele>
        <time>2013-03-08T18:03:55Z</time>
      </trkpt>
      <trkpt lat="59.9685755" lon="17.7173265">
        <ele>30.4188</ele>
        <time>2013-03-08T18:03:56Z</time>
      </trkpt>
      <trkpt lat="59.9685624" lon="17.7173213">
        <ele>30.4188</ele>
        <time>2013-03-08T18:03:57Z</time>
      </trkpt>
      <trkpt lat="59.9685493" lon="17.7173156">
        <ele>29.9381</ele>
        <time>2013-03-08T18:03:58Z</time>
      </trkpt>
      <trkpt lat="59.9685365" lon="17.7173093">
        <ele>29.9381</ele>
        <time>2013-03-08T18:03:59Z</time>
      </trkpt>
      <trkpt lat="59.968523" lon="17.7173045">
        <ele>29.9381</ele>
        <time>2013-03-08T18:04:00Z</time>
      </trkpt>
      <trkpt lat="59.968509" lon="17.7173001">
        <ele>29.9381</ele>
        <time>2013-03-08T18:04:01Z</time>
      </trkpt>
      <trkpt lat="59.9684949" lon="17.7172955">
        <ele>29.9381</ele>
        <time>2013-03-08T18:04:02Z</time>
      </trkpt>
      <trkpt lat="59.9684814" lon="17.7172915">
        <ele>30.4188</ele>
        <time>2013-03-08T18:04:03Z</time>
      </trkpt>
      <trkpt lat="59.9684676" lon="17.7172881">
        <ele>30.4188</ele>
        <time>2013-03-08T18:04:04Z</time>
      </trkpt>
      <trkpt lat="59.9684525" lon="17.7172848">
        <ele>30.8995</ele>
        <time>2013-03-08T18:04:05Z</time>
      </trkpt>
      <trkpt lat="59.9684375" lon="17.7172805">
        <ele>30.8995</ele>
        <time>2013-03-08T18:04:06Z</time>
      </trkpt>
      <trkpt lat="59.9684237" lon="17.7172752">
        <ele>31.3801</ele>
        <time>2013-03-08T18:04:07Z</time>
      </trkpt>
      <trkpt lat="59.9684099" lon="17.71727">
        <ele>31.3801</ele>
        <time>2013-03-08T18:04:08Z</time>
      </trkpt>
      <trkpt lat="59.9683961" lon="17.7172638">
        <ele>31.3801</ele>
        <time>2013-03-08T18:04:09Z</time>
      </trkpt>
      <trkpt lat="59.9683822" lon="17.717257">
        <ele>31.8607</ele>
        <time>2013-03-08T18:04:10Z</time>
      </trkpt>
      <trkpt lat="59.9683686" lon="17.7172499">
        <ele>31.8607</ele>
        <time>2013-03-08T18:04:11Z</time>
      </trkpt>
      <trkpt lat="59.9683552" lon="17.7172419">
        <ele>31.8607</ele>
        <time>2013-03-08T18:04:12Z</time>
      </trkpt>
      <trkpt lat="59.9683417" lon="17.7172321">
        <ele>31.8607</ele>
        <time>2013-03-08T18:04:13Z</time>
      </trkpt>
      <trkpt lat="59.9683288" lon="17.7172221">
        <ele>31.8607</ele>
        <time>2013-03-08T18:04:14Z</time>
      </trkpt>
      <trkpt lat="59.9683151" lon="17.7172135">
        <ele>31.8607</ele>
        <time>2013-03-08T18:04:15Z</time>
      </trkpt>
      <trkpt lat="59.9683008" lon="17.7172057">
        <ele>31.8607</ele>
        <time>2013-03-08T18:04:16Z</time>
      </trkpt>
      <trkpt lat="59.9682878" lon="17.717197">
        <ele>31.3801</ele>
        <time>2013-03-08T18:04:17Z</time>
      </trkpt>
      <trkpt lat="59.9682749" lon="17.7171866">
        <ele>31.3801</ele>
        <time>2013-03-08T18:04:18Z</time>
      </trkpt>
      <trkpt lat="59.9682638" lon="17.7171748">
        <ele>31.3801</ele>
        <time>2013-03-08T18:04:19Z</time>
      </trkpt>
      <trkpt lat="59.9682524" lon="17.7171626">
        <ele>31.3801</ele>
        <time>2013-03-08T18:04:20Z</time>
      </trkpt>
      <trkpt lat="59.9682402" lon="17.7171507">
        <ele>30.8995</ele>
        <time>2013-03-08T18:04:21Z</time>
      </trkpt>
      <trkpt lat="59.9682282" lon="17.71714">
        <ele>31.3801</ele>
        <time>2013-03-08T18:04:22Z</time>
      </trkpt>
      <trkpt lat="59.9682163" lon="17.71713">
        <ele>31.3801</ele>
        <time>2013-03-08T18:04:23Z</time>
      </trkpt>
      <trkpt lat="59.9682049" lon="17.7171201">
        <ele>30.8995</ele>
        <time>2013-03-08T18:04:24Z</time>
      </trkpt>
      <trkpt lat="59.9681935" lon="17.7171103">
        <ele>30.8995</ele>
        <time>2013-03-08T18:04:25Z</time>
      </trkpt>
      <trkpt lat="59.9681817" lon="17.7170991">
        <ele>30.8995</ele>
        <time>2013-03-08T18:04:26Z</time>
      </trkpt>
      <trkpt lat="59.9681708" lon="17.7170865">
        <ele>30.8995</ele>
        <time>2013-03-08T18:04:27Z</time>
      </trkpt>
      <trkpt lat="59.9681602" lon="17.7170741">
        <ele>30.8995</ele>
        <time>2013-03-08T18:04:28Z</time>
      </trkpt>
      <trkpt lat="59.9681491" lon="17.7170611">
        <ele>30.8995</ele>
        <time>2013-03-08T18:04:29Z</time>
      </trkpt>
      <trkpt lat="59.9681382" lon="17.7170474">
        <ele>30.4188</ele>
        <time>2013-03-08T18:04:30Z</time>
      </trkpt>
      <trkpt lat="59.9681271" lon="17.7170351">
        <ele>30.4188</ele>
        <time>2013-03-08T18:04:31Z</time>
      </trkpt>
      <trkpt lat="59.9681153" lon="17.7170222">
        <ele>30.4188</ele>
        <time>2013-03-08T18:04:32Z</time>
      </trkpt>
      <trkpt lat="59.9681035" lon="17.7170079">
        <ele>30.4188</ele>
        <time>2013-03-08T18:04:33Z</time>
      </trkpt>
      <trkpt lat="59.9680925" lon="17.7169934">
        <ele>30.4188</ele>
        <time>2013-03-08T18:04:34Z</time>
      </trkpt>
      <trkpt lat="59.9680811" lon="17.7169804">
        <ele>30.4188</ele>
        <time>2013-03-08T18:04:35Z</time>
      </trkpt>
      <trkpt lat="59.9680698" lon="17.7169665">
        <ele>29.9381</ele>
        <time>2013-03-08T18:04:36Z</time>
      </trkpt>
      <trkpt lat="59.9680585" lon="17.7169517">
        <ele>29.9381</ele>
        <time>2013-03-08T18:04:37Z</time>
      </trkpt>
      <trkpt lat="59.9680474" lon="17.7169373">
        <ele>29.9381</ele>
        <time>2013-03-08T18:04:38Z</time>
      </trkpt>
      <trkpt lat="59.968036" lon="17.7169227">
        <ele>29.9381</ele>
        <time>2013-03-08T18:04:39Z</time>
      </trkpt>
      <trkpt lat="59.9680247" lon="17.7169067">
        <ele>29.9381</ele>
        <time>2013-03-08T18:04:40Z</time>
      </trkpt>
      <trkpt lat="59.9680138" lon="17.7168903">
        <ele>29.4575</ele>
        <time>2013-03-08T18:04:41Z</time>
      </trkpt>
      <trkpt lat="59.9680027" lon="17.7168738">
        <ele>29.4575</ele>
        <time>2013-03-08T18:04:42Z</time>
      </trkpt>
      <trkpt lat="59.9679914" lon="17.7168575">
        <ele>29.4575</ele>
        <time>2013-03-08T18:04:43Z</time>
      </trkpt>
      <trkpt lat="59.9679802" lon="17.7168407">
        <ele>29.4575</ele>
        <time>2013-03-08T18:04:44Z</time>
      </trkpt>
      <trkpt lat="59.9679693" lon="17.7168241">
        <ele>29.4575</ele>
        <time>2013-03-08T18:04:45Z</time>
      </trkpt>
      <trkpt lat="59.9679583" lon="17.7168079">
        <ele>29.4575</ele>
        <time>2013-03-08T18:04:46Z</time>
      </trkpt>
      <trkpt lat="59.9679471" lon="17.7167917">
        <ele>29.4575</ele>
        <time>2013-03-08T18:04:47Z</time>
      </trkpt>
      <trkpt lat="59.967937" lon="17.7167757">
        <ele>29.4575</ele>
        <time>2013-03-08T18:04:48Z</time>
      </trkpt>
      <trkpt lat="59.9679273" lon="17.7167582">
        <ele>29.4575</ele>
        <time>2013-03-08T18:04:49Z</time>
      </trkpt>
      <trkpt lat="59.9679171" lon="17.7167406">
        <ele>28.9769</ele>
        <time>2013-03-08T18:04:50Z</time>
      </trkpt>
      <trkpt lat="59.9679069" lon="17.7167243">
        <ele>28.9769</ele>
        <time>2013-03-08T18:04:51Z</time>
      </trkpt>
      <trkpt lat="59.9678968" lon="17.7167077">
        <ele>28.9769</ele>
        <time>2013-03-08T18:04:52Z</time>
      </trkpt>
      <trkpt lat="59.9678868" lon="17.7166912">
        <ele>28.9769</ele>
        <time>2013-03-08T18:04:53Z</time>
      </trkpt>
      <trkpt lat="59.9678766" lon="17.7166741">
        <ele>28.9769</ele>
        <time>2013-03-08T18:04:54Z</time>
      </trkpt>
      <trkpt lat="59.9678662" lon="17.7166562">
        <ele>28.9769</ele>
        <time>2013-03-08T18:04:55Z</time>
      </trkpt>
      <trkpt lat="59.9678558" lon="17.7166384">
        <ele>28.4962</ele>
        <time>2013-03-08T18:04:56Z</time>
      </trkpt>
      <trkpt lat="59.9678455" lon="17.7166209">
        <ele>28.4962</ele>
        <time>2013-03-08T18:04:57Z</time>
      </trkpt>
      <trkpt lat="59.9678352" lon="17.7166034">
        <ele>28.4962</ele>
        <time>2013-03-08T18:04:58Z</time>
      </trkpt>
      <trkpt lat="59.9678251" lon="17.7165862">
        <ele>28.4962</ele>
        <time>2013-03-08T18:04:59Z</time>
      </trkpt>
      <trkpt lat="59.9678149" lon="17.7165684">
        <ele>28.4962</ele>
        <time>2013-03-08T18:05:00Z</time>
      </trkpt>
      <trkpt lat="59.9678046" lon="17.7165515">
        <ele>28.4962</ele>
        <time>2013-03-08T18:05:01Z</time>
      </trkpt>
      <trkpt lat="59.9677945" lon="17.7165355">
        <ele>28.0155</ele>
        <time>2013-03-08T18:05:02Z</time>
      </trkpt>
      <trkpt lat="59.9677841" lon="17.7165188">
        <ele>28.4962</ele>
        <time>2013-03-08T18:05:03Z</time>
      </trkpt>
      <trkpt lat="59.9677736" lon="17.7165003">
        <ele>28.0155</ele>
        <time>2013-03-08T18:05:04Z</time>
      </trkpt>
      <trkpt lat="59.967764" lon="17.7164811">
        <ele>28.0155</ele>
        <time>2013-03-08T18:05:05Z</time>
      </trkpt>
      <trkpt lat="59.9677548" lon="17.7164618">
        <ele>28.0155</ele>
        <time>2013-03-08T18:05:06Z</time>
      </trkpt>
      <trkpt lat="59.9677458" lon="17.7164415">
        <ele>28.4962</ele>
        <time>2013-03-08T18:05:07Z</time>
      </trkpt>
      <trkpt lat="59.9677366" lon="17.7164214">
        <ele>28.4962</ele>
        <time>2013-03-08T18:05:08Z</time>
      </trkpt>
      <trkpt lat="59.9677273" lon="17.7164032">
        <ele>28.4962</ele>
        <time>2013-03-08T18:05:09Z</time>
      </trkpt>
      <trkpt lat="59.9677179" lon="17.7163847">
        <ele>28.4962</ele>
        <time>2013-03-08T18:05:10Z</time>
      </trkpt>
      <trkpt lat="59.967709" lon="17.7163645">
        <ele>28.0155</ele>
        <time>2013-03-08T18:05:11Z</time>
      </trkpt>
      <trkpt lat="59.967701" lon="17.7163428">
        <ele>28.4962</ele>
        <time>2013-03-08T18:05:12Z</time>
      </trkpt>
      <trkpt lat="59.9676933" lon="17.7163214">
        <ele>28.4962</ele>
        <time>2013-03-08T18:05:13Z</time>
      </trkpt>
      <trkpt lat="59.967686" lon="17.7163008">
        <ele>28.0155</ele>
        <time>2013-03-08T18:05:14Z</time>
      </trkpt>
      <trkpt lat="59.9676786" lon="17.7162793">
        <ele>28.0155</ele>
        <time>2013-03-08T18:05:15Z</time>
      </trkpt>
      <trkpt lat="59.96767" lon="17.7162578">
        <ele>28.0155</ele>
        <time>2013-03-08T18:05:16Z</time>
      </trkpt>
      <trkpt lat="59.9676619" lon="17.7162361">
        <ele>28.0155</ele>
        <time>2013-03-08T18:05:17Z</time>
      </trkpt>
      <trkpt lat="59.9676543" lon="17.7162138">
        <ele>28.0155</ele>
        <time>2013-03-08T18:05:18Z</time>
      </trkpt>
      <trkpt lat="59.9676476" lon="17.7161915">
        <ele>28.0155</ele>
        <time>2013-03-08T18:05:19Z</time>
      </trkpt>
      <trkpt lat="59.9676414" lon="17.7161693">
        <ele>28.0155</ele>
        <time>2013-03-08T18:05:20Z</time>
      </trkpt>
      <trkpt lat="59.967634" lon="17.7161494">
        <ele>28.0155</ele>
        <time>2013-03-08T18:05:21Z</time>
      </trkpt>
      <trkpt lat="59.9676262" lon="17.7161288">
        <ele>27.5349</ele>
        <time>2013-03-08T18:05:22Z</time>
      </trkpt>
      <trkpt lat="59.9676191" lon="17.7161067">
        <ele>27.5349</ele>
        <time>2013-03-08T18:05:23Z</time>
      </trkpt>
      <trkpt lat="59.9676119" lon="17.7160838">
        <ele>27.5349</ele>
        <time>2013-03-08T18:05:24Z</time>
      </trkpt>
      <trkpt lat="59.9676046" lon="17.716062">
        <ele>27.5349</ele>
        <time>2013-03-08T18:05:25Z</time>
      </trkpt>
      <trkpt lat="59.9675977" lon="17.7160408">
        <ele>27.5349</ele>
        <time>2013-03-08T18:05:26Z</time>
      </trkpt>
      <trkpt lat="59.967591" lon="17.7160189">
        <ele>27.5349</ele>
        <time>2013-03-08T18:05:27Z</time>
      </trkpt>
      <trkpt lat="59.967585" lon="17.7159978">
        <ele>27.5349</ele>
        <time>2013-03-08T18:05:28Z</time>
      </trkpt>
      <trkpt lat="59.9675793" lon="17.7159784">
        <ele>27.0543</ele>
        <time>2013-03-08T18:05:29Z</time>
      </trkpt>
      <trkpt lat="59.9675731" lon="17.7159592">
        <ele>27.0543</ele>
        <time>2013-03-08T18:05:30Z</time>
      </trkpt>
      <trkpt lat="59.9675669" lon="17.7159388">
        <ele>27.0543</ele>
        <time>2013-03-08T18:05:31Z</time>
      </trkpt>
      <trkpt lat="59.9675611" lon="17.7159171">
        <ele>27.0543</ele>
        <time>2013-03-08T18:05:32Z</time>
      </trkpt>
      <trkpt lat="59.967556" lon="17.7158953">
        <ele>27.0543</ele>
        <time>2013-03-08T18:05:33Z</time>
      </trkpt>
      <trkpt lat="59.9675506" lon="17.7158727">
        <ele>27.0543</ele>
        <time>2013-03-08T18:05:34Z</time>
      </trkpt>
      <trkpt lat="59.9675444" lon="17.7158502">
        <ele>27.0543</ele>
        <time>2013-03-08T18:05:35Z</time>
      </trkpt>
      <trkpt lat="59.9675374" lon="17.7158282">
        <ele>26.5736</ele>
        <time>2013-03-08T18:05:36Z</time>
      </trkpt>
      <trkpt lat="59.9675331" lon="17.7158043">
        <ele>26.5736</ele>
        <time>2013-03-08T18:05:37Z</time>
      </trkpt>
      <trkpt lat="59.9675273" lon="17.7157797">
        <ele>26.5736</ele>
        <time>2013-03-08T18:05:38Z</time>
      </trkpt>
      <trkpt lat="59.9675203" lon="17.7157558">
        <ele>26.0929</ele>
        <time>2013-03-08T18:05:39Z</time>
      </trkpt>
      <trkpt lat="59.9675149" lon="17.7157316">
        <ele>26.0929</ele>
        <time>2013-03-08T18:05:40Z</time>
      </trkpt>
      <trkpt lat="59.9675104" lon="17.7157059">
        <ele>26.0929</ele>
        <time>2013-03-08T18:05:41Z</time>
      </trkpt>
      <trkpt lat="59.9675057" lon="17.7156802">
        <ele>26.0929</ele>
        <time>2013-03-08T18:05:42Z</time>
      </trkpt>
      <trkpt lat="59.9675014" lon="17.7156544">
        <ele>26.0929</ele>
        <time>2013-03-08T18:05:43Z</time>
      </trkpt>
      <trkpt lat="59.9674967" lon="17.7156278">
        <ele>25.6123</ele>
        <time>2013-03-08T18:05:44Z</time>
      </trkpt>
      <trkpt lat="59.9674913" lon="17.7156018">
        <ele>25.6123</ele>
        <time>2013-03-08T18:05:45Z</time>
      </trkpt>
      <trkpt lat="59.9674866" lon="17.7155764">
        <ele>25.6123</ele>
        <time>2013-03-08T18:05:46Z</time>
      </trkpt>
      <trkpt lat="59.9674822" lon="17.7155506">
        <ele>25.6123</ele>
        <time>2013-03-08T18:05:47Z</time>
      </trkpt>
      <trkpt lat="59.9674781" lon="17.7155243">
        <ele>25.6123</ele>
        <time>2013-03-08T18:05:48Z</time>
      </trkpt>
      <trkpt lat="59.9674744" lon="17.7154994">
        <ele>25.6123</ele>
        <time>2013-03-08T18:05:49Z</time>
      </trkpt>
      <trkpt lat="59.96747" lon="17.7154749">
        <ele>25.6123</ele>
        <time>2013-03-08T18:05:50Z</time>
      </trkpt>
      <trkpt lat="59.9674654" lon="17.7154508">
        <ele>25.6123</ele>
        <time>2013-03-08T18:05:51Z</time>
      </trkpt>
      <trkpt lat="59.967461" lon="17.7154267">
        <ele>25.6123</ele>
        <time>2013-03-08T18:05:52Z</time>
      </trkpt>
      <trkpt lat="59.9674575" lon="17.7154032">
        <ele>25.6123</ele>
        <time>2013-03-08T18:05:53Z</time>
      </trkpt>
      <trkpt lat="59.9674545" lon="17.7153793">
        <ele>25.6123</ele>
        <time>2013-03-08T18:05:54Z</time>
      </trkpt>
      <trkpt lat="59.9674509" lon="17.7153559">
        <ele>25.6123</ele>
        <time>2013-03-08T18:05:55Z</time>
      </trkpt>
      <trkpt lat="59.967446" lon="17.7153332">
        <ele>25.6123</ele>
        <time>2013-03-08T18:05:56Z</time>
      </trkpt>
      <trkpt lat="59.9674394" lon="17.7153102">
        <ele>25.6123</ele>
        <time>2013-03-08T18:05:57Z</time>
      </trkpt>
      <trkpt lat="59.9674343" lon="17.7152869">
        <ele>25.6123</ele>
        <time>2013-03-08T18:05:58Z</time>
      </trkpt>
      <trkpt lat="59.9674311" lon="17.7152618">
        <ele>25.6123</ele>
        <time>2013-03-08T18:05:59Z</time>
      </trkpt>
      <trkpt lat="59.9674263" lon="17.715242">
        <ele>25.1317</ele>
        <time>2013-03-08T18:06:00Z</time>
      </trkpt>
      <trkpt lat="59.9674211" lon="17.7152214">
        <ele>25.1317</ele>
        <time>2013-03-08T18:06:01Z</time>
      </trkpt>
      <trkpt lat="59.9674166" lon="17.7152031">
        <ele>25.1317</ele>
        <time>2013-03-08T18:06:02Z</time>
      </trkpt>
      <trkpt lat="59.967414" lon="17.7151845">
        <ele>25.1317</ele>
        <time>2013-03-08T18:06:03Z</time>
      </trkpt>
      <trkpt lat="59.9674081" lon="17.7151575">
        <ele>24.651</ele>
        <time>2013-03-08T18:06:04Z</time>
      </trkpt>
      <trkpt lat="59.9674029" lon="17.7151285">
        <ele>23.6896</ele>
        <time>2013-03-08T18:06:05Z</time>
      </trkpt>
      <trkpt lat="59.9673965" lon="17.7151002">
        <ele>22.7283</ele>
        <time>2013-03-08T18:06:06Z</time>
      </trkpt>
      <trkpt lat="59.9673923" lon="17.7150772">
        <ele>22.7283</ele>
        <time>2013-03-08T18:06:07Z</time>
      </trkpt>
      <trkpt lat="59.9673874" lon="17.7150512">
        <ele>22.7283</ele>
        <time>2013-03-08T18:06:08Z</time>
      </trkpt>
      <trkpt lat="59.9673813" lon="17.7150306">
        <ele>22.7283</ele>
        <time>2013-03-08T18:06:09Z</time>
      </trkpt>
      <trkpt lat="59.9673741" lon="17.7150074">
        <ele>21.767</ele>
        <time>2013-03-08T18:06:10Z</time>
      </trkpt>
      <trkpt lat="59.9673673" lon="17.7149753">
        <ele>21.2864</ele>
        <time>2013-03-08T18:06:11Z</time>
      </trkpt>
      <trkpt lat="59.9673616" lon="17.7149439">
        <ele>21.2864</ele>
        <time>2013-03-08T18:06:12Z</time>
      </trkpt>
      <trkpt lat="59.9673543" lon="17.7149207">
        <ele>20.8057</ele>
        <time>2013-03-08T18:06:13Z</time>
      </trkpt>
      <trkpt lat="59.9673508" lon="17.7148929">
        <ele>21.2864</ele>
        <time>2013-03-08T18:06:14Z</time>
      </trkpt>
      <trkpt lat="59.9673497" lon="17.7148654">
        <ele>21.767</ele>
        <time>2013-03-08T18:06:15Z</time>
      </trkpt>
      <trkpt lat="59.967348" lon="17.7148374">
        <ele>22.2476</ele>
        <time>2013-03-08T18:06:16Z</time>
      </trkpt>
      <trkpt lat="59.9673466" lon="17.7148083">
        <ele>22.7283</ele>
        <time>2013-03-08T18:06:17Z</time>
      </trkpt>
      <trkpt lat="59.967344" lon="17.7147809">
        <ele>22.7283</ele>
        <time>2013-03-08T18:06:18Z</time>
      </trkpt>
      <trkpt lat="59.9673397" lon="17.7147541">
        <ele>22.7283</ele>
        <time>2013-03-08T18:06:19Z</time>
      </trkpt>
      <trkpt lat="59.9673368" lon="17.7147291">
        <ele>23.209</ele>
        <time>2013-03-08T18:06:20Z</time>
      </trkpt>
      <trkpt lat="59.9673341" lon="17.7147052">
        <ele>23.209</ele>
        <time>2013-03-08T18:06:21Z</time>
      </trkpt>
      <trkpt lat="59.9673321" lon="17.7146815">
        <ele>23.209</ele>
        <time>2013-03-08T18:06:22Z</time>
      </trkpt>
      <trkpt lat="59.9673295" lon="17.7146572">
        <ele>23.209</ele>
        <time>2013-03-08T18:06:23Z</time>
      </trkpt>
      <trkpt lat="59.9673255" lon="17.7146318">
        <ele>23.209</ele>
        <time>2013-03-08T18:06:24Z</time>
      </trkpt>
      <trkpt lat="59.9673223" lon="17.7146069">
        <ele>23.6896</ele>
        <time>2013-03-08T18:06:25Z</time>
      </trkpt>
      <trkpt lat="59.9673193" lon="17.7145824">
        <ele>23.6896</ele>
        <time>2013-03-08T18:06:26Z</time>
      </trkpt>
      <trkpt lat="59.9673165" lon="17.7145577">
        <ele>23.6896</ele>
        <time>2013-03-08T18:06:27Z</time>
      </trkpt>
      <trkpt lat="59.9673144" lon="17.7145331">
        <ele>23.6896</ele>
        <time>2013-03-08T18:06:28Z</time>
      </trkpt>
      <trkpt lat="59.967312" lon="17.7145088">
        <ele>23.6896</ele>
        <time>2013-03-08T18:06:29Z</time>
      </trkpt>
      <trkpt lat="59.9673087" lon="17.7144841">
        <ele>24.1703</ele>
        <time>2013-03-08T18:06:30Z</time>
      </trkpt>
      <trkpt lat="59.9673043" lon="17.7144576">
        <ele>24.1703</ele>
        <time>2013-03-08T18:06:31Z</time>
      </trkpt>
      <trkpt lat="59.9673005" lon="17.7144319">
        <ele>24.1703</ele>
        <time>2013-03-08T18:06:32Z</time>
      </trkpt>
      <trkpt lat="59.9672972" lon="17.7144074">
        <ele>24.1703</ele>
        <time>2013-03-08T18:06:33Z</time>
      </trkpt>
      <trkpt lat="59.9672936" lon="17.7143821">
        <ele>24.1703</ele>
        <time>2013-03-08T18:06:34Z</time>
      </trkpt>
      <trkpt lat="59.9672902" lon="17.7143581">
        <ele>24.1703</ele>
        <time>2013-03-08T18:06:35Z</time>
      </trkpt>
      <trkpt lat="59.9672866" lon="17.7143339">
        <ele>24.1703</ele>
        <time>2013-03-08T18:06:36Z</time>
      </trkpt>
      <trkpt lat="59.9672833" lon="17.7143092">
        <ele>24.1703</ele>
        <time>2013-03-08T18:06:37Z</time>
      </trkpt>
      <trkpt lat="59.9672797" lon="17.7142837">
        <ele>24.1703</ele>
        <time>2013-03-08T18:06:38Z</time>
      </trkpt>
      <trkpt lat="59.9672761" lon="17.7142571">
        <ele>24.1703</ele>
        <time>2013-03-08T18:06:39Z</time>
      </trkpt>
      <trkpt lat="59.9672741" lon="17.7142334">
        <ele>24.1703</ele>
        <time>2013-03-08T18:06:40Z</time>
      </trkpt>
      <trkpt lat="59.9672716" lon="17.7142094">
        <ele>24.1703</ele>
        <time>2013-03-08T18:06:41Z</time>
      </trkpt>
      <trkpt lat="59.9672685" lon="17.7141856">
        <ele>24.1703</ele>
        <time>2013-03-08T18:06:42Z</time>
      </trkpt>
      <trkpt lat="59.9672648" lon="17.7141604">
        <ele>24.651</ele>
        <time>2013-03-08T18:06:43Z</time>
      </trkpt>
      <trkpt lat="59.9672608" lon="17.7141336">
        <ele>24.651</ele>
        <time>2013-03-08T18:06:44Z</time>
      </trkpt>
      <trkpt lat="59.9672571" lon="17.7141081">
        <ele>24.651</ele>
        <time>2013-03-08T18:06:45Z</time>
      </trkpt>
      <trkpt lat="59.9672534" lon="17.7140842">
        <ele>24.651</ele>
        <time>2013-03-08T18:06:46Z</time>
      </trkpt>
      <trkpt lat="59.9672496" lon="17.7140602">
        <ele>24.651</ele>
        <time>2013-03-08T18:06:47Z</time>
      </trkpt>
      <trkpt lat="59.9672462" lon="17.7140358">
        <ele>24.651</ele>
        <time>2013-03-08T18:06:48Z</time>
      </trkpt>
      <trkpt lat="59.9672435" lon="17.7140097">
        <ele>25.1317</ele>
        <time>2013-03-08T18:06:49Z</time>
      </trkpt>
      <trkpt lat="59.9672413" lon="17.7139849">
        <ele>25.1317</ele>
        <time>2013-03-08T18:06:50Z</time>
      </trkpt>
      <trkpt lat="59.9672384" lon="17.7139604">
        <ele>25.1317</ele>
        <time>2013-03-08T18:06:51Z</time>
      </trkpt>
      <trkpt lat="59.9672347" lon="17.7139362">
        <ele>25.1317</ele>
        <time>2013-03-08T18:06:52Z</time>
      </trkpt>
      <trkpt lat="59.9672315" lon="17.7139115">
        <ele>25.6123</ele>
        <time>2013-03-08T18:06:53Z</time>
      </trkpt>
      <trkpt lat="59.9672288" lon="17.7138869">
        <ele>25.6123</ele>
        <time>2013-03-08T18:06:54Z</time>
      </trkpt>
      <trkpt lat="59.9672255" lon="17.7138628">
        <ele>25.6123</ele>
        <time>2013-03-08T18:06:55Z</time>
      </trkpt>
      <trkpt lat="59.9672223" lon="17.7138386">
        <ele>25.6123</ele>
        <time>2013-03-08T18:06:56Z</time>
      </trkpt>
      <trkpt lat="59.9672195" lon="17.7138145">
        <ele>25.6123</ele>
        <time>2013-03-08T18:06:57Z</time>
      </trkpt>
      <trkpt lat="59.9672161" lon="17.7137905">
        <ele>25.6123</ele>
        <time>2013-03-08T18:06:58Z</time>
      </trkpt>
      <trkpt lat="59.9672118" lon="17.7137662">
        <ele>26.0929</ele>
        <time>2013-03-08T18:06:59Z</time>
      </trkpt>
      <trkpt lat="59.9672071" lon="17.7137433">
        <ele>26.0929</ele>
        <time>2013-03-08T18:07:00Z</time>
      </trkpt>
      <trkpt lat="59.9672024" lon="17.7137206">
        <ele>26.0929</ele>
        <time>2013-03-08T18:07:01Z</time>
      </trkpt>
      <trkpt lat="59.9671984" lon="17.7136968">
        <ele>26.0929</ele>
        <time>2013-03-08T18:07:02Z</time>
      </trkpt>
      <trkpt lat="59.967195" lon="17.7136727">
        <ele>26.0929</ele>
        <time>2013-03-08T18:07:03Z</time>
      </trkpt>
      <trkpt lat="59.9671913" lon="17.7136486">
        <ele>26.0929</ele>
        <time>2013-03-08T18:07:04Z</time>
      </trkpt>
      <trkpt lat="59.9671869" lon="17.7136242">
        <ele>26.5736</ele>
        <time>2013-03-08T18:07:05Z</time>
      </trkpt>
      <trkpt lat="59.9671824" lon="17.7135992">
        <ele>26.5736</ele>
        <time>2013-03-08T18:07:06Z</time>
      </trkpt>
      <trkpt lat="59.9671784" lon="17.7135753">
        <ele>26.5736</ele>
        <time>2013-03-08T18:07:07Z</time>
      </trkpt>
      <trkpt lat="59.9671748" lon="17.7135512">
        <ele>26.5736</ele>
        <time>2013-03-08T18:07:08Z</time>
      </trkpt>
      <trkpt lat="59.967171" lon="17.7135264">
        <ele>26.5736</ele>
        <time>2013-03-08T18:07:09Z</time>
      </trkpt>
      <trkpt lat="59.9671665" lon="17.7135034">
        <ele>26.5736</ele>
        <time>2013-03-08T18:07:10Z</time>
      </trkpt>
      <trkpt lat="59.9671611" lon="17.7134803">
        <ele>27.0543</ele>
        <time>2013-03-08T18:07:11Z</time>
      </trkpt>
      <trkpt lat="59.9671559" lon="17.7134569">
        <ele>27.0543</ele>
        <time>2013-03-08T18:07:12Z</time>
      </trkpt>
      <trkpt lat="59.9671512" lon="17.7134334">
        <ele>27.0543</ele>
        <time>2013-03-08T18:07:13Z</time>
      </trkpt>
      <trkpt lat="59.9671465" lon="17.7134106">
        <ele>27.0543</ele>
        <time>2013-03-08T18:07:14Z</time>
      </trkpt>
      <trkpt lat="59.9671418" lon="17.713389">
        <ele>27.0543</ele>
        <time>2013-03-08T18:07:15Z</time>
      </trkpt>
      <trkpt lat="59.9671372" lon="17.7133679">
        <ele>27.0543</ele>
        <time>2013-03-08T18:07:16Z</time>
      </trkpt>
      <trkpt lat="59.9671323" lon="17.7133457">
        <ele>27.5349</ele>
        <time>2013-03-08T18:07:17Z</time>
      </trkpt>
      <trkpt lat="59.9671273" lon="17.7133228">
        <ele>27.5349</ele>
        <time>2013-03-08T18:07:18Z</time>
      </trkpt>
      <trkpt lat="59.9671228" lon="17.7132996">
        <ele>27.5349</ele>
        <time>2013-03-08T18:07:19Z</time>
      </trkpt>
      <trkpt lat="59.9671187" lon="17.713276">
        <ele>27.5349</ele>
        <time>2013-03-08T18:07:20Z</time>
      </trkpt>
      <trkpt lat="59.9671144" lon="17.7132522">
        <ele>27.5349</ele>
        <time>2013-03-08T18:07:21Z</time>
      </trkpt>
      <trkpt lat="59.9671098" lon="17.7132288">
        <ele>27.5349</ele>
        <time>2013-03-08T18:07:22Z</time>
      </trkpt>
      <trkpt lat="59.9671047" lon="17.7132057">
        <ele>27.5349</ele>
        <time>2013-03-08T18:07:23Z</time>
      </trkpt>
      <trkpt lat="59.9670993" lon="17.7131824">
        <ele>28.0155</ele>
        <time>2013-03-08T18:07:24Z</time>
      </trkpt>
      <trkpt lat="59.9670947" lon="17.7131584">
        <ele>28.0155</ele>
        <time>2013-03-08T18:07:25Z</time>
      </trkpt>
      <trkpt lat="59.9670901" lon="17.713135">
        <ele>28.0155</ele>
        <time>2013-03-08T18:07:26Z</time>
      </trkpt>
      <trkpt lat="59.9670843" lon="17.7131119">
        <ele>28.0155</ele>
        <time>2013-03-08T18:07:27Z</time>
      </trkpt>
      <trkpt lat="59.9670782" lon="17.713089">
        <ele>28.0155</ele>
        <time>2013-03-08T18:07:28Z</time>
      </trkpt>
      <trkpt lat="59.9670725" lon="17.7130656">
        <ele>28.4962</ele>
        <time>2013-03-08T18:07:29Z</time>
      </trkpt>
      <trkpt lat="59.9670672" lon="17.7130413">
        <ele>28.4962</ele>
        <time>2013-03-08T18:07:30Z</time>
      </trkpt>
      <trkpt lat="59.9670627" lon="17.7130166">
        <ele>28.4962</ele>
        <time>2013-03-08T18:07:31Z</time>
      </trkpt>
      <trkpt lat="59.967058" lon="17.7129924">
        <ele>28.4962</ele>
        <time>2013-03-08T18:07:32Z</time>
      </trkpt>
      <trkpt lat="59.9670524" lon="17.7129683">
        <ele>28.4962</ele>
        <time>2013-03-08T18:07:33Z</time>
      </trkpt>
      <trkpt lat="59.9670467" lon="17.7129436">
        <ele>28.4962</ele>
        <time>2013-03-08T18:07:34Z</time>
      </trkpt>
      <trkpt lat="59.9670414" lon="17.7129197">
        <ele>28.4962</ele>
        <time>2013-03-08T18:07:35Z</time>
      </trkpt>
      <trkpt lat="59.9670358" lon="17.7128963">
        <ele>28.9769</ele>
        <time>2013-03-08T18:07:36Z</time>
      </trkpt>
      <trkpt lat="59.9670299" lon="17.7128732">
        <ele>28.9769</ele>
        <time>2013-03-08T18:07:37Z</time>
      </trkpt>
      <trkpt lat="59.9670242" lon="17.7128498">
        <ele>28.9769</ele>
        <time>2013-03-08T18:07:38Z</time>
      </trkpt>
      <trkpt lat="59.9670191" lon="17.7128255">
        <ele>28.9769</ele>
        <time>2013-03-08T18:07:39Z</time>
      </trkpt>
      <trkpt lat="59.9670141" lon="17.7128014">
        <ele>28.9769</ele>
        <time>2013-03-08T18:07:40Z</time>
      </trkpt>
      <trkpt lat="59.9670085" lon="17.7127778">
        <ele>28.9769</ele>
        <time>2013-03-08T18:07:41Z</time>
      </trkpt>
      <trkpt lat="59.9670025" lon="17.7127548">
        <ele>28.9769</ele>
        <time>2013-03-08T18:07:42Z</time>
      </trkpt>
      <trkpt lat="59.9669963" lon="17.7127317">
        <ele>28.9769</ele>
        <time>2013-03-08T18:07:43Z</time>
      </trkpt>
      <trkpt lat="59.9669908" lon="17.7127082">
        <ele>28.9769</ele>
        <time>2013-03-08T18:07:44Z</time>
      </trkpt>
      <trkpt lat="59.966986" lon="17.7126846">
        <ele>28.9769</ele>
        <time>2013-03-08T18:07:45Z</time>
      </trkpt>
      <trkpt lat="59.9669805" lon="17.7126613">
        <ele>29.4575</ele>
        <time>2013-03-08T18:07:46Z</time>
      </trkpt>
      <trkpt lat="59.9669747" lon="17.7126389">
        <ele>29.4575</ele>
        <time>2013-03-08T18:07:47Z</time>
      </trkpt>
      <trkpt lat="59.9669689" lon="17.712617">
        <ele>29.4575</ele>
        <time>2013-03-08T18:07:48Z</time>
      </trkpt>
      <trkpt lat="59.9669633" lon="17.7125948">
        <ele>29.4575</ele>
        <time>2013-03-08T18:07:49Z</time>
      </trkpt>
      <trkpt lat="59.9669581" lon="17.7125725">
        <ele>29.4575</ele>
        <time>2013-03-08T18:07:50Z</time>
      </trkpt>
      <trkpt lat="59.9669533" lon="17.7125505">
        <ele>29.4575</ele>
        <time>2013-03-08T18:07:51Z</time>
      </trkpt>
      <trkpt lat="59.9669479" lon="17.7125282">
        <ele>29.4575</ele>
        <time>2013-03-08T18:07:52Z</time>
      </trkpt>
      <trkpt lat="59.9669426" lon="17.7125053">
        <ele>29.4575</ele>
        <time>2013-03-08T18:07:53Z</time>
      </trkpt>
      <trkpt lat="59.9669374" lon="17.7124825">
        <ele>29.4575</ele>
        <time>2013-03-08T18:07:54Z</time>
      </trkpt>
      <trkpt lat="59.9669326" lon="17.7124602">
        <ele>29.4575</ele>
        <time>2013-03-08T18:07:55Z</time>
      </trkpt>
      <trkpt lat="59.9669275" lon="17.7124385">
        <ele>29.4575</ele>
        <time>2013-03-08T18:07:56Z</time>
      </trkpt>
      <trkpt lat="59.9669217" lon="17.7124178">
        <ele>29.9381</ele>
        <time>2013-03-08T18:07:57Z</time>
      </trkpt>
      <trkpt lat="59.9669155" lon="17.7123971">
        <ele>29.9381</ele>
        <time>2013-03-08T18:07:58Z</time>
      </trkpt>
      <trkpt lat="59.9669093" lon="17.7123754">
        <ele>29.9381</ele>
        <time>2013-03-08T18:07:59Z</time>
      </trkpt>
      <trkpt lat="59.9669028" lon="17.7123542">
        <ele>29.9381</ele>
        <time>2013-03-08T18:08:00Z</time>
      </trkpt>
      <trkpt lat="59.9668961" lon="17.7123343">
        <ele>29.9381</ele>
        <time>2013-03-08T18:08:01Z</time>
      </trkpt>
      <trkpt lat="59.966889" lon="17.7123148">
        <ele>29.9381</ele>
        <time>2013-03-08T18:08:02Z</time>
      </trkpt>
      <trkpt lat="59.9668818" lon="17.7122957">
        <ele>29.4575</ele>
        <time>2013-03-08T18:08:03Z</time>
      </trkpt>
      <trkpt lat="59.9668745" lon="17.7122763">
        <ele>29.4575</ele>
        <time>2013-03-08T18:08:04Z</time>
      </trkpt>
      <trkpt lat="59.9668673" lon="17.712256">
        <ele>29.4575</ele>
        <time>2013-03-08T18:08:05Z</time>
      </trkpt>
      <trkpt lat="59.9668607" lon="17.7122355">
        <ele>29.4575</ele>
        <time>2013-03-08T18:08:06Z</time>
      </trkpt>
      <trkpt lat="59.9668545" lon="17.7122153">
        <ele>29.4575</ele>
        <time>2013-03-08T18:08:07Z</time>
      </trkpt>
      <trkpt lat="59.9668481" lon="17.7121962">
        <ele>29.4575</ele>
        <time>2013-03-08T18:08:08Z</time>
      </trkpt>
      <trkpt lat="59.966841" lon="17.7121769">
        <ele>29.4575</ele>
        <time>2013-03-08T18:08:09Z</time>
      </trkpt>
      <trkpt lat="59.9668334" lon="17.7121577">
        <ele>29.4575</ele>
        <time>2013-03-08T18:08:10Z</time>
      </trkpt>
      <trkpt lat="59.9668251" lon="17.7121394">
        <ele>28.9769</ele>
        <time>2013-03-08T18:08:11Z</time>
      </trkpt>
      <trkpt lat="59.9668166" lon="17.7121205">
        <ele>28.9769</ele>
        <time>2013-03-08T18:08:12Z</time>
      </trkpt>
      <trkpt lat="59.9668083" lon="17.7121012">
        <ele>28.9769</ele>
        <time>2013-03-08T18:08:13Z</time>
      </trkpt>
      <trkpt lat="59.966801" lon="17.7120805">
        <ele>28.9769</ele>
        <time>2013-03-08T18:08:14Z</time>
      </trkpt>
      <trkpt lat="59.9667945" lon="17.7120583">
        <ele>28.9769</ele>
        <time>2013-03-08T18:08:15Z</time>
      </trkpt>
      <trkpt lat="59.9667883" lon="17.7120365">
        <ele>28.9769</ele>
        <time>2013-03-08T18:08:16Z</time>
      </trkpt>
      <trkpt lat="59.9667819" lon="17.7120156">
        <ele>28.9769</ele>
        <time>2013-03-08T18:08:17Z</time>
      </trkpt>
      <trkpt lat="59.9667754" lon="17.7119941">
        <ele>28.9769</ele>
        <time>2013-03-08T18:08:18Z</time>
      </trkpt>
      <trkpt lat="59.9667685" lon="17.7119729">
        <ele>28.4962</ele>
        <time>2013-03-08T18:08:19Z</time>
      </trkpt>
      <trkpt lat="59.9667612" lon="17.7119509">
        <ele>28.4962</ele>
        <time>2013-03-08T18:08:20Z</time>
      </trkpt>
      <trkpt lat="59.9667543" lon="17.7119276">
        <ele>28.4962</ele>
        <time>2013-03-08T18:08:21Z</time>
      </trkpt>
      <trkpt lat="59.9667478" lon="17.7119043">
        <ele>28.4962</ele>
        <time>2013-03-08T18:08:22Z</time>
      </trkpt>
      <trkpt lat="59.9667411" lon="17.7118817">
        <ele>28.4962</ele>
        <time>2013-03-08T18:08:23Z</time>
      </trkpt>
      <trkpt lat="59.9667338" lon="17.7118593">
        <ele>28.4962</ele>
        <time>2013-03-08T18:08:24Z</time>
      </trkpt>
      <trkpt lat="59.9667262" lon="17.7118379">
        <ele>28.4962</ele>
        <time>2013-03-08T18:08:25Z</time>
      </trkpt>
      <trkpt lat="59.9667178" lon="17.7118177">
        <ele>28.4962</ele>
        <time>2013-03-08T18:08:26Z</time>
      </trkpt>
      <trkpt lat="59.9667094" lon="17.7117972">
        <ele>28.4962</ele>
        <time>2013-03-08T18:08:27Z</time>
      </trkpt>
      <trkpt lat="59.9667017" lon="17.7117758">
        <ele>28.0155</ele>
        <time>2013-03-08T18:08:28Z</time>
      </trkpt>
      <trkpt lat="59.9666951" lon="17.7117527">
        <ele>28.0155</ele>
        <time>2013-03-08T18:08:29Z</time>
      </trkpt>
      <trkpt lat="59.9666889" lon="17.7117295">
        <ele>28.0155</ele>
        <time>2013-03-08T18:08:30Z</time>
      </trkpt>
      <trkpt lat="59.9666824" lon="17.711708">
        <ele>28.0155</ele>
        <time>2013-03-08T18:08:31Z</time>
      </trkpt>
      <trkpt lat="59.9666758" lon="17.7116873">
        <ele>28.0155</ele>
        <time>2013-03-08T18:08:32Z</time>
      </trkpt>
      <trkpt lat="59.9666713" lon="17.7116649">
        <ele>28.0155</ele>
        <time>2013-03-08T18:08:33Z</time>
      </trkpt>
      <trkpt lat="59.966668" lon="17.711639">
        <ele>28.4962</ele>
        <time>2013-03-08T18:08:34Z</time>
      </trkpt>
      <trkpt lat="59.9666668" lon="17.7116127">
        <ele>28.4962</ele>
        <time>2013-03-08T18:08:35Z</time>
      </trkpt>
      <trkpt lat="59.9666649" lon="17.7115875">
        <ele>28.4962</ele>
        <time>2013-03-08T18:08:36Z</time>
      </trkpt>
      <trkpt lat="59.9666613" lon="17.7115639">
        <ele>28.9769</ele>
        <time>2013-03-08T18:08:37Z</time>
      </trkpt>
      <trkpt lat="59.9666565" lon="17.7115402">
        <ele>28.9769</ele>
        <time>2013-03-08T18:08:38Z</time>
      </trkpt>
      <trkpt lat="59.9666509" lon="17.7115154">
        <ele>28.4962</ele>
        <time>2013-03-08T18:08:39Z</time>
      </trkpt>
      <trkpt lat="59.9666453" lon="17.7114911">
        <ele>28.4962</ele>
        <time>2013-03-08T18:08:40Z</time>
      </trkpt>
      <trkpt lat="59.966639" lon="17.7114679">
        <ele>28.4962</ele>
        <time>2013-03-08T18:08:41Z</time>
      </trkpt>
      <trkpt lat="59.9666319" lon="17.7114465">
        <ele>28.4962</ele>
        <time>2013-03-08T18:08:42Z</time>
      </trkpt>
      <trkpt lat="59.9666255" lon="17.7114248">
        <ele>28.0155</ele>
        <time>2013-03-08T18:08:43Z</time>
      </trkpt>
      <trkpt lat="59.9666183" lon="17.7114009">
        <ele>28.0155</ele>
        <time>2013-03-08T18:08:44Z</time>
      </trkpt>
      <trkpt lat="59.966611" lon="17.7113775">
        <ele>28.0155</ele>
        <time>2013-03-08T18:08:45Z</time>
      </trkpt>
      <trkpt lat="59.9666037" lon="17.7113541">
        <ele>28.0155</ele>
        <time>2013-03-08T18:08:46Z</time>
      </trkpt>
      <trkpt lat="59.9665953" lon="17.7113304">
        <ele>27.5349</ele>
        <time>2013-03-08T18:08:47Z</time>
      </trkpt>
      <trkpt lat="59.9665873" lon="17.7113076">
        <ele>27.5349</ele>
        <time>2013-03-08T18:08:48Z</time>
      </trkpt>
      <trkpt lat="59.9665805" lon="17.7112849">
        <ele>27.5349</ele>
        <time>2013-03-08T18:08:49Z</time>
      </trkpt>
      <trkpt lat="59.9665739" lon="17.7112631">
        <ele>27.0543</ele>
        <time>2013-03-08T18:08:50Z</time>
      </trkpt>
      <trkpt lat="59.9665676" lon="17.7112418">
        <ele>26.5736</ele>
        <time>2013-03-08T18:08:51Z</time>
      </trkpt>
      <trkpt lat="59.9665613" lon="17.7112205">
        <ele>26.5736</ele>
        <time>2013-03-08T18:08:52Z</time>
      </trkpt>
      <trkpt lat="59.9665551" lon="17.7112011">
        <ele>26.0929</ele>
        <time>2013-03-08T18:08:53Z</time>
      </trkpt>
      <trkpt lat="59.9665489" lon="17.7111799">
        <ele>26.0929</ele>
        <time>2013-03-08T18:08:54Z</time>
      </trkpt>
      <trkpt lat="59.9665425" lon="17.7111567">
        <ele>26.0929</ele>
        <time>2013-03-08T18:08:55Z</time>
      </trkpt>
      <trkpt lat="59.9665361" lon="17.7111356">
        <ele>26.0929</ele>
        <time>2013-03-08T18:08:56Z</time>
      </trkpt>
      <trkpt lat="59.9665293" lon="17.711114">
        <ele>26.0929</ele>
        <time>2013-03-08T18:08:57Z</time>
      </trkpt>
      <trkpt lat="59.966523" lon="17.7110923">
        <ele>25.6123</ele>
        <time>2013-03-08T18:08:58Z</time>
      </trkpt>
      <trkpt lat="59.9665171" lon="17.7110699">
        <ele>25.6123</ele>
        <time>2013-03-08T18:08:59Z</time>
      </trkpt>
      <trkpt lat="59.9665095" lon="17.7110471">
        <ele>25.6123</ele>
        <time>2013-03-08T18:09:00Z</time>
      </trkpt>
      <trkpt lat="59.9665026" lon="17.7110257">
        <ele>25.6123</ele>
        <time>2013-03-08T18:09:01Z</time>
      </trkpt>
      <trkpt lat="59.9664965" lon="17.7110021">
        <ele>25.1317</ele>
        <time>2013-03-08T18:09:02Z</time>
      </trkpt>
      <trkpt lat="59.9664882" lon="17.7109772">
        <ele>25.6123</ele>
        <time>2013-03-08T18:09:03Z</time>
      </trkpt>
      <trkpt lat="59.9664801" lon="17.7109544">
        <ele>25.6123</ele>
        <time>2013-03-08T18:09:04Z</time>
      </trkpt>
      <trkpt lat="59.9664727" lon="17.7109368">
        <ele>25.6123</ele>
        <time>2013-03-08T18:09:05Z</time>
      </trkpt>
      <trkpt lat="59.9664646" lon="17.7109205">
        <ele>25.6123</ele>
        <time>2013-03-08T18:09:06Z</time>
      </trkpt>
      <trkpt lat="59.9664597" lon="17.7109005">
        <ele>26.0929</ele>
        <time>2013-03-08T18:09:07Z</time>
      </trkpt>
      <trkpt lat="59.9664554" lon="17.7108824">
        <ele>26.0929</ele>
        <time>2013-03-08T18:09:08Z</time>
      </trkpt>
      <trkpt lat="59.9664514" lon="17.7108616">
        <ele>26.0929</ele>
        <time>2013-03-08T18:09:09Z</time>
      </trkpt>
      <trkpt lat="59.9664459" lon="17.7108341">
        <ele>26.0929</ele>
        <time>2013-03-08T18:09:10Z</time>
      </trkpt>
      <trkpt lat="59.9664422" lon="17.7108063">
        <ele>26.0929</ele>
        <time>2013-03-08T18:09:11Z</time>
      </trkpt>
      <trkpt lat="59.9664359" lon="17.710783">
        <ele>26.0929</ele>
        <time>2013-03-08T18:09:12Z</time>
      </trkpt>
      <trkpt lat="59.966428" lon="17.7107612">
        <ele>26.0929</ele>
        <time>2013-03-08T18:09:13Z</time>
      </trkpt>
      <trkpt lat="59.9664205" lon="17.7107393">
        <ele>26.0929</ele>
        <time>2013-03-08T18:09:14Z</time>
      </trkpt>
      <trkpt lat="59.9664119" lon="17.7107151">
        <ele>26.5736</ele>
        <time>2013-03-08T18:09:15Z</time>
      </trkpt>
      <trkpt lat="59.9664066" lon="17.7106931">
        <ele>26.5736</ele>
        <time>2013-03-08T18:09:16Z</time>
      </trkpt>
      <trkpt lat="59.9664013" lon="17.7106684">
        <ele>26.5736</ele>
        <time>2013-03-08T18:09:17Z</time>
      </trkpt>
      <trkpt lat="59.9663929" lon="17.7106429">
        <ele>26.5736</ele>
        <time>2013-03-08T18:09:18Z</time>
      </trkpt>
      <trkpt lat="59.9663846" lon="17.7106201">
        <ele>27.0543</ele>
        <time>2013-03-08T18:09:19Z</time>
      </trkpt>
      <trkpt lat="59.96638" lon="17.7105968">
        <ele>27.5349</ele>
        <time>2013-03-08T18:09:20Z</time>
      </trkpt>
      <trkpt lat="59.9663741" lon="17.7105715">
        <ele>28.0155</ele>
        <time>2013-03-08T18:09:21Z</time>
      </trkpt>
      <trkpt lat="59.9663693" lon="17.710545">
        <ele>28.4962</ele>
        <time>2013-03-08T18:09:22Z</time>
      </trkpt>
      <trkpt lat="59.9663666" lon="17.7105204">
        <ele>28.9769</ele>
        <time>2013-03-08T18:09:23Z</time>
      </trkpt>
      <trkpt lat="59.9663618" lon="17.7104984">
        <ele>28.9769</ele>
        <time>2013-03-08T18:09:24Z</time>
      </trkpt>
      <trkpt lat="59.9663558" lon="17.7104763">
        <ele>28.9769</ele>
        <time>2013-03-08T18:09:25Z</time>
      </trkpt>
      <trkpt lat="59.9663493" lon="17.7104535">
        <ele>28.9769</ele>
        <time>2013-03-08T18:09:26Z</time>
      </trkpt>
      <trkpt lat="59.9663433" lon="17.7104329">
        <ele>29.4575</ele>
        <time>2013-03-08T18:09:27Z</time>
      </trkpt>
      <trkpt lat="59.9663381" lon="17.7104117">
        <ele>29.4575</ele>
        <time>2013-03-08T18:09:28Z</time>
      </trkpt>
      <trkpt lat="59.9663322" lon="17.7103911">
        <ele>29.9381</ele>
        <time>2013-03-08T18:09:29Z</time>
      </trkpt>
      <trkpt lat="59.9663257" lon="17.7103702">
        <ele>29.9381</ele>
        <time>2013-03-08T18:09:30Z</time>
      </trkpt>
      <trkpt lat="59.9663189" lon="17.710349">
        <ele>29.9381</ele>
        <time>2013-03-08T18:09:31Z</time>
      </trkpt>
      <trkpt lat="59.9663122" lon="17.710325">
        <ele>29.9381</ele>
        <time>2013-03-08T18:09:32Z</time>
      </trkpt>
      <trkpt lat="59.9663064" lon="17.7103022">
        <ele>29.9381</ele>
        <time>2013-03-08T18:09:33Z</time>
      </trkpt>
      <trkpt lat="59.9663" lon="17.7102795">
        <ele>29.9381</ele>
        <time>2013-03-08T18:09:34Z</time>
      </trkpt>
      <trkpt lat="59.9662941" lon="17.7102557">
        <ele>29.9381</ele>
        <time>2013-03-08T18:09:35Z</time>
      </trkpt>
      <trkpt lat="59.9662884" lon="17.7102337">
        <ele>30.4188</ele>
        <time>2013-03-08T18:09:36Z</time>
      </trkpt>
      <trkpt lat="59.9662826" lon="17.7102133">
        <ele>30.4188</ele>
        <time>2013-03-08T18:09:37Z</time>
      </trkpt>
      <trkpt lat="59.9662767" lon="17.7101904">
        <ele>30.4188</ele>
        <time>2013-03-08T18:09:38Z</time>
      </trkpt>
      <trkpt lat="59.9662691" lon="17.7101665">
        <ele>30.8995</ele>
        <time>2013-03-08T18:09:39Z</time>
      </trkpt>
      <trkpt lat="59.9662614" lon="17.7101422">
        <ele>31.3801</ele>
        <time>2013-03-08T18:09:40Z</time>
      </trkpt>
      <trkpt lat="59.9662555" lon="17.7101189">
        <ele>31.3801</ele>
        <time>2013-03-08T18:09:41Z</time>
      </trkpt>
      <trkpt lat="59.9662494" lon="17.7100961">
        <ele>31.3801</ele>
        <time>2013-03-08T18:09:42Z</time>
      </trkpt>
      <trkpt lat="59.9662427" lon="17.7100712">
        <ele>31.8607</ele>
        <time>2013-03-08T18:09:43Z</time>
      </trkpt>
      <trkpt lat="59.9662355" lon="17.7100469">
        <ele>31.3801</ele>
        <time>2013-03-08T18:09:44Z</time>
      </trkpt>
      <trkpt lat="59.966228" lon="17.7100261">
        <ele>30.8995</ele>
        <time>2013-03-08T18:09:45Z</time>
      </trkpt>
      <trkpt lat="59.9662218" lon="17.7100069">
        <ele>30.8995</ele>
        <time>2013-03-08T18:09:46Z</time>
      </trkpt>
      <trkpt lat="59.9662154" lon="17.7099862">
        <ele>30.8995</ele>
        <time>2013-03-08T18:09:47Z</time>
      </trkpt>
      <trkpt lat="59.9662096" lon="17.7099659">
        <ele>30.4188</ele>
        <time>2013-03-08T18:09:48Z</time>
      </trkpt>
      <trkpt lat="59.9662001" lon="17.7099418">
        <ele>30.4188</ele>
        <time>2013-03-08T18:09:49Z</time>
      </trkpt>
      <trkpt lat="59.9661885" lon="17.7099187">
        <ele>29.9381</ele>
        <time>2013-03-08T18:09:50Z</time>
      </trkpt>
      <trkpt lat="59.9661807" lon="17.7098959">
        <ele>29.9381</ele>
        <time>2013-03-08T18:09:51Z</time>
      </trkpt>
      <trkpt lat="59.9661737" lon="17.7098757">
        <ele>29.9381</ele>
        <time>2013-03-08T18:09:52Z</time>
      </trkpt>
      <trkpt lat="59.9661688" lon="17.7098553">
        <ele>29.9381</ele>
        <time>2013-03-08T18:09:53Z</time>
      </trkpt>
      <trkpt lat="59.9661599" lon="17.7098334">
        <ele>29.9381</ele>
        <time>2013-03-08T18:09:54Z</time>
      </trkpt>
      <trkpt lat="59.9661537" lon="17.7098132">
        <ele>29.9381</ele>
        <time>2013-03-08T18:09:55Z</time>
      </trkpt>
      <trkpt lat="59.966148" lon="17.7097919">
        <ele>30.4188</ele>
        <time>2013-03-08T18:09:56Z</time>
      </trkpt>
      <trkpt lat="59.9661436" lon="17.7097693">
        <ele>30.4188</ele>
        <time>2013-03-08T18:09:57Z</time>
      </trkpt>
      <trkpt lat="59.9661398" lon="17.7097459">
        <ele>30.8995</ele>
        <time>2013-03-08T18:09:58Z</time>
      </trkpt>
      <trkpt lat="59.9661319" lon="17.7097183">
        <ele>30.8995</ele>
        <time>2013-03-08T18:09:59Z</time>
      </trkpt>
      <trkpt lat="59.9661239" lon="17.709691">
        <ele>30.4188</ele>
        <time>2013-03-08T18:10:00Z</time>
      </trkpt>
      <trkpt lat="59.9661165" lon="17.709666">
        <ele>30.4188</ele>
        <time>2013-03-08T18:10:01Z</time>
      </trkpt>
      <trkpt lat="59.966111" lon="17.7096428">
        <ele>30.8995</ele>
        <time>2013-03-08T18:10:02Z</time>
      </trkpt>
      <trkpt lat="59.966105" lon="17.7096185">
        <ele>30.8995</ele>
        <time>2013-03-08T18:10:03Z</time>
      </trkpt>
      <trkpt lat="59.9660972" lon="17.7095908">
        <ele>30.8995</ele>
        <time>2013-03-08T18:10:04Z</time>
      </trkpt>
      <trkpt lat="59.9660884" lon="17.7095641">
        <ele>30.8995</ele>
        <time>2013-03-08T18:10:05Z</time>
      </trkpt>
      <trkpt lat="59.9660796" lon="17.7095374">
        <ele>30.8995</ele>
        <time>2013-03-08T18:10:06Z</time>
      </trkpt>
      <trkpt lat="59.9660722" lon="17.709511">
        <ele>30.8995</ele>
        <time>2013-03-08T18:10:07Z</time>
      </trkpt>
      <trkpt lat="59.9660655" lon="17.7094858">
        <ele>30.8995</ele>
        <time>2013-03-08T18:10:08Z</time>
      </trkpt>
      <trkpt lat="59.9660588" lon="17.7094608">
        <ele>30.8995</ele>
        <time>2013-03-08T18:10:09Z</time>
      </trkpt>
      <trkpt lat="59.9660516" lon="17.7094345">
        <ele>30.8995</ele>
        <time>2013-03-08T18:10:10Z</time>
      </trkpt>
      <trkpt lat="59.9660438" lon="17.7094091">
        <ele>30.8995</ele>
        <time>2013-03-08T18:10:11Z</time>
      </trkpt>
      <trkpt lat="59.966035" lon="17.7093828">
        <ele>30.8995</ele>
        <time>2013-03-08T18:10:12Z</time>
      </trkpt>
      <trkpt lat="59.9660266" lon="17.7093513">
        <ele>30.8995</ele>
        <time>2013-03-08T18:10:13Z</time>
      </trkpt>
      <trkpt lat="59.9660188" lon="17.7093201">
        <ele>30.8995</ele>
        <time>2013-03-08T18:10:14Z</time>
      </trkpt>
      <trkpt lat="59.966012" lon="17.7092927">
        <ele>30.8995</ele>
        <time>2013-03-08T18:10:15Z</time>
      </trkpt>
      <trkpt lat="59.9660038" lon="17.7092688">
        <ele>30.8995</ele>
        <time>2013-03-08T18:10:16Z</time>
      </trkpt>
      <trkpt lat="59.9659953" lon="17.7092449">
        <ele>30.8995</ele>
        <time>2013-03-08T18:10:17Z</time>
      </trkpt>
      <trkpt lat="59.9659875" lon="17.7092171">
        <ele>30.8995</ele>
        <time>2013-03-08T18:10:18Z</time>
      </trkpt>
      <trkpt lat="59.9659796" lon="17.7091911">
        <ele>31.3801</ele>
        <time>2013-03-08T18:10:19Z</time>
      </trkpt>
      <trkpt lat="59.9659723" lon="17.709162">
        <ele>31.3801</ele>
        <time>2013-03-08T18:10:20Z</time>
      </trkpt>
      <trkpt lat="59.9659652" lon="17.7091309">
        <ele>31.3801</ele>
        <time>2013-03-08T18:10:21Z</time>
      </trkpt>
      <trkpt lat="59.9659577" lon="17.709103">
        <ele>31.3801</ele>
        <time>2013-03-08T18:10:22Z</time>
      </trkpt>
      <trkpt lat="59.9659489" lon="17.7090803">
        <ele>30.8995</ele>
        <time>2013-03-08T18:10:23Z</time>
      </trkpt>
      <trkpt lat="59.9659406" lon="17.7090598">
        <ele>30.8995</ele>
        <time>2013-03-08T18:10:24Z</time>
      </trkpt>
      <trkpt lat="59.9659333" lon="17.7090355">
        <ele>30.8995</ele>
        <time>2013-03-08T18:10:25Z</time>
      </trkpt>
      <trkpt lat="59.9659255" lon="17.7090107">
        <ele>30.8995</ele>
        <time>2013-03-08T18:10:26Z</time>
      </trkpt>
      <trkpt lat="59.9659172" lon="17.7089845">
        <ele>30.8995</ele>
        <time>2013-03-08T18:10:27Z</time>
      </trkpt>
      <trkpt lat="59.9659081" lon="17.7089573">
        <ele>30.8995</ele>
        <time>2013-03-08T18:10:28Z</time>
      </trkpt>
      <trkpt lat="59.9658993" lon="17.7089311">
        <ele>30.8995</ele>
        <time>2013-03-08T18:10:29Z</time>
      </trkpt>
      <trkpt lat="59.9658911" lon="17.7089067">
        <ele>30.8995</ele>
        <time>2013-03-08T18:10:30Z</time>
      </trkpt>
      <trkpt lat="59.9658832" lon="17.7088824">
        <ele>30.8995</ele>
        <time>2013-03-08T18:10:31Z</time>
      </trkpt>
      <trkpt lat="59.9658745" lon="17.7088584">
        <ele>30.8995</ele>
        <time>2013-03-08T18:10:32Z</time>
      </trkpt>
      <trkpt lat="59.9658658" lon="17.708835">
        <ele>30.8995</ele>
        <time>2013-03-08T18:10:33Z</time>
      </trkpt>
      <trkpt lat="59.9658575" lon="17.7088115">
        <ele>30.8995</ele>
        <time>2013-03-08T18:10:34Z</time>
      </trkpt>
      <trkpt lat="59.9658486" lon="17.7087894">
        <ele>30.8995</ele>
        <time>2013-03-08T18:10:35Z</time>
      </trkpt>
      <trkpt lat="59.9658388" lon="17.7087682">
        <ele>30.8995</ele>
        <time>2013-03-08T18:10:36Z</time>
      </trkpt>
      <trkpt lat="59.9658299" lon="17.7087454">
        <ele>30.8995</ele>
        <time>2013-03-08T18:10:37Z</time>
      </trkpt>
      <trkpt lat="59.9658212" lon="17.7087218">
        <ele>30.8995</ele>
        <time>2013-03-08T18:10:38Z</time>
      </trkpt>
      <trkpt lat="59.9658126" lon="17.7086985">
        <ele>30.4188</ele>
        <time>2013-03-08T18:10:39Z</time>
      </trkpt>
      <trkpt lat="59.9658026" lon="17.7086747">
        <ele>30.4188</ele>
        <time>2013-03-08T18:10:40Z</time>
      </trkpt>
      <trkpt lat="59.9657925" lon="17.7086515">
        <ele>30.4188</ele>
        <time>2013-03-08T18:10:41Z</time>
      </trkpt>
      <trkpt lat="59.9657822" lon="17.7086284">
        <ele>30.4188</ele>
        <time>2013-03-08T18:10:42Z</time>
      </trkpt>
      <trkpt lat="59.9657722" lon="17.7086038">
        <ele>30.4188</ele>
        <time>2013-03-08T18:10:43Z</time>
      </trkpt>
      <trkpt lat="59.9657622" lon="17.7085799">
        <ele>30.4188</ele>
        <time>2013-03-08T18:10:44Z</time>
      </trkpt>
      <trkpt lat="59.9657527" lon="17.7085565">
        <ele>30.4188</ele>
        <time>2013-03-08T18:10:45Z</time>
      </trkpt>
      <trkpt lat="59.9657413" lon="17.7085337">
        <ele>30.4188</ele>
        <time>2013-03-08T18:10:46Z</time>
      </trkpt>
      <trkpt lat="59.9657287" lon="17.7085099">
        <ele>29.9381</ele>
        <time>2013-03-08T18:10:47Z</time>
      </trkpt>
      <trkpt lat="59.9657173" lon="17.7084866">
        <ele>29.9381</ele>
        <time>2013-03-08T18:10:48Z</time>
      </trkpt>
      <trkpt lat="59.9657064" lon="17.7084638">
        <ele>29.9381</ele>
        <time>2013-03-08T18:10:49Z</time>
      </trkpt>
      <trkpt lat="59.9656947" lon="17.7084415">
        <ele>29.9381</ele>
        <time>2013-03-08T18:10:50Z</time>
      </trkpt>
      <trkpt lat="59.9656812" lon="17.7084172">
        <ele>29.9381</ele>
        <time>2013-03-08T18:10:51Z</time>
      </trkpt>
      <trkpt lat="59.9656686" lon="17.708396">
        <ele>29.9381</ele>
        <time>2013-03-08T18:10:52Z</time>
      </trkpt>
      <trkpt lat="59.9656564" lon="17.7083778">
        <ele>29.9381</ele>
        <time>2013-03-08T18:10:53Z</time>
      </trkpt>
      <trkpt lat="59.9656438" lon="17.708359">
        <ele>29.9381</ele>
        <time>2013-03-08T18:10:54Z</time>
      </trkpt>
      <trkpt lat="59.9656315" lon="17.7083398">
        <ele>29.9381</ele>
        <time>2013-03-08T18:10:55Z</time>
      </trkpt>
      <trkpt lat="59.9656184" lon="17.7083188">
        <ele>29.9381</ele>
        <time>2013-03-08T18:10:56Z</time>
      </trkpt>
      <trkpt lat="59.9656066" lon="17.7082999">
        <ele>29.9381</ele>
        <time>2013-03-08T18:10:57Z</time>
      </trkpt>
      <trkpt lat="59.965595" lon="17.7082829">
        <ele>29.9381</ele>
        <time>2013-03-08T18:10:58Z</time>
      </trkpt>
      <trkpt lat="59.9655831" lon="17.7082675">
        <ele>29.9381</ele>
        <time>2013-03-08T18:10:59Z</time>
      </trkpt>
      <trkpt lat="59.9655707" lon="17.7082519">
        <ele>29.9381</ele>
        <time>2013-03-08T18:11:00Z</time>
      </trkpt>
      <trkpt lat="59.965558" lon="17.708238">
        <ele>29.9381</ele>
        <time>2013-03-08T18:11:01Z</time>
      </trkpt>
      <trkpt lat="59.9655443" lon="17.7082269">
        <ele>29.9381</ele>
        <time>2013-03-08T18:11:02Z</time>
      </trkpt>
      <trkpt lat="59.965531" lon="17.7082152">
        <ele>29.9381</ele>
        <time>2013-03-08T18:11:03Z</time>
      </trkpt>
      <trkpt lat="59.9655191" lon="17.7082038">
        <ele>29.9381</ele>
        <time>2013-03-08T18:11:04Z</time>
      </trkpt>
      <trkpt lat="59.9655067" lon="17.7081902">
        <ele>29.9381</ele>
        <time>2013-03-08T18:11:05Z</time>
      </trkpt>
      <trkpt lat="59.9654948" lon="17.7081756">
        <ele>29.9381</ele>
        <time>2013-03-08T18:11:06Z</time>
      </trkpt>
      <trkpt lat="59.9654831" lon="17.7081598">
        <ele>29.9381</ele>
        <time>2013-03-08T18:11:07Z</time>
      </trkpt>
      <trkpt lat="59.9654709" lon="17.7081421">
        <ele>29.9381</ele>
        <time>2013-03-08T18:11:08Z</time>
      </trkpt>
      <trkpt lat="59.965459" lon="17.7081255">
        <ele>29.9381</ele>
        <time>2013-03-08T18:11:09Z</time>
      </trkpt>
      <trkpt lat="59.9654472" lon="17.7081095">
        <ele>29.9381</ele>
        <time>2013-03-08T18:11:10Z</time>
      </trkpt>
      <trkpt lat="59.9654352" lon="17.708093">
        <ele>29.9381</ele>
        <time>2013-03-08T18:11:11Z</time>
      </trkpt>
      <trkpt lat="59.9654229" lon="17.7080793">
        <ele>29.9381</ele>
        <time>2013-03-08T18:11:12Z</time>
      </trkpt>
      <trkpt lat="59.9654108" lon="17.708065">
        <ele>29.4575</ele>
        <time>2013-03-08T18:11:13Z</time>
      </trkpt>
      <trkpt lat="59.9653854" lon="17.7080355">
        <ele>29.4575</ele>
        <time>2013-03-08T18:11:15Z</time>
      </trkpt>
      <trkpt lat="59.965372" lon="17.7080218">
        <ele>29.4575</ele>
        <time>2013-03-08T18:11:16Z</time>
      </trkpt>
      <trkpt lat="59.965359" lon="17.7080089">
        <ele>29.4575</ele>
        <time>2013-03-08T18:11:17Z</time>
      </trkpt>
      <trkpt lat="59.9653459" lon="17.7079955">
        <ele>28.9769</ele>
        <time>2013-03-08T18:11:18Z</time>
      </trkpt>
      <trkpt lat="59.965333" lon="17.7079815">
        <ele>28.9769</ele>
        <time>2013-03-08T18:11:19Z</time>
      </trkpt>
      <trkpt lat="59.9653197" lon="17.7079697">
        <ele>28.9769</ele>
        <time>2013-03-08T18:11:20Z</time>
      </trkpt>
      <trkpt lat="59.9653067" lon="17.7079571">
        <ele>28.9769</ele>
        <time>2013-03-08T18:11:21Z</time>
      </trkpt>
      <trkpt lat="59.9652938" lon="17.7079439">
        <ele>28.9769</ele>
        <time>2013-03-08T18:11:22Z</time>
      </trkpt>
      <trkpt lat="59.9652806" lon="17.7079303">
        <ele>28.9769</ele>
        <time>2013-03-08T18:11:23Z</time>
      </trkpt>
      <trkpt lat="59.9652679" lon="17.7079188">
        <ele>28.9769</ele>
        <time>2013-03-08T18:11:24Z</time>
      </trkpt>
      <trkpt lat="59.9652549" lon="17.7079068">
        <ele>28.9769</ele>
        <time>2013-03-08T18:11:25Z</time>
      </trkpt>
      <trkpt lat="59.9652408" lon="17.7078976">
        <ele>28.9769</ele>
        <time>2013-03-08T18:11:26Z</time>
      </trkpt>
      <trkpt lat="59.9652264" lon="17.707891">
        <ele>28.9769</ele>
        <time>2013-03-08T18:11:27Z</time>
      </trkpt>
      <trkpt lat="59.9652122" lon="17.7078871">
        <ele>28.4962</ele>
        <time>2013-03-08T18:11:28Z</time>
      </trkpt>
      <trkpt lat="59.965198" lon="17.7078858">
        <ele>28.9769</ele>
        <time>2013-03-08T18:11:29Z</time>
      </trkpt>
      <trkpt lat="59.9651846" lon="17.7078806">
        <ele>28.9769</ele>
        <time>2013-03-08T18:11:30Z</time>
      </trkpt>
      <trkpt lat="59.965173" lon="17.7078728">
        <ele>28.4962</ele>
        <time>2013-03-08T18:11:31Z</time>
      </trkpt>
      <trkpt lat="59.9651589" lon="17.707866">
        <ele>28.9769</ele>
        <time>2013-03-08T18:11:32Z</time>
      </trkpt>
      <trkpt lat="59.9651449" lon="17.7078593">
        <ele>28.9769</ele>
        <time>2013-03-08T18:11:33Z</time>
      </trkpt>
      <trkpt lat="59.9651305" lon="17.7078561">
        <ele>28.9769</ele>
        <time>2013-03-08T18:11:34Z</time>
      </trkpt>
      <trkpt lat="59.9651161" lon="17.7078514">
        <ele>28.4962</ele>
        <time>2013-03-08T18:11:35Z</time>
      </trkpt>
      <trkpt lat="59.9651026" lon="17.7078412">
        <ele>28.0155</ele>
        <time>2013-03-08T18:11:36Z</time>
      </trkpt>
      <trkpt lat="59.9650886" lon="17.7078312">
        <ele>27.5349</ele>
        <time>2013-03-08T18:11:37Z</time>
      </trkpt>
      <trkpt lat="59.965077" lon="17.7078185">
        <ele>27.5349</ele>
        <time>2013-03-08T18:11:38Z</time>
      </trkpt>
      <trkpt lat="59.9650663" lon="17.7078074">
        <ele>27.5349</ele>
        <time>2013-03-08T18:11:39Z</time>
      </trkpt>
      <trkpt lat="59.9650535" lon="17.7077956">
        <ele>27.5349</ele>
        <time>2013-03-08T18:11:40Z</time>
      </trkpt>
      <trkpt lat="59.9650409" lon="17.7077853">
        <ele>27.5349</ele>
        <time>2013-03-08T18:11:41Z</time>
      </trkpt>
      <trkpt lat="59.965028" lon="17.7077741">
        <ele>27.5349</ele>
        <time>2013-03-08T18:11:42Z</time>
      </trkpt>
      <trkpt lat="59.9650156" lon="17.707763">
        <ele>27.5349</ele>
        <time>2013-03-08T18:11:43Z</time>
      </trkpt>
      <trkpt lat="59.9650032" lon="17.7077534">
        <ele>27.5349</ele>
        <time>2013-03-08T18:11:44Z</time>
      </trkpt>
      <trkpt lat="59.9649902" lon="17.7077422">
        <ele>27.5349</ele>
        <time>2013-03-08T18:11:45Z</time>
      </trkpt>
      <trkpt lat="59.9649778" lon="17.7077314">
        <ele>27.5349</ele>
        <time>2013-03-08T18:11:46Z</time>
      </trkpt>
      <trkpt lat="59.9649643" lon="17.707719">
        <ele>27.5349</ele>
        <time>2013-03-08T18:11:47Z</time>
      </trkpt>
      <trkpt lat="59.9649508" lon="17.7077087">
        <ele>27.5349</ele>
        <time>2013-03-08T18:11:48Z</time>
      </trkpt>
      <trkpt lat="59.9649368" lon="17.7077013">
        <ele>27.5349</ele>
        <time>2013-03-08T18:11:49Z</time>
      </trkpt>
      <trkpt lat="59.9649227" lon="17.7076928">
        <ele>27.5349</ele>
        <time>2013-03-08T18:11:50Z</time>
      </trkpt>
      <trkpt lat="59.9649087" lon="17.7076802">
        <ele>27.5349</ele>
        <time>2013-03-08T18:11:51Z</time>
      </trkpt>
      <trkpt lat="59.9648943" lon="17.7076726">
        <ele>27.5349</ele>
        <time>2013-03-08T18:11:52Z</time>
      </trkpt>
      <trkpt lat="59.9648802" lon="17.707662">
        <ele>27.5349</ele>
        <time>2013-03-08T18:11:53Z</time>
      </trkpt>
      <trkpt lat="59.9648663" lon="17.7076503">
        <ele>27.5349</ele>
        <time>2013-03-08T18:11:54Z</time>
      </trkpt>
      <trkpt lat="59.964852" lon="17.7076385">
        <ele>28.0155</ele>
        <time>2013-03-08T18:11:55Z</time>
      </trkpt>
      <trkpt lat="59.9648382" lon="17.7076292">
        <ele>28.0155</ele>
        <time>2013-03-08T18:11:56Z</time>
      </trkpt>
      <trkpt lat="59.9648246" lon="17.7076188">
        <ele>28.0155</ele>
        <time>2013-03-08T18:11:57Z</time>
      </trkpt>
      <trkpt lat="59.9648114" lon="17.7076081">
        <ele>27.5349</ele>
        <time>2013-03-08T18:11:58Z</time>
      </trkpt>
      <trkpt lat="59.9647976" lon="17.7076008">
        <ele>28.0155</ele>
        <time>2013-03-08T18:11:59Z</time>
      </trkpt>
      <trkpt lat="59.9647835" lon="17.7075918">
        <ele>28.0155</ele>
        <time>2013-03-08T18:12:00Z</time>
      </trkpt>
      <trkpt lat="59.9647699" lon="17.7075818">
        <ele>28.0155</ele>
        <time>2013-03-08T18:12:01Z</time>
      </trkpt>
      <trkpt lat="59.9647566" lon="17.7075708">
        <ele>28.0155</ele>
        <time>2013-03-08T18:12:02Z</time>
      </trkpt>
      <trkpt lat="59.9647431" lon="17.7075604">
        <ele>28.0155</ele>
        <time>2013-03-08T18:12:03Z</time>
      </trkpt>
      <trkpt lat="59.9647294" lon="17.707549">
        <ele>28.0155</ele>
        <time>2013-03-08T18:12:04Z</time>
      </trkpt>
      <trkpt lat="59.9647157" lon="17.7075339">
        <ele>28.0155</ele>
        <time>2013-03-08T18:12:05Z</time>
      </trkpt>
      <trkpt lat="59.9647022" lon="17.7075216">
        <ele>28.0155</ele>
        <time>2013-03-08T18:12:06Z</time>
      </trkpt>
      <trkpt lat="59.9646882" lon="17.7075157">
        <ele>28.4962</ele>
        <time>2013-03-08T18:12:07Z</time>
      </trkpt>
      <trkpt lat="59.9646737" lon="17.70751">
        <ele>28.4962</ele>
        <time>2013-03-08T18:12:08Z</time>
      </trkpt>
      <trkpt lat="59.9646597" lon="17.7074993">
        <ele>28.4962</ele>
        <time>2013-03-08T18:12:09Z</time>
      </trkpt>
      <trkpt lat="59.9646457" lon="17.7074895">
        <ele>28.0155</ele>
        <time>2013-03-08T18:12:10Z</time>
      </trkpt>
      <trkpt lat="59.9646315" lon="17.7074799">
        <ele>28.0155</ele>
        <time>2013-03-08T18:12:11Z</time>
      </trkpt>
      <trkpt lat="59.9646171" lon="17.7074692">
        <ele>28.0155</ele>
        <time>2013-03-08T18:12:12Z</time>
      </trkpt>
      <trkpt lat="59.9646033" lon="17.7074563">
        <ele>28.0155</ele>
        <time>2013-03-08T18:12:13Z</time>
      </trkpt>
      <trkpt lat="59.9645889" lon="17.7074445">
        <ele>28.0155</ele>
        <time>2013-03-08T18:12:14Z</time>
      </trkpt>
      <trkpt lat="59.9645756" lon="17.7074313">
        <ele>28.0155</ele>
        <time>2013-03-08T18:12:15Z</time>
      </trkpt>
      <trkpt lat="59.9645613" lon="17.7074216">
        <ele>28.0155</ele>
        <time>2013-03-08T18:12:16Z</time>
      </trkpt>
      <trkpt lat="59.9645473" lon="17.7074149">
        <ele>28.0155</ele>
        <time>2013-03-08T18:12:17Z</time>
      </trkpt>
      <trkpt lat="59.9645331" lon="17.7074084">
        <ele>28.0155</ele>
        <time>2013-03-08T18:12:18Z</time>
      </trkpt>
      <trkpt lat="59.9645187" lon="17.7074002">
        <ele>28.0155</ele>
        <time>2013-03-08T18:12:19Z</time>
      </trkpt>
      <trkpt lat="59.9645053" lon="17.7073921">
        <ele>27.5349</ele>
        <time>2013-03-08T18:12:20Z</time>
      </trkpt>
      <trkpt lat="59.9644919" lon="17.707387">
        <ele>27.5349</ele>
        <time>2013-03-08T18:12:21Z</time>
      </trkpt>
      <trkpt lat="59.9644787" lon="17.707382">
        <ele>27.5349</ele>
        <time>2013-03-08T18:12:22Z</time>
      </trkpt>
      <trkpt lat="59.9644649" lon="17.7073739">
        <ele>27.5349</ele>
        <time>2013-03-08T18:12:23Z</time>
      </trkpt>
      <trkpt lat="59.9644515" lon="17.7073692">
        <ele>27.0543</ele>
        <time>2013-03-08T18:12:24Z</time>
      </trkpt>
      <trkpt lat="59.964438" lon="17.7073637">
        <ele>27.0543</ele>
        <time>2013-03-08T18:12:25Z</time>
      </trkpt>
      <trkpt lat="59.9644243" lon="17.7073594">
        <ele>27.0543</ele>
        <time>2013-03-08T18:12:26Z</time>
      </trkpt>
      <trkpt lat="59.9644099" lon="17.7073528">
        <ele>27.0543</ele>
        <time>2013-03-08T18:12:27Z</time>
      </trkpt>
      <trkpt lat="59.9643961" lon="17.7073447">
        <ele>27.0543</ele>
        <time>2013-03-08T18:12:28Z</time>
      </trkpt>
      <trkpt lat="59.9643821" lon="17.7073381">
        <ele>27.0543</ele>
        <time>2013-03-08T18:12:29Z</time>
      </trkpt>
      <trkpt lat="59.9643679" lon="17.7073356">
        <ele>27.5349</ele>
        <time>2013-03-08T18:12:30Z</time>
      </trkpt>
      <trkpt lat="59.9643537" lon="17.7073335">
        <ele>27.0543</ele>
        <time>2013-03-08T18:12:31Z</time>
      </trkpt>
      <trkpt lat="59.9643391" lon="17.7073356">
        <ele>27.5349</ele>
        <time>2013-03-08T18:12:32Z</time>
      </trkpt>
      <trkpt lat="59.964325" lon="17.7073341">
        <ele>27.5349</ele>
        <time>2013-03-08T18:12:33Z</time>
      </trkpt>
      <trkpt lat="59.9643122" lon="17.7073285">
        <ele>27.0543</ele>
        <time>2013-03-08T18:12:34Z</time>
      </trkpt>
      <trkpt lat="59.9642998" lon="17.7073237">
        <ele>27.0543</ele>
        <time>2013-03-08T18:12:35Z</time>
      </trkpt>
      <trkpt lat="59.9642877" lon="17.7073186">
        <ele>27.0543</ele>
        <time>2013-03-08T18:12:36Z</time>
      </trkpt>
      <trkpt lat="59.9642749" lon="17.7073164">
        <ele>27.0543</ele>
        <time>2013-03-08T18:12:37Z</time>
      </trkpt>
      <trkpt lat="59.9642619" lon="17.7073116">
        <ele>26.5736</ele>
        <time>2013-03-08T18:12:38Z</time>
      </trkpt>
      <trkpt lat="59.9642488" lon="17.7073051">
        <ele>26.5736</ele>
        <time>2013-03-08T18:12:39Z</time>
      </trkpt>
      <trkpt lat="59.9642342" lon="17.7073043">
        <ele>27.0543</ele>
        <time>2013-03-08T18:12:40Z</time>
      </trkpt>
      <trkpt lat="59.9642202" lon="17.7073053">
        <ele>27.0543</ele>
        <time>2013-03-08T18:12:41Z</time>
      </trkpt>
      <trkpt lat="59.9642059" lon="17.7073064">
        <ele>27.0543</ele>
        <time>2013-03-08T18:12:42Z</time>
      </trkpt>
      <trkpt lat="59.9641923" lon="17.7073045">
        <ele>27.0543</ele>
        <time>2013-03-08T18:12:43Z</time>
      </trkpt>
      <trkpt lat="59.9641785" lon="17.707303">
        <ele>27.5349</ele>
        <time>2013-03-08T18:12:44Z</time>
      </trkpt>
      <trkpt lat="59.9641635" lon="17.7073002">
        <ele>27.5349</ele>
        <time>2013-03-08T18:12:45Z</time>
      </trkpt>
      <trkpt lat="59.9641489" lon="17.7072972">
        <ele>27.5349</ele>
        <time>2013-03-08T18:12:46Z</time>
      </trkpt>
      <trkpt lat="59.964134" lon="17.7072936">
        <ele>27.5349</ele>
        <time>2013-03-08T18:12:47Z</time>
      </trkpt>
      <trkpt lat="59.9641189" lon="17.707288">
        <ele>28.0155</ele>
        <time>2013-03-08T18:12:48Z</time>
      </trkpt>
      <trkpt lat="59.9641035" lon="17.7072831">
        <ele>28.0155</ele>
        <time>2013-03-08T18:12:49Z</time>
      </trkpt>
      <trkpt lat="59.9640887" lon="17.7072787">
        <ele>28.0155</ele>
        <time>2013-03-08T18:12:50Z</time>
      </trkpt>
      <trkpt lat="59.9640736" lon="17.7072765">
        <ele>28.4962</ele>
        <time>2013-03-08T18:12:51Z</time>
      </trkpt>
      <trkpt lat="59.9640587" lon="17.7072734">
        <ele>28.4962</ele>
        <time>2013-03-08T18:12:52Z</time>
      </trkpt>
      <trkpt lat="59.9640443" lon="17.7072708">
        <ele>28.9769</ele>
        <time>2013-03-08T18:12:53Z</time>
      </trkpt>
      <trkpt lat="59.9640298" lon="17.7072708">
        <ele>28.9769</ele>
        <time>2013-03-08T18:12:54Z</time>
      </trkpt>
      <trkpt lat="59.9640158" lon="17.7072672">
        <ele>28.9769</ele>
        <time>2013-03-08T18:12:55Z</time>
      </trkpt>
      <trkpt lat="59.9640018" lon="17.7072644">
        <ele>29.4575</ele>
        <time>2013-03-08T18:12:56Z</time>
      </trkpt>
      <trkpt lat="59.9639882" lon="17.7072626">
        <ele>28.9769</ele>
        <time>2013-03-08T18:12:57Z</time>
      </trkpt>
      <trkpt lat="59.9639749" lon="17.7072625">
        <ele>29.4575</ele>
        <time>2013-03-08T18:12:58Z</time>
      </trkpt>
      <trkpt lat="59.9639609" lon="17.7072631">
        <ele>29.4575</ele>
        <time>2013-03-08T18:12:59Z</time>
      </trkpt>
      <trkpt lat="59.9639467" lon="17.7072629">
        <ele>29.4575</ele>
        <time>2013-03-08T18:13:00Z</time>
      </trkpt>
      <trkpt lat="59.963933" lon="17.7072615">
        <ele>29.4575</ele>
        <time>2013-03-08T18:13:01Z</time>
      </trkpt>
      <trkpt lat="59.9639196" lon="17.7072583">
        <ele>29.4575</ele>
        <time>2013-03-08T18:13:02Z</time>
      </trkpt>
      <trkpt lat="59.9639055" lon="17.7072523">
        <ele>29.9381</ele>
        <time>2013-03-08T18:13:03Z</time>
      </trkpt>
      <trkpt lat="59.9638914" lon="17.7072475">
        <ele>29.9381</ele>
        <time>2013-03-08T18:13:04Z</time>
      </trkpt>
      <trkpt lat="59.9638779" lon="17.7072401">
        <ele>29.4575</ele>
        <time>2013-03-08T18:13:05Z</time>
      </trkpt>
      <trkpt lat="59.963864" lon="17.707232">
        <ele>29.4575</ele>
        <time>2013-03-08T18:13:06Z</time>
      </trkpt>
      <trkpt lat="59.9638505" lon="17.7072258">
        <ele>29.4575</ele>
        <time>2013-03-08T18:13:07Z</time>
      </trkpt>
      <trkpt lat="59.9638369" lon="17.7072225">
        <ele>29.4575</ele>
        <time>2013-03-08T18:13:08Z</time>
      </trkpt>
      <trkpt lat="59.9638225" lon="17.7072206">
        <ele>29.4575</ele>
        <time>2013-03-08T18:13:09Z</time>
      </trkpt>
      <trkpt lat="59.9638081" lon="17.7072185">
        <ele>29.4575</ele>
        <time>2013-03-08T18:13:10Z</time>
      </trkpt>
      <trkpt lat="59.9637947" lon="17.707215">
        <ele>29.4575</ele>
        <time>2013-03-08T18:13:11Z</time>
      </trkpt>
      <trkpt lat="59.9637817" lon="17.7072123">
        <ele>28.9769</ele>
        <time>2013-03-08T18:13:12Z</time>
      </trkpt>
      <trkpt lat="59.9637681" lon="17.7072107">
        <ele>28.9769</ele>
        <time>2013-03-08T18:13:13Z</time>
      </trkpt>
      <trkpt lat="59.9637545" lon="17.7072041">
        <ele>28.4962</ele>
        <time>2013-03-08T18:13:14Z</time>
      </trkpt>
      <trkpt lat="59.9637404" lon="17.7072025">
        <ele>28.9769</ele>
        <time>2013-03-08T18:13:15Z</time>
      </trkpt>
      <trkpt lat="59.9637262" lon="17.7072021">
        <ele>28.9769</ele>
        <time>2013-03-08T18:13:16Z</time>
      </trkpt>
      <trkpt lat="59.9637118" lon="17.707201">
        <ele>28.9769</ele>
        <time>2013-03-08T18:13:17Z</time>
      </trkpt>
      <trkpt lat="59.9636976" lon="17.7072004">
        <ele>28.9769</ele>
        <time>2013-03-08T18:13:18Z</time>
      </trkpt>
      <trkpt lat="59.9636828" lon="17.7072004">
        <ele>28.9769</ele>
        <time>2013-03-08T18:13:19Z</time>
      </trkpt>
      <trkpt lat="59.9636683" lon="17.7071967">
        <ele>28.9769</ele>
        <time>2013-03-08T18:13:20Z</time>
      </trkpt>
      <trkpt lat="59.9636543" lon="17.7071963">
        <ele>28.9769</ele>
        <time>2013-03-08T18:13:21Z</time>
      </trkpt>
      <trkpt lat="59.9636404" lon="17.7071937">
        <ele>28.9769</ele>
        <time>2013-03-08T18:13:22Z</time>
      </trkpt>
      <trkpt lat="59.9636263" lon="17.7071967">
        <ele>29.4575</ele>
        <time>2013-03-08T18:13:23Z</time>
      </trkpt>
      <trkpt lat="59.9636119" lon="17.7071929">
        <ele>28.9769</ele>
        <time>2013-03-08T18:13:24Z</time>
      </trkpt>
      <trkpt lat="59.9635974" lon="17.7071909">
        <ele>28.9769</ele>
        <time>2013-03-08T18:13:25Z</time>
      </trkpt>
      <trkpt lat="59.9635838" lon="17.7071878">
        <ele>28.9769</ele>
        <time>2013-03-08T18:13:26Z</time>
      </trkpt>
      <trkpt lat="59.9635703" lon="17.7071893">
        <ele>28.9769</ele>
        <time>2013-03-08T18:13:27Z</time>
      </trkpt>
      <trkpt lat="59.9635569" lon="17.7071951">
        <ele>29.4575</ele>
        <time>2013-03-08T18:13:28Z</time>
      </trkpt>
      <trkpt lat="59.9635439" lon="17.7071955">
        <ele>28.9769</ele>
        <time>2013-03-08T18:13:29Z</time>
      </trkpt>
      <trkpt lat="59.963531" lon="17.7071972">
        <ele>28.4962</ele>
        <time>2013-03-08T18:13:30Z</time>
      </trkpt>
      <trkpt lat="59.9635166" lon="17.7071994">
        <ele>28.4962</ele>
        <time>2013-03-08T18:13:31Z</time>
      </trkpt>
      <trkpt lat="59.963502" lon="17.7072008">
        <ele>28.0155</ele>
        <time>2013-03-08T18:13:32Z</time>
      </trkpt>
      <trkpt lat="59.9634886" lon="17.7072035">
        <ele>28.0155</ele>
        <time>2013-03-08T18:13:33Z</time>
      </trkpt>
      <trkpt lat="59.9634746" lon="17.7072085">
        <ele>28.0155</ele>
        <time>2013-03-08T18:13:34Z</time>
      </trkpt>
      <trkpt lat="59.9634605" lon="17.7072111">
        <ele>28.4962</ele>
        <time>2013-03-08T18:13:35Z</time>
      </trkpt>
      <trkpt lat="59.9634471" lon="17.7072078">
        <ele>28.0155</ele>
        <time>2013-03-08T18:13:36Z</time>
      </trkpt>
      <trkpt lat="59.9634341" lon="17.7072054">
        <ele>28.0155</ele>
        <time>2013-03-08T18:13:37Z</time>
      </trkpt>
      <trkpt lat="59.9634206" lon="17.70721">
        <ele>28.0155</ele>
        <time>2013-03-08T18:13:38Z</time>
      </trkpt>
      <trkpt lat="59.9634076" lon="17.7072124">
        <ele>27.5349</ele>
        <time>2013-03-08T18:13:39Z</time>
      </trkpt>
      <trkpt lat="59.9633948" lon="17.7072159">
        <ele>27.5349</ele>
        <time>2013-03-08T18:13:40Z</time>
      </trkpt>
      <trkpt lat="59.9633816" lon="17.7072185">
        <ele>27.5349</ele>
        <time>2013-03-08T18:13:41Z</time>
      </trkpt>
      <trkpt lat="59.9633673" lon="17.7072219">
        <ele>27.5349</ele>
        <time>2013-03-08T18:13:42Z</time>
      </trkpt>
      <trkpt lat="59.9633532" lon="17.7072237">
        <ele>27.5349</ele>
        <time>2013-03-08T18:13:43Z</time>
      </trkpt>
      <trkpt lat="59.9633386" lon="17.7072257">
        <ele>28.0155</ele>
        <time>2013-03-08T18:13:44Z</time>
      </trkpt>
      <trkpt lat="59.9633231" lon="17.7072263">
        <ele>28.0155</ele>
        <time>2013-03-08T18:13:45Z</time>
      </trkpt>
      <trkpt lat="59.9633085" lon="17.7072201">
        <ele>28.0155</ele>
        <time>2013-03-08T18:13:46Z</time>
      </trkpt>
      <trkpt lat="59.9632936" lon="17.7072149">
        <ele>28.0155</ele>
        <time>2013-03-08T18:13:47Z</time>
      </trkpt>
      <trkpt lat="59.9632795" lon="17.7072087">
        <ele>28.0155</ele>
        <time>2013-03-08T18:13:48Z</time>
      </trkpt>
      <trkpt lat="59.9632666" lon="17.7072003">
        <ele>28.4962</ele>
        <time>2013-03-08T18:13:49Z</time>
      </trkpt>
      <trkpt lat="59.9632537" lon="17.707193">
        <ele>28.4962</ele>
        <time>2013-03-08T18:13:50Z</time>
      </trkpt>
      <trkpt lat="59.9632404" lon="17.7071899">
        <ele>28.9769</ele>
        <time>2013-03-08T18:13:51Z</time>
      </trkpt>
      <trkpt lat="59.9632264" lon="17.7071884">
        <ele>29.4575</ele>
        <time>2013-03-08T18:13:52Z</time>
      </trkpt>
      <trkpt lat="59.9632117" lon="17.7071932">
        <ele>29.9381</ele>
        <time>2013-03-08T18:13:53Z</time>
      </trkpt>
      <trkpt lat="59.9631973" lon="17.7071973">
        <ele>30.4188</ele>
        <time>2013-03-08T18:13:54Z</time>
      </trkpt>
      <trkpt lat="59.9631832" lon="17.7071989">
        <ele>30.4188</ele>
        <time>2013-03-08T18:13:55Z</time>
      </trkpt>
      <trkpt lat="59.9631695" lon="17.7071984">
        <ele>30.4188</ele>
        <time>2013-03-08T18:13:56Z</time>
      </trkpt>
      <trkpt lat="59.9631554" lon="17.7071978">
        <ele>30.4188</ele>
        <time>2013-03-08T18:13:57Z</time>
      </trkpt>
      <trkpt lat="59.9631409" lon="17.7071971">
        <ele>30.4188</ele>
        <time>2013-03-08T18:13:58Z</time>
      </trkpt>
      <trkpt lat="59.9631274" lon="17.7071957">
        <ele>30.8995</ele>
        <time>2013-03-08T18:13:59Z</time>
      </trkpt>
      <trkpt lat="59.9631154" lon="17.707194">
        <ele>30.4188</ele>
        <time>2013-03-08T18:14:00Z</time>
      </trkpt>
      <trkpt lat="59.9631035" lon="17.7071916">
        <ele>30.4188</ele>
        <time>2013-03-08T18:14:01Z</time>
      </trkpt>
      <trkpt lat="59.9630916" lon="17.7071895">
        <ele>30.4188</ele>
        <time>2013-03-08T18:14:02Z</time>
      </trkpt>
      <trkpt lat="59.9630777" lon="17.7071822">
        <ele>29.9381</ele>
        <time>2013-03-08T18:14:03Z</time>
      </trkpt>
      <trkpt lat="59.9630637" lon="17.7071772">
        <ele>29.4575</ele>
        <time>2013-03-08T18:14:04Z</time>
      </trkpt>
      <trkpt lat="59.9630497" lon="17.7071748">
        <ele>29.4575</ele>
        <time>2013-03-08T18:14:05Z</time>
      </trkpt>
      <trkpt lat="59.9630361" lon="17.7071748">
        <ele>29.9381</ele>
        <time>2013-03-08T18:14:06Z</time>
      </trkpt>
      <trkpt lat="59.9630228" lon="17.7071743">
        <ele>29.4575</ele>
        <time>2013-03-08T18:14:07Z</time>
      </trkpt>
      <trkpt lat="59.9630094" lon="17.7071733">
        <ele>29.4575</ele>
        <time>2013-03-08T18:14:08Z</time>
      </trkpt>
      <trkpt lat="59.9629959" lon="17.7071754">
        <ele>29.4575</ele>
        <time>2013-03-08T18:14:09Z</time>
      </trkpt>
      <trkpt lat="59.962983" lon="17.7071751">
        <ele>29.4575</ele>
        <time>2013-03-08T18:14:10Z</time>
      </trkpt>
      <trkpt lat="59.9629715" lon="17.7071759">
        <ele>29.4575</ele>
        <time>2013-03-08T18:14:11Z</time>
      </trkpt>
      <trkpt lat="59.9629602" lon="17.7071776">
        <ele>29.4575</ele>
        <time>2013-03-08T18:14:12Z</time>
      </trkpt>
      <trkpt lat="59.9629468" lon="17.7071807">
        <ele>29.4575</ele>
        <time>2013-03-08T18:14:13Z</time>
      </trkpt>
      <trkpt lat="59.9629351" lon="17.7071829">
        <ele>29.4575</ele>
        <time>2013-03-08T18:14:14Z</time>
      </trkpt>
      <trkpt lat="59.9629234" lon="17.7071828">
        <ele>29.4575</ele>
        <time>2013-03-08T18:14:15Z</time>
      </trkpt>
      <trkpt lat="59.9629099" lon="17.7071838">
        <ele>29.4575</ele>
        <time>2013-03-08T18:14:16Z</time>
      </trkpt>
      <trkpt lat="59.9628954" lon="17.7071874">
        <ele>29.4575</ele>
        <time>2013-03-08T18:14:17Z</time>
      </trkpt>
      <trkpt lat="59.9628799" lon="17.7071891">
        <ele>29.4575</ele>
        <time>2013-03-08T18:14:18Z</time>
      </trkpt>
      <trkpt lat="59.9628653" lon="17.7071931">
        <ele>29.4575</ele>
        <time>2013-03-08T18:14:19Z</time>
      </trkpt>
      <trkpt lat="59.9628511" lon="17.7071915">
        <ele>29.4575</ele>
        <time>2013-03-08T18:14:20Z</time>
      </trkpt>
      <trkpt lat="59.9628411" lon="17.707192">
        <ele>29.4575</ele>
        <time>2013-03-08T18:14:21Z</time>
      </trkpt>
      <trkpt lat="59.9628291" lon="17.7071911">
        <ele>28.9769</ele>
        <time>2013-03-08T18:14:22Z</time>
      </trkpt>
      <trkpt lat="59.9628166" lon="17.707185">
        <ele>28.9769</ele>
        <time>2013-03-08T18:14:23Z</time>
      </trkpt>
      <trkpt lat="59.9628045" lon="17.7071839">
        <ele>28.4962</ele>
        <time>2013-03-08T18:14:24Z</time>
      </trkpt>
      <trkpt lat="59.9627923" lon="17.7071797">
        <ele>28.0155</ele>
        <time>2013-03-08T18:14:25Z</time>
      </trkpt>
      <trkpt lat="59.9627774" lon="17.7071759">
        <ele>27.5349</ele>
        <time>2013-03-08T18:14:26Z</time>
      </trkpt>
      <trkpt lat="59.9627613" lon="17.7071759">
        <ele>27.5349</ele>
        <time>2013-03-08T18:14:27Z</time>
      </trkpt>
      <trkpt lat="59.9627467" lon="17.707174">
        <ele>27.0543</ele>
        <time>2013-03-08T18:14:28Z</time>
      </trkpt>
      <trkpt lat="59.9627326" lon="17.707174">
        <ele>27.0543</ele>
        <time>2013-03-08T18:14:29Z</time>
      </trkpt>
      <trkpt lat="59.9627175" lon="17.7071766">
        <ele>27.0543</ele>
        <time>2013-03-08T18:14:30Z</time>
      </trkpt>
      <trkpt lat="59.962703" lon="17.7071771">
        <ele>26.5736</ele>
        <time>2013-03-08T18:14:31Z</time>
      </trkpt>
      <trkpt lat="59.9626882" lon="17.7071756">
        <ele>26.5736</ele>
        <time>2013-03-08T18:14:32Z</time>
      </trkpt>
      <trkpt lat="59.9626738" lon="17.7071735">
        <ele>26.5736</ele>
        <time>2013-03-08T18:14:33Z</time>
      </trkpt>
      <trkpt lat="59.9626607" lon="17.7071697">
        <ele>26.5736</ele>
        <time>2013-03-08T18:14:34Z</time>
      </trkpt>
      <trkpt lat="59.9626472" lon="17.707165">
        <ele>26.0929</ele>
        <time>2013-03-08T18:14:35Z</time>
      </trkpt>
      <trkpt lat="59.9626344" lon="17.7071621">
        <ele>26.0929</ele>
        <time>2013-03-08T18:14:36Z</time>
      </trkpt>
      <trkpt lat="59.9626208" lon="17.7071582">
        <ele>25.6123</ele>
        <time>2013-03-08T18:14:37Z</time>
      </trkpt>
      <trkpt lat="59.9626073" lon="17.7071512">
        <ele>25.6123</ele>
        <time>2013-03-08T18:14:38Z</time>
      </trkpt>
      <trkpt lat="59.9625933" lon="17.7071432">
        <ele>25.6123</ele>
        <time>2013-03-08T18:14:39Z</time>
      </trkpt>
      <trkpt lat="59.9625794" lon="17.7071373">
        <ele>25.1317</ele>
        <time>2013-03-08T18:14:40Z</time>
      </trkpt>
      <trkpt lat="59.9625659" lon="17.7071292">
        <ele>25.1317</ele>
        <time>2013-03-08T18:14:41Z</time>
      </trkpt>
      <trkpt lat="59.9625529" lon="17.707121">
        <ele>25.1317</ele>
        <time>2013-03-08T18:14:42Z</time>
      </trkpt>
      <trkpt lat="59.96254" lon="17.707116">
        <ele>25.1317</ele>
        <time>2013-03-08T18:14:43Z</time>
      </trkpt>
      <trkpt lat="59.962527" lon="17.7071143">
        <ele>25.1317</ele>
        <time>2013-03-08T18:14:44Z</time>
      </trkpt>
      <trkpt lat="59.9625141" lon="17.7071091">
        <ele>25.1317</ele>
        <time>2013-03-08T18:14:45Z</time>
      </trkpt>
      <trkpt lat="59.9625005" lon="17.7071054">
        <ele>25.1317</ele>
        <time>2013-03-08T18:14:46Z</time>
      </trkpt>
      <trkpt lat="59.9624868" lon="17.7070999">
        <ele>25.1317</ele>
        <time>2013-03-08T18:14:47Z</time>
      </trkpt>
      <trkpt lat="59.9624731" lon="17.7070957">
        <ele>25.1317</ele>
        <time>2013-03-08T18:14:48Z</time>
      </trkpt>
      <trkpt lat="59.9624586" lon="17.7070897">
        <ele>25.1317</ele>
        <time>2013-03-08T18:14:49Z</time>
      </trkpt>
      <trkpt lat="59.9624427" lon="17.7070868">
        <ele>25.6123</ele>
        <time>2013-03-08T18:14:50Z</time>
      </trkpt>
      <trkpt lat="59.9624281" lon="17.7070813">
        <ele>25.6123</ele>
        <time>2013-03-08T18:14:51Z</time>
      </trkpt>
      <trkpt lat="59.9624141" lon="17.7070745">
        <ele>25.6123</ele>
        <time>2013-03-08T18:14:52Z</time>
      </trkpt>
      <trkpt lat="59.9624005" lon="17.7070693">
        <ele>25.6123</ele>
        <time>2013-03-08T18:14:53Z</time>
      </trkpt>
      <trkpt lat="59.9623867" lon="17.7070642">
        <ele>25.6123</ele>
        <time>2013-03-08T18:14:54Z</time>
      </trkpt>
      <trkpt lat="59.9623727" lon="17.7070568">
        <ele>25.6123</ele>
        <time>2013-03-08T18:14:55Z</time>
      </trkpt>
      <trkpt lat="59.9623586" lon="17.7070506">
        <ele>25.6123</ele>
        <time>2013-03-08T18:14:56Z</time>
      </trkpt>
      <trkpt lat="59.9623442" lon="17.7070443">
        <ele>25.6123</ele>
        <time>2013-03-08T18:14:57Z</time>
      </trkpt>
      <trkpt lat="59.9623305" lon="17.7070366">
        <ele>26.0929</ele>
        <time>2013-03-08T18:14:58Z</time>
      </trkpt>
      <trkpt lat="59.9623161" lon="17.7070294">
        <ele>25.6123</ele>
        <time>2013-03-08T18:14:59Z</time>
      </trkpt>
      <trkpt lat="59.9623017" lon="17.7070242">
        <ele>26.0929</ele>
        <time>2013-03-08T18:15:00Z</time>
      </trkpt>
      <trkpt lat="59.9622882" lon="17.7070208">
        <ele>26.0929</ele>
        <time>2013-03-08T18:15:01Z</time>
      </trkpt>
      <trkpt lat="59.9622757" lon="17.7070156">
        <ele>26.0929</ele>
        <time>2013-03-08T18:15:02Z</time>
      </trkpt>
      <trkpt lat="59.9622619" lon="17.7070117">
        <ele>26.5736</ele>
        <time>2013-03-08T18:15:03Z</time>
      </trkpt>
      <trkpt lat="59.9622472" lon="17.7070072">
        <ele>26.5736</ele>
        <time>2013-03-08T18:15:04Z</time>
      </trkpt>
      <trkpt lat="59.9622334" lon="17.7069994">
        <ele>26.5736</ele>
        <time>2013-03-08T18:15:05Z</time>
      </trkpt>
      <trkpt lat="59.9622194" lon="17.7069927">
        <ele>27.0543</ele>
        <time>2013-03-08T18:15:06Z</time>
      </trkpt>
      <trkpt lat="59.9622059" lon="17.7069839">
        <ele>27.0543</ele>
        <time>2013-03-08T18:15:07Z</time>
      </trkpt>
      <trkpt lat="59.9621927" lon="17.7069766">
        <ele>27.0543</ele>
        <time>2013-03-08T18:15:08Z</time>
      </trkpt>
      <trkpt lat="59.9621794" lon="17.7069668">
        <ele>27.0543</ele>
        <time>2013-03-08T18:15:09Z</time>
      </trkpt>
      <trkpt lat="59.9621655" lon="17.7069593">
        <ele>27.0543</ele>
        <time>2013-03-08T18:15:10Z</time>
      </trkpt>
      <trkpt lat="59.9621518" lon="17.7069518">
        <ele>27.0543</ele>
        <time>2013-03-08T18:15:11Z</time>
      </trkpt>
      <trkpt lat="59.9621382" lon="17.706944">
        <ele>27.0543</ele>
        <time>2013-03-08T18:15:12Z</time>
      </trkpt>
      <trkpt lat="59.9621251" lon="17.7069362">
        <ele>27.0543</ele>
        <time>2013-03-08T18:15:13Z</time>
      </trkpt>
      <trkpt lat="59.962112" lon="17.7069288">
        <ele>27.0543</ele>
        <time>2013-03-08T18:15:14Z</time>
      </trkpt>
      <trkpt lat="59.9620982" lon="17.706921">
        <ele>27.0543</ele>
        <time>2013-03-08T18:15:15Z</time>
      </trkpt>
      <trkpt lat="59.962084" lon="17.7069109">
        <ele>27.0543</ele>
        <time>2013-03-08T18:15:16Z</time>
      </trkpt>
      <trkpt lat="59.962071" lon="17.7069">
        <ele>27.0543</ele>
        <time>2013-03-08T18:15:17Z</time>
      </trkpt>
      <trkpt lat="59.9620573" lon="17.7068906">
        <ele>27.0543</ele>
        <time>2013-03-08T18:15:18Z</time>
      </trkpt>
      <trkpt lat="59.9620431" lon="17.7068844">
        <ele>27.0543</ele>
        <time>2013-03-08T18:15:19Z</time>
      </trkpt>
      <trkpt lat="59.9620282" lon="17.7068791">
        <ele>27.5349</ele>
        <time>2013-03-08T18:15:20Z</time>
      </trkpt>
      <trkpt lat="59.9620142" lon="17.7068709">
        <ele>27.5349</ele>
        <time>2013-03-08T18:15:21Z</time>
      </trkpt>
      <trkpt lat="59.9620004" lon="17.7068621">
        <ele>27.5349</ele>
        <time>2013-03-08T18:15:22Z</time>
      </trkpt>
      <trkpt lat="59.9619864" lon="17.7068533">
        <ele>27.5349</ele>
        <time>2013-03-08T18:15:23Z</time>
      </trkpt>
      <trkpt lat="59.9619726" lon="17.706845">
        <ele>28.0155</ele>
        <time>2013-03-08T18:15:24Z</time>
      </trkpt>
      <trkpt lat="59.9619593" lon="17.7068372">
        <ele>28.0155</ele>
        <time>2013-03-08T18:15:25Z</time>
      </trkpt>
      <trkpt lat="59.9619458" lon="17.7068299">
        <ele>28.4962</ele>
        <time>2013-03-08T18:15:26Z</time>
      </trkpt>
      <trkpt lat="59.9619325" lon="17.7068203">
        <ele>28.0155</ele>
        <time>2013-03-08T18:15:27Z</time>
      </trkpt>
      <trkpt lat="59.9619193" lon="17.7068096">
        <ele>28.0155</ele>
        <time>2013-03-08T18:15:28Z</time>
      </trkpt>
      <trkpt lat="59.9619063" lon="17.7067998">
        <ele>28.0155</ele>
        <time>2013-03-08T18:15:29Z</time>
      </trkpt>
      <trkpt lat="59.9618923" lon="17.7067916">
        <ele>28.4962</ele>
        <time>2013-03-08T18:15:30Z</time>
      </trkpt>
      <trkpt lat="59.9618769" lon="17.7067803">
        <ele>28.4962</ele>
        <time>2013-03-08T18:15:31Z</time>
      </trkpt>
      <trkpt lat="59.9618625" lon="17.7067694">
        <ele>28.4962</ele>
        <time>2013-03-08T18:15:32Z</time>
      </trkpt>
      <trkpt lat="59.9618483" lon="17.7067591">
        <ele>28.9769</ele>
        <time>2013-03-08T18:15:33Z</time>
      </trkpt>
      <trkpt lat="59.961835" lon="17.7067508">
        <ele>29.4575</ele>
        <time>2013-03-08T18:15:34Z</time>
      </trkpt>
      <trkpt lat="59.961821" lon="17.7067409">
        <ele>29.4575</ele>
        <time>2013-03-08T18:15:35Z</time>
      </trkpt>
      <trkpt lat="59.9618066" lon="17.7067295">
        <ele>29.4575</ele>
        <time>2013-03-08T18:15:36Z</time>
      </trkpt>
      <trkpt lat="59.9617929" lon="17.7067182">
        <ele>29.4575</ele>
        <time>2013-03-08T18:15:37Z</time>
      </trkpt>
      <trkpt lat="59.961779" lon="17.7067068">
        <ele>29.9381</ele>
        <time>2013-03-08T18:15:38Z</time>
      </trkpt>
      <trkpt lat="59.9617651" lon="17.7066956">
        <ele>29.4575</ele>
        <time>2013-03-08T18:15:39Z</time>
      </trkpt>
      <trkpt lat="59.9617525" lon="17.7066853">
        <ele>29.4575</ele>
        <time>2013-03-08T18:15:40Z</time>
      </trkpt>
      <trkpt lat="59.9617392" lon="17.706671">
        <ele>29.4575</ele>
        <time>2013-03-08T18:15:41Z</time>
      </trkpt>
      <trkpt lat="59.9617262" lon="17.7066558">
        <ele>29.4575</ele>
        <time>2013-03-08T18:15:42Z</time>
      </trkpt>
      <trkpt lat="59.9617139" lon="17.706641">
        <ele>29.4575</ele>
        <time>2013-03-08T18:15:43Z</time>
      </trkpt>
      <trkpt lat="59.9617012" lon="17.7066263">
        <ele>29.4575</ele>
        <time>2013-03-08T18:15:44Z</time>
      </trkpt>
      <trkpt lat="59.9616882" lon="17.706612">
        <ele>29.4575</ele>
        <time>2013-03-08T18:15:45Z</time>
      </trkpt>
      <trkpt lat="59.9616765" lon="17.7066009">
        <ele>29.4575</ele>
        <time>2013-03-08T18:15:46Z</time>
      </trkpt>
      <trkpt lat="59.9616635" lon="17.7065876">
        <ele>29.4575</ele>
        <time>2013-03-08T18:15:47Z</time>
      </trkpt>
      <trkpt lat="59.9616501" lon="17.7065746">
        <ele>29.4575</ele>
        <time>2013-03-08T18:15:48Z</time>
      </trkpt>
      <trkpt lat="59.9616361" lon="17.7065589">
        <ele>29.4575</ele>
        <time>2013-03-08T18:15:49Z</time>
      </trkpt>
      <trkpt lat="59.9616242" lon="17.7065431">
        <ele>29.4575</ele>
        <time>2013-03-08T18:15:50Z</time>
      </trkpt>
      <trkpt lat="59.9616115" lon="17.7065289">
        <ele>29.4575</ele>
        <time>2013-03-08T18:15:51Z</time>
      </trkpt>
      <trkpt lat="59.9615982" lon="17.7065165">
        <ele>29.4575</ele>
        <time>2013-03-08T18:15:52Z</time>
      </trkpt>
      <trkpt lat="59.9615851" lon="17.7065021">
        <ele>29.9381</ele>
        <time>2013-03-08T18:15:53Z</time>
      </trkpt>
      <trkpt lat="59.9615729" lon="17.706488">
        <ele>29.4575</ele>
        <time>2013-03-08T18:15:54Z</time>
      </trkpt>
      <trkpt lat="59.9615605" lon="17.7064726">
        <ele>29.4575</ele>
        <time>2013-03-08T18:15:55Z</time>
      </trkpt>
      <trkpt lat="59.9615469" lon="17.7064559">
        <ele>29.4575</ele>
        <time>2013-03-08T18:15:56Z</time>
      </trkpt>
      <trkpt lat="59.961533" lon="17.7064389">
        <ele>29.4575</ele>
        <time>2013-03-08T18:15:57Z</time>
      </trkpt>
      <trkpt lat="59.9615195" lon="17.7064209">
        <ele>29.9381</ele>
        <time>2013-03-08T18:15:58Z</time>
      </trkpt>
      <trkpt lat="59.9615088" lon="17.706405">
        <ele>29.9381</ele>
        <time>2013-03-08T18:15:59Z</time>
      </trkpt>
      <trkpt lat="59.9614982" lon="17.7063856">
        <ele>29.9381</ele>
        <time>2013-03-08T18:16:00Z</time>
      </trkpt>
      <trkpt lat="59.9614879" lon="17.7063684">
        <ele>29.9381</ele>
        <time>2013-03-08T18:16:01Z</time>
      </trkpt>
      <trkpt lat="59.9614776" lon="17.7063524">
        <ele>29.9381</ele>
        <time>2013-03-08T18:16:02Z</time>
      </trkpt>
      <trkpt lat="59.9614667" lon="17.7063352">
        <ele>29.9381</ele>
        <time>2013-03-08T18:16:03Z</time>
      </trkpt>
      <trkpt lat="59.9614558" lon="17.7063193">
        <ele>29.9381</ele>
        <time>2013-03-08T18:16:04Z</time>
      </trkpt>
      <trkpt lat="59.9614459" lon="17.706304">
        <ele>29.9381</ele>
        <time>2013-03-08T18:16:05Z</time>
      </trkpt>
      <trkpt lat="59.9614354" lon="17.7062869">
        <ele>29.9381</ele>
        <time>2013-03-08T18:16:06Z</time>
      </trkpt>
      <trkpt lat="59.9614246" lon="17.7062709">
        <ele>30.4188</ele>
        <time>2013-03-08T18:16:07Z</time>
      </trkpt>
      <trkpt lat="59.9614145" lon="17.7062546">
        <ele>30.4188</ele>
        <time>2013-03-08T18:16:08Z</time>
      </trkpt>
      <trkpt lat="59.9614035" lon="17.7062349">
        <ele>30.4188</ele>
        <time>2013-03-08T18:16:09Z</time>
      </trkpt>
      <trkpt lat="59.9613926" lon="17.7062165">
        <ele>30.4188</ele>
        <time>2013-03-08T18:16:10Z</time>
      </trkpt>
      <trkpt lat="59.9613826" lon="17.7061974">
        <ele>30.4188</ele>
        <time>2013-03-08T18:16:11Z</time>
      </trkpt>
      <trkpt lat="59.961372" lon="17.7061778">
        <ele>30.4188</ele>
        <time>2013-03-08T18:16:12Z</time>
      </trkpt>
      <trkpt lat="59.9613626" lon="17.7061592">
        <ele>30.4188</ele>
        <time>2013-03-08T18:16:13Z</time>
      </trkpt>
      <trkpt lat="59.9613527" lon="17.7061407">
        <ele>30.4188</ele>
        <time>2013-03-08T18:16:14Z</time>
      </trkpt>
      <trkpt lat="59.9613422" lon="17.7061229">
        <ele>30.4188</ele>
        <time>2013-03-08T18:16:15Z</time>
      </trkpt>
      <trkpt lat="59.9613313" lon="17.7061044">
        <ele>29.9381</ele>
        <time>2013-03-08T18:16:16Z</time>
      </trkpt>
      <trkpt lat="59.9613217" lon="17.7060847">
        <ele>29.9381</ele>
        <time>2013-03-08T18:16:17Z</time>
      </trkpt>
      <trkpt lat="59.9613117" lon="17.7060634">
        <ele>29.9381</ele>
        <time>2013-03-08T18:16:18Z</time>
      </trkpt>
      <trkpt lat="59.9613019" lon="17.7060457">
        <ele>29.9381</ele>
        <time>2013-03-08T18:16:19Z</time>
      </trkpt>
      <trkpt lat="59.961292" lon="17.7060267">
        <ele>30.4188</ele>
        <time>2013-03-08T18:16:20Z</time>
      </trkpt>
      <trkpt lat="59.9612828" lon="17.7060038">
        <ele>30.4188</ele>
        <time>2013-03-08T18:16:21Z</time>
      </trkpt>
      <trkpt lat="59.9612733" lon="17.7059829">
        <ele>30.4188</ele>
        <time>2013-03-08T18:16:22Z</time>
      </trkpt>
      <trkpt lat="59.9612626" lon="17.7059618">
        <ele>29.9381</ele>
        <time>2013-03-08T18:16:23Z</time>
      </trkpt>
      <trkpt lat="59.9612536" lon="17.705943">
        <ele>30.4188</ele>
        <time>2013-03-08T18:16:24Z</time>
      </trkpt>
      <trkpt lat="59.9612455" lon="17.7059256">
        <ele>30.4188</ele>
        <time>2013-03-08T18:16:25Z</time>
      </trkpt>
      <trkpt lat="59.9612352" lon="17.7059059">
        <ele>30.4188</ele>
        <time>2013-03-08T18:16:26Z</time>
      </trkpt>
      <trkpt lat="59.9612252" lon="17.7058888">
        <ele>30.8995</ele>
        <time>2013-03-08T18:16:27Z</time>
      </trkpt>
      <trkpt lat="59.9612161" lon="17.7058716">
        <ele>30.8995</ele>
        <time>2013-03-08T18:16:28Z</time>
      </trkpt>
      <trkpt lat="59.9612054" lon="17.7058536">
        <ele>30.8995</ele>
        <time>2013-03-08T18:16:29Z</time>
      </trkpt>
      <trkpt lat="59.9611943" lon="17.7058344">
        <ele>30.8995</ele>
        <time>2013-03-08T18:16:30Z</time>
      </trkpt>
      <trkpt lat="59.9611839" lon="17.7058145">
        <ele>30.8995</ele>
        <time>2013-03-08T18:16:31Z</time>
      </trkpt>
      <trkpt lat="59.9611733" lon="17.7057943">
        <ele>30.8995</ele>
        <time>2013-03-08T18:16:32Z</time>
      </trkpt>
      <trkpt lat="59.9611627" lon="17.7057748">
        <ele>30.8995</ele>
        <time>2013-03-08T18:16:33Z</time>
      </trkpt>
      <trkpt lat="59.9611528" lon="17.7057583">
        <ele>30.8995</ele>
        <time>2013-03-08T18:16:34Z</time>
      </trkpt>
      <trkpt lat="59.961141" lon="17.705738">
        <ele>30.8995</ele>
        <time>2013-03-08T18:16:35Z</time>
      </trkpt>
      <trkpt lat="59.9611308" lon="17.7057194">
        <ele>30.8995</ele>
        <time>2013-03-08T18:16:36Z</time>
      </trkpt>
      <trkpt lat="59.9611218" lon="17.7057022">
        <ele>30.4188</ele>
        <time>2013-03-08T18:16:37Z</time>
      </trkpt>
      <trkpt lat="59.9611124" lon="17.7056831">
        <ele>30.4188</ele>
        <time>2013-03-08T18:16:38Z</time>
      </trkpt>
      <trkpt lat="59.9611023" lon="17.7056633">
        <ele>30.4188</ele>
        <time>2013-03-08T18:16:39Z</time>
      </trkpt>
      <trkpt lat="59.9610915" lon="17.705642">
        <ele>29.9381</ele>
        <time>2013-03-08T18:16:40Z</time>
      </trkpt>
      <trkpt lat="59.9610819" lon="17.7056216">
        <ele>29.9381</ele>
        <time>2013-03-08T18:16:41Z</time>
      </trkpt>
      <trkpt lat="59.9610704" lon="17.7056013">
        <ele>29.9381</ele>
        <time>2013-03-08T18:16:42Z</time>
      </trkpt>
      <trkpt lat="59.9610581" lon="17.7055824">
        <ele>29.9381</ele>
        <time>2013-03-08T18:16:43Z</time>
      </trkpt>
      <trkpt lat="59.961048" lon="17.7055655">
        <ele>29.9381</ele>
        <time>2013-03-08T18:16:44Z</time>
      </trkpt>
      <trkpt lat="59.9610373" lon="17.705549">
        <ele>29.9381</ele>
        <time>2013-03-08T18:16:45Z</time>
      </trkpt>
      <trkpt lat="59.9610257" lon="17.7055303">
        <ele>29.4575</ele>
        <time>2013-03-08T18:16:46Z</time>
      </trkpt>
      <trkpt lat="59.9610133" lon="17.7055128">
        <ele>28.9769</ele>
        <time>2013-03-08T18:16:47Z</time>
      </trkpt>
      <trkpt lat="59.9610015" lon="17.7054988">
        <ele>28.9769</ele>
        <time>2013-03-08T18:16:48Z</time>
      </trkpt>
      <trkpt lat="59.9609895" lon="17.7054804">
        <ele>28.9769</ele>
        <time>2013-03-08T18:16:49Z</time>
      </trkpt>
      <trkpt lat="59.9609786" lon="17.7054633">
        <ele>28.9769</ele>
        <time>2013-03-08T18:16:50Z</time>
      </trkpt>
      <trkpt lat="59.9609682" lon="17.7054468">
        <ele>28.9769</ele>
        <time>2013-03-08T18:16:51Z</time>
      </trkpt>
      <trkpt lat="59.9609559" lon="17.705433">
        <ele>28.9769</ele>
        <time>2013-03-08T18:16:52Z</time>
      </trkpt>
      <trkpt lat="59.9609436" lon="17.7054149">
        <ele>28.9769</ele>
        <time>2013-03-08T18:16:53Z</time>
      </trkpt>
      <trkpt lat="59.9609321" lon="17.7053989">
        <ele>28.9769</ele>
        <time>2013-03-08T18:16:54Z</time>
      </trkpt>
      <trkpt lat="59.9609207" lon="17.7053832">
        <ele>28.9769</ele>
        <time>2013-03-08T18:16:55Z</time>
      </trkpt>
      <trkpt lat="59.9609092" lon="17.7053676">
        <ele>28.9769</ele>
        <time>2013-03-08T18:16:56Z</time>
      </trkpt>
      <trkpt lat="59.9608972" lon="17.7053496">
        <ele>28.9769</ele>
        <time>2013-03-08T18:16:57Z</time>
      </trkpt>
      <trkpt lat="59.9608854" lon="17.7053317">
        <ele>28.9769</ele>
        <time>2013-03-08T18:16:58Z</time>
      </trkpt>
      <trkpt lat="59.960874" lon="17.7053115">
        <ele>28.9769</ele>
        <time>2013-03-08T18:16:59Z</time>
      </trkpt>
      <trkpt lat="59.9608627" lon="17.7052913">
        <ele>28.9769</ele>
        <time>2013-03-08T18:17:00Z</time>
      </trkpt>
      <trkpt lat="59.9608527" lon="17.7052739">
        <ele>28.4962</ele>
        <time>2013-03-08T18:17:01Z</time>
      </trkpt>
      <trkpt lat="59.960843" lon="17.7052567">
        <ele>28.4962</ele>
        <time>2013-03-08T18:17:02Z</time>
      </trkpt>
      <trkpt lat="59.9608327" lon="17.705239">
        <ele>28.4962</ele>
        <time>2013-03-08T18:17:03Z</time>
      </trkpt>
      <trkpt lat="59.9608206" lon="17.7052225">
        <ele>28.4962</ele>
        <time>2013-03-08T18:17:04Z</time>
      </trkpt>
      <trkpt lat="59.9608084" lon="17.7052061">
        <ele>28.4962</ele>
        <time>2013-03-08T18:17:05Z</time>
      </trkpt>
      <trkpt lat="59.9608" lon="17.7051924">
        <ele>28.4962</ele>
        <time>2013-03-08T18:17:06Z</time>
      </trkpt>
      <trkpt lat="59.9607915" lon="17.7051789">
        <ele>28.0155</ele>
        <time>2013-03-08T18:17:07Z</time>
      </trkpt>
      <trkpt lat="59.9607819" lon="17.7051666">
        <ele>28.0155</ele>
        <time>2013-03-08T18:17:08Z</time>
      </trkpt>
      <trkpt lat="59.9607706" lon="17.7051525">
        <ele>28.0155</ele>
        <time>2013-03-08T18:17:09Z</time>
      </trkpt>
      <trkpt lat="59.9607589" lon="17.7051351">
        <ele>27.5349</ele>
        <time>2013-03-08T18:17:10Z</time>
      </trkpt>
      <trkpt lat="59.9607493" lon="17.7051232">
        <ele>28.0155</ele>
        <time>2013-03-08T18:17:11Z</time>
      </trkpt>
      <trkpt lat="59.9607371" lon="17.7051087">
        <ele>28.4962</ele>
        <time>2013-03-08T18:17:12Z</time>
      </trkpt>
      <trkpt lat="59.9607238" lon="17.7050968">
        <ele>28.4962</ele>
        <time>2013-03-08T18:17:13Z</time>
      </trkpt>
      <trkpt lat="59.9607116" lon="17.7050848">
        <ele>28.9769</ele>
        <time>2013-03-08T18:17:14Z</time>
      </trkpt>
      <trkpt lat="59.9606996" lon="17.7050723">
        <ele>28.9769</ele>
        <time>2013-03-08T18:17:15Z</time>
      </trkpt>
      <trkpt lat="59.9606871" lon="17.7050593">
        <ele>29.4575</ele>
        <time>2013-03-08T18:17:16Z</time>
      </trkpt>
      <trkpt lat="59.9606758" lon="17.705045">
        <ele>29.4575</ele>
        <time>2013-03-08T18:17:17Z</time>
      </trkpt>
      <trkpt lat="59.9606625" lon="17.7050271">
        <ele>28.9769</ele>
        <time>2013-03-08T18:17:18Z</time>
      </trkpt>
      <trkpt lat="59.9606503" lon="17.7050103">
        <ele>28.9769</ele>
        <time>2013-03-08T18:17:19Z</time>
      </trkpt>
      <trkpt lat="59.9606392" lon="17.7049942">
        <ele>28.9769</ele>
        <time>2013-03-08T18:17:20Z</time>
      </trkpt>
      <trkpt lat="59.9606279" lon="17.7049781">
        <ele>28.4962</ele>
        <time>2013-03-08T18:17:21Z</time>
      </trkpt>
      <trkpt lat="59.9606164" lon="17.704961">
        <ele>28.4962</ele>
        <time>2013-03-08T18:17:22Z</time>
      </trkpt>
      <trkpt lat="59.9606052" lon="17.7049458">
        <ele>28.4962</ele>
        <time>2013-03-08T18:17:23Z</time>
      </trkpt>
      <trkpt lat="59.9605929" lon="17.7049311">
        <ele>28.4962</ele>
        <time>2013-03-08T18:17:24Z</time>
      </trkpt>
      <trkpt lat="59.9605802" lon="17.7049159">
        <ele>28.4962</ele>
        <time>2013-03-08T18:17:25Z</time>
      </trkpt>
      <trkpt lat="59.9605681" lon="17.7049024">
        <ele>28.4962</ele>
        <time>2013-03-08T18:17:26Z</time>
      </trkpt>
      <trkpt lat="59.9605545" lon="17.7048859">
        <ele>28.0155</ele>
        <time>2013-03-08T18:17:27Z</time>
      </trkpt>
      <trkpt lat="59.9605418" lon="17.7048692">
        <ele>28.0155</ele>
        <time>2013-03-08T18:17:28Z</time>
      </trkpt>
      <trkpt lat="59.9605284" lon="17.704852">
        <ele>28.0155</ele>
        <time>2013-03-08T18:17:29Z</time>
      </trkpt>
      <trkpt lat="59.9605151" lon="17.7048339">
        <ele>28.0155</ele>
        <time>2013-03-08T18:17:30Z</time>
      </trkpt>
      <trkpt lat="59.9605027" lon="17.7048165">
        <ele>28.0155</ele>
        <time>2013-03-08T18:17:31Z</time>
      </trkpt>
      <trkpt lat="59.9604906" lon="17.7047995">
        <ele>28.0155</ele>
        <time>2013-03-08T18:17:32Z</time>
      </trkpt>
      <trkpt lat="59.9604778" lon="17.7047828">
        <ele>28.0155</ele>
        <time>2013-03-08T18:17:33Z</time>
      </trkpt>
      <trkpt lat="59.960466" lon="17.7047676">
        <ele>28.0155</ele>
        <time>2013-03-08T18:17:34Z</time>
      </trkpt>
      <trkpt lat="59.9604534" lon="17.7047521">
        <ele>28.0155</ele>
        <time>2013-03-08T18:17:35Z</time>
      </trkpt>
      <trkpt lat="59.9604414" lon="17.7047366">
        <ele>28.0155</ele>
        <time>2013-03-08T18:17:36Z</time>
      </trkpt>
      <trkpt lat="59.9604298" lon="17.7047205">
        <ele>28.0155</ele>
        <time>2013-03-08T18:17:37Z</time>
      </trkpt>
      <trkpt lat="59.9604188" lon="17.7047062">
        <ele>28.0155</ele>
        <time>2013-03-08T18:17:38Z</time>
      </trkpt>
      <trkpt lat="59.9604058" lon="17.704693">
        <ele>28.0155</ele>
        <time>2013-03-08T18:17:39Z</time>
      </trkpt>
      <trkpt lat="59.9603929" lon="17.7046788">
        <ele>28.0155</ele>
        <time>2013-03-08T18:17:40Z</time>
      </trkpt>
      <trkpt lat="59.9603794" lon="17.7046622">
        <ele>28.0155</ele>
        <time>2013-03-08T18:17:41Z</time>
      </trkpt>
      <trkpt lat="59.9603671" lon="17.704648">
        <ele>28.0155</ele>
        <time>2013-03-08T18:17:42Z</time>
      </trkpt>
      <trkpt lat="59.9603544" lon="17.7046337">
        <ele>28.0155</ele>
        <time>2013-03-08T18:17:43Z</time>
      </trkpt>
      <trkpt lat="59.9603416" lon="17.7046202">
        <ele>28.0155</ele>
        <time>2013-03-08T18:17:44Z</time>
      </trkpt>
      <trkpt lat="59.9603292" lon="17.7046062">
        <ele>28.0155</ele>
        <time>2013-03-08T18:17:45Z</time>
      </trkpt>
      <trkpt lat="59.9603163" lon="17.7045911">
        <ele>28.4962</ele>
        <time>2013-03-08T18:17:46Z</time>
      </trkpt>
      <trkpt lat="59.9603034" lon="17.7045759">
        <ele>28.4962</ele>
        <time>2013-03-08T18:17:47Z</time>
      </trkpt>
      <trkpt lat="59.9602904" lon="17.7045592">
        <ele>28.4962</ele>
        <time>2013-03-08T18:17:48Z</time>
      </trkpt>
      <trkpt lat="59.9602775" lon="17.7045435">
        <ele>28.4962</ele>
        <time>2013-03-08T18:17:49Z</time>
      </trkpt>
      <trkpt lat="59.9602649" lon="17.7045275">
        <ele>28.4962</ele>
        <time>2013-03-08T18:17:50Z</time>
      </trkpt>
      <trkpt lat="59.9602528" lon="17.7045125">
        <ele>28.4962</ele>
        <time>2013-03-08T18:17:51Z</time>
      </trkpt>
      <trkpt lat="59.96024" lon="17.7044977">
        <ele>28.4962</ele>
        <time>2013-03-08T18:17:52Z</time>
      </trkpt>
      <trkpt lat="59.9602271" lon="17.704483">
        <ele>28.4962</ele>
        <time>2013-03-08T18:17:53Z</time>
      </trkpt>
      <trkpt lat="59.9602139" lon="17.7044646">
        <ele>28.4962</ele>
        <time>2013-03-08T18:17:54Z</time>
      </trkpt>
      <trkpt lat="59.9602007" lon="17.7044454">
        <ele>28.4962</ele>
        <time>2013-03-08T18:17:55Z</time>
      </trkpt>
      <trkpt lat="59.9601876" lon="17.7044306">
        <ele>28.4962</ele>
        <time>2013-03-08T18:17:56Z</time>
      </trkpt>
      <trkpt lat="59.9601738" lon="17.7044213">
        <ele>28.4962</ele>
        <time>2013-03-08T18:17:57Z</time>
      </trkpt>
      <trkpt lat="59.9601598" lon="17.7044136">
        <ele>28.0155</ele>
        <time>2013-03-08T18:17:58Z</time>
      </trkpt>
      <trkpt lat="59.9601443" lon="17.7044102">
        <ele>28.4962</ele>
        <time>2013-03-08T18:17:59Z</time>
      </trkpt>
      <trkpt lat="59.9601296" lon="17.7044067">
        <ele>28.4962</ele>
        <time>2013-03-08T18:18:00Z</time>
      </trkpt>
      <trkpt lat="59.9601147" lon="17.7044084">
        <ele>28.4962</ele>
        <time>2013-03-08T18:18:01Z</time>
      </trkpt>
      <trkpt lat="59.9601001" lon="17.7044152">
        <ele>28.9769</ele>
        <time>2013-03-08T18:18:02Z</time>
      </trkpt>
      <trkpt lat="59.9600866" lon="17.7044178">
        <ele>28.9769</ele>
        <time>2013-03-08T18:18:03Z</time>
      </trkpt>
      <trkpt lat="59.9600722" lon="17.7044125">
        <ele>28.4962</ele>
        <time>2013-03-08T18:18:04Z</time>
      </trkpt>
      <trkpt lat="59.9600583" lon="17.7043968">
        <ele>28.4962</ele>
        <time>2013-03-08T18:18:05Z</time>
      </trkpt>
      <trkpt lat="59.9600462" lon="17.7043767">
        <ele>28.4962</ele>
        <time>2013-03-08T18:18:06Z</time>
      </trkpt>
      <trkpt lat="59.9600347" lon="17.704359">
        <ele>28.4962</ele>
        <time>2013-03-08T18:18:07Z</time>
      </trkpt>
      <trkpt lat="59.9600231" lon="17.7043441">
        <ele>28.4962</ele>
        <time>2013-03-08T18:18:08Z</time>
      </trkpt>
      <trkpt lat="59.9600137" lon="17.7043291">
        <ele>28.4962</ele>
        <time>2013-03-08T18:18:09Z</time>
      </trkpt>
      <trkpt lat="59.9600042" lon="17.7043118">
        <ele>28.4962</ele>
        <time>2013-03-08T18:18:10Z</time>
      </trkpt>
      <trkpt lat="59.959996" lon="17.7042867">
        <ele>28.4962</ele>
        <time>2013-03-08T18:18:11Z</time>
      </trkpt>
      <trkpt lat="59.9599922" lon="17.7042591">
        <ele>28.4962</ele>
        <time>2013-03-08T18:18:12Z</time>
      </trkpt>
      <trkpt lat="59.9599931" lon="17.7042301">
        <ele>28.4962</ele>
        <time>2013-03-08T18:18:13Z</time>
      </trkpt>
      <trkpt lat="59.9599961" lon="17.7042023">
        <ele>28.4962</ele>
        <time>2013-03-08T18:18:14Z</time>
      </trkpt>
      <trkpt lat="59.9600002" lon="17.7041773">
        <ele>28.4962</ele>
        <time>2013-03-08T18:18:15Z</time>
      </trkpt>
      <trkpt lat="59.9599998" lon="17.7041528">
        <ele>28.0155</ele>
        <time>2013-03-08T18:18:16Z</time>
      </trkpt>
      <trkpt lat="59.9600005" lon="17.7041284">
        <ele>28.4962</ele>
        <time>2013-03-08T18:18:17Z</time>
      </trkpt>
      <trkpt lat="59.9599985" lon="17.7041069">
        <ele>28.9769</ele>
        <time>2013-03-08T18:18:18Z</time>
      </trkpt>
      <trkpt lat="59.9599919" lon="17.7040854">
        <ele>28.9769</ele>
        <time>2013-03-08T18:18:19Z</time>
      </trkpt>
      <trkpt lat="59.9599841" lon="17.7040616">
        <ele>28.9769</ele>
        <time>2013-03-08T18:18:20Z</time>
      </trkpt>
      <trkpt lat="59.9599774" lon="17.7040353">
        <ele>28.9769</ele>
        <time>2013-03-08T18:18:21Z</time>
      </trkpt>
      <trkpt lat="59.9599707" lon="17.7040101">
        <ele>28.9769</ele>
        <time>2013-03-08T18:18:22Z</time>
      </trkpt>
      <trkpt lat="59.959965" lon="17.703987">
        <ele>28.9769</ele>
        <time>2013-03-08T18:18:23Z</time>
      </trkpt>
      <trkpt lat="59.9599578" lon="17.7039643">
        <ele>29.4575</ele>
        <time>2013-03-08T18:18:24Z</time>
      </trkpt>
      <trkpt lat="59.95995" lon="17.7039442">
        <ele>29.4575</ele>
        <time>2013-03-08T18:18:25Z</time>
      </trkpt>
      <trkpt lat="59.9599425" lon="17.7039194">
        <ele>29.9381</ele>
        <time>2013-03-08T18:18:26Z</time>
      </trkpt>
      <trkpt lat="59.9599376" lon="17.7038981">
        <ele>29.9381</ele>
        <time>2013-03-08T18:18:27Z</time>
      </trkpt>
      <trkpt lat="59.9599334" lon="17.7038761">
        <ele>30.4188</ele>
        <time>2013-03-08T18:18:28Z</time>
      </trkpt>
      <trkpt lat="59.9599294" lon="17.7038519">
        <ele>30.8995</ele>
        <time>2013-03-08T18:18:29Z</time>
      </trkpt>
      <trkpt lat="59.9599236" lon="17.7038274">
        <ele>30.8995</ele>
        <time>2013-03-08T18:18:30Z</time>
      </trkpt>
      <trkpt lat="59.9599161" lon="17.7038049">
        <ele>31.3801</ele>
        <time>2013-03-08T18:18:31Z</time>
      </trkpt>
      <trkpt lat="59.9599086" lon="17.7037822">
        <ele>31.3801</ele>
        <time>2013-03-08T18:18:32Z</time>
      </trkpt>
      <trkpt lat="59.9599012" lon="17.703758">
        <ele>31.8607</ele>
        <time>2013-03-08T18:18:33Z</time>
      </trkpt>
      <trkpt lat="59.959894" lon="17.7037323">
        <ele>31.8607</ele>
        <time>2013-03-08T18:18:34Z</time>
      </trkpt>
      <trkpt lat="59.9598862" lon="17.7037063">
        <ele>32.8223</ele>
        <time>2013-03-08T18:18:35Z</time>
      </trkpt>
      <trkpt lat="59.959878" lon="17.7036819">
        <ele>32.8223</ele>
        <time>2013-03-08T18:18:36Z</time>
      </trkpt>
      <trkpt lat="59.959871" lon="17.7036577">
        <ele>33.3029</ele>
        <time>2013-03-08T18:18:37Z</time>
      </trkpt>
      <trkpt lat="59.9598629" lon="17.7036325">
        <ele>33.3029</ele>
        <time>2013-03-08T18:18:38Z</time>
      </trkpt>
      <trkpt lat="59.9598537" lon="17.7036069">
        <ele>33.7834</ele>
        <time>2013-03-08T18:18:39Z</time>
      </trkpt>
      <trkpt lat="59.9598444" lon="17.7035811">
        <ele>33.7834</ele>
        <time>2013-03-08T18:18:40Z</time>
      </trkpt>
      <trkpt lat="59.959835" lon="17.7035553">
        <ele>33.7834</ele>
        <time>2013-03-08T18:18:41Z</time>
      </trkpt>
      <trkpt lat="59.9598257" lon="17.7035302">
        <ele>33.7834</ele>
        <time>2013-03-08T18:18:42Z</time>
      </trkpt>
      <trkpt lat="59.9598141" lon="17.7035054">
        <ele>33.3029</ele>
        <time>2013-03-08T18:18:43Z</time>
      </trkpt>
      <trkpt lat="59.9598054" lon="17.7034796">
        <ele>33.3029</ele>
        <time>2013-03-08T18:18:44Z</time>
      </trkpt>
      <trkpt lat="59.9597975" lon="17.7034527">
        <ele>33.3029</ele>
        <time>2013-03-08T18:18:45Z</time>
      </trkpt>
      <trkpt lat="59.9597884" lon="17.7034258">
        <ele>33.7834</ele>
        <time>2013-03-08T18:18:46Z</time>
      </trkpt>
      <trkpt lat="59.9597796" lon="17.7034001">
        <ele>33.7834</ele>
        <time>2013-03-08T18:18:47Z</time>
      </trkpt>
      <trkpt lat="59.9597656" lon="17.703367">
        <ele>33.3029</ele>
        <time>2013-03-08T18:18:48Z</time>
      </trkpt>
      <trkpt lat="59.9597573" lon="17.7033415">
        <ele>33.7834</ele>
        <time>2013-03-08T18:18:49Z</time>
      </trkpt>
      <trkpt lat="59.9597495" lon="17.7033172">
        <ele>33.7834</ele>
        <time>2013-03-08T18:18:50Z</time>
      </trkpt>
      <trkpt lat="59.9597416" lon="17.703294">
        <ele>33.7834</ele>
        <time>2013-03-08T18:18:51Z</time>
      </trkpt>
      <trkpt lat="59.9597354" lon="17.7032703">
        <ele>34.2642</ele>
        <time>2013-03-08T18:18:52Z</time>
      </trkpt>
      <trkpt lat="59.9597278" lon="17.7032444">
        <ele>34.2642</ele>
        <time>2013-03-08T18:18:53Z</time>
      </trkpt>
      <trkpt lat="59.9597195" lon="17.7032172">
        <ele>34.2642</ele>
        <time>2013-03-08T18:18:54Z</time>
      </trkpt>
      <trkpt lat="59.9597122" lon="17.7031916">
        <ele>34.2642</ele>
        <time>2013-03-08T18:18:55Z</time>
      </trkpt>
      <trkpt lat="59.9597058" lon="17.7031677">
        <ele>34.2642</ele>
        <time>2013-03-08T18:18:56Z</time>
      </trkpt>
      <trkpt lat="59.9596986" lon="17.7031427">
        <ele>34.2642</ele>
        <time>2013-03-08T18:18:57Z</time>
      </trkpt>
      <trkpt lat="59.9596918" lon="17.7031195">
        <ele>34.7449</ele>
        <time>2013-03-08T18:18:58Z</time>
      </trkpt>
      <trkpt lat="59.9596849" lon="17.7030942">
        <ele>34.7449</ele>
        <time>2013-03-08T18:18:59Z</time>
      </trkpt>
      <trkpt lat="59.9596752" lon="17.7030675">
        <ele>34.7449</ele>
        <time>2013-03-08T18:19:00Z</time>
      </trkpt>
      <trkpt lat="59.9596661" lon="17.7030406">
        <ele>34.7449</ele>
        <time>2013-03-08T18:19:01Z</time>
      </trkpt>
      <trkpt lat="59.9596576" lon="17.7030145">
        <ele>34.7449</ele>
        <time>2013-03-08T18:19:02Z</time>
      </trkpt>
      <trkpt lat="59.9596491" lon="17.7029934">
        <ele>34.2642</ele>
        <time>2013-03-08T18:19:03Z</time>
      </trkpt>
      <trkpt lat="59.9596423" lon="17.7029713">
        <ele>34.2642</ele>
        <time>2013-03-08T18:19:04Z</time>
      </trkpt>
      <trkpt lat="59.9596356" lon="17.70295">
        <ele>34.2642</ele>
        <time>2013-03-08T18:19:05Z</time>
      </trkpt>
      <trkpt lat="59.9596288" lon="17.7029283">
        <ele>34.2642</ele>
        <time>2013-03-08T18:19:06Z</time>
      </trkpt>
      <trkpt lat="59.9596195" lon="17.7029035">
        <ele>33.7834</ele>
        <time>2013-03-08T18:19:07Z</time>
      </trkpt>
      <trkpt lat="59.9596108" lon="17.7028827">
        <ele>33.7834</ele>
        <time>2013-03-08T18:19:08Z</time>
      </trkpt>
      <trkpt lat="59.9596028" lon="17.702859">
        <ele>33.7834</ele>
        <time>2013-03-08T18:19:09Z</time>
      </trkpt>
      <trkpt lat="59.9595972" lon="17.7028345">
        <ele>33.7834</ele>
        <time>2013-03-08T18:19:10Z</time>
      </trkpt>
      <trkpt lat="59.959592" lon="17.7028087">
        <ele>33.7834</ele>
        <time>2013-03-08T18:19:11Z</time>
      </trkpt>
      <trkpt lat="59.9595864" lon="17.7027844">
        <ele>33.7834</ele>
        <time>2013-03-08T18:19:12Z</time>
      </trkpt>
      <trkpt lat="59.9595801" lon="17.7027603">
        <ele>33.7834</ele>
        <time>2013-03-08T18:19:13Z</time>
      </trkpt>
      <trkpt lat="59.9595733" lon="17.7027342">
        <ele>33.7834</ele>
        <time>2013-03-08T18:19:14Z</time>
      </trkpt>
      <trkpt lat="59.9595665" lon="17.702706">
        <ele>33.7834</ele>
        <time>2013-03-08T18:19:15Z</time>
      </trkpt>
      <trkpt lat="59.9595594" lon="17.7026777">
        <ele>34.2642</ele>
        <time>2013-03-08T18:19:16Z</time>
      </trkpt>
      <trkpt lat="59.9595527" lon="17.7026511">
        <ele>34.2642</ele>
        <time>2013-03-08T18:19:17Z</time>
      </trkpt>
      <trkpt lat="59.9595455" lon="17.7026249">
        <ele>34.2642</ele>
        <time>2013-03-08T18:19:18Z</time>
      </trkpt>
      <trkpt lat="59.9595386" lon="17.7025989">
        <ele>34.2642</ele>
        <time>2013-03-08T18:19:19Z</time>
      </trkpt>
      <trkpt lat="59.9595313" lon="17.7025723">
        <ele>34.7449</ele>
        <time>2013-03-08T18:19:20Z</time>
      </trkpt>
      <trkpt lat="59.9595231" lon="17.7025454">
        <ele>34.7449</ele>
        <time>2013-03-08T18:19:21Z</time>
      </trkpt>
      <trkpt lat="59.9595155" lon="17.7025195">
        <ele>34.7449</ele>
        <time>2013-03-08T18:19:22Z</time>
      </trkpt>
      <trkpt lat="59.9595087" lon="17.7024944">
        <ele>34.7449</ele>
        <time>2013-03-08T18:19:23Z</time>
      </trkpt>
      <trkpt lat="59.9595022" lon="17.7024695">
        <ele>34.7449</ele>
        <time>2013-03-08T18:19:24Z</time>
      </trkpt>
      <trkpt lat="59.959495" lon="17.7024445">
        <ele>34.7449</ele>
        <time>2013-03-08T18:19:25Z</time>
      </trkpt>
      <trkpt lat="59.9594874" lon="17.7024186">
        <ele>34.7449</ele>
        <time>2013-03-08T18:19:26Z</time>
      </trkpt>
      <trkpt lat="59.9594801" lon="17.7023921">
        <ele>34.7449</ele>
        <time>2013-03-08T18:19:27Z</time>
      </trkpt>
      <trkpt lat="59.9594734" lon="17.7023654">
        <ele>34.7449</ele>
        <time>2013-03-08T18:19:28Z</time>
      </trkpt>
      <trkpt lat="59.9594662" lon="17.7023389">
        <ele>34.7449</ele>
        <time>2013-03-08T18:19:29Z</time>
      </trkpt>
      <trkpt lat="59.9594589" lon="17.7023122">
        <ele>34.7449</ele>
        <time>2013-03-08T18:19:30Z</time>
      </trkpt>
      <trkpt lat="59.9594523" lon="17.7022836">
        <ele>34.7449</ele>
        <time>2013-03-08T18:19:31Z</time>
      </trkpt>
      <trkpt lat="59.9594465" lon="17.7022564">
        <ele>34.7449</ele>
        <time>2013-03-08T18:19:32Z</time>
      </trkpt>
      <trkpt lat="59.95944" lon="17.7022314">
        <ele>34.7449</ele>
        <time>2013-03-08T18:19:33Z</time>
      </trkpt>
      <trkpt lat="59.959433" lon="17.7022073">
        <ele>34.2642</ele>
        <time>2013-03-08T18:19:34Z</time>
      </trkpt>
      <trkpt lat="59.9594252" lon="17.7021788">
        <ele>34.7449</ele>
        <time>2013-03-08T18:19:35Z</time>
      </trkpt>
      <trkpt lat="59.9594147" lon="17.7021518">
        <ele>34.2642</ele>
        <time>2013-03-08T18:19:36Z</time>
      </trkpt>
      <trkpt lat="59.9594056" lon="17.7021291">
        <ele>34.2642</ele>
        <time>2013-03-08T18:19:37Z</time>
      </trkpt>
      <trkpt lat="59.9593948" lon="17.7021006">
        <ele>33.7834</ele>
        <time>2013-03-08T18:19:38Z</time>
      </trkpt>
      <trkpt lat="59.9593856" lon="17.7020742">
        <ele>33.7834</ele>
        <time>2013-03-08T18:19:39Z</time>
      </trkpt>
      <trkpt lat="59.959376" lon="17.7020487">
        <ele>33.7834</ele>
        <time>2013-03-08T18:19:40Z</time>
      </trkpt>
      <trkpt lat="59.9593662" lon="17.7020224">
        <ele>33.7834</ele>
        <time>2013-03-08T18:19:41Z</time>
      </trkpt>
      <trkpt lat="59.9593578" lon="17.7019971">
        <ele>33.7834</ele>
        <time>2013-03-08T18:19:42Z</time>
      </trkpt>
      <trkpt lat="59.9593497" lon="17.7019709">
        <ele>33.7834</ele>
        <time>2013-03-08T18:19:43Z</time>
      </trkpt>
      <trkpt lat="59.9593434" lon="17.7019457">
        <ele>34.2642</ele>
        <time>2013-03-08T18:19:44Z</time>
      </trkpt>
      <trkpt lat="59.9593373" lon="17.7019193">
        <ele>34.2642</ele>
        <time>2013-03-08T18:19:45Z</time>
      </trkpt>
      <trkpt lat="59.9593304" lon="17.7018927">
        <ele>34.2642</ele>
        <time>2013-03-08T18:19:46Z</time>
      </trkpt>
      <trkpt lat="59.9593201" lon="17.7018631">
        <ele>33.7834</ele>
        <time>2013-03-08T18:19:47Z</time>
      </trkpt>
      <trkpt lat="59.9593111" lon="17.7018346">
        <ele>33.7834</ele>
        <time>2013-03-08T18:19:48Z</time>
      </trkpt>
      <trkpt lat="59.9593038" lon="17.7018089">
        <ele>33.7834</ele>
        <time>2013-03-08T18:19:49Z</time>
      </trkpt>
      <trkpt lat="59.9592978" lon="17.7017813">
        <ele>33.7834</ele>
        <time>2013-03-08T18:19:50Z</time>
      </trkpt>
      <trkpt lat="59.9592921" lon="17.7017535">
        <ele>33.7834</ele>
        <time>2013-03-08T18:19:51Z</time>
      </trkpt>
      <trkpt lat="59.9592872" lon="17.7017272">
        <ele>33.7834</ele>
        <time>2013-03-08T18:19:52Z</time>
      </trkpt>
      <trkpt lat="59.9592812" lon="17.7017015">
        <ele>33.7834</ele>
        <time>2013-03-08T18:19:53Z</time>
      </trkpt>
      <trkpt lat="59.9592755" lon="17.7016732">
        <ele>33.3029</ele>
        <time>2013-03-08T18:19:54Z</time>
      </trkpt>
      <trkpt lat="59.9592686" lon="17.7016458">
        <ele>33.3029</ele>
        <time>2013-03-08T18:19:55Z</time>
      </trkpt>
      <trkpt lat="59.9592595" lon="17.7016184">
        <ele>33.3029</ele>
        <time>2013-03-08T18:19:56Z</time>
      </trkpt>
      <trkpt lat="59.9592546" lon="17.7015902">
        <ele>33.3029</ele>
        <time>2013-03-08T18:19:57Z</time>
      </trkpt>
      <trkpt lat="59.9592496" lon="17.7015638">
        <ele>33.3029</ele>
        <time>2013-03-08T18:19:58Z</time>
      </trkpt>
      <trkpt lat="59.9592449" lon="17.7015378">
        <ele>32.8223</ele>
        <time>2013-03-08T18:19:59Z</time>
      </trkpt>
      <trkpt lat="59.9592403" lon="17.7015105">
        <ele>32.8223</ele>
        <time>2013-03-08T18:20:00Z</time>
      </trkpt>
      <trkpt lat="59.9592356" lon="17.701483">
        <ele>32.8223</ele>
        <time>2013-03-08T18:20:01Z</time>
      </trkpt>
      <trkpt lat="59.9592305" lon="17.7014553">
        <ele>32.8223</ele>
        <time>2013-03-08T18:20:02Z</time>
      </trkpt>
      <trkpt lat="59.9592254" lon="17.7014272">
        <ele>32.8223</ele>
        <time>2013-03-08T18:20:03Z</time>
      </trkpt>
      <trkpt lat="59.9592214" lon="17.7013982">
        <ele>32.8223</ele>
        <time>2013-03-08T18:20:04Z</time>
      </trkpt>
      <trkpt lat="59.9592186" lon="17.7013676">
        <ele>33.3029</ele>
        <time>2013-03-08T18:20:05Z</time>
      </trkpt>
      <trkpt lat="59.959215" lon="17.7013382">
        <ele>33.3029</ele>
        <time>2013-03-08T18:20:06Z</time>
      </trkpt>
      <trkpt lat="59.9592111" lon="17.7013111">
        <ele>33.3029</ele>
        <time>2013-03-08T18:20:07Z</time>
      </trkpt>
      <trkpt lat="59.9592086" lon="17.7012833">
        <ele>33.3029</ele>
        <time>2013-03-08T18:20:08Z</time>
      </trkpt>
      <trkpt lat="59.9592052" lon="17.7012572">
        <ele>33.3029</ele>
        <time>2013-03-08T18:20:09Z</time>
      </trkpt>
      <trkpt lat="59.9592016" lon="17.7012307">
        <ele>33.3029</ele>
        <time>2013-03-08T18:20:10Z</time>
      </trkpt>
      <trkpt lat="59.9591979" lon="17.7012035">
        <ele>33.3029</ele>
        <time>2013-03-08T18:20:11Z</time>
      </trkpt>
      <trkpt lat="59.9591942" lon="17.7011774">
        <ele>32.8223</ele>
        <time>2013-03-08T18:20:12Z</time>
      </trkpt>
      <trkpt lat="59.95919" lon="17.7011506">
        <ele>32.8223</ele>
        <time>2013-03-08T18:20:13Z</time>
      </trkpt>
      <trkpt lat="59.9591855" lon="17.7011225">
        <ele>32.8223</ele>
        <time>2013-03-08T18:20:14Z</time>
      </trkpt>
      <trkpt lat="59.9591817" lon="17.7010941">
        <ele>32.3416</ele>
        <time>2013-03-08T18:20:15Z</time>
      </trkpt>
      <trkpt lat="59.9591803" lon="17.7010677">
        <ele>32.3416</ele>
        <time>2013-03-08T18:20:16Z</time>
      </trkpt>
      <trkpt lat="59.9591774" lon="17.7010377">
        <ele>31.8607</ele>
        <time>2013-03-08T18:20:17Z</time>
      </trkpt>
      <trkpt lat="59.959173" lon="17.7010065">
        <ele>31.8607</ele>
        <time>2013-03-08T18:20:18Z</time>
      </trkpt>
      <trkpt lat="59.9591694" lon="17.7009755">
        <ele>32.3416</ele>
        <time>2013-03-08T18:20:19Z</time>
      </trkpt>
      <trkpt lat="59.959167" lon="17.7009457">
        <ele>31.8607</ele>
        <time>2013-03-08T18:20:20Z</time>
      </trkpt>
      <trkpt lat="59.9591658" lon="17.7009148">
        <ele>31.8607</ele>
        <time>2013-03-08T18:20:21Z</time>
      </trkpt>
      <trkpt lat="59.9591639" lon="17.7008823">
        <ele>31.8607</ele>
        <time>2013-03-08T18:20:22Z</time>
      </trkpt>
      <trkpt lat="59.9591608" lon="17.7008531">
        <ele>31.8607</ele>
        <time>2013-03-08T18:20:23Z</time>
      </trkpt>
      <trkpt lat="59.9591579" lon="17.7008242">
        <ele>31.3801</ele>
        <time>2013-03-08T18:20:24Z</time>
      </trkpt>
      <trkpt lat="59.9591552" lon="17.7007957">
        <ele>31.3801</ele>
        <time>2013-03-08T18:20:25Z</time>
      </trkpt>
      <trkpt lat="59.9591517" lon="17.7007647">
        <ele>31.3801</ele>
        <time>2013-03-08T18:20:26Z</time>
      </trkpt>
      <trkpt lat="59.9591479" lon="17.7007354">
        <ele>31.3801</ele>
        <time>2013-03-08T18:20:27Z</time>
      </trkpt>
      <trkpt lat="59.9591443" lon="17.7007067">
        <ele>31.3801</ele>
        <time>2013-03-08T18:20:28Z</time>
      </trkpt>
      <trkpt lat="59.9591424" lon="17.7006788">
        <ele>31.3801</ele>
        <time>2013-03-08T18:20:29Z</time>
      </trkpt>
      <trkpt lat="59.9591397" lon="17.7006486">
        <ele>31.3801</ele>
        <time>2013-03-08T18:20:30Z</time>
      </trkpt>
      <trkpt lat="59.9591367" lon="17.7006189">
        <ele>31.3801</ele>
        <time>2013-03-08T18:20:31Z</time>
      </trkpt>
      <trkpt lat="59.959134" lon="17.7005896">
        <ele>31.3801</ele>
        <time>2013-03-08T18:20:32Z</time>
      </trkpt>
      <trkpt lat="59.9591323" lon="17.7005621">
        <ele>30.8995</ele>
        <time>2013-03-08T18:20:33Z</time>
      </trkpt>
      <trkpt lat="59.9591292" lon="17.7005331">
        <ele>31.3801</ele>
        <time>2013-03-08T18:20:34Z</time>
      </trkpt>
      <trkpt lat="59.9591268" lon="17.7005045">
        <ele>30.8995</ele>
        <time>2013-03-08T18:20:35Z</time>
      </trkpt>
      <trkpt lat="59.9591237" lon="17.7004756">
        <ele>30.8995</ele>
        <time>2013-03-08T18:20:36Z</time>
      </trkpt>
      <trkpt lat="59.9591217" lon="17.7004466">
        <ele>30.8995</ele>
        <time>2013-03-08T18:20:37Z</time>
      </trkpt>
      <trkpt lat="59.9591199" lon="17.7004184">
        <ele>30.4188</ele>
        <time>2013-03-08T18:20:38Z</time>
      </trkpt>
      <trkpt lat="59.9591173" lon="17.7003912">
        <ele>30.4188</ele>
        <time>2013-03-08T18:20:39Z</time>
      </trkpt>
      <trkpt lat="59.9591145" lon="17.7003636">
        <ele>30.4188</ele>
        <time>2013-03-08T18:20:40Z</time>
      </trkpt>
      <trkpt lat="59.9591113" lon="17.700334">
        <ele>29.9381</ele>
        <time>2013-03-08T18:20:41Z</time>
      </trkpt>
      <trkpt lat="59.9591082" lon="17.7003046">
        <ele>29.9381</ele>
        <time>2013-03-08T18:20:42Z</time>
      </trkpt>
      <trkpt lat="59.9591054" lon="17.7002746">
        <ele>29.9381</ele>
        <time>2013-03-08T18:20:43Z</time>
      </trkpt>
      <trkpt lat="59.9591018" lon="17.7002446">
        <ele>29.9381</ele>
        <time>2013-03-08T18:20:44Z</time>
      </trkpt>
      <trkpt lat="59.9590984" lon="17.7002131">
        <ele>29.9381</ele>
        <time>2013-03-08T18:20:45Z</time>
      </trkpt>
      <trkpt lat="59.9590979" lon="17.7001807">
        <ele>29.9381</ele>
        <time>2013-03-08T18:20:46Z</time>
      </trkpt>
      <trkpt lat="59.9590995" lon="17.7001517">
        <ele>29.9381</ele>
        <time>2013-03-08T18:20:47Z</time>
      </trkpt>
      <trkpt lat="59.9591051" lon="17.7001259">
        <ele>29.9381</ele>
        <time>2013-03-08T18:20:48Z</time>
      </trkpt>
      <trkpt lat="59.9591123" lon="17.7000976">
        <ele>29.9381</ele>
        <time>2013-03-08T18:20:49Z</time>
      </trkpt>
      <trkpt lat="59.959121" lon="17.7000698">
        <ele>29.9381</ele>
        <time>2013-03-08T18:20:50Z</time>
      </trkpt>
      <trkpt lat="59.959133" lon="17.700043">
        <ele>30.4188</ele>
        <time>2013-03-08T18:20:51Z</time>
      </trkpt>
      <trkpt lat="59.9591414" lon="17.7000188">
        <ele>30.4188</ele>
        <time>2013-03-08T18:20:52Z</time>
      </trkpt>
      <trkpt lat="59.9591492" lon="17.6999939">
        <ele>30.4188</ele>
        <time>2013-03-08T18:20:53Z</time>
      </trkpt>
      <trkpt lat="59.9591533" lon="17.6999665">
        <ele>30.4188</ele>
        <time>2013-03-08T18:20:54Z</time>
      </trkpt>
      <trkpt lat="59.9591521" lon="17.6999375">
        <ele>29.9381</ele>
        <time>2013-03-08T18:20:55Z</time>
      </trkpt>
      <trkpt lat="59.9591481" lon="17.6999072">
        <ele>29.9381</ele>
        <time>2013-03-08T18:20:56Z</time>
      </trkpt>
      <trkpt lat="59.9591434" lon="17.6998774">
        <ele>29.9381</ele>
        <time>2013-03-08T18:20:57Z</time>
      </trkpt>
      <trkpt lat="59.9591388" lon="17.6998476">
        <ele>29.4575</ele>
        <time>2013-03-08T18:20:58Z</time>
      </trkpt>
      <trkpt lat="59.9591356" lon="17.699818">
        <ele>29.9381</ele>
        <time>2013-03-08T18:20:59Z</time>
      </trkpt>
      <trkpt lat="59.9591321" lon="17.6997892">
        <ele>29.9381</ele>
        <time>2013-03-08T18:21:00Z</time>
      </trkpt>
      <trkpt lat="59.9591292" lon="17.6997596">
        <ele>29.9381</ele>
        <time>2013-03-08T18:21:01Z</time>
      </trkpt>
      <trkpt lat="59.959127" lon="17.6997291">
        <ele>29.9381</ele>
        <time>2013-03-08T18:21:02Z</time>
      </trkpt>
      <trkpt lat="59.9591251" lon="17.6996999">
        <ele>29.9381</ele>
        <time>2013-03-08T18:21:03Z</time>
      </trkpt>
      <trkpt lat="59.9591221" lon="17.6996696">
        <ele>30.4188</ele>
        <time>2013-03-08T18:21:04Z</time>
      </trkpt>
      <trkpt lat="59.9591185" lon="17.6996384">
        <ele>30.4188</ele>
        <time>2013-03-08T18:21:05Z</time>
      </trkpt>
      <trkpt lat="59.9591153" lon="17.6996077">
        <ele>30.4188</ele>
        <time>2013-03-08T18:21:06Z</time>
      </trkpt>
      <trkpt lat="59.9591123" lon="17.699577">
        <ele>30.4188</ele>
        <time>2013-03-08T18:21:07Z</time>
      </trkpt>
      <trkpt lat="59.9591091" lon="17.6995471">
        <ele>30.8995</ele>
        <time>2013-03-08T18:21:08Z</time>
      </trkpt>
      <trkpt lat="59.9591064" lon="17.6995176">
        <ele>30.8995</ele>
        <time>2013-03-08T18:21:09Z</time>
      </trkpt>
      <trkpt lat="59.9591041" lon="17.6994889">
        <ele>30.8995</ele>
        <time>2013-03-08T18:21:10Z</time>
      </trkpt>
      <trkpt lat="59.959103" lon="17.6994592">
        <ele>30.8995</ele>
        <time>2013-03-08T18:21:11Z</time>
      </trkpt>
      <trkpt lat="59.959102" lon="17.6994295">
        <ele>31.3801</ele>
        <time>2013-03-08T18:21:12Z</time>
      </trkpt>
      <trkpt lat="59.9591007" lon="17.6994006">
        <ele>31.3801</ele>
        <time>2013-03-08T18:21:13Z</time>
      </trkpt>
      <trkpt lat="59.9590998" lon="17.699372">
        <ele>31.8607</ele>
        <time>2013-03-08T18:21:14Z</time>
      </trkpt>
      <trkpt lat="59.9590988" lon="17.6993443">
        <ele>31.8607</ele>
        <time>2013-03-08T18:21:15Z</time>
      </trkpt>
      <trkpt lat="59.959098" lon="17.699315">
        <ele>31.8607</ele>
        <time>2013-03-08T18:21:16Z</time>
      </trkpt>
      <trkpt lat="59.9590977" lon="17.6992862">
        <ele>32.3416</ele>
        <time>2013-03-08T18:21:17Z</time>
      </trkpt>
      <trkpt lat="59.9590973" lon="17.6992593">
        <ele>32.3416</ele>
        <time>2013-03-08T18:21:18Z</time>
      </trkpt>
      <trkpt lat="59.9590961" lon="17.6992302">
        <ele>32.3416</ele>
        <time>2013-03-08T18:21:19Z</time>
      </trkpt>
      <trkpt lat="59.9590947" lon="17.6992007">
        <ele>32.3416</ele>
        <time>2013-03-08T18:21:20Z</time>
      </trkpt>
      <trkpt lat="59.959092" lon="17.6991728">
        <ele>32.8223</ele>
        <time>2013-03-08T18:21:21Z</time>
      </trkpt>
      <trkpt lat="59.9590902" lon="17.6991453">
        <ele>32.8223</ele>
        <time>2013-03-08T18:21:22Z</time>
      </trkpt>
      <trkpt lat="59.9590885" lon="17.6991178">
        <ele>32.8223</ele>
        <time>2013-03-08T18:21:23Z</time>
      </trkpt>
      <trkpt lat="59.9590875" lon="17.6990909">
        <ele>32.8223</ele>
        <time>2013-03-08T18:21:24Z</time>
      </trkpt>
      <trkpt lat="59.9590871" lon="17.6990656">
        <ele>32.8223</ele>
        <time>2013-03-08T18:21:25Z</time>
      </trkpt>
      <trkpt lat="59.959087" lon="17.6990397">
        <ele>32.8223</ele>
        <time>2013-03-08T18:21:26Z</time>
      </trkpt>
      <trkpt lat="59.9590864" lon="17.6990115">
        <ele>33.3029</ele>
        <time>2013-03-08T18:21:27Z</time>
      </trkpt>
      <trkpt lat="59.9590854" lon="17.6989832">
        <ele>33.3029</ele>
        <time>2013-03-08T18:21:28Z</time>
      </trkpt>
      <trkpt lat="59.9590857" lon="17.6989581">
        <ele>33.3029</ele>
        <time>2013-03-08T18:21:29Z</time>
      </trkpt>
      <trkpt lat="59.9590859" lon="17.698931">
        <ele>33.3029</ele>
        <time>2013-03-08T18:21:30Z</time>
      </trkpt>
      <trkpt lat="59.9590847" lon="17.6989019">
        <ele>33.3029</ele>
        <time>2013-03-08T18:21:31Z</time>
      </trkpt>
      <trkpt lat="59.9590828" lon="17.6988724">
        <ele>33.3029</ele>
        <time>2013-03-08T18:21:32Z</time>
      </trkpt>
      <trkpt lat="59.9590821" lon="17.6988444">
        <ele>33.3029</ele>
        <time>2013-03-08T18:21:33Z</time>
      </trkpt>
      <trkpt lat="59.9590818" lon="17.6988163">
        <ele>33.3029</ele>
        <time>2013-03-08T18:21:34Z</time>
      </trkpt>
      <trkpt lat="59.9590814" lon="17.6987869">
        <ele>33.3029</ele>
        <time>2013-03-08T18:21:35Z</time>
      </trkpt>
      <trkpt lat="59.9590809" lon="17.698758">
        <ele>33.3029</ele>
        <time>2013-03-08T18:21:36Z</time>
      </trkpt>
      <trkpt lat="59.9590802" lon="17.6987292">
        <ele>33.3029</ele>
        <time>2013-03-08T18:21:37Z</time>
      </trkpt>
      <trkpt lat="59.9590797" lon="17.6987012">
        <ele>33.3029</ele>
        <time>2013-03-08T18:21:38Z</time>
      </trkpt>
      <trkpt lat="59.9590796" lon="17.698675">
        <ele>33.7834</ele>
        <time>2013-03-08T18:21:39Z</time>
      </trkpt>
      <trkpt lat="59.9590786" lon="17.6986479">
        <ele>33.7834</ele>
        <time>2013-03-08T18:21:40Z</time>
      </trkpt>
      <trkpt lat="59.9590771" lon="17.6986205">
        <ele>33.7834</ele>
        <time>2013-03-08T18:21:41Z</time>
      </trkpt>
      <trkpt lat="59.9590761" lon="17.6985909">
        <ele>33.7834</ele>
        <time>2013-03-08T18:21:42Z</time>
      </trkpt>
      <trkpt lat="59.9590749" lon="17.6985617">
        <ele>33.7834</ele>
        <time>2013-03-08T18:21:43Z</time>
      </trkpt>
      <trkpt lat="59.9590726" lon="17.6985321">
        <ele>33.7834</ele>
        <time>2013-03-08T18:21:44Z</time>
      </trkpt>
      <trkpt lat="59.9590709" lon="17.6985039">
        <ele>33.7834</ele>
        <time>2013-03-08T18:21:45Z</time>
      </trkpt>
      <trkpt lat="59.9590689" lon="17.6984756">
        <ele>33.7834</ele>
        <time>2013-03-08T18:21:46Z</time>
      </trkpt>
      <trkpt lat="59.9590669" lon="17.6984464">
        <ele>33.7834</ele>
        <time>2013-03-08T18:21:47Z</time>
      </trkpt>
      <trkpt lat="59.9590661" lon="17.6984169">
        <ele>33.7834</ele>
        <time>2013-03-08T18:21:48Z</time>
      </trkpt>
      <trkpt lat="59.959066" lon="17.698388">
        <ele>33.7834</ele>
        <time>2013-03-08T18:21:49Z</time>
      </trkpt>
      <trkpt lat="59.959066" lon="17.6983605">
        <ele>33.7834</ele>
        <time>2013-03-08T18:21:50Z</time>
      </trkpt>
      <trkpt lat="59.9590655" lon="17.6983326">
        <ele>33.7834</ele>
        <time>2013-03-08T18:21:51Z</time>
      </trkpt>
      <trkpt lat="59.9590647" lon="17.6983052">
        <ele>33.7834</ele>
        <time>2013-03-08T18:21:52Z</time>
      </trkpt>
      <trkpt lat="59.9590645" lon="17.6982778">
        <ele>33.7834</ele>
        <time>2013-03-08T18:21:53Z</time>
      </trkpt>
      <trkpt lat="59.9590646" lon="17.6982501">
        <ele>33.3029</ele>
        <time>2013-03-08T18:21:54Z</time>
      </trkpt>
      <trkpt lat="59.9590643" lon="17.6982215">
        <ele>33.3029</ele>
        <time>2013-03-08T18:21:55Z</time>
      </trkpt>
      <trkpt lat="59.9590637" lon="17.6981927">
        <ele>33.3029</ele>
        <time>2013-03-08T18:21:56Z</time>
      </trkpt>
      <trkpt lat="59.9590616" lon="17.6981654">
        <ele>33.3029</ele>
        <time>2013-03-08T18:21:57Z</time>
      </trkpt>
      <trkpt lat="59.959059" lon="17.6981366">
        <ele>33.3029</ele>
        <time>2013-03-08T18:21:58Z</time>
      </trkpt>
      <trkpt lat="59.959057" lon="17.6981067">
        <ele>33.3029</ele>
        <time>2013-03-08T18:21:59Z</time>
      </trkpt>
      <trkpt lat="59.9590553" lon="17.6980762">
        <ele>33.3029</ele>
        <time>2013-03-08T18:22:00Z</time>
      </trkpt>
      <trkpt lat="59.9590527" lon="17.698047">
        <ele>32.8223</ele>
        <time>2013-03-08T18:22:01Z</time>
      </trkpt>
      <trkpt lat="59.9590497" lon="17.6980177">
        <ele>32.8223</ele>
        <time>2013-03-08T18:22:02Z</time>
      </trkpt>
      <trkpt lat="59.9590467" lon="17.697988">
        <ele>32.8223</ele>
        <time>2013-03-08T18:22:03Z</time>
      </trkpt>
      <trkpt lat="59.9590441" lon="17.69796">
        <ele>32.8223</ele>
        <time>2013-03-08T18:22:04Z</time>
      </trkpt>
      <trkpt lat="59.9590418" lon="17.6979326">
        <ele>32.8223</ele>
        <time>2013-03-08T18:22:05Z</time>
      </trkpt>
      <trkpt lat="59.9590394" lon="17.6979047">
        <ele>32.3416</ele>
        <time>2013-03-08T18:22:06Z</time>
      </trkpt>
      <trkpt lat="59.9590368" lon="17.6978767">
        <ele>32.3416</ele>
        <time>2013-03-08T18:22:07Z</time>
      </trkpt>
      <trkpt lat="59.9590334" lon="17.6978519">
        <ele>32.3416</ele>
        <time>2013-03-08T18:22:08Z</time>
      </trkpt>
      <trkpt lat="59.9590264" lon="17.6978248">
        <ele>32.3416</ele>
        <time>2013-03-08T18:22:09Z</time>
      </trkpt>
      <trkpt lat="59.9590186" lon="17.697796">
        <ele>32.3416</ele>
        <time>2013-03-08T18:22:10Z</time>
      </trkpt>
      <trkpt lat="59.9590113" lon="17.6977701">
        <ele>32.3416</ele>
        <time>2013-03-08T18:22:11Z</time>
      </trkpt>
      <trkpt lat="59.9590036" lon="17.6977452">
        <ele>32.3416</ele>
        <time>2013-03-08T18:22:12Z</time>
      </trkpt>
      <trkpt lat="59.9589963" lon="17.6977213">
        <ele>32.8223</ele>
        <time>2013-03-08T18:22:13Z</time>
      </trkpt>
      <trkpt lat="59.9589889" lon="17.697697">
        <ele>32.3416</ele>
        <time>2013-03-08T18:22:14Z</time>
      </trkpt>
      <trkpt lat="59.9589807" lon="17.6976735">
        <ele>32.3416</ele>
        <time>2013-03-08T18:22:15Z</time>
      </trkpt>
      <trkpt lat="59.958972" lon="17.6976509">
        <ele>32.3416</ele>
        <time>2013-03-08T18:22:16Z</time>
      </trkpt>
      <trkpt lat="59.9589611" lon="17.6976259">
        <ele>32.3416</ele>
        <time>2013-03-08T18:22:17Z</time>
      </trkpt>
      <trkpt lat="59.958951" lon="17.6976006">
        <ele>32.3416</ele>
        <time>2013-03-08T18:22:18Z</time>
      </trkpt>
      <trkpt lat="59.9589414" lon="17.6975761">
        <ele>32.3416</ele>
        <time>2013-03-08T18:22:19Z</time>
      </trkpt>
      <trkpt lat="59.9589325" lon="17.6975509">
        <ele>31.8607</ele>
        <time>2013-03-08T18:22:20Z</time>
      </trkpt>
      <trkpt lat="59.9589236" lon="17.6975267">
        <ele>32.3416</ele>
        <time>2013-03-08T18:22:21Z</time>
      </trkpt>
      <trkpt lat="59.9589134" lon="17.6975015">
        <ele>32.3416</ele>
        <time>2013-03-08T18:22:22Z</time>
      </trkpt>
      <trkpt lat="59.9589047" lon="17.6974775">
        <ele>31.8607</ele>
        <time>2013-03-08T18:22:23Z</time>
      </trkpt>
      <trkpt lat="59.9588994" lon="17.6974543">
        <ele>32.3416</ele>
        <time>2013-03-08T18:22:24Z</time>
      </trkpt>
      <trkpt lat="59.9588943" lon="17.6974293">
        <ele>32.3416</ele>
        <time>2013-03-08T18:22:25Z</time>
      </trkpt>
      <trkpt lat="59.9588902" lon="17.6974022">
        <ele>32.3416</ele>
        <time>2013-03-08T18:22:26Z</time>
      </trkpt>
      <trkpt lat="59.9588863" lon="17.6973743">
        <ele>32.3416</ele>
        <time>2013-03-08T18:22:27Z</time>
      </trkpt>
      <trkpt lat="59.9588814" lon="17.6973476">
        <ele>32.3416</ele>
        <time>2013-03-08T18:22:28Z</time>
      </trkpt>
      <trkpt lat="59.9588764" lon="17.6973194">
        <ele>32.3416</ele>
        <time>2013-03-08T18:22:29Z</time>
      </trkpt>
      <trkpt lat="59.9588715" lon="17.6972899">
        <ele>32.8223</ele>
        <time>2013-03-08T18:22:30Z</time>
      </trkpt>
      <trkpt lat="59.9588674" lon="17.6972599">
        <ele>32.8223</ele>
        <time>2013-03-08T18:22:31Z</time>
      </trkpt>
      <trkpt lat="59.958863" lon="17.697234">
        <ele>32.8223</ele>
        <time>2013-03-08T18:22:32Z</time>
      </trkpt>
      <trkpt lat="59.9588558" lon="17.6972065">
        <ele>32.8223</ele>
        <time>2013-03-08T18:22:33Z</time>
      </trkpt>
      <trkpt lat="59.9588476" lon="17.6971754">
        <ele>32.8223</ele>
        <time>2013-03-08T18:22:34Z</time>
      </trkpt>
      <trkpt lat="59.9588412" lon="17.6971478">
        <ele>33.3029</ele>
        <time>2013-03-08T18:22:35Z</time>
      </trkpt>
      <trkpt lat="59.9588343" lon="17.6971198">
        <ele>33.3029</ele>
        <time>2013-03-08T18:22:36Z</time>
      </trkpt>
      <trkpt lat="59.958828" lon="17.6970924">
        <ele>33.3029</ele>
        <time>2013-03-08T18:22:37Z</time>
      </trkpt>
      <trkpt lat="59.9588232" lon="17.6970661">
        <ele>33.3029</ele>
        <time>2013-03-08T18:22:38Z</time>
      </trkpt>
      <trkpt lat="59.9588181" lon="17.6970377">
        <ele>33.3029</ele>
        <time>2013-03-08T18:22:39Z</time>
      </trkpt>
      <trkpt lat="59.9588132" lon="17.6970109">
        <ele>33.3029</ele>
        <time>2013-03-08T18:22:40Z</time>
      </trkpt>
      <trkpt lat="59.9588072" lon="17.6969835">
        <ele>33.3029</ele>
        <time>2013-03-08T18:22:41Z</time>
      </trkpt>
      <trkpt lat="59.9588005" lon="17.6969563">
        <ele>32.8223</ele>
        <time>2013-03-08T18:22:42Z</time>
      </trkpt>
      <trkpt lat="59.9587931" lon="17.6969297">
        <ele>32.8223</ele>
        <time>2013-03-08T18:22:43Z</time>
      </trkpt>
      <trkpt lat="59.9587855" lon="17.6969024">
        <ele>32.8223</ele>
        <time>2013-03-08T18:22:44Z</time>
      </trkpt>
      <trkpt lat="59.9587783" lon="17.6968766">
        <ele>32.8223</ele>
        <time>2013-03-08T18:22:45Z</time>
      </trkpt>
      <trkpt lat="59.9587705" lon="17.696848">
        <ele>32.8223</ele>
        <time>2013-03-08T18:22:46Z</time>
      </trkpt>
      <trkpt lat="59.958763" lon="17.6968194">
        <ele>32.8223</ele>
        <time>2013-03-08T18:22:47Z</time>
      </trkpt>
      <trkpt lat="59.9587555" lon="17.6967915">
        <ele>32.8223</ele>
        <time>2013-03-08T18:22:48Z</time>
      </trkpt>
      <trkpt lat="59.9587482" lon="17.6967635">
        <ele>32.8223</ele>
        <time>2013-03-08T18:22:49Z</time>
      </trkpt>
      <trkpt lat="59.9587414" lon="17.6967364">
        <ele>32.8223</ele>
        <time>2013-03-08T18:22:50Z</time>
      </trkpt>
      <trkpt lat="59.958734" lon="17.6967097">
        <ele>32.8223</ele>
        <time>2013-03-08T18:22:51Z</time>
      </trkpt>
      <trkpt lat="59.9587264" lon="17.6966828">
        <ele>32.8223</ele>
        <time>2013-03-08T18:22:52Z</time>
      </trkpt>
      <trkpt lat="59.9587195" lon="17.6966563">
        <ele>32.8223</ele>
        <time>2013-03-08T18:22:53Z</time>
      </trkpt>
      <trkpt lat="59.9587135" lon="17.6966302">
        <ele>32.8223</ele>
        <time>2013-03-08T18:22:54Z</time>
      </trkpt>
      <trkpt lat="59.9587067" lon="17.6966058">
        <ele>32.8223</ele>
        <time>2013-03-08T18:22:55Z</time>
      </trkpt>
      <trkpt lat="59.9586991" lon="17.6965811">
        <ele>32.8223</ele>
        <time>2013-03-08T18:22:56Z</time>
      </trkpt>
      <trkpt lat="59.9586906" lon="17.6965554">
        <ele>33.3029</ele>
        <time>2013-03-08T18:22:57Z</time>
      </trkpt>
      <trkpt lat="59.9586814" lon="17.6965311">
        <ele>32.8223</ele>
        <time>2013-03-08T18:22:58Z</time>
      </trkpt>
      <trkpt lat="59.9586725" lon="17.69651">
        <ele>32.8223</ele>
        <time>2013-03-08T18:22:59Z</time>
      </trkpt>
      <trkpt lat="59.9586622" lon="17.6964927">
        <ele>33.3029</ele>
        <time>2013-03-08T18:23:00Z</time>
      </trkpt>
      <trkpt lat="59.9586509" lon="17.6964791">
        <ele>32.8223</ele>
        <time>2013-03-08T18:23:01Z</time>
      </trkpt>
      <trkpt lat="59.9586388" lon="17.6964696">
        <ele>32.8223</ele>
        <time>2013-03-08T18:23:02Z</time>
      </trkpt>
      <trkpt lat="59.9586252" lon="17.6964615">
        <ele>32.8223</ele>
        <time>2013-03-08T18:23:03Z</time>
      </trkpt>
      <trkpt lat="59.9586107" lon="17.6964569">
        <ele>32.3416</ele>
        <time>2013-03-08T18:23:04Z</time>
      </trkpt>
      <trkpt lat="59.9585969" lon="17.6964536">
        <ele>31.8607</ele>
        <time>2013-03-08T18:23:05Z</time>
      </trkpt>
      <trkpt lat="59.9585831" lon="17.6964505">
        <ele>31.8607</ele>
        <time>2013-03-08T18:23:06Z</time>
      </trkpt>
      <trkpt lat="59.958569" lon="17.6964502">
        <ele>31.8607</ele>
        <time>2013-03-08T18:23:07Z</time>
      </trkpt>
      <trkpt lat="59.958555" lon="17.6964496">
        <ele>31.3801</ele>
        <time>2013-03-08T18:23:08Z</time>
      </trkpt>
      <trkpt lat="59.9585416" lon="17.6964471">
        <ele>31.3801</ele>
        <time>2013-03-08T18:23:09Z</time>
      </trkpt>
      <trkpt lat="59.9585283" lon="17.6964433">
        <ele>30.8995</ele>
        <time>2013-03-08T18:23:10Z</time>
      </trkpt>
      <trkpt lat="59.9585157" lon="17.6964341">
        <ele>30.4188</ele>
        <time>2013-03-08T18:23:11Z</time>
      </trkpt>
      <trkpt lat="59.9585033" lon="17.696423">
        <ele>30.4188</ele>
        <time>2013-03-08T18:23:12Z</time>
      </trkpt>
      <trkpt lat="59.9584917" lon="17.6964056">
        <ele>30.4188</ele>
        <time>2013-03-08T18:23:13Z</time>
      </trkpt>
      <trkpt lat="59.9584817" lon="17.696387">
        <ele>30.4188</ele>
        <time>2013-03-08T18:23:14Z</time>
      </trkpt>
      <trkpt lat="59.9584721" lon="17.6963683">
        <ele>30.4188</ele>
        <time>2013-03-08T18:23:15Z</time>
      </trkpt>
      <trkpt lat="59.9584632" lon="17.6963455">
        <ele>30.4188</ele>
        <time>2013-03-08T18:23:16Z</time>
      </trkpt>
      <trkpt lat="59.9584553" lon="17.6963238">
        <ele>30.4188</ele>
        <time>2013-03-08T18:23:17Z</time>
      </trkpt>
      <trkpt lat="59.9584476" lon="17.6963023">
        <ele>30.4188</ele>
        <time>2013-03-08T18:23:18Z</time>
      </trkpt>
      <trkpt lat="59.9584401" lon="17.6962775">
        <ele>30.4188</ele>
        <time>2013-03-08T18:23:19Z</time>
      </trkpt>
      <trkpt lat="59.9584338" lon="17.6962547">
        <ele>30.4188</ele>
        <time>2013-03-08T18:23:20Z</time>
      </trkpt>
      <trkpt lat="59.9584261" lon="17.6962321">
        <ele>30.4188</ele>
        <time>2013-03-08T18:23:21Z</time>
      </trkpt>
      <trkpt lat="59.958417" lon="17.6962096">
        <ele>30.8995</ele>
        <time>2013-03-08T18:23:22Z</time>
      </trkpt>
      <trkpt lat="59.9584079" lon="17.6961923">
        <ele>30.4188</ele>
        <time>2013-03-08T18:23:23Z</time>
      </trkpt>
      <trkpt lat="59.9583985" lon="17.6961787">
        <ele>30.8995</ele>
        <time>2013-03-08T18:23:24Z</time>
      </trkpt>
      <trkpt lat="59.9583902" lon="17.6961622">
        <ele>30.8995</ele>
        <time>2013-03-08T18:23:25Z</time>
      </trkpt>
      <trkpt lat="59.9583865" lon="17.6961433">
        <ele>30.8995</ele>
        <time>2013-03-08T18:23:26Z</time>
      </trkpt>
      <trkpt lat="59.9583849" lon="17.6961228">
        <ele>30.8995</ele>
        <time>2013-03-08T18:23:27Z</time>
      </trkpt>
      <trkpt lat="59.9583826" lon="17.6961053">
        <ele>31.3801</ele>
        <time>2013-03-08T18:23:28Z</time>
      </trkpt>
      <trkpt lat="59.9583783" lon="17.696091">
        <ele>31.3801</ele>
        <time>2013-03-08T18:23:29Z</time>
      </trkpt>
      <trkpt lat="59.958369" lon="17.6960808">
        <ele>31.3801</ele>
        <time>2013-03-08T18:23:30Z</time>
      </trkpt>
      <trkpt lat="59.9583608" lon="17.6960684">
        <ele>31.3801</ele>
        <time>2013-03-08T18:23:31Z</time>
      </trkpt>
      <trkpt lat="59.9583536" lon="17.6960507">
        <ele>31.3801</ele>
        <time>2013-03-08T18:23:32Z</time>
      </trkpt>
      <trkpt lat="59.958345" lon="17.6960329">
        <ele>31.3801</ele>
        <time>2013-03-08T18:23:33Z</time>
      </trkpt>
      <trkpt lat="59.958337" lon="17.696013">
        <ele>31.8607</ele>
        <time>2013-03-08T18:23:34Z</time>
      </trkpt>
      <trkpt lat="59.9583229" lon="17.6959787">
        <ele>31.8607</ele>
        <time>2013-03-08T18:23:36Z</time>
      </trkpt>
      <trkpt lat="59.9583144" lon="17.695958">
        <ele>32.3416</ele>
        <time>2013-03-08T18:23:37Z</time>
      </trkpt>
      <trkpt lat="59.9583084" lon="17.6959394">
        <ele>32.8223</ele>
        <time>2013-03-08T18:23:38Z</time>
      </trkpt>
      <trkpt lat="59.9583043" lon="17.6959227">
        <ele>32.8223</ele>
        <time>2013-03-08T18:23:39Z</time>
      </trkpt>
      <trkpt lat="59.9582991" lon="17.6959035">
        <ele>32.8223</ele>
        <time>2013-03-08T18:23:40Z</time>
      </trkpt>
      <trkpt lat="59.9582923" lon="17.6958814">
        <ele>32.8223</ele>
        <time>2013-03-08T18:23:41Z</time>
      </trkpt>
      <trkpt lat="59.9582856" lon="17.695861">
        <ele>33.3029</ele>
        <time>2013-03-08T18:23:42Z</time>
      </trkpt>
      <trkpt lat="59.9582797" lon="17.6958389">
        <ele>33.3029</ele>
        <time>2013-03-08T18:23:43Z</time>
      </trkpt>
      <trkpt lat="59.9582727" lon="17.6958166">
        <ele>33.3029</ele>
        <time>2013-03-08T18:23:44Z</time>
      </trkpt>
      <trkpt lat="59.9582664" lon="17.6957949">
        <ele>33.3029</ele>
        <time>2013-03-08T18:23:45Z</time>
      </trkpt>
      <trkpt lat="59.9582596" lon="17.6957771">
        <ele>32.8223</ele>
        <time>2013-03-08T18:23:46Z</time>
      </trkpt>
      <trkpt lat="59.9582519" lon="17.6957601">
        <ele>32.8223</ele>
        <time>2013-03-08T18:23:47Z</time>
      </trkpt>
      <trkpt lat="59.958244" lon="17.6957418">
        <ele>32.3416</ele>
        <time>2013-03-08T18:23:48Z</time>
      </trkpt>
      <trkpt lat="59.9582368" lon="17.6957254">
        <ele>32.3416</ele>
        <time>2013-03-08T18:23:49Z</time>
      </trkpt>
      <trkpt lat="59.9582302" lon="17.6957087">
        <ele>32.3416</ele>
        <time>2013-03-08T18:23:50Z</time>
      </trkpt>
      <trkpt lat="59.9582222" lon="17.69569">
        <ele>32.3416</ele>
        <time>2013-03-08T18:23:51Z</time>
      </trkpt>
      <trkpt lat="59.9582135" lon="17.695668">
        <ele>32.3416</ele>
        <time>2013-03-08T18:23:52Z</time>
      </trkpt>
      <trkpt lat="59.9582062" lon="17.6956441">
        <ele>32.3416</ele>
        <time>2013-03-08T18:23:53Z</time>
      </trkpt>
      <trkpt lat="59.9581985" lon="17.6956191">
        <ele>32.3416</ele>
        <time>2013-03-08T18:23:54Z</time>
      </trkpt>
      <trkpt lat="59.9581907" lon="17.6955963">
        <ele>32.3416</ele>
        <time>2013-03-08T18:23:55Z</time>
      </trkpt>
      <trkpt lat="59.958183" lon="17.6955733">
        <ele>32.3416</ele>
        <time>2013-03-08T18:23:56Z</time>
      </trkpt>
      <trkpt lat="59.9581742" lon="17.6955503">
        <ele>32.8223</ele>
        <time>2013-03-08T18:23:57Z</time>
      </trkpt>
      <trkpt lat="59.9581657" lon="17.6955229">
        <ele>32.8223</ele>
        <time>2013-03-08T18:23:58Z</time>
      </trkpt>
      <trkpt lat="59.9581566" lon="17.6954958">
        <ele>32.3416</ele>
        <time>2013-03-08T18:23:59Z</time>
      </trkpt>
      <trkpt lat="59.9581508" lon="17.6954705">
        <ele>32.3416</ele>
        <time>2013-03-08T18:24:00Z</time>
      </trkpt>
      <trkpt lat="59.9581463" lon="17.695445">
        <ele>31.8607</ele>
        <time>2013-03-08T18:24:01Z</time>
      </trkpt>
      <trkpt lat="59.9581407" lon="17.6954275">
        <ele>31.8607</ele>
        <time>2013-03-08T18:24:02Z</time>
      </trkpt>
      <trkpt lat="59.9581343" lon="17.6954125">
        <ele>31.8607</ele>
        <time>2013-03-08T18:24:03Z</time>
      </trkpt>
      <trkpt lat="59.9581276" lon="17.6953927">
        <ele>31.8607</ele>
        <time>2013-03-08T18:24:04Z</time>
      </trkpt>
      <trkpt lat="59.9581198" lon="17.6953716">
        <ele>32.3416</ele>
        <time>2013-03-08T18:24:05Z</time>
      </trkpt>
      <trkpt lat="59.9581101" lon="17.6953494">
        <ele>32.3416</ele>
        <time>2013-03-08T18:24:06Z</time>
      </trkpt>
      <trkpt lat="59.9580991" lon="17.6953279">
        <ele>32.3416</ele>
        <time>2013-03-08T18:24:07Z</time>
      </trkpt>
      <trkpt lat="59.9580891" lon="17.6953077">
        <ele>32.3416</ele>
        <time>2013-03-08T18:24:08Z</time>
      </trkpt>
      <trkpt lat="59.95808" lon="17.6952867">
        <ele>32.3416</ele>
        <time>2013-03-08T18:24:09Z</time>
      </trkpt>
      <trkpt lat="59.9580701" lon="17.6952649">
        <ele>32.3416</ele>
        <time>2013-03-08T18:24:10Z</time>
      </trkpt>
      <trkpt lat="59.9580597" lon="17.6952441">
        <ele>32.3416</ele>
        <time>2013-03-08T18:24:11Z</time>
      </trkpt>
      <trkpt lat="59.9580487" lon="17.6952243">
        <ele>32.3416</ele>
        <time>2013-03-08T18:24:12Z</time>
      </trkpt>
      <trkpt lat="59.9580371" lon="17.6952043">
        <ele>32.3416</ele>
        <time>2013-03-08T18:24:13Z</time>
      </trkpt>
      <trkpt lat="59.9580266" lon="17.695182">
        <ele>32.3416</ele>
        <time>2013-03-08T18:24:14Z</time>
      </trkpt>
      <trkpt lat="59.9580167" lon="17.6951598">
        <ele>32.3416</ele>
        <time>2013-03-08T18:24:15Z</time>
      </trkpt>
      <trkpt lat="59.9580065" lon="17.695138">
        <ele>32.3416</ele>
        <time>2013-03-08T18:24:16Z</time>
      </trkpt>
      <trkpt lat="59.9579966" lon="17.6951164">
        <ele>32.3416</ele>
        <time>2013-03-08T18:24:17Z</time>
      </trkpt>
      <trkpt lat="59.9579853" lon="17.6950961">
        <ele>31.8607</ele>
        <time>2013-03-08T18:24:18Z</time>
      </trkpt>
      <trkpt lat="59.9579748" lon="17.6950765">
        <ele>31.8607</ele>
        <time>2013-03-08T18:24:19Z</time>
      </trkpt>
      <trkpt lat="59.957964" lon="17.6950556">
        <ele>31.8607</ele>
        <time>2013-03-08T18:24:20Z</time>
      </trkpt>
      <trkpt lat="59.9579531" lon="17.6950333">
        <ele>32.3416</ele>
        <time>2013-03-08T18:24:21Z</time>
      </trkpt>
      <trkpt lat="59.9579428" lon="17.6950091">
        <ele>31.8607</ele>
        <time>2013-03-08T18:24:22Z</time>
      </trkpt>
      <trkpt lat="59.9579344" lon="17.6949861">
        <ele>32.3416</ele>
        <time>2013-03-08T18:24:23Z</time>
      </trkpt>
      <trkpt lat="59.9579265" lon="17.6949604">
        <ele>31.8607</ele>
        <time>2013-03-08T18:24:24Z</time>
      </trkpt>
      <trkpt lat="59.9579204" lon="17.6949335">
        <ele>31.8607</ele>
        <time>2013-03-08T18:24:25Z</time>
      </trkpt>
      <trkpt lat="59.9579129" lon="17.6949085">
        <ele>31.8607</ele>
        <time>2013-03-08T18:24:26Z</time>
      </trkpt>
      <trkpt lat="59.9579044" lon="17.6948824">
        <ele>31.8607</ele>
        <time>2013-03-08T18:24:27Z</time>
      </trkpt>
      <trkpt lat="59.9578981" lon="17.6948589">
        <ele>31.8607</ele>
        <time>2013-03-08T18:24:28Z</time>
      </trkpt>
      <trkpt lat="59.9578907" lon="17.6948349">
        <ele>31.8607</ele>
        <time>2013-03-08T18:24:29Z</time>
      </trkpt>
      <trkpt lat="59.9578829" lon="17.6948107">
        <ele>31.8607</ele>
        <time>2013-03-08T18:24:30Z</time>
      </trkpt>
      <trkpt lat="59.9578753" lon="17.6947859">
        <ele>31.8607</ele>
        <time>2013-03-08T18:24:31Z</time>
      </trkpt>
      <trkpt lat="59.9578677" lon="17.6947605">
        <ele>31.8607</ele>
        <time>2013-03-08T18:24:32Z</time>
      </trkpt>
      <trkpt lat="59.9578609" lon="17.6947377">
        <ele>31.8607</ele>
        <time>2013-03-08T18:24:33Z</time>
      </trkpt>
      <trkpt lat="59.9578531" lon="17.6947139">
        <ele>31.8607</ele>
        <time>2013-03-08T18:24:34Z</time>
      </trkpt>
      <trkpt lat="59.9578456" lon="17.6946879">
        <ele>31.8607</ele>
        <time>2013-03-08T18:24:35Z</time>
      </trkpt>
      <trkpt lat="59.9578376" lon="17.6946628">
        <ele>31.8607</ele>
        <time>2013-03-08T18:24:36Z</time>
      </trkpt>
      <trkpt lat="59.9578285" lon="17.6946367">
        <ele>31.8607</ele>
        <time>2013-03-08T18:24:37Z</time>
      </trkpt>
      <trkpt lat="59.9578204" lon="17.6946129">
        <ele>31.8607</ele>
        <time>2013-03-08T18:24:38Z</time>
      </trkpt>
      <trkpt lat="59.957812" lon="17.6945901">
        <ele>31.8607</ele>
        <time>2013-03-08T18:24:39Z</time>
      </trkpt>
      <trkpt lat="59.9578033" lon="17.6945667">
        <ele>31.8607</ele>
        <time>2013-03-08T18:24:40Z</time>
      </trkpt>
      <trkpt lat="59.9577948" lon="17.6945429">
        <ele>31.8607</ele>
        <time>2013-03-08T18:24:41Z</time>
      </trkpt>
      <trkpt lat="59.9577863" lon="17.6945198">
        <ele>31.3801</ele>
        <time>2013-03-08T18:24:42Z</time>
      </trkpt>
      <trkpt lat="59.957778" lon="17.6944972">
        <ele>31.3801</ele>
        <time>2013-03-08T18:24:43Z</time>
      </trkpt>
      <trkpt lat="59.95777" lon="17.6944739">
        <ele>31.3801</ele>
        <time>2013-03-08T18:24:44Z</time>
      </trkpt>
      <trkpt lat="59.9577619" lon="17.6944504">
        <ele>31.3801</ele>
        <time>2013-03-08T18:24:45Z</time>
      </trkpt>
      <trkpt lat="59.957753" lon="17.6944259">
        <ele>30.8995</ele>
        <time>2013-03-08T18:24:46Z</time>
      </trkpt>
      <trkpt lat="59.9577436" lon="17.6944039">
        <ele>30.8995</ele>
        <time>2013-03-08T18:24:47Z</time>
      </trkpt>
      <trkpt lat="59.9577344" lon="17.6943827">
        <ele>30.8995</ele>
        <time>2013-03-08T18:24:48Z</time>
      </trkpt>
      <trkpt lat="59.9577256" lon="17.694361">
        <ele>30.8995</ele>
        <time>2013-03-08T18:24:49Z</time>
      </trkpt>
      <trkpt lat="59.9577161" lon="17.6943373">
        <ele>30.8995</ele>
        <time>2013-03-08T18:24:50Z</time>
      </trkpt>
      <trkpt lat="59.9577069" lon="17.6943148">
        <ele>30.8995</ele>
        <time>2013-03-08T18:24:51Z</time>
      </trkpt>
      <trkpt lat="59.9576972" lon="17.6942947">
        <ele>30.8995</ele>
        <time>2013-03-08T18:24:52Z</time>
      </trkpt>
      <trkpt lat="59.9576883" lon="17.694274">
        <ele>30.8995</ele>
        <time>2013-03-08T18:24:53Z</time>
      </trkpt>
      <trkpt lat="59.9576805" lon="17.6942528">
        <ele>30.8995</ele>
        <time>2013-03-08T18:24:54Z</time>
      </trkpt>
      <trkpt lat="59.9576728" lon="17.6942314">
        <ele>30.8995</ele>
        <time>2013-03-08T18:24:55Z</time>
      </trkpt>
      <trkpt lat="59.9576646" lon="17.6942087">
        <ele>31.3801</ele>
        <time>2013-03-08T18:24:56Z</time>
      </trkpt>
      <trkpt lat="59.9576552" lon="17.6941855">
        <ele>31.3801</ele>
        <time>2013-03-08T18:24:57Z</time>
      </trkpt>
      <trkpt lat="59.9576464" lon="17.6941646">
        <ele>31.3801</ele>
        <time>2013-03-08T18:24:58Z</time>
      </trkpt>
      <trkpt lat="59.9576397" lon="17.694145">
        <ele>31.3801</ele>
        <time>2013-03-08T18:24:59Z</time>
      </trkpt>
      <trkpt lat="59.957632" lon="17.6941259">
        <ele>31.3801</ele>
        <time>2013-03-08T18:25:00Z</time>
      </trkpt>
      <trkpt lat="59.9576236" lon="17.6941097">
        <ele>31.3801</ele>
        <time>2013-03-08T18:25:01Z</time>
      </trkpt>
      <trkpt lat="59.9576141" lon="17.694094">
        <ele>31.3801</ele>
        <time>2013-03-08T18:25:02Z</time>
      </trkpt>
      <trkpt lat="59.9576052" lon="17.6940757">
        <ele>31.3801</ele>
        <time>2013-03-08T18:25:03Z</time>
      </trkpt>
      <trkpt lat="59.9575972" lon="17.6940554">
        <ele>31.3801</ele>
        <time>2013-03-08T18:25:04Z</time>
      </trkpt>
      <trkpt lat="59.9575897" lon="17.6940335">
        <ele>31.3801</ele>
        <time>2013-03-08T18:25:05Z</time>
      </trkpt>
      <trkpt lat="59.9575827" lon="17.6940083">
        <ele>30.8995</ele>
        <time>2013-03-08T18:25:06Z</time>
      </trkpt>
      <trkpt lat="59.957578" lon="17.6939834">
        <ele>30.8995</ele>
        <time>2013-03-08T18:25:07Z</time>
      </trkpt>
      <trkpt lat="59.9575724" lon="17.6939554">
        <ele>30.8995</ele>
        <time>2013-03-08T18:25:08Z</time>
      </trkpt>
      <trkpt lat="59.9575687" lon="17.6939253">
        <ele>31.3801</ele>
        <time>2013-03-08T18:25:09Z</time>
      </trkpt>
      <trkpt lat="59.9575681" lon="17.6938963">
        <ele>30.8995</ele>
        <time>2013-03-08T18:25:10Z</time>
      </trkpt>
      <trkpt lat="59.9575675" lon="17.6938698">
        <ele>30.8995</ele>
        <time>2013-03-08T18:25:11Z</time>
      </trkpt>
      <trkpt lat="59.9575659" lon="17.6938425">
        <ele>30.8995</ele>
        <time>2013-03-08T18:25:12Z</time>
      </trkpt>
      <trkpt lat="59.9575639" lon="17.6938155">
        <ele>30.8995</ele>
        <time>2013-03-08T18:25:13Z</time>
      </trkpt>
      <trkpt lat="59.9575615" lon="17.693791">
        <ele>30.8995</ele>
        <time>2013-03-08T18:25:14Z</time>
      </trkpt>
      <trkpt lat="59.9575588" lon="17.6937675">
        <ele>30.8995</ele>
        <time>2013-03-08T18:25:15Z</time>
      </trkpt>
      <trkpt lat="59.9575546" lon="17.6937435">
        <ele>30.8995</ele>
        <time>2013-03-08T18:25:16Z</time>
      </trkpt>
      <trkpt lat="59.957549" lon="17.6937206">
        <ele>30.8995</ele>
        <time>2013-03-08T18:25:17Z</time>
      </trkpt>
      <trkpt lat="59.9575426" lon="17.6936985">
        <ele>30.8995</ele>
        <time>2013-03-08T18:25:18Z</time>
      </trkpt>
      <trkpt lat="59.9575358" lon="17.6936793">
        <ele>30.8995</ele>
        <time>2013-03-08T18:25:19Z</time>
      </trkpt>
      <trkpt lat="59.9575293" lon="17.6936568">
        <ele>30.8995</ele>
        <time>2013-03-08T18:25:20Z</time>
      </trkpt>
      <trkpt lat="59.9575236" lon="17.6936321">
        <ele>30.8995</ele>
        <time>2013-03-08T18:25:21Z</time>
      </trkpt>
      <trkpt lat="59.9575179" lon="17.6936092">
        <ele>30.4188</ele>
        <time>2013-03-08T18:25:22Z</time>
      </trkpt>
      <trkpt lat="59.9575117" lon="17.6935882">
        <ele>30.4188</ele>
        <time>2013-03-08T18:25:23Z</time>
      </trkpt>
      <trkpt lat="59.9575045" lon="17.6935674">
        <ele>29.9381</ele>
        <time>2013-03-08T18:25:24Z</time>
      </trkpt>
      <trkpt lat="59.9574967" lon="17.6935478">
        <ele>29.9381</ele>
        <time>2013-03-08T18:25:25Z</time>
      </trkpt>
      <trkpt lat="59.9574882" lon="17.693527">
        <ele>29.9381</ele>
        <time>2013-03-08T18:25:26Z</time>
      </trkpt>
      <trkpt lat="59.9574806" lon="17.6935062">
        <ele>29.4575</ele>
        <time>2013-03-08T18:25:27Z</time>
      </trkpt>
      <trkpt lat="59.9574737" lon="17.693488">
        <ele>29.4575</ele>
        <time>2013-03-08T18:25:28Z</time>
      </trkpt>
      <trkpt lat="59.9574656" lon="17.6934706">
        <ele>29.4575</ele>
        <time>2013-03-08T18:25:29Z</time>
      </trkpt>
      <trkpt lat="59.9574564" lon="17.6934496">
        <ele>29.4575</ele>
        <time>2013-03-08T18:25:30Z</time>
      </trkpt>
      <trkpt lat="59.9574475" lon="17.6934259">
        <ele>28.9769</ele>
        <time>2013-03-08T18:25:31Z</time>
      </trkpt>
      <trkpt lat="59.9574401" lon="17.6934006">
        <ele>28.9769</ele>
        <time>2013-03-08T18:25:32Z</time>
      </trkpt>
      <trkpt lat="59.957433" lon="17.6933777">
        <ele>28.9769</ele>
        <time>2013-03-08T18:25:33Z</time>
      </trkpt>
      <trkpt lat="59.9574257" lon="17.6933561">
        <ele>28.9769</ele>
        <time>2013-03-08T18:25:34Z</time>
      </trkpt>
      <trkpt lat="59.9574189" lon="17.6933357">
        <ele>28.9769</ele>
        <time>2013-03-08T18:25:35Z</time>
      </trkpt>
      <trkpt lat="59.9574116" lon="17.6933147">
        <ele>28.9769</ele>
        <time>2013-03-08T18:25:36Z</time>
      </trkpt>
      <trkpt lat="59.957404" lon="17.6932934">
        <ele>28.9769</ele>
        <time>2013-03-08T18:25:37Z</time>
      </trkpt>
      <trkpt lat="59.9573966" lon="17.6932747">
        <ele>28.4962</ele>
        <time>2013-03-08T18:25:38Z</time>
      </trkpt>
      <trkpt lat="59.9573887" lon="17.6932566">
        <ele>28.4962</ele>
        <time>2013-03-08T18:25:39Z</time>
      </trkpt>
      <trkpt lat="59.9573801" lon="17.6932363">
        <ele>28.4962</ele>
        <time>2013-03-08T18:25:40Z</time>
      </trkpt>
      <trkpt lat="59.9573699" lon="17.6932132">
        <ele>28.4962</ele>
        <time>2013-03-08T18:25:41Z</time>
      </trkpt>
      <trkpt lat="59.9573605" lon="17.6931918">
        <ele>28.0155</ele>
        <time>2013-03-08T18:25:42Z</time>
      </trkpt>
      <trkpt lat="59.9573515" lon="17.6931706">
        <ele>28.0155</ele>
        <time>2013-03-08T18:25:43Z</time>
      </trkpt>
      <trkpt lat="59.9573428" lon="17.6931513">
        <ele>28.0155</ele>
        <time>2013-03-08T18:25:44Z</time>
      </trkpt>
      <trkpt lat="59.957335" lon="17.6931312">
        <ele>28.0155</ele>
        <time>2013-03-08T18:25:45Z</time>
      </trkpt>
      <trkpt lat="59.9573274" lon="17.6931112">
        <ele>28.0155</ele>
        <time>2013-03-08T18:25:46Z</time>
      </trkpt>
      <trkpt lat="59.957319" lon="17.6930917">
        <ele>27.5349</ele>
        <time>2013-03-08T18:25:47Z</time>
      </trkpt>
      <trkpt lat="59.9573111" lon="17.6930707">
        <ele>27.5349</ele>
        <time>2013-03-08T18:25:48Z</time>
      </trkpt>
      <trkpt lat="59.9573032" lon="17.6930508">
        <ele>28.0155</ele>
        <time>2013-03-08T18:25:49Z</time>
      </trkpt>
      <trkpt lat="59.9572952" lon="17.69303">
        <ele>28.0155</ele>
        <time>2013-03-08T18:25:50Z</time>
      </trkpt>
      <trkpt lat="59.9572867" lon="17.6930111">
        <ele>28.0155</ele>
        <time>2013-03-08T18:25:51Z</time>
      </trkpt>
      <trkpt lat="59.957278" lon="17.6929918">
        <ele>28.0155</ele>
        <time>2013-03-08T18:25:52Z</time>
      </trkpt>
      <trkpt lat="59.957267" lon="17.6929744">
        <ele>28.0155</ele>
        <time>2013-03-08T18:25:53Z</time>
      </trkpt>
      <trkpt lat="59.9572563" lon="17.6929545">
        <ele>28.0155</ele>
        <time>2013-03-08T18:25:54Z</time>
      </trkpt>
      <trkpt lat="59.9572444" lon="17.6929339">
        <ele>27.5349</ele>
        <time>2013-03-08T18:25:55Z</time>
      </trkpt>
      <trkpt lat="59.9572369" lon="17.6929171">
        <ele>28.0155</ele>
        <time>2013-03-08T18:25:56Z</time>
      </trkpt>
      <trkpt lat="59.9572284" lon="17.6929057">
        <ele>28.0155</ele>
        <time>2013-03-08T18:25:57Z</time>
      </trkpt>
      <trkpt lat="59.9572189" lon="17.6928908">
        <ele>28.0155</ele>
        <time>2013-03-08T18:25:58Z</time>
      </trkpt>
      <trkpt lat="59.9572095" lon="17.692876">
        <ele>28.4962</ele>
        <time>2013-03-08T18:25:59Z</time>
      </trkpt>
      <trkpt lat="59.9571999" lon="17.6928618">
        <ele>28.4962</ele>
        <time>2013-03-08T18:26:00Z</time>
      </trkpt>
      <trkpt lat="59.9571899" lon="17.692849">
        <ele>28.4962</ele>
        <time>2013-03-08T18:26:01Z</time>
      </trkpt>
      <trkpt lat="59.9571797" lon="17.692837">
        <ele>28.4962</ele>
        <time>2013-03-08T18:26:02Z</time>
      </trkpt>
      <trkpt lat="59.9571696" lon="17.6928235">
        <ele>28.0155</ele>
        <time>2013-03-08T18:26:03Z</time>
      </trkpt>
      <trkpt lat="59.9571582" lon="17.6928065">
        <ele>27.5349</ele>
        <time>2013-03-08T18:26:04Z</time>
      </trkpt>
      <trkpt lat="59.9571475" lon="17.6927866">
        <ele>27.5349</ele>
        <time>2013-03-08T18:26:05Z</time>
      </trkpt>
      <trkpt lat="59.9571377" lon="17.6927655">
        <ele>27.0543</ele>
        <time>2013-03-08T18:26:06Z</time>
      </trkpt>
      <trkpt lat="59.9571298" lon="17.6927418">
        <ele>26.5736</ele>
        <time>2013-03-08T18:26:07Z</time>
      </trkpt>
      <trkpt lat="59.9571217" lon="17.6927168">
        <ele>26.5736</ele>
        <time>2013-03-08T18:26:08Z</time>
      </trkpt>
      <trkpt lat="59.9571145" lon="17.6926909">
        <ele>26.5736</ele>
        <time>2013-03-08T18:26:09Z</time>
      </trkpt>
      <trkpt lat="59.9571093" lon="17.6926645">
        <ele>26.5736</ele>
        <time>2013-03-08T18:26:10Z</time>
      </trkpt>
      <trkpt lat="59.9571043" lon="17.692638">
        <ele>26.0929</ele>
        <time>2013-03-08T18:26:11Z</time>
      </trkpt>
      <trkpt lat="59.9570987" lon="17.6926106">
        <ele>26.0929</ele>
        <time>2013-03-08T18:26:12Z</time>
      </trkpt>
      <trkpt lat="59.9570932" lon="17.6925837">
        <ele>26.0929</ele>
        <time>2013-03-08T18:26:13Z</time>
      </trkpt>
      <trkpt lat="59.9570872" lon="17.6925573">
        <ele>26.5736</ele>
        <time>2013-03-08T18:26:14Z</time>
      </trkpt>
      <trkpt lat="59.9570798" lon="17.6925319">
        <ele>26.5736</ele>
        <time>2013-03-08T18:26:15Z</time>
      </trkpt>
      <trkpt lat="59.9570724" lon="17.6925071">
        <ele>26.5736</ele>
        <time>2013-03-08T18:26:16Z</time>
      </trkpt>
      <trkpt lat="59.9570641" lon="17.6924826">
        <ele>26.0929</ele>
        <time>2013-03-08T18:26:17Z</time>
      </trkpt>
      <trkpt lat="59.9570549" lon="17.69246">
        <ele>26.5736</ele>
        <time>2013-03-08T18:26:18Z</time>
      </trkpt>
      <trkpt lat="59.9570455" lon="17.6924376">
        <ele>26.5736</ele>
        <time>2013-03-08T18:26:19Z</time>
      </trkpt>
      <trkpt lat="59.9570366" lon="17.6924139">
        <ele>26.5736</ele>
        <time>2013-03-08T18:26:20Z</time>
      </trkpt>
      <trkpt lat="59.9570278" lon="17.692391">
        <ele>26.5736</ele>
        <time>2013-03-08T18:26:21Z</time>
      </trkpt>
      <trkpt lat="59.9570191" lon="17.6923686">
        <ele>26.5736</ele>
        <time>2013-03-08T18:26:22Z</time>
      </trkpt>
      <trkpt lat="59.9570111" lon="17.692346">
        <ele>26.5736</ele>
        <time>2013-03-08T18:26:23Z</time>
      </trkpt>
      <trkpt lat="59.9570034" lon="17.6923231">
        <ele>26.5736</ele>
        <time>2013-03-08T18:26:24Z</time>
      </trkpt>
      <trkpt lat="59.9569957" lon="17.6923004">
        <ele>27.0543</ele>
        <time>2013-03-08T18:26:25Z</time>
      </trkpt>
      <trkpt lat="59.956988" lon="17.6922791">
        <ele>27.0543</ele>
        <time>2013-03-08T18:26:26Z</time>
      </trkpt>
      <trkpt lat="59.9569781" lon="17.6922546">
        <ele>27.0543</ele>
        <time>2013-03-08T18:26:27Z</time>
      </trkpt>
      <trkpt lat="59.9569672" lon="17.6922285">
        <ele>27.0543</ele>
        <time>2013-03-08T18:26:28Z</time>
      </trkpt>
      <trkpt lat="59.956956" lon="17.692204">
        <ele>27.0543</ele>
        <time>2013-03-08T18:26:29Z</time>
      </trkpt>
      <trkpt lat="59.9569458" lon="17.6921803">
        <ele>27.0543</ele>
        <time>2013-03-08T18:26:30Z</time>
      </trkpt>
      <trkpt lat="59.9569355" lon="17.6921569">
        <ele>27.0543</ele>
        <time>2013-03-08T18:26:31Z</time>
      </trkpt>
      <trkpt lat="59.9569264" lon="17.6921332">
        <ele>27.0543</ele>
        <time>2013-03-08T18:26:32Z</time>
      </trkpt>
      <trkpt lat="59.9569179" lon="17.6921097">
        <ele>27.0543</ele>
        <time>2013-03-08T18:26:33Z</time>
      </trkpt>
      <trkpt lat="59.9569083" lon="17.692086">
        <ele>27.0543</ele>
        <time>2013-03-08T18:26:34Z</time>
      </trkpt>
      <trkpt lat="59.9568988" lon="17.6920632">
        <ele>27.0543</ele>
        <time>2013-03-08T18:26:35Z</time>
      </trkpt>
      <trkpt lat="59.9568904" lon="17.6920414">
        <ele>27.0543</ele>
        <time>2013-03-08T18:26:36Z</time>
      </trkpt>
      <trkpt lat="59.9568821" lon="17.692018">
        <ele>27.0543</ele>
        <time>2013-03-08T18:26:37Z</time>
      </trkpt>
      <trkpt lat="59.9568735" lon="17.6919953">
        <ele>27.5349</ele>
        <time>2013-03-08T18:26:38Z</time>
      </trkpt>
      <trkpt lat="59.9568655" lon="17.6919728">
        <ele>27.5349</ele>
        <time>2013-03-08T18:26:39Z</time>
      </trkpt>
      <trkpt lat="59.9568573" lon="17.6919508">
        <ele>28.0155</ele>
        <time>2013-03-08T18:26:40Z</time>
      </trkpt>
      <trkpt lat="59.9568488" lon="17.691928">
        <ele>28.0155</ele>
        <time>2013-03-08T18:26:41Z</time>
      </trkpt>
      <trkpt lat="59.9568409" lon="17.6919031">
        <ele>28.0155</ele>
        <time>2013-03-08T18:26:42Z</time>
      </trkpt>
      <trkpt lat="59.9568325" lon="17.6918771">
        <ele>28.4962</ele>
        <time>2013-03-08T18:26:43Z</time>
      </trkpt>
      <trkpt lat="59.9568252" lon="17.6918532">
        <ele>28.4962</ele>
        <time>2013-03-08T18:26:44Z</time>
      </trkpt>
      <trkpt lat="59.9568174" lon="17.6918305">
        <ele>28.4962</ele>
        <time>2013-03-08T18:26:45Z</time>
      </trkpt>
      <trkpt lat="59.9568098" lon="17.691807">
        <ele>28.9769</ele>
        <time>2013-03-08T18:26:46Z</time>
      </trkpt>
      <trkpt lat="59.9568047" lon="17.6917818">
        <ele>28.9769</ele>
        <time>2013-03-08T18:26:47Z</time>
      </trkpt>
      <trkpt lat="59.9568036" lon="17.6917539">
        <ele>28.9769</ele>
        <time>2013-03-08T18:26:48Z</time>
      </trkpt>
      <trkpt lat="59.9568046" lon="17.6917283">
        <ele>28.9769</ele>
        <time>2013-03-08T18:26:49Z</time>
      </trkpt>
      <trkpt lat="59.9568063" lon="17.6917083">
        <ele>28.9769</ele>
        <time>2013-03-08T18:26:50Z</time>
      </trkpt>
      <trkpt lat="59.9568099" lon="17.6916901">
        <ele>28.9769</ele>
        <time>2013-03-08T18:26:51Z</time>
      </trkpt>
      <trkpt lat="59.9568172" lon="17.691672">
        <ele>28.9769</ele>
        <time>2013-03-08T18:26:52Z</time>
      </trkpt>
      <trkpt lat="59.9568247" lon="17.691655">
        <ele>28.9769</ele>
        <time>2013-03-08T18:26:53Z</time>
      </trkpt>
      <trkpt lat="59.9568322" lon="17.6916409">
        <ele>28.9769</ele>
        <time>2013-03-08T18:26:54Z</time>
      </trkpt>
      <trkpt lat="59.9568434" lon="17.6916269">
        <ele>28.9769</ele>
        <time>2013-03-08T18:26:55Z</time>
      </trkpt>
      <trkpt lat="59.9568541" lon="17.6916129">
        <ele>28.9769</ele>
        <time>2013-03-08T18:26:56Z</time>
      </trkpt>
      <trkpt lat="59.95686" lon="17.6915959">
        <ele>29.4575</ele>
        <time>2013-03-08T18:26:57Z</time>
      </trkpt>
      <trkpt lat="59.9568611" lon="17.6915762">
        <ele>29.4575</ele>
        <time>2013-03-08T18:26:58Z</time>
      </trkpt>
      <trkpt lat="59.9568588" lon="17.6915574">
        <ele>29.9381</ele>
        <time>2013-03-08T18:26:59Z</time>
      </trkpt>
      <trkpt lat="59.9568549" lon="17.6915348">
        <ele>29.9381</ele>
        <time>2013-03-08T18:27:00Z</time>
      </trkpt>
      <trkpt lat="59.9568495" lon="17.6915117">
        <ele>30.4188</ele>
        <time>2013-03-08T18:27:01Z</time>
      </trkpt>
      <trkpt lat="59.9568424" lon="17.6914897">
        <ele>30.4188</ele>
        <time>2013-03-08T18:27:02Z</time>
      </trkpt>
      <trkpt lat="59.9568346" lon="17.6914673">
        <ele>30.4188</ele>
        <time>2013-03-08T18:27:03Z</time>
      </trkpt>
      <trkpt lat="59.9568264" lon="17.6914425">
        <ele>30.4188</ele>
        <time>2013-03-08T18:27:04Z</time>
      </trkpt>
      <trkpt lat="59.956817" lon="17.691417">
        <ele>30.4188</ele>
        <time>2013-03-08T18:27:05Z</time>
      </trkpt>
      <trkpt lat="59.9568103" lon="17.6913949">
        <ele>30.8995</ele>
        <time>2013-03-08T18:27:06Z</time>
      </trkpt>
      <trkpt lat="59.9568057" lon="17.691375">
        <ele>31.3801</ele>
        <time>2013-03-08T18:27:07Z</time>
      </trkpt>
      <trkpt lat="59.9567963" lon="17.6913508">
        <ele>31.3801</ele>
        <time>2013-03-08T18:27:08Z</time>
      </trkpt>
      <trkpt lat="59.9567876" lon="17.6913281">
        <ele>31.3801</ele>
        <time>2013-03-08T18:27:09Z</time>
      </trkpt>
      <trkpt lat="59.9567807" lon="17.6913087">
        <ele>31.3801</ele>
        <time>2013-03-08T18:27:10Z</time>
      </trkpt>
      <trkpt lat="59.9567735" lon="17.6912854">
        <ele>31.3801</ele>
        <time>2013-03-08T18:27:11Z</time>
      </trkpt>
      <trkpt lat="59.9567658" lon="17.6912603">
        <ele>31.8607</ele>
        <time>2013-03-08T18:27:12Z</time>
      </trkpt>
      <trkpt lat="59.9567595" lon="17.6912368">
        <ele>31.8607</ele>
        <time>2013-03-08T18:27:13Z</time>
      </trkpt>
      <trkpt lat="59.9567513" lon="17.6912141">
        <ele>31.8607</ele>
        <time>2013-03-08T18:27:14Z</time>
      </trkpt>
      <trkpt lat="59.9567431" lon="17.6911935">
        <ele>31.8607</ele>
        <time>2013-03-08T18:27:15Z</time>
      </trkpt>
      <trkpt lat="59.9567345" lon="17.6911735">
        <ele>31.8607</ele>
        <time>2013-03-08T18:27:16Z</time>
      </trkpt>
      <trkpt lat="59.9567259" lon="17.6911526">
        <ele>32.3416</ele>
        <time>2013-03-08T18:27:17Z</time>
      </trkpt>
      <trkpt lat="59.9567172" lon="17.6911333">
        <ele>32.3416</ele>
        <time>2013-03-08T18:27:18Z</time>
      </trkpt>
      <trkpt lat="59.9567083" lon="17.6911149">
        <ele>32.3416</ele>
        <time>2013-03-08T18:27:19Z</time>
      </trkpt>
      <trkpt lat="59.9566987" lon="17.6910935">
        <ele>32.3416</ele>
        <time>2013-03-08T18:27:20Z</time>
      </trkpt>
      <trkpt lat="59.956689" lon="17.6910706">
        <ele>32.3416</ele>
        <time>2013-03-08T18:27:21Z</time>
      </trkpt>
      <trkpt lat="59.9566787" lon="17.6910447">
        <ele>32.3416</ele>
        <time>2013-03-08T18:27:22Z</time>
      </trkpt>
      <trkpt lat="59.9566684" lon="17.6910202">
        <ele>32.3416</ele>
        <time>2013-03-08T18:27:23Z</time>
      </trkpt>
      <trkpt lat="59.9566596" lon="17.6909974">
        <ele>32.3416</ele>
        <time>2013-03-08T18:27:24Z</time>
      </trkpt>
      <trkpt lat="59.9566503" lon="17.6909737">
        <ele>32.8223</ele>
        <time>2013-03-08T18:27:25Z</time>
      </trkpt>
      <trkpt lat="59.956641" lon="17.6909497">
        <ele>32.8223</ele>
        <time>2013-03-08T18:27:26Z</time>
      </trkpt>
      <trkpt lat="59.9566306" lon="17.6909265">
        <ele>32.8223</ele>
        <time>2013-03-08T18:27:27Z</time>
      </trkpt>
      <trkpt lat="59.9566197" lon="17.6909039">
        <ele>33.3029</ele>
        <time>2013-03-08T18:27:28Z</time>
      </trkpt>
      <trkpt lat="59.9566097" lon="17.6908821">
        <ele>33.3029</ele>
        <time>2013-03-08T18:27:29Z</time>
      </trkpt>
      <trkpt lat="59.9565996" lon="17.6908598">
        <ele>33.3029</ele>
        <time>2013-03-08T18:27:30Z</time>
      </trkpt>
      <trkpt lat="59.9565892" lon="17.6908365">
        <ele>33.3029</ele>
        <time>2013-03-08T18:27:31Z</time>
      </trkpt>
      <trkpt lat="59.9565784" lon="17.6908147">
        <ele>33.3029</ele>
        <time>2013-03-08T18:27:32Z</time>
      </trkpt>
      <trkpt lat="59.9565675" lon="17.6907933">
        <ele>33.3029</ele>
        <time>2013-03-08T18:27:33Z</time>
      </trkpt>
      <trkpt lat="59.956557" lon="17.69077">
        <ele>33.7834</ele>
        <time>2013-03-08T18:27:34Z</time>
      </trkpt>
      <trkpt lat="59.9565467" lon="17.6907458">
        <ele>33.7834</ele>
        <time>2013-03-08T18:27:35Z</time>
      </trkpt>
      <trkpt lat="59.9565368" lon="17.6907209">
        <ele>33.7834</ele>
        <time>2013-03-08T18:27:36Z</time>
      </trkpt>
      <trkpt lat="59.9565274" lon="17.6906962">
        <ele>33.7834</ele>
        <time>2013-03-08T18:27:37Z</time>
      </trkpt>
      <trkpt lat="59.9565177" lon="17.6906723">
        <ele>34.2642</ele>
        <time>2013-03-08T18:27:38Z</time>
      </trkpt>
      <trkpt lat="59.9565088" lon="17.6906483">
        <ele>34.2642</ele>
        <time>2013-03-08T18:27:39Z</time>
      </trkpt>
      <trkpt lat="59.9564996" lon="17.6906242">
        <ele>34.2642</ele>
        <time>2013-03-08T18:27:40Z</time>
      </trkpt>
      <trkpt lat="59.9564902" lon="17.6905991">
        <ele>34.2642</ele>
        <time>2013-03-08T18:27:41Z</time>
      </trkpt>
      <trkpt lat="59.956481" lon="17.6905718">
        <ele>34.2642</ele>
        <time>2013-03-08T18:27:42Z</time>
      </trkpt>
      <trkpt lat="59.956472" lon="17.6905456">
        <ele>34.2642</ele>
        <time>2013-03-08T18:27:43Z</time>
      </trkpt>
      <trkpt lat="59.9564631" lon="17.6905229">
        <ele>34.2642</ele>
        <time>2013-03-08T18:27:44Z</time>
      </trkpt>
      <trkpt lat="59.9564543" lon="17.6904996">
        <ele>34.2642</ele>
        <time>2013-03-08T18:27:45Z</time>
      </trkpt>
      <trkpt lat="59.9564451" lon="17.6904762">
        <ele>34.2642</ele>
        <time>2013-03-08T18:27:46Z</time>
      </trkpt>
      <trkpt lat="59.9564361" lon="17.6904534">
        <ele>34.2642</ele>
        <time>2013-03-08T18:27:47Z</time>
      </trkpt>
      <trkpt lat="59.9564274" lon="17.6904303">
        <ele>34.2642</ele>
        <time>2013-03-08T18:27:48Z</time>
      </trkpt>
      <trkpt lat="59.956419" lon="17.6904075">
        <ele>33.7834</ele>
        <time>2013-03-08T18:27:49Z</time>
      </trkpt>
      <trkpt lat="59.9564109" lon="17.6903847">
        <ele>33.7834</ele>
        <time>2013-03-08T18:27:50Z</time>
      </trkpt>
      <trkpt lat="59.9564026" lon="17.6903614">
        <ele>33.7834</ele>
        <time>2013-03-08T18:27:51Z</time>
      </trkpt>
      <trkpt lat="59.9563934" lon="17.6903387">
        <ele>33.7834</ele>
        <time>2013-03-08T18:27:52Z</time>
      </trkpt>
      <trkpt lat="59.9563845" lon="17.690316">
        <ele>33.7834</ele>
        <time>2013-03-08T18:27:53Z</time>
      </trkpt>
      <trkpt lat="59.9563762" lon="17.690293">
        <ele>33.7834</ele>
        <time>2013-03-08T18:27:54Z</time>
      </trkpt>
      <trkpt lat="59.9563683" lon="17.6902685">
        <ele>33.7834</ele>
        <time>2013-03-08T18:27:55Z</time>
      </trkpt>
      <trkpt lat="59.95636" lon="17.6902438">
        <ele>33.7834</ele>
        <time>2013-03-08T18:27:56Z</time>
      </trkpt>
      <trkpt lat="59.9563514" lon="17.6902189">
        <ele>33.7834</ele>
        <time>2013-03-08T18:27:57Z</time>
      </trkpt>
      <trkpt lat="59.9563431" lon="17.6901946">
        <ele>33.7834</ele>
        <time>2013-03-08T18:27:58Z</time>
      </trkpt>
      <trkpt lat="59.9563358" lon="17.6901698">
        <ele>33.7834</ele>
        <time>2013-03-08T18:27:59Z</time>
      </trkpt>
      <trkpt lat="59.956329" lon="17.6901444">
        <ele>33.7834</ele>
        <time>2013-03-08T18:28:00Z</time>
      </trkpt>
      <trkpt lat="59.9563222" lon="17.690119">
        <ele>33.7834</ele>
        <time>2013-03-08T18:28:01Z</time>
      </trkpt>
      <trkpt lat="59.9563151" lon="17.6900947">
        <ele>33.7834</ele>
        <time>2013-03-08T18:28:02Z</time>
      </trkpt>
      <trkpt lat="59.956308" lon="17.6900693">
        <ele>33.7834</ele>
        <time>2013-03-08T18:28:03Z</time>
      </trkpt>
      <trkpt lat="59.9563011" lon="17.6900438">
        <ele>33.7834</ele>
        <time>2013-03-08T18:28:04Z</time>
      </trkpt>
      <trkpt lat="59.956295" lon="17.690018">
        <ele>33.7834</ele>
        <time>2013-03-08T18:28:05Z</time>
      </trkpt>
      <trkpt lat="59.9562885" lon="17.6899896">
        <ele>33.7834</ele>
        <time>2013-03-08T18:28:06Z</time>
      </trkpt>
      <trkpt lat="59.956283" lon="17.6899636">
        <ele>33.7834</ele>
        <time>2013-03-08T18:28:07Z</time>
      </trkpt>
      <trkpt lat="59.9562777" lon="17.6899372">
        <ele>33.7834</ele>
        <time>2013-03-08T18:28:08Z</time>
      </trkpt>
      <trkpt lat="59.9562721" lon="17.6899102">
        <ele>33.7834</ele>
        <time>2013-03-08T18:28:09Z</time>
      </trkpt>
      <trkpt lat="59.9562677" lon="17.6898843">
        <ele>33.7834</ele>
        <time>2013-03-08T18:28:10Z</time>
      </trkpt>
      <trkpt lat="59.9562629" lon="17.6898589">
        <ele>33.7834</ele>
        <time>2013-03-08T18:28:11Z</time>
      </trkpt>
      <trkpt lat="59.9562575" lon="17.6898329">
        <ele>33.7834</ele>
        <time>2013-03-08T18:28:12Z</time>
      </trkpt>
      <trkpt lat="59.9562513" lon="17.6898065">
        <ele>33.7834</ele>
        <time>2013-03-08T18:28:13Z</time>
      </trkpt>
      <trkpt lat="59.956246" lon="17.6897806">
        <ele>33.7834</ele>
        <time>2013-03-08T18:28:14Z</time>
      </trkpt>
      <trkpt lat="59.9562424" lon="17.6897569">
        <ele>33.7834</ele>
        <time>2013-03-08T18:28:15Z</time>
      </trkpt>
      <trkpt lat="59.9562374" lon="17.6897336">
        <ele>33.7834</ele>
        <time>2013-03-08T18:28:16Z</time>
      </trkpt>
      <trkpt lat="59.9562317" lon="17.6897094">
        <ele>33.7834</ele>
        <time>2013-03-08T18:28:17Z</time>
      </trkpt>
      <trkpt lat="59.9562261" lon="17.6896838">
        <ele>34.2642</ele>
        <time>2013-03-08T18:28:18Z</time>
      </trkpt>
      <trkpt lat="59.9562204" lon="17.6896571">
        <ele>34.2642</ele>
        <time>2013-03-08T18:28:19Z</time>
      </trkpt>
      <trkpt lat="59.9562152" lon="17.6896303">
        <ele>34.2642</ele>
        <time>2013-03-08T18:28:20Z</time>
      </trkpt>
      <trkpt lat="59.9562103" lon="17.6896029">
        <ele>34.2642</ele>
        <time>2013-03-08T18:28:21Z</time>
      </trkpt>
      <trkpt lat="59.9562052" lon="17.6895759">
        <ele>34.7449</ele>
        <time>2013-03-08T18:28:22Z</time>
      </trkpt>
      <trkpt lat="59.9561996" lon="17.6895493">
        <ele>34.7449</ele>
        <time>2013-03-08T18:28:23Z</time>
      </trkpt>
      <trkpt lat="59.9561937" lon="17.6895218">
        <ele>34.2642</ele>
        <time>2013-03-08T18:28:24Z</time>
      </trkpt>
      <trkpt lat="59.9561883" lon="17.6894948">
        <ele>34.2642</ele>
        <time>2013-03-08T18:28:25Z</time>
      </trkpt>
      <trkpt lat="59.9561838" lon="17.6894679">
        <ele>34.2642</ele>
        <time>2013-03-08T18:28:26Z</time>
      </trkpt>
      <trkpt lat="59.9561795" lon="17.6894415">
        <ele>34.2642</ele>
        <time>2013-03-08T18:28:27Z</time>
      </trkpt>
      <trkpt lat="59.9561747" lon="17.689415">
        <ele>34.2642</ele>
        <time>2013-03-08T18:28:28Z</time>
      </trkpt>
      <trkpt lat="59.956169" lon="17.6893877">
        <ele>34.2642</ele>
        <time>2013-03-08T18:28:29Z</time>
      </trkpt>
      <trkpt lat="59.9561638" lon="17.6893608">
        <ele>33.7834</ele>
        <time>2013-03-08T18:28:30Z</time>
      </trkpt>
      <trkpt lat="59.9561592" lon="17.6893346">
        <ele>33.7834</ele>
        <time>2013-03-08T18:28:31Z</time>
      </trkpt>
      <trkpt lat="59.9561546" lon="17.6893089">
        <ele>33.3029</ele>
        <time>2013-03-08T18:28:32Z</time>
      </trkpt>
      <trkpt lat="59.9561488" lon="17.6892824">
        <ele>33.3029</ele>
        <time>2013-03-08T18:28:33Z</time>
      </trkpt>
      <trkpt lat="59.956144" lon="17.6892546">
        <ele>33.3029</ele>
        <time>2013-03-08T18:28:34Z</time>
      </trkpt>
      <trkpt lat="59.9561394" lon="17.6892281">
        <ele>33.3029</ele>
        <time>2013-03-08T18:28:35Z</time>
      </trkpt>
      <trkpt lat="59.9561347" lon="17.6892016">
        <ele>33.3029</ele>
        <time>2013-03-08T18:28:36Z</time>
      </trkpt>
      <trkpt lat="59.9561298" lon="17.6891757">
        <ele>33.3029</ele>
        <time>2013-03-08T18:28:37Z</time>
      </trkpt>
      <trkpt lat="59.956125" lon="17.6891509">
        <ele>33.3029</ele>
        <time>2013-03-08T18:28:38Z</time>
      </trkpt>
      <trkpt lat="59.9561198" lon="17.6891275">
        <ele>32.8223</ele>
        <time>2013-03-08T18:28:39Z</time>
      </trkpt>
      <trkpt lat="59.9561125" lon="17.6891056">
        <ele>32.8223</ele>
        <time>2013-03-08T18:28:40Z</time>
      </trkpt>
      <trkpt lat="59.956102" lon="17.689087">
        <ele>33.3029</ele>
        <time>2013-03-08T18:28:41Z</time>
      </trkpt>
      <trkpt lat="59.9560896" lon="17.689074">
        <ele>33.3029</ele>
        <time>2013-03-08T18:28:42Z</time>
      </trkpt>
      <trkpt lat="59.9560772" lon="17.689067">
        <ele>32.8223</ele>
        <time>2013-03-08T18:28:43Z</time>
      </trkpt>
      <trkpt lat="59.9560638" lon="17.6890654">
        <ele>33.3029</ele>
        <time>2013-03-08T18:28:44Z</time>
      </trkpt>
      <trkpt lat="59.9560491" lon="17.6890675">
        <ele>33.3029</ele>
        <time>2013-03-08T18:28:45Z</time>
      </trkpt>
      <trkpt lat="59.9560354" lon="17.6890711">
        <ele>32.8223</ele>
        <time>2013-03-08T18:28:46Z</time>
      </trkpt>
      <trkpt lat="59.9560214" lon="17.6890799">
        <ele>32.8223</ele>
        <time>2013-03-08T18:28:47Z</time>
      </trkpt>
      <trkpt lat="59.9560067" lon="17.6890913">
        <ele>32.8223</ele>
        <time>2013-03-08T18:28:48Z</time>
      </trkpt>
      <trkpt lat="59.955992" lon="17.6891043">
        <ele>32.8223</ele>
        <time>2013-03-08T18:28:49Z</time>
      </trkpt>
      <trkpt lat="59.9559779" lon="17.6891177">
        <ele>32.3416</ele>
        <time>2013-03-08T18:28:50Z</time>
      </trkpt>
      <trkpt lat="59.9559634" lon="17.6891305">
        <ele>32.3416</ele>
        <time>2013-03-08T18:28:51Z</time>
      </trkpt>
      <trkpt lat="59.955949" lon="17.6891421">
        <ele>32.3416</ele>
        <time>2013-03-08T18:28:52Z</time>
      </trkpt>
      <trkpt lat="59.9559347" lon="17.6891528">
        <ele>32.8223</ele>
        <time>2013-03-08T18:28:53Z</time>
      </trkpt>
      <trkpt lat="59.95592" lon="17.6891628">
        <ele>32.8223</ele>
        <time>2013-03-08T18:28:54Z</time>
      </trkpt>
      <trkpt lat="59.9559069" lon="17.6891726">
        <ele>32.8223</ele>
        <time>2013-03-08T18:28:55Z</time>
      </trkpt>
      <trkpt lat="59.955894" lon="17.6891829">
        <ele>32.8223</ele>
        <time>2013-03-08T18:28:56Z</time>
      </trkpt>
      <trkpt lat="59.9558808" lon="17.6891945">
        <ele>32.8223</ele>
        <time>2013-03-08T18:28:57Z</time>
      </trkpt>
      <trkpt lat="59.9558674" lon="17.6892061">
        <ele>32.8223</ele>
        <time>2013-03-08T18:28:58Z</time>
      </trkpt>
      <trkpt lat="59.9558535" lon="17.689215">
        <ele>32.8223</ele>
        <time>2013-03-08T18:28:59Z</time>
      </trkpt>
      <trkpt lat="59.9558396" lon="17.6892234">
        <ele>32.8223</ele>
        <time>2013-03-08T18:29:00Z</time>
      </trkpt>
      <trkpt lat="59.9558261" lon="17.6892351">
        <ele>32.8223</ele>
        <time>2013-03-08T18:29:01Z</time>
      </trkpt>
      <trkpt lat="59.9558127" lon="17.6892472">
        <ele>32.8223</ele>
        <time>2013-03-08T18:29:02Z</time>
      </trkpt>
      <trkpt lat="59.9558" lon="17.6892559">
        <ele>32.8223</ele>
        <time>2013-03-08T18:29:03Z</time>
      </trkpt>
      <trkpt lat="59.9557872" lon="17.6892664">
        <ele>32.3416</ele>
        <time>2013-03-08T18:29:04Z</time>
      </trkpt>
      <trkpt lat="59.9557738" lon="17.6892778">
        <ele>32.3416</ele>
        <time>2013-03-08T18:29:05Z</time>
      </trkpt>
      <trkpt lat="59.9557607" lon="17.6892896">
        <ele>32.3416</ele>
        <time>2013-03-08T18:29:06Z</time>
      </trkpt>
      <trkpt lat="59.9557475" lon="17.6892998">
        <ele>32.3416</ele>
        <time>2013-03-08T18:29:07Z</time>
      </trkpt>
      <trkpt lat="59.9557342" lon="17.6893083">
        <ele>32.3416</ele>
        <time>2013-03-08T18:29:08Z</time>
      </trkpt>
      <trkpt lat="59.955721" lon="17.6893171">
        <ele>32.3416</ele>
        <time>2013-03-08T18:29:09Z</time>
      </trkpt>
      <trkpt lat="59.9557084" lon="17.6893281">
        <ele>32.3416</ele>
        <time>2013-03-08T18:29:10Z</time>
      </trkpt>
      <trkpt lat="59.9556955" lon="17.689341">
        <ele>32.3416</ele>
        <time>2013-03-08T18:29:11Z</time>
      </trkpt>
      <trkpt lat="59.9556827" lon="17.6893545">
        <ele>32.3416</ele>
        <time>2013-03-08T18:29:12Z</time>
      </trkpt>
      <trkpt lat="59.9556703" lon="17.6893682">
        <ele>32.3416</ele>
        <time>2013-03-08T18:29:13Z</time>
      </trkpt>
      <trkpt lat="59.9556544" lon="17.6893756">
        <ele>31.8607</ele>
        <time>2013-03-08T18:29:14Z</time>
      </trkpt>
      <trkpt lat="59.9556384" lon="17.6893853">
        <ele>31.8607</ele>
        <time>2013-03-08T18:29:15Z</time>
      </trkpt>
      <trkpt lat="59.9556256" lon="17.6894008">
        <ele>31.3801</ele>
        <time>2013-03-08T18:29:16Z</time>
      </trkpt>
      <trkpt lat="59.955614" lon="17.6894166">
        <ele>31.3801</ele>
        <time>2013-03-08T18:29:17Z</time>
      </trkpt>
      <trkpt lat="59.9555998" lon="17.6894285">
        <ele>31.3801</ele>
        <time>2013-03-08T18:29:18Z</time>
      </trkpt>
      <trkpt lat="59.9555853" lon="17.6894384">
        <ele>30.8995</ele>
        <time>2013-03-08T18:29:19Z</time>
      </trkpt>
      <trkpt lat="59.9555728" lon="17.6894528">
        <ele>30.8995</ele>
        <time>2013-03-08T18:29:20Z</time>
      </trkpt>
      <trkpt lat="59.9555604" lon="17.6894697">
        <ele>30.4188</ele>
        <time>2013-03-08T18:29:21Z</time>
      </trkpt>
      <trkpt lat="59.9555474" lon="17.6894859">
        <ele>30.4188</ele>
        <time>2013-03-08T18:29:22Z</time>
      </trkpt>
      <trkpt lat="59.9555345" lon="17.6895005">
        <ele>29.9381</ele>
        <time>2013-03-08T18:29:23Z</time>
      </trkpt>
      <trkpt lat="59.9555221" lon="17.6895164">
        <ele>29.4575</ele>
        <time>2013-03-08T18:29:24Z</time>
      </trkpt>
      <trkpt lat="59.955507" lon="17.6895273">
        <ele>28.9769</ele>
        <time>2013-03-08T18:29:25Z</time>
      </trkpt>
      <trkpt lat="59.955492" lon="17.689539">
        <ele>28.9769</ele>
        <time>2013-03-08T18:29:26Z</time>
      </trkpt>
      <trkpt lat="59.9554795" lon="17.6895513">
        <ele>28.4962</ele>
        <time>2013-03-08T18:29:27Z</time>
      </trkpt>
      <trkpt lat="59.955467" lon="17.6895621">
        <ele>28.0155</ele>
        <time>2013-03-08T18:29:28Z</time>
      </trkpt>
      <trkpt lat="59.9554567" lon="17.6895754">
        <ele>28.0155</ele>
        <time>2013-03-08T18:29:29Z</time>
      </trkpt>
      <trkpt lat="59.9554438" lon="17.6895962">
        <ele>28.0155</ele>
        <time>2013-03-08T18:29:30Z</time>
      </trkpt>
      <trkpt lat="59.9554288" lon="17.6896211">
        <ele>27.5349</ele>
        <time>2013-03-08T18:29:31Z</time>
      </trkpt>
      <trkpt lat="59.9554143" lon="17.6896388">
        <ele>27.0543</ele>
        <time>2013-03-08T18:29:32Z</time>
      </trkpt>
      <trkpt lat="59.9554001" lon="17.6896539">
        <ele>26.5736</ele>
        <time>2013-03-08T18:29:33Z</time>
      </trkpt>
      <trkpt lat="59.955389" lon="17.6896705">
        <ele>26.5736</ele>
        <time>2013-03-08T18:29:34Z</time>
      </trkpt>
      <trkpt lat="59.955377" lon="17.689687">
        <ele>26.0929</ele>
        <time>2013-03-08T18:29:35Z</time>
      </trkpt>
      <trkpt lat="59.9553636" lon="17.6897065">
        <ele>26.0929</ele>
        <time>2013-03-08T18:29:36Z</time>
      </trkpt>
      <trkpt lat="59.9553529" lon="17.6897202">
        <ele>26.0929</ele>
        <time>2013-03-08T18:29:37Z</time>
      </trkpt>
      <trkpt lat="59.9553422" lon="17.6897367">
        <ele>26.0929</ele>
        <time>2013-03-08T18:29:38Z</time>
      </trkpt>
      <trkpt lat="59.9553318" lon="17.6897555">
        <ele>26.0929</ele>
        <time>2013-03-08T18:29:39Z</time>
      </trkpt>
      <trkpt lat="59.9553201" lon="17.689772">
        <ele>25.6123</ele>
        <time>2013-03-08T18:29:40Z</time>
      </trkpt>
      <trkpt lat="59.9553106" lon="17.6897901">
        <ele>25.6123</ele>
        <time>2013-03-08T18:29:41Z</time>
      </trkpt>
      <trkpt lat="59.9553032" lon="17.6898107">
        <ele>25.6123</ele>
        <time>2013-03-08T18:29:42Z</time>
      </trkpt>
      <trkpt lat="59.9552936" lon="17.68983">
        <ele>25.6123</ele>
        <time>2013-03-08T18:29:43Z</time>
      </trkpt>
      <trkpt lat="59.955283" lon="17.6898524">
        <ele>25.1317</ele>
        <time>2013-03-08T18:29:44Z</time>
      </trkpt>
      <trkpt lat="59.9552739" lon="17.6898791">
        <ele>25.6123</ele>
        <time>2013-03-08T18:29:45Z</time>
      </trkpt>
      <trkpt lat="59.9552646" lon="17.6899028">
        <ele>25.1317</ele>
        <time>2013-03-08T18:29:46Z</time>
      </trkpt>
      <trkpt lat="59.9552554" lon="17.6899251">
        <ele>25.6123</ele>
        <time>2013-03-08T18:29:47Z</time>
      </trkpt>
      <trkpt lat="59.9552475" lon="17.6899538">
        <ele>25.6123</ele>
        <time>2013-03-08T18:29:48Z</time>
      </trkpt>
      <trkpt lat="59.9552407" lon="17.6899811">
        <ele>25.6123</ele>
        <time>2013-03-08T18:29:49Z</time>
      </trkpt>
      <trkpt lat="59.9552361" lon="17.690009">
        <ele>25.6123</ele>
        <time>2013-03-08T18:29:50Z</time>
      </trkpt>
      <trkpt lat="59.955232" lon="17.6900341">
        <ele>25.6123</ele>
        <time>2013-03-08T18:29:51Z</time>
      </trkpt>
      <trkpt lat="59.9552262" lon="17.6900626">
        <ele>26.0929</ele>
        <time>2013-03-08T18:29:52Z</time>
      </trkpt>
      <trkpt lat="59.95522" lon="17.6900883">
        <ele>26.0929</ele>
        <time>2013-03-08T18:29:53Z</time>
      </trkpt>
      <trkpt lat="59.9552136" lon="17.6901108">
        <ele>26.0929</ele>
        <time>2013-03-08T18:29:54Z</time>
      </trkpt>
      <trkpt lat="59.9552066" lon="17.6901315">
        <ele>25.6123</ele>
        <time>2013-03-08T18:29:55Z</time>
      </trkpt>
      <trkpt lat="59.9551993" lon="17.6901517">
        <ele>25.6123</ele>
        <time>2013-03-08T18:29:56Z</time>
      </trkpt>
      <trkpt lat="59.9551926" lon="17.6901725">
        <ele>26.0929</ele>
        <time>2013-03-08T18:29:57Z</time>
      </trkpt>
      <trkpt lat="59.9551862" lon="17.6901967">
        <ele>25.6123</ele>
        <time>2013-03-08T18:29:58Z</time>
      </trkpt>
      <trkpt lat="59.9551802" lon="17.6902198">
        <ele>25.6123</ele>
        <time>2013-03-08T18:29:59Z</time>
      </trkpt>
      <trkpt lat="59.9551751" lon="17.6902443">
        <ele>26.0929</ele>
        <time>2013-03-08T18:30:00Z</time>
      </trkpt>
      <trkpt lat="59.9551703" lon="17.6902691">
        <ele>26.0929</ele>
        <time>2013-03-08T18:30:01Z</time>
      </trkpt>
      <trkpt lat="59.9551649" lon="17.6902937">
        <ele>26.0929</ele>
        <time>2013-03-08T18:30:02Z</time>
      </trkpt>
      <trkpt lat="59.9551593" lon="17.690321">
        <ele>26.0929</ele>
        <time>2013-03-08T18:30:03Z</time>
      </trkpt>
      <trkpt lat="59.9551536" lon="17.6903473">
        <ele>26.5736</ele>
        <time>2013-03-08T18:30:04Z</time>
      </trkpt>
      <trkpt lat="59.955148" lon="17.6903723">
        <ele>26.5736</ele>
        <time>2013-03-08T18:30:05Z</time>
      </trkpt>
      <trkpt lat="59.9551418" lon="17.6903967">
        <ele>27.0543</ele>
        <time>2013-03-08T18:30:06Z</time>
      </trkpt>
      <trkpt lat="59.9551356" lon="17.6904213">
        <ele>27.0543</ele>
        <time>2013-03-08T18:30:07Z</time>
      </trkpt>
      <trkpt lat="59.9551297" lon="17.690446">
        <ele>27.0543</ele>
        <time>2013-03-08T18:30:08Z</time>
      </trkpt>
      <trkpt lat="59.9551238" lon="17.6904714">
        <ele>27.0543</ele>
        <time>2013-03-08T18:30:09Z</time>
      </trkpt>
      <trkpt lat="59.9551185" lon="17.6904975">
        <ele>27.0543</ele>
        <time>2013-03-08T18:30:10Z</time>
      </trkpt>
      <trkpt lat="59.9551132" lon="17.6905232">
        <ele>27.0543</ele>
        <time>2013-03-08T18:30:11Z</time>
      </trkpt>
      <trkpt lat="59.9551079" lon="17.6905496">
        <ele>27.0543</ele>
        <time>2013-03-08T18:30:12Z</time>
      </trkpt>
      <trkpt lat="59.9551027" lon="17.6905754">
        <ele>27.0543</ele>
        <time>2013-03-08T18:30:13Z</time>
      </trkpt>
      <trkpt lat="59.9550981" lon="17.6906016">
        <ele>27.5349</ele>
        <time>2013-03-08T18:30:14Z</time>
      </trkpt>
      <trkpt lat="59.9550943" lon="17.6906267">
        <ele>27.5349</ele>
        <time>2013-03-08T18:30:15Z</time>
      </trkpt>
      <trkpt lat="59.9550898" lon="17.6906536">
        <ele>27.5349</ele>
        <time>2013-03-08T18:30:16Z</time>
      </trkpt>
      <trkpt lat="59.9550851" lon="17.6906806">
        <ele>27.5349</ele>
        <time>2013-03-08T18:30:17Z</time>
      </trkpt>
      <trkpt lat="59.9550801" lon="17.6907037">
        <ele>27.5349</ele>
        <time>2013-03-08T18:30:18Z</time>
      </trkpt>
      <trkpt lat="59.9550753" lon="17.6907292">
        <ele>27.5349</ele>
        <time>2013-03-08T18:30:19Z</time>
      </trkpt>
      <trkpt lat="59.9550713" lon="17.6907566">
        <ele>27.5349</ele>
        <time>2013-03-08T18:30:20Z</time>
      </trkpt>
      <trkpt lat="59.9550666" lon="17.6907843">
        <ele>27.5349</ele>
        <time>2013-03-08T18:30:21Z</time>
      </trkpt>
      <trkpt lat="59.9550608" lon="17.6908117">
        <ele>27.5349</ele>
        <time>2013-03-08T18:30:22Z</time>
      </trkpt>
      <trkpt lat="59.9550557" lon="17.6908383">
        <ele>28.0155</ele>
        <time>2013-03-08T18:30:23Z</time>
      </trkpt>
      <trkpt lat="59.9550511" lon="17.6908639">
        <ele>28.0155</ele>
        <time>2013-03-08T18:30:24Z</time>
      </trkpt>
      <trkpt lat="59.955047" lon="17.6908907">
        <ele>28.0155</ele>
        <time>2013-03-08T18:30:25Z</time>
      </trkpt>
      <trkpt lat="59.9550429" lon="17.6909184">
        <ele>28.0155</ele>
        <time>2013-03-08T18:30:26Z</time>
      </trkpt>
      <trkpt lat="59.9550377" lon="17.6909492">
        <ele>28.4962</ele>
        <time>2013-03-08T18:30:27Z</time>
      </trkpt>
      <trkpt lat="59.9550324" lon="17.6909785">
        <ele>28.4962</ele>
        <time>2013-03-08T18:30:28Z</time>
      </trkpt>
      <trkpt lat="59.9550268" lon="17.6910069">
        <ele>28.9769</ele>
        <time>2013-03-08T18:30:29Z</time>
      </trkpt>
      <trkpt lat="59.9550216" lon="17.6910348">
        <ele>28.9769</ele>
        <time>2013-03-08T18:30:30Z</time>
      </trkpt>
      <trkpt lat="59.9550164" lon="17.6910627">
        <ele>28.9769</ele>
        <time>2013-03-08T18:30:31Z</time>
      </trkpt>
      <trkpt lat="59.9550119" lon="17.6910887">
        <ele>28.9769</ele>
        <time>2013-03-08T18:30:32Z</time>
      </trkpt>
      <trkpt lat="59.9550077" lon="17.6911162">
        <ele>28.9769</ele>
        <time>2013-03-08T18:30:33Z</time>
      </trkpt>
      <trkpt lat="59.9550045" lon="17.6911453">
        <ele>29.4575</ele>
        <time>2013-03-08T18:30:34Z</time>
      </trkpt>
      <trkpt lat="59.9550017" lon="17.6911742">
        <ele>29.4575</ele>
        <time>2013-03-08T18:30:35Z</time>
      </trkpt>
      <trkpt lat="59.9549983" lon="17.6912036">
        <ele>29.4575</ele>
        <time>2013-03-08T18:30:36Z</time>
      </trkpt>
      <trkpt lat="59.9549957" lon="17.6912318">
        <ele>29.4575</ele>
        <time>2013-03-08T18:30:37Z</time>
      </trkpt>
      <trkpt lat="59.9549931" lon="17.6912608">
        <ele>29.9381</ele>
        <time>2013-03-08T18:30:38Z</time>
      </trkpt>
      <trkpt lat="59.9549911" lon="17.6912897">
        <ele>29.9381</ele>
        <time>2013-03-08T18:30:39Z</time>
      </trkpt>
      <trkpt lat="59.9549884" lon="17.6913187">
        <ele>29.9381</ele>
        <time>2013-03-08T18:30:40Z</time>
      </trkpt>
      <trkpt lat="59.9549828" lon="17.6913463">
        <ele>29.9381</ele>
        <time>2013-03-08T18:30:41Z</time>
      </trkpt>
      <trkpt lat="59.9549729" lon="17.6913688">
        <ele>29.9381</ele>
        <time>2013-03-08T18:30:42Z</time>
      </trkpt>
      <trkpt lat="59.9549584" lon="17.691384">
        <ele>29.9381</ele>
        <time>2013-03-08T18:30:43Z</time>
      </trkpt>
      <trkpt lat="59.9549437" lon="17.6913953">
        <ele>29.9381</ele>
        <time>2013-03-08T18:30:44Z</time>
      </trkpt>
      <trkpt lat="59.9549295" lon="17.6914046">
        <ele>29.4575</ele>
        <time>2013-03-08T18:30:45Z</time>
      </trkpt>
      <trkpt lat="59.9549149" lon="17.6914098">
        <ele>29.4575</ele>
        <time>2013-03-08T18:30:46Z</time>
      </trkpt>
      <trkpt lat="59.9549009" lon="17.691414">
        <ele>29.4575</ele>
        <time>2013-03-08T18:30:47Z</time>
      </trkpt>
      <trkpt lat="59.9548875" lon="17.6914165">
        <ele>29.4575</ele>
        <time>2013-03-08T18:30:48Z</time>
      </trkpt>
      <trkpt lat="59.9548735" lon="17.6914197">
        <ele>29.4575</ele>
        <time>2013-03-08T18:30:49Z</time>
      </trkpt>
      <trkpt lat="59.95486" lon="17.6914243">
        <ele>29.4575</ele>
        <time>2013-03-08T18:30:50Z</time>
      </trkpt>
      <trkpt lat="59.9548471" lon="17.6914317">
        <ele>29.4575</ele>
        <time>2013-03-08T18:30:51Z</time>
      </trkpt>
      <trkpt lat="59.9548345" lon="17.6914425">
        <ele>29.4575</ele>
        <time>2013-03-08T18:30:52Z</time>
      </trkpt>
      <trkpt lat="59.9548211" lon="17.6914519">
        <ele>29.9381</ele>
        <time>2013-03-08T18:30:53Z</time>
      </trkpt>
      <trkpt lat="59.9548061" lon="17.691458">
        <ele>29.9381</ele>
        <time>2013-03-08T18:30:54Z</time>
      </trkpt>
      <trkpt lat="59.9547943" lon="17.6914644">
        <ele>30.4188</ele>
        <time>2013-03-08T18:30:55Z</time>
      </trkpt>
      <trkpt lat="59.9546477" lon="17.6915507">
        <ele>47.7225</ele>
        <time>2013-03-08T18:38:53Z</time>
      </trkpt>
      <trkpt lat="59.9546657" lon="17.6915437">
        <ele>44.8386</ele>
        <time>2013-03-08T18:38:54Z</time>
      </trkpt>
      <trkpt lat="59.9546901" lon="17.691525">
        <ele>41.474</ele>
        <time>2013-03-08T18:38:55Z</time>
      </trkpt>
      <trkpt lat="59.9547057" lon="17.6915164">
        <ele>39.5513</ele>
        <time>2013-03-08T18:38:56Z</time>
      </trkpt>
      <trkpt lat="59.9547187" lon="17.6914949">
        <ele>38.5901</ele>
        <time>2013-03-08T18:38:57Z</time>
      </trkpt>
      <trkpt lat="59.9547309" lon="17.6914736">
        <ele>38.1094</ele>
        <time>2013-03-08T18:38:58Z</time>
      </trkpt>
      <trkpt lat="59.9547432" lon="17.6914626">
        <ele>37.6287</ele>
        <time>2013-03-08T18:38:59Z</time>
      </trkpt>
      <trkpt lat="59.954747" lon="17.6914577">
        <ele>36.1868</ele>
        <time>2013-03-08T18:39:00Z</time>
      </trkpt>
      <trkpt lat="59.9547538" lon="17.6914415">
        <ele>36.1868</ele>
        <time>2013-03-08T18:39:01Z</time>
      </trkpt>
      <trkpt lat="59.9547595" lon="17.6914285">
        <ele>34.7449</ele>
        <time>2013-03-08T18:39:02Z</time>
      </trkpt>
      <trkpt lat="59.954772" lon="17.6914264">
        <ele>33.7834</ele>
        <time>2013-03-08T18:39:03Z</time>
      </trkpt>
      <trkpt lat="59.9547823" lon="17.6914178">
        <ele>33.3029</ele>
        <time>2013-03-08T18:39:04Z</time>
      </trkpt>
      <trkpt lat="59.9547937" lon="17.6914063">
        <ele>32.8223</ele>
        <time>2013-03-08T18:39:05Z</time>
      </trkpt>
      <trkpt lat="59.9548087" lon="17.6914019">
        <ele>32.8223</ele>
        <time>2013-03-08T18:39:06Z</time>
      </trkpt>
      <trkpt lat="59.9548248" lon="17.6913991">
        <ele>32.3416</ele>
        <time>2013-03-08T18:39:07Z</time>
      </trkpt>
      <trkpt lat="59.9548402" lon="17.6913958">
        <ele>31.8607</ele>
        <time>2013-03-08T18:39:08Z</time>
      </trkpt>
      <trkpt lat="59.9548564" lon="17.6914004">
        <ele>31.8607</ele>
        <time>2013-03-08T18:39:09Z</time>
      </trkpt>
      <trkpt lat="59.9548718" lon="17.6914037">
        <ele>31.3801</ele>
        <time>2013-03-08T18:39:10Z</time>
      </trkpt>
      <trkpt lat="59.9548852" lon="17.6914051">
        <ele>31.3801</ele>
        <time>2013-03-08T18:39:11Z</time>
      </trkpt>
      <trkpt lat="59.9548983" lon="17.6914021">
        <ele>30.8995</ele>
        <time>2013-03-08T18:39:12Z</time>
      </trkpt>
      <trkpt lat="59.9549112" lon="17.6913979">
        <ele>30.4188</ele>
        <time>2013-03-08T18:39:13Z</time>
      </trkpt>
      <trkpt lat="59.9549251" lon="17.6913953">
        <ele>30.4188</ele>
        <time>2013-03-08T18:39:14Z</time>
      </trkpt>
      <trkpt lat="59.9549403" lon="17.6913926">
        <ele>30.4188</ele>
        <time>2013-03-08T18:39:15Z</time>
      </trkpt>
      <trkpt lat="59.9549531" lon="17.6913859">
        <ele>30.4188</ele>
        <time>2013-03-08T18:39:16Z</time>
      </trkpt>
      <trkpt lat="59.9549631" lon="17.6913705">
        <ele>30.4188</ele>
        <time>2013-03-08T18:39:17Z</time>
      </trkpt>
      <trkpt lat="59.9549722" lon="17.6913431">
        <ele>30.8995</ele>
        <time>2013-03-08T18:39:18Z</time>
      </trkpt>
      <trkpt lat="59.954978" lon="17.6913167">
        <ele>30.8995</ele>
        <time>2013-03-08T18:39:19Z</time>
      </trkpt>
      <trkpt lat="59.9549823" lon="17.6912913">
        <ele>31.3801</ele>
        <time>2013-03-08T18:39:20Z</time>
      </trkpt>
      <trkpt lat="59.9549854" lon="17.6912659">
        <ele>31.3801</ele>
        <time>2013-03-08T18:39:21Z</time>
      </trkpt>
      <trkpt lat="59.9549894" lon="17.6912389">
        <ele>31.3801</ele>
        <time>2013-03-08T18:39:22Z</time>
      </trkpt>
      <trkpt lat="59.9549952" lon="17.6912085">
        <ele>31.8607</ele>
        <time>2013-03-08T18:39:23Z</time>
      </trkpt>
      <trkpt lat="59.9549988" lon="17.6911773">
        <ele>32.8223</ele>
        <time>2013-03-08T18:39:24Z</time>
      </trkpt>
      <trkpt lat="59.955003" lon="17.6911467">
        <ele>32.8223</ele>
        <time>2013-03-08T18:39:25Z</time>
      </trkpt>
      <trkpt lat="59.9550087" lon="17.6911177">
        <ele>33.3029</ele>
        <time>2013-03-08T18:39:26Z</time>
      </trkpt>
      <trkpt lat="59.9550149" lon="17.6910918">
        <ele>33.7834</ele>
        <time>2013-03-08T18:39:27Z</time>
      </trkpt>
      <trkpt lat="59.9550228" lon="17.6910659">
        <ele>33.7834</ele>
        <time>2013-03-08T18:39:28Z</time>
      </trkpt>
      <trkpt lat="59.9550283" lon="17.691039">
        <ele>34.2642</ele>
        <time>2013-03-08T18:39:29Z</time>
      </trkpt>
      <trkpt lat="59.955032" lon="17.6910125">
        <ele>33.7834</ele>
        <time>2013-03-08T18:39:30Z</time>
      </trkpt>
      <trkpt lat="59.9550361" lon="17.6909882">
        <ele>33.7834</ele>
        <time>2013-03-08T18:39:31Z</time>
      </trkpt>
      <trkpt lat="59.9550403" lon="17.6909611">
        <ele>33.7834</ele>
        <time>2013-03-08T18:39:32Z</time>
      </trkpt>
      <trkpt lat="59.9550447" lon="17.6909317">
        <ele>33.7834</ele>
        <time>2013-03-08T18:39:33Z</time>
      </trkpt>
      <trkpt lat="59.9550491" lon="17.6909038">
        <ele>33.7834</ele>
        <time>2013-03-08T18:39:34Z</time>
      </trkpt>
      <trkpt lat="59.9550527" lon="17.6908753">
        <ele>33.7834</ele>
        <time>2013-03-08T18:39:35Z</time>
      </trkpt>
      <trkpt lat="59.9550573" lon="17.6908485">
        <ele>33.7834</ele>
        <time>2013-03-08T18:39:36Z</time>
      </trkpt>
      <trkpt lat="59.9550629" lon="17.6908223">
        <ele>33.7834</ele>
        <time>2013-03-08T18:39:37Z</time>
      </trkpt>
      <trkpt lat="59.9550682" lon="17.6907964">
        <ele>34.2642</ele>
        <time>2013-03-08T18:39:38Z</time>
      </trkpt>
      <trkpt lat="59.9550733" lon="17.6907711">
        <ele>34.7449</ele>
        <time>2013-03-08T18:39:39Z</time>
      </trkpt>
      <trkpt lat="59.9550779" lon="17.6907416">
        <ele>34.7449</ele>
        <time>2013-03-08T18:39:40Z</time>
      </trkpt>
      <trkpt lat="59.9550808" lon="17.690713">
        <ele>34.7449</ele>
        <time>2013-03-08T18:39:41Z</time>
      </trkpt>
      <trkpt lat="59.9550851" lon="17.6906847">
        <ele>34.7449</ele>
        <time>2013-03-08T18:39:42Z</time>
      </trkpt>
      <trkpt lat="59.955091" lon="17.690656">
        <ele>35.2255</ele>
        <time>2013-03-08T18:39:43Z</time>
      </trkpt>
      <trkpt lat="59.955097" lon="17.6906298">
        <ele>34.7449</ele>
        <time>2013-03-08T18:39:44Z</time>
      </trkpt>
      <trkpt lat="59.9551017" lon="17.690607">
        <ele>34.7449</ele>
        <time>2013-03-08T18:39:45Z</time>
      </trkpt>
      <trkpt lat="59.9551066" lon="17.6905817">
        <ele>34.7449</ele>
        <time>2013-03-08T18:39:46Z</time>
      </trkpt>
      <trkpt lat="59.9551122" lon="17.6905548">
        <ele>34.7449</ele>
        <time>2013-03-08T18:39:47Z</time>
      </trkpt>
      <trkpt lat="59.9551178" lon="17.6905292">
        <ele>34.7449</ele>
        <time>2013-03-08T18:39:48Z</time>
      </trkpt>
      <trkpt lat="59.9551246" lon="17.6905063">
        <ele>34.7449</ele>
        <time>2013-03-08T18:39:49Z</time>
      </trkpt>
      <trkpt lat="59.9551314" lon="17.6904854">
        <ele>34.7449</ele>
        <time>2013-03-08T18:39:50Z</time>
      </trkpt>
      <trkpt lat="59.9551377" lon="17.6904641">
        <ele>34.7449</ele>
        <time>2013-03-08T18:39:51Z</time>
      </trkpt>
      <trkpt lat="59.9551439" lon="17.6904437">
        <ele>34.7449</ele>
        <time>2013-03-08T18:39:52Z</time>
      </trkpt>
      <trkpt lat="59.9551501" lon="17.690425">
        <ele>35.2255</ele>
        <time>2013-03-08T18:39:53Z</time>
      </trkpt>
      <trkpt lat="59.9551568" lon="17.690406">
        <ele>35.2255</ele>
        <time>2013-03-08T18:39:54Z</time>
      </trkpt>
      <trkpt lat="59.9551636" lon="17.6903842">
        <ele>34.7449</ele>
        <time>2013-03-08T18:39:55Z</time>
      </trkpt>
      <trkpt lat="59.9551702" lon="17.6903607">
        <ele>34.7449</ele>
        <time>2013-03-08T18:39:56Z</time>
      </trkpt>
      <trkpt lat="59.9551775" lon="17.6903372">
        <ele>34.7449</ele>
        <time>2013-03-08T18:39:57Z</time>
      </trkpt>
      <trkpt lat="59.9551853" lon="17.6903143">
        <ele>34.7449</ele>
        <time>2013-03-08T18:39:58Z</time>
      </trkpt>
      <trkpt lat="59.9551926" lon="17.6902915">
        <ele>34.7449</ele>
        <time>2013-03-08T18:39:59Z</time>
      </trkpt>
      <trkpt lat="59.9551998" lon="17.6902666">
        <ele>34.7449</ele>
        <time>2013-03-08T18:40:00Z</time>
      </trkpt>
      <trkpt lat="59.9552074" lon="17.6902416">
        <ele>34.7449</ele>
        <time>2013-03-08T18:40:01Z</time>
      </trkpt>
      <trkpt lat="59.9552143" lon="17.6902206">
        <ele>34.7449</ele>
        <time>2013-03-08T18:40:02Z</time>
      </trkpt>
      <trkpt lat="59.9552224" lon="17.6901989">
        <ele>34.7449</ele>
        <time>2013-03-08T18:40:03Z</time>
      </trkpt>
      <trkpt lat="59.9552313" lon="17.6901773">
        <ele>35.2255</ele>
        <time>2013-03-08T18:40:04Z</time>
      </trkpt>
      <trkpt lat="59.95524" lon="17.6901577">
        <ele>35.2255</ele>
        <time>2013-03-08T18:40:05Z</time>
      </trkpt>
      <trkpt lat="59.9552488" lon="17.6901372">
        <ele>35.2255</ele>
        <time>2013-03-08T18:40:06Z</time>
      </trkpt>
      <trkpt lat="59.9552561" lon="17.6901171">
        <ele>35.2255</ele>
        <time>2013-03-08T18:40:07Z</time>
      </trkpt>
      <trkpt lat="59.955263" lon="17.6900972">
        <ele>34.7449</ele>
        <time>2013-03-08T18:40:08Z</time>
      </trkpt>
      <trkpt lat="59.9552714" lon="17.6900755">
        <ele>34.7449</ele>
        <time>2013-03-08T18:40:09Z</time>
      </trkpt>
      <trkpt lat="59.9552797" lon="17.6900527">
        <ele>34.7449</ele>
        <time>2013-03-08T18:40:10Z</time>
      </trkpt>
      <trkpt lat="59.9552878" lon="17.6900297">
        <ele>34.7449</ele>
        <time>2013-03-08T18:40:11Z</time>
      </trkpt>
      <trkpt lat="59.9552966" lon="17.6900065">
        <ele>34.7449</ele>
        <time>2013-03-08T18:40:12Z</time>
      </trkpt>
      <trkpt lat="59.9553055" lon="17.6899836">
        <ele>34.2642</ele>
        <time>2013-03-08T18:40:13Z</time>
      </trkpt>
      <trkpt lat="59.9553148" lon="17.6899617">
        <ele>34.2642</ele>
        <time>2013-03-08T18:40:14Z</time>
      </trkpt>
      <trkpt lat="59.9553243" lon="17.6899407">
        <ele>34.2642</ele>
        <time>2013-03-08T18:40:15Z</time>
      </trkpt>
      <trkpt lat="59.9553346" lon="17.68992">
        <ele>34.2642</ele>
        <time>2013-03-08T18:40:16Z</time>
      </trkpt>
      <trkpt lat="59.9553459" lon="17.6899019">
        <ele>33.7834</ele>
        <time>2013-03-08T18:40:17Z</time>
      </trkpt>
      <trkpt lat="59.9553574" lon="17.6898847">
        <ele>33.7834</ele>
        <time>2013-03-08T18:40:18Z</time>
      </trkpt>
      <trkpt lat="59.955368" lon="17.6898658">
        <ele>33.7834</ele>
        <time>2013-03-08T18:40:19Z</time>
      </trkpt>
      <trkpt lat="59.9553785" lon="17.6898472">
        <ele>33.7834</ele>
        <time>2013-03-08T18:40:20Z</time>
      </trkpt>
      <trkpt lat="59.9553889" lon="17.6898284">
        <ele>33.7834</ele>
        <time>2013-03-08T18:40:21Z</time>
      </trkpt>
      <trkpt lat="59.955399" lon="17.6898092">
        <ele>33.7834</ele>
        <time>2013-03-08T18:40:22Z</time>
      </trkpt>
      <trkpt lat="59.955409" lon="17.6897897">
        <ele>33.3029</ele>
        <time>2013-03-08T18:40:23Z</time>
      </trkpt>
      <trkpt lat="59.9554185" lon="17.6897699">
        <ele>33.7834</ele>
        <time>2013-03-08T18:40:24Z</time>
      </trkpt>
      <trkpt lat="59.9554283" lon="17.6897474">
        <ele>33.7834</ele>
        <time>2013-03-08T18:40:25Z</time>
      </trkpt>
      <trkpt lat="59.955438" lon="17.6897258">
        <ele>33.7834</ele>
        <time>2013-03-08T18:40:26Z</time>
      </trkpt>
      <trkpt lat="59.9554495" lon="17.6897051">
        <ele>33.7834</ele>
        <time>2013-03-08T18:40:27Z</time>
      </trkpt>
      <trkpt lat="59.9554612" lon="17.6896863">
        <ele>34.2642</ele>
        <time>2013-03-08T18:40:28Z</time>
      </trkpt>
      <trkpt lat="59.9554713" lon="17.6896679">
        <ele>33.7834</ele>
        <time>2013-03-08T18:40:29Z</time>
      </trkpt>
      <trkpt lat="59.9554824" lon="17.6896485">
        <ele>33.7834</ele>
        <time>2013-03-08T18:40:30Z</time>
      </trkpt>
      <trkpt lat="59.9554935" lon="17.6896304">
        <ele>33.7834</ele>
        <time>2013-03-08T18:40:31Z</time>
      </trkpt>
      <trkpt lat="59.9555049" lon="17.689614">
        <ele>33.7834</ele>
        <time>2013-03-08T18:40:32Z</time>
      </trkpt>
      <trkpt lat="59.9555163" lon="17.6895974">
        <ele>33.7834</ele>
        <time>2013-03-08T18:40:33Z</time>
      </trkpt>
      <trkpt lat="59.9555262" lon="17.6895803">
        <ele>33.3029</ele>
        <time>2013-03-08T18:40:34Z</time>
      </trkpt>
      <trkpt lat="59.9555356" lon="17.6895625">
        <ele>33.3029</ele>
        <time>2013-03-08T18:40:35Z</time>
      </trkpt>
      <trkpt lat="59.9555464" lon="17.689544">
        <ele>32.8223</ele>
        <time>2013-03-08T18:40:36Z</time>
      </trkpt>
      <trkpt lat="59.9555587" lon="17.6895264">
        <ele>32.8223</ele>
        <time>2013-03-08T18:40:37Z</time>
      </trkpt>
      <trkpt lat="59.9555711" lon="17.6895114">
        <ele>32.8223</ele>
        <time>2013-03-08T18:40:38Z</time>
      </trkpt>
      <trkpt lat="59.9555825" lon="17.6894953">
        <ele>32.8223</ele>
        <time>2013-03-08T18:40:39Z</time>
      </trkpt>
      <trkpt lat="59.9555935" lon="17.6894783">
        <ele>32.8223</ele>
        <time>2013-03-08T18:40:40Z</time>
      </trkpt>
      <trkpt lat="59.9556054" lon="17.6894606">
        <ele>32.8223</ele>
        <time>2013-03-08T18:40:41Z</time>
      </trkpt>
      <trkpt lat="59.9556168" lon="17.6894455">
        <ele>32.8223</ele>
        <time>2013-03-08T18:40:42Z</time>
      </trkpt>
      <trkpt lat="59.955629" lon="17.6894293">
        <ele>32.8223</ele>
        <time>2013-03-08T18:40:43Z</time>
      </trkpt>
      <trkpt lat="59.9556416" lon="17.689414">
        <ele>32.8223</ele>
        <time>2013-03-08T18:40:44Z</time>
      </trkpt>
      <trkpt lat="59.9556549" lon="17.6894019">
        <ele>32.8223</ele>
        <time>2013-03-08T18:40:45Z</time>
      </trkpt>
      <trkpt lat="59.9556679" lon="17.6893901">
        <ele>32.3416</ele>
        <time>2013-03-08T18:40:46Z</time>
      </trkpt>
      <trkpt lat="59.9556809" lon="17.6893787">
        <ele>32.3416</ele>
        <time>2013-03-08T18:40:47Z</time>
      </trkpt>
      <trkpt lat="59.9556936" lon="17.6893684">
        <ele>32.3416</ele>
        <time>2013-03-08T18:40:48Z</time>
      </trkpt>
      <trkpt lat="59.9557086" lon="17.6893566">
        <ele>32.8223</ele>
        <time>2013-03-08T18:40:49Z</time>
      </trkpt>
      <trkpt lat="59.9557221" lon="17.6893436">
        <ele>33.3029</ele>
        <time>2013-03-08T18:40:50Z</time>
      </trkpt>
      <trkpt lat="59.9557344" lon="17.6893279">
        <ele>33.3029</ele>
        <time>2013-03-08T18:40:51Z</time>
      </trkpt>
      <trkpt lat="59.9557475" lon="17.6893129">
        <ele>33.3029</ele>
        <time>2013-03-08T18:40:52Z</time>
      </trkpt>
      <trkpt lat="59.9557618" lon="17.6892995">
        <ele>33.3029</ele>
        <time>2013-03-08T18:40:53Z</time>
      </trkpt>
      <trkpt lat="59.9557722" lon="17.6892833">
        <ele>33.3029</ele>
        <time>2013-03-08T18:40:54Z</time>
      </trkpt>
      <trkpt lat="59.9557821" lon="17.6892663">
        <ele>33.3029</ele>
        <time>2013-03-08T18:40:55Z</time>
      </trkpt>
      <trkpt lat="59.9557949" lon="17.6892533">
        <ele>33.3029</ele>
        <time>2013-03-08T18:40:56Z</time>
      </trkpt>
      <trkpt lat="59.9558067" lon="17.6892421">
        <ele>33.3029</ele>
        <time>2013-03-08T18:40:57Z</time>
      </trkpt>
      <trkpt lat="59.9558177" lon="17.6892301">
        <ele>33.3029</ele>
        <time>2013-03-08T18:40:58Z</time>
      </trkpt>
      <trkpt lat="59.9558307" lon="17.6892177">
        <ele>33.7834</ele>
        <time>2013-03-08T18:40:59Z</time>
      </trkpt>
      <trkpt lat="59.9558417" lon="17.6892016">
        <ele>33.7834</ele>
        <time>2013-03-08T18:41:00Z</time>
      </trkpt>
      <trkpt lat="59.9558542" lon="17.6891891">
        <ele>33.7834</ele>
        <time>2013-03-08T18:41:01Z</time>
      </trkpt>
      <trkpt lat="59.9558685" lon="17.6891799">
        <ele>33.7834</ele>
        <time>2013-03-08T18:41:02Z</time>
      </trkpt>
      <trkpt lat="59.9558805" lon="17.6891683">
        <ele>33.3029</ele>
        <time>2013-03-08T18:41:03Z</time>
      </trkpt>
      <trkpt lat="59.9558955" lon="17.6891591">
        <ele>33.3029</ele>
        <time>2013-03-08T18:41:04Z</time>
      </trkpt>
      <trkpt lat="59.9559105" lon="17.6891472">
        <ele>32.8223</ele>
        <time>2013-03-08T18:41:05Z</time>
      </trkpt>
      <trkpt lat="59.955924" lon="17.6891328">
        <ele>33.3029</ele>
        <time>2013-03-08T18:41:06Z</time>
      </trkpt>
      <trkpt lat="59.9559384" lon="17.6891227">
        <ele>32.8223</ele>
        <time>2013-03-08T18:41:07Z</time>
      </trkpt>
      <trkpt lat="59.9559521" lon="17.6891109">
        <ele>33.3029</ele>
        <time>2013-03-08T18:41:08Z</time>
      </trkpt>
      <trkpt lat="59.9559652" lon="17.6890989">
        <ele>33.3029</ele>
        <time>2013-03-08T18:41:09Z</time>
      </trkpt>
      <trkpt lat="59.9559799" lon="17.6890912">
        <ele>32.8223</ele>
        <time>2013-03-08T18:41:10Z</time>
      </trkpt>
      <trkpt lat="59.9559944" lon="17.6890843">
        <ele>32.8223</ele>
        <time>2013-03-08T18:41:11Z</time>
      </trkpt>
      <trkpt lat="59.9560084" lon="17.6890757">
        <ele>32.8223</ele>
        <time>2013-03-08T18:41:12Z</time>
      </trkpt>
      <trkpt lat="59.9560224" lon="17.6890678">
        <ele>32.8223</ele>
        <time>2013-03-08T18:41:13Z</time>
      </trkpt>
      <trkpt lat="59.9560364" lon="17.689058">
        <ele>32.8223</ele>
        <time>2013-03-08T18:41:14Z</time>
      </trkpt>
      <trkpt lat="59.9560505" lon="17.6890488">
        <ele>33.3029</ele>
        <time>2013-03-08T18:41:15Z</time>
      </trkpt>
      <trkpt lat="59.9560639" lon="17.689042">
        <ele>32.8223</ele>
        <time>2013-03-08T18:41:16Z</time>
      </trkpt>
      <trkpt lat="59.9560797" lon="17.6890416">
        <ele>32.8223</ele>
        <time>2013-03-08T18:41:17Z</time>
      </trkpt>
      <trkpt lat="59.9560955" lon="17.6890451">
        <ele>32.8223</ele>
        <time>2013-03-08T18:41:18Z</time>
      </trkpt>
      <trkpt lat="59.9561084" lon="17.6890556">
        <ele>32.8223</ele>
        <time>2013-03-08T18:41:19Z</time>
      </trkpt>
      <trkpt lat="59.9561201" lon="17.6890769">
        <ele>32.3416</ele>
        <time>2013-03-08T18:41:20Z</time>
      </trkpt>
      <trkpt lat="59.9561334" lon="17.6890991">
        <ele>32.3416</ele>
        <time>2013-03-08T18:41:21Z</time>
      </trkpt>
      <trkpt lat="59.9561473" lon="17.6891229">
        <ele>31.8607</ele>
        <time>2013-03-08T18:41:22Z</time>
      </trkpt>
      <trkpt lat="59.956155" lon="17.6891491">
        <ele>31.8607</ele>
        <time>2013-03-08T18:41:23Z</time>
      </trkpt>
      <trkpt lat="59.9561617" lon="17.6891772">
        <ele>31.8607</ele>
        <time>2013-03-08T18:41:24Z</time>
      </trkpt>
      <trkpt lat="59.9561686" lon="17.6892042">
        <ele>32.3416</ele>
        <time>2013-03-08T18:41:25Z</time>
      </trkpt>
      <trkpt lat="59.9561735" lon="17.6892309">
        <ele>31.8607</ele>
        <time>2013-03-08T18:41:26Z</time>
      </trkpt>
      <trkpt lat="59.9561784" lon="17.6892596">
        <ele>31.8607</ele>
        <time>2013-03-08T18:41:27Z</time>
      </trkpt>
      <trkpt lat="59.9561846" lon="17.6892845">
        <ele>31.8607</ele>
        <time>2013-03-08T18:41:28Z</time>
      </trkpt>
      <trkpt lat="59.9561928" lon="17.6893099">
        <ele>31.8607</ele>
        <time>2013-03-08T18:41:29Z</time>
      </trkpt>
      <trkpt lat="59.9561983" lon="17.6893377">
        <ele>31.8607</ele>
        <time>2013-03-08T18:41:30Z</time>
      </trkpt>
      <trkpt lat="59.9562035" lon="17.6893658">
        <ele>31.8607</ele>
        <time>2013-03-08T18:41:31Z</time>
      </trkpt>
      <trkpt lat="59.9562088" lon="17.6893921">
        <ele>31.8607</ele>
        <time>2013-03-08T18:41:32Z</time>
      </trkpt>
      <trkpt lat="59.9562145" lon="17.6894182">
        <ele>31.8607</ele>
        <time>2013-03-08T18:41:33Z</time>
      </trkpt>
      <trkpt lat="59.9562211" lon="17.6894442">
        <ele>32.3416</ele>
        <time>2013-03-08T18:41:34Z</time>
      </trkpt>
      <trkpt lat="59.9562279" lon="17.6894689">
        <ele>32.3416</ele>
        <time>2013-03-08T18:41:35Z</time>
      </trkpt>
      <trkpt lat="59.9562348" lon="17.6894932">
        <ele>32.8223</ele>
        <time>2013-03-08T18:41:36Z</time>
      </trkpt>
      <trkpt lat="59.956241" lon="17.6895187">
        <ele>32.8223</ele>
        <time>2013-03-08T18:41:37Z</time>
      </trkpt>
      <trkpt lat="59.9562472" lon="17.6895466">
        <ele>33.3029</ele>
        <time>2013-03-08T18:41:38Z</time>
      </trkpt>
      <trkpt lat="59.9562536" lon="17.6895749">
        <ele>33.3029</ele>
        <time>2013-03-08T18:41:39Z</time>
      </trkpt>
      <trkpt lat="59.9562611" lon="17.6896022">
        <ele>33.7834</ele>
        <time>2013-03-08T18:41:40Z</time>
      </trkpt>
      <trkpt lat="59.956269" lon="17.6896293">
        <ele>34.2642</ele>
        <time>2013-03-08T18:41:41Z</time>
      </trkpt>
      <trkpt lat="59.9562757" lon="17.6896579">
        <ele>34.7449</ele>
        <time>2013-03-08T18:41:42Z</time>
      </trkpt>
      <trkpt lat="59.9562814" lon="17.6896863">
        <ele>35.2255</ele>
        <time>2013-03-08T18:41:43Z</time>
      </trkpt>
      <trkpt lat="59.9562879" lon="17.689713">
        <ele>35.2255</ele>
        <time>2013-03-08T18:41:44Z</time>
      </trkpt>
      <trkpt lat="59.9562947" lon="17.6897347">
        <ele>35.2255</ele>
        <time>2013-03-08T18:41:45Z</time>
      </trkpt>
      <trkpt lat="59.956302" lon="17.6897444">
        <ele>35.7061</ele>
        <time>2013-03-08T18:41:46Z</time>
      </trkpt>
      <trkpt lat="59.956311" lon="17.6897456">
        <ele>35.2255</ele>
        <time>2013-03-08T18:41:47Z</time>
      </trkpt>
      <trkpt lat="59.9563242" lon="17.689748">
        <ele>35.7061</ele>
        <time>2013-03-08T18:41:48Z</time>
      </trkpt>
      <trkpt lat="59.9563353" lon="17.689759">
        <ele>35.7061</ele>
        <time>2013-03-08T18:41:49Z</time>
      </trkpt>
      <trkpt lat="59.9563456" lon="17.689779">
        <ele>35.2255</ele>
        <time>2013-03-08T18:41:50Z</time>
      </trkpt>
      <trkpt lat="59.956353" lon="17.6898015">
        <ele>35.2255</ele>
        <time>2013-03-08T18:41:51Z</time>
      </trkpt>
      <trkpt lat="59.9563607" lon="17.6898275">
        <ele>34.7449</ele>
        <time>2013-03-08T18:41:52Z</time>
      </trkpt>
      <trkpt lat="59.956366" lon="17.6898543">
        <ele>34.7449</ele>
        <time>2013-03-08T18:41:53Z</time>
      </trkpt>
      <trkpt lat="59.95637" lon="17.6898792">
        <ele>34.7449</ele>
        <time>2013-03-08T18:41:54Z</time>
      </trkpt>
      <trkpt lat="59.9563766" lon="17.6899025">
        <ele>34.2642</ele>
        <time>2013-03-08T18:41:55Z</time>
      </trkpt>
      <trkpt lat="59.956385" lon="17.6899268">
        <ele>34.2642</ele>
        <time>2013-03-08T18:41:56Z</time>
      </trkpt>
      <trkpt lat="59.9563937" lon="17.6899484">
        <ele>34.2642</ele>
        <time>2013-03-08T18:41:57Z</time>
      </trkpt>
      <trkpt lat="59.9564006" lon="17.6899713">
        <ele>33.7834</ele>
        <time>2013-03-08T18:41:58Z</time>
      </trkpt>
      <trkpt lat="59.9564068" lon="17.689996">
        <ele>33.7834</ele>
        <time>2013-03-08T18:41:59Z</time>
      </trkpt>
      <trkpt lat="59.956413" lon="17.6900204">
        <ele>33.7834</ele>
        <time>2013-03-08T18:42:00Z</time>
      </trkpt>
      <trkpt lat="59.9564191" lon="17.6900449">
        <ele>33.7834</ele>
        <time>2013-03-08T18:42:01Z</time>
      </trkpt>
      <trkpt lat="59.9564259" lon="17.6900698">
        <ele>33.7834</ele>
        <time>2013-03-08T18:42:02Z</time>
      </trkpt>
      <trkpt lat="59.9564335" lon="17.6900932">
        <ele>33.7834</ele>
        <time>2013-03-08T18:42:03Z</time>
      </trkpt>
      <trkpt lat="59.9564415" lon="17.690116">
        <ele>34.2642</ele>
        <time>2013-03-08T18:42:04Z</time>
      </trkpt>
      <trkpt lat="59.9564485" lon="17.69014">
        <ele>34.2642</ele>
        <time>2013-03-08T18:42:05Z</time>
      </trkpt>
      <trkpt lat="59.9564566" lon="17.6901618">
        <ele>34.2642</ele>
        <time>2013-03-08T18:42:06Z</time>
      </trkpt>
      <trkpt lat="59.9564648" lon="17.6901843">
        <ele>34.2642</ele>
        <time>2013-03-08T18:42:07Z</time>
      </trkpt>
      <trkpt lat="59.9564721" lon="17.6902095">
        <ele>34.2642</ele>
        <time>2013-03-08T18:42:08Z</time>
      </trkpt>
      <trkpt lat="59.9564787" lon="17.6902303">
        <ele>34.2642</ele>
        <time>2013-03-08T18:42:09Z</time>
      </trkpt>
      <trkpt lat="59.9564876" lon="17.6902494">
        <ele>34.2642</ele>
        <time>2013-03-08T18:42:10Z</time>
      </trkpt>
      <trkpt lat="59.9564984" lon="17.6902738">
        <ele>34.2642</ele>
        <time>2013-03-08T18:42:11Z</time>
      </trkpt>
      <trkpt lat="59.9565081" lon="17.6902972">
        <ele>34.2642</ele>
        <time>2013-03-08T18:42:12Z</time>
      </trkpt>
      <trkpt lat="59.9565192" lon="17.690317">
        <ele>34.2642</ele>
        <time>2013-03-08T18:42:13Z</time>
      </trkpt>
      <trkpt lat="59.9565326" lon="17.6903345">
        <ele>34.2642</ele>
        <time>2013-03-08T18:42:14Z</time>
      </trkpt>
      <trkpt lat="59.9565456" lon="17.6903521">
        <ele>34.2642</ele>
        <time>2013-03-08T18:42:15Z</time>
      </trkpt>
      <trkpt lat="59.9565586" lon="17.6903696">
        <ele>34.2642</ele>
        <time>2013-03-08T18:42:16Z</time>
      </trkpt>
      <trkpt lat="59.9565708" lon="17.690389">
        <ele>34.2642</ele>
        <time>2013-03-08T18:42:17Z</time>
      </trkpt>
      <trkpt lat="59.9565845" lon="17.6904019">
        <ele>34.2642</ele>
        <time>2013-03-08T18:42:18Z</time>
      </trkpt>
      <trkpt lat="59.9565974" lon="17.6904185">
        <ele>34.2642</ele>
        <time>2013-03-08T18:42:19Z</time>
      </trkpt>
      <trkpt lat="59.9566096" lon="17.6904415">
        <ele>34.2642</ele>
        <time>2013-03-08T18:42:20Z</time>
      </trkpt>
      <trkpt lat="59.9566212" lon="17.6904638">
        <ele>34.2642</ele>
        <time>2013-03-08T18:42:21Z</time>
      </trkpt>
      <trkpt lat="59.9566331" lon="17.6904841">
        <ele>34.2642</ele>
        <time>2013-03-08T18:42:22Z</time>
      </trkpt>
      <trkpt lat="59.9566447" lon="17.6905052">
        <ele>34.7449</ele>
        <time>2013-03-08T18:42:23Z</time>
      </trkpt>
      <trkpt lat="59.9566561" lon="17.6905286">
        <ele>34.7449</ele>
        <time>2013-03-08T18:42:24Z</time>
      </trkpt>
      <trkpt lat="59.9566668" lon="17.690549">
        <ele>35.2255</ele>
        <time>2013-03-08T18:42:25Z</time>
      </trkpt>
      <trkpt lat="59.956676" lon="17.6905718">
        <ele>35.2255</ele>
        <time>2013-03-08T18:42:26Z</time>
      </trkpt>
      <trkpt lat="59.9566844" lon="17.6905964">
        <ele>35.2255</ele>
        <time>2013-03-08T18:42:27Z</time>
      </trkpt>
      <trkpt lat="59.9566934" lon="17.6906205">
        <ele>35.2255</ele>
        <time>2013-03-08T18:42:28Z</time>
      </trkpt>
      <trkpt lat="59.9567027" lon="17.6906443">
        <ele>35.2255</ele>
        <time>2013-03-08T18:42:29Z</time>
      </trkpt>
      <trkpt lat="59.9567119" lon="17.6906671">
        <ele>35.2255</ele>
        <time>2013-03-08T18:42:30Z</time>
      </trkpt>
      <trkpt lat="59.9567207" lon="17.6906904">
        <ele>35.2255</ele>
        <time>2013-03-08T18:42:31Z</time>
      </trkpt>
      <trkpt lat="59.9567296" lon="17.6907146">
        <ele>35.7061</ele>
        <time>2013-03-08T18:42:32Z</time>
      </trkpt>
      <trkpt lat="59.9567384" lon="17.6907384">
        <ele>35.7061</ele>
        <time>2013-03-08T18:42:33Z</time>
      </trkpt>
      <trkpt lat="59.9567472" lon="17.690762">
        <ele>35.7061</ele>
        <time>2013-03-08T18:42:34Z</time>
      </trkpt>
      <trkpt lat="59.9567544" lon="17.69079">
        <ele>35.2255</ele>
        <time>2013-03-08T18:42:35Z</time>
      </trkpt>
      <trkpt lat="59.9567622" lon="17.6908178">
        <ele>35.2255</ele>
        <time>2013-03-08T18:42:36Z</time>
      </trkpt>
      <trkpt lat="59.9567698" lon="17.6908456">
        <ele>34.7449</ele>
        <time>2013-03-08T18:42:37Z</time>
      </trkpt>
      <trkpt lat="59.9567775" lon="17.6908717">
        <ele>34.7449</ele>
        <time>2013-03-08T18:42:38Z</time>
      </trkpt>
      <trkpt lat="59.9567863" lon="17.6908964">
        <ele>34.7449</ele>
        <time>2013-03-08T18:42:39Z</time>
      </trkpt>
      <trkpt lat="59.9567954" lon="17.6909209">
        <ele>34.7449</ele>
        <time>2013-03-08T18:42:40Z</time>
      </trkpt>
      <trkpt lat="59.9568046" lon="17.6909457">
        <ele>34.7449</ele>
        <time>2013-03-08T18:42:41Z</time>
      </trkpt>
      <trkpt lat="59.9568125" lon="17.690977">
        <ele>34.2642</ele>
        <time>2013-03-08T18:42:42Z</time>
      </trkpt>
      <trkpt lat="59.9568186" lon="17.6910099">
        <ele>34.2642</ele>
        <time>2013-03-08T18:42:43Z</time>
      </trkpt>
      <trkpt lat="59.9568239" lon="17.6910385">
        <ele>33.7834</ele>
        <time>2013-03-08T18:42:44Z</time>
      </trkpt>
      <trkpt lat="59.9568309" lon="17.691066">
        <ele>33.3029</ele>
        <time>2013-03-08T18:42:45Z</time>
      </trkpt>
      <trkpt lat="59.9568401" lon="17.6910882">
        <ele>32.8223</ele>
        <time>2013-03-08T18:42:46Z</time>
      </trkpt>
      <trkpt lat="59.9568495" lon="17.6911116">
        <ele>32.8223</ele>
        <time>2013-03-08T18:42:47Z</time>
      </trkpt>
      <trkpt lat="59.9568581" lon="17.6911395">
        <ele>32.3416</ele>
        <time>2013-03-08T18:42:48Z</time>
      </trkpt>
      <trkpt lat="59.9568673" lon="17.6911664">
        <ele>31.8607</ele>
        <time>2013-03-08T18:42:49Z</time>
      </trkpt>
      <trkpt lat="59.9568759" lon="17.6911933">
        <ele>31.8607</ele>
        <time>2013-03-08T18:42:50Z</time>
      </trkpt>
      <trkpt lat="59.9568842" lon="17.6912198">
        <ele>31.3801</ele>
        <time>2013-03-08T18:42:51Z</time>
      </trkpt>
      <trkpt lat="59.9568926" lon="17.6912463">
        <ele>31.3801</ele>
        <time>2013-03-08T18:42:52Z</time>
      </trkpt>
      <trkpt lat="59.9569005" lon="17.691273">
        <ele>30.8995</ele>
        <time>2013-03-08T18:42:53Z</time>
      </trkpt>
      <trkpt lat="59.9569086" lon="17.691299">
        <ele>30.8995</ele>
        <time>2013-03-08T18:42:54Z</time>
      </trkpt>
      <trkpt lat="59.9569166" lon="17.691326">
        <ele>30.4188</ele>
        <time>2013-03-08T18:42:55Z</time>
      </trkpt>
      <trkpt lat="59.9569251" lon="17.6913527">
        <ele>30.4188</ele>
        <time>2013-03-08T18:42:56Z</time>
      </trkpt>
      <trkpt lat="59.9569331" lon="17.6913793">
        <ele>30.4188</ele>
        <time>2013-03-08T18:42:57Z</time>
      </trkpt>
      <trkpt lat="59.9569404" lon="17.6914063">
        <ele>30.4188</ele>
        <time>2013-03-08T18:42:58Z</time>
      </trkpt>
      <trkpt lat="59.9569474" lon="17.6914336">
        <ele>30.4188</ele>
        <time>2013-03-08T18:42:59Z</time>
      </trkpt>
      <trkpt lat="59.9569544" lon="17.6914606">
        <ele>29.9381</ele>
        <time>2013-03-08T18:43:00Z</time>
      </trkpt>
      <trkpt lat="59.9569621" lon="17.6914867">
        <ele>29.9381</ele>
        <time>2013-03-08T18:43:01Z</time>
      </trkpt>
      <trkpt lat="59.9569699" lon="17.6915119">
        <ele>29.9381</ele>
        <time>2013-03-08T18:43:02Z</time>
      </trkpt>
      <trkpt lat="59.9569783" lon="17.6915371">
        <ele>29.9381</ele>
        <time>2013-03-08T18:43:03Z</time>
      </trkpt>
      <trkpt lat="59.9569868" lon="17.6915622">
        <ele>29.4575</ele>
        <time>2013-03-08T18:43:04Z</time>
      </trkpt>
      <trkpt lat="59.9569946" lon="17.6915874">
        <ele>29.4575</ele>
        <time>2013-03-08T18:43:05Z</time>
      </trkpt>
      <trkpt lat="59.957002" lon="17.6916126">
        <ele>29.4575</ele>
        <time>2013-03-08T18:43:06Z</time>
      </trkpt>
      <trkpt lat="59.9570096" lon="17.6916376">
        <ele>29.4575</ele>
        <time>2013-03-08T18:43:07Z</time>
      </trkpt>
      <trkpt lat="59.9570173" lon="17.691662">
        <ele>28.9769</ele>
        <time>2013-03-08T18:43:08Z</time>
      </trkpt>
      <trkpt lat="59.9570251" lon="17.6916868">
        <ele>28.9769</ele>
        <time>2013-03-08T18:43:09Z</time>
      </trkpt>
      <trkpt lat="59.9570323" lon="17.6917133">
        <ele>28.9769</ele>
        <time>2013-03-08T18:43:10Z</time>
      </trkpt>
      <trkpt lat="59.9570394" lon="17.6917397">
        <ele>28.9769</ele>
        <time>2013-03-08T18:43:11Z</time>
      </trkpt>
      <trkpt lat="59.9570466" lon="17.6917656">
        <ele>28.9769</ele>
        <time>2013-03-08T18:43:12Z</time>
      </trkpt>
      <trkpt lat="59.9570541" lon="17.6917896">
        <ele>28.9769</ele>
        <time>2013-03-08T18:43:13Z</time>
      </trkpt>
      <trkpt lat="59.9570617" lon="17.6918158">
        <ele>28.9769</ele>
        <time>2013-03-08T18:43:14Z</time>
      </trkpt>
      <trkpt lat="59.9570686" lon="17.691844">
        <ele>28.9769</ele>
        <time>2013-03-08T18:43:15Z</time>
      </trkpt>
      <trkpt lat="59.9570761" lon="17.691869">
        <ele>28.4962</ele>
        <time>2013-03-08T18:43:16Z</time>
      </trkpt>
      <trkpt lat="59.9570844" lon="17.6918931">
        <ele>28.4962</ele>
        <time>2013-03-08T18:43:17Z</time>
      </trkpt>
      <trkpt lat="59.9570929" lon="17.6919174">
        <ele>28.4962</ele>
        <time>2013-03-08T18:43:18Z</time>
      </trkpt>
      <trkpt lat="59.9571009" lon="17.6919424">
        <ele>28.4962</ele>
        <time>2013-03-08T18:43:19Z</time>
      </trkpt>
      <trkpt lat="59.9571088" lon="17.6919673">
        <ele>28.4962</ele>
        <time>2013-03-08T18:43:20Z</time>
      </trkpt>
      <trkpt lat="59.957117" lon="17.691993">
        <ele>28.4962</ele>
        <time>2013-03-08T18:43:21Z</time>
      </trkpt>
      <trkpt lat="59.957124" lon="17.6920206">
        <ele>28.4962</ele>
        <time>2013-03-08T18:43:22Z</time>
      </trkpt>
      <trkpt lat="59.9571313" lon="17.6920469">
        <ele>28.4962</ele>
        <time>2013-03-08T18:43:23Z</time>
      </trkpt>
      <trkpt lat="59.9571402" lon="17.6920673">
        <ele>28.4962</ele>
        <time>2013-03-08T18:43:24Z</time>
      </trkpt>
      <trkpt lat="59.9571486" lon="17.6920886">
        <ele>28.0155</ele>
        <time>2013-03-08T18:43:25Z</time>
      </trkpt>
      <trkpt lat="59.9571557" lon="17.6921159">
        <ele>28.0155</ele>
        <time>2013-03-08T18:43:26Z</time>
      </trkpt>
      <trkpt lat="59.9571624" lon="17.692142">
        <ele>28.0155</ele>
        <time>2013-03-08T18:43:27Z</time>
      </trkpt>
      <trkpt lat="59.9571693" lon="17.6921657">
        <ele>27.5349</ele>
        <time>2013-03-08T18:43:28Z</time>
      </trkpt>
      <trkpt lat="59.9571791" lon="17.6921852">
        <ele>28.0155</ele>
        <time>2013-03-08T18:43:29Z</time>
      </trkpt>
      <trkpt lat="59.9571881" lon="17.6922046">
        <ele>28.0155</ele>
        <time>2013-03-08T18:43:30Z</time>
      </trkpt>
      <trkpt lat="59.9571972" lon="17.6922264">
        <ele>28.0155</ele>
        <time>2013-03-08T18:43:31Z</time>
      </trkpt>
      <trkpt lat="59.9572056" lon="17.6922491">
        <ele>27.5349</ele>
        <time>2013-03-08T18:43:32Z</time>
      </trkpt>
      <trkpt lat="59.9572138" lon="17.6922709">
        <ele>27.5349</ele>
        <time>2013-03-08T18:43:33Z</time>
      </trkpt>
      <trkpt lat="59.9572236" lon="17.6922922">
        <ele>28.0155</ele>
        <time>2013-03-08T18:43:34Z</time>
      </trkpt>
      <trkpt lat="59.9572335" lon="17.6923147">
        <ele>28.0155</ele>
        <time>2013-03-08T18:43:35Z</time>
      </trkpt>
      <trkpt lat="59.9572452" lon="17.6923375">
        <ele>28.4962</ele>
        <time>2013-03-08T18:43:36Z</time>
      </trkpt>
      <trkpt lat="59.9572557" lon="17.6923609">
        <ele>28.9769</ele>
        <time>2013-03-08T18:43:37Z</time>
      </trkpt>
      <trkpt lat="59.9572651" lon="17.6923852">
        <ele>28.9769</ele>
        <time>2013-03-08T18:43:38Z</time>
      </trkpt>
      <trkpt lat="59.9572765" lon="17.6924081">
        <ele>29.4575</ele>
        <time>2013-03-08T18:43:39Z</time>
      </trkpt>
      <trkpt lat="59.957288" lon="17.6924299">
        <ele>29.9381</ele>
        <time>2013-03-08T18:43:40Z</time>
      </trkpt>
      <trkpt lat="59.9572981" lon="17.6924527">
        <ele>29.9381</ele>
        <time>2013-03-08T18:43:41Z</time>
      </trkpt>
      <trkpt lat="59.9573071" lon="17.692476">
        <ele>29.9381</ele>
        <time>2013-03-08T18:43:42Z</time>
      </trkpt>
      <trkpt lat="59.9573181" lon="17.6924977">
        <ele>29.9381</ele>
        <time>2013-03-08T18:43:43Z</time>
      </trkpt>
      <trkpt lat="59.9573288" lon="17.692522">
        <ele>29.9381</ele>
        <time>2013-03-08T18:43:44Z</time>
      </trkpt>
      <trkpt lat="59.9573377" lon="17.6925465">
        <ele>29.9381</ele>
        <time>2013-03-08T18:43:45Z</time>
      </trkpt>
      <trkpt lat="59.957347" lon="17.6925712">
        <ele>29.9381</ele>
        <time>2013-03-08T18:43:46Z</time>
      </trkpt>
      <trkpt lat="59.9573563" lon="17.6925961">
        <ele>30.4188</ele>
        <time>2013-03-08T18:43:47Z</time>
      </trkpt>
      <trkpt lat="59.9573657" lon="17.6926213">
        <ele>30.4188</ele>
        <time>2013-03-08T18:43:48Z</time>
      </trkpt>
      <trkpt lat="59.9573782" lon="17.6926431">
        <ele>30.8995</ele>
        <time>2013-03-08T18:43:49Z</time>
      </trkpt>
      <trkpt lat="59.957391" lon="17.6926661">
        <ele>30.8995</ele>
        <time>2013-03-08T18:43:50Z</time>
      </trkpt>
      <trkpt lat="59.9573994" lon="17.6926915">
        <ele>31.3801</ele>
        <time>2013-03-08T18:43:51Z</time>
      </trkpt>
      <trkpt lat="59.9574091" lon="17.6927163">
        <ele>31.3801</ele>
        <time>2013-03-08T18:43:52Z</time>
      </trkpt>
      <trkpt lat="59.9574186" lon="17.692741">
        <ele>31.8607</ele>
        <time>2013-03-08T18:43:53Z</time>
      </trkpt>
      <trkpt lat="59.9574284" lon="17.6927646">
        <ele>31.8607</ele>
        <time>2013-03-08T18:43:54Z</time>
      </trkpt>
      <trkpt lat="59.9574387" lon="17.6927876">
        <ele>31.8607</ele>
        <time>2013-03-08T18:43:55Z</time>
      </trkpt>
      <trkpt lat="59.9574484" lon="17.6928106">
        <ele>31.8607</ele>
        <time>2013-03-08T18:43:56Z</time>
      </trkpt>
      <trkpt lat="59.9574578" lon="17.6928351">
        <ele>31.8607</ele>
        <time>2013-03-08T18:43:57Z</time>
      </trkpt>
      <trkpt lat="59.9574677" lon="17.6928603">
        <ele>31.8607</ele>
        <time>2013-03-08T18:43:58Z</time>
      </trkpt>
      <trkpt lat="59.9574791" lon="17.6928839">
        <ele>31.8607</ele>
        <time>2013-03-08T18:43:59Z</time>
      </trkpt>
      <trkpt lat="59.9574885" lon="17.6929054">
        <ele>31.8607</ele>
        <time>2013-03-08T18:44:00Z</time>
      </trkpt>
      <trkpt lat="59.9574992" lon="17.6929276">
        <ele>32.3416</ele>
        <time>2013-03-08T18:44:01Z</time>
      </trkpt>
      <trkpt lat="59.957512" lon="17.6929501">
        <ele>32.3416</ele>
        <time>2013-03-08T18:44:02Z</time>
      </trkpt>
      <trkpt lat="59.957521" lon="17.6929725">
        <ele>32.8223</ele>
        <time>2013-03-08T18:44:03Z</time>
      </trkpt>
      <trkpt lat="59.9575282" lon="17.692996">
        <ele>32.8223</ele>
        <time>2013-03-08T18:44:04Z</time>
      </trkpt>
      <trkpt lat="59.957536" lon="17.6930215">
        <ele>32.8223</ele>
        <time>2013-03-08T18:44:05Z</time>
      </trkpt>
      <trkpt lat="59.9575455" lon="17.6930478">
        <ele>33.3029</ele>
        <time>2013-03-08T18:44:06Z</time>
      </trkpt>
      <trkpt lat="59.957555" lon="17.6930728">
        <ele>33.3029</ele>
        <time>2013-03-08T18:44:07Z</time>
      </trkpt>
      <trkpt lat="59.957565" lon="17.6930979">
        <ele>33.3029</ele>
        <time>2013-03-08T18:44:08Z</time>
      </trkpt>
      <trkpt lat="59.9575754" lon="17.6931229">
        <ele>33.7834</ele>
        <time>2013-03-08T18:44:09Z</time>
      </trkpt>
      <trkpt lat="59.9575835" lon="17.6931478">
        <ele>33.3029</ele>
        <time>2013-03-08T18:44:10Z</time>
      </trkpt>
      <trkpt lat="59.957592" lon="17.6931721">
        <ele>33.3029</ele>
        <time>2013-03-08T18:44:11Z</time>
      </trkpt>
      <trkpt lat="59.9575986" lon="17.6931956">
        <ele>33.3029</ele>
        <time>2013-03-08T18:44:12Z</time>
      </trkpt>
      <trkpt lat="59.9576049" lon="17.6932215">
        <ele>32.8223</ele>
        <time>2013-03-08T18:44:13Z</time>
      </trkpt>
      <trkpt lat="59.9576115" lon="17.6932487">
        <ele>32.8223</ele>
        <time>2013-03-08T18:44:14Z</time>
      </trkpt>
      <trkpt lat="59.9576189" lon="17.6932736">
        <ele>32.3416</ele>
        <time>2013-03-08T18:44:15Z</time>
      </trkpt>
      <trkpt lat="59.9576283" lon="17.693299">
        <ele>32.3416</ele>
        <time>2013-03-08T18:44:16Z</time>
      </trkpt>
      <trkpt lat="59.9576377" lon="17.6933241">
        <ele>31.8607</ele>
        <time>2013-03-08T18:44:17Z</time>
      </trkpt>
      <trkpt lat="59.9576464" lon="17.6933489">
        <ele>31.8607</ele>
        <time>2013-03-08T18:44:18Z</time>
      </trkpt>
      <trkpt lat="59.9576556" lon="17.6933731">
        <ele>31.8607</ele>
        <time>2013-03-08T18:44:19Z</time>
      </trkpt>
      <trkpt lat="59.957666" lon="17.6933958">
        <ele>32.3416</ele>
        <time>2013-03-08T18:44:20Z</time>
      </trkpt>
      <trkpt lat="59.9576748" lon="17.6934187">
        <ele>31.8607</ele>
        <time>2013-03-08T18:44:21Z</time>
      </trkpt>
      <trkpt lat="59.9576822" lon="17.6934426">
        <ele>31.8607</ele>
        <time>2013-03-08T18:44:22Z</time>
      </trkpt>
      <trkpt lat="59.9576892" lon="17.6934662">
        <ele>31.8607</ele>
        <time>2013-03-08T18:44:23Z</time>
      </trkpt>
      <trkpt lat="59.9576986" lon="17.6934907">
        <ele>31.3801</ele>
        <time>2013-03-08T18:44:24Z</time>
      </trkpt>
      <trkpt lat="59.957708" lon="17.6935159">
        <ele>31.3801</ele>
        <time>2013-03-08T18:44:25Z</time>
      </trkpt>
      <trkpt lat="59.9577161" lon="17.6935401">
        <ele>31.8607</ele>
        <time>2013-03-08T18:44:26Z</time>
      </trkpt>
      <trkpt lat="59.9577236" lon="17.6935638">
        <ele>31.8607</ele>
        <time>2013-03-08T18:44:27Z</time>
      </trkpt>
      <trkpt lat="59.9577304" lon="17.6935874">
        <ele>31.8607</ele>
        <time>2013-03-08T18:44:28Z</time>
      </trkpt>
      <trkpt lat="59.9577374" lon="17.6936115">
        <ele>31.3801</ele>
        <time>2013-03-08T18:44:29Z</time>
      </trkpt>
      <trkpt lat="59.9577453" lon="17.6936349">
        <ele>31.3801</ele>
        <time>2013-03-08T18:44:30Z</time>
      </trkpt>
      <trkpt lat="59.9577545" lon="17.69366">
        <ele>31.3801</ele>
        <time>2013-03-08T18:44:31Z</time>
      </trkpt>
      <trkpt lat="59.9577627" lon="17.6936856">
        <ele>31.3801</ele>
        <time>2013-03-08T18:44:32Z</time>
      </trkpt>
      <trkpt lat="59.9577705" lon="17.693711">
        <ele>31.3801</ele>
        <time>2013-03-08T18:44:33Z</time>
      </trkpt>
      <trkpt lat="59.9577795" lon="17.6937354">
        <ele>31.3801</ele>
        <time>2013-03-08T18:44:34Z</time>
      </trkpt>
      <trkpt lat="59.9577878" lon="17.6937595">
        <ele>31.3801</ele>
        <time>2013-03-08T18:44:35Z</time>
      </trkpt>
      <trkpt lat="59.9577966" lon="17.6937828">
        <ele>31.3801</ele>
        <time>2013-03-08T18:44:36Z</time>
      </trkpt>
      <trkpt lat="59.9578064" lon="17.6938057">
        <ele>31.3801</ele>
        <time>2013-03-08T18:44:37Z</time>
      </trkpt>
      <trkpt lat="59.9578146" lon="17.6938291">
        <ele>31.3801</ele>
        <time>2013-03-08T18:44:38Z</time>
      </trkpt>
      <trkpt lat="59.9578219" lon="17.6938528">
        <ele>31.3801</ele>
        <time>2013-03-08T18:44:39Z</time>
      </trkpt>
      <trkpt lat="59.9578298" lon="17.6938768">
        <ele>31.3801</ele>
        <time>2013-03-08T18:44:40Z</time>
      </trkpt>
      <trkpt lat="59.957837" lon="17.6939009">
        <ele>30.8995</ele>
        <time>2013-03-08T18:44:41Z</time>
      </trkpt>
      <trkpt lat="59.9578437" lon="17.6939238">
        <ele>30.8995</ele>
        <time>2013-03-08T18:44:42Z</time>
      </trkpt>
      <trkpt lat="59.9578513" lon="17.6939466">
        <ele>30.4188</ele>
        <time>2013-03-08T18:44:43Z</time>
      </trkpt>
      <trkpt lat="59.9578587" lon="17.6939712">
        <ele>30.4188</ele>
        <time>2013-03-08T18:44:44Z</time>
      </trkpt>
      <trkpt lat="59.9578654" lon="17.6939968">
        <ele>30.4188</ele>
        <time>2013-03-08T18:44:45Z</time>
      </trkpt>
      <trkpt lat="59.9578731" lon="17.6940228">
        <ele>30.4188</ele>
        <time>2013-03-08T18:44:46Z</time>
      </trkpt>
      <trkpt lat="59.9578804" lon="17.6940482">
        <ele>30.4188</ele>
        <time>2013-03-08T18:44:47Z</time>
      </trkpt>
      <trkpt lat="59.9578866" lon="17.6940731">
        <ele>29.9381</ele>
        <time>2013-03-08T18:44:48Z</time>
      </trkpt>
      <trkpt lat="59.957895" lon="17.6940959">
        <ele>29.9381</ele>
        <time>2013-03-08T18:44:49Z</time>
      </trkpt>
      <trkpt lat="59.9579039" lon="17.6941181">
        <ele>29.4575</ele>
        <time>2013-03-08T18:44:50Z</time>
      </trkpt>
      <trkpt lat="59.9579106" lon="17.6941467">
        <ele>29.4575</ele>
        <time>2013-03-08T18:44:51Z</time>
      </trkpt>
      <trkpt lat="59.9579142" lon="17.6941764">
        <ele>29.4575</ele>
        <time>2013-03-08T18:44:52Z</time>
      </trkpt>
      <trkpt lat="59.9579226" lon="17.6941999">
        <ele>28.9769</ele>
        <time>2013-03-08T18:44:53Z</time>
      </trkpt>
      <trkpt lat="59.957934" lon="17.694216">
        <ele>29.4575</ele>
        <time>2013-03-08T18:44:54Z</time>
      </trkpt>
      <trkpt lat="59.9579442" lon="17.6942318">
        <ele>28.9769</ele>
        <time>2013-03-08T18:44:55Z</time>
      </trkpt>
      <trkpt lat="59.9579525" lon="17.694253">
        <ele>28.9769</ele>
        <time>2013-03-08T18:44:56Z</time>
      </trkpt>
      <trkpt lat="59.9579603" lon="17.694276">
        <ele>28.4962</ele>
        <time>2013-03-08T18:44:57Z</time>
      </trkpt>
      <trkpt lat="59.9579713" lon="17.6942972">
        <ele>28.4962</ele>
        <time>2013-03-08T18:44:58Z</time>
      </trkpt>
      <trkpt lat="59.95798" lon="17.6943219">
        <ele>28.0155</ele>
        <time>2013-03-08T18:44:59Z</time>
      </trkpt>
      <trkpt lat="59.9579889" lon="17.6943506">
        <ele>27.5349</ele>
        <time>2013-03-08T18:45:00Z</time>
      </trkpt>
      <trkpt lat="59.9579975" lon="17.6943777">
        <ele>27.5349</ele>
        <time>2013-03-08T18:45:01Z</time>
      </trkpt>
      <trkpt lat="59.9580038" lon="17.6944023">
        <ele>27.0543</ele>
        <time>2013-03-08T18:45:02Z</time>
      </trkpt>
      <trkpt lat="59.9580109" lon="17.6944251">
        <ele>27.0543</ele>
        <time>2013-03-08T18:45:03Z</time>
      </trkpt>
      <trkpt lat="59.9580203" lon="17.6944465">
        <ele>27.0543</ele>
        <time>2013-03-08T18:45:04Z</time>
      </trkpt>
      <trkpt lat="59.9580287" lon="17.6944677">
        <ele>26.5736</ele>
        <time>2013-03-08T18:45:05Z</time>
      </trkpt>
      <trkpt lat="59.958039" lon="17.6944918">
        <ele>26.5736</ele>
        <time>2013-03-08T18:45:06Z</time>
      </trkpt>
      <trkpt lat="59.9580483" lon="17.6945158">
        <ele>26.5736</ele>
        <time>2013-03-08T18:45:07Z</time>
      </trkpt>
      <trkpt lat="59.9580561" lon="17.6945385">
        <ele>26.0929</ele>
        <time>2013-03-08T18:45:08Z</time>
      </trkpt>
      <trkpt lat="59.9580648" lon="17.6945604">
        <ele>25.6123</ele>
        <time>2013-03-08T18:45:09Z</time>
      </trkpt>
      <trkpt lat="59.9580746" lon="17.6945822">
        <ele>25.1317</ele>
        <time>2013-03-08T18:45:10Z</time>
      </trkpt>
      <trkpt lat="59.958081" lon="17.6946051">
        <ele>24.651</ele>
        <time>2013-03-08T18:45:11Z</time>
      </trkpt>
      <trkpt lat="59.9580899" lon="17.6946271">
        <ele>24.651</ele>
        <time>2013-03-08T18:45:12Z</time>
      </trkpt>
      <trkpt lat="59.9581012" lon="17.6946519">
        <ele>24.1703</ele>
        <time>2013-03-08T18:45:13Z</time>
      </trkpt>
      <trkpt lat="59.9581108" lon="17.6946781">
        <ele>24.1703</ele>
        <time>2013-03-08T18:45:14Z</time>
      </trkpt>
      <trkpt lat="59.9581224" lon="17.6947027">
        <ele>24.1703</ele>
        <time>2013-03-08T18:45:15Z</time>
      </trkpt>
      <trkpt lat="59.9581343" lon="17.6947275">
        <ele>23.6896</ele>
        <time>2013-03-08T18:45:16Z</time>
      </trkpt>
      <trkpt lat="59.9581427" lon="17.6947531">
        <ele>24.1703</ele>
        <time>2013-03-08T18:45:17Z</time>
      </trkpt>
      <trkpt lat="59.9581505" lon="17.6947783">
        <ele>24.1703</ele>
        <time>2013-03-08T18:45:18Z</time>
      </trkpt>
      <trkpt lat="59.9581597" lon="17.6948023">
        <ele>24.651</ele>
        <time>2013-03-08T18:45:19Z</time>
      </trkpt>
      <trkpt lat="59.9581705" lon="17.6948271">
        <ele>25.1317</ele>
        <time>2013-03-08T18:45:20Z</time>
      </trkpt>
      <trkpt lat="59.9581831" lon="17.6948513">
        <ele>25.6123</ele>
        <time>2013-03-08T18:45:21Z</time>
      </trkpt>
      <trkpt lat="59.958196" lon="17.6948748">
        <ele>26.5736</ele>
        <time>2013-03-08T18:45:22Z</time>
      </trkpt>
      <trkpt lat="59.9582075" lon="17.6948971">
        <ele>26.5736</ele>
        <time>2013-03-08T18:45:23Z</time>
      </trkpt>
      <trkpt lat="59.9582168" lon="17.6949209">
        <ele>27.0543</ele>
        <time>2013-03-08T18:45:24Z</time>
      </trkpt>
      <trkpt lat="59.9582251" lon="17.6949453">
        <ele>27.0543</ele>
        <time>2013-03-08T18:45:25Z</time>
      </trkpt>
      <trkpt lat="59.9582333" lon="17.6949706">
        <ele>27.5349</ele>
        <time>2013-03-08T18:45:26Z</time>
      </trkpt>
      <trkpt lat="59.9582415" lon="17.6949941">
        <ele>27.5349</ele>
        <time>2013-03-08T18:45:27Z</time>
      </trkpt>
      <trkpt lat="59.9582518" lon="17.6950173">
        <ele>28.0155</ele>
        <time>2013-03-08T18:45:28Z</time>
      </trkpt>
      <trkpt lat="59.9582619" lon="17.6950446">
        <ele>28.0155</ele>
        <time>2013-03-08T18:45:29Z</time>
      </trkpt>
      <trkpt lat="59.9582686" lon="17.6950716">
        <ele>28.0155</ele>
        <time>2013-03-08T18:45:30Z</time>
      </trkpt>
      <trkpt lat="59.9582761" lon="17.6950941">
        <ele>28.0155</ele>
        <time>2013-03-08T18:45:31Z</time>
      </trkpt>
      <trkpt lat="59.9582833" lon="17.6951169">
        <ele>28.0155</ele>
        <time>2013-03-08T18:45:32Z</time>
      </trkpt>
      <trkpt lat="59.9582896" lon="17.6951407">
        <ele>28.0155</ele>
        <time>2013-03-08T18:45:33Z</time>
      </trkpt>
      <trkpt lat="59.958297" lon="17.6951637">
        <ele>28.0155</ele>
        <time>2013-03-08T18:45:34Z</time>
      </trkpt>
      <trkpt lat="59.9583033" lon="17.6951857">
        <ele>27.5349</ele>
        <time>2013-03-08T18:45:35Z</time>
      </trkpt>
      <trkpt lat="59.9583106" lon="17.6952094">
        <ele>27.5349</ele>
        <time>2013-03-08T18:45:36Z</time>
      </trkpt>
      <trkpt lat="59.9583185" lon="17.695231">
        <ele>27.5349</ele>
        <time>2013-03-08T18:45:37Z</time>
      </trkpt>
      <trkpt lat="59.9583269" lon="17.6952534">
        <ele>27.5349</ele>
        <time>2013-03-08T18:45:38Z</time>
      </trkpt>
      <trkpt lat="59.9583349" lon="17.6952774">
        <ele>27.0543</ele>
        <time>2013-03-08T18:45:39Z</time>
      </trkpt>
      <trkpt lat="59.958344" lon="17.6953008">
        <ele>27.0543</ele>
        <time>2013-03-08T18:45:40Z</time>
      </trkpt>
      <trkpt lat="59.9583538" lon="17.6953245">
        <ele>27.5349</ele>
        <time>2013-03-08T18:45:41Z</time>
      </trkpt>
      <trkpt lat="59.9583622" lon="17.6953478">
        <ele>27.0543</ele>
        <time>2013-03-08T18:45:42Z</time>
      </trkpt>
      <trkpt lat="59.9583702" lon="17.6953711">
        <ele>27.0543</ele>
        <time>2013-03-08T18:45:43Z</time>
      </trkpt>
      <trkpt lat="59.9583792" lon="17.695395">
        <ele>27.0543</ele>
        <time>2013-03-08T18:45:44Z</time>
      </trkpt>
      <trkpt lat="59.9583872" lon="17.6954191">
        <ele>26.5736</ele>
        <time>2013-03-08T18:45:45Z</time>
      </trkpt>
      <trkpt lat="59.9583944" lon="17.6954426">
        <ele>26.5736</ele>
        <time>2013-03-08T18:45:46Z</time>
      </trkpt>
      <trkpt lat="59.9584022" lon="17.6954659">
        <ele>26.5736</ele>
        <time>2013-03-08T18:45:47Z</time>
      </trkpt>
      <trkpt lat="59.9584098" lon="17.6954904">
        <ele>26.5736</ele>
        <time>2013-03-08T18:45:48Z</time>
      </trkpt>
      <trkpt lat="59.9584168" lon="17.6955158">
        <ele>26.5736</ele>
        <time>2013-03-08T18:45:49Z</time>
      </trkpt>
      <trkpt lat="59.9584234" lon="17.6955421">
        <ele>26.0929</ele>
        <time>2013-03-08T18:45:50Z</time>
      </trkpt>
      <trkpt lat="59.9584306" lon="17.6955693">
        <ele>26.0929</ele>
        <time>2013-03-08T18:45:51Z</time>
      </trkpt>
      <trkpt lat="59.9584383" lon="17.695596">
        <ele>26.0929</ele>
        <time>2013-03-08T18:45:52Z</time>
      </trkpt>
      <trkpt lat="59.9584466" lon="17.6956224">
        <ele>26.0929</ele>
        <time>2013-03-08T18:45:53Z</time>
      </trkpt>
      <trkpt lat="59.9584558" lon="17.6956482">
        <ele>26.0929</ele>
        <time>2013-03-08T18:45:54Z</time>
      </trkpt>
      <trkpt lat="59.9584648" lon="17.695674">
        <ele>26.0929</ele>
        <time>2013-03-08T18:45:55Z</time>
      </trkpt>
      <trkpt lat="59.9584732" lon="17.6957004">
        <ele>26.5736</ele>
        <time>2013-03-08T18:45:56Z</time>
      </trkpt>
      <trkpt lat="59.9584819" lon="17.695726">
        <ele>26.5736</ele>
        <time>2013-03-08T18:45:57Z</time>
      </trkpt>
      <trkpt lat="59.9584913" lon="17.6957501">
        <ele>26.5736</ele>
        <time>2013-03-08T18:45:58Z</time>
      </trkpt>
      <trkpt lat="59.9585011" lon="17.6957742">
        <ele>26.5736</ele>
        <time>2013-03-08T18:45:59Z</time>
      </trkpt>
      <trkpt lat="59.9585109" lon="17.6957984">
        <ele>27.0543</ele>
        <time>2013-03-08T18:46:00Z</time>
      </trkpt>
      <trkpt lat="59.9585201" lon="17.6958223">
        <ele>27.0543</ele>
        <time>2013-03-08T18:46:01Z</time>
      </trkpt>
      <trkpt lat="59.9585291" lon="17.6958467">
        <ele>27.0543</ele>
        <time>2013-03-08T18:46:02Z</time>
      </trkpt>
      <trkpt lat="59.9585371" lon="17.6958705">
        <ele>27.0543</ele>
        <time>2013-03-08T18:46:03Z</time>
      </trkpt>
      <trkpt lat="59.9585454" lon="17.6958941">
        <ele>27.0543</ele>
        <time>2013-03-08T18:46:04Z</time>
      </trkpt>
      <trkpt lat="59.9585542" lon="17.6959177">
        <ele>27.0543</ele>
        <time>2013-03-08T18:46:05Z</time>
      </trkpt>
      <trkpt lat="59.958563" lon="17.6959415">
        <ele>27.0543</ele>
        <time>2013-03-08T18:46:06Z</time>
      </trkpt>
      <trkpt lat="59.9585721" lon="17.6959653">
        <ele>27.5349</ele>
        <time>2013-03-08T18:46:07Z</time>
      </trkpt>
      <trkpt lat="59.958581" lon="17.6959894">
        <ele>27.5349</ele>
        <time>2013-03-08T18:46:08Z</time>
      </trkpt>
      <trkpt lat="59.9585905" lon="17.696013">
        <ele>27.5349</ele>
        <time>2013-03-08T18:46:09Z</time>
      </trkpt>
      <trkpt lat="59.9586" lon="17.6960368">
        <ele>27.5349</ele>
        <time>2013-03-08T18:46:10Z</time>
      </trkpt>
      <trkpt lat="59.9586094" lon="17.6960604">
        <ele>27.5349</ele>
        <time>2013-03-08T18:46:11Z</time>
      </trkpt>
      <trkpt lat="59.9586195" lon="17.6960839">
        <ele>27.5349</ele>
        <time>2013-03-08T18:46:12Z</time>
      </trkpt>
      <trkpt lat="59.9586288" lon="17.6961091">
        <ele>27.5349</ele>
        <time>2013-03-08T18:46:13Z</time>
      </trkpt>
      <trkpt lat="59.9586368" lon="17.6961343">
        <ele>27.5349</ele>
        <time>2013-03-08T18:46:14Z</time>
      </trkpt>
      <trkpt lat="59.9586452" lon="17.6961586">
        <ele>27.5349</ele>
        <time>2013-03-08T18:46:15Z</time>
      </trkpt>
      <trkpt lat="59.9586537" lon="17.6961823">
        <ele>27.5349</ele>
        <time>2013-03-08T18:46:16Z</time>
      </trkpt>
      <trkpt lat="59.9586622" lon="17.6962065">
        <ele>27.5349</ele>
        <time>2013-03-08T18:46:17Z</time>
      </trkpt>
      <trkpt lat="59.9586711" lon="17.696231">
        <ele>27.5349</ele>
        <time>2013-03-08T18:46:18Z</time>
      </trkpt>
      <trkpt lat="59.9586799" lon="17.6962559">
        <ele>27.5349</ele>
        <time>2013-03-08T18:46:19Z</time>
      </trkpt>
      <trkpt lat="59.9586891" lon="17.6962807">
        <ele>27.5349</ele>
        <time>2013-03-08T18:46:20Z</time>
      </trkpt>
      <trkpt lat="59.9586979" lon="17.6963056">
        <ele>27.5349</ele>
        <time>2013-03-08T18:46:21Z</time>
      </trkpt>
      <trkpt lat="59.9587065" lon="17.6963305">
        <ele>27.5349</ele>
        <time>2013-03-08T18:46:22Z</time>
      </trkpt>
      <trkpt lat="59.9587146" lon="17.6963556">
        <ele>27.5349</ele>
        <time>2013-03-08T18:46:23Z</time>
      </trkpt>
      <trkpt lat="59.9587227" lon="17.6963812">
        <ele>27.5349</ele>
        <time>2013-03-08T18:46:24Z</time>
      </trkpt>
      <trkpt lat="59.9587305" lon="17.6964069">
        <ele>27.5349</ele>
        <time>2013-03-08T18:46:25Z</time>
      </trkpt>
      <trkpt lat="59.9587378" lon="17.6964323">
        <ele>27.0543</ele>
        <time>2013-03-08T18:46:26Z</time>
      </trkpt>
      <trkpt lat="59.9587456" lon="17.6964582">
        <ele>27.0543</ele>
        <time>2013-03-08T18:46:27Z</time>
      </trkpt>
      <trkpt lat="59.9587527" lon="17.6964847">
        <ele>27.0543</ele>
        <time>2013-03-08T18:46:28Z</time>
      </trkpt>
      <trkpt lat="59.9587596" lon="17.6965113">
        <ele>27.0543</ele>
        <time>2013-03-08T18:46:29Z</time>
      </trkpt>
      <trkpt lat="59.9587666" lon="17.6965387">
        <ele>27.0543</ele>
        <time>2013-03-08T18:46:30Z</time>
      </trkpt>
      <trkpt lat="59.9587735" lon="17.6965657">
        <ele>27.0543</ele>
        <time>2013-03-08T18:46:31Z</time>
      </trkpt>
      <trkpt lat="59.9587808" lon="17.6965917">
        <ele>27.0543</ele>
        <time>2013-03-08T18:46:32Z</time>
      </trkpt>
      <trkpt lat="59.9587882" lon="17.6966183">
        <ele>27.5349</ele>
        <time>2013-03-08T18:46:33Z</time>
      </trkpt>
      <trkpt lat="59.9587953" lon="17.6966453">
        <ele>27.5349</ele>
        <time>2013-03-08T18:46:34Z</time>
      </trkpt>
      <trkpt lat="59.9588017" lon="17.6966727">
        <ele>27.0543</ele>
        <time>2013-03-08T18:46:35Z</time>
      </trkpt>
      <trkpt lat="59.9588078" lon="17.6967001">
        <ele>27.0543</ele>
        <time>2013-03-08T18:46:36Z</time>
      </trkpt>
      <trkpt lat="59.9588141" lon="17.6967273">
        <ele>27.0543</ele>
        <time>2013-03-08T18:46:37Z</time>
      </trkpt>
      <trkpt lat="59.9588207" lon="17.696755">
        <ele>27.0543</ele>
        <time>2013-03-08T18:46:38Z</time>
      </trkpt>
      <trkpt lat="59.9588275" lon="17.6967836">
        <ele>27.0543</ele>
        <time>2013-03-08T18:46:39Z</time>
      </trkpt>
      <trkpt lat="59.958834" lon="17.6968125">
        <ele>27.0543</ele>
        <time>2013-03-08T18:46:40Z</time>
      </trkpt>
      <trkpt lat="59.9588404" lon="17.6968407">
        <ele>27.0543</ele>
        <time>2013-03-08T18:46:41Z</time>
      </trkpt>
      <trkpt lat="59.9588466" lon="17.6968691">
        <ele>27.0543</ele>
        <time>2013-03-08T18:46:42Z</time>
      </trkpt>
      <trkpt lat="59.9588531" lon="17.696898">
        <ele>27.0543</ele>
        <time>2013-03-08T18:46:43Z</time>
      </trkpt>
      <trkpt lat="59.958859" lon="17.6969271">
        <ele>27.0543</ele>
        <time>2013-03-08T18:46:44Z</time>
      </trkpt>
      <trkpt lat="59.9588661" lon="17.6969562">
        <ele>27.0543</ele>
        <time>2013-03-08T18:46:45Z</time>
      </trkpt>
      <trkpt lat="59.9588729" lon="17.6969851">
        <ele>27.0543</ele>
        <time>2013-03-08T18:46:46Z</time>
      </trkpt>
      <trkpt lat="59.9588793" lon="17.6970138">
        <ele>27.0543</ele>
        <time>2013-03-08T18:46:47Z</time>
      </trkpt>
      <trkpt lat="59.9588854" lon="17.6970422">
        <ele>27.0543</ele>
        <time>2013-03-08T18:46:48Z</time>
      </trkpt>
      <trkpt lat="59.9588917" lon="17.6970707">
        <ele>27.5349</ele>
        <time>2013-03-08T18:46:49Z</time>
      </trkpt>
      <trkpt lat="59.9588979" lon="17.697099">
        <ele>27.5349</ele>
        <time>2013-03-08T18:46:50Z</time>
      </trkpt>
      <trkpt lat="59.9589042" lon="17.6971276">
        <ele>27.5349</ele>
        <time>2013-03-08T18:46:51Z</time>
      </trkpt>
      <trkpt lat="59.9589101" lon="17.697157">
        <ele>27.5349</ele>
        <time>2013-03-08T18:46:52Z</time>
      </trkpt>
      <trkpt lat="59.9589156" lon="17.6971871">
        <ele>27.5349</ele>
        <time>2013-03-08T18:46:53Z</time>
      </trkpt>
      <trkpt lat="59.9589208" lon="17.6972171">
        <ele>27.5349</ele>
        <time>2013-03-08T18:46:54Z</time>
      </trkpt>
      <trkpt lat="59.9589259" lon="17.6972459">
        <ele>27.5349</ele>
        <time>2013-03-08T18:46:55Z</time>
      </trkpt>
      <trkpt lat="59.9589314" lon="17.6972744">
        <ele>27.5349</ele>
        <time>2013-03-08T18:46:56Z</time>
      </trkpt>
      <trkpt lat="59.9589368" lon="17.6973038">
        <ele>27.5349</ele>
        <time>2013-03-08T18:46:57Z</time>
      </trkpt>
      <trkpt lat="59.9589426" lon="17.6973331">
        <ele>28.0155</ele>
        <time>2013-03-08T18:46:58Z</time>
      </trkpt>
      <trkpt lat="59.9589482" lon="17.6973622">
        <ele>28.0155</ele>
        <time>2013-03-08T18:46:59Z</time>
      </trkpt>
      <trkpt lat="59.9589536" lon="17.6973919">
        <ele>28.0155</ele>
        <time>2013-03-08T18:47:00Z</time>
      </trkpt>
      <trkpt lat="59.9589585" lon="17.6974217">
        <ele>28.0155</ele>
        <time>2013-03-08T18:47:01Z</time>
      </trkpt>
      <trkpt lat="59.9589627" lon="17.6974518">
        <ele>28.0155</ele>
        <time>2013-03-08T18:47:02Z</time>
      </trkpt>
      <trkpt lat="59.9589671" lon="17.6974818">
        <ele>28.0155</ele>
        <time>2013-03-08T18:47:03Z</time>
      </trkpt>
      <trkpt lat="59.9589713" lon="17.6975111">
        <ele>28.4962</ele>
        <time>2013-03-08T18:47:04Z</time>
      </trkpt>
      <trkpt lat="59.9589751" lon="17.6975406">
        <ele>28.4962</ele>
        <time>2013-03-08T18:47:05Z</time>
      </trkpt>
      <trkpt lat="59.9589792" lon="17.6975701">
        <ele>28.4962</ele>
        <time>2013-03-08T18:47:06Z</time>
      </trkpt>
      <trkpt lat="59.9589832" lon="17.6975991">
        <ele>28.4962</ele>
        <time>2013-03-08T18:47:07Z</time>
      </trkpt>
      <trkpt lat="59.9589871" lon="17.6976282">
        <ele>28.4962</ele>
        <time>2013-03-08T18:47:08Z</time>
      </trkpt>
      <trkpt lat="59.958991" lon="17.6976576">
        <ele>28.9769</ele>
        <time>2013-03-08T18:47:09Z</time>
      </trkpt>
      <trkpt lat="59.9589948" lon="17.6976859">
        <ele>28.9769</ele>
        <time>2013-03-08T18:47:10Z</time>
      </trkpt>
      <trkpt lat="59.9589982" lon="17.6977136">
        <ele>28.9769</ele>
        <time>2013-03-08T18:47:11Z</time>
      </trkpt>
      <trkpt lat="59.9590024" lon="17.6977409">
        <ele>28.9769</ele>
        <time>2013-03-08T18:47:12Z</time>
      </trkpt>
      <trkpt lat="59.9590075" lon="17.6977685">
        <ele>28.9769</ele>
        <time>2013-03-08T18:47:13Z</time>
      </trkpt>
      <trkpt lat="59.959012" lon="17.6977963">
        <ele>29.4575</ele>
        <time>2013-03-08T18:47:14Z</time>
      </trkpt>
      <trkpt lat="59.9590164" lon="17.6978234">
        <ele>29.4575</ele>
        <time>2013-03-08T18:47:15Z</time>
      </trkpt>
      <trkpt lat="59.9590212" lon="17.6978503">
        <ele>29.4575</ele>
        <time>2013-03-08T18:47:16Z</time>
      </trkpt>
      <trkpt lat="59.9590254" lon="17.6978781">
        <ele>29.9381</ele>
        <time>2013-03-08T18:47:17Z</time>
      </trkpt>
      <trkpt lat="59.9590283" lon="17.6979061">
        <ele>29.9381</ele>
        <time>2013-03-08T18:47:18Z</time>
      </trkpt>
      <trkpt lat="59.9590318" lon="17.6979346">
        <ele>29.9381</ele>
        <time>2013-03-08T18:47:19Z</time>
      </trkpt>
      <trkpt lat="59.9590346" lon="17.6979631">
        <ele>29.9381</ele>
        <time>2013-03-08T18:47:20Z</time>
      </trkpt>
      <trkpt lat="59.9590371" lon="17.6979918">
        <ele>29.9381</ele>
        <time>2013-03-08T18:47:21Z</time>
      </trkpt>
      <trkpt lat="59.9590388" lon="17.6980212">
        <ele>29.9381</ele>
        <time>2013-03-08T18:47:22Z</time>
      </trkpt>
      <trkpt lat="59.9590409" lon="17.6980508">
        <ele>29.9381</ele>
        <time>2013-03-08T18:47:23Z</time>
      </trkpt>
      <trkpt lat="59.9590428" lon="17.6980808">
        <ele>29.9381</ele>
        <time>2013-03-08T18:47:24Z</time>
      </trkpt>
      <trkpt lat="59.959045" lon="17.6981104">
        <ele>30.4188</ele>
        <time>2013-03-08T18:47:25Z</time>
      </trkpt>
      <trkpt lat="59.9590476" lon="17.6981399">
        <ele>30.4188</ele>
        <time>2013-03-08T18:47:26Z</time>
      </trkpt>
      <trkpt lat="59.9590496" lon="17.6981684">
        <ele>30.4188</ele>
        <time>2013-03-08T18:47:27Z</time>
      </trkpt>
      <trkpt lat="59.959051" lon="17.6981967">
        <ele>30.4188</ele>
        <time>2013-03-08T18:47:28Z</time>
      </trkpt>
      <trkpt lat="59.9590517" lon="17.6982254">
        <ele>30.4188</ele>
        <time>2013-03-08T18:47:29Z</time>
      </trkpt>
      <trkpt lat="59.9590518" lon="17.6982542">
        <ele>29.9381</ele>
        <time>2013-03-08T18:47:30Z</time>
      </trkpt>
      <trkpt lat="59.9590519" lon="17.6982829">
        <ele>29.9381</ele>
        <time>2013-03-08T18:47:31Z</time>
      </trkpt>
      <trkpt lat="59.9590519" lon="17.698312">
        <ele>29.9381</ele>
        <time>2013-03-08T18:47:32Z</time>
      </trkpt>
      <trkpt lat="59.9590528" lon="17.6983397">
        <ele>30.4188</ele>
        <time>2013-03-08T18:47:33Z</time>
      </trkpt>
      <trkpt lat="59.9590536" lon="17.6983664">
        <ele>30.4188</ele>
        <time>2013-03-08T18:47:34Z</time>
      </trkpt>
      <trkpt lat="59.9590543" lon="17.6983946">
        <ele>30.4188</ele>
        <time>2013-03-08T18:47:35Z</time>
      </trkpt>
      <trkpt lat="59.9590555" lon="17.6984223">
        <ele>30.4188</ele>
        <time>2013-03-08T18:47:36Z</time>
      </trkpt>
      <trkpt lat="59.9590567" lon="17.6984502">
        <ele>30.4188</ele>
        <time>2013-03-08T18:47:37Z</time>
      </trkpt>
      <trkpt lat="59.959058" lon="17.6984787">
        <ele>30.4188</ele>
        <time>2013-03-08T18:47:38Z</time>
      </trkpt>
      <trkpt lat="59.9590588" lon="17.6985083">
        <ele>30.4188</ele>
        <time>2013-03-08T18:47:39Z</time>
      </trkpt>
      <trkpt lat="59.9590594" lon="17.6985367">
        <ele>30.4188</ele>
        <time>2013-03-08T18:47:40Z</time>
      </trkpt>
      <trkpt lat="59.95906" lon="17.698565">
        <ele>30.4188</ele>
        <time>2013-03-08T18:47:41Z</time>
      </trkpt>
      <trkpt lat="59.9590605" lon="17.6985933">
        <ele>30.4188</ele>
        <time>2013-03-08T18:47:42Z</time>
      </trkpt>
      <trkpt lat="59.95906" lon="17.6986209">
        <ele>30.4188</ele>
        <time>2013-03-08T18:47:43Z</time>
      </trkpt>
      <trkpt lat="59.9590595" lon="17.6986479">
        <ele>30.4188</ele>
        <time>2013-03-08T18:47:44Z</time>
      </trkpt>
      <trkpt lat="59.9590595" lon="17.6986753">
        <ele>30.4188</ele>
        <time>2013-03-08T18:47:45Z</time>
      </trkpt>
      <trkpt lat="59.959062" lon="17.6987038">
        <ele>30.8995</ele>
        <time>2013-03-08T18:47:46Z</time>
      </trkpt>
      <trkpt lat="59.9590626" lon="17.698734">
        <ele>30.8995</ele>
        <time>2013-03-08T18:47:47Z</time>
      </trkpt>
      <trkpt lat="59.9590647" lon="17.6987655">
        <ele>30.8995</ele>
        <time>2013-03-08T18:47:48Z</time>
      </trkpt>
      <trkpt lat="59.9590688" lon="17.6987978">
        <ele>31.8607</ele>
        <time>2013-03-08T18:47:49Z</time>
      </trkpt>
      <trkpt lat="59.9590703" lon="17.6988304">
        <ele>31.8607</ele>
        <time>2013-03-08T18:47:50Z</time>
      </trkpt>
      <trkpt lat="59.9590709" lon="17.6988618">
        <ele>32.3416</ele>
        <time>2013-03-08T18:47:51Z</time>
      </trkpt>
      <trkpt lat="59.959071" lon="17.6988927">
        <ele>32.3416</ele>
        <time>2013-03-08T18:47:52Z</time>
      </trkpt>
      <trkpt lat="59.9590715" lon="17.6989234">
        <ele>32.3416</ele>
        <time>2013-03-08T18:47:53Z</time>
      </trkpt>
      <trkpt lat="59.9590718" lon="17.6989535">
        <ele>32.3416</ele>
        <time>2013-03-08T18:47:54Z</time>
      </trkpt>
      <trkpt lat="59.9590721" lon="17.6989828">
        <ele>32.3416</ele>
        <time>2013-03-08T18:47:55Z</time>
      </trkpt>
      <trkpt lat="59.9590734" lon="17.6990107">
        <ele>32.3416</ele>
        <time>2013-03-08T18:47:56Z</time>
      </trkpt>
      <trkpt lat="59.9590741" lon="17.6990391">
        <ele>31.8607</ele>
        <time>2013-03-08T18:47:57Z</time>
      </trkpt>
      <trkpt lat="59.9590739" lon="17.6990686">
        <ele>31.8607</ele>
        <time>2013-03-08T18:47:58Z</time>
      </trkpt>
      <trkpt lat="59.959074" lon="17.6990985">
        <ele>31.8607</ele>
        <time>2013-03-08T18:47:59Z</time>
      </trkpt>
      <trkpt lat="59.9590741" lon="17.6991284">
        <ele>31.8607</ele>
        <time>2013-03-08T18:48:00Z</time>
      </trkpt>
      <trkpt lat="59.9590746" lon="17.6991583">
        <ele>31.8607</ele>
        <time>2013-03-08T18:48:01Z</time>
      </trkpt>
      <trkpt lat="59.9590751" lon="17.6991868">
        <ele>31.8607</ele>
        <time>2013-03-08T18:48:02Z</time>
      </trkpt>
      <trkpt lat="59.9590764" lon="17.6992158">
        <ele>31.8607</ele>
        <time>2013-03-08T18:48:03Z</time>
      </trkpt>
      <trkpt lat="59.9590767" lon="17.6992453">
        <ele>31.8607</ele>
        <time>2013-03-08T18:48:04Z</time>
      </trkpt>
      <trkpt lat="59.9590775" lon="17.6992753">
        <ele>31.8607</ele>
        <time>2013-03-08T18:48:05Z</time>
      </trkpt>
      <trkpt lat="59.9590781" lon="17.6993052">
        <ele>31.3801</ele>
        <time>2013-03-08T18:48:06Z</time>
      </trkpt>
      <trkpt lat="59.9590791" lon="17.6993339">
        <ele>31.3801</ele>
        <time>2013-03-08T18:48:07Z</time>
      </trkpt>
      <trkpt lat="59.9590811" lon="17.6993629">
        <ele>31.3801</ele>
        <time>2013-03-08T18:48:08Z</time>
      </trkpt>
      <trkpt lat="59.9590829" lon="17.6993933">
        <ele>31.3801</ele>
        <time>2013-03-08T18:48:09Z</time>
      </trkpt>
      <trkpt lat="59.9590844" lon="17.6994239">
        <ele>31.3801</ele>
        <time>2013-03-08T18:48:10Z</time>
      </trkpt>
      <trkpt lat="59.9590858" lon="17.6994537">
        <ele>31.3801</ele>
        <time>2013-03-08T18:48:11Z</time>
      </trkpt>
      <trkpt lat="59.9590875" lon="17.6994831">
        <ele>31.3801</ele>
        <time>2013-03-08T18:48:12Z</time>
      </trkpt>
      <trkpt lat="59.9590895" lon="17.6995127">
        <ele>31.3801</ele>
        <time>2013-03-08T18:48:13Z</time>
      </trkpt>
      <trkpt lat="59.9590916" lon="17.6995424">
        <ele>31.3801</ele>
        <time>2013-03-08T18:48:14Z</time>
      </trkpt>
      <trkpt lat="59.959094" lon="17.6995717">
        <ele>31.3801</ele>
        <time>2013-03-08T18:48:15Z</time>
      </trkpt>
      <trkpt lat="59.9590964" lon="17.6996018">
        <ele>31.3801</ele>
        <time>2013-03-08T18:48:16Z</time>
      </trkpt>
      <trkpt lat="59.9590989" lon="17.6996322">
        <ele>31.3801</ele>
        <time>2013-03-08T18:48:17Z</time>
      </trkpt>
      <trkpt lat="59.9591008" lon="17.6996623">
        <ele>31.3801</ele>
        <time>2013-03-08T18:48:18Z</time>
      </trkpt>
      <trkpt lat="59.9591026" lon="17.6996928">
        <ele>31.3801</ele>
        <time>2013-03-08T18:48:19Z</time>
      </trkpt>
      <trkpt lat="59.9591044" lon="17.6997224">
        <ele>31.3801</ele>
        <time>2013-03-08T18:48:20Z</time>
      </trkpt>
      <trkpt lat="59.959107" lon="17.6997515">
        <ele>31.3801</ele>
        <time>2013-03-08T18:48:21Z</time>
      </trkpt>
      <trkpt lat="59.9591103" lon="17.6997808">
        <ele>31.3801</ele>
        <time>2013-03-08T18:48:22Z</time>
      </trkpt>
      <trkpt lat="59.959113" lon="17.6998104">
        <ele>31.3801</ele>
        <time>2013-03-08T18:48:23Z</time>
      </trkpt>
      <trkpt lat="59.9591159" lon="17.6998405">
        <ele>31.3801</ele>
        <time>2013-03-08T18:48:24Z</time>
      </trkpt>
      <trkpt lat="59.9591186" lon="17.6998701">
        <ele>31.3801</ele>
        <time>2013-03-08T18:48:25Z</time>
      </trkpt>
      <trkpt lat="59.9591213" lon="17.6998991">
        <ele>31.8607</ele>
        <time>2013-03-08T18:48:26Z</time>
      </trkpt>
      <trkpt lat="59.9591243" lon="17.6999286">
        <ele>31.8607</ele>
        <time>2013-03-08T18:48:27Z</time>
      </trkpt>
      <trkpt lat="59.9591268" lon="17.6999571">
        <ele>31.8607</ele>
        <time>2013-03-08T18:48:28Z</time>
      </trkpt>
      <trkpt lat="59.9591292" lon="17.6999851">
        <ele>31.8607</ele>
        <time>2013-03-08T18:48:29Z</time>
      </trkpt>
      <trkpt lat="59.9591311" lon="17.700014">
        <ele>31.8607</ele>
        <time>2013-03-08T18:48:30Z</time>
      </trkpt>
      <trkpt lat="59.9591339" lon="17.7000429">
        <ele>31.8607</ele>
        <time>2013-03-08T18:48:31Z</time>
      </trkpt>
      <trkpt lat="59.9591361" lon="17.7000725">
        <ele>31.8607</ele>
        <time>2013-03-08T18:48:32Z</time>
      </trkpt>
      <trkpt lat="59.9591377" lon="17.700103">
        <ele>32.3416</ele>
        <time>2013-03-08T18:48:33Z</time>
      </trkpt>
      <trkpt lat="59.9591397" lon="17.7001322">
        <ele>32.3416</ele>
        <time>2013-03-08T18:48:34Z</time>
      </trkpt>
      <trkpt lat="59.9591434" lon="17.7001616">
        <ele>32.3416</ele>
        <time>2013-03-08T18:48:35Z</time>
      </trkpt>
      <trkpt lat="59.9591465" lon="17.7001927">
        <ele>32.3416</ele>
        <time>2013-03-08T18:48:36Z</time>
      </trkpt>
      <trkpt lat="59.9591481" lon="17.7002184">
        <ele>32.3416</ele>
        <time>2013-03-08T18:48:37Z</time>
      </trkpt>
      <trkpt lat="59.9591507" lon="17.7002425">
        <ele>32.3416</ele>
        <time>2013-03-08T18:48:38Z</time>
      </trkpt>
      <trkpt lat="59.9591538" lon="17.700271">
        <ele>32.3416</ele>
        <time>2013-03-08T18:48:39Z</time>
      </trkpt>
      <trkpt lat="59.9591536" lon="17.7003">
        <ele>32.3416</ele>
        <time>2013-03-08T18:48:40Z</time>
      </trkpt>
      <trkpt lat="59.9591497" lon="17.700328">
        <ele>32.3416</ele>
        <time>2013-03-08T18:48:41Z</time>
      </trkpt>
      <trkpt lat="59.9591433" lon="17.7003557">
        <ele>32.3416</ele>
        <time>2013-03-08T18:48:42Z</time>
      </trkpt>
      <trkpt lat="59.9591362" lon="17.7003827">
        <ele>32.3416</ele>
        <time>2013-03-08T18:48:43Z</time>
      </trkpt>
      <trkpt lat="59.9591298" lon="17.7004073">
        <ele>32.3416</ele>
        <time>2013-03-08T18:48:44Z</time>
      </trkpt>
      <trkpt lat="59.9591236" lon="17.700432">
        <ele>32.3416</ele>
        <time>2013-03-08T18:48:45Z</time>
      </trkpt>
      <trkpt lat="59.9591171" lon="17.700458">
        <ele>32.3416</ele>
        <time>2013-03-08T18:48:46Z</time>
      </trkpt>
      <trkpt lat="59.9591119" lon="17.7004849">
        <ele>32.3416</ele>
        <time>2013-03-08T18:48:47Z</time>
      </trkpt>
      <trkpt lat="59.9591101" lon="17.7005108">
        <ele>32.8223</ele>
        <time>2013-03-08T18:48:48Z</time>
      </trkpt>
      <trkpt lat="59.9591111" lon="17.7005382">
        <ele>32.8223</ele>
        <time>2013-03-08T18:48:49Z</time>
      </trkpt>
      <trkpt lat="59.9591122" lon="17.7005686">
        <ele>33.3029</ele>
        <time>2013-03-08T18:48:50Z</time>
      </trkpt>
      <trkpt lat="59.9591139" lon="17.7005978">
        <ele>33.3029</ele>
        <time>2013-03-08T18:48:51Z</time>
      </trkpt>
      <trkpt lat="59.9591165" lon="17.7006246">
        <ele>33.3029</ele>
        <time>2013-03-08T18:48:52Z</time>
      </trkpt>
      <trkpt lat="59.95912" lon="17.7006501">
        <ele>33.3029</ele>
        <time>2013-03-08T18:48:53Z</time>
      </trkpt>
      <trkpt lat="59.9591238" lon="17.700676">
        <ele>33.3029</ele>
        <time>2013-03-08T18:48:54Z</time>
      </trkpt>
      <trkpt lat="59.9591292" lon="17.7007046">
        <ele>33.3029</ele>
        <time>2013-03-08T18:48:55Z</time>
      </trkpt>
      <trkpt lat="59.9591335" lon="17.7007332">
        <ele>33.3029</ele>
        <time>2013-03-08T18:48:56Z</time>
      </trkpt>
      <trkpt lat="59.9591366" lon="17.7007631">
        <ele>33.3029</ele>
        <time>2013-03-08T18:48:57Z</time>
      </trkpt>
      <trkpt lat="59.9591365" lon="17.7007893">
        <ele>33.3029</ele>
        <time>2013-03-08T18:48:58Z</time>
      </trkpt>
      <trkpt lat="59.9591368" lon="17.7008133">
        <ele>32.8223</ele>
        <time>2013-03-08T18:48:59Z</time>
      </trkpt>
      <trkpt lat="59.9591378" lon="17.7008386">
        <ele>32.8223</ele>
        <time>2013-03-08T18:49:00Z</time>
      </trkpt>
      <trkpt lat="59.9591408" lon="17.7008672">
        <ele>32.8223</ele>
        <time>2013-03-08T18:49:01Z</time>
      </trkpt>
      <trkpt lat="59.9591433" lon="17.7008983">
        <ele>32.3416</ele>
        <time>2013-03-08T18:49:02Z</time>
      </trkpt>
      <trkpt lat="59.9591468" lon="17.7009283">
        <ele>32.3416</ele>
        <time>2013-03-08T18:49:03Z</time>
      </trkpt>
      <trkpt lat="59.95915" lon="17.7009562">
        <ele>32.3416</ele>
        <time>2013-03-08T18:49:04Z</time>
      </trkpt>
      <trkpt lat="59.9591536" lon="17.7009828">
        <ele>31.8607</ele>
        <time>2013-03-08T18:49:05Z</time>
      </trkpt>
      <trkpt lat="59.9591548" lon="17.7010041">
        <ele>31.8607</ele>
        <time>2013-03-08T18:49:06Z</time>
      </trkpt>
      <trkpt lat="59.9591572" lon="17.7010236">
        <ele>31.8607</ele>
        <time>2013-03-08T18:49:07Z</time>
      </trkpt>
      <trkpt lat="59.9591642" lon="17.7010428">
        <ele>31.8607</ele>
        <time>2013-03-08T18:49:08Z</time>
      </trkpt>
      <trkpt lat="59.9591692" lon="17.7010538">
        <ele>31.8607</ele>
        <time>2013-03-08T18:49:09Z</time>
      </trkpt>
      <trkpt lat="59.9591694" lon="17.7010578">
        <ele>31.8607</ele>
        <time>2013-03-08T18:49:10Z</time>
      </trkpt>
      <trkpt lat="59.9591696" lon="17.7010584">
        <ele>31.8607</ele>
        <time>2013-03-08T18:49:11Z</time>
      </trkpt>
      <trkpt lat="59.9591692" lon="17.7010574">
        <ele>31.8607</ele>
        <time>2013-03-08T18:49:12Z</time>
      </trkpt>
      <trkpt lat="59.9591684" lon="17.7010553">
        <ele>31.8607</ele>
        <time>2013-03-08T18:49:13Z</time>
      </trkpt>
      <trkpt lat="59.9591673" lon="17.7010597">
        <ele>31.8607</ele>
        <time>2013-03-08T18:49:14Z</time>
      </trkpt>
      <trkpt lat="59.9591667" lon="17.7010743">
        <ele>32.3416</ele>
        <time>2013-03-08T18:49:15Z</time>
      </trkpt>
      <trkpt lat="59.9591674" lon="17.7010944">
        <ele>32.3416</ele>
        <time>2013-03-08T18:49:16Z</time>
      </trkpt>
      <trkpt lat="59.9591704" lon="17.701117">
        <ele>32.3416</ele>
        <time>2013-03-08T18:49:17Z</time>
      </trkpt>
      <trkpt lat="59.9591749" lon="17.7011412">
        <ele>32.3416</ele>
        <time>2013-03-08T18:49:18Z</time>
      </trkpt>
      <trkpt lat="59.9591803" lon="17.701168">
        <ele>32.3416</ele>
        <time>2013-03-08T18:49:19Z</time>
      </trkpt>
      <trkpt lat="59.9591849" lon="17.7011986">
        <ele>32.3416</ele>
        <time>2013-03-08T18:49:20Z</time>
      </trkpt>
      <trkpt lat="59.9591893" lon="17.7012277">
        <ele>32.3416</ele>
        <time>2013-03-08T18:49:21Z</time>
      </trkpt>
      <trkpt lat="59.9591962" lon="17.7012569">
        <ele>32.8223</ele>
        <time>2013-03-08T18:49:22Z</time>
      </trkpt>
      <trkpt lat="59.9591997" lon="17.7012806">
        <ele>32.3416</ele>
        <time>2013-03-08T18:49:23Z</time>
      </trkpt>
      <trkpt lat="59.9592015" lon="17.7013044">
        <ele>32.3416</ele>
        <time>2013-03-08T18:49:24Z</time>
      </trkpt>
      <trkpt lat="59.959205" lon="17.7013327">
        <ele>31.8607</ele>
        <time>2013-03-08T18:49:25Z</time>
      </trkpt>
      <trkpt lat="59.9592066" lon="17.7013598">
        <ele>31.3801</ele>
        <time>2013-03-08T18:49:26Z</time>
      </trkpt>
      <trkpt lat="59.959208" lon="17.7013886">
        <ele>31.3801</ele>
        <time>2013-03-08T18:49:27Z</time>
      </trkpt>
      <trkpt lat="59.9592097" lon="17.7014166">
        <ele>30.8995</ele>
        <time>2013-03-08T18:49:28Z</time>
      </trkpt>
      <trkpt lat="59.9592134" lon="17.7014457">
        <ele>30.4188</ele>
        <time>2013-03-08T18:49:29Z</time>
      </trkpt>
      <trkpt lat="59.9592183" lon="17.7014729">
        <ele>30.4188</ele>
        <time>2013-03-08T18:49:30Z</time>
      </trkpt>
      <trkpt lat="59.9592178" lon="17.7015023">
        <ele>29.9381</ele>
        <time>2013-03-08T18:49:31Z</time>
      </trkpt>
      <trkpt lat="59.9592183" lon="17.7015354">
        <ele>29.9381</ele>
        <time>2013-03-08T18:49:32Z</time>
      </trkpt>
      <trkpt lat="59.9592262" lon="17.7015684">
        <ele>29.9381</ele>
        <time>2013-03-08T18:49:33Z</time>
      </trkpt>
      <trkpt lat="59.9592337" lon="17.7015972">
        <ele>30.4188</ele>
        <time>2013-03-08T18:49:34Z</time>
      </trkpt>
      <trkpt lat="59.9592398" lon="17.7016225">
        <ele>30.4188</ele>
        <time>2013-03-08T18:49:35Z</time>
      </trkpt>
      <trkpt lat="59.9592468" lon="17.7016494">
        <ele>29.9381</ele>
        <time>2013-03-08T18:49:36Z</time>
      </trkpt>
      <trkpt lat="59.9592539" lon="17.7016809">
        <ele>29.9381</ele>
        <time>2013-03-08T18:49:37Z</time>
      </trkpt>
      <trkpt lat="59.9592603" lon="17.7017111">
        <ele>29.4575</ele>
        <time>2013-03-08T18:49:38Z</time>
      </trkpt>
      <trkpt lat="59.9592671" lon="17.7017333">
        <ele>28.9769</ele>
        <time>2013-03-08T18:49:39Z</time>
      </trkpt>
      <trkpt lat="59.9592724" lon="17.7017551">
        <ele>28.4962</ele>
        <time>2013-03-08T18:49:40Z</time>
      </trkpt>
      <trkpt lat="59.959279" lon="17.7017819">
        <ele>28.4962</ele>
        <time>2013-03-08T18:49:41Z</time>
      </trkpt>
      <trkpt lat="59.9592855" lon="17.7018079">
        <ele>28.0155</ele>
        <time>2013-03-08T18:49:42Z</time>
      </trkpt>
      <trkpt lat="59.9592917" lon="17.7018349">
        <ele>28.0155</ele>
        <time>2013-03-08T18:49:43Z</time>
      </trkpt>
      <trkpt lat="59.9592974" lon="17.7018613">
        <ele>27.5349</ele>
        <time>2013-03-08T18:49:44Z</time>
      </trkpt>
      <trkpt lat="59.9593052" lon="17.7018846">
        <ele>27.0543</ele>
        <time>2013-03-08T18:49:45Z</time>
      </trkpt>
      <trkpt lat="59.9593118" lon="17.7019064">
        <ele>27.0543</ele>
        <time>2013-03-08T18:49:46Z</time>
      </trkpt>
      <trkpt lat="59.959319" lon="17.7019306">
        <ele>26.5736</ele>
        <time>2013-03-08T18:49:47Z</time>
      </trkpt>
      <trkpt lat="59.9593285" lon="17.7019518">
        <ele>26.0929</ele>
        <time>2013-03-08T18:49:48Z</time>
      </trkpt>
      <trkpt lat="59.9593375" lon="17.701967">
        <ele>25.6123</ele>
        <time>2013-03-08T18:49:49Z</time>
      </trkpt>
      <trkpt lat="59.9593418" lon="17.7020032">
        <ele>25.6123</ele>
        <time>2013-03-08T18:49:50Z</time>
      </trkpt>
      <trkpt lat="59.9593475" lon="17.702039">
        <ele>25.1317</ele>
        <time>2013-03-08T18:49:51Z</time>
      </trkpt>
      <trkpt lat="59.9593563" lon="17.7020618">
        <ele>24.651</ele>
        <time>2013-03-08T18:49:52Z</time>
      </trkpt>
      <trkpt lat="59.9593614" lon="17.7020871">
        <ele>24.651</ele>
        <time>2013-03-08T18:49:53Z</time>
      </trkpt>
      <trkpt lat="59.959367" lon="17.7021123">
        <ele>24.1703</ele>
        <time>2013-03-08T18:49:54Z</time>
      </trkpt>
      <trkpt lat="59.9593756" lon="17.7021346">
        <ele>23.209</ele>
        <time>2013-03-08T18:49:55Z</time>
      </trkpt>
      <trkpt lat="59.9593823" lon="17.7021499">
        <ele>22.7283</ele>
        <time>2013-03-08T18:49:56Z</time>
      </trkpt>
      <trkpt lat="59.959388" lon="17.7021659">
        <ele>22.2476</ele>
        <time>2013-03-08T18:49:57Z</time>
      </trkpt>
      <trkpt lat="59.9593942" lon="17.7021905">
        <ele>21.2864</ele>
        <time>2013-03-08T18:49:58Z</time>
      </trkpt>
      <trkpt lat="59.9594017" lon="17.702216">
        <ele>21.2864</ele>
        <time>2013-03-08T18:49:59Z</time>
      </trkpt>
      <trkpt lat="59.9594086" lon="17.7022397">
        <ele>20.8057</ele>
        <time>2013-03-08T18:50:00Z</time>
      </trkpt>
      <trkpt lat="59.9594159" lon="17.7022674">
        <ele>20.8057</ele>
        <time>2013-03-08T18:50:01Z</time>
      </trkpt>
      <trkpt lat="59.9594212" lon="17.7022952">
        <ele>20.325</ele>
        <time>2013-03-08T18:50:02Z</time>
      </trkpt>
      <trkpt lat="59.9594268" lon="17.7023202">
        <ele>19.8444</ele>
        <time>2013-03-08T18:50:03Z</time>
      </trkpt>
      <trkpt lat="59.9594457" lon="17.7023529">
        <ele>21.767</ele>
        <time>2013-03-08T18:50:04Z</time>
      </trkpt>
      <trkpt lat="59.9594573" lon="17.7023849">
        <ele>22.2476</ele>
        <time>2013-03-08T18:50:05Z</time>
      </trkpt>
      <trkpt lat="59.9594667" lon="17.7024052">
        <ele>22.2476</ele>
        <time>2013-03-08T18:50:06Z</time>
      </trkpt>
      <trkpt lat="59.9594799" lon="17.7024276">
        <ele>23.6896</ele>
        <time>2013-03-08T18:50:07Z</time>
      </trkpt>
      <trkpt lat="59.9594874" lon="17.7024526">
        <ele>23.209</ele>
        <time>2013-03-08T18:50:08Z</time>
      </trkpt>
      <trkpt lat="59.9594952" lon="17.7024761">
        <ele>23.6896</ele>
        <time>2013-03-08T18:50:09Z</time>
      </trkpt>
      <trkpt lat="59.9595028" lon="17.7025026">
        <ele>23.6896</ele>
        <time>2013-03-08T18:50:10Z</time>
      </trkpt>
      <trkpt lat="59.9595183" lon="17.702531">
        <ele>25.6123</ele>
        <time>2013-03-08T18:50:11Z</time>
      </trkpt>
      <trkpt lat="59.9595263" lon="17.7025549">
        <ele>25.6123</ele>
        <time>2013-03-08T18:50:12Z</time>
      </trkpt>
      <trkpt lat="59.9595345" lon="17.7025814">
        <ele>26.0929</ele>
        <time>2013-03-08T18:50:13Z</time>
      </trkpt>
      <trkpt lat="59.9595422" lon="17.7026104">
        <ele>26.0929</ele>
        <time>2013-03-08T18:50:14Z</time>
      </trkpt>
      <trkpt lat="59.9595496" lon="17.7026379">
        <ele>26.0929</ele>
        <time>2013-03-08T18:50:15Z</time>
      </trkpt>
      <trkpt lat="59.9595573" lon="17.7026647">
        <ele>26.0929</ele>
        <time>2013-03-08T18:50:16Z</time>
      </trkpt>
      <trkpt lat="59.9595646" lon="17.7026916">
        <ele>26.5736</ele>
        <time>2013-03-08T18:50:17Z</time>
      </trkpt>
      <trkpt lat="59.9595723" lon="17.7027201">
        <ele>26.5736</ele>
        <time>2013-03-08T18:50:18Z</time>
      </trkpt>
      <trkpt lat="59.9595812" lon="17.702749">
        <ele>26.5736</ele>
        <time>2013-03-08T18:50:19Z</time>
      </trkpt>
      <trkpt lat="59.9595901" lon="17.7027757">
        <ele>27.0543</ele>
        <time>2013-03-08T18:50:20Z</time>
      </trkpt>
      <trkpt lat="59.9595977" lon="17.7028018">
        <ele>27.0543</ele>
        <time>2013-03-08T18:50:21Z</time>
      </trkpt>
      <trkpt lat="59.959605" lon="17.7028294">
        <ele>27.0543</ele>
        <time>2013-03-08T18:50:22Z</time>
      </trkpt>
      <trkpt lat="59.9596115" lon="17.7028569">
        <ele>27.0543</ele>
        <time>2013-03-08T18:50:23Z</time>
      </trkpt>
      <trkpt lat="59.9596189" lon="17.7028828">
        <ele>27.0543</ele>
        <time>2013-03-08T18:50:24Z</time>
      </trkpt>
      <trkpt lat="59.9596255" lon="17.7029064">
        <ele>27.0543</ele>
        <time>2013-03-08T18:50:25Z</time>
      </trkpt>
      <trkpt lat="59.9596331" lon="17.7029304">
        <ele>27.0543</ele>
        <time>2013-03-08T18:50:26Z</time>
      </trkpt>
      <trkpt lat="59.9596443" lon="17.7029532">
        <ele>26.5736</ele>
        <time>2013-03-08T18:50:27Z</time>
      </trkpt>
      <trkpt lat="59.9596543" lon="17.7029772">
        <ele>26.5736</ele>
        <time>2013-03-08T18:50:28Z</time>
      </trkpt>
      <trkpt lat="59.9596594" lon="17.7030056">
        <ele>26.0929</ele>
        <time>2013-03-08T18:50:29Z</time>
      </trkpt>
      <trkpt lat="59.959663" lon="17.703034">
        <ele>26.0929</ele>
        <time>2013-03-08T18:50:30Z</time>
      </trkpt>
      <trkpt lat="59.9596698" lon="17.7030615">
        <ele>25.6123</ele>
        <time>2013-03-08T18:50:31Z</time>
      </trkpt>
      <trkpt lat="59.9596788" lon="17.7030883">
        <ele>25.6123</ele>
        <time>2013-03-08T18:50:32Z</time>
      </trkpt>
      <trkpt lat="59.9596876" lon="17.7031143">
        <ele>25.6123</ele>
        <time>2013-03-08T18:50:33Z</time>
      </trkpt>
      <trkpt lat="59.959696" lon="17.7031398">
        <ele>26.0929</ele>
        <time>2013-03-08T18:50:34Z</time>
      </trkpt>
      <trkpt lat="59.959706" lon="17.7031656">
        <ele>26.5736</ele>
        <time>2013-03-08T18:50:35Z</time>
      </trkpt>
      <trkpt lat="59.9597135" lon="17.703192">
        <ele>26.5736</ele>
        <time>2013-03-08T18:50:36Z</time>
      </trkpt>
      <trkpt lat="59.9597206" lon="17.703218">
        <ele>26.5736</ele>
        <time>2013-03-08T18:50:37Z</time>
      </trkpt>
      <trkpt lat="59.9597296" lon="17.703248">
        <ele>26.0929</ele>
        <time>2013-03-08T18:50:38Z</time>
      </trkpt>
      <trkpt lat="59.9597431" lon="17.7032765">
        <ele>26.5736</ele>
        <time>2013-03-08T18:50:39Z</time>
      </trkpt>
      <trkpt lat="59.9597556" lon="17.7033008">
        <ele>27.0543</ele>
        <time>2013-03-08T18:50:40Z</time>
      </trkpt>
      <trkpt lat="59.9597648" lon="17.7033275">
        <ele>27.0543</ele>
        <time>2013-03-08T18:50:41Z</time>
      </trkpt>
      <trkpt lat="59.9597723" lon="17.7033516">
        <ele>27.0543</ele>
        <time>2013-03-08T18:50:42Z</time>
      </trkpt>
      <trkpt lat="59.9597796" lon="17.7033757">
        <ele>26.5736</ele>
        <time>2013-03-08T18:50:43Z</time>
      </trkpt>
      <trkpt lat="59.9597836" lon="17.7034028">
        <ele>26.0929</ele>
        <time>2013-03-08T18:50:44Z</time>
      </trkpt>
      <trkpt lat="59.9597874" lon="17.7034289">
        <ele>25.6123</ele>
        <time>2013-03-08T18:50:45Z</time>
      </trkpt>
      <trkpt lat="59.959793" lon="17.7034552">
        <ele>25.6123</ele>
        <time>2013-03-08T18:50:46Z</time>
      </trkpt>
      <trkpt lat="59.9598004" lon="17.7034809">
        <ele>25.6123</ele>
        <time>2013-03-08T18:50:47Z</time>
      </trkpt>
      <trkpt lat="59.9598065" lon="17.7035017">
        <ele>25.1317</ele>
        <time>2013-03-08T18:50:48Z</time>
      </trkpt>
      <trkpt lat="59.9598151" lon="17.7035219">
        <ele>25.1317</ele>
        <time>2013-03-08T18:50:49Z</time>
      </trkpt>
      <trkpt lat="59.9598231" lon="17.7035482">
        <ele>25.1317</ele>
        <time>2013-03-08T18:50:50Z</time>
      </trkpt>
      <trkpt lat="59.9598308" lon="17.7035716">
        <ele>25.6123</ele>
        <time>2013-03-08T18:50:51Z</time>
      </trkpt>
      <trkpt lat="59.9598421" lon="17.7035897">
        <ele>25.6123</ele>
        <time>2013-03-08T18:50:52Z</time>
      </trkpt>
      <trkpt lat="59.9598499" lon="17.7036117">
        <ele>25.6123</ele>
        <time>2013-03-08T18:50:53Z</time>
      </trkpt>
      <trkpt lat="59.959857" lon="17.7036381">
        <ele>25.6123</ele>
        <time>2013-03-08T18:50:54Z</time>
      </trkpt>
      <trkpt lat="59.9598684" lon="17.7036603">
        <ele>25.6123</ele>
        <time>2013-03-08T18:50:55Z</time>
      </trkpt>
      <trkpt lat="59.9598806" lon="17.7036811">
        <ele>26.0929</ele>
        <time>2013-03-08T18:50:56Z</time>
      </trkpt>
      <trkpt lat="59.9598886" lon="17.7037052">
        <ele>26.0929</ele>
        <time>2013-03-08T18:50:57Z</time>
      </trkpt>
      <trkpt lat="59.9598935" lon="17.7037324">
        <ele>26.0929</ele>
        <time>2013-03-08T18:50:58Z</time>
      </trkpt>
      <trkpt lat="59.9598967" lon="17.7037567">
        <ele>25.6123</ele>
        <time>2013-03-08T18:50:59Z</time>
      </trkpt>
      <trkpt lat="59.9599059" lon="17.7037782">
        <ele>25.6123</ele>
        <time>2013-03-08T18:51:00Z</time>
      </trkpt>
      <trkpt lat="59.9599147" lon="17.7038063">
        <ele>25.6123</ele>
        <time>2013-03-08T18:51:01Z</time>
      </trkpt>
      <trkpt lat="59.9599203" lon="17.7038329">
        <ele>25.6123</ele>
        <time>2013-03-08T18:51:02Z</time>
      </trkpt>
      <trkpt lat="59.9599299" lon="17.703855">
        <ele>26.0929</ele>
        <time>2013-03-08T18:51:03Z</time>
      </trkpt>
      <trkpt lat="59.9599378" lon="17.7038798">
        <ele>26.0929</ele>
        <time>2013-03-08T18:51:04Z</time>
      </trkpt>
      <trkpt lat="59.9599433" lon="17.7039053">
        <ele>25.6123</ele>
        <time>2013-03-08T18:51:05Z</time>
      </trkpt>
      <trkpt lat="59.9599479" lon="17.703929">
        <ele>25.1317</ele>
        <time>2013-03-08T18:51:06Z</time>
      </trkpt>
      <trkpt lat="59.9599536" lon="17.703952">
        <ele>25.1317</ele>
        <time>2013-03-08T18:51:07Z</time>
      </trkpt>
      <trkpt lat="59.9599601" lon="17.7039784">
        <ele>25.1317</ele>
        <time>2013-03-08T18:51:08Z</time>
      </trkpt>
      <trkpt lat="59.959965" lon="17.7040047">
        <ele>25.1317</ele>
        <time>2013-03-08T18:51:09Z</time>
      </trkpt>
      <trkpt lat="59.9599738" lon="17.7040352">
        <ele>25.6123</ele>
        <time>2013-03-08T18:51:10Z</time>
      </trkpt>
      <trkpt lat="59.9599827" lon="17.704064">
        <ele>25.6123</ele>
        <time>2013-03-08T18:51:11Z</time>
      </trkpt>
      <trkpt lat="59.9599886" lon="17.7040873">
        <ele>25.1317</ele>
        <time>2013-03-08T18:51:12Z</time>
      </trkpt>
      <trkpt lat="59.959997" lon="17.7041111">
        <ele>25.1317</ele>
        <time>2013-03-08T18:51:13Z</time>
      </trkpt>
      <trkpt lat="59.9600059" lon="17.7041338">
        <ele>25.1317</ele>
        <time>2013-03-08T18:51:14Z</time>
      </trkpt>
      <trkpt lat="59.9600142" lon="17.7041559">
        <ele>24.651</ele>
        <time>2013-03-08T18:51:15Z</time>
      </trkpt>
      <trkpt lat="59.9600225" lon="17.7041766">
        <ele>25.1317</ele>
        <time>2013-03-08T18:51:16Z</time>
      </trkpt>
      <trkpt lat="59.9600323" lon="17.7041985">
        <ele>25.1317</ele>
        <time>2013-03-08T18:51:17Z</time>
      </trkpt>
      <trkpt lat="59.960043" lon="17.7042204">
        <ele>25.1317</ele>
        <time>2013-03-08T18:51:18Z</time>
      </trkpt>
      <trkpt lat="59.9600547" lon="17.7042416">
        <ele>25.1317</ele>
        <time>2013-03-08T18:51:19Z</time>
      </trkpt>
      <trkpt lat="59.9600675" lon="17.7042633">
        <ele>25.1317</ele>
        <time>2013-03-08T18:51:20Z</time>
      </trkpt>
      <trkpt lat="59.960079" lon="17.7042817">
        <ele>25.1317</ele>
        <time>2013-03-08T18:51:21Z</time>
      </trkpt>
      <trkpt lat="59.9600928" lon="17.7042973">
        <ele>25.1317</ele>
        <time>2013-03-08T18:51:22Z</time>
      </trkpt>
      <trkpt lat="59.9601008" lon="17.704313">
        <ele>25.1317</ele>
        <time>2013-03-08T18:51:23Z</time>
      </trkpt>
      <trkpt lat="59.9601114" lon="17.7043276">
        <ele>25.1317</ele>
        <time>2013-03-08T18:51:24Z</time>
      </trkpt>
      <trkpt lat="59.960125" lon="17.704345">
        <ele>25.1317</ele>
        <time>2013-03-08T18:51:25Z</time>
      </trkpt>
      <trkpt lat="59.9601348" lon="17.7043663">
        <ele>24.651</ele>
        <time>2013-03-08T18:51:26Z</time>
      </trkpt>
      <trkpt lat="59.9601462" lon="17.7043885">
        <ele>25.1317</ele>
        <time>2013-03-08T18:51:27Z</time>
      </trkpt>
      <trkpt lat="59.9601561" lon="17.7044095">
        <ele>25.1317</ele>
        <time>2013-03-08T18:51:28Z</time>
      </trkpt>
      <trkpt lat="59.960167" lon="17.7044309">
        <ele>25.1317</ele>
        <time>2013-03-08T18:51:29Z</time>
      </trkpt>
      <trkpt lat="59.9601775" lon="17.7044501">
        <ele>25.1317</ele>
        <time>2013-03-08T18:51:30Z</time>
      </trkpt>
      <trkpt lat="59.9601889" lon="17.7044652">
        <ele>25.1317</ele>
        <time>2013-03-08T18:51:31Z</time>
      </trkpt>
      <trkpt lat="59.9602013" lon="17.7044784">
        <ele>25.6123</ele>
        <time>2013-03-08T18:51:32Z</time>
      </trkpt>
      <trkpt lat="59.9602147" lon="17.7044924">
        <ele>25.6123</ele>
        <time>2013-03-08T18:51:33Z</time>
      </trkpt>
      <trkpt lat="59.9602287" lon="17.7045063">
        <ele>25.6123</ele>
        <time>2013-03-08T18:51:34Z</time>
      </trkpt>
      <trkpt lat="59.9602425" lon="17.7045207">
        <ele>25.6123</ele>
        <time>2013-03-08T18:51:35Z</time>
      </trkpt>
      <trkpt lat="59.9602536" lon="17.7045363">
        <ele>25.6123</ele>
        <time>2013-03-08T18:51:36Z</time>
      </trkpt>
      <trkpt lat="59.9602652" lon="17.7045508">
        <ele>25.6123</ele>
        <time>2013-03-08T18:51:37Z</time>
      </trkpt>
      <trkpt lat="59.9602777" lon="17.7045648">
        <ele>25.6123</ele>
        <time>2013-03-08T18:51:38Z</time>
      </trkpt>
      <trkpt lat="59.9602898" lon="17.7045793">
        <ele>25.6123</ele>
        <time>2013-03-08T18:51:39Z</time>
      </trkpt>
      <trkpt lat="59.9603017" lon="17.7045942">
        <ele>25.6123</ele>
        <time>2013-03-08T18:51:40Z</time>
      </trkpt>
      <trkpt lat="59.9603134" lon="17.7046088">
        <ele>25.6123</ele>
        <time>2013-03-08T18:51:41Z</time>
      </trkpt>
      <trkpt lat="59.9603241" lon="17.7046221">
        <ele>25.6123</ele>
        <time>2013-03-08T18:51:42Z</time>
      </trkpt>
      <trkpt lat="59.9603369" lon="17.7046366">
        <ele>25.6123</ele>
        <time>2013-03-08T18:51:43Z</time>
      </trkpt>
      <trkpt lat="59.9603512" lon="17.7046522">
        <ele>25.6123</ele>
        <time>2013-03-08T18:51:44Z</time>
      </trkpt>
      <trkpt lat="59.9603633" lon="17.7046679">
        <ele>25.6123</ele>
        <time>2013-03-08T18:51:45Z</time>
      </trkpt>
      <trkpt lat="59.9603758" lon="17.7046874">
        <ele>26.0929</ele>
        <time>2013-03-08T18:51:46Z</time>
      </trkpt>
      <trkpt lat="59.9603887" lon="17.7047046">
        <ele>26.0929</ele>
        <time>2013-03-08T18:51:47Z</time>
      </trkpt>
      <trkpt lat="59.9604006" lon="17.7047155">
        <ele>26.0929</ele>
        <time>2013-03-08T18:51:48Z</time>
      </trkpt>
      <trkpt lat="59.9604137" lon="17.7047269">
        <ele>26.0929</ele>
        <time>2013-03-08T18:51:49Z</time>
      </trkpt>
      <trkpt lat="59.9604275" lon="17.70474">
        <ele>26.0929</ele>
        <time>2013-03-08T18:51:50Z</time>
      </trkpt>
      <trkpt lat="59.9604411" lon="17.7047544">
        <ele>26.0929</ele>
        <time>2013-03-08T18:51:51Z</time>
      </trkpt>
      <trkpt lat="59.9604536" lon="17.7047708">
        <ele>26.0929</ele>
        <time>2013-03-08T18:51:52Z</time>
      </trkpt>
      <trkpt lat="59.9604662" lon="17.704788">
        <ele>26.0929</ele>
        <time>2013-03-08T18:51:53Z</time>
      </trkpt>
      <trkpt lat="59.9604788" lon="17.7048055">
        <ele>26.0929</ele>
        <time>2013-03-08T18:51:54Z</time>
      </trkpt>
      <trkpt lat="59.9604917" lon="17.7048222">
        <ele>26.0929</ele>
        <time>2013-03-08T18:51:55Z</time>
      </trkpt>
      <trkpt lat="59.9605053" lon="17.7048394">
        <ele>26.5736</ele>
        <time>2013-03-08T18:51:56Z</time>
      </trkpt>
      <trkpt lat="59.9605175" lon="17.704858">
        <ele>26.5736</ele>
        <time>2013-03-08T18:51:57Z</time>
      </trkpt>
      <trkpt lat="59.9605301" lon="17.7048751">
        <ele>26.5736</ele>
        <time>2013-03-08T18:51:58Z</time>
      </trkpt>
      <trkpt lat="59.9605431" lon="17.7048902">
        <ele>27.0543</ele>
        <time>2013-03-08T18:51:59Z</time>
      </trkpt>
      <trkpt lat="59.960556" lon="17.7049051">
        <ele>27.0543</ele>
        <time>2013-03-08T18:52:00Z</time>
      </trkpt>
      <trkpt lat="59.9605685" lon="17.7049209">
        <ele>27.0543</ele>
        <time>2013-03-08T18:52:01Z</time>
      </trkpt>
      <trkpt lat="59.960581" lon="17.7049371">
        <ele>27.5349</ele>
        <time>2013-03-08T18:52:02Z</time>
      </trkpt>
      <trkpt lat="59.9605943" lon="17.7049522">
        <ele>27.5349</ele>
        <time>2013-03-08T18:52:03Z</time>
      </trkpt>
      <trkpt lat="59.9606078" lon="17.704967">
        <ele>27.5349</ele>
        <time>2013-03-08T18:52:04Z</time>
      </trkpt>
      <trkpt lat="59.9606211" lon="17.7049823">
        <ele>27.5349</ele>
        <time>2013-03-08T18:52:05Z</time>
      </trkpt>
      <trkpt lat="59.9606328" lon="17.7049982">
        <ele>27.5349</ele>
        <time>2013-03-08T18:52:06Z</time>
      </trkpt>
      <trkpt lat="59.9606444" lon="17.7050149">
        <ele>27.5349</ele>
        <time>2013-03-08T18:52:07Z</time>
      </trkpt>
      <trkpt lat="59.9606563" lon="17.7050316">
        <ele>27.5349</ele>
        <time>2013-03-08T18:52:08Z</time>
      </trkpt>
      <trkpt lat="59.9606689" lon="17.7050477">
        <ele>28.0155</ele>
        <time>2013-03-08T18:52:09Z</time>
      </trkpt>
      <trkpt lat="59.9606822" lon="17.7050636">
        <ele>28.0155</ele>
        <time>2013-03-08T18:52:10Z</time>
      </trkpt>
      <trkpt lat="59.960695" lon="17.7050789">
        <ele>28.0155</ele>
        <time>2013-03-08T18:52:11Z</time>
      </trkpt>
      <trkpt lat="59.9607068" lon="17.7050957">
        <ele>28.0155</ele>
        <time>2013-03-08T18:52:12Z</time>
      </trkpt>
      <trkpt lat="59.9607181" lon="17.7051123">
        <ele>28.0155</ele>
        <time>2013-03-08T18:52:13Z</time>
      </trkpt>
      <trkpt lat="59.9607301" lon="17.7051274">
        <ele>27.5349</ele>
        <time>2013-03-08T18:52:14Z</time>
      </trkpt>
      <trkpt lat="59.9607429" lon="17.7051438">
        <ele>27.5349</ele>
        <time>2013-03-08T18:52:15Z</time>
      </trkpt>
      <trkpt lat="59.960755" lon="17.7051599">
        <ele>27.5349</ele>
        <time>2013-03-08T18:52:16Z</time>
      </trkpt>
      <trkpt lat="59.9607668" lon="17.7051758">
        <ele>27.0543</ele>
        <time>2013-03-08T18:52:17Z</time>
      </trkpt>
      <trkpt lat="59.9607787" lon="17.7051917">
        <ele>27.0543</ele>
        <time>2013-03-08T18:52:18Z</time>
      </trkpt>
      <trkpt lat="59.9607897" lon="17.705209">
        <ele>26.5736</ele>
        <time>2013-03-08T18:52:19Z</time>
      </trkpt>
      <trkpt lat="59.9608014" lon="17.7052268">
        <ele>26.5736</ele>
        <time>2013-03-08T18:52:20Z</time>
      </trkpt>
      <trkpt lat="59.9608135" lon="17.7052439">
        <ele>27.0543</ele>
        <time>2013-03-08T18:52:21Z</time>
      </trkpt>
      <trkpt lat="59.9608254" lon="17.7052619">
        <ele>27.0543</ele>
        <time>2013-03-08T18:52:22Z</time>
      </trkpt>
      <trkpt lat="59.9608373" lon="17.7052813">
        <ele>27.0543</ele>
        <time>2013-03-08T18:52:23Z</time>
      </trkpt>
      <trkpt lat="59.9608495" lon="17.7053008">
        <ele>27.0543</ele>
        <time>2013-03-08T18:52:24Z</time>
      </trkpt>
      <trkpt lat="59.9608618" lon="17.7053185">
        <ele>26.5736</ele>
        <time>2013-03-08T18:52:25Z</time>
      </trkpt>
      <trkpt lat="59.9608744" lon="17.7053365">
        <ele>27.0543</ele>
        <time>2013-03-08T18:52:26Z</time>
      </trkpt>
      <trkpt lat="59.9608865" lon="17.7053556">
        <ele>26.5736</ele>
        <time>2013-03-08T18:52:27Z</time>
      </trkpt>
      <trkpt lat="59.9608991" lon="17.705376">
        <ele>27.0543</ele>
        <time>2013-03-08T18:52:28Z</time>
      </trkpt>
      <trkpt lat="59.9609104" lon="17.7053972">
        <ele>27.0543</ele>
        <time>2013-03-08T18:52:29Z</time>
      </trkpt>
      <trkpt lat="59.9609228" lon="17.7054177">
        <ele>27.0543</ele>
        <time>2013-03-08T18:52:30Z</time>
      </trkpt>
      <trkpt lat="59.9609342" lon="17.7054369">
        <ele>27.0543</ele>
        <time>2013-03-08T18:52:31Z</time>
      </trkpt>
      <trkpt lat="59.9609464" lon="17.7054564">
        <ele>27.5349</ele>
        <time>2013-03-08T18:52:32Z</time>
      </trkpt>
      <trkpt lat="59.9609594" lon="17.7054754">
        <ele>27.5349</ele>
        <time>2013-03-08T18:52:33Z</time>
      </trkpt>
      <trkpt lat="59.9609714" lon="17.7054945">
        <ele>27.5349</ele>
        <time>2013-03-08T18:52:34Z</time>
      </trkpt>
      <trkpt lat="59.9609829" lon="17.7055128">
        <ele>27.5349</ele>
        <time>2013-03-08T18:52:35Z</time>
      </trkpt>
      <trkpt lat="59.9609943" lon="17.7055327">
        <ele>27.5349</ele>
        <time>2013-03-08T18:52:36Z</time>
      </trkpt>
      <trkpt lat="59.9610058" lon="17.7055522">
        <ele>27.5349</ele>
        <time>2013-03-08T18:52:37Z</time>
      </trkpt>
      <trkpt lat="59.9610174" lon="17.7055698">
        <ele>27.5349</ele>
        <time>2013-03-08T18:52:38Z</time>
      </trkpt>
      <trkpt lat="59.96103" lon="17.7055866">
        <ele>27.5349</ele>
        <time>2013-03-08T18:52:39Z</time>
      </trkpt>
      <trkpt lat="59.961043" lon="17.7056044">
        <ele>28.0155</ele>
        <time>2013-03-08T18:52:40Z</time>
      </trkpt>
      <trkpt lat="59.9610555" lon="17.7056224">
        <ele>28.0155</ele>
        <time>2013-03-08T18:52:41Z</time>
      </trkpt>
      <trkpt lat="59.9610661" lon="17.7056408">
        <ele>28.0155</ele>
        <time>2013-03-08T18:52:42Z</time>
      </trkpt>
      <trkpt lat="59.9610773" lon="17.7056614">
        <ele>28.0155</ele>
        <time>2013-03-08T18:52:43Z</time>
      </trkpt>
      <trkpt lat="59.9610894" lon="17.7056831">
        <ele>28.0155</ele>
        <time>2013-03-08T18:52:44Z</time>
      </trkpt>
      <trkpt lat="59.961101" lon="17.7057034">
        <ele>28.0155</ele>
        <time>2013-03-08T18:52:45Z</time>
      </trkpt>
      <trkpt lat="59.9611128" lon="17.7057235">
        <ele>28.0155</ele>
        <time>2013-03-08T18:52:46Z</time>
      </trkpt>
      <trkpt lat="59.9611248" lon="17.7057432">
        <ele>28.4962</ele>
        <time>2013-03-08T18:52:47Z</time>
      </trkpt>
      <trkpt lat="59.9611368" lon="17.7057633">
        <ele>28.4962</ele>
        <time>2013-03-08T18:52:48Z</time>
      </trkpt>
      <trkpt lat="59.9611475" lon="17.7057835">
        <ele>28.4962</ele>
        <time>2013-03-08T18:52:49Z</time>
      </trkpt>
      <trkpt lat="59.9611586" lon="17.7058033">
        <ele>28.4962</ele>
        <time>2013-03-08T18:52:50Z</time>
      </trkpt>
      <trkpt lat="59.9611699" lon="17.7058229">
        <ele>28.4962</ele>
        <time>2013-03-08T18:52:51Z</time>
      </trkpt>
      <trkpt lat="59.96118" lon="17.7058431">
        <ele>28.4962</ele>
        <time>2013-03-08T18:52:52Z</time>
      </trkpt>
      <trkpt lat="59.9611906" lon="17.7058637">
        <ele>28.0155</ele>
        <time>2013-03-08T18:52:53Z</time>
      </trkpt>
      <trkpt lat="59.961201" lon="17.7058839">
        <ele>28.0155</ele>
        <time>2013-03-08T18:52:54Z</time>
      </trkpt>
      <trkpt lat="59.9612108" lon="17.7059033">
        <ele>28.0155</ele>
        <time>2013-03-08T18:52:55Z</time>
      </trkpt>
      <trkpt lat="59.9612215" lon="17.7059223">
        <ele>28.0155</ele>
        <time>2013-03-08T18:52:56Z</time>
      </trkpt>
      <trkpt lat="59.9612324" lon="17.7059422">
        <ele>28.0155</ele>
        <time>2013-03-08T18:52:57Z</time>
      </trkpt>
      <trkpt lat="59.9612428" lon="17.7059613">
        <ele>28.0155</ele>
        <time>2013-03-08T18:52:58Z</time>
      </trkpt>
      <trkpt lat="59.9612533" lon="17.7059794">
        <ele>27.5349</ele>
        <time>2013-03-08T18:52:59Z</time>
      </trkpt>
      <trkpt lat="59.961264" lon="17.7059992">
        <ele>27.5349</ele>
        <time>2013-03-08T18:53:00Z</time>
      </trkpt>
      <trkpt lat="59.9612739" lon="17.7060194">
        <ele>27.5349</ele>
        <time>2013-03-08T18:53:01Z</time>
      </trkpt>
      <trkpt lat="59.9612843" lon="17.7060399">
        <ele>27.5349</ele>
        <time>2013-03-08T18:53:02Z</time>
      </trkpt>
      <trkpt lat="59.9612946" lon="17.7060603">
        <ele>27.5349</ele>
        <time>2013-03-08T18:53:03Z</time>
      </trkpt>
      <trkpt lat="59.9613055" lon="17.7060814">
        <ele>27.5349</ele>
        <time>2013-03-08T18:53:04Z</time>
      </trkpt>
      <trkpt lat="59.961316" lon="17.7061015">
        <ele>27.5349</ele>
        <time>2013-03-08T18:53:05Z</time>
      </trkpt>
      <trkpt lat="59.961327" lon="17.7061208">
        <ele>27.5349</ele>
        <time>2013-03-08T18:53:06Z</time>
      </trkpt>
      <trkpt lat="59.9613385" lon="17.7061409">
        <ele>27.5349</ele>
        <time>2013-03-08T18:53:07Z</time>
      </trkpt>
      <trkpt lat="59.9613502" lon="17.7061618">
        <ele>28.0155</ele>
        <time>2013-03-08T18:53:08Z</time>
      </trkpt>
      <trkpt lat="59.9613613" lon="17.7061826">
        <ele>28.0155</ele>
        <time>2013-03-08T18:53:09Z</time>
      </trkpt>
      <trkpt lat="59.9613713" lon="17.7062041">
        <ele>28.0155</ele>
        <time>2013-03-08T18:53:10Z</time>
      </trkpt>
      <trkpt lat="59.9613818" lon="17.7062255">
        <ele>28.0155</ele>
        <time>2013-03-08T18:53:11Z</time>
      </trkpt>
      <trkpt lat="59.9613932" lon="17.7062462">
        <ele>28.4962</ele>
        <time>2013-03-08T18:53:12Z</time>
      </trkpt>
      <trkpt lat="59.9614049" lon="17.7062662">
        <ele>28.4962</ele>
        <time>2013-03-08T18:53:13Z</time>
      </trkpt>
      <trkpt lat="59.9614166" lon="17.7062855">
        <ele>28.4962</ele>
        <time>2013-03-08T18:53:14Z</time>
      </trkpt>
      <trkpt lat="59.9614284" lon="17.7063056">
        <ele>28.4962</ele>
        <time>2013-03-08T18:53:15Z</time>
      </trkpt>
      <trkpt lat="59.9614398" lon="17.7063253">
        <ele>28.9769</ele>
        <time>2013-03-08T18:53:16Z</time>
      </trkpt>
      <trkpt lat="59.9614512" lon="17.7063436">
        <ele>28.9769</ele>
        <time>2013-03-08T18:53:17Z</time>
      </trkpt>
      <trkpt lat="59.9614631" lon="17.7063612">
        <ele>28.9769</ele>
        <time>2013-03-08T18:53:18Z</time>
      </trkpt>
      <trkpt lat="59.9614743" lon="17.7063794">
        <ele>28.9769</ele>
        <time>2013-03-08T18:53:19Z</time>
      </trkpt>
      <trkpt lat="59.9614853" lon="17.7063976">
        <ele>28.9769</ele>
        <time>2013-03-08T18:53:20Z</time>
      </trkpt>
      <trkpt lat="59.9614962" lon="17.7064155">
        <ele>28.9769</ele>
        <time>2013-03-08T18:53:21Z</time>
      </trkpt>
      <trkpt lat="59.9615076" lon="17.7064327">
        <ele>28.9769</ele>
        <time>2013-03-08T18:53:22Z</time>
      </trkpt>
      <trkpt lat="59.961519" lon="17.7064499">
        <ele>28.9769</ele>
        <time>2013-03-08T18:53:23Z</time>
      </trkpt>
      <trkpt lat="59.9615299" lon="17.7064672">
        <ele>28.9769</ele>
        <time>2013-03-08T18:53:24Z</time>
      </trkpt>
      <trkpt lat="59.9615408" lon="17.7064844">
        <ele>28.9769</ele>
        <time>2013-03-08T18:53:25Z</time>
      </trkpt>
      <trkpt lat="59.9615528" lon="17.7065">
        <ele>28.9769</ele>
        <time>2013-03-08T18:53:26Z</time>
      </trkpt>
      <trkpt lat="59.9615655" lon="17.7065149">
        <ele>28.9769</ele>
        <time>2013-03-08T18:53:27Z</time>
      </trkpt>
      <trkpt lat="59.9615777" lon="17.7065291">
        <ele>28.9769</ele>
        <time>2013-03-08T18:53:28Z</time>
      </trkpt>
      <trkpt lat="59.9615901" lon="17.706543">
        <ele>28.9769</ele>
        <time>2013-03-08T18:53:29Z</time>
      </trkpt>
      <trkpt lat="59.9616025" lon="17.7065566">
        <ele>28.4962</ele>
        <time>2013-03-08T18:53:30Z</time>
      </trkpt>
      <trkpt lat="59.961615" lon="17.7065699">
        <ele>28.4962</ele>
        <time>2013-03-08T18:53:31Z</time>
      </trkpt>
      <trkpt lat="59.9616277" lon="17.7065835">
        <ele>28.4962</ele>
        <time>2013-03-08T18:53:32Z</time>
      </trkpt>
      <trkpt lat="59.9616403" lon="17.7065983">
        <ele>28.4962</ele>
        <time>2013-03-08T18:53:33Z</time>
      </trkpt>
      <trkpt lat="59.9616521" lon="17.7066139">
        <ele>28.4962</ele>
        <time>2013-03-08T18:53:34Z</time>
      </trkpt>
      <trkpt lat="59.9616633" lon="17.7066281">
        <ele>28.4962</ele>
        <time>2013-03-08T18:53:35Z</time>
      </trkpt>
      <trkpt lat="59.9616739" lon="17.7066415">
        <ele>28.4962</ele>
        <time>2013-03-08T18:53:36Z</time>
      </trkpt>
      <trkpt lat="59.9616853" lon="17.7066554">
        <ele>28.4962</ele>
        <time>2013-03-08T18:53:37Z</time>
      </trkpt>
      <trkpt lat="59.9616962" lon="17.70667">
        <ele>28.0155</ele>
        <time>2013-03-08T18:53:38Z</time>
      </trkpt>
      <trkpt lat="59.9617072" lon="17.7066841">
        <ele>28.0155</ele>
        <time>2013-03-08T18:53:39Z</time>
      </trkpt>
      <trkpt lat="59.9617185" lon="17.706699">
        <ele>28.0155</ele>
        <time>2013-03-08T18:53:40Z</time>
      </trkpt>
      <trkpt lat="59.9617302" lon="17.7067134">
        <ele>27.5349</ele>
        <time>2013-03-08T18:53:41Z</time>
      </trkpt>
      <trkpt lat="59.9617423" lon="17.7067264">
        <ele>27.5349</ele>
        <time>2013-03-08T18:53:42Z</time>
      </trkpt>
      <trkpt lat="59.9617552" lon="17.7067383">
        <ele>27.5349</ele>
        <time>2013-03-08T18:53:43Z</time>
      </trkpt>
      <trkpt lat="59.9617686" lon="17.7067497">
        <ele>27.5349</ele>
        <time>2013-03-08T18:53:44Z</time>
      </trkpt>
      <trkpt lat="59.9617815" lon="17.706761">
        <ele>27.5349</ele>
        <time>2013-03-08T18:53:45Z</time>
      </trkpt>
      <trkpt lat="59.9617945" lon="17.7067714">
        <ele>27.5349</ele>
        <time>2013-03-08T18:53:46Z</time>
      </trkpt>
      <trkpt lat="59.9618076" lon="17.7067818">
        <ele>27.0543</ele>
        <time>2013-03-08T18:53:47Z</time>
      </trkpt>
      <trkpt lat="59.9618211" lon="17.7067915">
        <ele>27.0543</ele>
        <time>2013-03-08T18:53:48Z</time>
      </trkpt>
      <trkpt lat="59.961835" lon="17.7068006">
        <ele>27.0543</ele>
        <time>2013-03-08T18:53:49Z</time>
      </trkpt>
      <trkpt lat="59.9618488" lon="17.706811">
        <ele>27.0543</ele>
        <time>2013-03-08T18:53:50Z</time>
      </trkpt>
      <trkpt lat="59.9618625" lon="17.7068228">
        <ele>27.0543</ele>
        <time>2013-03-08T18:53:51Z</time>
      </trkpt>
      <trkpt lat="59.9618754" lon="17.7068353">
        <ele>27.0543</ele>
        <time>2013-03-08T18:53:52Z</time>
      </trkpt>
      <trkpt lat="59.9618885" lon="17.7068476">
        <ele>27.0543</ele>
        <time>2013-03-08T18:53:53Z</time>
      </trkpt>
      <trkpt lat="59.9619024" lon="17.7068585">
        <ele>27.0543</ele>
        <time>2013-03-08T18:53:54Z</time>
      </trkpt>
      <trkpt lat="59.9619153" lon="17.7068681">
        <ele>27.0543</ele>
        <time>2013-03-08T18:53:55Z</time>
      </trkpt>
      <trkpt lat="59.9619283" lon="17.7068766">
        <ele>27.0543</ele>
        <time>2013-03-08T18:53:56Z</time>
      </trkpt>
      <trkpt lat="59.9619421" lon="17.7068852">
        <ele>27.0543</ele>
        <time>2013-03-08T18:53:57Z</time>
      </trkpt>
      <trkpt lat="59.9619553" lon="17.7068941">
        <ele>27.0543</ele>
        <time>2013-03-08T18:53:58Z</time>
      </trkpt>
      <trkpt lat="59.9619686" lon="17.7069026">
        <ele>27.0543</ele>
        <time>2013-03-08T18:53:59Z</time>
      </trkpt>
      <trkpt lat="59.9619821" lon="17.7069113">
        <ele>27.0543</ele>
        <time>2013-03-08T18:54:00Z</time>
      </trkpt>
      <trkpt lat="59.9619956" lon="17.7069187">
        <ele>27.0543</ele>
        <time>2013-03-08T18:54:01Z</time>
      </trkpt>
      <trkpt lat="59.9620091" lon="17.7069269">
        <ele>27.0543</ele>
        <time>2013-03-08T18:54:02Z</time>
      </trkpt>
      <trkpt lat="59.9620223" lon="17.7069357">
        <ele>27.0543</ele>
        <time>2013-03-08T18:54:03Z</time>
      </trkpt>
      <trkpt lat="59.962036" lon="17.7069433">
        <ele>27.0543</ele>
        <time>2013-03-08T18:54:04Z</time>
      </trkpt>
      <trkpt lat="59.96205" lon="17.7069506">
        <ele>27.0543</ele>
        <time>2013-03-08T18:54:05Z</time>
      </trkpt>
      <trkpt lat="59.9620639" lon="17.706959">
        <ele>27.0543</ele>
        <time>2013-03-08T18:54:06Z</time>
      </trkpt>
      <trkpt lat="59.9620779" lon="17.7069681">
        <ele>27.0543</ele>
        <time>2013-03-08T18:54:07Z</time>
      </trkpt>
      <trkpt lat="59.9620918" lon="17.7069769">
        <ele>27.0543</ele>
        <time>2013-03-08T18:54:08Z</time>
      </trkpt>
      <trkpt lat="59.962105" lon="17.7069844">
        <ele>26.5736</ele>
        <time>2013-03-08T18:54:09Z</time>
      </trkpt>
      <trkpt lat="59.9621187" lon="17.7069915">
        <ele>26.5736</ele>
        <time>2013-03-08T18:54:10Z</time>
      </trkpt>
      <trkpt lat="59.9621329" lon="17.706998">
        <ele>26.5736</ele>
        <time>2013-03-08T18:54:11Z</time>
      </trkpt>
      <trkpt lat="59.9621469" lon="17.7070052">
        <ele>26.5736</ele>
        <time>2013-03-08T18:54:12Z</time>
      </trkpt>
      <trkpt lat="59.9621593" lon="17.7070142">
        <ele>26.0929</ele>
        <time>2013-03-08T18:54:13Z</time>
      </trkpt>
      <trkpt lat="59.962172" lon="17.7070232">
        <ele>26.0929</ele>
        <time>2013-03-08T18:54:14Z</time>
      </trkpt>
      <trkpt lat="59.9621855" lon="17.7070306">
        <ele>26.0929</ele>
        <time>2013-03-08T18:54:15Z</time>
      </trkpt>
      <trkpt lat="59.9621988" lon="17.7070383">
        <ele>26.0929</ele>
        <time>2013-03-08T18:54:16Z</time>
      </trkpt>
      <trkpt lat="59.9622122" lon="17.7070466">
        <ele>26.0929</ele>
        <time>2013-03-08T18:54:17Z</time>
      </trkpt>
      <trkpt lat="59.9622256" lon="17.7070538">
        <ele>26.0929</ele>
        <time>2013-03-08T18:54:18Z</time>
      </trkpt>
      <trkpt lat="59.9622392" lon="17.7070605">
        <ele>26.0929</ele>
        <time>2013-03-08T18:54:19Z</time>
      </trkpt>
      <trkpt lat="59.962253" lon="17.7070678">
        <ele>26.0929</ele>
        <time>2013-03-08T18:54:20Z</time>
      </trkpt>
      <trkpt lat="59.9622673" lon="17.707075">
        <ele>26.0929</ele>
        <time>2013-03-08T18:54:21Z</time>
      </trkpt>
      <trkpt lat="59.9622815" lon="17.7070821">
        <ele>26.0929</ele>
        <time>2013-03-08T18:54:22Z</time>
      </trkpt>
      <trkpt lat="59.9622959" lon="17.7070871">
        <ele>26.0929</ele>
        <time>2013-03-08T18:54:23Z</time>
      </trkpt>
      <trkpt lat="59.96231" lon="17.7070906">
        <ele>26.0929</ele>
        <time>2013-03-08T18:54:24Z</time>
      </trkpt>
      <trkpt lat="59.9623235" lon="17.7070958">
        <ele>26.0929</ele>
        <time>2013-03-08T18:54:25Z</time>
      </trkpt>
      <trkpt lat="59.9623369" lon="17.7071025">
        <ele>26.0929</ele>
        <time>2013-03-08T18:54:26Z</time>
      </trkpt>
      <trkpt lat="59.9623497" lon="17.7071093">
        <ele>25.6123</ele>
        <time>2013-03-08T18:54:27Z</time>
      </trkpt>
      <trkpt lat="59.9623634" lon="17.7071176">
        <ele>25.6123</ele>
        <time>2013-03-08T18:54:28Z</time>
      </trkpt>
      <trkpt lat="59.9623774" lon="17.7071253">
        <ele>25.6123</ele>
        <time>2013-03-08T18:54:29Z</time>
      </trkpt>
      <trkpt lat="59.962392" lon="17.7071313">
        <ele>25.6123</ele>
        <time>2013-03-08T18:54:30Z</time>
      </trkpt>
      <trkpt lat="59.9624068" lon="17.7071368">
        <ele>25.6123</ele>
        <time>2013-03-08T18:54:31Z</time>
      </trkpt>
      <trkpt lat="59.9624213" lon="17.707143">
        <ele>25.6123</ele>
        <time>2013-03-08T18:54:32Z</time>
      </trkpt>
      <trkpt lat="59.9624354" lon="17.7071486">
        <ele>25.6123</ele>
        <time>2013-03-08T18:54:33Z</time>
      </trkpt>
      <trkpt lat="59.9624499" lon="17.7071538">
        <ele>25.6123</ele>
        <time>2013-03-08T18:54:34Z</time>
      </trkpt>
      <trkpt lat="59.9624644" lon="17.7071596">
        <ele>26.0929</ele>
        <time>2013-03-08T18:54:35Z</time>
      </trkpt>
      <trkpt lat="59.9624782" lon="17.7071647">
        <ele>26.0929</ele>
        <time>2013-03-08T18:54:36Z</time>
      </trkpt>
      <trkpt lat="59.9624913" lon="17.7071688">
        <ele>25.6123</ele>
        <time>2013-03-08T18:54:37Z</time>
      </trkpt>
      <trkpt lat="59.9625046" lon="17.7071734">
        <ele>25.6123</ele>
        <time>2013-03-08T18:54:38Z</time>
      </trkpt>
      <trkpt lat="59.9625191" lon="17.7071771">
        <ele>25.6123</ele>
        <time>2013-03-08T18:54:39Z</time>
      </trkpt>
      <trkpt lat="59.9625338" lon="17.7071811">
        <ele>25.6123</ele>
        <time>2013-03-08T18:54:40Z</time>
      </trkpt>
      <trkpt lat="59.9625473" lon="17.7071854">
        <ele>25.1317</ele>
        <time>2013-03-08T18:54:41Z</time>
      </trkpt>
      <trkpt lat="59.9625608" lon="17.70719">
        <ele>25.1317</ele>
        <time>2013-03-08T18:54:42Z</time>
      </trkpt>
      <trkpt lat="59.9625751" lon="17.7071942">
        <ele>24.651</ele>
        <time>2013-03-08T18:54:43Z</time>
      </trkpt>
      <trkpt lat="59.9625891" lon="17.7071992">
        <ele>24.651</ele>
        <time>2013-03-08T18:54:44Z</time>
      </trkpt>
      <trkpt lat="59.9626027" lon="17.7072046">
        <ele>24.651</ele>
        <time>2013-03-08T18:54:45Z</time>
      </trkpt>
      <trkpt lat="59.9626155" lon="17.7072083">
        <ele>24.1703</ele>
        <time>2013-03-08T18:54:46Z</time>
      </trkpt>
      <trkpt lat="59.9626292" lon="17.7072114">
        <ele>24.1703</ele>
        <time>2013-03-08T18:54:47Z</time>
      </trkpt>
      <trkpt lat="59.9626453" lon="17.7072142">
        <ele>24.1703</ele>
        <time>2013-03-08T18:54:48Z</time>
      </trkpt>
      <trkpt lat="59.9626613" lon="17.7072175">
        <ele>24.1703</ele>
        <time>2013-03-08T18:54:49Z</time>
      </trkpt>
      <trkpt lat="59.9626758" lon="17.7072223">
        <ele>24.1703</ele>
        <time>2013-03-08T18:54:50Z</time>
      </trkpt>
      <trkpt lat="59.9626908" lon="17.7072264">
        <ele>24.1703</ele>
        <time>2013-03-08T18:54:51Z</time>
      </trkpt>
      <trkpt lat="59.9627058" lon="17.7072302">
        <ele>24.1703</ele>
        <time>2013-03-08T18:54:52Z</time>
      </trkpt>
      <trkpt lat="59.9627211" lon="17.7072351">
        <ele>24.1703</ele>
        <time>2013-03-08T18:54:53Z</time>
      </trkpt>
      <trkpt lat="59.9627363" lon="17.7072382">
        <ele>24.651</ele>
        <time>2013-03-08T18:54:54Z</time>
      </trkpt>
      <trkpt lat="59.9627503" lon="17.7072393">
        <ele>24.1703</ele>
        <time>2013-03-08T18:54:55Z</time>
      </trkpt>
      <trkpt lat="59.9627641" lon="17.7072396">
        <ele>24.1703</ele>
        <time>2013-03-08T18:54:56Z</time>
      </trkpt>
      <trkpt lat="59.9627783" lon="17.7072403">
        <ele>24.1703</ele>
        <time>2013-03-08T18:54:57Z</time>
      </trkpt>
      <trkpt lat="59.9627922" lon="17.7072418">
        <ele>24.1703</ele>
        <time>2013-03-08T18:54:58Z</time>
      </trkpt>
      <trkpt lat="59.9628064" lon="17.7072434">
        <ele>24.1703</ele>
        <time>2013-03-08T18:54:59Z</time>
      </trkpt>
      <trkpt lat="59.9628207" lon="17.7072448">
        <ele>24.1703</ele>
        <time>2013-03-08T18:55:00Z</time>
      </trkpt>
      <trkpt lat="59.9628348" lon="17.7072458">
        <ele>24.1703</ele>
        <time>2013-03-08T18:55:01Z</time>
      </trkpt>
      <trkpt lat="59.9628502" lon="17.7072456">
        <ele>24.1703</ele>
        <time>2013-03-08T18:55:02Z</time>
      </trkpt>
      <trkpt lat="59.9628652" lon="17.7072443">
        <ele>24.1703</ele>
        <time>2013-03-08T18:55:03Z</time>
      </trkpt>
      <trkpt lat="59.9628799" lon="17.7072428">
        <ele>24.1703</ele>
        <time>2013-03-08T18:55:04Z</time>
      </trkpt>
      <trkpt lat="59.9628944" lon="17.7072404">
        <ele>24.1703</ele>
        <time>2013-03-08T18:55:05Z</time>
      </trkpt>
      <trkpt lat="59.9629089" lon="17.7072377">
        <ele>24.1703</ele>
        <time>2013-03-08T18:55:06Z</time>
      </trkpt>
      <trkpt lat="59.9629238" lon="17.7072355">
        <ele>24.651</ele>
        <time>2013-03-08T18:55:07Z</time>
      </trkpt>
      <trkpt lat="59.9629384" lon="17.7072331">
        <ele>24.651</ele>
        <time>2013-03-08T18:55:08Z</time>
      </trkpt>
      <trkpt lat="59.9629529" lon="17.7072318">
        <ele>24.651</ele>
        <time>2013-03-08T18:55:09Z</time>
      </trkpt>
      <trkpt lat="59.9629679" lon="17.7072308">
        <ele>24.651</ele>
        <time>2013-03-08T18:55:10Z</time>
      </trkpt>
      <trkpt lat="59.9629834" lon="17.7072288">
        <ele>25.1317</ele>
        <time>2013-03-08T18:55:11Z</time>
      </trkpt>
      <trkpt lat="59.9629984" lon="17.7072276">
        <ele>24.651</ele>
        <time>2013-03-08T18:55:12Z</time>
      </trkpt>
      <trkpt lat="59.9630131" lon="17.7072282">
        <ele>24.651</ele>
        <time>2013-03-08T18:55:13Z</time>
      </trkpt>
      <trkpt lat="59.9630278" lon="17.7072279">
        <ele>25.1317</ele>
        <time>2013-03-08T18:55:14Z</time>
      </trkpt>
      <trkpt lat="59.9630455" lon="17.7072252">
        <ele>25.6123</ele>
        <time>2013-03-08T18:55:15Z</time>
      </trkpt>
      <trkpt lat="59.9630604" lon="17.7072243">
        <ele>25.6123</ele>
        <time>2013-03-08T18:55:16Z</time>
      </trkpt>
      <trkpt lat="59.9630751" lon="17.7072225">
        <ele>25.1317</ele>
        <time>2013-03-08T18:55:17Z</time>
      </trkpt>
      <trkpt lat="59.9630901" lon="17.7072206">
        <ele>25.1317</ele>
        <time>2013-03-08T18:55:18Z</time>
      </trkpt>
      <trkpt lat="59.9631048" lon="17.7072202">
        <ele>25.1317</ele>
        <time>2013-03-08T18:55:19Z</time>
      </trkpt>
      <trkpt lat="59.9631192" lon="17.7072201">
        <ele>25.1317</ele>
        <time>2013-03-08T18:55:20Z</time>
      </trkpt>
      <trkpt lat="59.9631321" lon="17.7072209">
        <ele>25.6123</ele>
        <time>2013-03-08T18:55:21Z</time>
      </trkpt>
      <trkpt lat="59.9631461" lon="17.7072185">
        <ele>25.6123</ele>
        <time>2013-03-08T18:55:22Z</time>
      </trkpt>
      <trkpt lat="59.9631621" lon="17.7072155">
        <ele>25.6123</ele>
        <time>2013-03-08T18:55:23Z</time>
      </trkpt>
      <trkpt lat="59.9631777" lon="17.7072159">
        <ele>25.6123</ele>
        <time>2013-03-08T18:55:24Z</time>
      </trkpt>
      <trkpt lat="59.9631927" lon="17.7072154">
        <ele>25.6123</ele>
        <time>2013-03-08T18:55:25Z</time>
      </trkpt>
      <trkpt lat="59.9632075" lon="17.7072149">
        <ele>25.6123</ele>
        <time>2013-03-08T18:55:26Z</time>
      </trkpt>
      <trkpt lat="59.9632225" lon="17.7072153">
        <ele>25.6123</ele>
        <time>2013-03-08T18:55:27Z</time>
      </trkpt>
      <trkpt lat="59.9632373" lon="17.7072144">
        <ele>25.6123</ele>
        <time>2013-03-08T18:55:28Z</time>
      </trkpt>
      <trkpt lat="59.9632523" lon="17.7072152">
        <ele>25.6123</ele>
        <time>2013-03-08T18:55:29Z</time>
      </trkpt>
      <trkpt lat="59.9632673" lon="17.7072185">
        <ele>26.0929</ele>
        <time>2013-03-08T18:55:30Z</time>
      </trkpt>
      <trkpt lat="59.9632823" lon="17.7072232">
        <ele>26.0929</ele>
        <time>2013-03-08T18:55:31Z</time>
      </trkpt>
      <trkpt lat="59.9632974" lon="17.7072273">
        <ele>26.0929</ele>
        <time>2013-03-08T18:55:32Z</time>
      </trkpt>
      <trkpt lat="59.9633122" lon="17.707231">
        <ele>26.0929</ele>
        <time>2013-03-08T18:55:33Z</time>
      </trkpt>
      <trkpt lat="59.9633265" lon="17.7072339">
        <ele>26.0929</ele>
        <time>2013-03-08T18:55:34Z</time>
      </trkpt>
      <trkpt lat="59.9633409" lon="17.7072349">
        <ele>26.0929</ele>
        <time>2013-03-08T18:55:35Z</time>
      </trkpt>
      <trkpt lat="59.963356" lon="17.7072347">
        <ele>26.0929</ele>
        <time>2013-03-08T18:55:36Z</time>
      </trkpt>
      <trkpt lat="59.9633709" lon="17.7072361">
        <ele>26.5736</ele>
        <time>2013-03-08T18:55:37Z</time>
      </trkpt>
      <trkpt lat="59.9633854" lon="17.707236">
        <ele>26.5736</ele>
        <time>2013-03-08T18:55:38Z</time>
      </trkpt>
      <trkpt lat="59.9633999" lon="17.7072346">
        <ele>26.5736</ele>
        <time>2013-03-08T18:55:39Z</time>
      </trkpt>
      <trkpt lat="59.9634143" lon="17.707233">
        <ele>26.5736</ele>
        <time>2013-03-08T18:55:40Z</time>
      </trkpt>
      <trkpt lat="59.9634284" lon="17.7072314">
        <ele>26.5736</ele>
        <time>2013-03-08T18:55:41Z</time>
      </trkpt>
      <trkpt lat="59.9634432" lon="17.7072303">
        <ele>26.5736</ele>
        <time>2013-03-08T18:55:42Z</time>
      </trkpt>
      <trkpt lat="59.9634582" lon="17.7072297">
        <ele>26.5736</ele>
        <time>2013-03-08T18:55:43Z</time>
      </trkpt>
      <trkpt lat="59.9634733" lon="17.70723">
        <ele>27.0543</ele>
        <time>2013-03-08T18:55:44Z</time>
      </trkpt>
      <trkpt lat="59.9634888" lon="17.707232">
        <ele>27.0543</ele>
        <time>2013-03-08T18:55:45Z</time>
      </trkpt>
      <trkpt lat="59.9635038" lon="17.707233">
        <ele>27.0543</ele>
        <time>2013-03-08T18:55:46Z</time>
      </trkpt>
      <trkpt lat="59.9635181" lon="17.7072328">
        <ele>27.0543</ele>
        <time>2013-03-08T18:55:47Z</time>
      </trkpt>
      <trkpt lat="59.9635318" lon="17.7072316">
        <ele>27.0543</ele>
        <time>2013-03-08T18:55:48Z</time>
      </trkpt>
      <trkpt lat="59.9635456" lon="17.7072299">
        <ele>27.0543</ele>
        <time>2013-03-08T18:55:49Z</time>
      </trkpt>
      <trkpt lat="59.9635599" lon="17.7072313">
        <ele>27.0543</ele>
        <time>2013-03-08T18:55:50Z</time>
      </trkpt>
      <trkpt lat="59.9635732" lon="17.7072299">
        <ele>27.0543</ele>
        <time>2013-03-08T18:55:51Z</time>
      </trkpt>
      <trkpt lat="59.9635864" lon="17.7072298">
        <ele>27.0543</ele>
        <time>2013-03-08T18:55:52Z</time>
      </trkpt>
      <trkpt lat="59.9636" lon="17.7072341">
        <ele>27.0543</ele>
        <time>2013-03-08T18:55:53Z</time>
      </trkpt>
      <trkpt lat="59.9636139" lon="17.7072372">
        <ele>26.5736</ele>
        <time>2013-03-08T18:55:54Z</time>
      </trkpt>
      <trkpt lat="59.9636279" lon="17.7072368">
        <ele>26.5736</ele>
        <time>2013-03-08T18:55:55Z</time>
      </trkpt>
      <trkpt lat="59.9636409" lon="17.7072359">
        <ele>26.5736</ele>
        <time>2013-03-08T18:55:56Z</time>
      </trkpt>
      <trkpt lat="59.9636546" lon="17.7072375">
        <ele>26.0929</ele>
        <time>2013-03-08T18:55:57Z</time>
      </trkpt>
      <trkpt lat="59.9636688" lon="17.7072388">
        <ele>26.0929</ele>
        <time>2013-03-08T18:55:58Z</time>
      </trkpt>
      <trkpt lat="59.9636828" lon="17.7072388">
        <ele>26.0929</ele>
        <time>2013-03-08T18:55:59Z</time>
      </trkpt>
      <trkpt lat="59.9636957" lon="17.7072385">
        <ele>25.6123</ele>
        <time>2013-03-08T18:56:00Z</time>
      </trkpt>
      <trkpt lat="59.963709" lon="17.7072406">
        <ele>25.6123</ele>
        <time>2013-03-08T18:56:01Z</time>
      </trkpt>
      <trkpt lat="59.9637242" lon="17.7072401">
        <ele>25.6123</ele>
        <time>2013-03-08T18:56:02Z</time>
      </trkpt>
      <trkpt lat="59.9637392" lon="17.7072394">
        <ele>25.6123</ele>
        <time>2013-03-08T18:56:03Z</time>
      </trkpt>
      <trkpt lat="59.9637543" lon="17.7072408">
        <ele>25.6123</ele>
        <time>2013-03-08T18:56:04Z</time>
      </trkpt>
      <trkpt lat="59.9637681" lon="17.7072423">
        <ele>25.6123</ele>
        <time>2013-03-08T18:56:05Z</time>
      </trkpt>
      <trkpt lat="59.9637806" lon="17.7072432">
        <ele>25.1317</ele>
        <time>2013-03-08T18:56:06Z</time>
      </trkpt>
      <trkpt lat="59.963794" lon="17.7072468">
        <ele>25.1317</ele>
        <time>2013-03-08T18:56:07Z</time>
      </trkpt>
      <trkpt lat="59.9638075" lon="17.7072494">
        <ele>25.1317</ele>
        <time>2013-03-08T18:56:08Z</time>
      </trkpt>
      <trkpt lat="59.9638214" lon="17.7072517">
        <ele>25.1317</ele>
        <time>2013-03-08T18:56:09Z</time>
      </trkpt>
      <trkpt lat="59.9638345" lon="17.7072532">
        <ele>24.651</ele>
        <time>2013-03-08T18:56:10Z</time>
      </trkpt>
      <trkpt lat="59.9638479" lon="17.7072525">
        <ele>24.651</ele>
        <time>2013-03-08T18:56:11Z</time>
      </trkpt>
      <trkpt lat="59.963862" lon="17.7072538">
        <ele>24.651</ele>
        <time>2013-03-08T18:56:12Z</time>
      </trkpt>
      <trkpt lat="59.9638758" lon="17.7072584">
        <ele>24.1703</ele>
        <time>2013-03-08T18:56:13Z</time>
      </trkpt>
      <trkpt lat="59.9638884" lon="17.7072606">
        <ele>24.1703</ele>
        <time>2013-03-08T18:56:14Z</time>
      </trkpt>
      <trkpt lat="59.9639017" lon="17.7072619">
        <ele>24.1703</ele>
        <time>2013-03-08T18:56:15Z</time>
      </trkpt>
      <trkpt lat="59.9639167" lon="17.7072627">
        <ele>24.1703</ele>
        <time>2013-03-08T18:56:16Z</time>
      </trkpt>
      <trkpt lat="59.9639319" lon="17.707262">
        <ele>24.1703</ele>
        <time>2013-03-08T18:56:17Z</time>
      </trkpt>
      <trkpt lat="59.9639473" lon="17.7072609">
        <ele>24.651</ele>
        <time>2013-03-08T18:56:18Z</time>
      </trkpt>
      <trkpt lat="59.963962" lon="17.7072632">
        <ele>24.651</ele>
        <time>2013-03-08T18:56:19Z</time>
      </trkpt>
      <trkpt lat="59.9639759" lon="17.7072708">
        <ele>24.1703</ele>
        <time>2013-03-08T18:56:20Z</time>
      </trkpt>
      <trkpt lat="59.9639898" lon="17.7072776">
        <ele>24.1703</ele>
        <time>2013-03-08T18:56:21Z</time>
      </trkpt>
      <trkpt lat="59.9640028" lon="17.707279">
        <ele>24.1703</ele>
        <time>2013-03-08T18:56:22Z</time>
      </trkpt>
      <trkpt lat="59.9640143" lon="17.7072816">
        <ele>23.6896</ele>
        <time>2013-03-08T18:56:23Z</time>
      </trkpt>
      <trkpt lat="59.9640281" lon="17.7072872">
        <ele>23.6896</ele>
        <time>2013-03-08T18:56:24Z</time>
      </trkpt>
      <trkpt lat="59.9640412" lon="17.7072921">
        <ele>23.6896</ele>
        <time>2013-03-08T18:56:25Z</time>
      </trkpt>
      <trkpt lat="59.9640526" lon="17.7072936">
        <ele>23.6896</ele>
        <time>2013-03-08T18:56:26Z</time>
      </trkpt>
      <trkpt lat="59.9640649" lon="17.7072947">
        <ele>23.209</ele>
        <time>2013-03-08T18:56:27Z</time>
      </trkpt>
      <trkpt lat="59.9640775" lon="17.7072969">
        <ele>23.6896</ele>
        <time>2013-03-08T18:56:28Z</time>
      </trkpt>
      <trkpt lat="59.96409" lon="17.7072991">
        <ele>23.6896</ele>
        <time>2013-03-08T18:56:29Z</time>
      </trkpt>
      <trkpt lat="59.9641032" lon="17.7073024">
        <ele>23.6896</ele>
        <time>2013-03-08T18:56:30Z</time>
      </trkpt>
      <trkpt lat="59.9641177" lon="17.7073045">
        <ele>23.209</ele>
        <time>2013-03-08T18:56:31Z</time>
      </trkpt>
      <trkpt lat="59.9641323" lon="17.7073079">
        <ele>23.6896</ele>
        <time>2013-03-08T18:56:32Z</time>
      </trkpt>
      <trkpt lat="59.9641474" lon="17.7073119">
        <ele>23.6896</ele>
        <time>2013-03-08T18:56:33Z</time>
      </trkpt>
      <trkpt lat="59.964162" lon="17.7073149">
        <ele>23.6896</ele>
        <time>2013-03-08T18:56:34Z</time>
      </trkpt>
      <trkpt lat="59.9641762" lon="17.7073198">
        <ele>23.6896</ele>
        <time>2013-03-08T18:56:35Z</time>
      </trkpt>
      <trkpt lat="59.9641893" lon="17.7073258">
        <ele>23.6896</ele>
        <time>2013-03-08T18:56:36Z</time>
      </trkpt>
      <trkpt lat="59.9642016" lon="17.7073326">
        <ele>23.6896</ele>
        <time>2013-03-08T18:56:37Z</time>
      </trkpt>
      <trkpt lat="59.9642151" lon="17.7073381">
        <ele>23.6896</ele>
        <time>2013-03-08T18:56:38Z</time>
      </trkpt>
      <trkpt lat="59.9642298" lon="17.7073427">
        <ele>23.6896</ele>
        <time>2013-03-08T18:56:39Z</time>
      </trkpt>
      <trkpt lat="59.9642446" lon="17.707347">
        <ele>23.6896</ele>
        <time>2013-03-08T18:56:40Z</time>
      </trkpt>
      <trkpt lat="59.9642593" lon="17.7073476">
        <ele>23.6896</ele>
        <time>2013-03-08T18:56:41Z</time>
      </trkpt>
      <trkpt lat="59.9642741" lon="17.70735">
        <ele>23.209</ele>
        <time>2013-03-08T18:56:42Z</time>
      </trkpt>
      <trkpt lat="59.9642893" lon="17.7073558">
        <ele>23.209</ele>
        <time>2013-03-08T18:56:43Z</time>
      </trkpt>
      <trkpt lat="59.9643045" lon="17.707362">
        <ele>23.209</ele>
        <time>2013-03-08T18:56:44Z</time>
      </trkpt>
      <trkpt lat="59.9643183" lon="17.7073685">
        <ele>23.209</ele>
        <time>2013-03-08T18:56:45Z</time>
      </trkpt>
      <trkpt lat="59.9643306" lon="17.7073761">
        <ele>22.7283</ele>
        <time>2013-03-08T18:56:46Z</time>
      </trkpt>
      <trkpt lat="59.9643422" lon="17.7073854">
        <ele>22.7283</ele>
        <time>2013-03-08T18:56:47Z</time>
      </trkpt>
      <trkpt lat="59.9643529" lon="17.7073993">
        <ele>22.7283</ele>
        <time>2013-03-08T18:56:48Z</time>
      </trkpt>
      <trkpt lat="59.9643633" lon="17.7074169">
        <ele>22.7283</ele>
        <time>2013-03-08T18:56:49Z</time>
      </trkpt>
      <trkpt lat="59.9643732" lon="17.7074291">
        <ele>22.2476</ele>
        <time>2013-03-08T18:56:50Z</time>
      </trkpt>
      <trkpt lat="59.9643837" lon="17.7074376">
        <ele>22.2476</ele>
        <time>2013-03-08T18:56:51Z</time>
      </trkpt>
      <trkpt lat="59.9643956" lon="17.7074459">
        <ele>21.767</ele>
        <time>2013-03-08T18:56:52Z</time>
      </trkpt>
      <trkpt lat="59.9644073" lon="17.7074531">
        <ele>21.767</ele>
        <time>2013-03-08T18:56:53Z</time>
      </trkpt>
      <trkpt lat="59.9644186" lon="17.7074562">
        <ele>21.2864</ele>
        <time>2013-03-08T18:56:54Z</time>
      </trkpt>
      <trkpt lat="59.9644291" lon="17.7074594">
        <ele>20.8057</ele>
        <time>2013-03-08T18:56:55Z</time>
      </trkpt>
      <trkpt lat="59.9644417" lon="17.7074594">
        <ele>20.8057</ele>
        <time>2013-03-08T18:56:56Z</time>
      </trkpt>
      <trkpt lat="59.9644555" lon="17.707459">
        <ele>20.8057</ele>
        <time>2013-03-08T18:56:57Z</time>
      </trkpt>
      <trkpt lat="59.9644686" lon="17.7074642">
        <ele>20.325</ele>
        <time>2013-03-08T18:56:58Z</time>
      </trkpt>
      <trkpt lat="59.9644829" lon="17.7074713">
        <ele>20.325</ele>
        <time>2013-03-08T18:56:59Z</time>
      </trkpt>
      <trkpt lat="59.9644965" lon="17.707477">
        <ele>19.8444</ele>
        <time>2013-03-08T18:57:00Z</time>
      </trkpt>
      <trkpt lat="59.9645114" lon="17.7074836">
        <ele>19.8444</ele>
        <time>2013-03-08T18:57:01Z</time>
      </trkpt>
      <trkpt lat="59.9645245" lon="17.7074905">
        <ele>19.3638</ele>
        <time>2013-03-08T18:57:02Z</time>
      </trkpt>
      <trkpt lat="59.9645395" lon="17.7074978">
        <ele>19.3638</ele>
        <time>2013-03-08T18:57:03Z</time>
      </trkpt>
      <trkpt lat="59.9645538" lon="17.7075065">
        <ele>18.8831</ele>
        <time>2013-03-08T18:57:04Z</time>
      </trkpt>
      <trkpt lat="59.9645673" lon="17.7075183">
        <ele>18.8831</ele>
        <time>2013-03-08T18:57:05Z</time>
      </trkpt>
      <trkpt lat="59.964581" lon="17.7075267">
        <ele>18.4023</ele>
        <time>2013-03-08T18:57:06Z</time>
      </trkpt>
      <trkpt lat="59.9645958" lon="17.7075335">
        <ele>18.4023</ele>
        <time>2013-03-08T18:57:07Z</time>
      </trkpt>
      <trkpt lat="59.96461" lon="17.7075408">
        <ele>17.9218</ele>
        <time>2013-03-08T18:57:08Z</time>
      </trkpt>
      <trkpt lat="59.9646235" lon="17.7075485">
        <ele>17.9218</ele>
        <time>2013-03-08T18:57:09Z</time>
      </trkpt>
      <trkpt lat="59.9646359" lon="17.7075558">
        <ele>17.9218</ele>
        <time>2013-03-08T18:57:10Z</time>
      </trkpt>
      <trkpt lat="59.9646492" lon="17.7075641">
        <ele>17.9218</ele>
        <time>2013-03-08T18:57:11Z</time>
      </trkpt>
      <trkpt lat="59.9646629" lon="17.7075722">
        <ele>17.9218</ele>
        <time>2013-03-08T18:57:12Z</time>
      </trkpt>
      <trkpt lat="59.9646767" lon="17.707579">
        <ele>17.9218</ele>
        <time>2013-03-08T18:57:13Z</time>
      </trkpt>
      <trkpt lat="59.9646908" lon="17.7075867">
        <ele>17.9218</ele>
        <time>2013-03-08T18:57:14Z</time>
      </trkpt>
      <trkpt lat="59.9647038" lon="17.7075965">
        <ele>18.4023</ele>
        <time>2013-03-08T18:57:15Z</time>
      </trkpt>
      <trkpt lat="59.9647165" lon="17.7076034">
        <ele>17.9218</ele>
        <time>2013-03-08T18:57:16Z</time>
      </trkpt>
      <trkpt lat="59.9647301" lon="17.707609">
        <ele>18.4023</ele>
        <time>2013-03-08T18:57:17Z</time>
      </trkpt>
      <trkpt lat="59.9647441" lon="17.7076164">
        <ele>18.4023</ele>
        <time>2013-03-08T18:57:18Z</time>
      </trkpt>
      <trkpt lat="59.9647581" lon="17.7076252">
        <ele>18.4023</ele>
        <time>2013-03-08T18:57:19Z</time>
      </trkpt>
      <trkpt lat="59.9647721" lon="17.7076354">
        <ele>18.4023</ele>
        <time>2013-03-08T18:57:20Z</time>
      </trkpt>
      <trkpt lat="59.964786" lon="17.7076457">
        <ele>18.4023</ele>
        <time>2013-03-08T18:57:21Z</time>
      </trkpt>
      <trkpt lat="59.9648001" lon="17.7076557">
        <ele>18.8831</ele>
        <time>2013-03-08T18:57:22Z</time>
      </trkpt>
      <trkpt lat="59.9648144" lon="17.7076656">
        <ele>18.8831</ele>
        <time>2013-03-08T18:57:23Z</time>
      </trkpt>
      <trkpt lat="59.9648282" lon="17.7076755">
        <ele>18.8831</ele>
        <time>2013-03-08T18:57:24Z</time>
      </trkpt>
      <trkpt lat="59.9648427" lon="17.7076851">
        <ele>19.3638</ele>
        <time>2013-03-08T18:57:25Z</time>
      </trkpt>
      <trkpt lat="59.9648572" lon="17.7076946">
        <ele>19.3638</ele>
        <time>2013-03-08T18:57:26Z</time>
      </trkpt>
      <trkpt lat="59.9648707" lon="17.7077047">
        <ele>19.3638</ele>
        <time>2013-03-08T18:57:27Z</time>
      </trkpt>
      <trkpt lat="59.9648845" lon="17.7077153">
        <ele>19.3638</ele>
        <time>2013-03-08T18:57:28Z</time>
      </trkpt>
      <trkpt lat="59.9648984" lon="17.7077252">
        <ele>19.3638</ele>
        <time>2013-03-08T18:57:29Z</time>
      </trkpt>
      <trkpt lat="59.964912" lon="17.7077351">
        <ele>19.3638</ele>
        <time>2013-03-08T18:57:30Z</time>
      </trkpt>
      <trkpt lat="59.9649258" lon="17.7077453">
        <ele>19.8444</ele>
        <time>2013-03-08T18:57:31Z</time>
      </trkpt>
      <trkpt lat="59.9649396" lon="17.7077553">
        <ele>19.8444</ele>
        <time>2013-03-08T18:57:32Z</time>
      </trkpt>
      <trkpt lat="59.9649539" lon="17.7077665">
        <ele>19.8444</ele>
        <time>2013-03-08T18:57:33Z</time>
      </trkpt>
      <trkpt lat="59.9649683" lon="17.7077775">
        <ele>19.8444</ele>
        <time>2013-03-08T18:57:34Z</time>
      </trkpt>
      <trkpt lat="59.9649824" lon="17.7077882">
        <ele>19.8444</ele>
        <time>2013-03-08T18:57:35Z</time>
      </trkpt>
      <trkpt lat="59.9649965" lon="17.7077992">
        <ele>20.325</ele>
        <time>2013-03-08T18:57:36Z</time>
      </trkpt>
      <trkpt lat="59.9650113" lon="17.7078101">
        <ele>20.325</ele>
        <time>2013-03-08T18:57:37Z</time>
      </trkpt>
      <trkpt lat="59.965026" lon="17.7078208">
        <ele>20.325</ele>
        <time>2013-03-08T18:57:38Z</time>
      </trkpt>
      <trkpt lat="59.9650406" lon="17.7078308">
        <ele>20.8057</ele>
        <time>2013-03-08T18:57:39Z</time>
      </trkpt>
      <trkpt lat="59.9650554" lon="17.7078401">
        <ele>20.8057</ele>
        <time>2013-03-08T18:57:40Z</time>
      </trkpt>
      <trkpt lat="59.9650694" lon="17.7078487">
        <ele>20.8057</ele>
        <time>2013-03-08T18:57:41Z</time>
      </trkpt>
      <trkpt lat="59.9650848" lon="17.7078562">
        <ele>21.2864</ele>
        <time>2013-03-08T18:57:42Z</time>
      </trkpt>
      <trkpt lat="59.9651012" lon="17.7078607">
        <ele>21.767</ele>
        <time>2013-03-08T18:57:43Z</time>
      </trkpt>
      <trkpt lat="59.9651182" lon="17.7078612">
        <ele>22.2476</ele>
        <time>2013-03-08T18:57:44Z</time>
      </trkpt>
      <trkpt lat="59.9651348" lon="17.7078614">
        <ele>22.2476</ele>
        <time>2013-03-08T18:57:45Z</time>
      </trkpt>
      <trkpt lat="59.9651518" lon="17.7078619">
        <ele>22.7283</ele>
        <time>2013-03-08T18:57:46Z</time>
      </trkpt>
      <trkpt lat="59.9651685" lon="17.7078617">
        <ele>23.209</ele>
        <time>2013-03-08T18:57:47Z</time>
      </trkpt>
      <trkpt lat="59.9651851" lon="17.7078618">
        <ele>23.209</ele>
        <time>2013-03-08T18:57:48Z</time>
      </trkpt>
      <trkpt lat="59.9652014" lon="17.7078614">
        <ele>23.209</ele>
        <time>2013-03-08T18:57:49Z</time>
      </trkpt>
      <trkpt lat="59.9652172" lon="17.7078625">
        <ele>23.209</ele>
        <time>2013-03-08T18:57:50Z</time>
      </trkpt>
      <trkpt lat="59.965233" lon="17.7078655">
        <ele>23.6896</ele>
        <time>2013-03-08T18:57:51Z</time>
      </trkpt>
      <trkpt lat="59.9652485" lon="17.7078697">
        <ele>23.6896</ele>
        <time>2013-03-08T18:57:52Z</time>
      </trkpt>
      <trkpt lat="59.9652633" lon="17.7078749">
        <ele>23.6896</ele>
        <time>2013-03-08T18:57:53Z</time>
      </trkpt>
      <trkpt lat="59.965278" lon="17.7078815">
        <ele>23.6896</ele>
        <time>2013-03-08T18:57:54Z</time>
      </trkpt>
      <trkpt lat="59.9652921" lon="17.7078878">
        <ele>23.6896</ele>
        <time>2013-03-08T18:57:55Z</time>
      </trkpt>
      <trkpt lat="59.9653061" lon="17.7078946">
        <ele>23.6896</ele>
        <time>2013-03-08T18:57:56Z</time>
      </trkpt>
      <trkpt lat="59.96532" lon="17.7079033">
        <ele>23.6896</ele>
        <time>2013-03-08T18:57:57Z</time>
      </trkpt>
      <trkpt lat="59.9653334" lon="17.7079127">
        <ele>23.6896</ele>
        <time>2013-03-08T18:57:58Z</time>
      </trkpt>
      <trkpt lat="59.9653465" lon="17.7079239">
        <ele>23.6896</ele>
        <time>2013-03-08T18:57:59Z</time>
      </trkpt>
      <trkpt lat="59.9653594" lon="17.7079368">
        <ele>23.6896</ele>
        <time>2013-03-08T18:58:00Z</time>
      </trkpt>
      <trkpt lat="59.9653724" lon="17.7079479">
        <ele>23.6896</ele>
        <time>2013-03-08T18:58:01Z</time>
      </trkpt>
      <trkpt lat="59.9653854" lon="17.7079577">
        <ele>23.6896</ele>
        <time>2013-03-08T18:58:02Z</time>
      </trkpt>
      <trkpt lat="59.9653987" lon="17.707967">
        <ele>23.6896</ele>
        <time>2013-03-08T18:58:03Z</time>
      </trkpt>
      <trkpt lat="59.9654119" lon="17.7079754">
        <ele>23.6896</ele>
        <time>2013-03-08T18:58:04Z</time>
      </trkpt>
      <trkpt lat="59.965426" lon="17.7079832">
        <ele>23.6896</ele>
        <time>2013-03-08T18:58:05Z</time>
      </trkpt>
      <trkpt lat="59.9654405" lon="17.7079925">
        <ele>23.6896</ele>
        <time>2013-03-08T18:58:06Z</time>
      </trkpt>
      <trkpt lat="59.9654544" lon="17.7080049">
        <ele>23.6896</ele>
        <time>2013-03-08T18:58:07Z</time>
      </trkpt>
      <trkpt lat="59.9654671" lon="17.7080199">
        <ele>23.6896</ele>
        <time>2013-03-08T18:58:08Z</time>
      </trkpt>
      <trkpt lat="59.9654796" lon="17.708036">
        <ele>23.6896</ele>
        <time>2013-03-08T18:58:09Z</time>
      </trkpt>
      <trkpt lat="59.9654921" lon="17.7080511">
        <ele>23.6896</ele>
        <time>2013-03-08T18:58:10Z</time>
      </trkpt>
      <trkpt lat="59.9655049" lon="17.7080655">
        <ele>23.6896</ele>
        <time>2013-03-08T18:58:11Z</time>
      </trkpt>
      <trkpt lat="59.9655175" lon="17.7080795">
        <ele>23.6896</ele>
        <time>2013-03-08T18:58:12Z</time>
      </trkpt>
      <trkpt lat="59.9655301" lon="17.7080934">
        <ele>23.209</ele>
        <time>2013-03-08T18:58:13Z</time>
      </trkpt>
      <trkpt lat="59.9655427" lon="17.708107">
        <ele>23.209</ele>
        <time>2013-03-08T18:58:14Z</time>
      </trkpt>
      <trkpt lat="59.9655554" lon="17.7081208">
        <ele>23.209</ele>
        <time>2013-03-08T18:58:15Z</time>
      </trkpt>
      <trkpt lat="59.9655679" lon="17.7081354">
        <ele>23.209</ele>
        <time>2013-03-08T18:58:16Z</time>
      </trkpt>
      <trkpt lat="59.9655802" lon="17.7081503">
        <ele>23.209</ele>
        <time>2013-03-08T18:58:17Z</time>
      </trkpt>
      <trkpt lat="59.965592" lon="17.7081655">
        <ele>23.209</ele>
        <time>2013-03-08T18:58:18Z</time>
      </trkpt>
      <trkpt lat="59.9656036" lon="17.7081819">
        <ele>23.209</ele>
        <time>2013-03-08T18:58:19Z</time>
      </trkpt>
      <trkpt lat="59.9656147" lon="17.7081996">
        <ele>23.209</ele>
        <time>2013-03-08T18:58:20Z</time>
      </trkpt>
      <trkpt lat="59.9656261" lon="17.7082173">
        <ele>23.209</ele>
        <time>2013-03-08T18:58:21Z</time>
      </trkpt>
      <trkpt lat="59.9656376" lon="17.7082339">
        <ele>23.209</ele>
        <time>2013-03-08T18:58:22Z</time>
      </trkpt>
      <trkpt lat="59.9656492" lon="17.7082499">
        <ele>23.209</ele>
        <time>2013-03-08T18:58:23Z</time>
      </trkpt>
      <trkpt lat="59.9656608" lon="17.7082663">
        <ele>23.209</ele>
        <time>2013-03-08T18:58:24Z</time>
      </trkpt>
      <trkpt lat="59.9656719" lon="17.7082837">
        <ele>23.209</ele>
        <time>2013-03-08T18:58:25Z</time>
      </trkpt>
      <trkpt lat="59.9656836" lon="17.708302">
        <ele>23.209</ele>
        <time>2013-03-08T18:58:26Z</time>
      </trkpt>
      <trkpt lat="59.9656951" lon="17.7083196">
        <ele>23.209</ele>
        <time>2013-03-08T18:58:27Z</time>
      </trkpt>
      <trkpt lat="59.9657065" lon="17.708338">
        <ele>23.209</ele>
        <time>2013-03-08T18:58:28Z</time>
      </trkpt>
      <trkpt lat="59.9657179" lon="17.7083579">
        <ele>23.209</ele>
        <time>2013-03-08T18:58:29Z</time>
      </trkpt>
      <trkpt lat="59.9657285" lon="17.7083769">
        <ele>23.6896</ele>
        <time>2013-03-08T18:58:30Z</time>
      </trkpt>
      <trkpt lat="59.965739" lon="17.7083954">
        <ele>23.6896</ele>
        <time>2013-03-08T18:58:31Z</time>
      </trkpt>
      <trkpt lat="59.9657491" lon="17.7084141">
        <ele>23.6896</ele>
        <time>2013-03-08T18:58:32Z</time>
      </trkpt>
      <trkpt lat="59.9657596" lon="17.7084328">
        <ele>23.6896</ele>
        <time>2013-03-08T18:58:33Z</time>
      </trkpt>
      <trkpt lat="59.9657704" lon="17.708452">
        <ele>23.6896</ele>
        <time>2013-03-08T18:58:34Z</time>
      </trkpt>
      <trkpt lat="59.9657811" lon="17.7084724">
        <ele>23.6896</ele>
        <time>2013-03-08T18:58:35Z</time>
      </trkpt>
      <trkpt lat="59.9657916" lon="17.7084932">
        <ele>23.6896</ele>
        <time>2013-03-08T18:58:36Z</time>
      </trkpt>
      <trkpt lat="59.9658019" lon="17.7085151">
        <ele>23.6896</ele>
        <time>2013-03-08T18:58:37Z</time>
      </trkpt>
      <trkpt lat="59.9658118" lon="17.7085377">
        <ele>23.6896</ele>
        <time>2013-03-08T18:58:38Z</time>
      </trkpt>
      <trkpt lat="59.9658211" lon="17.7085598">
        <ele>23.6896</ele>
        <time>2013-03-08T18:58:39Z</time>
      </trkpt>
      <trkpt lat="59.9658308" lon="17.7085815">
        <ele>23.6896</ele>
        <time>2013-03-08T18:58:40Z</time>
      </trkpt>
      <trkpt lat="59.9658396" lon="17.7086028">
        <ele>23.6896</ele>
        <time>2013-03-08T18:58:41Z</time>
      </trkpt>
      <trkpt lat="59.9658479" lon="17.7086244">
        <ele>23.6896</ele>
        <time>2013-03-08T18:58:42Z</time>
      </trkpt>
      <trkpt lat="59.9658566" lon="17.7086467">
        <ele>23.6896</ele>
        <time>2013-03-08T18:58:43Z</time>
      </trkpt>
      <trkpt lat="59.965865" lon="17.7086706">
        <ele>24.1703</ele>
        <time>2013-03-08T18:58:44Z</time>
      </trkpt>
      <trkpt lat="59.9658728" lon="17.7086964">
        <ele>24.1703</ele>
        <time>2013-03-08T18:58:45Z</time>
      </trkpt>
      <trkpt lat="59.9658801" lon="17.7087224">
        <ele>24.1703</ele>
        <time>2013-03-08T18:58:46Z</time>
      </trkpt>
      <trkpt lat="59.9658874" lon="17.7087481">
        <ele>24.1703</ele>
        <time>2013-03-08T18:58:47Z</time>
      </trkpt>
      <trkpt lat="59.9658956" lon="17.708773">
        <ele>24.1703</ele>
        <time>2013-03-08T18:58:48Z</time>
      </trkpt>
      <trkpt lat="59.9659046" lon="17.7087963">
        <ele>24.1703</ele>
        <time>2013-03-08T18:58:49Z</time>
      </trkpt>
      <trkpt lat="59.9659149" lon="17.7088192">
        <ele>24.651</ele>
        <time>2013-03-08T18:58:50Z</time>
      </trkpt>
      <trkpt lat="59.9659241" lon="17.7088438">
        <ele>24.651</ele>
        <time>2013-03-08T18:58:51Z</time>
      </trkpt>
      <trkpt lat="59.9659314" lon="17.7088687">
        <ele>24.651</ele>
        <time>2013-03-08T18:58:52Z</time>
      </trkpt>
      <trkpt lat="59.9659388" lon="17.7088925">
        <ele>24.651</ele>
        <time>2013-03-08T18:58:53Z</time>
      </trkpt>
      <trkpt lat="59.9659463" lon="17.7089169">
        <ele>24.651</ele>
        <time>2013-03-08T18:58:54Z</time>
      </trkpt>
      <trkpt lat="59.9659536" lon="17.7089419">
        <ele>24.651</ele>
        <time>2013-03-08T18:58:55Z</time>
      </trkpt>
      <trkpt lat="59.9659608" lon="17.7089663">
        <ele>24.651</ele>
        <time>2013-03-08T18:58:56Z</time>
      </trkpt>
      <trkpt lat="59.9659682" lon="17.7089906">
        <ele>24.651</ele>
        <time>2013-03-08T18:58:57Z</time>
      </trkpt>
      <trkpt lat="59.9659755" lon="17.709015">
        <ele>24.651</ele>
        <time>2013-03-08T18:58:58Z</time>
      </trkpt>
      <trkpt lat="59.9659826" lon="17.7090394">
        <ele>24.651</ele>
        <time>2013-03-08T18:58:59Z</time>
      </trkpt>
      <trkpt lat="59.96599" lon="17.709064">
        <ele>24.651</ele>
        <time>2013-03-08T18:59:00Z</time>
      </trkpt>
      <trkpt lat="59.9659977" lon="17.7090885">
        <ele>24.651</ele>
        <time>2013-03-08T18:59:01Z</time>
      </trkpt>
      <trkpt lat="59.9660055" lon="17.7091125">
        <ele>24.651</ele>
        <time>2013-03-08T18:59:02Z</time>
      </trkpt>
      <trkpt lat="59.966012" lon="17.7091361">
        <ele>24.651</ele>
        <time>2013-03-08T18:59:03Z</time>
      </trkpt>
      <trkpt lat="59.9660184" lon="17.70916">
        <ele>24.651</ele>
        <time>2013-03-08T18:59:04Z</time>
      </trkpt>
      <trkpt lat="59.9660253" lon="17.7091839">
        <ele>24.651</ele>
        <time>2013-03-08T18:59:05Z</time>
      </trkpt>
      <trkpt lat="59.9660328" lon="17.7092082">
        <ele>24.651</ele>
        <time>2013-03-08T18:59:06Z</time>
      </trkpt>
      <trkpt lat="59.9660396" lon="17.7092326">
        <ele>24.651</ele>
        <time>2013-03-08T18:59:07Z</time>
      </trkpt>
      <trkpt lat="59.966046" lon="17.7092574">
        <ele>24.651</ele>
        <time>2013-03-08T18:59:08Z</time>
      </trkpt>
      <trkpt lat="59.9660526" lon="17.7092823">
        <ele>24.651</ele>
        <time>2013-03-08T18:59:09Z</time>
      </trkpt>
      <trkpt lat="59.9660603" lon="17.7093051">
        <ele>24.1703</ele>
        <time>2013-03-08T18:59:10Z</time>
      </trkpt>
      <trkpt lat="59.966069" lon="17.7093272">
        <ele>24.1703</ele>
        <time>2013-03-08T18:59:11Z</time>
      </trkpt>
      <trkpt lat="59.9660774" lon="17.70935">
        <ele>24.1703</ele>
        <time>2013-03-08T18:59:12Z</time>
      </trkpt>
      <trkpt lat="59.9660853" lon="17.7093738">
        <ele>24.1703</ele>
        <time>2013-03-08T18:59:13Z</time>
      </trkpt>
      <trkpt lat="59.9660918" lon="17.7093977">
        <ele>23.6896</ele>
        <time>2013-03-08T18:59:14Z</time>
      </trkpt>
      <trkpt lat="59.9660986" lon="17.7094211">
        <ele>23.6896</ele>
        <time>2013-03-08T18:59:15Z</time>
      </trkpt>
      <trkpt lat="59.9661059" lon="17.7094449">
        <ele>23.6896</ele>
        <time>2013-03-08T18:59:16Z</time>
      </trkpt>
      <trkpt lat="59.9661127" lon="17.7094693">
        <ele>23.6896</ele>
        <time>2013-03-08T18:59:17Z</time>
      </trkpt>
      <trkpt lat="59.9661195" lon="17.7094941">
        <ele>23.6896</ele>
        <time>2013-03-08T18:59:18Z</time>
      </trkpt>
      <trkpt lat="59.9661252" lon="17.7095191">
        <ele>23.6896</ele>
        <time>2013-03-08T18:59:19Z</time>
      </trkpt>
      <trkpt lat="59.9661309" lon="17.7095439">
        <ele>23.209</ele>
        <time>2013-03-08T18:59:20Z</time>
      </trkpt>
      <trkpt lat="59.9661375" lon="17.709568">
        <ele>23.209</ele>
        <time>2013-03-08T18:59:21Z</time>
      </trkpt>
      <trkpt lat="59.9661449" lon="17.709592">
        <ele>23.209</ele>
        <time>2013-03-08T18:59:22Z</time>
      </trkpt>
      <trkpt lat="59.9661515" lon="17.7096165">
        <ele>23.209</ele>
        <time>2013-03-08T18:59:23Z</time>
      </trkpt>
      <trkpt lat="59.9661576" lon="17.7096413">
        <ele>23.209</ele>
        <time>2013-03-08T18:59:24Z</time>
      </trkpt>
      <trkpt lat="59.9661636" lon="17.7096665">
        <ele>23.209</ele>
        <time>2013-03-08T18:59:25Z</time>
      </trkpt>
      <trkpt lat="59.9661687" lon="17.7096924">
        <ele>23.209</ele>
        <time>2013-03-08T18:59:26Z</time>
      </trkpt>
      <trkpt lat="59.9661728" lon="17.7097186">
        <ele>23.209</ele>
        <time>2013-03-08T18:59:27Z</time>
      </trkpt>
      <trkpt lat="59.9661764" lon="17.7097438">
        <ele>23.209</ele>
        <time>2013-03-08T18:59:28Z</time>
      </trkpt>
      <trkpt lat="59.966181" lon="17.7097681">
        <ele>23.209</ele>
        <time>2013-03-08T18:59:29Z</time>
      </trkpt>
      <trkpt lat="59.9661858" lon="17.7097911">
        <ele>23.209</ele>
        <time>2013-03-08T18:59:30Z</time>
      </trkpt>
      <trkpt lat="59.9661931" lon="17.7098144">
        <ele>23.209</ele>
        <time>2013-03-08T18:59:31Z</time>
      </trkpt>
      <trkpt lat="59.9662004" lon="17.7098386">
        <ele>23.209</ele>
        <time>2013-03-08T18:59:32Z</time>
      </trkpt>
      <trkpt lat="59.9662076" lon="17.7098624">
        <ele>23.209</ele>
        <time>2013-03-08T18:59:33Z</time>
      </trkpt>
      <trkpt lat="59.9662151" lon="17.7098862">
        <ele>23.209</ele>
        <time>2013-03-08T18:59:34Z</time>
      </trkpt>
      <trkpt lat="59.9662236" lon="17.7099105">
        <ele>23.6896</ele>
        <time>2013-03-08T18:59:35Z</time>
      </trkpt>
      <trkpt lat="59.9662333" lon="17.709935">
        <ele>24.1703</ele>
        <time>2013-03-08T18:59:36Z</time>
      </trkpt>
      <trkpt lat="59.9662416" lon="17.7099604">
        <ele>24.1703</ele>
        <time>2013-03-08T18:59:37Z</time>
      </trkpt>
      <trkpt lat="59.9662494" lon="17.7099863">
        <ele>24.1703</ele>
        <time>2013-03-08T18:59:38Z</time>
      </trkpt>
      <trkpt lat="59.9662576" lon="17.7100101">
        <ele>24.651</ele>
        <time>2013-03-08T18:59:39Z</time>
      </trkpt>
      <trkpt lat="59.9662665" lon="17.7100329">
        <ele>24.651</ele>
        <time>2013-03-08T18:59:40Z</time>
      </trkpt>
      <trkpt lat="59.9662748" lon="17.7100567">
        <ele>24.651</ele>
        <time>2013-03-08T18:59:41Z</time>
      </trkpt>
      <trkpt lat="59.9662821" lon="17.7100811">
        <ele>25.1317</ele>
        <time>2013-03-08T18:59:42Z</time>
      </trkpt>
      <trkpt lat="59.9662889" lon="17.7101068">
        <ele>25.1317</ele>
        <time>2013-03-08T18:59:43Z</time>
      </trkpt>
      <trkpt lat="59.9662929" lon="17.7101338">
        <ele>25.1317</ele>
        <time>2013-03-08T18:59:44Z</time>
      </trkpt>
      <trkpt lat="59.9662971" lon="17.7101604">
        <ele>25.1317</ele>
        <time>2013-03-08T18:59:45Z</time>
      </trkpt>
      <trkpt lat="59.9663016" lon="17.7101865">
        <ele>25.1317</ele>
        <time>2013-03-08T18:59:46Z</time>
      </trkpt>
      <trkpt lat="59.966306" lon="17.7102116">
        <ele>25.1317</ele>
        <time>2013-03-08T18:59:47Z</time>
      </trkpt>
      <trkpt lat="59.9663112" lon="17.7102363">
        <ele>25.1317</ele>
        <time>2013-03-08T18:59:48Z</time>
      </trkpt>
      <trkpt lat="59.966318" lon="17.7102606">
        <ele>25.1317</ele>
        <time>2013-03-08T18:59:49Z</time>
      </trkpt>
      <trkpt lat="59.9663247" lon="17.7102845">
        <ele>25.1317</ele>
        <time>2013-03-08T18:59:50Z</time>
      </trkpt>
      <trkpt lat="59.9663316" lon="17.710309">
        <ele>25.1317</ele>
        <time>2013-03-08T18:59:51Z</time>
      </trkpt>
      <trkpt lat="59.9663381" lon="17.7103338">
        <ele>25.1317</ele>
        <time>2013-03-08T18:59:52Z</time>
      </trkpt>
      <trkpt lat="59.9663437" lon="17.7103587">
        <ele>25.1317</ele>
        <time>2013-03-08T18:59:53Z</time>
      </trkpt>
      <trkpt lat="59.9663483" lon="17.7103839">
        <ele>24.651</ele>
        <time>2013-03-08T18:59:54Z</time>
      </trkpt>
      <trkpt lat="59.9663532" lon="17.7104084">
        <ele>24.651</ele>
        <time>2013-03-08T18:59:55Z</time>
      </trkpt>
      <trkpt lat="59.9663594" lon="17.7104333">
        <ele>24.651</ele>
        <time>2013-03-08T18:59:56Z</time>
      </trkpt>
      <trkpt lat="59.9663659" lon="17.7104582">
        <ele>24.651</ele>
        <time>2013-03-08T18:59:57Z</time>
      </trkpt>
      <trkpt lat="59.9663726" lon="17.7104835">
        <ele>24.651</ele>
        <time>2013-03-08T18:59:58Z</time>
      </trkpt>
      <trkpt lat="59.966379" lon="17.7105084">
        <ele>24.651</ele>
        <time>2013-03-08T18:59:59Z</time>
      </trkpt>
      <trkpt lat="59.9663856" lon="17.7105323">
        <ele>24.651</ele>
        <time>2013-03-08T19:00:00Z</time>
      </trkpt>
      <trkpt lat="59.9663919" lon="17.7105574">
        <ele>24.651</ele>
        <time>2013-03-08T19:00:01Z</time>
      </trkpt>
      <trkpt lat="59.9663974" lon="17.7105821">
        <ele>24.651</ele>
        <time>2013-03-08T19:00:02Z</time>
      </trkpt>
      <trkpt lat="59.9664027" lon="17.7106068">
        <ele>24.651</ele>
        <time>2013-03-08T19:00:03Z</time>
      </trkpt>
      <trkpt lat="59.966408" lon="17.7106308">
        <ele>24.1703</ele>
        <time>2013-03-08T19:00:04Z</time>
      </trkpt>
      <trkpt lat="59.9664142" lon="17.7106546">
        <ele>24.1703</ele>
        <time>2013-03-08T19:00:05Z</time>
      </trkpt>
      <trkpt lat="59.9664202" lon="17.7106786">
        <ele>24.1703</ele>
        <time>2013-03-08T19:00:06Z</time>
      </trkpt>
      <trkpt lat="59.9664262" lon="17.7107023">
        <ele>24.1703</ele>
        <time>2013-03-08T19:00:07Z</time>
      </trkpt>
      <trkpt lat="59.9664318" lon="17.7107256">
        <ele>24.1703</ele>
        <time>2013-03-08T19:00:08Z</time>
      </trkpt>
      <trkpt lat="59.9664374" lon="17.7107488">
        <ele>24.1703</ele>
        <time>2013-03-08T19:00:09Z</time>
      </trkpt>
      <trkpt lat="59.9664431" lon="17.7107721">
        <ele>24.1703</ele>
        <time>2013-03-08T19:00:10Z</time>
      </trkpt>
      <trkpt lat="59.9664485" lon="17.7107959">
        <ele>24.1703</ele>
        <time>2013-03-08T19:00:11Z</time>
      </trkpt>
      <trkpt lat="59.9664534" lon="17.7108187">
        <ele>23.6896</ele>
        <time>2013-03-08T19:00:12Z</time>
      </trkpt>
      <trkpt lat="59.9664588" lon="17.7108421">
        <ele>23.6896</ele>
        <time>2013-03-08T19:00:13Z</time>
      </trkpt>
      <trkpt lat="59.9664641" lon="17.7108658">
        <ele>23.6896</ele>
        <time>2013-03-08T19:00:14Z</time>
      </trkpt>
      <trkpt lat="59.9664694" lon="17.7108881">
        <ele>23.209</ele>
        <time>2013-03-08T19:00:15Z</time>
      </trkpt>
      <trkpt lat="59.9664751" lon="17.7109109">
        <ele>23.209</ele>
        <time>2013-03-08T19:00:16Z</time>
      </trkpt>
      <trkpt lat="59.966481" lon="17.7109347">
        <ele>23.209</ele>
        <time>2013-03-08T19:00:17Z</time>
      </trkpt>
      <trkpt lat="59.966486" lon="17.7109574">
        <ele>23.209</ele>
        <time>2013-03-08T19:00:18Z</time>
      </trkpt>
      <trkpt lat="59.9664913" lon="17.7109806">
        <ele>22.7283</ele>
        <time>2013-03-08T19:00:19Z</time>
      </trkpt>
      <trkpt lat="59.9664961" lon="17.7110032">
        <ele>22.7283</ele>
        <time>2013-03-08T19:00:20Z</time>
      </trkpt>
      <trkpt lat="59.9665017" lon="17.7110267">
        <ele>22.2476</ele>
        <time>2013-03-08T19:00:21Z</time>
      </trkpt>
      <trkpt lat="59.9665075" lon="17.7110501">
        <ele>22.2476</ele>
        <time>2013-03-08T19:00:22Z</time>
      </trkpt>
      <trkpt lat="59.9665136" lon="17.7110731">
        <ele>22.2476</ele>
        <time>2013-03-08T19:00:23Z</time>
      </trkpt>
      <trkpt lat="59.9665195" lon="17.7110969">
        <ele>22.2476</ele>
        <time>2013-03-08T19:00:24Z</time>
      </trkpt>
      <trkpt lat="59.9665256" lon="17.7111207">
        <ele>22.2476</ele>
        <time>2013-03-08T19:00:25Z</time>
      </trkpt>
      <trkpt lat="59.9665316" lon="17.7111435">
        <ele>21.767</ele>
        <time>2013-03-08T19:00:26Z</time>
      </trkpt>
      <trkpt lat="59.9665373" lon="17.7111663">
        <ele>21.767</ele>
        <time>2013-03-08T19:00:27Z</time>
      </trkpt>
      <trkpt lat="59.9665435" lon="17.7111891">
        <ele>21.767</ele>
        <time>2013-03-08T19:00:28Z</time>
      </trkpt>
      <trkpt lat="59.9665495" lon="17.7112119">
        <ele>21.767</ele>
        <time>2013-03-08T19:00:29Z</time>
      </trkpt>
      <trkpt lat="59.9665559" lon="17.7112345">
        <ele>21.2864</ele>
        <time>2013-03-08T19:00:30Z</time>
      </trkpt>
      <trkpt lat="59.9665634" lon="17.7112573">
        <ele>21.767</ele>
        <time>2013-03-08T19:00:31Z</time>
      </trkpt>
      <trkpt lat="59.96657" lon="17.7112807">
        <ele>21.2864</ele>
        <time>2013-03-08T19:00:32Z</time>
      </trkpt>
      <trkpt lat="59.9665764" lon="17.7113044">
        <ele>21.767</ele>
        <time>2013-03-08T19:00:33Z</time>
      </trkpt>
      <trkpt lat="59.9665832" lon="17.7113283">
        <ele>21.767</ele>
        <time>2013-03-08T19:00:34Z</time>
      </trkpt>
      <trkpt lat="59.9665887" lon="17.7113554">
        <ele>21.2864</ele>
        <time>2013-03-08T19:00:35Z</time>
      </trkpt>
      <trkpt lat="59.9665954" lon="17.7113807">
        <ele>22.2476</ele>
        <time>2013-03-08T19:00:36Z</time>
      </trkpt>
      <trkpt lat="59.9666012" lon="17.7114051">
        <ele>22.7283</ele>
        <time>2013-03-08T19:00:37Z</time>
      </trkpt>
      <trkpt lat="59.9666027" lon="17.7114325">
        <ele>22.7283</ele>
        <time>2013-03-08T19:00:38Z</time>
      </trkpt>
      <trkpt lat="59.9666043" lon="17.71146">
        <ele>22.7283</ele>
        <time>2013-03-08T19:00:39Z</time>
      </trkpt>
      <trkpt lat="59.9666063" lon="17.711488">
        <ele>22.7283</ele>
        <time>2013-03-08T19:00:40Z</time>
      </trkpt>
      <trkpt lat="59.9666085" lon="17.711518">
        <ele>23.209</ele>
        <time>2013-03-08T19:00:41Z</time>
      </trkpt>
      <trkpt lat="59.9666098" lon="17.711547">
        <ele>23.209</ele>
        <time>2013-03-08T19:00:42Z</time>
      </trkpt>
      <trkpt lat="59.9666137" lon="17.7115719">
        <ele>23.209</ele>
        <time>2013-03-08T19:00:43Z</time>
      </trkpt>
      <trkpt lat="59.9666177" lon="17.7115937">
        <ele>22.7283</ele>
        <time>2013-03-08T19:00:44Z</time>
      </trkpt>
      <trkpt lat="59.9666215" lon="17.7116211">
        <ele>23.209</ele>
        <time>2013-03-08T19:00:45Z</time>
      </trkpt>
      <trkpt lat="59.9666256" lon="17.7116476">
        <ele>23.209</ele>
        <time>2013-03-08T19:00:46Z</time>
      </trkpt>
      <trkpt lat="59.9666298" lon="17.7116713">
        <ele>23.209</ele>
        <time>2013-03-08T19:00:47Z</time>
      </trkpt>
      <trkpt lat="59.9666345" lon="17.711694">
        <ele>23.209</ele>
        <time>2013-03-08T19:00:48Z</time>
      </trkpt>
      <trkpt lat="59.9666412" lon="17.7117124">
        <ele>23.6896</ele>
        <time>2013-03-08T19:00:49Z</time>
      </trkpt>
      <trkpt lat="59.9666521" lon="17.7117309">
        <ele>24.1703</ele>
        <time>2013-03-08T19:00:50Z</time>
      </trkpt>
      <trkpt lat="59.9666623" lon="17.7117554">
        <ele>24.1703</ele>
        <time>2013-03-08T19:00:51Z</time>
      </trkpt>
      <trkpt lat="59.9666723" lon="17.7117844">
        <ele>24.651</ele>
        <time>2013-03-08T19:00:52Z</time>
      </trkpt>
      <trkpt lat="59.9666801" lon="17.7118098">
        <ele>24.651</ele>
        <time>2013-03-08T19:00:53Z</time>
      </trkpt>
      <trkpt lat="59.9666884" lon="17.7118309">
        <ele>24.651</ele>
        <time>2013-03-08T19:00:54Z</time>
      </trkpt>
      <trkpt lat="59.966696" lon="17.7118526">
        <ele>24.651</ele>
        <time>2013-03-08T19:00:55Z</time>
      </trkpt>
      <trkpt lat="59.9667027" lon="17.7118754">
        <ele>24.1703</ele>
        <time>2013-03-08T19:00:56Z</time>
      </trkpt>
      <trkpt lat="59.9667104" lon="17.7118999">
        <ele>24.1703</ele>
        <time>2013-03-08T19:00:57Z</time>
      </trkpt>
      <trkpt lat="59.9667177" lon="17.7119236">
        <ele>24.1703</ele>
        <time>2013-03-08T19:00:58Z</time>
      </trkpt>
      <trkpt lat="59.9667255" lon="17.7119459">
        <ele>24.1703</ele>
        <time>2013-03-08T19:00:59Z</time>
      </trkpt>
      <trkpt lat="59.9667343" lon="17.7119698">
        <ele>23.6896</ele>
        <time>2013-03-08T19:01:00Z</time>
      </trkpt>
      <trkpt lat="59.9667426" lon="17.7119935">
        <ele>23.6896</ele>
        <time>2013-03-08T19:01:01Z</time>
      </trkpt>
      <trkpt lat="59.9667531" lon="17.7120173">
        <ele>24.1703</ele>
        <time>2013-03-08T19:01:02Z</time>
      </trkpt>
      <trkpt lat="59.9667649" lon="17.7120417">
        <ele>24.651</ele>
        <time>2013-03-08T19:01:03Z</time>
      </trkpt>
      <trkpt lat="59.9667743" lon="17.712065">
        <ele>25.1317</ele>
        <time>2013-03-08T19:01:04Z</time>
      </trkpt>
      <trkpt lat="59.9667836" lon="17.7120874">
        <ele>25.1317</ele>
        <time>2013-03-08T19:01:05Z</time>
      </trkpt>
      <trkpt lat="59.9667944" lon="17.7121085">
        <ele>25.1317</ele>
        <time>2013-03-08T19:01:06Z</time>
      </trkpt>
      <trkpt lat="59.9668059" lon="17.7121297">
        <ele>25.6123</ele>
        <time>2013-03-08T19:01:07Z</time>
      </trkpt>
      <trkpt lat="59.9668177" lon="17.712148">
        <ele>25.6123</ele>
        <time>2013-03-08T19:01:08Z</time>
      </trkpt>
      <trkpt lat="59.9668291" lon="17.7121667">
        <ele>25.6123</ele>
        <time>2013-03-08T19:01:09Z</time>
      </trkpt>
      <trkpt lat="59.966835" lon="17.7121902">
        <ele>25.6123</ele>
        <time>2013-03-08T19:01:10Z</time>
      </trkpt>
      <trkpt lat="59.9668409" lon="17.7122176">
        <ele>25.6123</ele>
        <time>2013-03-08T19:01:11Z</time>
      </trkpt>
      <trkpt lat="59.9668471" lon="17.7122437">
        <ele>25.6123</ele>
        <time>2013-03-08T19:01:12Z</time>
      </trkpt>
      <trkpt lat="59.9668536" lon="17.7122687">
        <ele>26.0929</ele>
        <time>2013-03-08T19:01:13Z</time>
      </trkpt>
      <trkpt lat="59.9668607" lon="17.7122923">
        <ele>25.6123</ele>
        <time>2013-03-08T19:01:14Z</time>
      </trkpt>
      <trkpt lat="59.9668684" lon="17.7123126">
        <ele>25.6123</ele>
        <time>2013-03-08T19:01:15Z</time>
      </trkpt>
      <trkpt lat="59.9668759" lon="17.7123329">
        <ele>25.6123</ele>
        <time>2013-03-08T19:01:16Z</time>
      </trkpt>
      <trkpt lat="59.9668825" lon="17.7123576">
        <ele>25.6123</ele>
        <time>2013-03-08T19:01:17Z</time>
      </trkpt>
      <trkpt lat="59.9668888" lon="17.7123813">
        <ele>25.6123</ele>
        <time>2013-03-08T19:01:18Z</time>
      </trkpt>
      <trkpt lat="59.966898" lon="17.7124031">
        <ele>26.0929</ele>
        <time>2013-03-08T19:01:19Z</time>
      </trkpt>
      <trkpt lat="59.9669074" lon="17.7124244">
        <ele>26.5736</ele>
        <time>2013-03-08T19:01:20Z</time>
      </trkpt>
      <trkpt lat="59.9669149" lon="17.7124459">
        <ele>26.5736</ele>
        <time>2013-03-08T19:01:21Z</time>
      </trkpt>
      <trkpt lat="59.9669224" lon="17.7124701">
        <ele>26.5736</ele>
        <time>2013-03-08T19:01:22Z</time>
      </trkpt>
      <trkpt lat="59.9669292" lon="17.7124955">
        <ele>26.5736</ele>
        <time>2013-03-08T19:01:23Z</time>
      </trkpt>
      <trkpt lat="59.9669364" lon="17.7125212">
        <ele>26.5736</ele>
        <time>2013-03-08T19:01:24Z</time>
      </trkpt>
      <trkpt lat="59.9669441" lon="17.7125476">
        <ele>27.0543</ele>
        <time>2013-03-08T19:01:25Z</time>
      </trkpt>
      <trkpt lat="59.9669529" lon="17.7125748">
        <ele>27.5349</ele>
        <time>2013-03-08T19:01:26Z</time>
      </trkpt>
      <trkpt lat="59.9669606" lon="17.7126013">
        <ele>27.5349</ele>
        <time>2013-03-08T19:01:27Z</time>
      </trkpt>
      <trkpt lat="59.9669676" lon="17.7126282">
        <ele>27.5349</ele>
        <time>2013-03-08T19:01:28Z</time>
      </trkpt>
      <trkpt lat="59.9669745" lon="17.7126613">
        <ele>27.5349</ele>
        <time>2013-03-08T19:01:29Z</time>
      </trkpt>
      <trkpt lat="59.9669799" lon="17.7126934">
        <ele>27.5349</ele>
        <time>2013-03-08T19:01:30Z</time>
      </trkpt>
      <trkpt lat="59.9669871" lon="17.7127202">
        <ele>27.5349</ele>
        <time>2013-03-08T19:01:31Z</time>
      </trkpt>
      <trkpt lat="59.9669944" lon="17.7127472">
        <ele>27.5349</ele>
        <time>2013-03-08T19:01:32Z</time>
      </trkpt>
      <trkpt lat="59.9670004" lon="17.7127719">
        <ele>27.5349</ele>
        <time>2013-03-08T19:01:33Z</time>
      </trkpt>
      <trkpt lat="59.9670073" lon="17.7127965">
        <ele>27.5349</ele>
        <time>2013-03-08T19:01:34Z</time>
      </trkpt>
      <trkpt lat="59.967015" lon="17.7128208">
        <ele>28.0155</ele>
        <time>2013-03-08T19:01:35Z</time>
      </trkpt>
      <trkpt lat="59.9670206" lon="17.7128482">
        <ele>28.0155</ele>
        <time>2013-03-08T19:01:36Z</time>
      </trkpt>
      <trkpt lat="59.9670255" lon="17.7128803">
        <ele>28.0155</ele>
        <time>2013-03-08T19:01:37Z</time>
      </trkpt>
      <trkpt lat="59.9670302" lon="17.7129133">
        <ele>27.5349</ele>
        <time>2013-03-08T19:01:38Z</time>
      </trkpt>
      <trkpt lat="59.9670362" lon="17.7129452">
        <ele>27.5349</ele>
        <time>2013-03-08T19:01:39Z</time>
      </trkpt>
      <trkpt lat="59.9670434" lon="17.7129724">
        <ele>27.5349</ele>
        <time>2013-03-08T19:01:40Z</time>
      </trkpt>
      <trkpt lat="59.9670497" lon="17.7129975">
        <ele>27.5349</ele>
        <time>2013-03-08T19:01:41Z</time>
      </trkpt>
      <trkpt lat="59.9670559" lon="17.7130226">
        <ele>28.0155</ele>
        <time>2013-03-08T19:01:42Z</time>
      </trkpt>
      <trkpt lat="59.9670624" lon="17.7130477">
        <ele>28.0155</ele>
        <time>2013-03-08T19:01:43Z</time>
      </trkpt>
      <trkpt lat="59.9670674" lon="17.7130742">
        <ele>27.5349</ele>
        <time>2013-03-08T19:01:44Z</time>
      </trkpt>
      <trkpt lat="59.9670736" lon="17.7130975">
        <ele>28.0155</ele>
        <time>2013-03-08T19:01:45Z</time>
      </trkpt>
      <trkpt lat="59.9670799" lon="17.7131166">
        <ele>28.0155</ele>
        <time>2013-03-08T19:01:46Z</time>
      </trkpt>
      <trkpt lat="59.9670864" lon="17.7131333">
        <ele>28.4962</ele>
        <time>2013-03-08T19:01:47Z</time>
      </trkpt>
      <trkpt lat="59.9670933" lon="17.7131529">
        <ele>28.9769</ele>
        <time>2013-03-08T19:01:48Z</time>
      </trkpt>
      <trkpt lat="59.9670996" lon="17.7131725">
        <ele>28.9769</ele>
        <time>2013-03-08T19:01:49Z</time>
      </trkpt>
      <trkpt lat="59.9671059" lon="17.7131977">
        <ele>28.9769</ele>
        <time>2013-03-08T19:01:50Z</time>
      </trkpt>
      <trkpt lat="59.9671125" lon="17.7132254">
        <ele>29.4575</ele>
        <time>2013-03-08T19:01:51Z</time>
      </trkpt>
      <trkpt lat="59.9671186" lon="17.7132502">
        <ele>29.9381</ele>
        <time>2013-03-08T19:01:52Z</time>
      </trkpt>
      <trkpt lat="59.9671247" lon="17.7132721">
        <ele>29.9381</ele>
        <time>2013-03-08T19:01:53Z</time>
      </trkpt>
      <trkpt lat="59.9671301" lon="17.7132936">
        <ele>30.4188</ele>
        <time>2013-03-08T19:01:54Z</time>
      </trkpt>
      <trkpt lat="59.9671349" lon="17.7133139">
        <ele>30.4188</ele>
        <time>2013-03-08T19:01:55Z</time>
      </trkpt>
      <trkpt lat="59.96714" lon="17.7133343">
        <ele>30.4188</ele>
        <time>2013-03-08T19:01:56Z</time>
      </trkpt>
      <trkpt lat="59.9671471" lon="17.7133559">
        <ele>30.8995</ele>
        <time>2013-03-08T19:01:57Z</time>
      </trkpt>
      <trkpt lat="59.9671525" lon="17.7133787">
        <ele>31.3801</ele>
        <time>2013-03-08T19:01:58Z</time>
      </trkpt>
      <trkpt lat="59.9671586" lon="17.7134031">
        <ele>31.3801</ele>
        <time>2013-03-08T19:01:59Z</time>
      </trkpt>
      <trkpt lat="59.9671648" lon="17.7134275">
        <ele>31.8607</ele>
        <time>2013-03-08T19:02:00Z</time>
      </trkpt>
      <trkpt lat="59.9671721" lon="17.7134522">
        <ele>31.8607</ele>
        <time>2013-03-08T19:02:01Z</time>
      </trkpt>
      <trkpt lat="59.9671781" lon="17.7134771">
        <ele>32.3416</ele>
        <time>2013-03-08T19:02:02Z</time>
      </trkpt>
      <trkpt lat="59.9671833" lon="17.7135035">
        <ele>32.8223</ele>
        <time>2013-03-08T19:02:03Z</time>
      </trkpt>
      <trkpt lat="59.9671887" lon="17.7135293">
        <ele>32.8223</ele>
        <time>2013-03-08T19:02:04Z</time>
      </trkpt>
      <trkpt lat="59.9671933" lon="17.7135533">
        <ele>33.3029</ele>
        <time>2013-03-08T19:02:05Z</time>
      </trkpt>
      <trkpt lat="59.967196" lon="17.7135792">
        <ele>33.3029</ele>
        <time>2013-03-08T19:02:06Z</time>
      </trkpt>
      <trkpt lat="59.9671996" lon="17.7136051">
        <ele>33.7834</ele>
        <time>2013-03-08T19:02:07Z</time>
      </trkpt>
      <trkpt lat="59.9672032" lon="17.7136315">
        <ele>33.7834</ele>
        <time>2013-03-08T19:02:08Z</time>
      </trkpt>
      <trkpt lat="59.967206" lon="17.7136564">
        <ele>33.7834</ele>
        <time>2013-03-08T19:02:09Z</time>
      </trkpt>
      <trkpt lat="59.9672052" lon="17.7136831">
        <ele>33.7834</ele>
        <time>2013-03-08T19:02:10Z</time>
      </trkpt>
      <trkpt lat="59.9672047" lon="17.7137093">
        <ele>34.2642</ele>
        <time>2013-03-08T19:02:11Z</time>
      </trkpt>
      <trkpt lat="59.967205" lon="17.7137346">
        <ele>34.2642</ele>
        <time>2013-03-08T19:02:12Z</time>
      </trkpt>
      <trkpt lat="59.9672083" lon="17.7137599">
        <ele>34.2642</ele>
        <time>2013-03-08T19:02:13Z</time>
      </trkpt>
      <trkpt lat="59.9672077" lon="17.7137843">
        <ele>33.7834</ele>
        <time>2013-03-08T19:02:14Z</time>
      </trkpt>
      <trkpt lat="59.967209" lon="17.7138107">
        <ele>34.2642</ele>
        <time>2013-03-08T19:02:15Z</time>
      </trkpt>
      <trkpt lat="59.9672109" lon="17.7138397">
        <ele>34.2642</ele>
        <time>2013-03-08T19:02:16Z</time>
      </trkpt>
      <trkpt lat="59.9672115" lon="17.7138657">
        <ele>34.2642</ele>
        <time>2013-03-08T19:02:17Z</time>
      </trkpt>
      <trkpt lat="59.9672143" lon="17.7138903">
        <ele>34.2642</ele>
        <time>2013-03-08T19:02:18Z</time>
      </trkpt>
      <trkpt lat="59.9672187" lon="17.7139164">
        <ele>34.2642</ele>
        <time>2013-03-08T19:02:19Z</time>
      </trkpt>
      <trkpt lat="59.9672248" lon="17.7139424">
        <ele>34.7449</ele>
        <time>2013-03-08T19:02:20Z</time>
      </trkpt>
      <trkpt lat="59.9672297" lon="17.7139698">
        <ele>34.2642</ele>
        <time>2013-03-08T19:02:21Z</time>
      </trkpt>
      <trkpt lat="59.9672337" lon="17.7139978">
        <ele>34.2642</ele>
        <time>2013-03-08T19:02:22Z</time>
      </trkpt>
      <trkpt lat="59.9672389" lon="17.7140256">
        <ele>33.7834</ele>
        <time>2013-03-08T19:02:23Z</time>
      </trkpt>
      <trkpt lat="59.9672439" lon="17.7140545">
        <ele>33.7834</ele>
        <time>2013-03-08T19:02:24Z</time>
      </trkpt>
      <trkpt lat="59.9672487" lon="17.714083">
        <ele>33.7834</ele>
        <time>2013-03-08T19:02:25Z</time>
      </trkpt>
      <trkpt lat="59.9672532" lon="17.7141122">
        <ele>33.3029</ele>
        <time>2013-03-08T19:02:26Z</time>
      </trkpt>
      <trkpt lat="59.9672586" lon="17.714141">
        <ele>33.7834</ele>
        <time>2013-03-08T19:02:27Z</time>
      </trkpt>
      <trkpt lat="59.9672632" lon="17.7141687">
        <ele>33.7834</ele>
        <time>2013-03-08T19:02:28Z</time>
      </trkpt>
      <trkpt lat="59.9672665" lon="17.7141956">
        <ele>33.7834</ele>
        <time>2013-03-08T19:02:29Z</time>
      </trkpt>
      <trkpt lat="59.9672689" lon="17.7142215">
        <ele>33.7834</ele>
        <time>2013-03-08T19:02:30Z</time>
      </trkpt>
      <trkpt lat="59.9672729" lon="17.7142503">
        <ele>33.3029</ele>
        <time>2013-03-08T19:02:31Z</time>
      </trkpt>
      <trkpt lat="59.9672784" lon="17.7142769">
        <ele>33.3029</ele>
        <time>2013-03-08T19:02:32Z</time>
      </trkpt>
      <trkpt lat="59.9672819" lon="17.7142972">
        <ele>33.3029</ele>
        <time>2013-03-08T19:02:33Z</time>
      </trkpt>
      <trkpt lat="59.967285" lon="17.714323">
        <ele>32.8223</ele>
        <time>2013-03-08T19:02:34Z</time>
      </trkpt>
      <trkpt lat="59.9672897" lon="17.7143524">
        <ele>32.8223</ele>
        <time>2013-03-08T19:02:35Z</time>
      </trkpt>
      <trkpt lat="59.9672939" lon="17.7143726">
        <ele>32.3416</ele>
        <time>2013-03-08T19:02:36Z</time>
      </trkpt>
      <trkpt lat="59.967299" lon="17.7143962">
        <ele>32.3416</ele>
        <time>2013-03-08T19:02:37Z</time>
      </trkpt>
      <trkpt lat="59.9673031" lon="17.714422">
        <ele>32.3416</ele>
        <time>2013-03-08T19:02:38Z</time>
      </trkpt>
      <trkpt lat="59.9673057" lon="17.7144405">
        <ele>31.8607</ele>
        <time>2013-03-08T19:02:39Z</time>
      </trkpt>
      <trkpt lat="59.9673089" lon="17.7144638">
        <ele>31.3801</ele>
        <time>2013-03-08T19:02:40Z</time>
      </trkpt>
      <trkpt lat="59.9673136" lon="17.714494">
        <ele>31.3801</ele>
        <time>2013-03-08T19:02:41Z</time>
      </trkpt>
      <trkpt lat="59.9673172" lon="17.7145202">
        <ele>30.8995</ele>
        <time>2013-03-08T19:02:42Z</time>
      </trkpt>
      <trkpt lat="59.9673218" lon="17.7145466">
        <ele>30.8995</ele>
        <time>2013-03-08T19:02:43Z</time>
      </trkpt>
      <trkpt lat="59.9673271" lon="17.7145727">
        <ele>30.8995</ele>
        <time>2013-03-08T19:02:44Z</time>
      </trkpt>
      <trkpt lat="59.967332" lon="17.7145986">
        <ele>30.4188</ele>
        <time>2013-03-08T19:02:45Z</time>
      </trkpt>
      <trkpt lat="59.9673363" lon="17.714625">
        <ele>30.4188</ele>
        <time>2013-03-08T19:02:46Z</time>
      </trkpt>
      <trkpt lat="59.967341" lon="17.7146478">
        <ele>30.4188</ele>
        <time>2013-03-08T19:02:47Z</time>
      </trkpt>
      <trkpt lat="59.9673451" lon="17.7146726">
        <ele>29.9381</ele>
        <time>2013-03-08T19:02:48Z</time>
      </trkpt>
      <trkpt lat="59.9673475" lon="17.7146982">
        <ele>29.9381</ele>
        <time>2013-03-08T19:02:49Z</time>
      </trkpt>
      <trkpt lat="59.9673508" lon="17.714725">
        <ele>29.4575</ele>
        <time>2013-03-08T19:02:50Z</time>
      </trkpt>
      <trkpt lat="59.9673553" lon="17.7147521">
        <ele>29.4575</ele>
        <time>2013-03-08T19:02:51Z</time>
      </trkpt>
      <trkpt lat="59.9673591" lon="17.7147802">
        <ele>28.9769</ele>
        <time>2013-03-08T19:02:52Z</time>
      </trkpt>
      <trkpt lat="59.9673648" lon="17.7148072">
        <ele>29.4575</ele>
        <time>2013-03-08T19:02:53Z</time>
      </trkpt>
      <trkpt lat="59.9673725" lon="17.7148322">
        <ele>29.4575</ele>
        <time>2013-03-08T19:02:54Z</time>
      </trkpt>
      <trkpt lat="59.9673814" lon="17.714857">
        <ele>29.4575</ele>
        <time>2013-03-08T19:02:55Z</time>
      </trkpt>
      <trkpt lat="59.9673896" lon="17.7148816">
        <ele>29.4575</ele>
        <time>2013-03-08T19:02:56Z</time>
      </trkpt>
      <trkpt lat="59.9674021" lon="17.7149057">
        <ele>29.9381</ele>
        <time>2013-03-08T19:02:57Z</time>
      </trkpt>
      <trkpt lat="59.9674087" lon="17.714932">
        <ele>29.9381</ele>
        <time>2013-03-08T19:02:58Z</time>
      </trkpt>
      <trkpt lat="59.9674165" lon="17.714955">
        <ele>30.4188</ele>
        <time>2013-03-08T19:02:59Z</time>
      </trkpt>
      <trkpt lat="59.9674212" lon="17.7149839">
        <ele>30.4188</ele>
        <time>2013-03-08T19:03:00Z</time>
      </trkpt>
      <trkpt lat="59.9674298" lon="17.7150125">
        <ele>30.8995</ele>
        <time>2013-03-08T19:03:01Z</time>
      </trkpt>
      <trkpt lat="59.9674383" lon="17.7150429">
        <ele>31.3801</ele>
        <time>2013-03-08T19:03:02Z</time>
      </trkpt>
      <trkpt lat="59.9674431" lon="17.7150735">
        <ele>30.8995</ele>
        <time>2013-03-08T19:03:03Z</time>
      </trkpt>
      <trkpt lat="59.9674462" lon="17.7151064">
        <ele>31.3801</ele>
        <time>2013-03-08T19:03:04Z</time>
      </trkpt>
      <trkpt lat="59.9674514" lon="17.7151306">
        <ele>31.3801</ele>
        <time>2013-03-08T19:03:05Z</time>
      </trkpt>
      <trkpt lat="59.9674619" lon="17.7151516">
        <ele>32.3416</ele>
        <time>2013-03-08T19:03:06Z</time>
      </trkpt>
      <trkpt lat="59.9674679" lon="17.7151814">
        <ele>33.3029</ele>
        <time>2013-03-08T19:03:07Z</time>
      </trkpt>
      <trkpt lat="59.9674627" lon="17.7152242">
        <ele>30.4188</ele>
        <time>2013-03-08T19:03:08Z</time>
      </trkpt>
      <trkpt lat="59.9674622" lon="17.7152604">
        <ele>28.9769</ele>
        <time>2013-03-08T19:03:09Z</time>
      </trkpt>
      <trkpt lat="59.9674641" lon="17.7152954">
        <ele>28.0155</ele>
        <time>2013-03-08T19:03:10Z</time>
      </trkpt>
      <trkpt lat="59.9674627" lon="17.7153296">
        <ele>26.0929</ele>
        <time>2013-03-08T19:03:11Z</time>
      </trkpt>
      <trkpt lat="59.9674633" lon="17.7153631">
        <ele>25.6123</ele>
        <time>2013-03-08T19:03:12Z</time>
      </trkpt>
      <trkpt lat="59.9674635" lon="17.7153939">
        <ele>24.651</ele>
        <time>2013-03-08T19:03:13Z</time>
      </trkpt>
      <trkpt lat="59.9674632" lon="17.7154249">
        <ele>24.1703</ele>
        <time>2013-03-08T19:03:14Z</time>
      </trkpt>
      <trkpt lat="59.9674652" lon="17.7154554">
        <ele>23.6896</ele>
        <time>2013-03-08T19:03:15Z</time>
      </trkpt>
      <trkpt lat="59.9674718" lon="17.715487">
        <ele>23.6896</ele>
        <time>2013-03-08T19:03:16Z</time>
      </trkpt>
      <trkpt lat="59.9674761" lon="17.7155191">
        <ele>23.6896</ele>
        <time>2013-03-08T19:03:17Z</time>
      </trkpt>
      <trkpt lat="59.9674802" lon="17.7155492">
        <ele>24.1703</ele>
        <time>2013-03-08T19:03:18Z</time>
      </trkpt>
      <trkpt lat="59.967486" lon="17.7155754">
        <ele>23.6896</ele>
        <time>2013-03-08T19:03:19Z</time>
      </trkpt>
      <trkpt lat="59.9674915" lon="17.7156034">
        <ele>23.6896</ele>
        <time>2013-03-08T19:03:20Z</time>
      </trkpt>
      <trkpt lat="59.9674958" lon="17.7156362">
        <ele>23.6896</ele>
        <time>2013-03-08T19:03:21Z</time>
      </trkpt>
      <trkpt lat="59.9675001" lon="17.715666">
        <ele>23.6896</ele>
        <time>2013-03-08T19:03:22Z</time>
      </trkpt>
      <trkpt lat="59.9675067" lon="17.7156937">
        <ele>23.6896</ele>
        <time>2013-03-08T19:03:23Z</time>
      </trkpt>
      <trkpt lat="59.9675138" lon="17.7157233">
        <ele>24.1703</ele>
        <time>2013-03-08T19:03:24Z</time>
      </trkpt>
      <trkpt lat="59.967521" lon="17.7157526">
        <ele>24.651</ele>
        <time>2013-03-08T19:03:25Z</time>
      </trkpt>
      <trkpt lat="59.9675274" lon="17.7157807">
        <ele>25.1317</ele>
        <time>2013-03-08T19:03:26Z</time>
      </trkpt>
      <trkpt lat="59.9675342" lon="17.7158082">
        <ele>25.1317</ele>
        <time>2013-03-08T19:03:27Z</time>
      </trkpt>
      <trkpt lat="59.9675398" lon="17.7158355">
        <ele>25.1317</ele>
        <time>2013-03-08T19:03:28Z</time>
      </trkpt>
      <trkpt lat="59.9675455" lon="17.7158619">
        <ele>25.1317</ele>
        <time>2013-03-08T19:03:29Z</time>
      </trkpt>
      <trkpt lat="59.9675513" lon="17.7158869">
        <ele>25.1317</ele>
        <time>2013-03-08T19:03:30Z</time>
      </trkpt>
      <trkpt lat="59.9675583" lon="17.7159114">
        <ele>24.651</ele>
        <time>2013-03-08T19:03:31Z</time>
      </trkpt>
      <trkpt lat="59.9675643" lon="17.7159378">
        <ele>24.651</ele>
        <time>2013-03-08T19:03:32Z</time>
      </trkpt>
      <trkpt lat="59.9675703" lon="17.7159642">
        <ele>24.651</ele>
        <time>2013-03-08T19:03:33Z</time>
      </trkpt>
      <trkpt lat="59.9675773" lon="17.7159895">
        <ele>24.651</ele>
        <time>2013-03-08T19:03:34Z</time>
      </trkpt>
      <trkpt lat="59.9675843" lon="17.7160138">
        <ele>24.651</ele>
        <time>2013-03-08T19:03:35Z</time>
      </trkpt>
      <trkpt lat="59.9675911" lon="17.7160393">
        <ele>24.1703</ele>
        <time>2013-03-08T19:03:36Z</time>
      </trkpt>
      <trkpt lat="59.9675984" lon="17.7160645">
        <ele>24.1703</ele>
        <time>2013-03-08T19:03:37Z</time>
      </trkpt>
      <trkpt lat="59.9676055" lon="17.7160889">
        <ele>24.1703</ele>
        <time>2013-03-08T19:03:38Z</time>
      </trkpt>
      <trkpt lat="59.9676145" lon="17.7161146">
        <ele>24.1703</ele>
        <time>2013-03-08T19:03:39Z</time>
      </trkpt>
      <trkpt lat="59.9676239" lon="17.7161398">
        <ele>24.1703</ele>
        <time>2013-03-08T19:03:40Z</time>
      </trkpt>
      <trkpt lat="59.9676322" lon="17.7161647">
        <ele>24.1703</ele>
        <time>2013-03-08T19:03:41Z</time>
      </trkpt>
      <trkpt lat="59.9676388" lon="17.7161901">
        <ele>23.6896</ele>
        <time>2013-03-08T19:03:42Z</time>
      </trkpt>
      <trkpt lat="59.9676461" lon="17.7162148">
        <ele>23.6896</ele>
        <time>2013-03-08T19:03:43Z</time>
      </trkpt>
      <trkpt lat="59.9676541" lon="17.7162392">
        <ele>23.209</ele>
        <time>2013-03-08T19:03:44Z</time>
      </trkpt>
      <trkpt lat="59.9676615" lon="17.716264">
        <ele>23.209</ele>
        <time>2013-03-08T19:03:45Z</time>
      </trkpt>
      <trkpt lat="59.9676682" lon="17.716289">
        <ele>22.7283</ele>
        <time>2013-03-08T19:03:46Z</time>
      </trkpt>
      <trkpt lat="59.9676756" lon="17.7163132">
        <ele>22.2476</ele>
        <time>2013-03-08T19:03:47Z</time>
      </trkpt>
      <trkpt lat="59.9676839" lon="17.7163381">
        <ele>22.2476</ele>
        <time>2013-03-08T19:03:48Z</time>
      </trkpt>
      <trkpt lat="59.9676921" lon="17.7163612">
        <ele>22.2476</ele>
        <time>2013-03-08T19:03:49Z</time>
      </trkpt>
      <trkpt lat="59.967704" lon="17.7163809">
        <ele>22.2476</ele>
        <time>2013-03-08T19:03:50Z</time>
      </trkpt>
      <trkpt lat="59.9677149" lon="17.7164002">
        <ele>22.2476</ele>
        <time>2013-03-08T19:03:51Z</time>
      </trkpt>
      <trkpt lat="59.9677251" lon="17.7164215">
        <ele>22.2476</ele>
        <time>2013-03-08T19:03:52Z</time>
      </trkpt>
      <trkpt lat="59.9677346" lon="17.7164433">
        <ele>22.2476</ele>
        <time>2013-03-08T19:03:53Z</time>
      </trkpt>
      <trkpt lat="59.9677445" lon="17.716464">
        <ele>22.2476</ele>
        <time>2013-03-08T19:03:54Z</time>
      </trkpt>
      <trkpt lat="59.9677534" lon="17.7164852">
        <ele>22.2476</ele>
        <time>2013-03-08T19:03:55Z</time>
      </trkpt>
      <trkpt lat="59.9677627" lon="17.716507">
        <ele>22.2476</ele>
        <time>2013-03-08T19:03:56Z</time>
      </trkpt>
      <trkpt lat="59.9677719" lon="17.716528">
        <ele>22.2476</ele>
        <time>2013-03-08T19:03:57Z</time>
      </trkpt>
      <trkpt lat="59.9677823" lon="17.7165477">
        <ele>22.2476</ele>
        <time>2013-03-08T19:03:58Z</time>
      </trkpt>
      <trkpt lat="59.9677947" lon="17.7165676">
        <ele>22.7283</ele>
        <time>2013-03-08T19:03:59Z</time>
      </trkpt>
      <trkpt lat="59.9678069" lon="17.7165879">
        <ele>23.209</ele>
        <time>2013-03-08T19:04:00Z</time>
      </trkpt>
      <trkpt lat="59.9678192" lon="17.7166072">
        <ele>23.209</ele>
        <time>2013-03-08T19:04:01Z</time>
      </trkpt>
      <trkpt lat="59.9678337" lon="17.7166247">
        <ele>23.6896</ele>
        <time>2013-03-08T19:04:02Z</time>
      </trkpt>
      <trkpt lat="59.9678477" lon="17.7166416">
        <ele>23.6896</ele>
        <time>2013-03-08T19:04:03Z</time>
      </trkpt>
      <trkpt lat="59.967861" lon="17.7166591">
        <ele>24.1703</ele>
        <time>2013-03-08T19:04:04Z</time>
      </trkpt>
      <trkpt lat="59.967873" lon="17.7166759">
        <ele>24.1703</ele>
        <time>2013-03-08T19:04:05Z</time>
      </trkpt>
      <trkpt lat="59.9678854" lon="17.7166943">
        <ele>24.651</ele>
        <time>2013-03-08T19:04:06Z</time>
      </trkpt>
      <trkpt lat="59.9678979" lon="17.7167146">
        <ele>25.1317</ele>
        <time>2013-03-08T19:04:07Z</time>
      </trkpt>
      <trkpt lat="59.9679088" lon="17.7167354">
        <ele>25.1317</ele>
        <time>2013-03-08T19:04:08Z</time>
      </trkpt>
      <trkpt lat="59.9679201" lon="17.7167551">
        <ele>25.1317</ele>
        <time>2013-03-08T19:04:09Z</time>
      </trkpt>
      <trkpt lat="59.9679325" lon="17.7167722">
        <ele>25.1317</ele>
        <time>2013-03-08T19:04:10Z</time>
      </trkpt>
      <trkpt lat="59.9679463" lon="17.7167882">
        <ele>25.6123</ele>
        <time>2013-03-08T19:04:11Z</time>
      </trkpt>
      <trkpt lat="59.9679605" lon="17.7168042">
        <ele>25.6123</ele>
        <time>2013-03-08T19:04:12Z</time>
      </trkpt>
      <trkpt lat="59.967975" lon="17.716822">
        <ele>26.0929</ele>
        <time>2013-03-08T19:04:13Z</time>
      </trkpt>
      <trkpt lat="59.967989" lon="17.7168389">
        <ele>26.5736</ele>
        <time>2013-03-08T19:04:14Z</time>
      </trkpt>
      <trkpt lat="59.9680035" lon="17.7168555">
        <ele>27.0543</ele>
        <time>2013-03-08T19:04:15Z</time>
      </trkpt>
      <trkpt lat="59.9680169" lon="17.7168732">
        <ele>27.0543</ele>
        <time>2013-03-08T19:04:16Z</time>
      </trkpt>
      <trkpt lat="59.9680298" lon="17.7168904">
        <ele>27.0543</ele>
        <time>2013-03-08T19:04:17Z</time>
      </trkpt>
      <trkpt lat="59.9680447" lon="17.7169079">
        <ele>27.5349</ele>
        <time>2013-03-08T19:04:18Z</time>
      </trkpt>
      <trkpt lat="59.9680593" lon="17.7169241">
        <ele>27.5349</ele>
        <time>2013-03-08T19:04:19Z</time>
      </trkpt>
      <trkpt lat="59.9680733" lon="17.7169408">
        <ele>28.0155</ele>
        <time>2013-03-08T19:04:20Z</time>
      </trkpt>
      <trkpt lat="59.9680869" lon="17.7169586">
        <ele>28.0155</ele>
        <time>2013-03-08T19:04:21Z</time>
      </trkpt>
      <trkpt lat="59.9681007" lon="17.7169774">
        <ele>28.4962</ele>
        <time>2013-03-08T19:04:22Z</time>
      </trkpt>
      <trkpt lat="59.9681143" lon="17.7169939">
        <ele>28.4962</ele>
        <time>2013-03-08T19:04:23Z</time>
      </trkpt>
      <trkpt lat="59.9681276" lon="17.7170079">
        <ele>28.9769</ele>
        <time>2013-03-08T19:04:24Z</time>
      </trkpt>
      <trkpt lat="59.9681409" lon="17.717023">
        <ele>28.9769</ele>
        <time>2013-03-08T19:04:25Z</time>
      </trkpt>
      <trkpt lat="59.9681553" lon="17.7170365">
        <ele>28.9769</ele>
        <time>2013-03-08T19:04:26Z</time>
      </trkpt>
      <trkpt lat="59.968169" lon="17.7170508">
        <ele>29.4575</ele>
        <time>2013-03-08T19:04:27Z</time>
      </trkpt>
      <trkpt lat="59.9681812" lon="17.7170675">
        <ele>29.4575</ele>
        <time>2013-03-08T19:04:28Z</time>
      </trkpt>
      <trkpt lat="59.9681929" lon="17.7170808">
        <ele>28.9769</ele>
        <time>2013-03-08T19:04:29Z</time>
      </trkpt>
      <trkpt lat="59.9682055" lon="17.7170917">
        <ele>28.9769</ele>
        <time>2013-03-08T19:04:30Z</time>
      </trkpt>
      <trkpt lat="59.9682198" lon="17.7171063">
        <ele>29.4575</ele>
        <time>2013-03-08T19:04:31Z</time>
      </trkpt>
      <trkpt lat="59.9682319" lon="17.7171208">
        <ele>29.4575</ele>
        <time>2013-03-08T19:04:32Z</time>
      </trkpt>
      <trkpt lat="59.9682438" lon="17.7171352">
        <ele>29.4575</ele>
        <time>2013-03-08T19:04:33Z</time>
      </trkpt>
      <trkpt lat="59.9682561" lon="17.7171484">
        <ele>29.4575</ele>
        <time>2013-03-08T19:04:34Z</time>
      </trkpt>
      <trkpt lat="59.9682687" lon="17.7171601">
        <ele>29.4575</ele>
        <time>2013-03-08T19:04:35Z</time>
      </trkpt>
      <trkpt lat="59.9682823" lon="17.7171696">
        <ele>29.4575</ele>
        <time>2013-03-08T19:04:36Z</time>
      </trkpt>
      <trkpt lat="59.9682961" lon="17.7171798">
        <ele>28.9769</ele>
        <time>2013-03-08T19:04:37Z</time>
      </trkpt>
      <trkpt lat="59.9683097" lon="17.7171907">
        <ele>28.9769</ele>
        <time>2013-03-08T19:04:38Z</time>
      </trkpt>
      <trkpt lat="59.9683234" lon="17.7172025">
        <ele>28.9769</ele>
        <time>2013-03-08T19:04:39Z</time>
      </trkpt>
      <trkpt lat="59.968336" lon="17.7172146">
        <ele>28.9769</ele>
        <time>2013-03-08T19:04:40Z</time>
      </trkpt>
      <trkpt lat="59.9683491" lon="17.717225">
        <ele>28.9769</ele>
        <time>2013-03-08T19:04:41Z</time>
      </trkpt>
      <trkpt lat="59.968363" lon="17.7172337">
        <ele>28.9769</ele>
        <time>2013-03-08T19:04:42Z</time>
      </trkpt>
      <trkpt lat="59.9683775" lon="17.7172423">
        <ele>28.9769</ele>
        <time>2013-03-08T19:04:43Z</time>
      </trkpt>
      <trkpt lat="59.968391" lon="17.7172515">
        <ele>28.9769</ele>
        <time>2013-03-08T19:04:44Z</time>
      </trkpt>
      <trkpt lat="59.9684039" lon="17.7172613">
        <ele>28.9769</ele>
        <time>2013-03-08T19:04:45Z</time>
      </trkpt>
      <trkpt lat="59.9684173" lon="17.7172715">
        <ele>28.9769</ele>
        <time>2013-03-08T19:04:46Z</time>
      </trkpt>
      <trkpt lat="59.9684308" lon="17.7172817">
        <ele>28.9769</ele>
        <time>2013-03-08T19:04:47Z</time>
      </trkpt>
      <trkpt lat="59.9684448" lon="17.7172908">
        <ele>28.9769</ele>
        <time>2013-03-08T19:04:48Z</time>
      </trkpt>
      <trkpt lat="59.9684591" lon="17.7172999">
        <ele>28.9769</ele>
        <time>2013-03-08T19:04:49Z</time>
      </trkpt>
      <trkpt lat="59.9684733" lon="17.7173078">
        <ele>28.9769</ele>
        <time>2013-03-08T19:04:50Z</time>
      </trkpt>
      <trkpt lat="59.9684879" lon="17.7173147">
        <ele>28.9769</ele>
        <time>2013-03-08T19:04:51Z</time>
      </trkpt>
      <trkpt lat="59.9685027" lon="17.7173227">
        <ele>28.9769</ele>
        <time>2013-03-08T19:04:52Z</time>
      </trkpt>
      <trkpt lat="59.9685164" lon="17.7173316">
        <ele>28.9769</ele>
        <time>2013-03-08T19:04:53Z</time>
      </trkpt>
      <trkpt lat="59.9685297" lon="17.7173404">
        <ele>28.9769</ele>
        <time>2013-03-08T19:04:54Z</time>
      </trkpt>
      <trkpt lat="59.968543" lon="17.7173478">
        <ele>28.9769</ele>
        <time>2013-03-08T19:04:55Z</time>
      </trkpt>
      <trkpt lat="59.9685567" lon="17.7173549">
        <ele>28.9769</ele>
        <time>2013-03-08T19:04:56Z</time>
      </trkpt>
      <trkpt lat="59.9685705" lon="17.7173615">
        <ele>28.9769</ele>
        <time>2013-03-08T19:04:57Z</time>
      </trkpt>
      <trkpt lat="59.9685843" lon="17.7173667">
        <ele>28.9769</ele>
        <time>2013-03-08T19:04:58Z</time>
      </trkpt>
      <trkpt lat="59.9685982" lon="17.7173715">
        <ele>29.4575</ele>
        <time>2013-03-08T19:04:59Z</time>
      </trkpt>
      <trkpt lat="59.9686117" lon="17.7173777">
        <ele>29.4575</ele>
        <time>2013-03-08T19:05:00Z</time>
      </trkpt>
      <trkpt lat="59.9686252" lon="17.7173845">
        <ele>29.4575</ele>
        <time>2013-03-08T19:05:01Z</time>
      </trkpt>
      <trkpt lat="59.9686386" lon="17.717391">
        <ele>29.4575</ele>
        <time>2013-03-08T19:05:02Z</time>
      </trkpt>
      <trkpt lat="59.9686523" lon="17.717398">
        <ele>29.4575</ele>
        <time>2013-03-08T19:05:03Z</time>
      </trkpt>
      <trkpt lat="59.9686655" lon="17.7174056">
        <ele>29.4575</ele>
        <time>2013-03-08T19:05:04Z</time>
      </trkpt>
      <trkpt lat="59.9686791" lon="17.7174119">
        <ele>29.4575</ele>
        <time>2013-03-08T19:05:05Z</time>
      </trkpt>
      <trkpt lat="59.9686931" lon="17.7174181">
        <ele>29.4575</ele>
        <time>2013-03-08T19:05:06Z</time>
      </trkpt>
      <trkpt lat="59.9687072" lon="17.7174243">
        <ele>29.4575</ele>
        <time>2013-03-08T19:05:07Z</time>
      </trkpt>
      <trkpt lat="59.9687209" lon="17.7174294">
        <ele>29.9381</ele>
        <time>2013-03-08T19:05:08Z</time>
      </trkpt>
      <trkpt lat="59.9687347" lon="17.7174337">
        <ele>29.9381</ele>
        <time>2013-03-08T19:05:09Z</time>
      </trkpt>
      <trkpt lat="59.9687483" lon="17.7174393">
        <ele>29.9381</ele>
        <time>2013-03-08T19:05:10Z</time>
      </trkpt>
      <trkpt lat="59.9687617" lon="17.7174466">
        <ele>29.9381</ele>
        <time>2013-03-08T19:05:11Z</time>
      </trkpt>
      <trkpt lat="59.9687753" lon="17.7174535">
        <ele>29.9381</ele>
        <time>2013-03-08T19:05:12Z</time>
      </trkpt>
      <trkpt lat="59.9687893" lon="17.7174605">
        <ele>29.9381</ele>
        <time>2013-03-08T19:05:13Z</time>
      </trkpt>
      <trkpt lat="59.9688034" lon="17.7174669">
        <ele>29.9381</ele>
        <time>2013-03-08T19:05:14Z</time>
      </trkpt>
      <trkpt lat="59.9688174" lon="17.7174716">
        <ele>30.4188</ele>
        <time>2013-03-08T19:05:15Z</time>
      </trkpt>
      <trkpt lat="59.9688312" lon="17.7174736">
        <ele>30.4188</ele>
        <time>2013-03-08T19:05:16Z</time>
      </trkpt>
      <trkpt lat="59.9688443" lon="17.7174728">
        <ele>30.4188</ele>
        <time>2013-03-08T19:05:17Z</time>
      </trkpt>
      <trkpt lat="59.9688556" lon="17.7174678">
        <ele>30.4188</ele>
        <time>2013-03-08T19:05:18Z</time>
      </trkpt>
      <trkpt lat="59.968867" lon="17.7174558">
        <ele>30.4188</ele>
        <time>2013-03-08T19:05:19Z</time>
      </trkpt>
      <trkpt lat="59.9688813" lon="17.7174409">
        <ele>30.4188</ele>
        <time>2013-03-08T19:05:20Z</time>
      </trkpt>
      <trkpt lat="59.9688951" lon="17.7174288">
        <ele>30.8995</ele>
        <time>2013-03-08T19:05:21Z</time>
      </trkpt>
      <trkpt lat="59.9689091" lon="17.7174191">
        <ele>30.8995</ele>
        <time>2013-03-08T19:05:22Z</time>
      </trkpt>
      <trkpt lat="59.9689234" lon="17.7174083">
        <ele>30.8995</ele>
        <time>2013-03-08T19:05:23Z</time>
      </trkpt>
      <trkpt lat="59.9689365" lon="17.7173958">
        <ele>30.8995</ele>
        <time>2013-03-08T19:05:24Z</time>
      </trkpt>
      <trkpt lat="59.9689499" lon="17.7173822">
        <ele>30.8995</ele>
        <time>2013-03-08T19:05:25Z</time>
      </trkpt>
      <trkpt lat="59.9689642" lon="17.7173687">
        <ele>30.8995</ele>
        <time>2013-03-08T19:05:26Z</time>
      </trkpt>
      <trkpt lat="59.9689784" lon="17.7173574">
        <ele>30.8995</ele>
        <time>2013-03-08T19:05:27Z</time>
      </trkpt>
      <trkpt lat="59.9689922" lon="17.7173475">
        <ele>30.8995</ele>
        <time>2013-03-08T19:05:28Z</time>
      </trkpt>
      <trkpt lat="59.9690062" lon="17.7173389">
        <ele>30.8995</ele>
        <time>2013-03-08T19:05:29Z</time>
      </trkpt>
      <trkpt lat="59.9690207" lon="17.7173321">
        <ele>30.8995</ele>
        <time>2013-03-08T19:05:30Z</time>
      </trkpt>
      <trkpt lat="59.9690353" lon="17.7173265">
        <ele>30.8995</ele>
        <time>2013-03-08T19:05:31Z</time>
      </trkpt>
      <trkpt lat="59.96905" lon="17.7173235">
        <ele>30.8995</ele>
        <time>2013-03-08T19:05:32Z</time>
      </trkpt>
      <trkpt lat="59.9690654" lon="17.7173222">
        <ele>30.8995</ele>
        <time>2013-03-08T19:05:33Z</time>
      </trkpt>
      <trkpt lat="59.9690807" lon="17.7173217">
        <ele>30.8995</ele>
        <time>2013-03-08T19:05:34Z</time>
      </trkpt>
      <trkpt lat="59.9690959" lon="17.7173233">
        <ele>30.8995</ele>
        <time>2013-03-08T19:05:35Z</time>
      </trkpt>
      <trkpt lat="59.9691108" lon="17.717327">
        <ele>30.8995</ele>
        <time>2013-03-08T19:05:36Z</time>
      </trkpt>
      <trkpt lat="59.9691255" lon="17.7173322">
        <ele>30.8995</ele>
        <time>2013-03-08T19:05:37Z</time>
      </trkpt>
      <trkpt lat="59.9691403" lon="17.7173383">
        <ele>30.8995</ele>
        <time>2013-03-08T19:05:38Z</time>
      </trkpt>
      <trkpt lat="59.9691545" lon="17.7173444">
        <ele>30.8995</ele>
        <time>2013-03-08T19:05:39Z</time>
      </trkpt>
      <trkpt lat="59.9691685" lon="17.7173499">
        <ele>30.8995</ele>
        <time>2013-03-08T19:05:40Z</time>
      </trkpt>
      <trkpt lat="59.9691825" lon="17.7173551">
        <ele>30.8995</ele>
        <time>2013-03-08T19:05:41Z</time>
      </trkpt>
      <trkpt lat="59.9691974" lon="17.7173607">
        <ele>30.4188</ele>
        <time>2013-03-08T19:05:42Z</time>
      </trkpt>
      <trkpt lat="59.969212" lon="17.7173653">
        <ele>30.4188</ele>
        <time>2013-03-08T19:05:43Z</time>
      </trkpt>
      <trkpt lat="59.9692268" lon="17.7173689">
        <ele>30.4188</ele>
        <time>2013-03-08T19:05:44Z</time>
      </trkpt>
      <trkpt lat="59.9692419" lon="17.7173741">
        <ele>30.4188</ele>
        <time>2013-03-08T19:05:45Z</time>
      </trkpt>
      <trkpt lat="59.9692571" lon="17.7173799">
        <ele>30.4188</ele>
        <time>2013-03-08T19:05:46Z</time>
      </trkpt>
      <trkpt lat="59.9692722" lon="17.717386">
        <ele>30.4188</ele>
        <time>2013-03-08T19:05:47Z</time>
      </trkpt>
      <trkpt lat="59.9692877" lon="17.7173932">
        <ele>30.4188</ele>
        <time>2013-03-08T19:05:48Z</time>
      </trkpt>
      <trkpt lat="59.9693026" lon="17.7174004">
        <ele>30.4188</ele>
        <time>2013-03-08T19:05:49Z</time>
      </trkpt>
      <trkpt lat="59.9693171" lon="17.7174088">
        <ele>29.9381</ele>
        <time>2013-03-08T19:05:50Z</time>
      </trkpt>
      <trkpt lat="59.9693315" lon="17.7174192">
        <ele>29.9381</ele>
        <time>2013-03-08T19:05:51Z</time>
      </trkpt>
      <trkpt lat="59.9693461" lon="17.7174281">
        <ele>29.9381</ele>
        <time>2013-03-08T19:05:52Z</time>
      </trkpt>
      <trkpt lat="59.9693605" lon="17.7174347">
        <ele>29.9381</ele>
        <time>2013-03-08T19:05:53Z</time>
      </trkpt>
      <trkpt lat="59.9693751" lon="17.7174394">
        <ele>29.9381</ele>
        <time>2013-03-08T19:05:54Z</time>
      </trkpt>
      <trkpt lat="59.9693898" lon="17.7174446">
        <ele>29.9381</ele>
        <time>2013-03-08T19:05:55Z</time>
      </trkpt>
      <trkpt lat="59.969404" lon="17.7174517">
        <ele>29.9381</ele>
        <time>2013-03-08T19:05:56Z</time>
      </trkpt>
      <trkpt lat="59.969418" lon="17.7174606">
        <ele>29.4575</ele>
        <time>2013-03-08T19:05:57Z</time>
      </trkpt>
      <trkpt lat="59.9694321" lon="17.7174704">
        <ele>29.4575</ele>
        <time>2013-03-08T19:05:58Z</time>
      </trkpt>
      <trkpt lat="59.9694462" lon="17.7174792">
        <ele>29.4575</ele>
        <time>2013-03-08T19:05:59Z</time>
      </trkpt>
      <trkpt lat="59.9694611" lon="17.717487">
        <ele>29.4575</ele>
        <time>2013-03-08T19:06:00Z</time>
      </trkpt>
      <trkpt lat="59.9694755" lon="17.7174946">
        <ele>29.4575</ele>
        <time>2013-03-08T19:06:01Z</time>
      </trkpt>
      <trkpt lat="59.9694898" lon="17.7175021">
        <ele>29.4575</ele>
        <time>2013-03-08T19:06:02Z</time>
      </trkpt>
      <trkpt lat="59.9695041" lon="17.7175102">
        <ele>29.4575</ele>
        <time>2013-03-08T19:06:03Z</time>
      </trkpt>
      <trkpt lat="59.9695187" lon="17.717519">
        <ele>29.4575</ele>
        <time>2013-03-08T19:06:04Z</time>
      </trkpt>
      <trkpt lat="59.9695332" lon="17.7175285">
        <ele>29.4575</ele>
        <time>2013-03-08T19:06:05Z</time>
      </trkpt>
      <trkpt lat="59.9695475" lon="17.7175388">
        <ele>29.4575</ele>
        <time>2013-03-08T19:06:06Z</time>
      </trkpt>
      <trkpt lat="59.9695616" lon="17.7175492">
        <ele>29.4575</ele>
        <time>2013-03-08T19:06:07Z</time>
      </trkpt>
      <trkpt lat="59.9695755" lon="17.7175588">
        <ele>29.4575</ele>
        <time>2013-03-08T19:06:08Z</time>
      </trkpt>
      <trkpt lat="59.9695892" lon="17.717568">
        <ele>29.4575</ele>
        <time>2013-03-08T19:06:09Z</time>
      </trkpt>
      <trkpt lat="59.9696035" lon="17.7175792">
        <ele>29.4575</ele>
        <time>2013-03-08T19:06:10Z</time>
      </trkpt>
      <trkpt lat="59.9696176" lon="17.7175902">
        <ele>29.4575</ele>
        <time>2013-03-08T19:06:11Z</time>
      </trkpt>
      <trkpt lat="59.9696319" lon="17.7175984">
        <ele>29.4575</ele>
        <time>2013-03-08T19:06:12Z</time>
      </trkpt>
      <trkpt lat="59.9696467" lon="17.7176072">
        <ele>29.4575</ele>
        <time>2013-03-08T19:06:13Z</time>
      </trkpt>
      <trkpt lat="59.9696617" lon="17.7176171">
        <ele>29.4575</ele>
        <time>2013-03-08T19:06:14Z</time>
      </trkpt>
      <trkpt lat="59.9696764" lon="17.7176264">
        <ele>29.4575</ele>
        <time>2013-03-08T19:06:15Z</time>
      </trkpt>
      <trkpt lat="59.9696909" lon="17.7176362">
        <ele>28.9769</ele>
        <time>2013-03-08T19:06:16Z</time>
      </trkpt>
      <trkpt lat="59.9697052" lon="17.7176461">
        <ele>28.9769</ele>
        <time>2013-03-08T19:06:17Z</time>
      </trkpt>
      <trkpt lat="59.9697197" lon="17.7176559">
        <ele>28.9769</ele>
        <time>2013-03-08T19:06:18Z</time>
      </trkpt>
      <trkpt lat="59.969734" lon="17.7176658">
        <ele>28.9769</ele>
        <time>2013-03-08T19:06:19Z</time>
      </trkpt>
      <trkpt lat="59.9697475" lon="17.717677">
        <ele>28.9769</ele>
        <time>2013-03-08T19:06:20Z</time>
      </trkpt>
      <trkpt lat="59.9697609" lon="17.7176886">
        <ele>28.9769</ele>
        <time>2013-03-08T19:06:21Z</time>
      </trkpt>
      <trkpt lat="59.969774" lon="17.7176993">
        <ele>28.9769</ele>
        <time>2013-03-08T19:06:22Z</time>
      </trkpt>
      <trkpt lat="59.9697871" lon="17.7177098">
        <ele>28.9769</ele>
        <time>2013-03-08T19:06:23Z</time>
      </trkpt>
      <trkpt lat="59.9698002" lon="17.7177199">
        <ele>28.9769</ele>
        <time>2013-03-08T19:06:24Z</time>
      </trkpt>
      <trkpt lat="59.9698143" lon="17.7177274">
        <ele>28.9769</ele>
        <time>2013-03-08T19:06:25Z</time>
      </trkpt>
      <trkpt lat="59.9698292" lon="17.7177347">
        <ele>28.9769</ele>
        <time>2013-03-08T19:06:26Z</time>
      </trkpt>
      <trkpt lat="59.9698438" lon="17.717744">
        <ele>28.9769</ele>
        <time>2013-03-08T19:06:27Z</time>
      </trkpt>
      <trkpt lat="59.9698579" lon="17.7177542">
        <ele>28.9769</ele>
        <time>2013-03-08T19:06:28Z</time>
      </trkpt>
      <trkpt lat="59.9698722" lon="17.7177653">
        <ele>28.9769</ele>
        <time>2013-03-08T19:06:29Z</time>
      </trkpt>
      <trkpt lat="59.9698858" lon="17.7177772">
        <ele>28.9769</ele>
        <time>2013-03-08T19:06:30Z</time>
      </trkpt>
      <trkpt lat="59.9698997" lon="17.7177901">
        <ele>28.9769</ele>
        <time>2013-03-08T19:06:31Z</time>
      </trkpt>
      <trkpt lat="59.9699134" lon="17.717803">
        <ele>28.9769</ele>
        <time>2013-03-08T19:06:32Z</time>
      </trkpt>
      <trkpt lat="59.9699272" lon="17.7178149">
        <ele>28.9769</ele>
        <time>2013-03-08T19:06:33Z</time>
      </trkpt>
      <trkpt lat="59.9699412" lon="17.717827">
        <ele>28.9769</ele>
        <time>2013-03-08T19:06:34Z</time>
      </trkpt>
      <trkpt lat="59.9699552" lon="17.7178406">
        <ele>28.9769</ele>
        <time>2013-03-08T19:06:35Z</time>
      </trkpt>
      <trkpt lat="59.9699688" lon="17.7178558">
        <ele>28.9769</ele>
        <time>2013-03-08T19:06:36Z</time>
      </trkpt>
      <trkpt lat="59.9699818" lon="17.7178713">
        <ele>28.9769</ele>
        <time>2013-03-08T19:06:37Z</time>
      </trkpt>
      <trkpt lat="59.9699943" lon="17.7178859">
        <ele>28.9769</ele>
        <time>2013-03-08T19:06:38Z</time>
      </trkpt>
      <trkpt lat="59.970008" lon="17.7178994">
        <ele>29.4575</ele>
        <time>2013-03-08T19:06:39Z</time>
      </trkpt>
      <trkpt lat="59.9700214" lon="17.7179121">
        <ele>29.4575</ele>
        <time>2013-03-08T19:06:40Z</time>
      </trkpt>
      <trkpt lat="59.970035" lon="17.7179247">
        <ele>29.4575</ele>
        <time>2013-03-08T19:06:41Z</time>
      </trkpt>
      <trkpt lat="59.9700489" lon="17.7179357">
        <ele>29.4575</ele>
        <time>2013-03-08T19:06:42Z</time>
      </trkpt>
      <trkpt lat="59.970063" lon="17.717947">
        <ele>29.4575</ele>
        <time>2013-03-08T19:06:43Z</time>
      </trkpt>
      <trkpt lat="59.9700769" lon="17.7179591">
        <ele>29.4575</ele>
        <time>2013-03-08T19:06:44Z</time>
      </trkpt>
      <trkpt lat="59.9700901" lon="17.7179705">
        <ele>29.4575</ele>
        <time>2013-03-08T19:06:45Z</time>
      </trkpt>
      <trkpt lat="59.9701035" lon="17.717981">
        <ele>29.4575</ele>
        <time>2013-03-08T19:06:46Z</time>
      </trkpt>
      <trkpt lat="59.9701171" lon="17.7179917">
        <ele>29.9381</ele>
        <time>2013-03-08T19:06:47Z</time>
      </trkpt>
      <trkpt lat="59.9701307" lon="17.7180045">
        <ele>29.9381</ele>
        <time>2013-03-08T19:06:48Z</time>
      </trkpt>
      <trkpt lat="59.9701434" lon="17.718017">
        <ele>29.9381</ele>
        <time>2013-03-08T19:06:49Z</time>
      </trkpt>
      <trkpt lat="59.9701563" lon="17.7180297">
        <ele>29.9381</ele>
        <time>2013-03-08T19:06:50Z</time>
      </trkpt>
      <trkpt lat="59.9701693" lon="17.7180422">
        <ele>29.9381</ele>
        <time>2013-03-08T19:06:51Z</time>
      </trkpt>
      <trkpt lat="59.9701822" lon="17.7180552">
        <ele>29.9381</ele>
        <time>2013-03-08T19:06:52Z</time>
      </trkpt>
      <trkpt lat="59.9701945" lon="17.7180682">
        <ele>29.9381</ele>
        <time>2013-03-08T19:06:53Z</time>
      </trkpt>
      <trkpt lat="59.9702066" lon="17.7180794">
        <ele>29.9381</ele>
        <time>2013-03-08T19:06:54Z</time>
      </trkpt>
      <trkpt lat="59.9702195" lon="17.7180916">
        <ele>29.9381</ele>
        <time>2013-03-08T19:06:55Z</time>
      </trkpt>
      <trkpt lat="59.970232" lon="17.7181045">
        <ele>29.9381</ele>
        <time>2013-03-08T19:06:56Z</time>
      </trkpt>
      <trkpt lat="59.970245" lon="17.7181172">
        <ele>29.9381</ele>
        <time>2013-03-08T19:06:57Z</time>
      </trkpt>
      <trkpt lat="59.9702579" lon="17.7181312">
        <ele>29.9381</ele>
        <time>2013-03-08T19:06:58Z</time>
      </trkpt>
      <trkpt lat="59.9702707" lon="17.7181443">
        <ele>29.9381</ele>
        <time>2013-03-08T19:06:59Z</time>
      </trkpt>
      <trkpt lat="59.9702838" lon="17.7181556">
        <ele>29.9381</ele>
        <time>2013-03-08T19:07:00Z</time>
      </trkpt>
      <trkpt lat="59.9702973" lon="17.7181676">
        <ele>29.9381</ele>
        <time>2013-03-08T19:07:01Z</time>
      </trkpt>
      <trkpt lat="59.9703102" lon="17.7181813">
        <ele>29.9381</ele>
        <time>2013-03-08T19:07:02Z</time>
      </trkpt>
      <trkpt lat="59.970323" lon="17.7181958">
        <ele>30.4188</ele>
        <time>2013-03-08T19:07:03Z</time>
      </trkpt>
      <trkpt lat="59.9703357" lon="17.7182091">
        <ele>30.4188</ele>
        <time>2013-03-08T19:07:04Z</time>
      </trkpt>
      <trkpt lat="59.9703625" lon="17.7182343">
        <ele>30.4188</ele>
        <time>2013-03-08T19:07:05Z</time>
      </trkpt>
      <trkpt lat="59.9703755" lon="17.7182462">
        <ele>30.4188</ele>
        <time>2013-03-08T19:07:06Z</time>
      </trkpt>
      <trkpt lat="59.9703893" lon="17.7182582">
        <ele>30.4188</ele>
        <time>2013-03-08T19:07:07Z</time>
      </trkpt>
      <trkpt lat="59.9704029" lon="17.7182709">
        <ele>30.4188</ele>
        <time>2013-03-08T19:07:08Z</time>
      </trkpt>
      <trkpt lat="59.9704164" lon="17.7182835">
        <ele>30.4188</ele>
        <time>2013-03-08T19:07:09Z</time>
      </trkpt>
      <trkpt lat="59.9704293" lon="17.7182961">
        <ele>30.4188</ele>
        <time>2013-03-08T19:07:10Z</time>
      </trkpt>
      <trkpt lat="59.9704426" lon="17.7183096">
        <ele>30.4188</ele>
        <time>2013-03-08T19:07:11Z</time>
      </trkpt>
      <trkpt lat="59.970456" lon="17.7183231">
        <ele>30.4188</ele>
        <time>2013-03-08T19:07:12Z</time>
      </trkpt>
      <trkpt lat="59.9704697" lon="17.7183344">
        <ele>30.8995</ele>
        <time>2013-03-08T19:07:13Z</time>
      </trkpt>
      <trkpt lat="59.9704833" lon="17.7183458">
        <ele>30.8995</ele>
        <time>2013-03-08T19:07:14Z</time>
      </trkpt>
      <trkpt lat="59.9704964" lon="17.7183578">
        <ele>30.8995</ele>
        <time>2013-03-08T19:07:15Z</time>
      </trkpt>
      <trkpt lat="59.9705096" lon="17.7183692">
        <ele>30.8995</ele>
        <time>2013-03-08T19:07:16Z</time>
      </trkpt>
      <trkpt lat="59.970523" lon="17.7183805">
        <ele>30.8995</ele>
        <time>2013-03-08T19:07:17Z</time>
      </trkpt>
      <trkpt lat="59.9705358" lon="17.7183916">
        <ele>30.4188</ele>
        <time>2013-03-08T19:07:18Z</time>
      </trkpt>
      <trkpt lat="59.9705489" lon="17.7184023">
        <ele>30.4188</ele>
        <time>2013-03-08T19:07:19Z</time>
      </trkpt>
      <trkpt lat="59.9705623" lon="17.7184131">
        <ele>30.4188</ele>
        <time>2013-03-08T19:07:20Z</time>
      </trkpt>
      <trkpt lat="59.970575" lon="17.7184249">
        <ele>30.4188</ele>
        <time>2013-03-08T19:07:21Z</time>
      </trkpt>
      <trkpt lat="59.9705879" lon="17.7184361">
        <ele>30.4188</ele>
        <time>2013-03-08T19:07:22Z</time>
      </trkpt>
      <trkpt lat="59.9706009" lon="17.7184468">
        <ele>29.9381</ele>
        <time>2013-03-08T19:07:23Z</time>
      </trkpt>
      <trkpt lat="59.970614" lon="17.7184568">
        <ele>29.9381</ele>
        <time>2013-03-08T19:07:24Z</time>
      </trkpt>
      <trkpt lat="59.970627" lon="17.7184681">
        <ele>29.9381</ele>
        <time>2013-03-08T19:07:25Z</time>
      </trkpt>
      <trkpt lat="59.97064" lon="17.7184799">
        <ele>29.9381</ele>
        <time>2013-03-08T19:07:26Z</time>
      </trkpt>
      <trkpt lat="59.9706531" lon="17.7184913">
        <ele>29.9381</ele>
        <time>2013-03-08T19:07:27Z</time>
      </trkpt>
      <trkpt lat="59.970666" lon="17.7185037">
        <ele>29.4575</ele>
        <time>2013-03-08T19:07:28Z</time>
      </trkpt>
      <trkpt lat="59.9706786" lon="17.7185169">
        <ele>29.4575</ele>
        <time>2013-03-08T19:07:29Z</time>
      </trkpt>
      <trkpt lat="59.9706913" lon="17.7185294">
        <ele>29.4575</ele>
        <time>2013-03-08T19:07:30Z</time>
      </trkpt>
      <trkpt lat="59.9707045" lon="17.7185407">
        <ele>29.4575</ele>
        <time>2013-03-08T19:07:31Z</time>
      </trkpt>
      <trkpt lat="59.9707182" lon="17.718552">
        <ele>28.9769</ele>
        <time>2013-03-08T19:07:32Z</time>
      </trkpt>
      <trkpt lat="59.9707317" lon="17.7185644">
        <ele>28.9769</ele>
        <time>2013-03-08T19:07:33Z</time>
      </trkpt>
      <trkpt lat="59.9707448" lon="17.7185769">
        <ele>28.9769</ele>
        <time>2013-03-08T19:07:34Z</time>
      </trkpt>
      <trkpt lat="59.9707577" lon="17.718589">
        <ele>28.9769</ele>
        <time>2013-03-08T19:07:35Z</time>
      </trkpt>
      <trkpt lat="59.9707707" lon="17.7186012">
        <ele>28.9769</ele>
        <time>2013-03-08T19:07:36Z</time>
      </trkpt>
      <trkpt lat="59.9707837" lon="17.7186135">
        <ele>28.9769</ele>
        <time>2013-03-08T19:07:37Z</time>
      </trkpt>
      <trkpt lat="59.9707967" lon="17.7186256">
        <ele>28.4962</ele>
        <time>2013-03-08T19:07:38Z</time>
      </trkpt>
      <trkpt lat="59.9708095" lon="17.7186386">
        <ele>28.4962</ele>
        <time>2013-03-08T19:07:39Z</time>
      </trkpt>
      <trkpt lat="59.9708223" lon="17.7186514">
        <ele>28.4962</ele>
        <time>2013-03-08T19:07:40Z</time>
      </trkpt>
      <trkpt lat="59.9708352" lon="17.7186629">
        <ele>28.4962</ele>
        <time>2013-03-08T19:07:41Z</time>
      </trkpt>
      <trkpt lat="59.9708483" lon="17.7186749">
        <ele>28.4962</ele>
        <time>2013-03-08T19:07:42Z</time>
      </trkpt>
      <trkpt lat="59.9708608" lon="17.7186883">
        <ele>28.4962</ele>
        <time>2013-03-08T19:07:43Z</time>
      </trkpt>
      <trkpt lat="59.9708736" lon="17.7187013">
        <ele>28.4962</ele>
        <time>2013-03-08T19:07:44Z</time>
      </trkpt>
      <trkpt lat="59.9708867" lon="17.7187138">
        <ele>28.4962</ele>
        <time>2013-03-08T19:07:45Z</time>
      </trkpt>
      <trkpt lat="59.9709002" lon="17.7187246">
        <ele>28.4962</ele>
        <time>2013-03-08T19:07:46Z</time>
      </trkpt>
      <trkpt lat="59.9709141" lon="17.718736">
        <ele>28.4962</ele>
        <time>2013-03-08T19:07:47Z</time>
      </trkpt>
      <trkpt lat="59.9709274" lon="17.7187494">
        <ele>28.0155</ele>
        <time>2013-03-08T19:07:48Z</time>
      </trkpt>
      <trkpt lat="59.9709402" lon="17.7187629">
        <ele>28.0155</ele>
        <time>2013-03-08T19:07:49Z</time>
      </trkpt>
      <trkpt lat="59.9709534" lon="17.7187757">
        <ele>28.0155</ele>
        <time>2013-03-08T19:07:50Z</time>
      </trkpt>
      <trkpt lat="59.9709665" lon="17.7187871">
        <ele>28.0155</ele>
        <time>2013-03-08T19:07:51Z</time>
      </trkpt>
      <trkpt lat="59.97098" lon="17.718798">
        <ele>28.0155</ele>
        <time>2013-03-08T19:07:52Z</time>
      </trkpt>
      <trkpt lat="59.970994" lon="17.7188075">
        <ele>28.0155</ele>
        <time>2013-03-08T19:07:53Z</time>
      </trkpt>
      <trkpt lat="59.9710075" lon="17.7188178">
        <ele>28.0155</ele>
        <time>2013-03-08T19:07:54Z</time>
      </trkpt>
      <trkpt lat="59.9710209" lon="17.718829">
        <ele>28.0155</ele>
        <time>2013-03-08T19:07:55Z</time>
      </trkpt>
      <trkpt lat="59.9710341" lon="17.7188397">
        <ele>27.5349</ele>
        <time>2013-03-08T19:07:56Z</time>
      </trkpt>
      <trkpt lat="59.9710479" lon="17.7188504">
        <ele>27.5349</ele>
        <time>2013-03-08T19:07:57Z</time>
      </trkpt>
      <trkpt lat="59.9710616" lon="17.7188614">
        <ele>27.5349</ele>
        <time>2013-03-08T19:07:58Z</time>
      </trkpt>
      <trkpt lat="59.9710751" lon="17.7188731">
        <ele>28.0155</ele>
        <time>2013-03-08T19:07:59Z</time>
      </trkpt>
      <trkpt lat="59.9710881" lon="17.7188847">
        <ele>27.5349</ele>
        <time>2013-03-08T19:08:00Z</time>
      </trkpt>
      <trkpt lat="59.971101" lon="17.7188964">
        <ele>27.5349</ele>
        <time>2013-03-08T19:08:01Z</time>
      </trkpt>
      <trkpt lat="59.9711146" lon="17.7189072">
        <ele>27.5349</ele>
        <time>2013-03-08T19:08:02Z</time>
      </trkpt>
      <trkpt lat="59.9711282" lon="17.7189182">
        <ele>28.0155</ele>
        <time>2013-03-08T19:08:03Z</time>
      </trkpt>
      <trkpt lat="59.9711417" lon="17.7189293">
        <ele>28.0155</ele>
        <time>2013-03-08T19:08:04Z</time>
      </trkpt>
      <trkpt lat="59.9711552" lon="17.7189402">
        <ele>28.0155</ele>
        <time>2013-03-08T19:08:05Z</time>
      </trkpt>
      <trkpt lat="59.9711683" lon="17.718952">
        <ele>28.0155</ele>
        <time>2013-03-08T19:08:06Z</time>
      </trkpt>
      <trkpt lat="59.9711808" lon="17.7189639">
        <ele>27.5349</ele>
        <time>2013-03-08T19:08:07Z</time>
      </trkpt>
      <trkpt lat="59.9711935" lon="17.7189754">
        <ele>27.5349</ele>
        <time>2013-03-08T19:08:08Z</time>
      </trkpt>
      <trkpt lat="59.9712062" lon="17.7189866">
        <ele>27.5349</ele>
        <time>2013-03-08T19:08:09Z</time>
      </trkpt>
      <trkpt lat="59.9712188" lon="17.7189977">
        <ele>28.0155</ele>
        <time>2013-03-08T19:08:10Z</time>
      </trkpt>
      <trkpt lat="59.9712316" lon="17.7190096">
        <ele>27.5349</ele>
        <time>2013-03-08T19:08:11Z</time>
      </trkpt>
      <trkpt lat="59.9712445" lon="17.7190214">
        <ele>27.5349</ele>
        <time>2013-03-08T19:08:12Z</time>
      </trkpt>
      <trkpt lat="59.9712571" lon="17.7190332">
        <ele>27.5349</ele>
        <time>2013-03-08T19:08:13Z</time>
      </trkpt>
      <trkpt lat="59.9712699" lon="17.7190431">
        <ele>27.5349</ele>
        <time>2013-03-08T19:08:14Z</time>
      </trkpt>
      <trkpt lat="59.971283" lon="17.7190538">
        <ele>27.5349</ele>
        <time>2013-03-08T19:08:15Z</time>
      </trkpt>
      <trkpt lat="59.9712959" lon="17.7190664">
        <ele>27.5349</ele>
        <time>2013-03-08T19:08:16Z</time>
      </trkpt>
      <trkpt lat="59.9713083" lon="17.7190779">
        <ele>27.5349</ele>
        <time>2013-03-08T19:08:17Z</time>
      </trkpt>
      <trkpt lat="59.9713211" lon="17.7190882">
        <ele>27.5349</ele>
        <time>2013-03-08T19:08:18Z</time>
      </trkpt>
      <trkpt lat="59.9713343" lon="17.7190978">
        <ele>27.5349</ele>
        <time>2013-03-08T19:08:19Z</time>
      </trkpt>
      <trkpt lat="59.9713478" lon="17.7191085">
        <ele>27.5349</ele>
        <time>2013-03-08T19:08:20Z</time>
      </trkpt>
      <trkpt lat="59.9713616" lon="17.7191201">
        <ele>28.0155</ele>
        <time>2013-03-08T19:08:21Z</time>
      </trkpt>
      <trkpt lat="59.9713748" lon="17.7191316">
        <ele>28.0155</ele>
        <time>2013-03-08T19:08:22Z</time>
      </trkpt>
      <trkpt lat="59.971388" lon="17.7191437">
        <ele>28.0155</ele>
        <time>2013-03-08T19:08:23Z</time>
      </trkpt>
      <trkpt lat="59.9714011" lon="17.7191559">
        <ele>27.5349</ele>
        <time>2013-03-08T19:08:24Z</time>
      </trkpt>
      <trkpt lat="59.971415" lon="17.7191664">
        <ele>28.0155</ele>
        <time>2013-03-08T19:08:25Z</time>
      </trkpt>
      <trkpt lat="59.9714286" lon="17.7191789">
        <ele>28.0155</ele>
        <time>2013-03-08T19:08:26Z</time>
      </trkpt>
      <trkpt lat="59.9714414" lon="17.7191944">
        <ele>28.0155</ele>
        <time>2013-03-08T19:08:27Z</time>
      </trkpt>
      <trkpt lat="59.9714533" lon="17.7192105">
        <ele>27.5349</ele>
        <time>2013-03-08T19:08:28Z</time>
      </trkpt>
      <trkpt lat="59.9714647" lon="17.7192264">
        <ele>27.5349</ele>
        <time>2013-03-08T19:08:29Z</time>
      </trkpt>
      <trkpt lat="59.9714762" lon="17.7192426">
        <ele>27.5349</ele>
        <time>2013-03-08T19:08:30Z</time>
      </trkpt>
      <trkpt lat="59.971488" lon="17.7192571">
        <ele>27.5349</ele>
        <time>2013-03-08T19:08:31Z</time>
      </trkpt>
      <trkpt lat="59.971501" lon="17.7192696">
        <ele>27.5349</ele>
        <time>2013-03-08T19:08:32Z</time>
      </trkpt>
      <trkpt lat="59.9715144" lon="17.719282">
        <ele>27.5349</ele>
        <time>2013-03-08T19:08:33Z</time>
      </trkpt>
      <trkpt lat="59.971528" lon="17.7192938">
        <ele>27.5349</ele>
        <time>2013-03-08T19:08:34Z</time>
      </trkpt>
      <trkpt lat="59.971542" lon="17.7193047">
        <ele>27.5349</ele>
        <time>2013-03-08T19:08:35Z</time>
      </trkpt>
      <trkpt lat="59.971556" lon="17.7193161">
        <ele>27.5349</ele>
        <time>2013-03-08T19:08:36Z</time>
      </trkpt>
      <trkpt lat="59.97157" lon="17.7193286">
        <ele>27.0543</ele>
        <time>2013-03-08T19:08:37Z</time>
      </trkpt>
      <trkpt lat="59.9715834" lon="17.7193411">
        <ele>27.0543</ele>
        <time>2013-03-08T19:08:38Z</time>
      </trkpt>
      <trkpt lat="59.9715969" lon="17.7193533">
        <ele>27.0543</ele>
        <time>2013-03-08T19:08:39Z</time>
      </trkpt>
      <trkpt lat="59.9716104" lon="17.7193659">
        <ele>27.0543</ele>
        <time>2013-03-08T19:08:40Z</time>
      </trkpt>
      <trkpt lat="59.9716237" lon="17.7193786">
        <ele>27.5349</ele>
        <time>2013-03-08T19:08:41Z</time>
      </trkpt>
      <trkpt lat="59.9716368" lon="17.7193916">
        <ele>27.5349</ele>
        <time>2013-03-08T19:08:42Z</time>
      </trkpt>
      <trkpt lat="59.9716508" lon="17.7194045">
        <ele>27.5349</ele>
        <time>2013-03-08T19:08:43Z</time>
      </trkpt>
      <trkpt lat="59.9716643" lon="17.7194166">
        <ele>27.5349</ele>
        <time>2013-03-08T19:08:44Z</time>
      </trkpt>
      <trkpt lat="59.971678" lon="17.7194283">
        <ele>27.5349</ele>
        <time>2013-03-08T19:08:45Z</time>
      </trkpt>
      <trkpt lat="59.9716917" lon="17.7194414">
        <ele>27.5349</ele>
        <time>2013-03-08T19:08:46Z</time>
      </trkpt>
      <trkpt lat="59.9717057" lon="17.7194539">
        <ele>27.5349</ele>
        <time>2013-03-08T19:08:47Z</time>
      </trkpt>
      <trkpt lat="59.9717195" lon="17.7194661">
        <ele>27.5349</ele>
        <time>2013-03-08T19:08:48Z</time>
      </trkpt>
      <trkpt lat="59.9717337" lon="17.7194788">
        <ele>27.5349</ele>
        <time>2013-03-08T19:08:49Z</time>
      </trkpt>
      <trkpt lat="59.9717474" lon="17.719492">
        <ele>27.5349</ele>
        <time>2013-03-08T19:08:50Z</time>
      </trkpt>
      <trkpt lat="59.9717609" lon="17.7195055">
        <ele>27.5349</ele>
        <time>2013-03-08T19:08:51Z</time>
      </trkpt>
      <trkpt lat="59.9717745" lon="17.719519">
        <ele>27.5349</ele>
        <time>2013-03-08T19:08:52Z</time>
      </trkpt>
      <trkpt lat="59.9717882" lon="17.7195327">
        <ele>28.0155</ele>
        <time>2013-03-08T19:08:53Z</time>
      </trkpt>
      <trkpt lat="59.971802" lon="17.7195456">
        <ele>28.0155</ele>
        <time>2013-03-08T19:08:54Z</time>
      </trkpt>
      <trkpt lat="59.9718158" lon="17.7195584">
        <ele>28.0155</ele>
        <time>2013-03-08T19:08:55Z</time>
      </trkpt>
      <trkpt lat="59.9718295" lon="17.7195713">
        <ele>28.0155</ele>
        <time>2013-03-08T19:08:56Z</time>
      </trkpt>
      <trkpt lat="59.9718429" lon="17.7195841">
        <ele>28.0155</ele>
        <time>2013-03-08T19:08:57Z</time>
      </trkpt>
      <trkpt lat="59.971856" lon="17.7195969">
        <ele>28.0155</ele>
        <time>2013-03-08T19:08:58Z</time>
      </trkpt>
      <trkpt lat="59.971869" lon="17.7196099">
        <ele>28.0155</ele>
        <time>2013-03-08T19:08:59Z</time>
      </trkpt>
      <trkpt lat="59.9718827" lon="17.7196228">
        <ele>28.0155</ele>
        <time>2013-03-08T19:09:00Z</time>
      </trkpt>
      <trkpt lat="59.9718966" lon="17.7196356">
        <ele>28.0155</ele>
        <time>2013-03-08T19:09:01Z</time>
      </trkpt>
      <trkpt lat="59.9719103" lon="17.7196491">
        <ele>28.0155</ele>
        <time>2013-03-08T19:09:02Z</time>
      </trkpt>
      <trkpt lat="59.9719238" lon="17.7196625">
        <ele>28.0155</ele>
        <time>2013-03-08T19:09:03Z</time>
      </trkpt>
      <trkpt lat="59.9719375" lon="17.7196756">
        <ele>28.0155</ele>
        <time>2013-03-08T19:09:04Z</time>
      </trkpt>
      <trkpt lat="59.9719512" lon="17.7196886">
        <ele>28.0155</ele>
        <time>2013-03-08T19:09:05Z</time>
      </trkpt>
      <trkpt lat="59.9719647" lon="17.7197006">
        <ele>27.5349</ele>
        <time>2013-03-08T19:09:06Z</time>
      </trkpt>
      <trkpt lat="59.9719787" lon="17.7197123">
        <ele>28.0155</ele>
        <time>2013-03-08T19:09:07Z</time>
      </trkpt>
      <trkpt lat="59.9719932" lon="17.7197234">
        <ele>28.0155</ele>
        <time>2013-03-08T19:09:08Z</time>
      </trkpt>
      <trkpt lat="59.9720076" lon="17.7197355">
        <ele>28.0155</ele>
        <time>2013-03-08T19:09:09Z</time>
      </trkpt>
      <trkpt lat="59.9720213" lon="17.7197482">
        <ele>28.0155</ele>
        <time>2013-03-08T19:09:10Z</time>
      </trkpt>
      <trkpt lat="59.972035" lon="17.7197606">
        <ele>28.0155</ele>
        <time>2013-03-08T19:09:11Z</time>
      </trkpt>
      <trkpt lat="59.9720487" lon="17.7197723">
        <ele>28.0155</ele>
        <time>2013-03-08T19:09:12Z</time>
      </trkpt>
      <trkpt lat="59.9720631" lon="17.719786">
        <ele>28.4962</ele>
        <time>2013-03-08T19:09:13Z</time>
      </trkpt>
      <trkpt lat="59.972077" lon="17.7198014">
        <ele>28.4962</ele>
        <time>2013-03-08T19:09:14Z</time>
      </trkpt>
      <trkpt lat="59.9720905" lon="17.719815">
        <ele>28.4962</ele>
        <time>2013-03-08T19:09:15Z</time>
      </trkpt>
      <trkpt lat="59.9721041" lon="17.7198225">
        <ele>28.4962</ele>
        <time>2013-03-08T19:09:16Z</time>
      </trkpt>
      <trkpt lat="59.9721184" lon="17.7198315">
        <ele>28.4962</ele>
        <time>2013-03-08T19:09:17Z</time>
      </trkpt>
      <trkpt lat="59.9721349" lon="17.7198404">
        <ele>28.0155</ele>
        <time>2013-03-08T19:09:18Z</time>
      </trkpt>
      <trkpt lat="59.9721518" lon="17.7198461">
        <ele>28.0155</ele>
        <time>2013-03-08T19:09:19Z</time>
      </trkpt>
      <trkpt lat="59.9721658" lon="17.7198574">
        <ele>28.0155</ele>
        <time>2013-03-08T19:09:20Z</time>
      </trkpt>
      <trkpt lat="59.9721786" lon="17.7198707">
        <ele>28.0155</ele>
        <time>2013-03-08T19:09:21Z</time>
      </trkpt>
      <trkpt lat="59.9721921" lon="17.7198831">
        <ele>28.0155</ele>
        <time>2013-03-08T19:09:22Z</time>
      </trkpt>
      <trkpt lat="59.9722061" lon="17.7198968">
        <ele>27.5349</ele>
        <time>2013-03-08T19:09:23Z</time>
      </trkpt>
      <trkpt lat="59.9722197" lon="17.7199127">
        <ele>27.5349</ele>
        <time>2013-03-08T19:09:24Z</time>
      </trkpt>
      <trkpt lat="59.9722342" lon="17.7199284">
        <ele>27.5349</ele>
        <time>2013-03-08T19:09:25Z</time>
      </trkpt>
      <trkpt lat="59.9722492" lon="17.7199436">
        <ele>27.5349</ele>
        <time>2013-03-08T19:09:26Z</time>
      </trkpt>
      <trkpt lat="59.9722621" lon="17.7199573">
        <ele>27.0543</ele>
        <time>2013-03-08T19:09:27Z</time>
      </trkpt>
      <trkpt lat="59.9722754" lon="17.7199717">
        <ele>27.0543</ele>
        <time>2013-03-08T19:09:28Z</time>
      </trkpt>
      <trkpt lat="59.9722894" lon="17.7199862">
        <ele>27.0543</ele>
        <time>2013-03-08T19:09:29Z</time>
      </trkpt>
      <trkpt lat="59.9723036" lon="17.7200018">
        <ele>27.0543</ele>
        <time>2013-03-08T19:09:30Z</time>
      </trkpt>
      <trkpt lat="59.9723174" lon="17.7200185">
        <ele>27.0543</ele>
        <time>2013-03-08T19:09:31Z</time>
      </trkpt>
      <trkpt lat="59.9723305" lon="17.7200346">
        <ele>26.5736</ele>
        <time>2013-03-08T19:09:32Z</time>
      </trkpt>
      <trkpt lat="59.9723432" lon="17.7200482">
        <ele>26.5736</ele>
        <time>2013-03-08T19:09:33Z</time>
      </trkpt>
      <trkpt lat="59.9723562" lon="17.7200603">
        <ele>26.0929</ele>
        <time>2013-03-08T19:09:34Z</time>
      </trkpt>
      <trkpt lat="59.9723697" lon="17.7200739">
        <ele>26.0929</ele>
        <time>2013-03-08T19:09:35Z</time>
      </trkpt>
      <trkpt lat="59.9723838" lon="17.7200872">
        <ele>26.0929</ele>
        <time>2013-03-08T19:09:36Z</time>
      </trkpt>
      <trkpt lat="59.9723971" lon="17.7200983">
        <ele>25.6123</ele>
        <time>2013-03-08T19:09:37Z</time>
      </trkpt>
      <trkpt lat="59.9724101" lon="17.7201108">
        <ele>25.6123</ele>
        <time>2013-03-08T19:09:38Z</time>
      </trkpt>
      <trkpt lat="59.9724231" lon="17.7201232">
        <ele>25.6123</ele>
        <time>2013-03-08T19:09:39Z</time>
      </trkpt>
      <trkpt lat="59.9724351" lon="17.720134">
        <ele>25.6123</ele>
        <time>2013-03-08T19:09:40Z</time>
      </trkpt>
      <trkpt lat="59.9724465" lon="17.7201459">
        <ele>25.6123</ele>
        <time>2013-03-08T19:09:41Z</time>
      </trkpt>
      <trkpt lat="59.9724582" lon="17.7201595">
        <ele>25.1317</ele>
        <time>2013-03-08T19:09:42Z</time>
      </trkpt>
      <trkpt lat="59.9724696" lon="17.7201725">
        <ele>25.1317</ele>
        <time>2013-03-08T19:09:43Z</time>
      </trkpt>
      <trkpt lat="59.972482" lon="17.7201812">
        <ele>25.1317</ele>
        <time>2013-03-08T19:09:44Z</time>
      </trkpt>
      <trkpt lat="59.9724937" lon="17.7201883">
        <ele>25.1317</ele>
        <time>2013-03-08T19:09:45Z</time>
      </trkpt>
      <trkpt lat="59.9725043" lon="17.7201962">
        <ele>24.651</ele>
        <time>2013-03-08T19:09:46Z</time>
      </trkpt>
      <trkpt lat="59.9725164" lon="17.7202067">
        <ele>24.651</ele>
        <time>2013-03-08T19:09:47Z</time>
      </trkpt>
      <trkpt lat="59.9725288" lon="17.7202149">
        <ele>24.651</ele>
        <time>2013-03-08T19:09:48Z</time>
      </trkpt>
      <trkpt lat="59.9725416" lon="17.7202225">
        <ele>24.651</ele>
        <time>2013-03-08T19:09:49Z</time>
      </trkpt>
      <trkpt lat="59.9725538" lon="17.7202299">
        <ele>24.651</ele>
        <time>2013-03-08T19:09:50Z</time>
      </trkpt>
      <trkpt lat="59.9725666" lon="17.7202413">
        <ele>24.651</ele>
        <time>2013-03-08T19:09:51Z</time>
      </trkpt>
      <trkpt lat="59.9725789" lon="17.7202512">
        <ele>24.1703</ele>
        <time>2013-03-08T19:09:52Z</time>
      </trkpt>
      <trkpt lat="59.97259" lon="17.7202623">
        <ele>24.1703</ele>
        <time>2013-03-08T19:09:53Z</time>
      </trkpt>
      <trkpt lat="59.9726007" lon="17.7202781">
        <ele>24.1703</ele>
        <time>2013-03-08T19:09:54Z</time>
      </trkpt>
      <trkpt lat="59.9726123" lon="17.7202904">
        <ele>24.1703</ele>
        <time>2013-03-08T19:09:55Z</time>
      </trkpt>
      <trkpt lat="59.9726256" lon="17.7203007">
        <ele>24.1703</ele>
        <time>2013-03-08T19:09:56Z</time>
      </trkpt>
      <trkpt lat="59.9726365" lon="17.7203116">
        <ele>23.6896</ele>
        <time>2013-03-08T19:09:57Z</time>
      </trkpt>
      <trkpt lat="59.972648" lon="17.720321">
        <ele>23.6896</ele>
        <time>2013-03-08T19:09:58Z</time>
      </trkpt>
      <trkpt lat="59.9726617" lon="17.7203312">
        <ele>23.6896</ele>
        <time>2013-03-08T19:09:59Z</time>
      </trkpt>
      <trkpt lat="59.9726754" lon="17.7203416">
        <ele>23.6896</ele>
        <time>2013-03-08T19:10:00Z</time>
      </trkpt>
      <trkpt lat="59.9726887" lon="17.7203526">
        <ele>23.6896</ele>
        <time>2013-03-08T19:10:01Z</time>
      </trkpt>
      <trkpt lat="59.9727002" lon="17.7203655">
        <ele>23.209</ele>
        <time>2013-03-08T19:10:02Z</time>
      </trkpt>
      <trkpt lat="59.972713" lon="17.7203774">
        <ele>23.209</ele>
        <time>2013-03-08T19:10:03Z</time>
      </trkpt>
      <trkpt lat="59.9727247" lon="17.7203888">
        <ele>23.209</ele>
        <time>2013-03-08T19:10:04Z</time>
      </trkpt>
      <trkpt lat="59.972737" lon="17.7204001">
        <ele>23.209</ele>
        <time>2013-03-08T19:10:05Z</time>
      </trkpt>
      <trkpt lat="59.9727495" lon="17.7204141">
        <ele>23.209</ele>
        <time>2013-03-08T19:10:06Z</time>
      </trkpt>
      <trkpt lat="59.9727604" lon="17.7204293">
        <ele>23.209</ele>
        <time>2013-03-08T19:10:07Z</time>
      </trkpt>
      <trkpt lat="59.9727723" lon="17.7204371">
        <ele>23.209</ele>
        <time>2013-03-08T19:10:08Z</time>
      </trkpt>
      <trkpt lat="59.972785" lon="17.7204438">
        <ele>23.209</ele>
        <time>2013-03-08T19:10:09Z</time>
      </trkpt>
      <trkpt lat="59.9727982" lon="17.7204541">
        <ele>23.209</ele>
        <time>2013-03-08T19:10:10Z</time>
      </trkpt>
      <trkpt lat="59.9728126" lon="17.7204618">
        <ele>23.209</ele>
        <time>2013-03-08T19:10:11Z</time>
      </trkpt>
      <trkpt lat="59.9728265" lon="17.7204662">
        <ele>23.209</ele>
        <time>2013-03-08T19:10:12Z</time>
      </trkpt>
      <trkpt lat="59.9728399" lon="17.7204738">
        <ele>23.209</ele>
        <time>2013-03-08T19:10:13Z</time>
      </trkpt>
      <trkpt lat="59.9728515" lon="17.7204848">
        <ele>23.209</ele>
        <time>2013-03-08T19:10:14Z</time>
      </trkpt>
      <trkpt lat="59.972863" lon="17.7204967">
        <ele>22.7283</ele>
        <time>2013-03-08T19:10:15Z</time>
      </trkpt>
      <trkpt lat="59.9728749" lon="17.7205092">
        <ele>22.7283</ele>
        <time>2013-03-08T19:10:16Z</time>
      </trkpt>
      <trkpt lat="59.9728868" lon="17.720525">
        <ele>23.209</ele>
        <time>2013-03-08T19:10:17Z</time>
      </trkpt>
      <trkpt lat="59.9728967" lon="17.7205412">
        <ele>22.7283</ele>
        <time>2013-03-08T19:10:18Z</time>
      </trkpt>
      <trkpt lat="59.9729068" lon="17.7205589">
        <ele>22.7283</ele>
        <time>2013-03-08T19:10:19Z</time>
      </trkpt>
      <trkpt lat="59.9729183" lon="17.720578">
        <ele>22.7283</ele>
        <time>2013-03-08T19:10:20Z</time>
      </trkpt>
      <trkpt lat="59.9729291" lon="17.7205981">
        <ele>22.7283</ele>
        <time>2013-03-08T19:10:21Z</time>
      </trkpt>
      <trkpt lat="59.9729399" lon="17.7206178">
        <ele>22.7283</ele>
        <time>2013-03-08T19:10:22Z</time>
      </trkpt>
      <trkpt lat="59.9729503" lon="17.7206345">
        <ele>22.7283</ele>
        <time>2013-03-08T19:10:23Z</time>
      </trkpt>
      <trkpt lat="59.9729607" lon="17.7206499">
        <ele>22.7283</ele>
        <time>2013-03-08T19:10:24Z</time>
      </trkpt>
      <trkpt lat="59.9729711" lon="17.7206671">
        <ele>22.7283</ele>
        <time>2013-03-08T19:10:25Z</time>
      </trkpt>
      <trkpt lat="59.9729825" lon="17.7206845">
        <ele>22.7283</ele>
        <time>2013-03-08T19:10:26Z</time>
      </trkpt>
      <trkpt lat="59.9729955" lon="17.7206981">
        <ele>22.2476</ele>
        <time>2013-03-08T19:10:27Z</time>
      </trkpt>
      <trkpt lat="59.9730098" lon="17.7207132">
        <ele>22.2476</ele>
        <time>2013-03-08T19:10:28Z</time>
      </trkpt>
      <trkpt lat="59.9730236" lon="17.7207287">
        <ele>22.2476</ele>
        <time>2013-03-08T19:10:29Z</time>
      </trkpt>
      <trkpt lat="59.973038" lon="17.7207422">
        <ele>22.2476</ele>
        <time>2013-03-08T19:10:30Z</time>
      </trkpt>
      <trkpt lat="59.973051" lon="17.7207575">
        <ele>21.767</ele>
        <time>2013-03-08T19:10:31Z</time>
      </trkpt>
      <trkpt lat="59.9730648" lon="17.7207762">
        <ele>21.767</ele>
        <time>2013-03-08T19:10:32Z</time>
      </trkpt>
      <trkpt lat="59.9730799" lon="17.7207919">
        <ele>21.767</ele>
        <time>2013-03-08T19:10:33Z</time>
      </trkpt>
      <trkpt lat="59.9730943" lon="17.7208073">
        <ele>21.767</ele>
        <time>2013-03-08T19:10:34Z</time>
      </trkpt>
      <trkpt lat="59.9731085" lon="17.7208239">
        <ele>21.767</ele>
        <time>2013-03-08T19:10:35Z</time>
      </trkpt>
      <trkpt lat="59.973121" lon="17.7208432">
        <ele>22.2476</ele>
        <time>2013-03-08T19:10:36Z</time>
      </trkpt>
      <trkpt lat="59.9731327" lon="17.7208645">
        <ele>22.2476</ele>
        <time>2013-03-08T19:10:37Z</time>
      </trkpt>
      <trkpt lat="59.9731468" lon="17.7208831">
        <ele>22.7283</ele>
        <time>2013-03-08T19:10:38Z</time>
      </trkpt>
      <trkpt lat="59.9731606" lon="17.7208997">
        <ele>22.7283</ele>
        <time>2013-03-08T19:10:39Z</time>
      </trkpt>
      <trkpt lat="59.9731747" lon="17.7209147">
        <ele>23.209</ele>
        <time>2013-03-08T19:10:40Z</time>
      </trkpt>
      <trkpt lat="59.9731881" lon="17.7209297">
        <ele>23.209</ele>
        <time>2013-03-08T19:10:41Z</time>
      </trkpt>
      <trkpt lat="59.9732017" lon="17.7209472">
        <ele>23.6896</ele>
        <time>2013-03-08T19:10:42Z</time>
      </trkpt>
      <trkpt lat="59.9732146" lon="17.7209647">
        <ele>23.6896</ele>
        <time>2013-03-08T19:10:43Z</time>
      </trkpt>
      <trkpt lat="59.9732277" lon="17.7209825">
        <ele>24.1703</ele>
        <time>2013-03-08T19:10:44Z</time>
      </trkpt>
      <trkpt lat="59.9732403" lon="17.7209991">
        <ele>24.1703</ele>
        <time>2013-03-08T19:10:45Z</time>
      </trkpt>
      <trkpt lat="59.9732539" lon="17.7210157">
        <ele>24.651</ele>
        <time>2013-03-08T19:10:46Z</time>
      </trkpt>
      <trkpt lat="59.9732659" lon="17.721034">
        <ele>24.651</ele>
        <time>2013-03-08T19:10:47Z</time>
      </trkpt>
      <trkpt lat="59.9732802" lon="17.721052">
        <ele>25.1317</ele>
        <time>2013-03-08T19:10:48Z</time>
      </trkpt>
      <trkpt lat="59.9732956" lon="17.7210711">
        <ele>25.1317</ele>
        <time>2013-03-08T19:10:49Z</time>
      </trkpt>
      <trkpt lat="59.9733084" lon="17.7210903">
        <ele>25.6123</ele>
        <time>2013-03-08T19:10:50Z</time>
      </trkpt>
      <trkpt lat="59.9733194" lon="17.721111">
        <ele>25.6123</ele>
        <time>2013-03-08T19:10:51Z</time>
      </trkpt>
      <trkpt lat="59.9733302" lon="17.7211323">
        <ele>26.0929</ele>
        <time>2013-03-08T19:10:52Z</time>
      </trkpt>
      <trkpt lat="59.9733416" lon="17.7211524">
        <ele>26.0929</ele>
        <time>2013-03-08T19:10:53Z</time>
      </trkpt>
      <trkpt lat="59.9733529" lon="17.721173">
        <ele>26.0929</ele>
        <time>2013-03-08T19:10:54Z</time>
      </trkpt>
      <trkpt lat="59.9733643" lon="17.721193">
        <ele>26.5736</ele>
        <time>2013-03-08T19:10:55Z</time>
      </trkpt>
      <trkpt lat="59.9733757" lon="17.7212119">
        <ele>26.5736</ele>
        <time>2013-03-08T19:10:56Z</time>
      </trkpt>
      <trkpt lat="59.9733861" lon="17.7212322">
        <ele>26.5736</ele>
        <time>2013-03-08T19:10:57Z</time>
      </trkpt>
      <trkpt lat="59.9733968" lon="17.7212538">
        <ele>26.5736</ele>
        <time>2013-03-08T19:10:58Z</time>
      </trkpt>
      <trkpt lat="59.9734067" lon="17.7212757">
        <ele>26.5736</ele>
        <time>2013-03-08T19:10:59Z</time>
      </trkpt>
      <trkpt lat="59.9734162" lon="17.7212989">
        <ele>26.5736</ele>
        <time>2013-03-08T19:11:00Z</time>
      </trkpt>
      <trkpt lat="59.973427" lon="17.721322">
        <ele>26.5736</ele>
        <time>2013-03-08T19:11:01Z</time>
      </trkpt>
      <trkpt lat="59.9734379" lon="17.7213442">
        <ele>27.0543</ele>
        <time>2013-03-08T19:11:02Z</time>
      </trkpt>
      <trkpt lat="59.9734481" lon="17.7213659">
        <ele>27.0543</ele>
        <time>2013-03-08T19:11:03Z</time>
      </trkpt>
      <trkpt lat="59.9734595" lon="17.7213885">
        <ele>27.0543</ele>
        <time>2013-03-08T19:11:04Z</time>
      </trkpt>
      <trkpt lat="59.9734695" lon="17.7214098">
        <ele>27.5349</ele>
        <time>2013-03-08T19:11:05Z</time>
      </trkpt>
      <trkpt lat="59.9734789" lon="17.7214327">
        <ele>27.5349</ele>
        <time>2013-03-08T19:11:06Z</time>
      </trkpt>
      <trkpt lat="59.9734883" lon="17.7214561">
        <ele>27.5349</ele>
        <time>2013-03-08T19:11:07Z</time>
      </trkpt>
      <trkpt lat="59.9734981" lon="17.7214773">
        <ele>27.5349</ele>
        <time>2013-03-08T19:11:08Z</time>
      </trkpt>
      <trkpt lat="59.9735077" lon="17.721498">
        <ele>27.5349</ele>
        <time>2013-03-08T19:11:09Z</time>
      </trkpt>
      <trkpt lat="59.973518" lon="17.7215198">
        <ele>27.5349</ele>
        <time>2013-03-08T19:11:10Z</time>
      </trkpt>
      <trkpt lat="59.9735279" lon="17.721543">
        <ele>27.5349</ele>
        <time>2013-03-08T19:11:11Z</time>
      </trkpt>
      <trkpt lat="59.9735366" lon="17.7215659">
        <ele>27.5349</ele>
        <time>2013-03-08T19:11:12Z</time>
      </trkpt>
      <trkpt lat="59.9735447" lon="17.7215888">
        <ele>27.5349</ele>
        <time>2013-03-08T19:11:13Z</time>
      </trkpt>
      <trkpt lat="59.9735537" lon="17.7216107">
        <ele>27.5349</ele>
        <time>2013-03-08T19:11:14Z</time>
      </trkpt>
      <trkpt lat="59.9735638" lon="17.721633">
        <ele>27.5349</ele>
        <time>2013-03-08T19:11:15Z</time>
      </trkpt>
      <trkpt lat="59.9735727" lon="17.721657">
        <ele>27.5349</ele>
        <time>2013-03-08T19:11:16Z</time>
      </trkpt>
      <trkpt lat="59.9735824" lon="17.7216806">
        <ele>27.5349</ele>
        <time>2013-03-08T19:11:17Z</time>
      </trkpt>
      <trkpt lat="59.9735931" lon="17.7217029">
        <ele>28.0155</ele>
        <time>2013-03-08T19:11:18Z</time>
      </trkpt>
      <trkpt lat="59.9736028" lon="17.7217259">
        <ele>28.0155</ele>
        <time>2013-03-08T19:11:19Z</time>
      </trkpt>
      <trkpt lat="59.973613" lon="17.7217497">
        <ele>28.0155</ele>
        <time>2013-03-08T19:11:20Z</time>
      </trkpt>
      <trkpt lat="59.9736234" lon="17.721773">
        <ele>28.4962</ele>
        <time>2013-03-08T19:11:21Z</time>
      </trkpt>
      <trkpt lat="59.9736332" lon="17.7217974">
        <ele>28.4962</ele>
        <time>2013-03-08T19:11:22Z</time>
      </trkpt>
      <trkpt lat="59.973643" lon="17.7218222">
        <ele>28.9769</ele>
        <time>2013-03-08T19:11:23Z</time>
      </trkpt>
      <trkpt lat="59.9736524" lon="17.7218476">
        <ele>28.9769</ele>
        <time>2013-03-08T19:11:24Z</time>
      </trkpt>
      <trkpt lat="59.9736616" lon="17.7218737">
        <ele>28.9769</ele>
        <time>2013-03-08T19:11:25Z</time>
      </trkpt>
      <trkpt lat="59.9736727" lon="17.7218985">
        <ele>29.4575</ele>
        <time>2013-03-08T19:11:26Z</time>
      </trkpt>
      <trkpt lat="59.9736824" lon="17.7219223">
        <ele>29.4575</ele>
        <time>2013-03-08T19:11:27Z</time>
      </trkpt>
      <trkpt lat="59.9736923" lon="17.7219466">
        <ele>29.9381</ele>
        <time>2013-03-08T19:11:28Z</time>
      </trkpt>
      <trkpt lat="59.9737014" lon="17.721971">
        <ele>29.9381</ele>
        <time>2013-03-08T19:11:29Z</time>
      </trkpt>
      <trkpt lat="59.9737105" lon="17.7219952">
        <ele>29.9381</ele>
        <time>2013-03-08T19:11:30Z</time>
      </trkpt>
      <trkpt lat="59.9737192" lon="17.7220199">
        <ele>29.9381</ele>
        <time>2013-03-08T19:11:31Z</time>
      </trkpt>
      <trkpt lat="59.9737286" lon="17.722044">
        <ele>29.9381</ele>
        <time>2013-03-08T19:11:32Z</time>
      </trkpt>
      <trkpt lat="59.9737371" lon="17.7220673">
        <ele>30.4188</ele>
        <time>2013-03-08T19:11:33Z</time>
      </trkpt>
      <trkpt lat="59.9737451" lon="17.7220907">
        <ele>30.4188</ele>
        <time>2013-03-08T19:11:34Z</time>
      </trkpt>
      <trkpt lat="59.9737534" lon="17.7221133">
        <ele>30.4188</ele>
        <time>2013-03-08T19:11:35Z</time>
      </trkpt>
      <trkpt lat="59.9737616" lon="17.722136">
        <ele>30.8995</ele>
        <time>2013-03-08T19:11:36Z</time>
      </trkpt>
      <trkpt lat="59.9737696" lon="17.7221595">
        <ele>30.8995</ele>
        <time>2013-03-08T19:11:37Z</time>
      </trkpt>
      <trkpt lat="59.9737777" lon="17.7221834">
        <ele>31.3801</ele>
        <time>2013-03-08T19:11:38Z</time>
      </trkpt>
      <trkpt lat="59.9737849" lon="17.7222087">
        <ele>31.3801</ele>
        <time>2013-03-08T19:11:39Z</time>
      </trkpt>
      <trkpt lat="59.9737922" lon="17.722233">
        <ele>31.3801</ele>
        <time>2013-03-08T19:11:40Z</time>
      </trkpt>
      <trkpt lat="59.9738004" lon="17.7222556">
        <ele>31.3801</ele>
        <time>2013-03-08T19:11:41Z</time>
      </trkpt>
      <trkpt lat="59.9738078" lon="17.722279">
        <ele>31.3801</ele>
        <time>2013-03-08T19:11:42Z</time>
      </trkpt>
      <trkpt lat="59.9738148" lon="17.7223033">
        <ele>31.3801</ele>
        <time>2013-03-08T19:11:43Z</time>
      </trkpt>
      <trkpt lat="59.9738214" lon="17.7223282">
        <ele>30.8995</ele>
        <time>2013-03-08T19:11:44Z</time>
      </trkpt>
      <trkpt lat="59.973829" lon="17.7223531">
        <ele>31.3801</ele>
        <time>2013-03-08T19:11:45Z</time>
      </trkpt>
      <trkpt lat="59.9738361" lon="17.7223764">
        <ele>30.8995</ele>
        <time>2013-03-08T19:11:46Z</time>
      </trkpt>
      <trkpt lat="59.9738438" lon="17.7224005">
        <ele>30.8995</ele>
        <time>2013-03-08T19:11:47Z</time>
      </trkpt>
      <trkpt lat="59.9738508" lon="17.7224266">
        <ele>30.8995</ele>
        <time>2013-03-08T19:11:48Z</time>
      </trkpt>
      <trkpt lat="59.973858" lon="17.7224502">
        <ele>30.8995</ele>
        <time>2013-03-08T19:11:49Z</time>
      </trkpt>
      <trkpt lat="59.9738656" lon="17.7224724">
        <ele>30.8995</ele>
        <time>2013-03-08T19:11:50Z</time>
      </trkpt>
      <trkpt lat="59.9738713" lon="17.7224978">
        <ele>30.8995</ele>
        <time>2013-03-08T19:11:51Z</time>
      </trkpt>
      <trkpt lat="59.9738767" lon="17.7225226">
        <ele>30.8995</ele>
        <time>2013-03-08T19:11:52Z</time>
      </trkpt>
      <trkpt lat="59.9738824" lon="17.722546">
        <ele>30.8995</ele>
        <time>2013-03-08T19:11:53Z</time>
      </trkpt>
      <trkpt lat="59.9738891" lon="17.7225696">
        <ele>30.8995</ele>
        <time>2013-03-08T19:11:54Z</time>
      </trkpt>
      <trkpt lat="59.9738962" lon="17.7225924">
        <ele>30.8995</ele>
        <time>2013-03-08T19:11:55Z</time>
      </trkpt>
      <trkpt lat="59.9739025" lon="17.7226136">
        <ele>30.8995</ele>
        <time>2013-03-08T19:11:56Z</time>
      </trkpt>
      <trkpt lat="59.9739084" lon="17.7226371">
        <ele>30.8995</ele>
        <time>2013-03-08T19:11:57Z</time>
      </trkpt>
      <trkpt lat="59.9739155" lon="17.7226615">
        <ele>30.8995</ele>
        <time>2013-03-08T19:11:58Z</time>
      </trkpt>
      <trkpt lat="59.9739223" lon="17.7226861">
        <ele>31.3801</ele>
        <time>2013-03-08T19:11:59Z</time>
      </trkpt>
      <trkpt lat="59.973929" lon="17.7227101">
        <ele>31.3801</ele>
        <time>2013-03-08T19:12:00Z</time>
      </trkpt>
      <trkpt lat="59.9739343" lon="17.722735">
        <ele>30.8995</ele>
        <time>2013-03-08T19:12:01Z</time>
      </trkpt>
      <trkpt lat="59.9739399" lon="17.7227609">
        <ele>30.8995</ele>
        <time>2013-03-08T19:12:02Z</time>
      </trkpt>
      <trkpt lat="59.9739471" lon="17.7227871">
        <ele>30.8995</ele>
        <time>2013-03-08T19:12:03Z</time>
      </trkpt>
      <trkpt lat="59.9739528" lon="17.7228159">
        <ele>31.3801</ele>
        <time>2013-03-08T19:12:04Z</time>
      </trkpt>
      <trkpt lat="59.9739575" lon="17.7228441">
        <ele>31.3801</ele>
        <time>2013-03-08T19:12:05Z</time>
      </trkpt>
      <trkpt lat="59.9739622" lon="17.7228693">
        <ele>31.3801</ele>
        <time>2013-03-08T19:12:06Z</time>
      </trkpt>
      <trkpt lat="59.9739673" lon="17.7228951">
        <ele>31.3801</ele>
        <time>2013-03-08T19:12:07Z</time>
      </trkpt>
      <trkpt lat="59.9739733" lon="17.7229198">
        <ele>31.3801</ele>
        <time>2013-03-08T19:12:08Z</time>
      </trkpt>
      <trkpt lat="59.9739792" lon="17.7229438">
        <ele>31.3801</ele>
        <time>2013-03-08T19:12:09Z</time>
      </trkpt>
      <trkpt lat="59.9739856" lon="17.7229667">
        <ele>31.3801</ele>
        <time>2013-03-08T19:12:10Z</time>
      </trkpt>
      <trkpt lat="59.9739916" lon="17.7229909">
        <ele>30.8995</ele>
        <time>2013-03-08T19:12:11Z</time>
      </trkpt>
      <trkpt lat="59.9739967" lon="17.7230169">
        <ele>30.8995</ele>
        <time>2013-03-08T19:12:12Z</time>
      </trkpt>
      <trkpt lat="59.9740014" lon="17.7230432">
        <ele>30.8995</ele>
        <time>2013-03-08T19:12:13Z</time>
      </trkpt>
      <trkpt lat="59.9740067" lon="17.7230686">
        <ele>30.8995</ele>
        <time>2013-03-08T19:12:14Z</time>
      </trkpt>
      <trkpt lat="59.9740114" lon="17.7230949">
        <ele>30.8995</ele>
        <time>2013-03-08T19:12:15Z</time>
      </trkpt>
      <trkpt lat="59.9740151" lon="17.7231223">
        <ele>30.8995</ele>
        <time>2013-03-08T19:12:16Z</time>
      </trkpt>
      <trkpt lat="59.9740174" lon="17.7231492">
        <ele>30.8995</ele>
        <time>2013-03-08T19:12:17Z</time>
      </trkpt>
      <trkpt lat="59.9740197" lon="17.7231757">
        <ele>30.8995</ele>
        <time>2013-03-08T19:12:18Z</time>
      </trkpt>
      <trkpt lat="59.9740228" lon="17.723202">
        <ele>30.8995</ele>
        <time>2013-03-08T19:12:19Z</time>
      </trkpt>
      <trkpt lat="59.9740269" lon="17.7232275">
        <ele>30.8995</ele>
        <time>2013-03-08T19:12:20Z</time>
      </trkpt>
      <trkpt lat="59.9740311" lon="17.7232535">
        <ele>30.8995</ele>
        <time>2013-03-08T19:12:21Z</time>
      </trkpt>
      <trkpt lat="59.9740347" lon="17.7232799">
        <ele>30.8995</ele>
        <time>2013-03-08T19:12:22Z</time>
      </trkpt>
      <trkpt lat="59.9740383" lon="17.7233058">
        <ele>30.8995</ele>
        <time>2013-03-08T19:12:23Z</time>
      </trkpt>
      <trkpt lat="59.9740429" lon="17.7233307">
        <ele>30.8995</ele>
        <time>2013-03-08T19:12:24Z</time>
      </trkpt>
      <trkpt lat="59.9740466" lon="17.7233561">
        <ele>30.4188</ele>
        <time>2013-03-08T19:12:25Z</time>
      </trkpt>
      <trkpt lat="59.974051" lon="17.723383">
        <ele>30.4188</ele>
        <time>2013-03-08T19:12:26Z</time>
      </trkpt>
      <trkpt lat="59.9740542" lon="17.72341">
        <ele>30.4188</ele>
        <time>2013-03-08T19:12:27Z</time>
      </trkpt>
      <trkpt lat="59.9740575" lon="17.7234374">
        <ele>30.4188</ele>
        <time>2013-03-08T19:12:28Z</time>
      </trkpt>
      <trkpt lat="59.9740606" lon="17.723465">
        <ele>30.4188</ele>
        <time>2013-03-08T19:12:29Z</time>
      </trkpt>
      <trkpt lat="59.9740642" lon="17.7234926">
        <ele>30.4188</ele>
        <time>2013-03-08T19:12:30Z</time>
      </trkpt>
      <trkpt lat="59.9740678" lon="17.7235198">
        <ele>30.4188</ele>
        <time>2013-03-08T19:12:31Z</time>
      </trkpt>
      <trkpt lat="59.9740718" lon="17.7235467">
        <ele>30.4188</ele>
        <time>2013-03-08T19:12:32Z</time>
      </trkpt>
      <trkpt lat="59.9740762" lon="17.7235732">
        <ele>30.4188</ele>
        <time>2013-03-08T19:12:33Z</time>
      </trkpt>
      <trkpt lat="59.9740813" lon="17.7236">
        <ele>30.4188</ele>
        <time>2013-03-08T19:12:34Z</time>
      </trkpt>
      <trkpt lat="59.9740865" lon="17.7236269">
        <ele>30.4188</ele>
        <time>2013-03-08T19:12:35Z</time>
      </trkpt>
      <trkpt lat="59.9740916" lon="17.723654">
        <ele>29.9381</ele>
        <time>2013-03-08T19:12:36Z</time>
      </trkpt>
      <trkpt lat="59.9740961" lon="17.7236819">
        <ele>29.9381</ele>
        <time>2013-03-08T19:12:37Z</time>
      </trkpt>
      <trkpt lat="59.9741005" lon="17.7237105">
        <ele>29.9381</ele>
        <time>2013-03-08T19:12:38Z</time>
      </trkpt>
      <trkpt lat="59.9741049" lon="17.7237394">
        <ele>29.9381</ele>
        <time>2013-03-08T19:12:39Z</time>
      </trkpt>
      <trkpt lat="59.974109" lon="17.7237675">
        <ele>29.9381</ele>
        <time>2013-03-08T19:12:40Z</time>
      </trkpt>
      <trkpt lat="59.974113" lon="17.7237958">
        <ele>29.9381</ele>
        <time>2013-03-08T19:12:41Z</time>
      </trkpt>
      <trkpt lat="59.9741169" lon="17.723824">
        <ele>29.9381</ele>
        <time>2013-03-08T19:12:42Z</time>
      </trkpt>
      <trkpt lat="59.9741207" lon="17.7238519">
        <ele>29.9381</ele>
        <time>2013-03-08T19:12:43Z</time>
      </trkpt>
      <trkpt lat="59.9741248" lon="17.7238803">
        <ele>29.9381</ele>
        <time>2013-03-08T19:12:44Z</time>
      </trkpt>
      <trkpt lat="59.9741289" lon="17.7239083">
        <ele>29.9381</ele>
        <time>2013-03-08T19:12:45Z</time>
      </trkpt>
      <trkpt lat="59.9741327" lon="17.7239363">
        <ele>29.9381</ele>
        <time>2013-03-08T19:12:46Z</time>
      </trkpt>
      <trkpt lat="59.9741371" lon="17.7239652">
        <ele>29.9381</ele>
        <time>2013-03-08T19:12:47Z</time>
      </trkpt>
      <trkpt lat="59.9741414" lon="17.7239943">
        <ele>29.9381</ele>
        <time>2013-03-08T19:12:48Z</time>
      </trkpt>
      <trkpt lat="59.9741459" lon="17.7240238">
        <ele>29.9381</ele>
        <time>2013-03-08T19:12:49Z</time>
      </trkpt>
      <trkpt lat="59.9741502" lon="17.7240533">
        <ele>29.9381</ele>
        <time>2013-03-08T19:12:50Z</time>
      </trkpt>
      <trkpt lat="59.9741544" lon="17.7240823">
        <ele>29.9381</ele>
        <time>2013-03-08T19:12:51Z</time>
      </trkpt>
      <trkpt lat="59.9741591" lon="17.7241113">
        <ele>29.9381</ele>
        <time>2013-03-08T19:12:52Z</time>
      </trkpt>
      <trkpt lat="59.9741631" lon="17.7241399">
        <ele>29.9381</ele>
        <time>2013-03-08T19:12:53Z</time>
      </trkpt>
      <trkpt lat="59.9741666" lon="17.7241687">
        <ele>29.9381</ele>
        <time>2013-03-08T19:12:54Z</time>
      </trkpt>
      <trkpt lat="59.9741699" lon="17.7241973">
        <ele>29.9381</ele>
        <time>2013-03-08T19:12:55Z</time>
      </trkpt>
      <trkpt lat="59.9741739" lon="17.7242247">
        <ele>29.9381</ele>
        <time>2013-03-08T19:12:56Z</time>
      </trkpt>
      <trkpt lat="59.9741783" lon="17.7242521">
        <ele>29.9381</ele>
        <time>2013-03-08T19:12:57Z</time>
      </trkpt>
      <trkpt lat="59.9741827" lon="17.7242802">
        <ele>29.9381</ele>
        <time>2013-03-08T19:12:58Z</time>
      </trkpt>
      <trkpt lat="59.9741867" lon="17.7243083">
        <ele>29.9381</ele>
        <time>2013-03-08T19:12:59Z</time>
      </trkpt>
      <trkpt lat="59.9741897" lon="17.7243368">
        <ele>29.9381</ele>
        <time>2013-03-08T19:13:00Z</time>
      </trkpt>
      <trkpt lat="59.9741931" lon="17.7243656">
        <ele>29.9381</ele>
        <time>2013-03-08T19:13:01Z</time>
      </trkpt>
      <trkpt lat="59.9741971" lon="17.7243946">
        <ele>29.9381</ele>
        <time>2013-03-08T19:13:02Z</time>
      </trkpt>
      <trkpt lat="59.9742015" lon="17.7244237">
        <ele>29.9381</ele>
        <time>2013-03-08T19:13:03Z</time>
      </trkpt>
      <trkpt lat="59.974206" lon="17.7244528">
        <ele>29.9381</ele>
        <time>2013-03-08T19:13:04Z</time>
      </trkpt>
      <trkpt lat="59.9742104" lon="17.724482">
        <ele>29.9381</ele>
        <time>2013-03-08T19:13:05Z</time>
      </trkpt>
      <trkpt lat="59.9742148" lon="17.7245111">
        <ele>29.9381</ele>
        <time>2013-03-08T19:13:06Z</time>
      </trkpt>
      <trkpt lat="59.9742192" lon="17.7245393">
        <ele>29.9381</ele>
        <time>2013-03-08T19:13:07Z</time>
      </trkpt>
      <trkpt lat="59.9742241" lon="17.7245677">
        <ele>29.9381</ele>
        <time>2013-03-08T19:13:08Z</time>
      </trkpt>
      <trkpt lat="59.9742287" lon="17.7245967">
        <ele>29.9381</ele>
        <time>2013-03-08T19:13:09Z</time>
      </trkpt>
      <trkpt lat="59.9742325" lon="17.724626">
        <ele>29.9381</ele>
        <time>2013-03-08T19:13:10Z</time>
      </trkpt>
      <trkpt lat="59.9742361" lon="17.7246553">
        <ele>29.9381</ele>
        <time>2013-03-08T19:13:11Z</time>
      </trkpt>
      <trkpt lat="59.9742391" lon="17.7246843">
        <ele>29.9381</ele>
        <time>2013-03-08T19:13:12Z</time>
      </trkpt>
      <trkpt lat="59.9742418" lon="17.7247133">
        <ele>29.9381</ele>
        <time>2013-03-08T19:13:13Z</time>
      </trkpt>
      <trkpt lat="59.9742446" lon="17.7247423">
        <ele>29.9381</ele>
        <time>2013-03-08T19:13:14Z</time>
      </trkpt>
      <trkpt lat="59.9742486" lon="17.7247707">
        <ele>29.9381</ele>
        <time>2013-03-08T19:13:15Z</time>
      </trkpt>
      <trkpt lat="59.9742529" lon="17.7247986">
        <ele>29.9381</ele>
        <time>2013-03-08T19:13:16Z</time>
      </trkpt>
      <trkpt lat="59.9742578" lon="17.7248261">
        <ele>29.9381</ele>
        <time>2013-03-08T19:13:17Z</time>
      </trkpt>
      <trkpt lat="59.9742619" lon="17.7248538">
        <ele>29.9381</ele>
        <time>2013-03-08T19:13:18Z</time>
      </trkpt>
      <trkpt lat="59.9742657" lon="17.7248819">
        <ele>29.9381</ele>
        <time>2013-03-08T19:13:19Z</time>
      </trkpt>
      <trkpt lat="59.9742697" lon="17.72491">
        <ele>29.9381</ele>
        <time>2013-03-08T19:13:20Z</time>
      </trkpt>
      <trkpt lat="59.974274" lon="17.7249374">
        <ele>29.9381</ele>
        <time>2013-03-08T19:13:21Z</time>
      </trkpt>
      <trkpt lat="59.974279" lon="17.7249646">
        <ele>29.9381</ele>
        <time>2013-03-08T19:13:22Z</time>
      </trkpt>
      <trkpt lat="59.9742834" lon="17.7249926">
        <ele>29.9381</ele>
        <time>2013-03-08T19:13:23Z</time>
      </trkpt>
      <trkpt lat="59.9742869" lon="17.7250206">
        <ele>29.9381</ele>
        <time>2013-03-08T19:13:24Z</time>
      </trkpt>
      <trkpt lat="59.9742904" lon="17.7250491">
        <ele>29.9381</ele>
        <time>2013-03-08T19:13:25Z</time>
      </trkpt>
      <trkpt lat="59.9742942" lon="17.7250778">
        <ele>29.9381</ele>
        <time>2013-03-08T19:13:26Z</time>
      </trkpt>
      <trkpt lat="59.9742983" lon="17.7251065">
        <ele>29.9381</ele>
        <time>2013-03-08T19:13:27Z</time>
      </trkpt>
      <trkpt lat="59.9743019" lon="17.7251355">
        <ele>29.9381</ele>
        <time>2013-03-08T19:13:28Z</time>
      </trkpt>
      <trkpt lat="59.9743046" lon="17.7251645">
        <ele>29.9381</ele>
        <time>2013-03-08T19:13:29Z</time>
      </trkpt>
      <trkpt lat="59.9743081" lon="17.7251931">
        <ele>29.9381</ele>
        <time>2013-03-08T19:13:30Z</time>
      </trkpt>
      <trkpt lat="59.9743123" lon="17.7252209">
        <ele>29.9381</ele>
        <time>2013-03-08T19:13:31Z</time>
      </trkpt>
      <trkpt lat="59.9743165" lon="17.7252493">
        <ele>29.9381</ele>
        <time>2013-03-08T19:13:32Z</time>
      </trkpt>
      <trkpt lat="59.9743194" lon="17.7252779">
        <ele>29.9381</ele>
        <time>2013-03-08T19:13:33Z</time>
      </trkpt>
      <trkpt lat="59.9743221" lon="17.7253068">
        <ele>29.9381</ele>
        <time>2013-03-08T19:13:34Z</time>
      </trkpt>
      <trkpt lat="59.9743256" lon="17.7253349">
        <ele>29.9381</ele>
        <time>2013-03-08T19:13:35Z</time>
      </trkpt>
      <trkpt lat="59.9743289" lon="17.7253628">
        <ele>29.9381</ele>
        <time>2013-03-08T19:13:36Z</time>
      </trkpt>
      <trkpt lat="59.9743319" lon="17.7253906">
        <ele>29.9381</ele>
        <time>2013-03-08T19:13:37Z</time>
      </trkpt>
      <trkpt lat="59.9743352" lon="17.7254187">
        <ele>29.9381</ele>
        <time>2013-03-08T19:13:38Z</time>
      </trkpt>
      <trkpt lat="59.9743382" lon="17.7254469">
        <ele>29.9381</ele>
        <time>2013-03-08T19:13:39Z</time>
      </trkpt>
      <trkpt lat="59.9743404" lon="17.7254746">
        <ele>29.4575</ele>
        <time>2013-03-08T19:13:40Z</time>
      </trkpt>
      <trkpt lat="59.974342" lon="17.7255011">
        <ele>29.4575</ele>
        <time>2013-03-08T19:13:41Z</time>
      </trkpt>
      <trkpt lat="59.9743437" lon="17.725527">
        <ele>29.4575</ele>
        <time>2013-03-08T19:13:42Z</time>
      </trkpt>
      <trkpt lat="59.974345" lon="17.7255534">
        <ele>28.9769</ele>
        <time>2013-03-08T19:13:43Z</time>
      </trkpt>
      <trkpt lat="59.9743465" lon="17.7255804">
        <ele>28.9769</ele>
        <time>2013-03-08T19:13:44Z</time>
      </trkpt>
      <trkpt lat="59.9743486" lon="17.7256079">
        <ele>28.9769</ele>
        <time>2013-03-08T19:13:45Z</time>
      </trkpt>
      <trkpt lat="59.9743502" lon="17.7256357">
        <ele>28.9769</ele>
        <time>2013-03-08T19:13:46Z</time>
      </trkpt>
      <trkpt lat="59.9743516" lon="17.7256628">
        <ele>28.4962</ele>
        <time>2013-03-08T19:13:47Z</time>
      </trkpt>
      <trkpt lat="59.9743535" lon="17.7256898">
        <ele>28.4962</ele>
        <time>2013-03-08T19:13:48Z</time>
      </trkpt>
      <trkpt lat="59.9743558" lon="17.7257167">
        <ele>28.4962</ele>
        <time>2013-03-08T19:13:49Z</time>
      </trkpt>
      <trkpt lat="59.9743575" lon="17.7257432">
        <ele>28.0155</ele>
        <time>2013-03-08T19:13:50Z</time>
      </trkpt>
      <trkpt lat="59.9743601" lon="17.7257695">
        <ele>28.0155</ele>
        <time>2013-03-08T19:13:51Z</time>
      </trkpt>
      <trkpt lat="59.9743626" lon="17.725796">
        <ele>27.5349</ele>
        <time>2013-03-08T19:13:52Z</time>
      </trkpt>
      <trkpt lat="59.9743646" lon="17.7258218">
        <ele>27.5349</ele>
        <time>2013-03-08T19:13:53Z</time>
      </trkpt>
      <trkpt lat="59.9743662" lon="17.7258451">
        <ele>27.5349</ele>
        <time>2013-03-08T19:13:54Z</time>
      </trkpt>
      <trkpt lat="59.9743676" lon="17.7258673">
        <ele>27.5349</ele>
        <time>2013-03-08T19:13:55Z</time>
      </trkpt>
      <trkpt lat="59.9743689" lon="17.7258881">
        <ele>27.0543</ele>
        <time>2013-03-08T19:13:56Z</time>
      </trkpt>
      <trkpt lat="59.9743703" lon="17.7259068">
        <ele>27.0543</ele>
        <time>2013-03-08T19:13:57Z</time>
      </trkpt>
      <trkpt lat="59.9743718" lon="17.7259271">
        <ele>27.0543</ele>
        <time>2013-03-08T19:13:58Z</time>
      </trkpt>
      <trkpt lat="59.9743733" lon="17.7259506">
        <ele>26.5736</ele>
        <time>2013-03-08T19:13:59Z</time>
      </trkpt>
      <trkpt lat="59.9743755" lon="17.7259766">
        <ele>26.5736</ele>
        <time>2013-03-08T19:14:00Z</time>
      </trkpt>
      <trkpt lat="59.9743771" lon="17.7260037">
        <ele>26.0929</ele>
        <time>2013-03-08T19:14:01Z</time>
      </trkpt>
      <trkpt lat="59.9743776" lon="17.726031">
        <ele>26.0929</ele>
        <time>2013-03-08T19:14:02Z</time>
      </trkpt>
      <trkpt lat="59.9743764" lon="17.7260584">
        <ele>26.0929</ele>
        <time>2013-03-08T19:14:03Z</time>
      </trkpt>
      <trkpt lat="59.9743732" lon="17.7260855">
        <ele>26.0929</ele>
        <time>2013-03-08T19:14:04Z</time>
      </trkpt>
      <trkpt lat="59.9743708" lon="17.7261129">
        <ele>26.0929</ele>
        <time>2013-03-08T19:14:05Z</time>
      </trkpt>
      <trkpt lat="59.9743688" lon="17.72614">
        <ele>26.0929</ele>
        <time>2013-03-08T19:14:06Z</time>
      </trkpt>
      <trkpt lat="59.9743682" lon="17.7261666">
        <ele>26.0929</ele>
        <time>2013-03-08T19:14:07Z</time>
      </trkpt>
      <trkpt lat="59.9743688" lon="17.72619">
        <ele>25.6123</ele>
        <time>2013-03-08T19:14:08Z</time>
      </trkpt>
      <trkpt lat="59.9743703" lon="17.726213">
        <ele>25.6123</ele>
        <time>2013-03-08T19:14:09Z</time>
      </trkpt>
      <trkpt lat="59.9743709" lon="17.7262373">
        <ele>25.6123</ele>
        <time>2013-03-08T19:14:10Z</time>
      </trkpt>
      <trkpt lat="59.9743718" lon="17.7262617">
        <ele>25.6123</ele>
        <time>2013-03-08T19:14:11Z</time>
      </trkpt>
      <trkpt lat="59.9743727" lon="17.7262874">
        <ele>25.6123</ele>
        <time>2013-03-08T19:14:12Z</time>
      </trkpt>
      <trkpt lat="59.9743729" lon="17.726315">
        <ele>25.6123</ele>
        <time>2013-03-08T19:14:13Z</time>
      </trkpt>
      <trkpt lat="59.9743719" lon="17.7263429">
        <ele>25.6123</ele>
        <time>2013-03-08T19:14:14Z</time>
      </trkpt>
      <trkpt lat="59.9743725" lon="17.7263683">
        <ele>25.6123</ele>
        <time>2013-03-08T19:14:15Z</time>
      </trkpt>
      <trkpt lat="59.9743775" lon="17.7263947">
        <ele>26.0929</ele>
        <time>2013-03-08T19:14:16Z</time>
      </trkpt>
      <trkpt lat="59.9743802" lon="17.7264212">
        <ele>26.0929</ele>
        <time>2013-03-08T19:14:17Z</time>
      </trkpt>
      <trkpt lat="59.974382" lon="17.7264498">
        <ele>26.5736</ele>
        <time>2013-03-08T19:14:18Z</time>
      </trkpt>
      <trkpt lat="59.9743839" lon="17.7264779">
        <ele>26.5736</ele>
        <time>2013-03-08T19:14:19Z</time>
      </trkpt>
      <trkpt lat="59.9743862" lon="17.7265045">
        <ele>26.5736</ele>
        <time>2013-03-08T19:14:20Z</time>
      </trkpt>
      <trkpt lat="59.9743886" lon="17.7265302">
        <ele>26.0929</ele>
        <time>2013-03-08T19:14:21Z</time>
      </trkpt>
      <trkpt lat="59.9743905" lon="17.7265564">
        <ele>26.0929</ele>
        <time>2013-03-08T19:14:22Z</time>
      </trkpt>
      <trkpt lat="59.9743911" lon="17.7265838">
        <ele>26.0929</ele>
        <time>2013-03-08T19:14:23Z</time>
      </trkpt>
      <trkpt lat="59.9743916" lon="17.7266113">
        <ele>26.0929</ele>
        <time>2013-03-08T19:14:24Z</time>
      </trkpt>
      <trkpt lat="59.9743925" lon="17.7266391">
        <ele>26.0929</ele>
        <time>2013-03-08T19:14:25Z</time>
      </trkpt>
      <trkpt lat="59.9743926" lon="17.7266672">
        <ele>26.0929</ele>
        <time>2013-03-08T19:14:26Z</time>
      </trkpt>
      <trkpt lat="59.9743921" lon="17.7266947">
        <ele>25.6123</ele>
        <time>2013-03-08T19:14:27Z</time>
      </trkpt>
      <trkpt lat="59.9743925" lon="17.7267227">
        <ele>25.6123</ele>
        <time>2013-03-08T19:14:28Z</time>
      </trkpt>
      <trkpt lat="59.9743925" lon="17.7267516">
        <ele>25.6123</ele>
        <time>2013-03-08T19:14:29Z</time>
      </trkpt>
      <trkpt lat="59.9743922" lon="17.7267807">
        <ele>25.6123</ele>
        <time>2013-03-08T19:14:30Z</time>
      </trkpt>
      <trkpt lat="59.9743919" lon="17.7268106">
        <ele>25.6123</ele>
        <time>2013-03-08T19:14:31Z</time>
      </trkpt>
      <trkpt lat="59.9743916" lon="17.7268391">
        <ele>25.6123</ele>
        <time>2013-03-08T19:14:32Z</time>
      </trkpt>
      <trkpt lat="59.9743921" lon="17.7268675">
        <ele>25.6123</ele>
        <time>2013-03-08T19:14:33Z</time>
      </trkpt>
      <trkpt lat="59.9743925" lon="17.7268965">
        <ele>25.6123</ele>
        <time>2013-03-08T19:14:34Z</time>
      </trkpt>
      <trkpt lat="59.9743927" lon="17.7269262">
        <ele>25.6123</ele>
        <time>2013-03-08T19:14:35Z</time>
      </trkpt>
      <trkpt lat="59.974393" lon="17.7269563">
        <ele>25.6123</ele>
        <time>2013-03-08T19:14:36Z</time>
      </trkpt>
      <trkpt lat="59.9743929" lon="17.7269863">
        <ele>25.6123</ele>
        <time>2013-03-08T19:14:37Z</time>
      </trkpt>
      <trkpt lat="59.9743927" lon="17.7270156">
        <ele>25.6123</ele>
        <time>2013-03-08T19:14:38Z</time>
      </trkpt>
      <trkpt lat="59.9743931" lon="17.7270454">
        <ele>25.6123</ele>
        <time>2013-03-08T19:14:39Z</time>
      </trkpt>
      <trkpt lat="59.9743936" lon="17.7270759">
        <ele>25.6123</ele>
        <time>2013-03-08T19:14:40Z</time>
      </trkpt>
      <trkpt lat="59.9743937" lon="17.7271054">
        <ele>25.6123</ele>
        <time>2013-03-08T19:14:41Z</time>
      </trkpt>
      <trkpt lat="59.974395" lon="17.7271343">
        <ele>25.6123</ele>
        <time>2013-03-08T19:14:42Z</time>
      </trkpt>
      <trkpt lat="59.9743968" lon="17.7271628">
        <ele>25.6123</ele>
        <time>2013-03-08T19:14:43Z</time>
      </trkpt>
      <trkpt lat="59.9743984" lon="17.7271919">
        <ele>25.6123</ele>
        <time>2013-03-08T19:14:44Z</time>
      </trkpt>
      <trkpt lat="59.9743995" lon="17.7272214">
        <ele>25.6123</ele>
        <time>2013-03-08T19:14:45Z</time>
      </trkpt>
      <trkpt lat="59.9743999" lon="17.7272508">
        <ele>25.6123</ele>
        <time>2013-03-08T19:14:46Z</time>
      </trkpt>
      <trkpt lat="59.9743999" lon="17.7272795">
        <ele>25.6123</ele>
        <time>2013-03-08T19:14:47Z</time>
      </trkpt>
      <trkpt lat="59.9743998" lon="17.7273085">
        <ele>25.6123</ele>
        <time>2013-03-08T19:14:48Z</time>
      </trkpt>
      <trkpt lat="59.9744008" lon="17.7273369">
        <ele>25.6123</ele>
        <time>2013-03-08T19:14:49Z</time>
      </trkpt>
      <trkpt lat="59.9744019" lon="17.727365">
        <ele>25.6123</ele>
        <time>2013-03-08T19:14:50Z</time>
      </trkpt>
      <trkpt lat="59.974403" lon="17.7273934">
        <ele>25.6123</ele>
        <time>2013-03-08T19:14:51Z</time>
      </trkpt>
      <trkpt lat="59.9744035" lon="17.7274218">
        <ele>25.6123</ele>
        <time>2013-03-08T19:14:52Z</time>
      </trkpt>
      <trkpt lat="59.974403" lon="17.7274499">
        <ele>25.6123</ele>
        <time>2013-03-08T19:14:53Z</time>
      </trkpt>
      <trkpt lat="59.9744031" lon="17.7274763">
        <ele>25.6123</ele>
        <time>2013-03-08T19:14:54Z</time>
      </trkpt>
      <trkpt lat="59.974404" lon="17.7275048">
        <ele>25.6123</ele>
        <time>2013-03-08T19:14:55Z</time>
      </trkpt>
      <trkpt lat="59.9744045" lon="17.7275328">
        <ele>25.6123</ele>
        <time>2013-03-08T19:14:56Z</time>
      </trkpt>
      <trkpt lat="59.9744051" lon="17.7275595">
        <ele>25.6123</ele>
        <time>2013-03-08T19:14:57Z</time>
      </trkpt>
      <trkpt lat="59.9744056" lon="17.7275872">
        <ele>25.6123</ele>
        <time>2013-03-08T19:14:58Z</time>
      </trkpt>
      <trkpt lat="59.9744054" lon="17.7276152">
        <ele>25.6123</ele>
        <time>2013-03-08T19:14:59Z</time>
      </trkpt>
      <trkpt lat="59.974405" lon="17.7276431">
        <ele>25.6123</ele>
        <time>2013-03-08T19:15:00Z</time>
      </trkpt>
      <trkpt lat="59.9744051" lon="17.7276706">
        <ele>25.1317</ele>
        <time>2013-03-08T19:15:01Z</time>
      </trkpt>
      <trkpt lat="59.9744061" lon="17.7276981">
        <ele>25.1317</ele>
        <time>2013-03-08T19:15:02Z</time>
      </trkpt>
      <trkpt lat="59.9744066" lon="17.7277279">
        <ele>25.1317</ele>
        <time>2013-03-08T19:15:03Z</time>
      </trkpt>
      <trkpt lat="59.9744059" lon="17.7277564">
        <ele>25.1317</ele>
        <time>2013-03-08T19:15:04Z</time>
      </trkpt>
      <trkpt lat="59.9744061" lon="17.7277825">
        <ele>25.1317</ele>
        <time>2013-03-08T19:15:05Z</time>
      </trkpt>
      <trkpt lat="59.9744076" lon="17.7278089">
        <ele>25.1317</ele>
        <time>2013-03-08T19:15:06Z</time>
      </trkpt>
      <trkpt lat="59.974409" lon="17.7278372">
        <ele>25.1317</ele>
        <time>2013-03-08T19:15:07Z</time>
      </trkpt>
      <trkpt lat="59.9744101" lon="17.7278669">
        <ele>25.1317</ele>
        <time>2013-03-08T19:15:08Z</time>
      </trkpt>
      <trkpt lat="59.9744118" lon="17.7278957">
        <ele>25.1317</ele>
        <time>2013-03-08T19:15:09Z</time>
      </trkpt>
      <trkpt lat="59.9744133" lon="17.7279239">
        <ele>25.1317</ele>
        <time>2013-03-08T19:15:10Z</time>
      </trkpt>
      <trkpt lat="59.9744144" lon="17.727951">
        <ele>25.1317</ele>
        <time>2013-03-08T19:15:11Z</time>
      </trkpt>
      <trkpt lat="59.974416" lon="17.7279779">
        <ele>25.1317</ele>
        <time>2013-03-08T19:15:12Z</time>
      </trkpt>
      <trkpt lat="59.9744176" lon="17.7280057">
        <ele>25.1317</ele>
        <time>2013-03-08T19:15:13Z</time>
      </trkpt>
      <trkpt lat="59.9744185" lon="17.7280336">
        <ele>25.1317</ele>
        <time>2013-03-08T19:15:14Z</time>
      </trkpt>
      <trkpt lat="59.9744194" lon="17.7280615">
        <ele>25.1317</ele>
        <time>2013-03-08T19:15:15Z</time>
      </trkpt>
      <trkpt lat="59.974421" lon="17.7280908">
        <ele>25.1317</ele>
        <time>2013-03-08T19:15:16Z</time>
      </trkpt>
      <trkpt lat="59.9744224" lon="17.7281206">
        <ele>25.1317</ele>
        <time>2013-03-08T19:15:17Z</time>
      </trkpt>
      <trkpt lat="59.9744242" lon="17.7281503">
        <ele>25.6123</ele>
        <time>2013-03-08T19:15:18Z</time>
      </trkpt>
      <trkpt lat="59.9744258" lon="17.7281806">
        <ele>25.6123</ele>
        <time>2013-03-08T19:15:19Z</time>
      </trkpt>
      <trkpt lat="59.9744264" lon="17.7282108">
        <ele>25.6123</ele>
        <time>2013-03-08T19:15:20Z</time>
      </trkpt>
      <trkpt lat="59.9744264" lon="17.72824">
        <ele>25.6123</ele>
        <time>2013-03-08T19:15:21Z</time>
      </trkpt>
      <trkpt lat="59.9744268" lon="17.728269">
        <ele>25.6123</ele>
        <time>2013-03-08T19:15:22Z</time>
      </trkpt>
      <trkpt lat="59.9744273" lon="17.728298">
        <ele>25.6123</ele>
        <time>2013-03-08T19:15:23Z</time>
      </trkpt>
      <trkpt lat="59.9744279" lon="17.7283273">
        <ele>25.6123</ele>
        <time>2013-03-08T19:15:24Z</time>
      </trkpt>
      <trkpt lat="59.9744284" lon="17.728356">
        <ele>25.6123</ele>
        <time>2013-03-08T19:15:25Z</time>
      </trkpt>
      <trkpt lat="59.9744292" lon="17.7283853">
        <ele>25.6123</ele>
        <time>2013-03-08T19:15:26Z</time>
      </trkpt>
      <trkpt lat="59.9744304" lon="17.7284149">
        <ele>26.0929</ele>
        <time>2013-03-08T19:15:27Z</time>
      </trkpt>
      <trkpt lat="59.974432" lon="17.7284436">
        <ele>26.0929</ele>
        <time>2013-03-08T19:15:28Z</time>
      </trkpt>
      <trkpt lat="59.974434" lon="17.7284721">
        <ele>26.0929</ele>
        <time>2013-03-08T19:15:29Z</time>
      </trkpt>
      <trkpt lat="59.9744359" lon="17.728501">
        <ele>26.0929</ele>
        <time>2013-03-08T19:15:30Z</time>
      </trkpt>
      <trkpt lat="59.9744372" lon="17.7285295">
        <ele>26.0929</ele>
        <time>2013-03-08T19:15:31Z</time>
      </trkpt>
      <trkpt lat="59.9744373" lon="17.728558">
        <ele>26.0929</ele>
        <time>2013-03-08T19:15:32Z</time>
      </trkpt>
      <trkpt lat="59.9744373" lon="17.728586">
        <ele>26.0929</ele>
        <time>2013-03-08T19:15:33Z</time>
      </trkpt>
      <trkpt lat="59.9744378" lon="17.7286139">
        <ele>26.0929</ele>
        <time>2013-03-08T19:15:34Z</time>
      </trkpt>
      <trkpt lat="59.9744383" lon="17.7286425">
        <ele>26.0929</ele>
        <time>2013-03-08T19:15:35Z</time>
      </trkpt>
      <trkpt lat="59.9744381" lon="17.7286707">
        <ele>26.0929</ele>
        <time>2013-03-08T19:15:36Z</time>
      </trkpt>
      <trkpt lat="59.9744377" lon="17.7286993">
        <ele>26.0929</ele>
        <time>2013-03-08T19:15:37Z</time>
      </trkpt>
      <trkpt lat="59.9744377" lon="17.7287274">
        <ele>26.0929</ele>
        <time>2013-03-08T19:15:38Z</time>
      </trkpt>
      <trkpt lat="59.9744385" lon="17.7287551">
        <ele>26.0929</ele>
        <time>2013-03-08T19:15:39Z</time>
      </trkpt>
      <trkpt lat="59.9744401" lon="17.7287824">
        <ele>26.0929</ele>
        <time>2013-03-08T19:15:40Z</time>
      </trkpt>
      <trkpt lat="59.9744418" lon="17.7288095">
        <ele>26.0929</ele>
        <time>2013-03-08T19:15:41Z</time>
      </trkpt>
      <trkpt lat="59.9744435" lon="17.7288366">
        <ele>26.5736</ele>
        <time>2013-03-08T19:15:42Z</time>
      </trkpt>
      <trkpt lat="59.9744444" lon="17.7288636">
        <ele>26.5736</ele>
        <time>2013-03-08T19:15:43Z</time>
      </trkpt>
      <trkpt lat="59.9744452" lon="17.7288908">
        <ele>26.5736</ele>
        <time>2013-03-08T19:15:44Z</time>
      </trkpt>
      <trkpt lat="59.9744454" lon="17.7289179">
        <ele>26.5736</ele>
        <time>2013-03-08T19:15:45Z</time>
      </trkpt>
      <trkpt lat="59.9744452" lon="17.7289444">
        <ele>26.5736</ele>
        <time>2013-03-08T19:15:46Z</time>
      </trkpt>
      <trkpt lat="59.9744454" lon="17.7289709">
        <ele>26.5736</ele>
        <time>2013-03-08T19:15:47Z</time>
      </trkpt>
      <trkpt lat="59.9744454" lon="17.7289975">
        <ele>27.0543</ele>
        <time>2013-03-08T19:15:48Z</time>
      </trkpt>
      <trkpt lat="59.9744455" lon="17.729024">
        <ele>27.0543</ele>
        <time>2013-03-08T19:15:49Z</time>
      </trkpt>
      <trkpt lat="59.974446" lon="17.7290501">
        <ele>27.0543</ele>
        <time>2013-03-08T19:15:50Z</time>
      </trkpt>
      <trkpt lat="59.974447" lon="17.729076">
        <ele>27.0543</ele>
        <time>2013-03-08T19:15:51Z</time>
      </trkpt>
      <trkpt lat="59.9744483" lon="17.7291024">
        <ele>27.0543</ele>
        <time>2013-03-08T19:15:52Z</time>
      </trkpt>
      <trkpt lat="59.9744492" lon="17.7291302">
        <ele>27.0543</ele>
        <time>2013-03-08T19:15:53Z</time>
      </trkpt>
      <trkpt lat="59.9744495" lon="17.7291578">
        <ele>27.0543</ele>
        <time>2013-03-08T19:15:54Z</time>
      </trkpt>
      <trkpt lat="59.97445" lon="17.7291856">
        <ele>27.0543</ele>
        <time>2013-03-08T19:15:55Z</time>
      </trkpt>
      <trkpt lat="59.9744509" lon="17.7292133">
        <ele>27.0543</ele>
        <time>2013-03-08T19:15:56Z</time>
      </trkpt>
      <trkpt lat="59.9744512" lon="17.729241">
        <ele>27.0543</ele>
        <time>2013-03-08T19:15:57Z</time>
      </trkpt>
      <trkpt lat="59.9744526" lon="17.7292685">
        <ele>27.0543</ele>
        <time>2013-03-08T19:15:58Z</time>
      </trkpt>
      <trkpt lat="59.9744543" lon="17.7292964">
        <ele>27.0543</ele>
        <time>2013-03-08T19:15:59Z</time>
      </trkpt>
      <trkpt lat="59.9744552" lon="17.7293245">
        <ele>27.0543</ele>
        <time>2013-03-08T19:16:00Z</time>
      </trkpt>
      <trkpt lat="59.9744554" lon="17.7293527">
        <ele>27.0543</ele>
        <time>2013-03-08T19:16:01Z</time>
      </trkpt>
      <trkpt lat="59.9744556" lon="17.7293809">
        <ele>27.0543</ele>
        <time>2013-03-08T19:16:02Z</time>
      </trkpt>
      <trkpt lat="59.9744553" lon="17.7294089">
        <ele>27.0543</ele>
        <time>2013-03-08T19:16:03Z</time>
      </trkpt>
      <trkpt lat="59.9744548" lon="17.7294366">
        <ele>27.0543</ele>
        <time>2013-03-08T19:16:04Z</time>
      </trkpt>
      <trkpt lat="59.974454" lon="17.729464">
        <ele>27.0543</ele>
        <time>2013-03-08T19:16:05Z</time>
      </trkpt>
      <trkpt lat="59.9744533" lon="17.7294913">
        <ele>27.0543</ele>
        <time>2013-03-08T19:16:06Z</time>
      </trkpt>
      <trkpt lat="59.9744523" lon="17.7295189">
        <ele>27.0543</ele>
        <time>2013-03-08T19:16:07Z</time>
      </trkpt>
      <trkpt lat="59.9744507" lon="17.7295472">
        <ele>27.0543</ele>
        <time>2013-03-08T19:16:08Z</time>
      </trkpt>
      <trkpt lat="59.9744491" lon="17.7295752">
        <ele>27.0543</ele>
        <time>2013-03-08T19:16:09Z</time>
      </trkpt>
      <trkpt lat="59.974448" lon="17.7296029">
        <ele>27.0543</ele>
        <time>2013-03-08T19:16:10Z</time>
      </trkpt>
      <trkpt lat="59.9744468" lon="17.7296313">
        <ele>27.0543</ele>
        <time>2013-03-08T19:16:11Z</time>
      </trkpt>
      <trkpt lat="59.9744454" lon="17.7296595">
        <ele>27.0543</ele>
        <time>2013-03-08T19:16:12Z</time>
      </trkpt>
      <trkpt lat="59.974445" lon="17.7296881">
        <ele>27.0543</ele>
        <time>2013-03-08T19:16:13Z</time>
      </trkpt>
      <trkpt lat="59.9744449" lon="17.7297171">
        <ele>27.0543</ele>
        <time>2013-03-08T19:16:14Z</time>
      </trkpt>
      <trkpt lat="59.974444" lon="17.7297452">
        <ele>27.0543</ele>
        <time>2013-03-08T19:16:15Z</time>
      </trkpt>
      <trkpt lat="59.9744424" lon="17.7297732">
        <ele>27.0543</ele>
        <time>2013-03-08T19:16:16Z</time>
      </trkpt>
      <trkpt lat="59.9744409" lon="17.729801">
        <ele>27.0543</ele>
        <time>2013-03-08T19:16:17Z</time>
      </trkpt>
      <trkpt lat="59.9744397" lon="17.7298281">
        <ele>27.0543</ele>
        <time>2013-03-08T19:16:18Z</time>
      </trkpt>
      <trkpt lat="59.9744378" lon="17.7298556">
        <ele>27.0543</ele>
        <time>2013-03-08T19:16:19Z</time>
      </trkpt>
      <trkpt lat="59.9744351" lon="17.7298846">
        <ele>27.5349</ele>
        <time>2013-03-08T19:16:20Z</time>
      </trkpt>
      <trkpt lat="59.9744316" lon="17.7299141">
        <ele>27.5349</ele>
        <time>2013-03-08T19:16:21Z</time>
      </trkpt>
      <trkpt lat="59.9744299" lon="17.7299416">
        <ele>27.5349</ele>
        <time>2013-03-08T19:16:22Z</time>
      </trkpt>
      <trkpt lat="59.9744278" lon="17.7299693">
        <ele>27.5349</ele>
        <time>2013-03-08T19:16:23Z</time>
      </trkpt>
      <trkpt lat="59.9744279" lon="17.729997">
        <ele>27.5349</ele>
        <time>2013-03-08T19:16:24Z</time>
      </trkpt>
      <trkpt lat="59.9744282" lon="17.7300228">
        <ele>27.5349</ele>
        <time>2013-03-08T19:16:25Z</time>
      </trkpt>
      <trkpt lat="59.9744287" lon="17.7300483">
        <ele>28.0155</ele>
        <time>2013-03-08T19:16:26Z</time>
      </trkpt>
      <trkpt lat="59.9744284" lon="17.7300783">
        <ele>27.5349</ele>
        <time>2013-03-08T19:16:27Z</time>
      </trkpt>
      <trkpt lat="59.9744274" lon="17.7301084">
        <ele>28.0155</ele>
        <time>2013-03-08T19:16:28Z</time>
      </trkpt>
      <trkpt lat="59.9744253" lon="17.7301368">
        <ele>27.5349</ele>
        <time>2013-03-08T19:16:29Z</time>
      </trkpt>
      <trkpt lat="59.9744245" lon="17.7301653">
        <ele>28.0155</ele>
        <time>2013-03-08T19:16:30Z</time>
      </trkpt>
      <trkpt lat="59.9744232" lon="17.7301941">
        <ele>27.5349</ele>
        <time>2013-03-08T19:16:31Z</time>
      </trkpt>
      <trkpt lat="59.9744237" lon="17.7302232">
        <ele>28.0155</ele>
        <time>2013-03-08T19:16:32Z</time>
      </trkpt>
      <trkpt lat="59.9744226" lon="17.7302538">
        <ele>28.0155</ele>
        <time>2013-03-08T19:16:33Z</time>
      </trkpt>
      <trkpt lat="59.9744207" lon="17.7302863">
        <ele>28.0155</ele>
        <time>2013-03-08T19:16:34Z</time>
      </trkpt>
      <trkpt lat="59.9744196" lon="17.7303171">
        <ele>28.0155</ele>
        <time>2013-03-08T19:16:35Z</time>
      </trkpt>
      <trkpt lat="59.9744186" lon="17.7303466">
        <ele>28.0155</ele>
        <time>2013-03-08T19:16:36Z</time>
      </trkpt>
      <trkpt lat="59.9744175" lon="17.7303761">
        <ele>28.4962</ele>
        <time>2013-03-08T19:16:37Z</time>
      </trkpt>
      <trkpt lat="59.9744165" lon="17.7304057">
        <ele>28.4962</ele>
        <time>2013-03-08T19:16:38Z</time>
      </trkpt>
      <trkpt lat="59.9744163" lon="17.730436">
        <ele>28.4962</ele>
        <time>2013-03-08T19:16:39Z</time>
      </trkpt>
      <trkpt lat="59.9744165" lon="17.7304657">
        <ele>28.4962</ele>
        <time>2013-03-08T19:16:40Z</time>
      </trkpt>
      <trkpt lat="59.9744178" lon="17.7304938">
        <ele>28.9769</ele>
        <time>2013-03-08T19:16:41Z</time>
      </trkpt>
      <trkpt lat="59.974418" lon="17.7305222">
        <ele>29.4575</ele>
        <time>2013-03-08T19:16:42Z</time>
      </trkpt>
      <trkpt lat="59.9744176" lon="17.7305514">
        <ele>29.9381</ele>
        <time>2013-03-08T19:16:43Z</time>
      </trkpt>
      <trkpt lat="59.974417" lon="17.7305803">
        <ele>29.9381</ele>
        <time>2013-03-08T19:16:44Z</time>
      </trkpt>
      <trkpt lat="59.9744159" lon="17.7306072">
        <ele>30.4188</ele>
        <time>2013-03-08T19:16:45Z</time>
      </trkpt>
      <trkpt lat="59.9744154" lon="17.7306356">
        <ele>30.4188</ele>
        <time>2013-03-08T19:16:46Z</time>
      </trkpt>
      <trkpt lat="59.9744155" lon="17.730664">
        <ele>30.4188</ele>
        <time>2013-03-08T19:16:47Z</time>
      </trkpt>
      <trkpt lat="59.9744155" lon="17.7306941">
        <ele>30.8995</ele>
        <time>2013-03-08T19:16:48Z</time>
      </trkpt>
      <trkpt lat="59.9744152" lon="17.7307241">
        <ele>30.8995</ele>
        <time>2013-03-08T19:16:49Z</time>
      </trkpt>
      <trkpt lat="59.9744128" lon="17.7307544">
        <ele>30.8995</ele>
        <time>2013-03-08T19:16:50Z</time>
      </trkpt>
      <trkpt lat="59.9744107" lon="17.730786">
        <ele>30.8995</ele>
        <time>2013-03-08T19:16:51Z</time>
      </trkpt>
      <trkpt lat="59.9744101" lon="17.7308154">
        <ele>31.3801</ele>
        <time>2013-03-08T19:16:52Z</time>
      </trkpt>
      <trkpt lat="59.9744093" lon="17.7308432">
        <ele>31.3801</ele>
        <time>2013-03-08T19:16:53Z</time>
      </trkpt>
      <trkpt lat="59.9744074" lon="17.7308744">
        <ele>31.3801</ele>
        <time>2013-03-08T19:16:54Z</time>
      </trkpt>
      <trkpt lat="59.9744056" lon="17.7309062">
        <ele>31.3801</ele>
        <time>2013-03-08T19:16:55Z</time>
      </trkpt>
      <trkpt lat="59.9744049" lon="17.7309342">
        <ele>31.3801</ele>
        <time>2013-03-08T19:16:56Z</time>
      </trkpt>
      <trkpt lat="59.974404" lon="17.730961">
        <ele>31.8607</ele>
        <time>2013-03-08T19:16:57Z</time>
      </trkpt>
      <trkpt lat="59.9744025" lon="17.7309879">
        <ele>31.8607</ele>
        <time>2013-03-08T19:16:58Z</time>
      </trkpt>
      <trkpt lat="59.9744002" lon="17.7310176">
        <ele>31.8607</ele>
        <time>2013-03-08T19:16:59Z</time>
      </trkpt>
      <trkpt lat="59.9743992" lon="17.7310475">
        <ele>31.8607</ele>
        <time>2013-03-08T19:17:00Z</time>
      </trkpt>
      <trkpt lat="59.9743979" lon="17.731077">
        <ele>32.3416</ele>
        <time>2013-03-08T19:17:01Z</time>
      </trkpt>
      <trkpt lat="59.9743966" lon="17.7311064">
        <ele>32.3416</ele>
        <time>2013-03-08T19:17:02Z</time>
      </trkpt>
      <trkpt lat="59.9743956" lon="17.7311377">
        <ele>32.3416</ele>
        <time>2013-03-08T19:17:03Z</time>
      </trkpt>
      <trkpt lat="59.9743957" lon="17.731169">
        <ele>32.8223</ele>
        <time>2013-03-08T19:17:04Z</time>
      </trkpt>
      <trkpt lat="59.9743947" lon="17.7312014">
        <ele>32.8223</ele>
        <time>2013-03-08T19:17:05Z</time>
      </trkpt>
      <trkpt lat="59.9743945" lon="17.7312307">
        <ele>32.8223</ele>
        <time>2013-03-08T19:17:06Z</time>
      </trkpt>
      <trkpt lat="59.9743938" lon="17.7312595">
        <ele>33.3029</ele>
        <time>2013-03-08T19:17:07Z</time>
      </trkpt>
      <trkpt lat="59.9743936" lon="17.7312887">
        <ele>33.3029</ele>
        <time>2013-03-08T19:17:08Z</time>
      </trkpt>
      <trkpt lat="59.9743922" lon="17.7313183">
        <ele>33.3029</ele>
        <time>2013-03-08T19:17:09Z</time>
      </trkpt>
      <trkpt lat="59.9743912" lon="17.731348">
        <ele>33.3029</ele>
        <time>2013-03-08T19:17:10Z</time>
      </trkpt>
      <trkpt lat="59.9743891" lon="17.7313791">
        <ele>32.8223</ele>
        <time>2013-03-08T19:17:11Z</time>
      </trkpt>
      <trkpt lat="59.9743873" lon="17.7314111">
        <ele>32.8223</ele>
        <time>2013-03-08T19:17:12Z</time>
      </trkpt>
      <trkpt lat="59.9743869" lon="17.7314465">
        <ele>32.3416</ele>
        <time>2013-03-08T19:17:13Z</time>
      </trkpt>
      <trkpt lat="59.9743854" lon="17.7314851">
        <ele>32.3416</ele>
        <time>2013-03-08T19:17:14Z</time>
      </trkpt>
      <trkpt lat="59.9743833" lon="17.7315198">
        <ele>31.8607</ele>
        <time>2013-03-08T19:17:15Z</time>
      </trkpt>
      <trkpt lat="59.9743801" lon="17.7315563">
        <ele>31.3801</ele>
        <time>2013-03-08T19:17:16Z</time>
      </trkpt>
      <trkpt lat="59.9743767" lon="17.7315899">
        <ele>30.8995</ele>
        <time>2013-03-08T19:17:17Z</time>
      </trkpt>
      <trkpt lat="59.9743727" lon="17.7316235">
        <ele>30.4188</ele>
        <time>2013-03-08T19:17:18Z</time>
      </trkpt>
      <trkpt lat="59.9743724" lon="17.7316514">
        <ele>30.4188</ele>
        <time>2013-03-08T19:17:19Z</time>
      </trkpt>
      <trkpt lat="59.974371" lon="17.731676">
        <ele>29.9381</ele>
        <time>2013-03-08T19:17:20Z</time>
      </trkpt>
      <trkpt lat="59.9743709" lon="17.7317057">
        <ele>29.9381</ele>
        <time>2013-03-08T19:17:21Z</time>
      </trkpt>
      <trkpt lat="59.9743723" lon="17.7317447">
        <ele>29.4575</ele>
        <time>2013-03-08T19:17:22Z</time>
      </trkpt>
      <trkpt lat="59.9743734" lon="17.7317794">
        <ele>29.9381</ele>
        <time>2013-03-08T19:17:23Z</time>
      </trkpt>
      <trkpt lat="59.9743723" lon="17.731807">
        <ele>29.4575</ele>
        <time>2013-03-08T19:17:24Z</time>
      </trkpt>
      <trkpt lat="59.974374" lon="17.7318333">
        <ele>29.9381</ele>
        <time>2013-03-08T19:17:25Z</time>
      </trkpt>
      <trkpt lat="59.974374" lon="17.7318597">
        <ele>30.4188</ele>
        <time>2013-03-08T19:17:26Z</time>
      </trkpt>
      <trkpt lat="59.9743748" lon="17.7318856">
        <ele>30.4188</ele>
        <time>2013-03-08T19:17:27Z</time>
      </trkpt>
      <trkpt lat="59.9743753" lon="17.7319152">
        <ele>30.4188</ele>
        <time>2013-03-08T19:17:28Z</time>
      </trkpt>
      <trkpt lat="59.9743771" lon="17.7319427">
        <ele>30.8995</ele>
        <time>2013-03-08T19:17:29Z</time>
      </trkpt>
      <trkpt lat="59.9743779" lon="17.731968">
        <ele>30.8995</ele>
        <time>2013-03-08T19:17:30Z</time>
      </trkpt>
      <trkpt lat="59.9743791" lon="17.7319938">
        <ele>31.3801</ele>
        <time>2013-03-08T19:17:31Z</time>
      </trkpt>
      <trkpt lat="59.9743789" lon="17.7320219">
        <ele>31.3801</ele>
        <time>2013-03-08T19:17:32Z</time>
      </trkpt>
      <trkpt lat="59.9743792" lon="17.7320536">
        <ele>31.3801</ele>
        <time>2013-03-08T19:17:33Z</time>
      </trkpt>
      <trkpt lat="59.9743806" lon="17.732086">
        <ele>31.8607</ele>
        <time>2013-03-08T19:17:34Z</time>
      </trkpt>
      <trkpt lat="59.9743766" lon="17.7321129">
        <ele>30.8995</ele>
        <time>2013-03-08T19:17:35Z</time>
      </trkpt>
      <trkpt lat="59.9743709" lon="17.7321421">
        <ele>29.9381</ele>
        <time>2013-03-08T19:17:36Z</time>
      </trkpt>
      <trkpt lat="59.9743689" lon="17.7321771">
        <ele>28.9769</ele>
        <time>2013-03-08T19:17:37Z</time>
      </trkpt>
      <trkpt lat="59.9743709" lon="17.7322146">
        <ele>28.9769</ele>
        <time>2013-03-08T19:17:38Z</time>
      </trkpt>
      <trkpt lat="59.9743729" lon="17.7322519">
        <ele>28.9769</ele>
        <time>2013-03-08T19:17:39Z</time>
      </trkpt>
      <trkpt lat="59.974374" lon="17.732284">
        <ele>28.4962</ele>
        <time>2013-03-08T19:17:40Z</time>
      </trkpt>
      <trkpt lat="59.9743734" lon="17.732311">
        <ele>28.4962</ele>
        <time>2013-03-08T19:17:41Z</time>
      </trkpt>
      <trkpt lat="59.9743734" lon="17.7323382">
        <ele>28.4962</ele>
        <time>2013-03-08T19:17:42Z</time>
      </trkpt>
      <trkpt lat="59.9743743" lon="17.7323672">
        <ele>28.0155</ele>
        <time>2013-03-08T19:17:43Z</time>
      </trkpt>
      <trkpt lat="59.9743743" lon="17.7323963">
        <ele>28.0155</ele>
        <time>2013-03-08T19:17:44Z</time>
      </trkpt>
      <trkpt lat="59.974375" lon="17.7324273">
        <ele>27.5349</ele>
        <time>2013-03-08T19:17:45Z</time>
      </trkpt>
      <trkpt lat="59.9743761" lon="17.7324584">
        <ele>27.0543</ele>
        <time>2013-03-08T19:17:46Z</time>
      </trkpt>
      <trkpt lat="59.9743784" lon="17.732485">
        <ele>27.0543</ele>
        <time>2013-03-08T19:17:47Z</time>
      </trkpt>
      <trkpt lat="59.9743797" lon="17.7325082">
        <ele>27.0543</ele>
        <time>2013-03-08T19:17:48Z</time>
      </trkpt>
      <trkpt lat="59.9743797" lon="17.7325346">
        <ele>26.5736</ele>
        <time>2013-03-08T19:17:49Z</time>
      </trkpt>
      <trkpt lat="59.9743797" lon="17.7325627">
        <ele>26.0929</ele>
        <time>2013-03-08T19:17:50Z</time>
      </trkpt>
      <trkpt lat="59.9743797" lon="17.7325927">
        <ele>26.0929</ele>
        <time>2013-03-08T19:17:51Z</time>
      </trkpt>
      <trkpt lat="59.9743802" lon="17.7326217">
        <ele>26.0929</ele>
        <time>2013-03-08T19:17:52Z</time>
      </trkpt>
      <trkpt lat="59.9743808" lon="17.7326462">
        <ele>26.5736</ele>
        <time>2013-03-08T19:17:53Z</time>
      </trkpt>
      <trkpt lat="59.9743817" lon="17.7326684">
        <ele>26.5736</ele>
        <time>2013-03-08T19:17:54Z</time>
      </trkpt>
      <trkpt lat="59.9743841" lon="17.7326905">
        <ele>26.5736</ele>
        <time>2013-03-08T19:17:55Z</time>
      </trkpt>
      <trkpt lat="59.9743872" lon="17.7327192">
        <ele>26.5736</ele>
        <time>2013-03-08T19:17:56Z</time>
      </trkpt>
      <trkpt lat="59.9743904" lon="17.7327479">
        <ele>26.5736</ele>
        <time>2013-03-08T19:17:57Z</time>
      </trkpt>
      <trkpt lat="59.9743924" lon="17.732771">
        <ele>27.0543</ele>
        <time>2013-03-08T19:17:58Z</time>
      </trkpt>
      <trkpt lat="59.974393" lon="17.7327943">
        <ele>27.5349</ele>
        <time>2013-03-08T19:17:59Z</time>
      </trkpt>
      <trkpt lat="59.9743931" lon="17.7328206">
        <ele>27.5349</ele>
        <time>2013-03-08T19:18:00Z</time>
      </trkpt>
      <trkpt lat="59.9743935" lon="17.7328497">
        <ele>27.5349</ele>
        <time>2013-03-08T19:18:01Z</time>
      </trkpt>
      <trkpt lat="59.9743936" lon="17.7328833">
        <ele>27.0543</ele>
        <time>2013-03-08T19:18:02Z</time>
      </trkpt>
      <trkpt lat="59.974395" lon="17.7329098">
        <ele>28.0155</ele>
        <time>2013-03-08T19:18:03Z</time>
      </trkpt>
      <trkpt lat="59.9743942" lon="17.7329346">
        <ele>28.0155</ele>
        <time>2013-03-08T19:18:04Z</time>
      </trkpt>
      <trkpt lat="59.974395" lon="17.7329606">
        <ele>28.0155</ele>
        <time>2013-03-08T19:18:05Z</time>
      </trkpt>
      <trkpt lat="59.9743958" lon="17.7329875">
        <ele>28.0155</ele>
        <time>2013-03-08T19:18:06Z</time>
      </trkpt>
      <trkpt lat="59.9743958" lon="17.7330196">
        <ele>28.0155</ele>
        <time>2013-03-08T19:18:07Z</time>
      </trkpt>
      <trkpt lat="59.9743962" lon="17.7330506">
        <ele>28.0155</ele>
        <time>2013-03-08T19:18:08Z</time>
      </trkpt>
      <trkpt lat="59.9743942" lon="17.7330826">
        <ele>27.5349</ele>
        <time>2013-03-08T19:18:09Z</time>
      </trkpt>
      <trkpt lat="59.9743917" lon="17.7331129">
        <ele>27.0543</ele>
        <time>2013-03-08T19:18:10Z</time>
      </trkpt>
      <trkpt lat="59.9743888" lon="17.7331434">
        <ele>26.5736</ele>
        <time>2013-03-08T19:18:11Z</time>
      </trkpt>
      <trkpt lat="59.9743886" lon="17.7331708">
        <ele>27.0543</ele>
        <time>2013-03-08T19:18:12Z</time>
      </trkpt>
      <trkpt lat="59.9743865" lon="17.7331961">
        <ele>26.5736</ele>
        <time>2013-03-08T19:18:13Z</time>
      </trkpt>
      <trkpt lat="59.9743846" lon="17.7332226">
        <ele>26.5736</ele>
        <time>2013-03-08T19:18:14Z</time>
      </trkpt>
      <trkpt lat="59.9743834" lon="17.7332479">
        <ele>26.5736</ele>
        <time>2013-03-08T19:18:15Z</time>
      </trkpt>
      <trkpt lat="59.9743807" lon="17.7332732">
        <ele>26.0929</ele>
        <time>2013-03-08T19:18:16Z</time>
      </trkpt>
      <trkpt lat="59.9743784" lon="17.7333002">
        <ele>26.0929</ele>
        <time>2013-03-08T19:18:17Z</time>
      </trkpt>
      <trkpt lat="59.9743761" lon="17.7333276">
        <ele>25.6123</ele>
        <time>2013-03-08T19:18:18Z</time>
      </trkpt>
      <trkpt lat="59.974375" lon="17.7333566">
        <ele>25.6123</ele>
        <time>2013-03-08T19:18:19Z</time>
      </trkpt>
      <trkpt lat="59.9743733" lon="17.7333862">
        <ele>25.1317</ele>
        <time>2013-03-08T19:18:20Z</time>
      </trkpt>
      <trkpt lat="59.9743728" lon="17.7334137">
        <ele>24.651</ele>
        <time>2013-03-08T19:18:21Z</time>
      </trkpt>
      <trkpt lat="59.9743718" lon="17.7334428">
        <ele>24.651</ele>
        <time>2013-03-08T19:18:22Z</time>
      </trkpt>
      <trkpt lat="59.9743718" lon="17.7334692">
        <ele>24.1703</ele>
        <time>2013-03-08T19:18:23Z</time>
      </trkpt>
      <trkpt lat="59.9743708" lon="17.7334904">
        <ele>24.1703</ele>
        <time>2013-03-08T19:18:24Z</time>
      </trkpt>
      <trkpt lat="59.9743672" lon="17.7335133">
        <ele>23.6896</ele>
        <time>2013-03-08T19:18:25Z</time>
      </trkpt>
      <trkpt lat="59.974366" lon="17.7335346">
        <ele>23.209</ele>
        <time>2013-03-08T19:18:26Z</time>
      </trkpt>
      <trkpt lat="59.9743649" lon="17.7335565">
        <ele>23.6896</ele>
        <time>2013-03-08T19:18:27Z</time>
      </trkpt>
      <trkpt lat="59.9743626" lon="17.7335827">
        <ele>23.6896</ele>
        <time>2013-03-08T19:18:28Z</time>
      </trkpt>
      <trkpt lat="59.9743579" lon="17.7336054">
        <ele>23.209</ele>
        <time>2013-03-08T19:18:29Z</time>
      </trkpt>
      <trkpt lat="59.9743563" lon="17.7336278">
        <ele>23.209</ele>
        <time>2013-03-08T19:18:30Z</time>
      </trkpt>
      <trkpt lat="59.9743541" lon="17.7336561">
        <ele>23.209</ele>
        <time>2013-03-08T19:18:31Z</time>
      </trkpt>
      <trkpt lat="59.9743522" lon="17.7336858">
        <ele>22.7283</ele>
        <time>2013-03-08T19:18:32Z</time>
      </trkpt>
      <trkpt lat="59.9743508" lon="17.7337121">
        <ele>23.209</ele>
        <time>2013-03-08T19:18:33Z</time>
      </trkpt>
      <trkpt lat="59.9743496" lon="17.7337332">
        <ele>23.6896</ele>
        <time>2013-03-08T19:18:34Z</time>
      </trkpt>
      <trkpt lat="59.9743482" lon="17.7337572">
        <ele>23.6896</ele>
        <time>2013-03-08T19:18:35Z</time>
      </trkpt>
      <trkpt lat="59.9743481" lon="17.7337843">
        <ele>23.6896</ele>
        <time>2013-03-08T19:18:36Z</time>
      </trkpt>
      <trkpt lat="59.9743465" lon="17.7338101">
        <ele>24.1703</ele>
        <time>2013-03-08T19:18:37Z</time>
      </trkpt>
      <trkpt lat="59.9743453" lon="17.7338354">
        <ele>24.1703</ele>
        <time>2013-03-08T19:18:38Z</time>
      </trkpt>
      <trkpt lat="59.9743434" lon="17.7338623">
        <ele>24.1703</ele>
        <time>2013-03-08T19:18:39Z</time>
      </trkpt>
      <trkpt lat="59.974345" lon="17.7338836">
        <ele>24.651</ele>
        <time>2013-03-08T19:18:40Z</time>
      </trkpt>
      <trkpt lat="59.9743465" lon="17.7339032">
        <ele>24.651</ele>
        <time>2013-03-08T19:18:41Z</time>
      </trkpt>
      <trkpt lat="59.9743474" lon="17.7339251">
        <ele>25.1317</ele>
        <time>2013-03-08T19:18:42Z</time>
      </trkpt>
      <trkpt lat="59.9743484" lon="17.7339489">
        <ele>25.1317</ele>
        <time>2013-03-08T19:18:43Z</time>
      </trkpt>
      <trkpt lat="59.9743479" lon="17.7339752">
        <ele>25.6123</ele>
        <time>2013-03-08T19:18:44Z</time>
      </trkpt>
      <trkpt lat="59.9743475" lon="17.7340039">
        <ele>25.6123</ele>
        <time>2013-03-08T19:18:45Z</time>
      </trkpt>
      <trkpt lat="59.9743486" lon="17.73403">
        <ele>26.0929</ele>
        <time>2013-03-08T19:18:46Z</time>
      </trkpt>
      <trkpt lat="59.974347" lon="17.7340526">
        <ele>26.0929</ele>
        <time>2013-03-08T19:18:47Z</time>
      </trkpt>
      <trkpt lat="59.9743445" lon="17.7340758">
        <ele>26.0929</ele>
        <time>2013-03-08T19:18:48Z</time>
      </trkpt>
      <trkpt lat="59.9743432" lon="17.7340981">
        <ele>26.5736</ele>
        <time>2013-03-08T19:18:49Z</time>
      </trkpt>
      <trkpt lat="59.9743403" lon="17.7341228">
        <ele>26.5736</ele>
        <time>2013-03-08T19:18:50Z</time>
      </trkpt>
      <trkpt lat="59.9743398" lon="17.7341455">
        <ele>27.0543</ele>
        <time>2013-03-08T19:18:51Z</time>
      </trkpt>
      <trkpt lat="59.9743386" lon="17.734167">
        <ele>27.5349</ele>
        <time>2013-03-08T19:18:52Z</time>
      </trkpt>
      <trkpt lat="59.9743376" lon="17.7341908">
        <ele>28.0155</ele>
        <time>2013-03-08T19:18:53Z</time>
      </trkpt>
      <trkpt lat="59.9743371" lon="17.7342196">
        <ele>28.0155</ele>
        <time>2013-03-08T19:18:54Z</time>
      </trkpt>
      <trkpt lat="59.9743367" lon="17.7342483">
        <ele>28.0155</ele>
        <time>2013-03-08T19:18:55Z</time>
      </trkpt>
      <trkpt lat="59.9743372" lon="17.734279">
        <ele>28.0155</ele>
        <time>2013-03-08T19:18:56Z</time>
      </trkpt>
      <trkpt lat="59.9743385" lon="17.7343079">
        <ele>28.0155</ele>
        <time>2013-03-08T19:18:57Z</time>
      </trkpt>
      <trkpt lat="59.9743397" lon="17.7343352">
        <ele>28.0155</ele>
        <time>2013-03-08T19:18:58Z</time>
      </trkpt>
      <trkpt lat="59.9743416" lon="17.7343612">
        <ele>28.0155</ele>
        <time>2013-03-08T19:18:59Z</time>
      </trkpt>
      <trkpt lat="59.9743408" lon="17.734385">
        <ele>28.0155</ele>
        <time>2013-03-08T19:19:00Z</time>
      </trkpt>
      <trkpt lat="59.9743412" lon="17.7344094">
        <ele>28.0155</ele>
        <time>2013-03-08T19:19:01Z</time>
      </trkpt>
      <trkpt lat="59.9743422" lon="17.7344306">
        <ele>28.4962</ele>
        <time>2013-03-08T19:19:02Z</time>
      </trkpt>
      <trkpt lat="59.974342" lon="17.7344514">
        <ele>28.4962</ele>
        <time>2013-03-08T19:19:03Z</time>
      </trkpt>
      <trkpt lat="59.9743439" lon="17.7344752">
        <ele>28.4962</ele>
        <time>2013-03-08T19:19:04Z</time>
      </trkpt>
      <trkpt lat="59.974345" lon="17.7345021">
        <ele>28.9769</ele>
        <time>2013-03-08T19:19:05Z</time>
      </trkpt>
      <trkpt lat="59.9743444" lon="17.7345332">
        <ele>28.4962</ele>
        <time>2013-03-08T19:19:06Z</time>
      </trkpt>
      <trkpt lat="59.9743447" lon="17.73456">
        <ele>28.9769</ele>
        <time>2013-03-08T19:19:07Z</time>
      </trkpt>
      <trkpt lat="59.9743434" lon="17.7345864">
        <ele>28.4962</ele>
        <time>2013-03-08T19:19:08Z</time>
      </trkpt>
      <trkpt lat="59.9743413" lon="17.7346171">
        <ele>28.0155</ele>
        <time>2013-03-08T19:19:09Z</time>
      </trkpt>
      <trkpt lat="59.9743378" lon="17.7346472">
        <ele>27.5349</ele>
        <time>2013-03-08T19:19:10Z</time>
      </trkpt>
      <trkpt lat="59.9743346" lon="17.7346731">
        <ele>27.5349</ele>
        <time>2013-03-08T19:19:11Z</time>
      </trkpt>
      <trkpt lat="59.974331" lon="17.7347025">
        <ele>27.5349</ele>
        <time>2013-03-08T19:19:12Z</time>
      </trkpt>
      <trkpt lat="59.97433" lon="17.7347299">
        <ele>27.5349</ele>
        <time>2013-03-08T19:19:13Z</time>
      </trkpt>
      <trkpt lat="59.9743313" lon="17.7347524">
        <ele>27.5349</ele>
        <time>2013-03-08T19:19:14Z</time>
      </trkpt>
      <trkpt lat="59.9743321" lon="17.7347786">
        <ele>27.5349</ele>
        <time>2013-03-08T19:19:15Z</time>
      </trkpt>
      <trkpt lat="59.9743326" lon="17.7348051">
        <ele>27.5349</ele>
        <time>2013-03-08T19:19:16Z</time>
      </trkpt>
      <trkpt lat="59.9743328" lon="17.7348316">
        <ele>27.5349</ele>
        <time>2013-03-08T19:19:17Z</time>
      </trkpt>
      <trkpt lat="59.9743329" lon="17.7348585">
        <ele>27.5349</ele>
        <time>2013-03-08T19:19:18Z</time>
      </trkpt>
      <trkpt lat="59.9743331" lon="17.7348869">
        <ele>28.0155</ele>
        <time>2013-03-08T19:19:19Z</time>
      </trkpt>
      <trkpt lat="59.9743344" lon="17.734915">
        <ele>28.0155</ele>
        <time>2013-03-08T19:19:20Z</time>
      </trkpt>
      <trkpt lat="59.9743354" lon="17.7349428">
        <ele>28.0155</ele>
        <time>2013-03-08T19:19:21Z</time>
      </trkpt>
      <trkpt lat="59.9743362" lon="17.7349709">
        <ele>28.0155</ele>
        <time>2013-03-08T19:19:22Z</time>
      </trkpt>
      <trkpt lat="59.9743382" lon="17.7349987">
        <ele>28.4962</ele>
        <time>2013-03-08T19:19:23Z</time>
      </trkpt>
      <trkpt lat="59.9743403" lon="17.7350264">
        <ele>28.4962</ele>
        <time>2013-03-08T19:19:24Z</time>
      </trkpt>
      <trkpt lat="59.9743418" lon="17.7350542">
        <ele>28.4962</ele>
        <time>2013-03-08T19:19:25Z</time>
      </trkpt>
      <trkpt lat="59.9743425" lon="17.7350824">
        <ele>28.4962</ele>
        <time>2013-03-08T19:19:26Z</time>
      </trkpt>
      <trkpt lat="59.9743434" lon="17.7351108">
        <ele>28.4962</ele>
        <time>2013-03-08T19:19:27Z</time>
      </trkpt>
      <trkpt lat="59.9743439" lon="17.7351393">
        <ele>28.4962</ele>
        <time>2013-03-08T19:19:28Z</time>
      </trkpt>
      <trkpt lat="59.9743444" lon="17.7351677">
        <ele>28.4962</ele>
        <time>2013-03-08T19:19:29Z</time>
      </trkpt>
      <trkpt lat="59.9743456" lon="17.7351953">
        <ele>28.4962</ele>
        <time>2013-03-08T19:19:30Z</time>
      </trkpt>
      <trkpt lat="59.9743475" lon="17.7352227">
        <ele>28.4962</ele>
        <time>2013-03-08T19:19:31Z</time>
      </trkpt>
      <trkpt lat="59.9743494" lon="17.7352501">
        <ele>28.4962</ele>
        <time>2013-03-08T19:19:32Z</time>
      </trkpt>
      <trkpt lat="59.9743516" lon="17.7352771">
        <ele>28.4962</ele>
        <time>2013-03-08T19:19:33Z</time>
      </trkpt>
      <trkpt lat="59.9743538" lon="17.7353046">
        <ele>28.4962</ele>
        <time>2013-03-08T19:19:34Z</time>
      </trkpt>
      <trkpt lat="59.9743557" lon="17.7353324">
        <ele>28.4962</ele>
        <time>2013-03-08T19:19:35Z</time>
      </trkpt>
      <trkpt lat="59.974357" lon="17.73536">
        <ele>28.9769</ele>
        <time>2013-03-08T19:19:36Z</time>
      </trkpt>
      <trkpt lat="59.9743595" lon="17.735387">
        <ele>28.9769</ele>
        <time>2013-03-08T19:19:37Z</time>
      </trkpt>
      <trkpt lat="59.9743626" lon="17.7354142">
        <ele>28.9769</ele>
        <time>2013-03-08T19:19:38Z</time>
      </trkpt>
      <trkpt lat="59.9743661" lon="17.7354417">
        <ele>28.9769</ele>
        <time>2013-03-08T19:19:39Z</time>
      </trkpt>
      <trkpt lat="59.9743688" lon="17.7354699">
        <ele>28.9769</ele>
        <time>2013-03-08T19:19:40Z</time>
      </trkpt>
      <trkpt lat="59.974372" lon="17.7354986">
        <ele>28.9769</ele>
        <time>2013-03-08T19:19:41Z</time>
      </trkpt>
      <trkpt lat="59.9743753" lon="17.7355265">
        <ele>28.9769</ele>
        <time>2013-03-08T19:19:42Z</time>
      </trkpt>
      <trkpt lat="59.9743781" lon="17.7355538">
        <ele>28.9769</ele>
        <time>2013-03-08T19:19:43Z</time>
      </trkpt>
      <trkpt lat="59.9743807" lon="17.735582">
        <ele>28.9769</ele>
        <time>2013-03-08T19:19:44Z</time>
      </trkpt>
      <trkpt lat="59.9743832" lon="17.7356105">
        <ele>28.9769</ele>
        <time>2013-03-08T19:19:45Z</time>
      </trkpt>
      <trkpt lat="59.9743862" lon="17.7356391">
        <ele>29.4575</ele>
        <time>2013-03-08T19:19:46Z</time>
      </trkpt>
      <trkpt lat="59.9743895" lon="17.7356677">
        <ele>28.9769</ele>
        <time>2013-03-08T19:19:47Z</time>
      </trkpt>
      <trkpt lat="59.9743931" lon="17.735696">
        <ele>28.9769</ele>
        <time>2013-03-08T19:19:48Z</time>
      </trkpt>
      <trkpt lat="59.9743972" lon="17.7357239">
        <ele>28.9769</ele>
        <time>2013-03-08T19:19:49Z</time>
      </trkpt>
      <trkpt lat="59.9744009" lon="17.7357519">
        <ele>28.9769</ele>
        <time>2013-03-08T19:19:50Z</time>
      </trkpt>
      <trkpt lat="59.9744051" lon="17.7357796">
        <ele>29.4575</ele>
        <time>2013-03-08T19:19:51Z</time>
      </trkpt>
      <trkpt lat="59.9744096" lon="17.7358068">
        <ele>29.4575</ele>
        <time>2013-03-08T19:19:52Z</time>
      </trkpt>
      <trkpt lat="59.9744145" lon="17.7358338">
        <ele>29.4575</ele>
        <time>2013-03-08T19:19:53Z</time>
      </trkpt>
      <trkpt lat="59.9744193" lon="17.7358614">
        <ele>29.4575</ele>
        <time>2013-03-08T19:19:54Z</time>
      </trkpt>
      <trkpt lat="59.9744237" lon="17.7358886">
        <ele>29.4575</ele>
        <time>2013-03-08T19:19:55Z</time>
      </trkpt>
      <trkpt lat="59.9744271" lon="17.735915">
        <ele>29.4575</ele>
        <time>2013-03-08T19:19:56Z</time>
      </trkpt>
      <trkpt lat="59.9744304" lon="17.7359411">
        <ele>28.9769</ele>
        <time>2013-03-08T19:19:57Z</time>
      </trkpt>
      <trkpt lat="59.9744345" lon="17.7359668">
        <ele>28.9769</ele>
        <time>2013-03-08T19:19:58Z</time>
      </trkpt>
      <trkpt lat="59.9744388" lon="17.7359924">
        <ele>28.9769</ele>
        <time>2013-03-08T19:19:59Z</time>
      </trkpt>
      <trkpt lat="59.9744439" lon="17.7360179">
        <ele>28.9769</ele>
        <time>2013-03-08T19:20:00Z</time>
      </trkpt>
      <trkpt lat="59.9744496" lon="17.7360437">
        <ele>28.9769</ele>
        <time>2013-03-08T19:20:01Z</time>
      </trkpt>
      <trkpt lat="59.974454" lon="17.7360699">
        <ele>28.4962</ele>
        <time>2013-03-08T19:20:02Z</time>
      </trkpt>
      <trkpt lat="59.9744583" lon="17.736096">
        <ele>28.4962</ele>
        <time>2013-03-08T19:20:03Z</time>
      </trkpt>
      <trkpt lat="59.9744629" lon="17.7361215">
        <ele>28.4962</ele>
        <time>2013-03-08T19:20:04Z</time>
      </trkpt>
      <trkpt lat="59.9744676" lon="17.7361469">
        <ele>28.4962</ele>
        <time>2013-03-08T19:20:05Z</time>
      </trkpt>
      <trkpt lat="59.9744723" lon="17.7361728">
        <ele>28.4962</ele>
        <time>2013-03-08T19:20:06Z</time>
      </trkpt>
      <trkpt lat="59.9744769" lon="17.7361986">
        <ele>28.4962</ele>
        <time>2013-03-08T19:20:07Z</time>
      </trkpt>
      <trkpt lat="59.9744825" lon="17.736224">
        <ele>28.4962</ele>
        <time>2013-03-08T19:20:08Z</time>
      </trkpt>
      <trkpt lat="59.9744885" lon="17.7362489">
        <ele>28.4962</ele>
        <time>2013-03-08T19:20:09Z</time>
      </trkpt>
      <trkpt lat="59.974495" lon="17.7362732">
        <ele>28.0155</ele>
        <time>2013-03-08T19:20:10Z</time>
      </trkpt>
      <trkpt lat="59.9745018" lon="17.7362981">
        <ele>28.0155</ele>
        <time>2013-03-08T19:20:11Z</time>
      </trkpt>
      <trkpt lat="59.9745081" lon="17.736323">
        <ele>28.0155</ele>
        <time>2013-03-08T19:20:12Z</time>
      </trkpt>
      <trkpt lat="59.9745147" lon="17.7363471">
        <ele>28.0155</ele>
        <time>2013-03-08T19:20:13Z</time>
      </trkpt>
      <trkpt lat="59.9745225" lon="17.7363706">
        <ele>28.4962</ele>
        <time>2013-03-08T19:20:14Z</time>
      </trkpt>
      <trkpt lat="59.9745299" lon="17.7363953">
        <ele>28.4962</ele>
        <time>2013-03-08T19:20:15Z</time>
      </trkpt>
      <trkpt lat="59.9745366" lon="17.7364201">
        <ele>28.4962</ele>
        <time>2013-03-08T19:20:16Z</time>
      </trkpt>
      <trkpt lat="59.9745438" lon="17.7364447">
        <ele>28.4962</ele>
        <time>2013-03-08T19:20:17Z</time>
      </trkpt>
      <trkpt lat="59.9745511" lon="17.73647">
        <ele>28.4962</ele>
        <time>2013-03-08T19:20:18Z</time>
      </trkpt>
      <trkpt lat="59.9745573" lon="17.7364959">
        <ele>28.4962</ele>
        <time>2013-03-08T19:20:19Z</time>
      </trkpt>
      <trkpt lat="59.9745636" lon="17.7365214">
        <ele>28.4962</ele>
        <time>2013-03-08T19:20:20Z</time>
      </trkpt>
      <trkpt lat="59.9745698" lon="17.7365477">
        <ele>28.4962</ele>
        <time>2013-03-08T19:20:21Z</time>
      </trkpt>
      <trkpt lat="59.9745759" lon="17.7365739">
        <ele>28.4962</ele>
        <time>2013-03-08T19:20:22Z</time>
      </trkpt>
      <trkpt lat="59.9745822" lon="17.736599">
        <ele>28.9769</ele>
        <time>2013-03-08T19:20:23Z</time>
      </trkpt>
      <trkpt lat="59.9745893" lon="17.7366239">
        <ele>28.9769</ele>
        <time>2013-03-08T19:20:24Z</time>
      </trkpt>
      <trkpt lat="59.9745967" lon="17.7366482">
        <ele>28.9769</ele>
        <time>2013-03-08T19:20:25Z</time>
      </trkpt>
      <trkpt lat="59.9746046" lon="17.7366716">
        <ele>28.4962</ele>
        <time>2013-03-08T19:20:26Z</time>
      </trkpt>
      <trkpt lat="59.9746128" lon="17.7366959">
        <ele>28.9769</ele>
        <time>2013-03-08T19:20:27Z</time>
      </trkpt>
      <trkpt lat="59.9746209" lon="17.7367202">
        <ele>28.9769</ele>
        <time>2013-03-08T19:20:28Z</time>
      </trkpt>
      <trkpt lat="59.9746287" lon="17.7367442">
        <ele>28.9769</ele>
        <time>2013-03-08T19:20:29Z</time>
      </trkpt>
      <trkpt lat="59.9746359" lon="17.7367684">
        <ele>28.9769</ele>
        <time>2013-03-08T19:20:30Z</time>
      </trkpt>
      <trkpt lat="59.9746429" lon="17.7367916">
        <ele>28.9769</ele>
        <time>2013-03-08T19:20:31Z</time>
      </trkpt>
      <trkpt lat="59.9746505" lon="17.7368146">
        <ele>28.9769</ele>
        <time>2013-03-08T19:20:32Z</time>
      </trkpt>
      <trkpt lat="59.9746587" lon="17.7368379">
        <ele>28.9769</ele>
        <time>2013-03-08T19:20:33Z</time>
      </trkpt>
      <trkpt lat="59.974667" lon="17.7368618">
        <ele>28.9769</ele>
        <time>2013-03-08T19:20:34Z</time>
      </trkpt>
      <trkpt lat="59.974675" lon="17.7368856">
        <ele>28.9769</ele>
        <time>2013-03-08T19:20:35Z</time>
      </trkpt>
      <trkpt lat="59.974683" lon="17.7369078">
        <ele>28.9769</ele>
        <time>2013-03-08T19:20:36Z</time>
      </trkpt>
      <trkpt lat="59.9746914" lon="17.7369298">
        <ele>28.9769</ele>
        <time>2013-03-08T19:20:37Z</time>
      </trkpt>
      <trkpt lat="59.9747002" lon="17.7369533">
        <ele>28.9769</ele>
        <time>2013-03-08T19:20:38Z</time>
      </trkpt>
      <trkpt lat="59.9747084" lon="17.7369768">
        <ele>28.9769</ele>
        <time>2013-03-08T19:20:39Z</time>
      </trkpt>
      <trkpt lat="59.9747169" lon="17.737">
        <ele>28.9769</ele>
        <time>2013-03-08T19:20:40Z</time>
      </trkpt>
      <trkpt lat="59.9747255" lon="17.7370226">
        <ele>28.9769</ele>
        <time>2013-03-08T19:20:41Z</time>
      </trkpt>
      <trkpt lat="59.9747338" lon="17.7370459">
        <ele>28.9769</ele>
        <time>2013-03-08T19:20:42Z</time>
      </trkpt>
      <trkpt lat="59.9747417" lon="17.7370694">
        <ele>28.9769</ele>
        <time>2013-03-08T19:20:43Z</time>
      </trkpt>
      <trkpt lat="59.9747504" lon="17.7370928">
        <ele>28.9769</ele>
        <time>2013-03-08T19:20:44Z</time>
      </trkpt>
      <trkpt lat="59.9747594" lon="17.7371156">
        <ele>28.9769</ele>
        <time>2013-03-08T19:20:45Z</time>
      </trkpt>
      <trkpt lat="59.9747682" lon="17.7371377">
        <ele>28.9769</ele>
        <time>2013-03-08T19:20:46Z</time>
      </trkpt>
      <trkpt lat="59.9747771" lon="17.7371595">
        <ele>28.9769</ele>
        <time>2013-03-08T19:20:47Z</time>
      </trkpt>
      <trkpt lat="59.9747866" lon="17.7371808">
        <ele>28.9769</ele>
        <time>2013-03-08T19:20:48Z</time>
      </trkpt>
      <trkpt lat="59.974796" lon="17.7372024">
        <ele>28.9769</ele>
        <time>2013-03-08T19:20:49Z</time>
      </trkpt>
      <trkpt lat="59.9748053" lon="17.7372236">
        <ele>28.9769</ele>
        <time>2013-03-08T19:20:50Z</time>
      </trkpt>
      <trkpt lat="59.9748146" lon="17.7372434">
        <ele>28.9769</ele>
        <time>2013-03-08T19:20:51Z</time>
      </trkpt>
      <trkpt lat="59.974824" lon="17.7372634">
        <ele>28.9769</ele>
        <time>2013-03-08T19:20:52Z</time>
      </trkpt>
      <trkpt lat="59.9748334" lon="17.7372834">
        <ele>28.9769</ele>
        <time>2013-03-08T19:20:53Z</time>
      </trkpt>
      <trkpt lat="59.9748433" lon="17.7373013">
        <ele>28.9769</ele>
        <time>2013-03-08T19:20:54Z</time>
      </trkpt>
      <trkpt lat="59.9748537" lon="17.7373188">
        <ele>28.9769</ele>
        <time>2013-03-08T19:20:55Z</time>
      </trkpt>
      <trkpt lat="59.9748645" lon="17.7373362">
        <ele>28.9769</ele>
        <time>2013-03-08T19:20:56Z</time>
      </trkpt>
      <trkpt lat="59.9748748" lon="17.7373539">
        <ele>29.4575</ele>
        <time>2013-03-08T19:20:57Z</time>
      </trkpt>
      <trkpt lat="59.9748856" lon="17.7373718">
        <ele>29.4575</ele>
        <time>2013-03-08T19:20:58Z</time>
      </trkpt>
      <trkpt lat="59.9748956" lon="17.7373891">
        <ele>29.4575</ele>
        <time>2013-03-08T19:20:59Z</time>
      </trkpt>
      <trkpt lat="59.9749061" lon="17.737407">
        <ele>29.4575</ele>
        <time>2013-03-08T19:21:00Z</time>
      </trkpt>
      <trkpt lat="59.9749162" lon="17.7374247">
        <ele>29.4575</ele>
        <time>2013-03-08T19:21:01Z</time>
      </trkpt>
      <trkpt lat="59.9749241" lon="17.7374438">
        <ele>29.4575</ele>
        <time>2013-03-08T19:21:02Z</time>
      </trkpt>
      <trkpt lat="59.9749312" lon="17.7374635">
        <ele>29.4575</ele>
        <time>2013-03-08T19:21:03Z</time>
      </trkpt>
      <trkpt lat="59.9749386" lon="17.7374827">
        <ele>29.4575</ele>
        <time>2013-03-08T19:21:04Z</time>
      </trkpt>
      <trkpt lat="59.974948" lon="17.7375019">
        <ele>29.4575</ele>
        <time>2013-03-08T19:21:05Z</time>
      </trkpt>
      <trkpt lat="59.9749573" lon="17.7375214">
        <ele>29.4575</ele>
        <time>2013-03-08T19:21:06Z</time>
      </trkpt>
      <trkpt lat="59.9749666" lon="17.7375408">
        <ele>29.4575</ele>
        <time>2013-03-08T19:21:07Z</time>
      </trkpt>
      <trkpt lat="59.9749762" lon="17.7375589">
        <ele>29.4575</ele>
        <time>2013-03-08T19:21:08Z</time>
      </trkpt>
      <trkpt lat="59.9749861" lon="17.737578">
        <ele>29.4575</ele>
        <time>2013-03-08T19:21:09Z</time>
      </trkpt>
      <trkpt lat="59.9749954" lon="17.7375988">
        <ele>29.4575</ele>
        <time>2013-03-08T19:21:10Z</time>
      </trkpt>
      <trkpt lat="59.9750038" lon="17.7376219">
        <ele>29.4575</ele>
        <time>2013-03-08T19:21:11Z</time>
      </trkpt>
      <trkpt lat="59.9750119" lon="17.7376444">
        <ele>29.4575</ele>
        <time>2013-03-08T19:21:12Z</time>
      </trkpt>
      <trkpt lat="59.9750209" lon="17.7376661">
        <ele>29.4575</ele>
        <time>2013-03-08T19:21:13Z</time>
      </trkpt>
      <trkpt lat="59.9750298" lon="17.7376868">
        <ele>29.9381</ele>
        <time>2013-03-08T19:21:14Z</time>
      </trkpt>
      <trkpt lat="59.9750386" lon="17.7377085">
        <ele>29.9381</ele>
        <time>2013-03-08T19:21:15Z</time>
      </trkpt>
      <trkpt lat="59.9750472" lon="17.7377317">
        <ele>29.9381</ele>
        <time>2013-03-08T19:21:16Z</time>
      </trkpt>
      <trkpt lat="59.9750567" lon="17.737753">
        <ele>29.9381</ele>
        <time>2013-03-08T19:21:17Z</time>
      </trkpt>
      <trkpt lat="59.9750669" lon="17.7377728">
        <ele>29.9381</ele>
        <time>2013-03-08T19:21:18Z</time>
      </trkpt>
      <trkpt lat="59.9750779" lon="17.737792">
        <ele>29.9381</ele>
        <time>2013-03-08T19:21:19Z</time>
      </trkpt>
      <trkpt lat="59.9750893" lon="17.7378112">
        <ele>29.9381</ele>
        <time>2013-03-08T19:21:20Z</time>
      </trkpt>
      <trkpt lat="59.9751005" lon="17.7378318">
        <ele>30.4188</ele>
        <time>2013-03-08T19:21:21Z</time>
      </trkpt>
      <trkpt lat="59.9751117" lon="17.7378517">
        <ele>30.4188</ele>
        <time>2013-03-08T19:21:22Z</time>
      </trkpt>
      <trkpt lat="59.9751233" lon="17.7378714">
        <ele>30.4188</ele>
        <time>2013-03-08T19:21:23Z</time>
      </trkpt>
      <trkpt lat="59.9751349" lon="17.7378921">
        <ele>30.4188</ele>
        <time>2013-03-08T19:21:24Z</time>
      </trkpt>
      <trkpt lat="59.9751459" lon="17.7379123">
        <ele>30.4188</ele>
        <time>2013-03-08T19:21:25Z</time>
      </trkpt>
      <trkpt lat="59.9751571" lon="17.7379324">
        <ele>30.4188</ele>
        <time>2013-03-08T19:21:26Z</time>
      </trkpt>
      <trkpt lat="59.9751686" lon="17.7379517">
        <ele>30.4188</ele>
        <time>2013-03-08T19:21:27Z</time>
      </trkpt>
      <trkpt lat="59.97518" lon="17.7379718">
        <ele>30.4188</ele>
        <time>2013-03-08T19:21:28Z</time>
      </trkpt>
      <trkpt lat="59.9751907" lon="17.737993">
        <ele>30.4188</ele>
        <time>2013-03-08T19:21:29Z</time>
      </trkpt>
      <trkpt lat="59.9752012" lon="17.7380123">
        <ele>30.4188</ele>
        <time>2013-03-08T19:21:30Z</time>
      </trkpt>
      <trkpt lat="59.9752135" lon="17.7380297">
        <ele>30.4188</ele>
        <time>2013-03-08T19:21:31Z</time>
      </trkpt>
      <trkpt lat="59.9752269" lon="17.7380464">
        <ele>30.4188</ele>
        <time>2013-03-08T19:21:32Z</time>
      </trkpt>
      <trkpt lat="59.9752391" lon="17.7380646">
        <ele>30.4188</ele>
        <time>2013-03-08T19:21:33Z</time>
      </trkpt>
      <trkpt lat="59.9752508" lon="17.7380834">
        <ele>29.9381</ele>
        <time>2013-03-08T19:21:34Z</time>
      </trkpt>
      <trkpt lat="59.9752623" lon="17.7381023">
        <ele>29.9381</ele>
        <time>2013-03-08T19:21:35Z</time>
      </trkpt>
      <trkpt lat="59.9752738" lon="17.7381212">
        <ele>29.9381</ele>
        <time>2013-03-08T19:21:36Z</time>
      </trkpt>
      <trkpt lat="59.9752851" lon="17.7381391">
        <ele>29.9381</ele>
        <time>2013-03-08T19:21:37Z</time>
      </trkpt>
      <trkpt lat="59.9752966" lon="17.7381562">
        <ele>29.9381</ele>
        <time>2013-03-08T19:21:38Z</time>
      </trkpt>
      <trkpt lat="59.9753075" lon="17.7381737">
        <ele>29.9381</ele>
        <time>2013-03-08T19:21:39Z</time>
      </trkpt>
      <trkpt lat="59.9753187" lon="17.7381914">
        <ele>29.9381</ele>
        <time>2013-03-08T19:21:40Z</time>
      </trkpt>
      <trkpt lat="59.9753305" lon="17.7382095">
        <ele>29.9381</ele>
        <time>2013-03-08T19:21:41Z</time>
      </trkpt>
      <trkpt lat="59.9753412" lon="17.7382272">
        <ele>29.9381</ele>
        <time>2013-03-08T19:21:42Z</time>
      </trkpt>
      <trkpt lat="59.9753513" lon="17.7382463">
        <ele>29.9381</ele>
        <time>2013-03-08T19:21:43Z</time>
      </trkpt>
      <trkpt lat="59.9753607" lon="17.7382675">
        <ele>29.9381</ele>
        <time>2013-03-08T19:21:44Z</time>
      </trkpt>
      <trkpt lat="59.975369" lon="17.7382888">
        <ele>29.9381</ele>
        <time>2013-03-08T19:21:45Z</time>
      </trkpt>
      <trkpt lat="59.9753774" lon="17.7383085">
        <ele>29.4575</ele>
        <time>2013-03-08T19:21:46Z</time>
      </trkpt>
      <trkpt lat="59.9753863" lon="17.7383271">
        <ele>29.4575</ele>
        <time>2013-03-08T19:21:47Z</time>
      </trkpt>
      <trkpt lat="59.9753968" lon="17.7383458">
        <ele>29.4575</ele>
        <time>2013-03-08T19:21:48Z</time>
      </trkpt>
      <trkpt lat="59.9754077" lon="17.738365">
        <ele>29.4575</ele>
        <time>2013-03-08T19:21:49Z</time>
      </trkpt>
      <trkpt lat="59.9754183" lon="17.7383831">
        <ele>29.4575</ele>
        <time>2013-03-08T19:21:50Z</time>
      </trkpt>
      <trkpt lat="59.9754293" lon="17.7384016">
        <ele>29.4575</ele>
        <time>2013-03-08T19:21:51Z</time>
      </trkpt>
      <trkpt lat="59.9754398" lon="17.738421">
        <ele>29.4575</ele>
        <time>2013-03-08T19:21:52Z</time>
      </trkpt>
      <trkpt lat="59.97545" lon="17.7384405">
        <ele>29.4575</ele>
        <time>2013-03-08T19:21:53Z</time>
      </trkpt>
      <trkpt lat="59.9754614" lon="17.738458">
        <ele>28.9769</ele>
        <time>2013-03-08T19:21:54Z</time>
      </trkpt>
      <trkpt lat="59.9754737" lon="17.7384751">
        <ele>28.9769</ele>
        <time>2013-03-08T19:21:55Z</time>
      </trkpt>
      <trkpt lat="59.9754859" lon="17.7384932">
        <ele>28.9769</ele>
        <time>2013-03-08T19:21:56Z</time>
      </trkpt>
      <trkpt lat="59.9754975" lon="17.738512">
        <ele>28.9769</ele>
        <time>2013-03-08T19:21:57Z</time>
      </trkpt>
      <trkpt lat="59.9755088" lon="17.7385311">
        <ele>28.9769</ele>
        <time>2013-03-08T19:21:58Z</time>
      </trkpt>
      <trkpt lat="59.9755202" lon="17.7385503">
        <ele>28.9769</ele>
        <time>2013-03-08T19:21:59Z</time>
      </trkpt>
      <trkpt lat="59.9755311" lon="17.7385701">
        <ele>28.9769</ele>
        <time>2013-03-08T19:22:00Z</time>
      </trkpt>
      <trkpt lat="59.9755416" lon="17.7385897">
        <ele>28.9769</ele>
        <time>2013-03-08T19:22:01Z</time>
      </trkpt>
      <trkpt lat="59.9755524" lon="17.7386082">
        <ele>28.9769</ele>
        <time>2013-03-08T19:22:02Z</time>
      </trkpt>
      <trkpt lat="59.9755638" lon="17.7386269">
        <ele>28.9769</ele>
        <time>2013-03-08T19:22:03Z</time>
      </trkpt>
      <trkpt lat="59.9755753" lon="17.7386462">
        <ele>28.9769</ele>
        <time>2013-03-08T19:22:04Z</time>
      </trkpt>
      <trkpt lat="59.9755866" lon="17.7386657">
        <ele>28.9769</ele>
        <time>2013-03-08T19:22:05Z</time>
      </trkpt>
      <trkpt lat="59.9755976" lon="17.7386851">
        <ele>28.9769</ele>
        <time>2013-03-08T19:22:06Z</time>
      </trkpt>
      <trkpt lat="59.9756085" lon="17.7387052">
        <ele>28.9769</ele>
        <time>2013-03-08T19:22:07Z</time>
      </trkpt>
      <trkpt lat="59.9756193" lon="17.7387243">
        <ele>28.9769</ele>
        <time>2013-03-08T19:22:08Z</time>
      </trkpt>
      <trkpt lat="59.9756299" lon="17.7387429">
        <ele>28.9769</ele>
        <time>2013-03-08T19:22:09Z</time>
      </trkpt>
      <trkpt lat="59.9756406" lon="17.7387617">
        <ele>28.4962</ele>
        <time>2013-03-08T19:22:10Z</time>
      </trkpt>
      <trkpt lat="59.975652" lon="17.7387807">
        <ele>28.9769</ele>
        <time>2013-03-08T19:22:11Z</time>
      </trkpt>
      <trkpt lat="59.9756639" lon="17.7387984">
        <ele>28.9769</ele>
        <time>2013-03-08T19:22:12Z</time>
      </trkpt>
      <trkpt lat="59.9756761" lon="17.738815">
        <ele>28.9769</ele>
        <time>2013-03-08T19:22:13Z</time>
      </trkpt>
      <trkpt lat="59.9756876" lon="17.7388322">
        <ele>28.9769</ele>
        <time>2013-03-08T19:22:14Z</time>
      </trkpt>
      <trkpt lat="59.9756989" lon="17.7388487">
        <ele>28.9769</ele>
        <time>2013-03-08T19:22:15Z</time>
      </trkpt>
      <trkpt lat="59.9757095" lon="17.7388646">
        <ele>28.9769</ele>
        <time>2013-03-08T19:22:16Z</time>
      </trkpt>
      <trkpt lat="59.9757203" lon="17.7388808">
        <ele>28.9769</ele>
        <time>2013-03-08T19:22:17Z</time>
      </trkpt>
      <trkpt lat="59.9757306" lon="17.7388969">
        <ele>28.9769</ele>
        <time>2013-03-08T19:22:18Z</time>
      </trkpt>
      <trkpt lat="59.9757411" lon="17.7389141">
        <ele>28.9769</ele>
        <time>2013-03-08T19:22:19Z</time>
      </trkpt>
      <trkpt lat="59.975752" lon="17.7389321">
        <ele>28.9769</ele>
        <time>2013-03-08T19:22:20Z</time>
      </trkpt>
      <trkpt lat="59.9757632" lon="17.7389488">
        <ele>28.9769</ele>
        <time>2013-03-08T19:22:21Z</time>
      </trkpt>
      <trkpt lat="59.9757748" lon="17.7389651">
        <ele>28.9769</ele>
        <time>2013-03-08T19:22:22Z</time>
      </trkpt>
      <trkpt lat="59.9757862" lon="17.7389837">
        <ele>28.9769</ele>
        <time>2013-03-08T19:22:23Z</time>
      </trkpt>
      <trkpt lat="59.9757964" lon="17.7390067">
        <ele>28.9769</ele>
        <time>2013-03-08T19:22:24Z</time>
      </trkpt>
      <trkpt lat="59.9758052" lon="17.7390315">
        <ele>28.9769</ele>
        <time>2013-03-08T19:22:25Z</time>
      </trkpt>
      <trkpt lat="59.975813" lon="17.739056">
        <ele>28.9769</ele>
        <time>2013-03-08T19:22:26Z</time>
      </trkpt>
      <trkpt lat="59.9758218" lon="17.7390786">
        <ele>28.9769</ele>
        <time>2013-03-08T19:22:27Z</time>
      </trkpt>
      <trkpt lat="59.9758312" lon="17.7390989">
        <ele>28.9769</ele>
        <time>2013-03-08T19:22:28Z</time>
      </trkpt>
      <trkpt lat="59.9758416" lon="17.739119">
        <ele>28.9769</ele>
        <time>2013-03-08T19:22:29Z</time>
      </trkpt>
      <trkpt lat="59.9758524" lon="17.7391377">
        <ele>28.9769</ele>
        <time>2013-03-08T19:22:30Z</time>
      </trkpt>
      <trkpt lat="59.9758632" lon="17.739157">
        <ele>28.9769</ele>
        <time>2013-03-08T19:22:31Z</time>
      </trkpt>
      <trkpt lat="59.9758745" lon="17.7391775">
        <ele>28.9769</ele>
        <time>2013-03-08T19:22:32Z</time>
      </trkpt>
      <trkpt lat="59.9758848" lon="17.7391989">
        <ele>29.4575</ele>
        <time>2013-03-08T19:22:33Z</time>
      </trkpt>
      <trkpt lat="59.9758948" lon="17.7392202">
        <ele>29.4575</ele>
        <time>2013-03-08T19:22:34Z</time>
      </trkpt>
      <trkpt lat="59.9759048" lon="17.7392413">
        <ele>29.4575</ele>
        <time>2013-03-08T19:22:35Z</time>
      </trkpt>
      <trkpt lat="59.975915" lon="17.7392621">
        <ele>29.4575</ele>
        <time>2013-03-08T19:22:36Z</time>
      </trkpt>
      <trkpt lat="59.9759254" lon="17.7392826">
        <ele>29.4575</ele>
        <time>2013-03-08T19:22:37Z</time>
      </trkpt>
      <trkpt lat="59.9759361" lon="17.739302">
        <ele>29.4575</ele>
        <time>2013-03-08T19:22:38Z</time>
      </trkpt>
      <trkpt lat="59.975947" lon="17.7393211">
        <ele>29.4575</ele>
        <time>2013-03-08T19:22:39Z</time>
      </trkpt>
      <trkpt lat="59.9759575" lon="17.7393408">
        <ele>29.4575</ele>
        <time>2013-03-08T19:22:40Z</time>
      </trkpt>
      <trkpt lat="59.9759682" lon="17.73936">
        <ele>29.4575</ele>
        <time>2013-03-08T19:22:41Z</time>
      </trkpt>
      <trkpt lat="59.9759783" lon="17.739379">
        <ele>29.4575</ele>
        <time>2013-03-08T19:22:42Z</time>
      </trkpt>
      <trkpt lat="59.9759885" lon="17.7393973">
        <ele>29.4575</ele>
        <time>2013-03-08T19:22:43Z</time>
      </trkpt>
      <trkpt lat="59.9759993" lon="17.7394145">
        <ele>29.4575</ele>
        <time>2013-03-08T19:22:44Z</time>
      </trkpt>
      <trkpt lat="59.9760098" lon="17.7394329">
        <ele>29.9381</ele>
        <time>2013-03-08T19:22:45Z</time>
      </trkpt>
      <trkpt lat="59.97602" lon="17.739452">
        <ele>29.9381</ele>
        <time>2013-03-08T19:22:46Z</time>
      </trkpt>
      <trkpt lat="59.9760305" lon="17.7394703">
        <ele>29.9381</ele>
        <time>2013-03-08T19:22:47Z</time>
      </trkpt>
      <trkpt lat="59.976042" lon="17.7394872">
        <ele>29.9381</ele>
        <time>2013-03-08T19:22:48Z</time>
      </trkpt>
      <trkpt lat="59.9760532" lon="17.7395049">
        <ele>29.4575</ele>
        <time>2013-03-08T19:22:49Z</time>
      </trkpt>
      <trkpt lat="59.9760646" lon="17.7395233">
        <ele>29.9381</ele>
        <time>2013-03-08T19:22:50Z</time>
      </trkpt>
      <trkpt lat="59.9760752" lon="17.7395417">
        <ele>29.9381</ele>
        <time>2013-03-08T19:22:51Z</time>
      </trkpt>
      <trkpt lat="59.9760856" lon="17.7395596">
        <ele>29.4575</ele>
        <time>2013-03-08T19:22:52Z</time>
      </trkpt>
      <trkpt lat="59.9760963" lon="17.7395781">
        <ele>29.4575</ele>
        <time>2013-03-08T19:22:53Z</time>
      </trkpt>
      <trkpt lat="59.9761077" lon="17.7395974">
        <ele>29.4575</ele>
        <time>2013-03-08T19:22:54Z</time>
      </trkpt>
      <trkpt lat="59.9761186" lon="17.7396168">
        <ele>29.4575</ele>
        <time>2013-03-08T19:22:55Z</time>
      </trkpt>
      <trkpt lat="59.976129" lon="17.739637">
        <ele>29.9381</ele>
        <time>2013-03-08T19:22:56Z</time>
      </trkpt>
      <trkpt lat="59.9761389" lon="17.739658">
        <ele>29.9381</ele>
        <time>2013-03-08T19:22:57Z</time>
      </trkpt>
      <trkpt lat="59.9761497" lon="17.7396782">
        <ele>29.9381</ele>
        <time>2013-03-08T19:22:58Z</time>
      </trkpt>
      <trkpt lat="59.9761606" lon="17.739697">
        <ele>29.9381</ele>
        <time>2013-03-08T19:22:59Z</time>
      </trkpt>
      <trkpt lat="59.9761713" lon="17.7397154">
        <ele>29.9381</ele>
        <time>2013-03-08T19:23:00Z</time>
      </trkpt>
      <trkpt lat="59.9761818" lon="17.739734">
        <ele>29.9381</ele>
        <time>2013-03-08T19:23:01Z</time>
      </trkpt>
      <trkpt lat="59.976193" lon="17.7397514">
        <ele>29.9381</ele>
        <time>2013-03-08T19:23:02Z</time>
      </trkpt>
      <trkpt lat="59.9762056" lon="17.739768">
        <ele>30.4188</ele>
        <time>2013-03-08T19:23:03Z</time>
      </trkpt>
      <trkpt lat="59.9762184" lon="17.7397815">
        <ele>30.8995</ele>
        <time>2013-03-08T19:23:04Z</time>
      </trkpt>
      <trkpt lat="59.9762305" lon="17.7397929">
        <ele>30.8995</ele>
        <time>2013-03-08T19:23:05Z</time>
      </trkpt>
      <trkpt lat="59.976243" lon="17.7398007">
        <ele>30.8995</ele>
        <time>2013-03-08T19:23:06Z</time>
      </trkpt>
      <trkpt lat="59.9762575" lon="17.7398045">
        <ele>30.8995</ele>
        <time>2013-03-08T19:23:07Z</time>
      </trkpt>
      <trkpt lat="59.9762724" lon="17.7398065">
        <ele>31.3801</ele>
        <time>2013-03-08T19:23:08Z</time>
      </trkpt>
      <trkpt lat="59.9762865" lon="17.7398085">
        <ele>31.3801</ele>
        <time>2013-03-08T19:23:09Z</time>
      </trkpt>
      <trkpt lat="59.9763004" lon="17.7398098">
        <ele>31.3801</ele>
        <time>2013-03-08T19:23:10Z</time>
      </trkpt>
      <trkpt lat="59.9763148" lon="17.7398094">
        <ele>31.8607</ele>
        <time>2013-03-08T19:23:11Z</time>
      </trkpt>
      <trkpt lat="59.9763287" lon="17.7398043">
        <ele>31.8607</ele>
        <time>2013-03-08T19:23:12Z</time>
      </trkpt>
      <trkpt lat="59.976341" lon="17.7397952">
        <ele>31.8607</ele>
        <time>2013-03-08T19:23:13Z</time>
      </trkpt>
      <trkpt lat="59.9763536" lon="17.7397839">
        <ele>31.8607</ele>
        <time>2013-03-08T19:23:14Z</time>
      </trkpt>
      <trkpt lat="59.976366" lon="17.7397697">
        <ele>31.8607</ele>
        <time>2013-03-08T19:23:15Z</time>
      </trkpt>
      <trkpt lat="59.9763776" lon="17.7397536">
        <ele>31.8607</ele>
        <time>2013-03-08T19:23:16Z</time>
      </trkpt>
      <trkpt lat="59.976389" lon="17.7397361">
        <ele>31.8607</ele>
        <time>2013-03-08T19:23:17Z</time>
      </trkpt>
      <trkpt lat="59.9764" lon="17.7397178">
        <ele>31.8607</ele>
        <time>2013-03-08T19:23:18Z</time>
      </trkpt>
      <trkpt lat="59.9764112" lon="17.7396997">
        <ele>31.8607</ele>
        <time>2013-03-08T19:23:19Z</time>
      </trkpt>
      <trkpt lat="59.9764222" lon="17.7396815">
        <ele>31.3801</ele>
        <time>2013-03-08T19:23:20Z</time>
      </trkpt>
      <trkpt lat="59.9764339" lon="17.739662">
        <ele>31.3801</ele>
        <time>2013-03-08T19:23:21Z</time>
      </trkpt>
      <trkpt lat="59.9764458" lon="17.7396428">
        <ele>31.3801</ele>
        <time>2013-03-08T19:23:22Z</time>
      </trkpt>
      <trkpt lat="59.9764583" lon="17.7396243">
        <ele>31.3801</ele>
        <time>2013-03-08T19:23:23Z</time>
      </trkpt>
      <trkpt lat="59.976472" lon="17.7396076">
        <ele>31.8607</ele>
        <time>2013-03-08T19:23:24Z</time>
      </trkpt>
      <trkpt lat="59.9764853" lon="17.7395921">
        <ele>31.8607</ele>
        <time>2013-03-08T19:23:25Z</time>
      </trkpt>
      <trkpt lat="59.9764984" lon="17.739576">
        <ele>31.8607</ele>
        <time>2013-03-08T19:23:26Z</time>
      </trkpt>
      <trkpt lat="59.9765113" lon="17.7395585">
        <ele>31.8607</ele>
        <time>2013-03-08T19:23:27Z</time>
      </trkpt>
      <trkpt lat="59.9765246" lon="17.7395459">
        <ele>31.8607</ele>
        <time>2013-03-08T19:23:28Z</time>
      </trkpt>
      <trkpt lat="59.9765378" lon="17.7395337">
        <ele>31.8607</ele>
        <time>2013-03-08T19:23:29Z</time>
      </trkpt>
      <trkpt lat="59.9765512" lon="17.7395227">
        <ele>31.8607</ele>
        <time>2013-03-08T19:23:30Z</time>
      </trkpt>
      <trkpt lat="59.9765657" lon="17.7395129">
        <ele>31.8607</ele>
        <time>2013-03-08T19:23:31Z</time>
      </trkpt>
      <trkpt lat="59.9765808" lon="17.7395054">
        <ele>31.8607</ele>
        <time>2013-03-08T19:23:32Z</time>
      </trkpt>
      <trkpt lat="59.9765936" lon="17.7394922">
        <ele>31.8607</ele>
        <time>2013-03-08T19:23:33Z</time>
      </trkpt>
      <trkpt lat="59.9766055" lon="17.7394797">
        <ele>31.8607</ele>
        <time>2013-03-08T19:23:34Z</time>
      </trkpt>
      <trkpt lat="59.97662" lon="17.7394698">
        <ele>32.3416</ele>
        <time>2013-03-08T19:23:35Z</time>
      </trkpt>
      <trkpt lat="59.9766341" lon="17.7394626">
        <ele>32.3416</ele>
        <time>2013-03-08T19:23:36Z</time>
      </trkpt>
      <trkpt lat="59.9766483" lon="17.7394563">
        <ele>32.3416</ele>
        <time>2013-03-08T19:23:37Z</time>
      </trkpt>
      <trkpt lat="59.976662" lon="17.7394506">
        <ele>32.3416</ele>
        <time>2013-03-08T19:23:38Z</time>
      </trkpt>
      <trkpt lat="59.976676" lon="17.7394444">
        <ele>32.3416</ele>
        <time>2013-03-08T19:23:39Z</time>
      </trkpt>
      <trkpt lat="59.97669" lon="17.7394396">
        <ele>32.8223</ele>
        <time>2013-03-08T19:23:40Z</time>
      </trkpt>
      <trkpt lat="59.9767046" lon="17.7394347">
        <ele>32.8223</ele>
        <time>2013-03-08T19:23:41Z</time>
      </trkpt>
      <trkpt lat="59.9767195" lon="17.7394289">
        <ele>32.8223</ele>
        <time>2013-03-08T19:23:42Z</time>
      </trkpt>
      <trkpt lat="59.976735" lon="17.7394232">
        <ele>32.8223</ele>
        <time>2013-03-08T19:23:43Z</time>
      </trkpt>
      <trkpt lat="59.9767496" lon="17.7394173">
        <ele>32.8223</ele>
        <time>2013-03-08T19:23:44Z</time>
      </trkpt>
      <trkpt lat="59.9767641" lon="17.7394118">
        <ele>33.3029</ele>
        <time>2013-03-08T19:23:45Z</time>
      </trkpt>
      <trkpt lat="59.9767781" lon="17.7394076">
        <ele>33.3029</ele>
        <time>2013-03-08T19:23:46Z</time>
      </trkpt>
      <trkpt lat="59.9767908" lon="17.7394016">
        <ele>33.3029</ele>
        <time>2013-03-08T19:23:47Z</time>
      </trkpt>
      <trkpt lat="59.9768034" lon="17.7393958">
        <ele>32.8223</ele>
        <time>2013-03-08T19:23:48Z</time>
      </trkpt>
      <trkpt lat="59.9768158" lon="17.7393895">
        <ele>32.8223</ele>
        <time>2013-03-08T19:23:49Z</time>
      </trkpt>
      <trkpt lat="59.9768274" lon="17.7393818">
        <ele>32.8223</ele>
        <time>2013-03-08T19:23:50Z</time>
      </trkpt>
      <trkpt lat="59.9768402" lon="17.7393753">
        <ele>32.8223</ele>
        <time>2013-03-08T19:23:51Z</time>
      </trkpt>
      <trkpt lat="59.9768533" lon="17.7393696">
        <ele>32.8223</ele>
        <time>2013-03-08T19:23:52Z</time>
      </trkpt>
      <trkpt lat="59.9768655" lon="17.7393621">
        <ele>32.3416</ele>
        <time>2013-03-08T19:23:53Z</time>
      </trkpt>
      <trkpt lat="59.9768786" lon="17.7393539">
        <ele>32.8223</ele>
        <time>2013-03-08T19:23:54Z</time>
      </trkpt>
      <trkpt lat="59.9768924" lon="17.7393472">
        <ele>32.8223</ele>
        <time>2013-03-08T19:23:55Z</time>
      </trkpt>
      <trkpt lat="59.9769059" lon="17.7393432">
        <ele>32.8223</ele>
        <time>2013-03-08T19:23:56Z</time>
      </trkpt>
      <trkpt lat="59.9769208" lon="17.7393407">
        <ele>32.8223</ele>
        <time>2013-03-08T19:23:57Z</time>
      </trkpt>
      <trkpt lat="59.9769359" lon="17.739334">
        <ele>32.8223</ele>
        <time>2013-03-08T19:23:58Z</time>
      </trkpt>
      <trkpt lat="59.9769495" lon="17.7393269">
        <ele>32.8223</ele>
        <time>2013-03-08T19:23:59Z</time>
      </trkpt>
      <trkpt lat="59.976963" lon="17.739318">
        <ele>32.8223</ele>
        <time>2013-03-08T19:24:00Z</time>
      </trkpt>
      <trkpt lat="59.9769775" lon="17.7393068">
        <ele>32.8223</ele>
        <time>2013-03-08T19:24:01Z</time>
      </trkpt>
      <trkpt lat="59.9769904" lon="17.7392954">
        <ele>32.8223</ele>
        <time>2013-03-08T19:24:02Z</time>
      </trkpt>
      <trkpt lat="59.9770019" lon="17.7392866">
        <ele>32.8223</ele>
        <time>2013-03-08T19:24:03Z</time>
      </trkpt>
      <trkpt lat="59.9770132" lon="17.7392774">
        <ele>32.3416</ele>
        <time>2013-03-08T19:24:04Z</time>
      </trkpt>
      <trkpt lat="59.9770251" lon="17.7392686">
        <ele>32.3416</ele>
        <time>2013-03-08T19:24:05Z</time>
      </trkpt>
      <trkpt lat="59.9770375" lon="17.739258">
        <ele>32.3416</ele>
        <time>2013-03-08T19:24:06Z</time>
      </trkpt>
      <trkpt lat="59.9770499" lon="17.7392502">
        <ele>32.3416</ele>
        <time>2013-03-08T19:24:07Z</time>
      </trkpt>
      <trkpt lat="59.9770629" lon="17.7392415">
        <ele>32.8223</ele>
        <time>2013-03-08T19:24:08Z</time>
      </trkpt>
      <trkpt lat="59.9770762" lon="17.7392335">
        <ele>32.8223</ele>
        <time>2013-03-08T19:24:09Z</time>
      </trkpt>
      <trkpt lat="59.9770903" lon="17.7392242">
        <ele>33.3029</ele>
        <time>2013-03-08T19:24:10Z</time>
      </trkpt>
      <trkpt lat="59.9771039" lon="17.7392156">
        <ele>33.3029</ele>
        <time>2013-03-08T19:24:11Z</time>
      </trkpt>
      <trkpt lat="59.9771163" lon="17.7392047">
        <ele>33.3029</ele>
        <time>2013-03-08T19:24:12Z</time>
      </trkpt>
      <trkpt lat="59.9771293" lon="17.7391948">
        <ele>33.3029</ele>
        <time>2013-03-08T19:24:13Z</time>
      </trkpt>
      <trkpt lat="59.977142" lon="17.7391839">
        <ele>33.3029</ele>
        <time>2013-03-08T19:24:14Z</time>
      </trkpt>
      <trkpt lat="59.9771553" lon="17.7391728">
        <ele>33.7834</ele>
        <time>2013-03-08T19:24:15Z</time>
      </trkpt>
      <trkpt lat="59.9771686" lon="17.7391635">
        <ele>33.7834</ele>
        <time>2013-03-08T19:24:16Z</time>
      </trkpt>
      <trkpt lat="59.9771812" lon="17.7391519">
        <ele>33.7834</ele>
        <time>2013-03-08T19:24:17Z</time>
      </trkpt>
      <trkpt lat="59.9771946" lon="17.7391393">
        <ele>33.7834</ele>
        <time>2013-03-08T19:24:18Z</time>
      </trkpt>
      <trkpt lat="59.9772078" lon="17.7391273">
        <ele>33.7834</ele>
        <time>2013-03-08T19:24:19Z</time>
      </trkpt>
      <trkpt lat="59.9772207" lon="17.739115">
        <ele>34.2642</ele>
        <time>2013-03-08T19:24:20Z</time>
      </trkpt>
      <trkpt lat="59.9772347" lon="17.7391062">
        <ele>34.2642</ele>
        <time>2013-03-08T19:24:21Z</time>
      </trkpt>
      <trkpt lat="59.9772483" lon="17.739099">
        <ele>34.7449</ele>
        <time>2013-03-08T19:24:22Z</time>
      </trkpt>
      <trkpt lat="59.9772606" lon="17.7390917">
        <ele>34.7449</ele>
        <time>2013-03-08T19:24:23Z</time>
      </trkpt>
      <trkpt lat="59.9772729" lon="17.7390823">
        <ele>34.7449</ele>
        <time>2013-03-08T19:24:24Z</time>
      </trkpt>
      <trkpt lat="59.9772857" lon="17.739072">
        <ele>34.7449</ele>
        <time>2013-03-08T19:24:25Z</time>
      </trkpt>
      <trkpt lat="59.9772982" lon="17.7390633">
        <ele>34.7449</ele>
        <time>2013-03-08T19:24:26Z</time>
      </trkpt>
      <trkpt lat="59.9773109" lon="17.739057">
        <ele>34.7449</ele>
        <time>2013-03-08T19:24:27Z</time>
      </trkpt>
      <trkpt lat="59.9773224" lon="17.7390504">
        <ele>34.7449</ele>
        <time>2013-03-08T19:24:28Z</time>
      </trkpt>
      <trkpt lat="59.9773344" lon="17.7390434">
        <ele>35.2255</ele>
        <time>2013-03-08T19:24:29Z</time>
      </trkpt>
      <trkpt lat="59.9773479" lon="17.7390369">
        <ele>35.2255</ele>
        <time>2013-03-08T19:24:30Z</time>
      </trkpt>
      <trkpt lat="59.9773614" lon="17.7390295">
        <ele>35.2255</ele>
        <time>2013-03-08T19:24:31Z</time>
      </trkpt>
      <trkpt lat="59.9773744" lon="17.7390202">
        <ele>35.7061</ele>
        <time>2013-03-08T19:24:32Z</time>
      </trkpt>
      <trkpt lat="59.9773881" lon="17.7390129">
        <ele>35.7061</ele>
        <time>2013-03-08T19:24:33Z</time>
      </trkpt>
      <trkpt lat="59.9774032" lon="17.7390083">
        <ele>35.7061</ele>
        <time>2013-03-08T19:24:34Z</time>
      </trkpt>
      <trkpt lat="59.9774168" lon="17.7390024">
        <ele>36.1868</ele>
        <time>2013-03-08T19:24:35Z</time>
      </trkpt>
      <trkpt lat="59.9774303" lon="17.7389933">
        <ele>36.1868</ele>
        <time>2013-03-08T19:24:36Z</time>
      </trkpt>
      <trkpt lat="59.9774451" lon="17.7389869">
        <ele>36.1868</ele>
        <time>2013-03-08T19:24:37Z</time>
      </trkpt>
      <trkpt lat="59.9774597" lon="17.7389827">
        <ele>36.6675</ele>
        <time>2013-03-08T19:24:38Z</time>
      </trkpt>
      <trkpt lat="59.9774717" lon="17.7389761">
        <ele>36.6675</ele>
        <time>2013-03-08T19:24:39Z</time>
      </trkpt>
      <trkpt lat="59.9774846" lon="17.7389647">
        <ele>36.6675</ele>
        <time>2013-03-08T19:24:40Z</time>
      </trkpt>
      <trkpt lat="59.9774987" lon="17.7389517">
        <ele>36.6675</ele>
        <time>2013-03-08T19:24:41Z</time>
      </trkpt>
      <trkpt lat="59.9775135" lon="17.7389414">
        <ele>37.1481</ele>
        <time>2013-03-08T19:24:42Z</time>
      </trkpt>
      <trkpt lat="59.9775287" lon="17.7389342">
        <ele>37.1481</ele>
        <time>2013-03-08T19:24:43Z</time>
      </trkpt>
      <trkpt lat="59.9775421" lon="17.7389264">
        <ele>37.1481</ele>
        <time>2013-03-08T19:24:44Z</time>
      </trkpt>
      <trkpt lat="59.9775536" lon="17.7389151">
        <ele>37.6287</ele>
        <time>2013-03-08T19:24:45Z</time>
      </trkpt>
      <trkpt lat="59.9775666" lon="17.7389093">
        <ele>37.6287</ele>
        <time>2013-03-08T19:24:46Z</time>
      </trkpt>
      <trkpt lat="59.9775795" lon="17.7389088">
        <ele>37.6287</ele>
        <time>2013-03-08T19:24:47Z</time>
      </trkpt>
      <trkpt lat="59.9775906" lon="17.7389088">
        <ele>37.6287</ele>
        <time>2013-03-08T19:24:48Z</time>
      </trkpt>
      <trkpt lat="59.9776023" lon="17.7389083">
        <ele>37.6287</ele>
        <time>2013-03-08T19:24:49Z</time>
      </trkpt>
      <trkpt lat="59.9776151" lon="17.7389093">
        <ele>37.6287</ele>
        <time>2013-03-08T19:24:50Z</time>
      </trkpt>
      <trkpt lat="59.9776284" lon="17.7389094">
        <ele>37.6287</ele>
        <time>2013-03-08T19:24:51Z</time>
      </trkpt>
      <trkpt lat="59.9776419" lon="17.7389093">
        <ele>37.6287</ele>
        <time>2013-03-08T19:24:52Z</time>
      </trkpt>
      <trkpt lat="59.9776549" lon="17.73891">
        <ele>37.6287</ele>
        <time>2013-03-08T19:24:53Z</time>
      </trkpt>
      <trkpt lat="59.9776702" lon="17.7389114">
        <ele>37.6287</ele>
        <time>2013-03-08T19:24:54Z</time>
      </trkpt>
      <trkpt lat="59.9776851" lon="17.7389133">
        <ele>38.1094</ele>
        <time>2013-03-08T19:24:55Z</time>
      </trkpt>
      <trkpt lat="59.9777004" lon="17.7389161">
        <ele>38.1094</ele>
        <time>2013-03-08T19:24:56Z</time>
      </trkpt>
      <trkpt lat="59.9777156" lon="17.7389192">
        <ele>38.1094</ele>
        <time>2013-03-08T19:24:57Z</time>
      </trkpt>
      <trkpt lat="59.9777307" lon="17.7389216">
        <ele>38.1094</ele>
        <time>2013-03-08T19:24:58Z</time>
      </trkpt>
      <trkpt lat="59.9777463" lon="17.7389237">
        <ele>38.1094</ele>
        <time>2013-03-08T19:24:59Z</time>
      </trkpt>
      <trkpt lat="59.9777621" lon="17.7389273">
        <ele>38.1094</ele>
        <time>2013-03-08T19:25:00Z</time>
      </trkpt>
      <trkpt lat="59.9777773" lon="17.7389333">
        <ele>38.1094</ele>
        <time>2013-03-08T19:25:01Z</time>
      </trkpt>
      <trkpt lat="59.9777923" lon="17.7389415">
        <ele>38.5901</ele>
        <time>2013-03-08T19:25:02Z</time>
      </trkpt>
      <trkpt lat="59.9778067" lon="17.7389508">
        <ele>38.5901</ele>
        <time>2013-03-08T19:25:03Z</time>
      </trkpt>
      <trkpt lat="59.9778204" lon="17.7389599">
        <ele>38.5901</ele>
        <time>2013-03-08T19:25:04Z</time>
      </trkpt>
      <trkpt lat="59.9778344" lon="17.7389694">
        <ele>38.5901</ele>
        <time>2013-03-08T19:25:05Z</time>
      </trkpt>
      <trkpt lat="59.9778486" lon="17.7389803">
        <ele>38.5901</ele>
        <time>2013-03-08T19:25:06Z</time>
      </trkpt>
      <trkpt lat="59.9778622" lon="17.7389917">
        <ele>38.5901</ele>
        <time>2013-03-08T19:25:07Z</time>
      </trkpt>
      <trkpt lat="59.9778747" lon="17.7390036">
        <ele>38.5901</ele>
        <time>2013-03-08T19:25:08Z</time>
      </trkpt>
      <trkpt lat="59.9778874" lon="17.7390155">
        <ele>38.5901</ele>
        <time>2013-03-08T19:25:09Z</time>
      </trkpt>
      <trkpt lat="59.9779007" lon="17.7390263">
        <ele>38.5901</ele>
        <time>2013-03-08T19:25:10Z</time>
      </trkpt>
      <trkpt lat="59.9779147" lon="17.7390362">
        <ele>38.5901</ele>
        <time>2013-03-08T19:25:11Z</time>
      </trkpt>
      <trkpt lat="59.9779291" lon="17.739046">
        <ele>38.5901</ele>
        <time>2013-03-08T19:25:12Z</time>
      </trkpt>
      <trkpt lat="59.9779432" lon="17.7390543">
        <ele>38.5901</ele>
        <time>2013-03-08T19:25:13Z</time>
      </trkpt>
      <trkpt lat="59.9779581" lon="17.7390599">
        <ele>38.5901</ele>
        <time>2013-03-08T19:25:14Z</time>
      </trkpt>
      <trkpt lat="59.9779727" lon="17.7390684">
        <ele>39.0707</ele>
        <time>2013-03-08T19:25:15Z</time>
      </trkpt>
      <trkpt lat="59.9779871" lon="17.7390787">
        <ele>39.0707</ele>
        <time>2013-03-08T19:25:16Z</time>
      </trkpt>
      <trkpt lat="59.9780016" lon="17.7390875">
        <ele>39.0707</ele>
        <time>2013-03-08T19:25:17Z</time>
      </trkpt>
      <trkpt lat="59.9780151" lon="17.7390984">
        <ele>39.0707</ele>
        <time>2013-03-08T19:25:18Z</time>
      </trkpt>
      <trkpt lat="59.9780279" lon="17.7391087">
        <ele>39.0707</ele>
        <time>2013-03-08T19:25:19Z</time>
      </trkpt>
      <trkpt lat="59.9780402" lon="17.7391174">
        <ele>39.0707</ele>
        <time>2013-03-08T19:25:20Z</time>
      </trkpt>
      <trkpt lat="59.9780532" lon="17.7391259">
        <ele>39.0707</ele>
        <time>2013-03-08T19:25:21Z</time>
      </trkpt>
      <trkpt lat="59.9780662" lon="17.7391382">
        <ele>39.0707</ele>
        <time>2013-03-08T19:25:22Z</time>
      </trkpt>
      <trkpt lat="59.9780783" lon="17.7391536">
        <ele>39.0707</ele>
        <time>2013-03-08T19:25:23Z</time>
      </trkpt>
      <trkpt lat="59.9780912" lon="17.7391652">
        <ele>39.0707</ele>
        <time>2013-03-08T19:25:24Z</time>
      </trkpt>
      <trkpt lat="59.9781043" lon="17.7391744">
        <ele>39.0707</ele>
        <time>2013-03-08T19:25:25Z</time>
      </trkpt>
      <trkpt lat="59.9781177" lon="17.7391821">
        <ele>39.0707</ele>
        <time>2013-03-08T19:25:26Z</time>
      </trkpt>
      <trkpt lat="59.9781317" lon="17.7391886">
        <ele>39.0707</ele>
        <time>2013-03-08T19:25:27Z</time>
      </trkpt>
      <trkpt lat="59.9781459" lon="17.7391954">
        <ele>39.5513</ele>
        <time>2013-03-08T19:25:28Z</time>
      </trkpt>
      <trkpt lat="59.9781591" lon="17.7392025">
        <ele>39.5513</ele>
        <time>2013-03-08T19:25:29Z</time>
      </trkpt>
      <trkpt lat="59.9781726" lon="17.7392086">
        <ele>39.5513</ele>
        <time>2013-03-08T19:25:30Z</time>
      </trkpt>
      <trkpt lat="59.9781865" lon="17.7392128">
        <ele>39.5513</ele>
        <time>2013-03-08T19:25:31Z</time>
      </trkpt>
      <trkpt lat="59.9781999" lon="17.7392161">
        <ele>39.5513</ele>
        <time>2013-03-08T19:25:32Z</time>
      </trkpt>
      <trkpt lat="59.9782129" lon="17.7392181">
        <ele>39.5513</ele>
        <time>2013-03-08T19:25:33Z</time>
      </trkpt>
      <trkpt lat="59.9782269" lon="17.7392166">
        <ele>39.5513</ele>
        <time>2013-03-08T19:25:34Z</time>
      </trkpt>
      <trkpt lat="59.9782407" lon="17.7392145">
        <ele>39.0707</ele>
        <time>2013-03-08T19:25:35Z</time>
      </trkpt>
      <trkpt lat="59.9782542" lon="17.7392127">
        <ele>39.0707</ele>
        <time>2013-03-08T19:25:36Z</time>
      </trkpt>
      <trkpt lat="59.9782682" lon="17.7392096">
        <ele>39.0707</ele>
        <time>2013-03-08T19:25:37Z</time>
      </trkpt>
      <trkpt lat="59.9782823" lon="17.7392075">
        <ele>39.0707</ele>
        <time>2013-03-08T19:25:38Z</time>
      </trkpt>
      <trkpt lat="59.9782959" lon="17.7392082">
        <ele>38.5901</ele>
        <time>2013-03-08T19:25:39Z</time>
      </trkpt>
      <trkpt lat="59.9783102" lon="17.7392112">
        <ele>38.5901</ele>
        <time>2013-03-08T19:25:40Z</time>
      </trkpt>
      <trkpt lat="59.9783242" lon="17.7392154">
        <ele>38.5901</ele>
        <time>2013-03-08T19:25:41Z</time>
      </trkpt>
      <trkpt lat="59.9783378" lon="17.7392192">
        <ele>38.5901</ele>
        <time>2013-03-08T19:25:42Z</time>
      </trkpt>
      <trkpt lat="59.9783522" lon="17.7392225">
        <ele>38.5901</ele>
        <time>2013-03-08T19:25:43Z</time>
      </trkpt>
      <trkpt lat="59.9783667" lon="17.7392256">
        <ele>38.5901</ele>
        <time>2013-03-08T19:25:44Z</time>
      </trkpt>
      <trkpt lat="59.9783808" lon="17.7392279">
        <ele>38.5901</ele>
        <time>2013-03-08T19:25:45Z</time>
      </trkpt>
      <trkpt lat="59.9783948" lon="17.7392298">
        <ele>38.5901</ele>
        <time>2013-03-08T19:25:46Z</time>
      </trkpt>
      <trkpt lat="59.9784087" lon="17.7392334">
        <ele>38.5901</ele>
        <time>2013-03-08T19:25:47Z</time>
      </trkpt>
      <trkpt lat="59.9784225" lon="17.7392372">
        <ele>38.5901</ele>
        <time>2013-03-08T19:25:48Z</time>
      </trkpt>
      <trkpt lat="59.9784362" lon="17.7392405">
        <ele>38.5901</ele>
        <time>2013-03-08T19:25:49Z</time>
      </trkpt>
      <trkpt lat="59.9784503" lon="17.739244">
        <ele>38.5901</ele>
        <time>2013-03-08T19:25:50Z</time>
      </trkpt>
      <trkpt lat="59.978465" lon="17.7392476">
        <ele>38.5901</ele>
        <time>2013-03-08T19:25:51Z</time>
      </trkpt>
      <trkpt lat="59.9784793" lon="17.7392511">
        <ele>38.5901</ele>
        <time>2013-03-08T19:25:52Z</time>
      </trkpt>
      <trkpt lat="59.9784936" lon="17.7392543">
        <ele>38.5901</ele>
        <time>2013-03-08T19:25:53Z</time>
      </trkpt>
      <trkpt lat="59.9785073" lon="17.7392579">
        <ele>38.5901</ele>
        <time>2013-03-08T19:25:54Z</time>
      </trkpt>
      <trkpt lat="59.9785211" lon="17.7392616">
        <ele>38.5901</ele>
        <time>2013-03-08T19:25:55Z</time>
      </trkpt>
      <trkpt lat="59.9785344" lon="17.7392637">
        <ele>38.5901</ele>
        <time>2013-03-08T19:25:56Z</time>
      </trkpt>
      <trkpt lat="59.9785485" lon="17.7392662">
        <ele>38.5901</ele>
        <time>2013-03-08T19:25:57Z</time>
      </trkpt>
      <trkpt lat="59.9785621" lon="17.7392704">
        <ele>38.5901</ele>
        <time>2013-03-08T19:25:58Z</time>
      </trkpt>
      <trkpt lat="59.9785761" lon="17.7392745">
        <ele>38.5901</ele>
        <time>2013-03-08T19:25:59Z</time>
      </trkpt>
      <trkpt lat="59.9785904" lon="17.7392762">
        <ele>38.5901</ele>
        <time>2013-03-08T19:26:00Z</time>
      </trkpt>
      <trkpt lat="59.9786051" lon="17.7392774">
        <ele>38.1094</ele>
        <time>2013-03-08T19:26:01Z</time>
      </trkpt>
      <trkpt lat="59.9786202" lon="17.7392792">
        <ele>38.1094</ele>
        <time>2013-03-08T19:26:02Z</time>
      </trkpt>
      <trkpt lat="59.9786367" lon="17.7392811">
        <ele>38.5901</ele>
        <time>2013-03-08T19:26:03Z</time>
      </trkpt>
      <trkpt lat="59.9786517" lon="17.7392816">
        <ele>38.5901</ele>
        <time>2013-03-08T19:26:04Z</time>
      </trkpt>
      <trkpt lat="59.9786652" lon="17.7392798">
        <ele>38.5901</ele>
        <time>2013-03-08T19:26:05Z</time>
      </trkpt>
      <trkpt lat="59.9786785" lon="17.7392801">
        <ele>38.5901</ele>
        <time>2013-03-08T19:26:06Z</time>
      </trkpt>
      <trkpt lat="59.9786915" lon="17.7392816">
        <ele>38.1094</ele>
        <time>2013-03-08T19:26:07Z</time>
      </trkpt>
      <trkpt lat="59.9787033" lon="17.7392855">
        <ele>38.1094</ele>
        <time>2013-03-08T19:26:08Z</time>
      </trkpt>
      <trkpt lat="59.9787154" lon="17.739289">
        <ele>38.1094</ele>
        <time>2013-03-08T19:26:09Z</time>
      </trkpt>
      <trkpt lat="59.9787273" lon="17.7392907">
        <ele>38.1094</ele>
        <time>2013-03-08T19:26:10Z</time>
      </trkpt>
      <trkpt lat="59.9787393" lon="17.7392906">
        <ele>38.1094</ele>
        <time>2013-03-08T19:26:11Z</time>
      </trkpt>
      <trkpt lat="59.9787517" lon="17.7392937">
        <ele>38.1094</ele>
        <time>2013-03-08T19:26:12Z</time>
      </trkpt>
      <trkpt lat="59.9787635" lon="17.7392978">
        <ele>38.1094</ele>
        <time>2013-03-08T19:26:13Z</time>
      </trkpt>
      <trkpt lat="59.9787724" lon="17.7393019">
        <ele>37.6287</ele>
        <time>2013-03-08T19:26:14Z</time>
      </trkpt>
      <trkpt lat="59.9787808" lon="17.7393099">
        <ele>37.6287</ele>
        <time>2013-03-08T19:26:15Z</time>
      </trkpt>
      <trkpt lat="59.9787898" lon="17.7393184">
        <ele>37.1481</ele>
        <time>2013-03-08T19:26:16Z</time>
      </trkpt>
      <trkpt lat="59.9787987" lon="17.7393257">
        <ele>36.6675</ele>
        <time>2013-03-08T19:26:17Z</time>
      </trkpt>
      <trkpt lat="59.9788081" lon="17.73933">
        <ele>36.6675</ele>
        <time>2013-03-08T19:26:18Z</time>
      </trkpt>
      <trkpt lat="59.978819" lon="17.7393321">
        <ele>36.1868</ele>
        <time>2013-03-08T19:26:19Z</time>
      </trkpt>
      <trkpt lat="59.9788325" lon="17.7393383">
        <ele>35.2255</ele>
        <time>2013-03-08T19:26:20Z</time>
      </trkpt>
      <trkpt lat="59.9788497" lon="17.7393461">
        <ele>35.2255</ele>
        <time>2013-03-08T19:26:21Z</time>
      </trkpt>
      <trkpt lat="59.9788647" lon="17.7393532">
        <ele>34.7449</ele>
        <time>2013-03-08T19:26:22Z</time>
      </trkpt>
      <trkpt lat="59.978877" lon="17.7393616">
        <ele>34.7449</ele>
        <time>2013-03-08T19:26:23Z</time>
      </trkpt>
      <trkpt lat="59.978887" lon="17.7393741">
        <ele>34.7449</ele>
        <time>2013-03-08T19:26:24Z</time>
      </trkpt>
      <trkpt lat="59.9788947" lon="17.7393902">
        <ele>34.7449</ele>
        <time>2013-03-08T19:26:25Z</time>
      </trkpt>
      <trkpt lat="59.9788994" lon="17.7394095">
        <ele>34.7449</ele>
        <time>2013-03-08T19:26:26Z</time>
      </trkpt>
      <trkpt lat="59.9789009" lon="17.7394325">
        <ele>34.7449</ele>
        <time>2013-03-08T19:26:27Z</time>
      </trkpt>
      <trkpt lat="59.9789008" lon="17.739458">
        <ele>34.7449</ele>
        <time>2013-03-08T19:26:28Z</time>
      </trkpt>
      <trkpt lat="59.9788978" lon="17.7394832">
        <ele>34.7449</ele>
        <time>2013-03-08T19:26:29Z</time>
      </trkpt>
      <trkpt lat="59.9788931" lon="17.7395045">
        <ele>35.2255</ele>
        <time>2013-03-08T19:26:30Z</time>
      </trkpt>
      <trkpt lat="59.9788873" lon="17.7395241">
        <ele>35.2255</ele>
        <time>2013-03-08T19:26:31Z</time>
      </trkpt>
      <trkpt lat="59.9788818" lon="17.7395437">
        <ele>35.2255</ele>
        <time>2013-03-08T19:26:32Z</time>
      </trkpt>
      <trkpt lat="59.9788758" lon="17.7395629">
        <ele>35.2255</ele>
        <time>2013-03-08T19:26:33Z</time>
      </trkpt>
      <trkpt lat="59.9788687" lon="17.7395836">
        <ele>35.2255</ele>
        <time>2013-03-08T19:26:34Z</time>
      </trkpt>
      <trkpt lat="59.978863" lon="17.7396046">
        <ele>35.2255</ele>
        <time>2013-03-08T19:26:35Z</time>
      </trkpt>
      <trkpt lat="59.9788572" lon="17.7396259">
        <ele>35.2255</ele>
        <time>2013-03-08T19:26:36Z</time>
      </trkpt>
      <trkpt lat="59.9788499" lon="17.7396473">
        <ele>35.7061</ele>
        <time>2013-03-08T19:26:37Z</time>
      </trkpt>
      <trkpt lat="59.9788416" lon="17.7396651">
        <ele>36.1868</ele>
        <time>2013-03-08T19:26:38Z</time>
      </trkpt>
      <trkpt lat="59.9788331" lon="17.7396799">
        <ele>36.6675</ele>
        <time>2013-03-08T19:26:39Z</time>
      </trkpt>
      <trkpt lat="59.9788247" lon="17.7396935">
        <ele>36.6675</ele>
        <time>2013-03-08T19:26:40Z</time>
      </trkpt>
      <trkpt lat="59.9788158" lon="17.7397077">
        <ele>36.6675</ele>
        <time>2013-03-08T19:26:41Z</time>
      </trkpt>
      <trkpt lat="59.9788076" lon="17.7397263">
        <ele>36.6675</ele>
        <time>2013-03-08T19:26:42Z</time>
      </trkpt>
      <trkpt lat="59.9788029" lon="17.7397483">
        <ele>37.1481</ele>
        <time>2013-03-08T19:26:43Z</time>
      </trkpt>
      <trkpt lat="59.9788005" lon="17.7397717">
        <ele>37.1481</ele>
        <time>2013-03-08T19:26:44Z</time>
      </trkpt>
      <trkpt lat="59.9788013" lon="17.7397939">
        <ele>37.1481</ele>
        <time>2013-03-08T19:26:45Z</time>
      </trkpt>
      <trkpt lat="59.9788031" lon="17.7398144">
        <ele>37.1481</ele>
        <time>2013-03-08T19:26:46Z</time>
      </trkpt>
      <trkpt lat="59.9788043" lon="17.7398348">
        <ele>37.6287</ele>
        <time>2013-03-08T19:26:47Z</time>
      </trkpt>
      <trkpt lat="59.9788062" lon="17.7398537">
        <ele>37.6287</ele>
        <time>2013-03-08T19:26:48Z</time>
      </trkpt>
      <trkpt lat="59.978808" lon="17.7398748">
        <ele>37.6287</ele>
        <time>2013-03-08T19:26:49Z</time>
      </trkpt>
      <trkpt lat="59.978811" lon="17.7398962">
        <ele>37.6287</ele>
        <time>2013-03-08T19:26:50Z</time>
      </trkpt>
      <trkpt lat="59.9788143" lon="17.7399165">
        <ele>37.6287</ele>
        <time>2013-03-08T19:26:51Z</time>
      </trkpt>
      <trkpt lat="59.9788178" lon="17.7399341">
        <ele>37.6287</ele>
        <time>2013-03-08T19:26:52Z</time>
      </trkpt>
      <trkpt lat="59.9788215" lon="17.7399464">
        <ele>37.6287</ele>
        <time>2013-03-08T19:26:53Z</time>
      </trkpt>
      <trkpt lat="59.9788256" lon="17.7399538">
        <ele>37.6287</ele>
        <time>2013-03-08T19:26:54Z</time>
      </trkpt>
      <trkpt lat="59.9788331" lon="17.7399551">
        <ele>38.1094</ele>
        <time>2013-03-08T19:26:55Z</time>
      </trkpt>
      <trkpt lat="59.9788447" lon="17.7399531">
        <ele>38.1094</ele>
        <time>2013-03-08T19:26:56Z</time>
      </trkpt>
    </trkseg>
  </trk>
</gpx>